<?xml version="1.0" encoding="UTF-8"?>
<gpx version="1.1" creator="https://www.youtrack.es" xsi:schemaLocation="http://www.topografix.com/GPX/1/1 http://www.topografix.com/GPX/1/1/gpx.xsd http://www.garmin.com/xmlschemas/GpxExtensions/v3 http://www.garmin.com/xmlschemas/GpxExtensionsv3.xsd http://www.garmin.com/xmlschemas/TrackPointExtension/v1 http://www.garmin.com/xmlschemas/TrackPointExtensionv1.xsd" xmlns:gpxtpx="http://www.garmin.com/xmlschemas/TrackPointExtension/v1" xmlns:gpxx="http://www.garmin.com/xmlschemas/GpxExtensions/v3" xmlns:xsi="http://www.w3.org/2001/XMLSchema-instance">
  <metadata>
    <link href="https://www.youtrack.es">
      <text>YouTrack.es</text>
    </link>
    <time>2026-05-09T01:00:25Z</time>
  </metadata>
  <trk>
    <src>https://www.youtrack.es</src>
    <link href="https://www.youtrack.es/ruta/22864-cerro-del-telegrafo">
      <text>YouTrack.es</text>
    </link>
    <trkseg>
      <trkpt lat="40.178447077050805" lon="-3.670162819325924">
        <ele>588.7999877929688</ele>
        <time>2021-05-22T09:34:14.000Z</time>
      </trkpt>
      <trkpt lat="40.17844791524112" lon="-3.6701635736972094">
        <ele>588.5999755859375</ele>
        <time>2021-05-22T09:34:14.000Z</time>
      </trkpt>
      <trkpt lat="40.1783902477473" lon="-3.6700940877199173">
        <ele>588.5999755859375</ele>
        <time>2021-05-22T09:34:14.002Z</time>
      </trkpt>
      <trkpt lat="40.17835982143879" lon="-3.6700775753706694">
        <ele>588.5999755859375</ele>
        <time>2021-05-22T09:34:14.005Z</time>
      </trkpt>
      <trkpt lat="40.17835353501141" lon="-3.6700625717639923">
        <ele>588.4000244140625</ele>
        <time>2021-05-22T09:34:14.008Z</time>
      </trkpt>
      <trkpt lat="40.17835152335465" lon="-3.6700563691556454">
        <ele>588.5999755859375</ele>
        <time>2021-05-22T09:34:14.011Z</time>
      </trkpt>
      <trkpt lat="40.17830693162978" lon="-3.6700342409312725">
        <ele>587.5999755859375</ele>
        <time>2021-05-22T09:34:14.016Z</time>
      </trkpt>
      <trkpt lat="40.17828471958637" lon="-3.670023512095213">
        <ele>587.5999755859375</ele>
        <time>2021-05-22T09:34:14.021Z</time>
      </trkpt>
      <trkpt lat="40.17816343344748" lon="-3.670006413012743">
        <ele>587.5999755859375</ele>
        <time>2021-05-22T09:34:14.029Z</time>
      </trkpt>
      <trkpt lat="40.17798028886318" lon="-3.670093920081854">
        <ele>587.5999755859375</ele>
        <time>2021-05-22T09:34:14.042Z</time>
      </trkpt>
      <trkpt lat="40.17790476791561" lon="-3.670257367193699">
        <ele>587.5999755859375</ele>
        <time>2021-05-22T09:34:14.059Z</time>
      </trkpt>
      <trkpt lat="40.17783058807254" lon="-3.6704871989786625">
        <ele>587.4000244140625</ele>
        <time>2021-05-22T09:34:14.081Z</time>
      </trkpt>
      <trkpt lat="40.17777744680643" lon="-3.6706819105893373">
        <ele>587.2000122070312</ele>
        <time>2021-05-22T09:34:14.107Z</time>
      </trkpt>
      <trkpt lat="40.177686251699924" lon="-3.6709560826420784">
        <ele>587.2000122070312</ele>
        <time>2021-05-22T09:34:14.139Z</time>
      </trkpt>
      <trkpt lat="40.177676528692245" lon="-3.6709989979863167">
        <ele>587.0</ele>
        <time>2021-05-22T09:34:14.172Z</time>
      </trkpt>
      <trkpt lat="40.17757250927389" lon="-3.6709394864737988">
        <ele>587.0</ele>
        <time>2021-05-22T09:34:14.208Z</time>
      </trkpt>
      <trkpt lat="40.177566139027476" lon="-3.670908138155937">
        <ele>587.0</ele>
        <time>2021-05-22T09:34:14.245Z</time>
      </trkpt>
      <trkpt lat="40.17757561057806" lon="-3.670805962756276">
        <ele>587.0</ele>
        <time>2021-05-22T09:34:14.284Z</time>
      </trkpt>
      <trkpt lat="40.17757720313966" lon="-3.6707840859889984">
        <ele>587.0</ele>
        <time>2021-05-22T09:34:14.323Z</time>
      </trkpt>
      <trkpt lat="40.17758935689926" lon="-3.6707053799182177">
        <ele>586.7999877929688</ele>
        <time>2021-05-22T09:34:14.364Z</time>
      </trkpt>
      <trkpt lat="40.17760050483048" lon="-3.6706476286053658">
        <ele>587.0</ele>
        <time>2021-05-22T09:34:14.406Z</time>
      </trkpt>
      <trkpt lat="40.17751056700945" lon="-3.670858098194003">
        <ele>587.4000244140625</ele>
        <time>2021-05-22T09:34:14.453Z</time>
      </trkpt>
      <trkpt lat="40.17746220342815" lon="-3.6709468625485897">
        <ele>587.4000244140625</ele>
        <time>2021-05-22T09:34:14.502Z</time>
      </trkpt>
      <trkpt lat="40.17741861753166" lon="-3.6709695775061846">
        <ele>587.2000122070312</ele>
        <time>2021-05-22T09:34:14.552Z</time>
      </trkpt>
      <trkpt lat="40.177285093814135" lon="-3.6710576713085175">
        <ele>587.2000122070312</ele>
        <time>2021-05-22T09:34:14.606Z</time>
      </trkpt>
      <trkpt lat="40.17726841382682" lon="-3.6710611917078495">
        <ele>587.2000122070312</ele>
        <time>2021-05-22T09:34:14.660Z</time>
      </trkpt>
      <trkpt lat="40.177234718576074" lon="-3.6710552405565977">
        <ele>587.2000122070312</ele>
        <time>2021-05-22T09:34:14.715Z</time>
      </trkpt>
      <trkpt lat="40.17722323536873" lon="-3.6710499599575996">
        <ele>587.2000122070312</ele>
        <time>2021-05-22T09:34:14.770Z</time>
      </trkpt>
      <trkpt lat="40.17719213850796" lon="-3.6710694059729576">
        <ele>587.0</ele>
        <time>2021-05-22T09:34:14.826Z</time>
      </trkpt>
      <trkpt lat="40.17717084847391" lon="-3.671082481741905">
        <ele>587.0</ele>
        <time>2021-05-22T09:34:14.883Z</time>
      </trkpt>
      <trkpt lat="40.17705383710563" lon="-3.6710679810494184">
        <ele>587.2000122070312</ele>
        <time>2021-05-22T09:34:14.943Z</time>
      </trkpt>
      <trkpt lat="40.176834147423506" lon="-3.670962369069457">
        <ele>587.2000122070312</ele>
        <time>2021-05-22T09:34:15.009Z</time>
      </trkpt>
      <trkpt lat="40.17677564173937" lon="-3.670924147590995">
        <ele>587.7999877929688</ele>
        <time>2021-05-22T09:34:15.077Z</time>
      </trkpt>
      <trkpt lat="40.17671721987426" lon="-3.670886680483818">
        <ele>588.2000122070312</ele>
        <time>2021-05-22T09:34:15.146Z</time>
      </trkpt>
      <trkpt lat="40.17660414800048" lon="-3.6708332877606153">
        <ele>588.7999877929688</ele>
        <time>2021-05-22T09:34:15.218Z</time>
      </trkpt>
      <trkpt lat="40.176552599295974" lon="-3.6708129197359085">
        <ele>589.4000244140625</ele>
        <time>2021-05-22T09:34:15.292Z</time>
      </trkpt>
      <trkpt lat="40.17642963677645" lon="-3.670743266120553">
        <ele>590.5999755859375</ele>
        <time>2021-05-22T09:34:15.369Z</time>
      </trkpt>
      <trkpt lat="40.17629695124924" lon="-3.6706866044551134">
        <ele>591.7999877929688</ele>
        <time>2021-05-22T09:34:15.450Z</time>
      </trkpt>
      <trkpt lat="40.176269290968776" lon="-3.6706744506955147">
        <ele>592.0</ele>
        <time>2021-05-22T09:34:15.532Z</time>
      </trkpt>
      <trkpt lat="40.176105508580804" lon="-3.670604880899191">
        <ele>593.0</ele>
        <time>2021-05-22T09:34:15.618Z</time>
      </trkpt>
      <trkpt lat="40.17605194821954" lon="-3.670583004131913">
        <ele>593.5999755859375</ele>
        <time>2021-05-22T09:34:15.706Z</time>
      </trkpt>
      <trkpt lat="40.17596854828298" lon="-3.6705676652491093">
        <ele>594.2000122070312</ele>
        <time>2021-05-22T09:34:15.796Z</time>
      </trkpt>
      <trkpt lat="40.17588648945093" lon="-3.6705967504531145">
        <ele>594.7999877929688</ele>
        <time>2021-05-22T09:34:15.888Z</time>
      </trkpt>
      <trkpt lat="40.17585841007531" lon="-3.670607144013047">
        <ele>595.2000122070312</ele>
        <time>2021-05-22T09:34:15.981Z</time>
      </trkpt>
      <trkpt lat="40.17572304233909" lon="-3.6705980077385902">
        <ele>596.2000122070312</ele>
        <time>2021-05-22T09:34:16.077Z</time>
      </trkpt>
      <trkpt lat="40.17559454776347" lon="-3.670427519828081">
        <ele>597.4000244140625</ele>
        <time>2021-05-22T09:34:16.178Z</time>
      </trkpt>
      <trkpt lat="40.175435710698366" lon="-3.6702886316925287">
        <ele>598.4000244140625</ele>
        <time>2021-05-22T09:34:16.284Z</time>
      </trkpt>
      <trkpt lat="40.17534401267767" lon="-3.670239597558975">
        <ele>598.4000244140625</ele>
        <time>2021-05-22T09:34:16.392Z</time>
      </trkpt>
      <trkpt lat="40.17520512454212" lon="-3.6701390147209167">
        <ele>598.5999755859375</ele>
        <time>2021-05-22T09:34:16.504Z</time>
      </trkpt>
      <trkpt lat="40.17515156418085" lon="-3.670095009729266">
        <ele>599.5999755859375</ele>
        <time>2021-05-22T09:34:16.618Z</time>
      </trkpt>
      <trkpt lat="40.17491024918854" lon="-3.669878840446472">
        <ele>600.5999755859375</ele>
        <time>2021-05-22T09:34:16.740Z</time>
      </trkpt>
      <trkpt lat="40.17485694028437" lon="-3.66982645355165">
        <ele>600.7999877929688</ele>
        <time>2021-05-22T09:34:16.863Z</time>
      </trkpt>
      <trkpt lat="40.17460950650275" lon="-3.6696146428585052">
        <ele>601.2000122070312</ele>
        <time>2021-05-22T09:34:16.994Z</time>
      </trkpt>
      <trkpt lat="40.17434639856219" lon="-3.6693803686648607">
        <ele>601.5999755859375</ele>
        <time>2021-05-22T09:34:17.133Z</time>
      </trkpt>
      <trkpt lat="40.17431790009141" lon="-3.6693506129086018">
        <ele>601.7999877929688</ele>
        <time>2021-05-22T09:34:17.273Z</time>
      </trkpt>
      <trkpt lat="40.17404624260962" lon="-3.6690774466842413">
        <ele>602.2000122070312</ele>
        <time>2021-05-22T09:34:17.422Z</time>
      </trkpt>
      <trkpt lat="40.17378590069711" lon="-3.668836886063218">
        <ele>602.2000122070312</ele>
        <time>2021-05-22T09:34:17.579Z</time>
      </trkpt>
      <trkpt lat="40.17354198731482" lon="-3.6685876920819283">
        <ele>602.5999755859375</ele>
        <time>2021-05-22T09:34:17.744Z</time>
      </trkpt>
      <trkpt lat="40.173483146354556" lon="-3.6683732829988003">
        <ele>602.5999755859375</ele>
        <time>2021-05-22T09:34:17.914Z</time>
      </trkpt>
      <trkpt lat="40.17350686714053" lon="-3.668021159246564">
        <ele>602.7999877929688</ele>
        <time>2021-05-22T09:34:18.091Z</time>
      </trkpt>
      <trkpt lat="40.173496808856726" lon="-3.667817562818527">
        <ele>602.5999755859375</ele>
        <time>2021-05-22T09:34:18.272Z</time>
      </trkpt>
      <trkpt lat="40.1734618563205" lon="-3.667718069627881">
        <ele>602.5999755859375</ele>
        <time>2021-05-22T09:34:18.455Z</time>
      </trkpt>
      <trkpt lat="40.1734116487205" lon="-3.6676296405494213">
        <ele>602.5999755859375</ele>
        <time>2021-05-22T09:34:18.640Z</time>
      </trkpt>
      <trkpt lat="40.17335875891149" lon="-3.6675401218235493">
        <ele>602.5999755859375</ele>
        <time>2021-05-22T09:34:18.827Z</time>
      </trkpt>
      <trkpt lat="40.173314502462745" lon="-3.667437694966793">
        <ele>602.4000244140625</ele>
        <time>2021-05-22T09:34:19.017Z</time>
      </trkpt>
      <trkpt lat="40.173183577135205" lon="-3.6672702245414257">
        <ele>602.2000122070312</ele>
        <time>2021-05-22T09:34:19.211Z</time>
      </trkpt>
      <trkpt lat="40.173147954046726" lon="-3.6672343499958515">
        <ele>602.0</ele>
        <time>2021-05-22T09:34:19.406Z</time>
      </trkpt>
      <trkpt lat="40.17299976199865" lon="-3.6670843977481127">
        <ele>601.4000244140625</ele>
        <time>2021-05-22T09:34:19.606Z</time>
      </trkpt>
      <trkpt lat="40.172917284071445" lon="-3.6670137383043766">
        <ele>601.2000122070312</ele>
        <time>2021-05-22T09:34:19.809Z</time>
      </trkpt>
      <trkpt lat="40.17283380031586" lon="-3.6669366247951984">
        <ele>601.0</ele>
        <time>2021-05-22T09:34:20.015Z</time>
      </trkpt>
      <trkpt lat="40.17264001071453" lon="-3.666808968409896">
        <ele>600.7999877929688</ele>
        <time>2021-05-22T09:34:20.226Z</time>
      </trkpt>
      <trkpt lat="40.17221940681338" lon="-3.666617274284363">
        <ele>600.4000244140625</ele>
        <time>2021-05-22T09:34:20.449Z</time>
      </trkpt>
      <trkpt lat="40.172111950814724" lon="-3.6665725987404585">
        <ele>600.2000122070312</ele>
        <time>2021-05-22T09:34:20.675Z</time>
      </trkpt>
      <trkpt lat="40.17175102606416" lon="-3.666422562673688">
        <ele>599.7999877929688</ele>
        <time>2021-05-22T09:34:20.910Z</time>
      </trkpt>
      <trkpt lat="40.17156151123345" lon="-3.6663582734763622">
        <ele>599.4000244140625</ele>
        <time>2021-05-22T09:34:21.150Z</time>
      </trkpt>
      <trkpt lat="40.17151306383312" lon="-3.6663600336760283">
        <ele>599.2000122070312</ele>
        <time>2021-05-22T09:34:21.392Z</time>
      </trkpt>
      <trkpt lat="40.17146687954664" lon="-3.6663794796913862">
        <ele>599.2000122070312</ele>
        <time>2021-05-22T09:34:21.635Z</time>
      </trkpt>
      <trkpt lat="40.17135305330157" lon="-3.666498586535454">
        <ele>599.0</ele>
        <time>2021-05-22T09:34:21.882Z</time>
      </trkpt>
      <trkpt lat="40.171318436041474" lon="-3.666541585698724">
        <ele>598.7999877929688</ele>
        <time>2021-05-22T09:34:22.130Z</time>
      </trkpt>
      <trkpt lat="40.17128113657236" lon="-3.666577795520425">
        <ele>598.7999877929688</ele>
        <time>2021-05-22T09:34:22.379Z</time>
      </trkpt>
      <trkpt lat="40.17115255817771" lon="-3.6666117422282696">
        <ele>598.7999877929688</ele>
        <time>2021-05-22T09:34:22.631Z</time>
      </trkpt>
      <trkpt lat="40.171020459383726" lon="-3.6665508057922125">
        <ele>598.5999755859375</ele>
        <time>2021-05-22T09:34:22.887Z</time>
      </trkpt>
      <trkpt lat="40.17092884518206" lon="-3.6665086448192596">
        <ele>598.5999755859375</ele>
        <time>2021-05-22T09:34:23.146Z</time>
      </trkpt>
      <trkpt lat="40.17064989544451" lon="-3.666459023952484">
        <ele>599.0</ele>
        <time>2021-05-22T09:34:23.412Z</time>
      </trkpt>
      <trkpt lat="40.17030389048159" lon="-3.66633128374815">
        <ele>599.4000244140625</ele>
        <time>2021-05-22T09:34:23.687Z</time>
      </trkpt>
      <trkpt lat="40.16995931044221" lon="-3.6661864444613457">
        <ele>600.0</ele>
        <time>2021-05-22T09:34:23.971Z</time>
      </trkpt>
      <trkpt lat="40.169739285483956" lon="-3.666093572974205">
        <ele>600.2000122070312</ele>
        <time>2021-05-22T09:34:24.261Z</time>
      </trkpt>
      <trkpt lat="40.16952646896243" lon="-3.666011346504092">
        <ele>600.4000244140625</ele>
        <time>2021-05-22T09:34:24.557Z</time>
      </trkpt>
      <trkpt lat="40.16913126222789" lon="-3.6658623162657022">
        <ele>600.7999877929688</ele>
        <time>2021-05-22T09:34:24.864Z</time>
      </trkpt>
      <trkpt lat="40.1686732750386" lon="-3.665676238015294">
        <ele>599.5999755859375</ele>
        <time>2021-05-22T09:34:25.183Z</time>
      </trkpt>
      <trkpt lat="40.168318301439285" lon="-3.665527207776904">
        <ele>599.0</ele>
        <time>2021-05-22T09:34:25.512Z</time>
      </trkpt>
      <trkpt lat="40.167812621220946" lon="-3.665323695167899">
        <ele>598.7999877929688</ele>
        <time>2021-05-22T09:34:25.854Z</time>
      </trkpt>
      <trkpt lat="40.167459743097425" lon="-3.6651760060340166">
        <ele>598.7999877929688</ele>
        <time>2021-05-22T09:34:26.206Z</time>
      </trkpt>
      <trkpt lat="40.1670587528497" lon="-3.665003338828683">
        <ele>599.0</ele>
        <time>2021-05-22T09:34:26.569Z</time>
      </trkpt>
      <trkpt lat="40.16673261299729" lon="-3.664871910586953">
        <ele>599.5999755859375</ele>
        <time>2021-05-22T09:34:26.941Z</time>
      </trkpt>
      <trkpt lat="40.166539242491126" lon="-3.6647976469248533">
        <ele>599.7999877929688</ele>
        <time>2021-05-22T09:34:27.318Z</time>
      </trkpt>
      <trkpt lat="40.16650412231684" lon="-3.6647823080420494">
        <ele>599.7999877929688</ele>
        <time>2021-05-22T09:34:27.696Z</time>
      </trkpt>
      <trkpt lat="40.16616817563772" lon="-3.6646336130797863">
        <ele>600.7999877929688</ele>
        <time>2021-05-22T09:34:28.083Z</time>
      </trkpt>
      <trkpt lat="40.16599467024207" lon="-3.664573011919856">
        <ele>600.7999877929688</ele>
        <time>2021-05-22T09:34:28.474Z</time>
      </trkpt>
      <trkpt lat="40.16585963778198" lon="-3.6645355448126793">
        <ele>601.0</ele>
        <time>2021-05-22T09:34:28.869Z</time>
      </trkpt>
      <trkpt lat="40.16558471135795" lon="-3.6645322758704424">
        <ele>601.0</ele>
        <time>2021-05-22T09:34:29.271Z</time>
      </trkpt>
      <trkpt lat="40.165226804092526" lon="-3.6646450124680996">
        <ele>601.0</ele>
        <time>2021-05-22T09:34:29.683Z</time>
      </trkpt>
      <trkpt lat="40.16480485908687" lon="-3.6647579167038202">
        <ele>600.2000122070312</ele>
        <time>2021-05-22T09:34:30.106Z</time>
      </trkpt>
      <trkpt lat="40.16461777500808" lon="-3.6647740937769413">
        <ele>600.2000122070312</ele>
        <time>2021-05-22T09:34:30.534Z</time>
      </trkpt>
      <trkpt lat="40.16447838395834" lon="-3.6647616885602474">
        <ele>599.7999877929688</ele>
        <time>2021-05-22T09:34:30.965Z</time>
      </trkpt>
      <trkpt lat="40.16443345695734" lon="-3.664753893390298">
        <ele>599.7999877929688</ele>
        <time>2021-05-22T09:34:31.397Z</time>
      </trkpt>
      <trkpt lat="40.16419239342213" lon="-3.6647366266697645">
        <ele>599.5999755859375</ele>
        <time>2021-05-22T09:34:31.836Z</time>
      </trkpt>
      <trkpt lat="40.16414411365986" lon="-3.664757665246725">
        <ele>599.4000244140625</ele>
        <time>2021-05-22T09:34:32.276Z</time>
      </trkpt>
      <trkpt lat="40.16401427797973" lon="-3.6648740898817778">
        <ele>599.4000244140625</ele>
        <time>2021-05-22T09:34:32.720Z</time>
      </trkpt>
      <trkpt lat="40.16397018916905" lon="-3.664910802617669">
        <ele>599.4000244140625</ele>
        <time>2021-05-22T09:34:33.165Z</time>
      </trkpt>
      <trkpt lat="40.16392299905419" lon="-3.664937037974596">
        <ele>599.4000244140625</ele>
        <time>2021-05-22T09:34:33.612Z</time>
      </trkpt>
      <trkpt lat="40.163729628548026" lon="-3.6649242974817753">
        <ele>599.4000244140625</ele>
        <time>2021-05-22T09:34:34.064Z</time>
      </trkpt>
      <trkpt lat="40.16360951587558" lon="-3.664768310263753">
        <ele>600.0</ele>
        <time>2021-05-22T09:34:34.520Z</time>
      </trkpt>
      <trkpt lat="40.163506753742695" lon="-3.664459604769945">
        <ele>600.2000122070312</ele>
        <time>2021-05-22T09:34:34.983Z</time>
      </trkpt>
      <trkpt lat="40.16335906460881" lon="-3.6643702536821365">
        <ele>600.2000122070312</ele>
        <time>2021-05-22T09:34:35.450Z</time>
      </trkpt>
      <trkpt lat="40.16321732662618" lon="-3.6643552500754595">
        <ele>600.4000244140625</ele>
        <time>2021-05-22T09:34:35.920Z</time>
      </trkpt>
      <trkpt lat="40.16317374072969" lon="-3.6643579322844744">
        <ele>600.4000244140625</ele>
        <time>2021-05-22T09:34:36.392Z</time>
      </trkpt>
      <trkpt lat="40.16313258558512" lon="-3.664367403835058">
        <ele>600.4000244140625</ele>
        <time>2021-05-22T09:34:36.865Z</time>
      </trkpt>
      <trkpt lat="40.162958074361086" lon="-3.6645181104540825">
        <ele>600.4000244140625</ele>
        <time>2021-05-22T09:34:37.343Z</time>
      </trkpt>
      <trkpt lat="40.16291373409331" lon="-3.6646713316440582">
        <ele>601.2000122070312</ele>
        <time>2021-05-22T09:34:37.824Z</time>
      </trkpt>
      <trkpt lat="40.16290593892336" lon="-3.6647274903953075">
        <ele>601.4000244140625</ele>
        <time>2021-05-22T09:34:38.306Z</time>
      </trkpt>
      <trkpt lat="40.16284307464957" lon="-3.6651610024273396">
        <ele>601.7999877929688</ele>
        <time>2021-05-22T09:34:38.797Z</time>
      </trkpt>
      <trkpt lat="40.16278591006994" lon="-3.665632149204612">
        <ele>601.5999755859375</ele>
        <time>2021-05-22T09:34:39.298Z</time>
      </trkpt>
      <trkpt lat="40.16273687593639" lon="-3.666045544669032">
        <ele>602.0</ele>
        <time>2021-05-22T09:34:39.807Z</time>
      </trkpt>
      <trkpt lat="40.16272530891001" lon="-3.6661452893167734">
        <ele>602.0</ele>
        <time>2021-05-22T09:34:40.318Z</time>
      </trkpt>
      <trkpt lat="40.162680549547076" lon="-3.6665464472025633">
        <ele>602.4000244140625</ele>
        <time>2021-05-22T09:34:40.837Z</time>
      </trkpt>
      <trkpt lat="40.16263956204057" lon="-3.6669714096933603">
        <ele>602.7999877929688</ele>
        <time>2021-05-22T09:34:41.364Z</time>
      </trkpt>
      <trkpt lat="40.16263369470835" lon="-3.667178861796856">
        <ele>603.0</ele>
        <time>2021-05-22T09:34:41.895Z</time>
      </trkpt>
      <trkpt lat="40.16264593228698" lon="-3.6675333324819803">
        <ele>603.5999755859375</ele>
        <time>2021-05-22T09:34:42.433Z</time>
      </trkpt>
      <trkpt lat="40.16265146434307" lon="-3.667890066280961">
        <ele>603.5999755859375</ele>
        <time>2021-05-22T09:34:42.979Z</time>
      </trkpt>
      <trkpt lat="40.16262346878648" lon="-3.667986625805497">
        <ele>603.7999877929688</ele>
        <time>2021-05-22T09:34:43.527Z</time>
      </trkpt>
      <trkpt lat="40.16252137720585" lon="-3.668142529204488">
        <ele>603.7999877929688</ele>
        <time>2021-05-22T09:34:44.079Z</time>
      </trkpt>
      <trkpt lat="40.16248525120318" lon="-3.6681640706956387">
        <ele>603.7999877929688</ele>
        <time>2021-05-22T09:34:44.632Z</time>
      </trkpt>
      <trkpt lat="40.16228601336479" lon="-3.6681831814348698">
        <ele>604.2000122070312</ele>
        <time>2021-05-22T09:34:45.190Z</time>
      </trkpt>
      <trkpt lat="40.16220387071371" lon="-3.6682657431811094">
        <ele>604.4000244140625</ele>
        <time>2021-05-22T09:34:45.750Z</time>
      </trkpt>
      <trkpt lat="40.162185011431575" lon="-3.668333301320672">
        <ele>604.4000244140625</ele>
        <time>2021-05-22T09:34:46.312Z</time>
      </trkpt>
      <trkpt lat="40.162169337272644" lon="-3.6684405896812677">
        <ele>604.4000244140625</ele>
        <time>2021-05-22T09:34:46.876Z</time>
      </trkpt>
      <trkpt lat="40.16214477829635" lon="-3.668620716780424">
        <ele>604.7999877929688</ele>
        <time>2021-05-22T09:34:47.444Z</time>
      </trkpt>
      <trkpt lat="40.16212759539485" lon="-3.6687735188752413">
        <ele>605.4000244140625</ele>
        <time>2021-05-22T09:34:48.015Z</time>
      </trkpt>
      <trkpt lat="40.16210798174143" lon="-3.668855745345354">
        <ele>605.7999877929688</ele>
        <time>2021-05-22T09:34:48.587Z</time>
      </trkpt>
      <trkpt lat="40.16209105029702" lon="-3.668869659304619">
        <ele>606.4000244140625</ele>
        <time>2021-05-22T09:34:49.160Z</time>
      </trkpt>
      <trkpt lat="40.16201368533075" lon="-3.668860774487257">
        <ele>607.0</ele>
        <time>2021-05-22T09:34:49.735Z</time>
      </trkpt>
      <trkpt lat="40.16198351047933" lon="-3.6688521411269903">
        <ele>607.0</ele>
        <time>2021-05-22T09:34:50.311Z</time>
      </trkpt>
      <trkpt lat="40.161954844370484" lon="-3.668841663748026">
        <ele>607.2000122070312</ele>
        <time>2021-05-22T09:34:50.888Z</time>
      </trkpt>
      <trkpt lat="40.16180455684662" lon="-3.668790953233838">
        <ele>608.0</ele>
        <time>2021-05-22T09:34:51.469Z</time>
      </trkpt>
      <trkpt lat="40.16174294985831" lon="-3.668770082294941">
        <ele>608.2000122070312</ele>
        <time>2021-05-22T09:34:52.051Z</time>
      </trkpt>
      <trkpt lat="40.16154371201992" lon="-3.668769160285592">
        <ele>608.7999877929688</ele>
        <time>2021-05-22T09:34:52.638Z</time>
      </trkpt>
      <trkpt lat="40.161274233832955" lon="-3.668845519423485">
        <ele>608.7999877929688</ele>
        <time>2021-05-22T09:34:53.232Z</time>
      </trkpt>
      <trkpt lat="40.16124011948705" lon="-3.668853398412466">
        <ele>609.2000122070312</ele>
        <time>2021-05-22T09:34:53.827Z</time>
      </trkpt>
      <trkpt lat="40.16105588525534" lon="-3.668852476403117">
        <ele>610.2000122070312</ele>
        <time>2021-05-22T09:34:54.427Z</time>
      </trkpt>
      <trkpt lat="40.160977598279715" lon="-3.6688305996358395">
        <ele>610.4000244140625</ele>
        <time>2021-05-22T09:34:55.029Z</time>
      </trkpt>
      <trkpt lat="40.16066847369075" lon="-3.668796569108963">
        <ele>610.4000244140625</ele>
        <time>2021-05-22T09:34:55.639Z</time>
      </trkpt>
      <trkpt lat="40.16050645150244" lon="-3.6688970681279898">
        <ele>610.2000122070312</ele>
        <time>2021-05-22T09:34:56.254Z</time>
      </trkpt>
      <trkpt lat="40.16026647761464" lon="-3.669061604887247">
        <ele>610.2000122070312</ele>
        <time>2021-05-22T09:34:56.876Z</time>
      </trkpt>
      <trkpt lat="40.16007822006941" lon="-3.669188842177391">
        <ele>610.2000122070312</ele>
        <time>2021-05-22T09:34:57.503Z</time>
      </trkpt>
      <trkpt lat="40.15974009409547" lon="-3.669376764446497">
        <ele>611.0</ele>
        <time>2021-05-22T09:34:58.140Z</time>
      </trkpt>
      <trkpt lat="40.15971343964338" lon="-3.669394366443157">
        <ele>611.0</ele>
        <time>2021-05-22T09:34:58.777Z</time>
      </trkpt>
      <trkpt lat="40.159541526809335" lon="-3.6695276387035847">
        <ele>612.0</ele>
        <time>2021-05-22T09:34:59.420Z</time>
      </trkpt>
      <trkpt lat="40.15951830893755" lon="-3.6695498507469893">
        <ele>612.2000122070312</ele>
        <time>2021-05-22T09:35:00.063Z</time>
      </trkpt>
      <trkpt lat="40.15942929312587" lon="-3.6696389503777027">
        <ele>612.7999877929688</ele>
        <time>2021-05-22T09:35:00.709Z</time>
      </trkpt>
      <trkpt lat="40.15938872471452" lon="-3.6696781776845455">
        <ele>613.4000244140625</ele>
        <time>2021-05-22T09:35:01.357Z</time>
      </trkpt>
      <trkpt lat="40.15928344801068" lon="-3.6697653494775295">
        <ele>614.4000244140625</ele>
        <time>2021-05-22T09:35:02.008Z</time>
      </trkpt>
      <trkpt lat="40.15922184102237" lon="-3.669821172952652">
        <ele>614.7999877929688</ele>
        <time>2021-05-22T09:35:02.661Z</time>
      </trkpt>
      <trkpt lat="40.15918169170618" lon="-3.6698595620691776">
        <ele>615.5999755859375</ele>
        <time>2021-05-22T09:35:03.315Z</time>
      </trkpt>
      <trkpt lat="40.15904339030385" lon="-3.669949918985367">
        <ele>616.5999755859375</ele>
        <time>2021-05-22T09:35:03.973Z</time>
      </trkpt>
      <trkpt lat="40.15893652103841" lon="-3.6699862964451313">
        <ele>617.7999877929688</ele>
        <time>2021-05-22T09:35:04.634Z</time>
      </trkpt>
      <trkpt lat="40.15889327041805" lon="-3.670009011402726">
        <ele>618.4000244140625</ele>
        <time>2021-05-22T09:35:05.296Z</time>
      </trkpt>
      <trkpt lat="40.15885027125478" lon="-3.6700339894741774">
        <ele>619.2000122070312</ele>
        <time>2021-05-22T09:35:05.959Z</time>
      </trkpt>
      <trkpt lat="40.15873116441071" lon="-3.6701401881873608">
        <ele>620.2000122070312</ele>
        <time>2021-05-22T09:35:06.626Z</time>
      </trkpt>
      <trkpt lat="40.158578949049115" lon="-3.670264156535268">
        <ele>621.2000122070312</ele>
        <time>2021-05-22T09:35:07.298Z</time>
      </trkpt>
      <trkpt lat="40.158470487222075" lon="-3.6703136935830116">
        <ele>622.5999755859375</ele>
        <time>2021-05-22T09:35:07.973Z</time>
      </trkpt>
      <trkpt lat="40.15834769234061" lon="-3.670355351641774">
        <ele>622.7999877929688</ele>
        <time>2021-05-22T09:35:08.651Z</time>
      </trkpt>
      <trkpt lat="40.158174773678184" lon="-3.670465825125575">
        <ele>623.0</ele>
        <time>2021-05-22T09:35:09.334Z</time>
      </trkpt>
      <trkpt lat="40.157923232764006" lon="-3.6706400848925114">
        <ele>623.4000244140625</ele>
        <time>2021-05-22T09:35:10.024Z</time>
      </trkpt>
      <trkpt lat="40.15766833908856" lon="-3.670776542276144">
        <ele>624.0</ele>
        <time>2021-05-22T09:35:10.721Z</time>
      </trkpt>
      <trkpt lat="40.157611928880215" lon="-3.670802777633071">
        <ele>624.4000244140625</ele>
        <time>2021-05-22T09:35:11.420Z</time>
      </trkpt>
      <trkpt lat="40.15739098191261" lon="-3.6709168553352356">
        <ele>625.2000122070312</ele>
        <time>2021-05-22T09:35:12.125Z</time>
      </trkpt>
      <trkpt lat="40.157333901152015" lon="-3.6709492933005095">
        <ele>625.4000244140625</ele>
        <time>2021-05-22T09:35:12.832Z</time>
      </trkpt>
      <trkpt lat="40.15715938992798" lon="-3.6710411589592695">
        <ele>625.7999877929688</ele>
        <time>2021-05-22T09:35:13.543Z</time>
      </trkpt>
      <trkpt lat="40.15692142769694" lon="-3.6711660493165255">
        <ele>625.7999877929688</ele>
        <time>2021-05-22T09:35:14.261Z</time>
      </trkpt>
      <trkpt lat="40.15662713907659" lon="-3.671326730400324">
        <ele>625.4000244140625</ele>
        <time>2021-05-22T09:35:14.987Z</time>
      </trkpt>
      <trkpt lat="40.156315583735704" lon="-3.671542564406991">
        <ele>625.2000122070312</ele>
        <time>2021-05-22T09:35:15.722Z</time>
      </trkpt>
      <trkpt lat="40.156088350340724" lon="-3.6715765111148357">
        <ele>625.2000122070312</ele>
        <time>2021-05-22T09:35:16.463Z</time>
      </trkpt>
      <trkpt lat="40.15587377361953" lon="-3.671463606879115">
        <ele>625.5999755859375</ele>
        <time>2021-05-22T09:35:17.210Z</time>
      </trkpt>
      <trkpt lat="40.15575500205159" lon="-3.6714105494320393">
        <ele>626.4000244140625</ele>
        <time>2021-05-22T09:35:17.960Z</time>
      </trkpt>
      <trkpt lat="40.155678475275636" lon="-3.671385571360588">
        <ele>627.7999877929688</ele>
        <time>2021-05-22T09:35:18.712Z</time>
      </trkpt>
      <trkpt lat="40.15558811835945" lon="-3.6713592521846294">
        <ele>629.0</ele>
        <time>2021-05-22T09:35:19.467Z</time>
      </trkpt>
      <trkpt lat="40.155475130304694" lon="-3.671338213607669">
        <ele>630.0</ele>
        <time>2021-05-22T09:35:20.225Z</time>
      </trkpt>
      <trkpt lat="40.15543255023658" lon="-3.67133192718029">
        <ele>630.5999755859375</ele>
        <time>2021-05-22T09:35:20.984Z</time>
      </trkpt>
      <trkpt lat="40.15520858578384" lon="-3.671289933845401">
        <ele>630.7999877929688</ele>
        <time>2021-05-22T09:35:21.749Z</time>
      </trkpt>
      <trkpt lat="40.15490516088903" lon="-3.671243917196989">
        <ele>630.0</ele>
        <time>2021-05-22T09:35:22.522Z</time>
      </trkpt>
      <trkpt lat="40.15469494275749" lon="-3.671210054308176">
        <ele>629.5999755859375</ele>
        <time>2021-05-22T09:35:23.300Z</time>
      </trkpt>
      <trkpt lat="40.15455010347068" lon="-3.6711839865893126">
        <ele>629.4000244140625</ele>
        <time>2021-05-22T09:35:24.082Z</time>
      </trkpt>
      <trkpt lat="40.15434826724231" lon="-3.6711326893419027">
        <ele>630.0</ele>
        <time>2021-05-22T09:35:24.869Z</time>
      </trkpt>
      <trkpt lat="40.1542935334146" lon="-3.6711156740784645">
        <ele>630.7999877929688</ele>
        <time>2021-05-22T09:35:25.658Z</time>
      </trkpt>
      <trkpt lat="40.15421172603965" lon="-3.671086672693491">
        <ele>632.0</ele>
        <time>2021-05-22T09:35:26.449Z</time>
      </trkpt>
      <trkpt lat="40.15415766276419" lon="-3.6710661370307207">
        <ele>633.0</ele>
        <time>2021-05-22T09:35:27.241Z</time>
      </trkpt>
      <trkpt lat="40.15413025394082" lon="-3.6710564978420734">
        <ele>633.4000244140625</ele>
        <time>2021-05-22T09:35:28.034Z</time>
      </trkpt>
      <trkpt lat="40.15407543629408" lon="-3.6710378900170326">
        <ele>634.0</ele>
        <time>2021-05-22T09:35:28.828Z</time>
      </trkpt>
      <trkpt lat="40.15394166111946" lon="-3.6709787975996733">
        <ele>635.5999755859375</ele>
        <time>2021-05-22T09:35:29.626Z</time>
      </trkpt>
      <trkpt lat="40.15391408465803" lon="-3.6709704156965017">
        <ele>636.0</ele>
        <time>2021-05-22T09:35:30.425Z</time>
      </trkpt>
      <trkpt lat="40.15385650098324" lon="-3.670965386554599">
        <ele>637.0</ele>
        <time>2021-05-22T09:35:31.225Z</time>
      </trkpt>
      <trkpt lat="40.15377075411379" lon="-3.6710098944604397">
        <ele>637.7999877929688</ele>
        <time>2021-05-22T09:35:32.028Z</time>
      </trkpt>
      <trkpt lat="40.15369816683233" lon="-3.671169988811016">
        <ele>638.0</ele>
        <time>2021-05-22T09:35:32.834Z</time>
      </trkpt>
      <trkpt lat="40.15368425287306" lon="-3.671242408454418">
        <ele>638.0</ele>
        <time>2021-05-22T09:35:33.642Z</time>
      </trkpt>
      <trkpt lat="40.15362650156021" lon="-3.671515742316842">
        <ele>637.4000244140625</ele>
        <time>2021-05-22T09:35:34.455Z</time>
      </trkpt>
      <trkpt lat="40.15353170223534" lon="-3.6719163972884417">
        <ele>637.4000244140625</ele>
        <time>2021-05-22T09:35:35.277Z</time>
      </trkpt>
      <trkpt lat="40.15352399088442" lon="-3.67215134203434">
        <ele>637.5999755859375</ele>
        <time>2021-05-22T09:35:36.103Z</time>
      </trkpt>
      <trkpt lat="40.15355986543" lon="-3.6722792498767376">
        <ele>638.0</ele>
        <time>2021-05-22T09:35:36.932Z</time>
      </trkpt>
      <trkpt lat="40.1536029484123" lon="-3.67235510610044">
        <ele>638.7999877929688</ele>
        <time>2021-05-22T09:35:37.763Z</time>
      </trkpt>
      <trkpt lat="40.15366396866739" lon="-3.6724076606333256">
        <ele>639.0</ele>
        <time>2021-05-22T09:35:38.596Z</time>
      </trkpt>
      <trkpt lat="40.153762036934495" lon="-3.672462562099099">
        <ele>639.4000244140625</ele>
        <time>2021-05-22T09:35:39.432Z</time>
      </trkpt>
      <trkpt lat="40.15404920093715" lon="-3.6725690960884094">
        <ele>638.5999755859375</ele>
        <time>2021-05-22T09:35:40.275Z</time>
      </trkpt>
      <trkpt lat="40.1541605964303" lon="-3.672621063888073">
        <ele>638.2000122070312</ele>
        <time>2021-05-22T09:35:41.121Z</time>
      </trkpt>
      <trkpt lat="40.15430468134582" lon="-3.672671774402261">
        <ele>637.7999877929688</ele>
        <time>2021-05-22T09:35:41.971Z</time>
      </trkpt>
      <trkpt lat="40.1546944398433" lon="-3.6728273425251245">
        <ele>637.4000244140625</ele>
        <time>2021-05-22T09:35:42.832Z</time>
      </trkpt>
      <trkpt lat="40.154796447604895" lon="-3.6728541646152735">
        <ele>637.0</ele>
        <time>2021-05-22T09:35:43.695Z</time>
      </trkpt>
      <trkpt lat="40.154974311590195" lon="-3.672913508489728">
        <ele>636.0</ele>
        <time>2021-05-22T09:35:44.563Z</time>
      </trkpt>
      <trkpt lat="40.15521554276347" lon="-3.6729982495307922">
        <ele>635.5999755859375</ele>
        <time>2021-05-22T09:35:45.437Z</time>
      </trkpt>
      <trkpt lat="40.15544202178717" lon="-3.6730906181037426">
        <ele>636.4000244140625</ele>
        <time>2021-05-22T09:35:46.318Z</time>
      </trkpt>
      <trkpt lat="40.155574372038245" lon="-3.6731495428830385">
        <ele>636.5999755859375</ele>
        <time>2021-05-22T09:35:47.202Z</time>
      </trkpt>
      <trkpt lat="40.15562198124826" lon="-3.6732210405170918">
        <ele>636.5999755859375</ele>
        <time>2021-05-22T09:35:48.088Z</time>
      </trkpt>
      <trkpt lat="40.15560915693641" lon="-3.6733498703688383">
        <ele>636.2000122070312</ele>
        <time>2021-05-22T09:35:48.977Z</time>
      </trkpt>
      <trkpt lat="40.15553589910269" lon="-3.673478029668331">
        <ele>634.5999755859375</ele>
        <time>2021-05-22T09:35:49.869Z</time>
      </trkpt>
      <trkpt lat="40.155515782535076" lon="-3.673501079902053">
        <ele>634.4000244140625</ele>
        <time>2021-05-22T09:35:50.762Z</time>
      </trkpt>
      <trkpt lat="40.155372116714716" lon="-3.673574924468994">
        <ele>634.4000244140625</ele>
        <time>2021-05-22T09:35:51.658Z</time>
      </trkpt>
      <trkpt lat="40.155244544148445" lon="-3.6735983937978745">
        <ele>635.5999755859375</ele>
        <time>2021-05-22T09:35:52.558Z</time>
      </trkpt>
      <trkpt lat="40.1551952585578" lon="-3.673599399626255">
        <ele>636.0</ele>
        <time>2021-05-22T09:35:53.459Z</time>
      </trkpt>
      <trkpt lat="40.1551344897598" lon="-3.6736302450299263">
        <ele>636.7999877929688</ele>
        <time>2021-05-22T09:35:54.362Z</time>
      </trkpt>
      <trkpt lat="40.155117055401206" lon="-3.673648601397872">
        <ele>637.0</ele>
        <time>2021-05-22T09:35:55.265Z</time>
      </trkpt>
      <trkpt lat="40.15506089664996" lon="-3.673737198114395">
        <ele>638.0</ele>
        <time>2021-05-22T09:35:56.171Z</time>
      </trkpt>
      <trkpt lat="40.155037427321076" lon="-3.6737895011901855">
        <ele>638.5999755859375</ele>
        <time>2021-05-22T09:35:57.078Z</time>
      </trkpt>
      <trkpt lat="40.155023178085685" lon="-3.673842390999198">
        <ele>639.2000122070312</ele>
        <time>2021-05-22T09:35:57.986Z</time>
      </trkpt>
      <trkpt lat="40.15501772984862" lon="-3.6739599891006947">
        <ele>640.2000122070312</ele>
        <time>2021-05-22T09:35:58.896Z</time>
      </trkpt>
      <trkpt lat="40.15504790470004" lon="-3.674124190583825">
        <ele>641.2000122070312</ele>
        <time>2021-05-22T09:35:59.810Z</time>
      </trkpt>
      <trkpt lat="40.15505729243159" lon="-3.6741541977971792">
        <ele>641.4000244140625</ele>
        <time>2021-05-22T09:36:00.724Z</time>
      </trkpt>
      <trkpt lat="40.15509903430939" lon="-3.6742781661450863">
        <ele>642.4000244140625</ele>
        <time>2021-05-22T09:36:01.641Z</time>
      </trkpt>
      <trkpt lat="40.15512912534177" lon="-3.6743891425430775">
        <ele>642.7999877929688</ele>
        <time>2021-05-22T09:36:02.560Z</time>
      </trkpt>
      <trkpt lat="40.15513859689236" lon="-3.6746182199567556">
        <ele>643.4000244140625</ele>
        <time>2021-05-22T09:36:03.484Z</time>
      </trkpt>
      <trkpt lat="40.15513968653977" lon="-3.6746494006365538">
        <ele>643.5999755859375</ele>
        <time>2021-05-22T09:36:04.408Z</time>
      </trkpt>
      <trkpt lat="40.15513180755079" lon="-3.674767166376114">
        <ele>643.7999877929688</ele>
        <time>2021-05-22T09:36:05.335Z</time>
      </trkpt>
      <trkpt lat="40.155088137835264" lon="-3.6749339662492275">
        <ele>644.5999755859375</ele>
        <time>2021-05-22T09:36:06.265Z</time>
      </trkpt>
      <trkpt lat="40.15507682226598" lon="-3.674957435578108">
        <ele>644.7999877929688</ele>
        <time>2021-05-22T09:36:07.196Z</time>
      </trkpt>
      <trkpt lat="40.15503264963627" lon="-3.6750237364321947">
        <ele>645.5999755859375</ele>
        <time>2021-05-22T09:36:08.129Z</time>
      </trkpt>
      <trkpt lat="40.154961654916406" lon="-3.6750980839133263">
        <ele>646.7999877929688</ele>
        <time>2021-05-22T09:36:09.064Z</time>
      </trkpt>
      <trkpt lat="40.154867274686694" lon="-3.6752305179834366">
        <ele>647.7999877929688</ele>
        <time>2021-05-22T09:36:10.002Z</time>
      </trkpt>
      <trkpt lat="40.15484162606299" lon="-3.675276953727007">
        <ele>648.2000122070312</ele>
        <time>2021-05-22T09:36:10.942Z</time>
      </trkpt>
      <trkpt lat="40.15481438487768" lon="-3.675356414169073">
        <ele>649.0</ele>
        <time>2021-05-22T09:36:11.883Z</time>
      </trkpt>
      <trkpt lat="40.154800806194544" lon="-3.6754626967012882">
        <ele>650.0</ele>
        <time>2021-05-22T09:36:12.826Z</time>
      </trkpt>
      <trkpt lat="40.154797872528434" lon="-3.6755757685750723">
        <ele>651.2000122070312</ele>
        <time>2021-05-22T09:36:13.772Z</time>
      </trkpt>
      <trkpt lat="40.15480197966099" lon="-3.6756996531039476">
        <ele>652.4000244140625</ele>
        <time>2021-05-22T09:36:14.720Z</time>
      </trkpt>
      <trkpt lat="40.154804829508066" lon="-3.6757296603173018">
        <ele>652.5999755859375</ele>
        <time>2021-05-22T09:36:15.669Z</time>
      </trkpt>
      <trkpt lat="40.15483919531107" lon="-3.6758996453136206">
        <ele>653.5999755859375</ele>
        <time>2021-05-22T09:36:16.621Z</time>
      </trkpt>
      <trkpt lat="40.15487188473344" lon="-3.675976088270545">
        <ele>654.0</ele>
        <time>2021-05-22T09:36:17.575Z</time>
      </trkpt>
      <trkpt lat="40.15499275177717" lon="-3.6760769225656986">
        <ele>654.4000244140625</ele>
        <time>2021-05-22T09:36:18.533Z</time>
      </trkpt>
      <trkpt lat="40.15501622110605" lon="-3.6760777607560158">
        <ele>654.5999755859375</ele>
        <time>2021-05-22T09:36:19.491Z</time>
      </trkpt>
      <trkpt lat="40.15510004013777" lon="-3.6760178301483393">
        <ele>655.4000244140625</ele>
        <time>2021-05-22T09:36:20.452Z</time>
      </trkpt>
      <trkpt lat="40.155142955482006" lon="-3.6759387888014317">
        <ele>655.7999877929688</ele>
        <time>2021-05-22T09:36:21.415Z</time>
      </trkpt>
      <trkpt lat="40.15517883002758" lon="-3.675894532352686">
        <ele>655.7999877929688</ele>
        <time>2021-05-22T09:36:22.379Z</time>
      </trkpt>
      <trkpt lat="40.15522878617048" lon="-3.675860669463873">
        <ele>655.7999877929688</ele>
        <time>2021-05-22T09:36:23.344Z</time>
      </trkpt>
      <trkpt lat="40.155412685126066" lon="-3.6758664529770613">
        <ele>655.7999877929688</ele>
        <time>2021-05-22T09:36:24.314Z</time>
      </trkpt>
      <trkpt lat="40.1555195543915" lon="-3.675963766872883">
        <ele>655.5999755859375</ele>
        <time>2021-05-22T09:36:25.287Z</time>
      </trkpt>
      <trkpt lat="40.15556909143925" lon="-3.6760672833770514">
        <ele>654.5999755859375</ele>
        <time>2021-05-22T09:36:26.263Z</time>
      </trkpt>
      <trkpt lat="40.15560488216579" lon="-3.676121262833476">
        <ele>654.4000244140625</ele>
        <time>2021-05-22T09:36:27.240Z</time>
      </trkpt>
      <trkpt lat="40.15571761876345" lon="-3.6762032378464937">
        <ele>654.4000244140625</ele>
        <time>2021-05-22T09:36:28.221Z</time>
      </trkpt>
      <trkpt lat="40.15584385022521" lon="-3.6761547904461622">
        <ele>655.2000122070312</ele>
        <time>2021-05-22T09:36:29.205Z</time>
      </trkpt>
      <trkpt lat="40.1559323631227" lon="-3.676064182072878">
        <ele>655.2000122070312</ele>
        <time>2021-05-22T09:36:30.192Z</time>
      </trkpt>
      <trkpt lat="40.156008722260594" lon="-3.6760098673403263">
        <ele>655.4000244140625</ele>
        <time>2021-05-22T09:36:31.181Z</time>
      </trkpt>
      <trkpt lat="40.15605599619448" lon="-3.6759844701737165">
        <ele>655.4000244140625</ele>
        <time>2021-05-22T09:36:32.171Z</time>
      </trkpt>
      <trkpt lat="40.1562172640115" lon="-3.6759615037590265">
        <ele>655.2000122070312</ele>
        <time>2021-05-22T09:36:33.166Z</time>
      </trkpt>
      <trkpt lat="40.15632321126759" lon="-3.6759865656495094">
        <ele>654.5999755859375</ele>
        <time>2021-05-22T09:36:34.163Z</time>
      </trkpt>
      <trkpt lat="40.15642915852368" lon="-3.676011124625802">
        <ele>653.2000122070312</ele>
        <time>2021-05-22T09:36:35.163Z</time>
      </trkpt>
      <trkpt lat="40.15648690983653" lon="-3.6760231107473373">
        <ele>652.7999877929688</ele>
        <time>2021-05-22T09:36:36.165Z</time>
      </trkpt>
      <trkpt lat="40.1565420627594" lon="-3.676037611439824">
        <ele>652.4000244140625</ele>
        <time>2021-05-22T09:36:37.168Z</time>
      </trkpt>
      <trkpt lat="40.1565920189023" lon="-3.676060661673546">
        <ele>652.0</ele>
        <time>2021-05-22T09:36:38.172Z</time>
      </trkpt>
      <trkpt lat="40.15668245963752" lon="-3.6761011462658644">
        <ele>651.5999755859375</ele>
        <time>2021-05-22T09:36:39.179Z</time>
      </trkpt>
      <trkpt lat="40.156867280602455" lon="-3.6761803552508354">
        <ele>650.7999877929688</ele>
        <time>2021-05-22T09:36:40.191Z</time>
      </trkpt>
      <trkpt lat="40.1570513471961" lon="-3.676178762689233">
        <ele>650.4000244140625</ele>
        <time>2021-05-22T09:36:41.208Z</time>
      </trkpt>
      <trkpt lat="40.1571240182966" lon="-3.676121011376381">
        <ele>650.4000244140625</ele>
        <time>2021-05-22T09:36:42.227Z</time>
      </trkpt>
      <trkpt lat="40.15719283372164" lon="-3.6760174110531807">
        <ele>650.4000244140625</ele>
        <time>2021-05-22T09:36:43.249Z</time>
      </trkpt>
      <trkpt lat="40.15725200995803" lon="-3.675894783809781">
        <ele>650.4000244140625</ele>
        <time>2021-05-22T09:36:44.273Z</time>
      </trkpt>
      <trkpt lat="40.15735762193799" lon="-3.6756870802491903">
        <ele>650.2000122070312</ele>
        <time>2021-05-22T09:36:45.302Z</time>
      </trkpt>
      <trkpt lat="40.15748418867588" lon="-3.6754782870411873">
        <ele>649.4000244140625</ele>
        <time>2021-05-22T09:36:46.337Z</time>
      </trkpt>
      <trkpt lat="40.15752517618239" lon="-3.675405029207468">
        <ele>648.7999877929688</ele>
        <time>2021-05-22T09:36:47.373Z</time>
      </trkpt>
      <trkpt lat="40.1575592905283" lon="-3.675329340621829">
        <ele>648.2000122070312</ele>
        <time>2021-05-22T09:36:48.411Z</time>
      </trkpt>
      <trkpt lat="40.1576023735106" lon="-3.675175281241536">
        <ele>647.0</ele>
        <time>2021-05-22T09:36:49.452Z</time>
      </trkpt>
      <trkpt lat="40.15762148424983" lon="-3.675100514665246">
        <ele>646.5999755859375</ele>
        <time>2021-05-22T09:36:50.495Z</time>
      </trkpt>
      <trkpt lat="40.1576385833323" lon="-3.6750269215554">
        <ele>646.0</ele>
        <time>2021-05-22T09:36:51.540Z</time>
      </trkpt>
      <trkpt lat="40.15764721669257" lon="-3.67494972422719">
        <ele>645.2000122070312</ele>
        <time>2021-05-22T09:36:52.586Z</time>
      </trkpt>
      <trkpt lat="40.157637409865856" lon="-3.6747938208281994">
        <ele>643.7999877929688</ele>
        <time>2021-05-22T09:36:53.635Z</time>
      </trkpt>
      <trkpt lat="40.15762064605951" lon="-3.67471762932837">
        <ele>643.4000244140625</ele>
        <time>2021-05-22T09:36:54.686Z</time>
      </trkpt>
      <trkpt lat="40.157572366297245" lon="-3.6745758075267076">
        <ele>643.0</ele>
        <time>2021-05-22T09:36:55.740Z</time>
      </trkpt>
      <trkpt lat="40.15755258500576" lon="-3.674502968788147">
        <ele>642.5999755859375</ele>
        <time>2021-05-22T09:36:56.795Z</time>
      </trkpt>
      <trkpt lat="40.15753783285618" lon="-3.674427028745413">
        <ele>642.4000244140625</ele>
        <time>2021-05-22T09:36:57.852Z</time>
      </trkpt>
      <trkpt lat="40.157506400719285" lon="-3.6742757353931665">
        <ele>641.4000244140625</ele>
        <time>2021-05-22T09:36:58.912Z</time>
      </trkpt>
      <trkpt lat="40.1574522536248" lon="-3.674075659364462">
        <ele>640.4000244140625</ele>
        <time>2021-05-22T09:36:59.976Z</time>
      </trkpt>
      <trkpt lat="40.15745376236737" lon="-3.6740183271467686">
        <ele>640.2000122070312</ele>
        <time>2021-05-22T09:37:01.041Z</time>
      </trkpt>
      <trkpt lat="40.15750212594867" lon="-3.673954289406538">
        <ele>640.2000122070312</ele>
        <time>2021-05-22T09:37:02.108Z</time>
      </trkpt>
      <trkpt lat="40.15760572627187" lon="-3.6739992164075375">
        <ele>639.5999755859375</ele>
        <time>2021-05-22T09:37:03.178Z</time>
      </trkpt>
      <trkpt lat="40.157640762627125" lon="-3.6740324087440968">
        <ele>639.2000122070312</ele>
        <time>2021-05-22T09:37:04.249Z</time>
      </trkpt>
      <trkpt lat="40.15774327330291" lon="-3.674173392355442">
        <ele>637.5999755859375</ele>
        <time>2021-05-22T09:37:05.324Z</time>
      </trkpt>
      <trkpt lat="40.15777277760208" lon="-3.6742315627634525">
        <ele>637.2000122070312</ele>
        <time>2021-05-22T09:37:06.400Z</time>
      </trkpt>
      <trkpt lat="40.157857770100236" lon="-3.6744851153343916">
        <ele>636.5999755859375</ele>
        <time>2021-05-22T09:37:07.482Z</time>
      </trkpt>
      <trkpt lat="40.157892471179366" lon="-3.6746162082999945">
        <ele>636.0</ele>
        <time>2021-05-22T09:37:08.566Z</time>
      </trkpt>
      <trkpt lat="40.157934883609414" lon="-3.6747970897704363">
        <ele>635.5999755859375</ele>
        <time>2021-05-22T09:37:09.654Z</time>
      </trkpt>
      <trkpt lat="40.15794200822711" lon="-3.674856601282954">
        <ele>635.5999755859375</ele>
        <time>2021-05-22T09:37:10.743Z</time>
      </trkpt>
      <trkpt lat="40.157933458685875" lon="-3.6749775521457195">
        <ele>635.4000244140625</ele>
        <time>2021-05-22T09:37:11.835Z</time>
      </trkpt>
      <trkpt lat="40.15792390331626" lon="-3.6750341299921274">
        <ele>635.4000244140625</ele>
        <time>2021-05-22T09:37:12.928Z</time>
      </trkpt>
      <trkpt lat="40.157883586362004" lon="-3.6752761993557215">
        <ele>635.4000244140625</ele>
        <time>2021-05-22T09:37:14.026Z</time>
      </trkpt>
      <trkpt lat="40.15787453390658" lon="-3.6754932068288326">
        <ele>636.5999755859375</ele>
        <time>2021-05-22T09:37:15.128Z</time>
      </trkpt>
      <trkpt lat="40.15788232907653" lon="-3.6755713261663914">
        <ele>637.7999877929688</ele>
        <time>2021-05-22T09:37:16.232Z</time>
      </trkpt>
      <trkpt lat="40.157897248864174" lon="-3.6756911035627127">
        <ele>639.0</ele>
        <time>2021-05-22T09:37:17.338Z</time>
      </trkpt>
      <trkpt lat="40.15791116282344" lon="-3.675804678350687">
        <ele>639.2000122070312</ele>
        <time>2021-05-22T09:37:18.446Z</time>
      </trkpt>
      <trkpt lat="40.15794980339706" lon="-3.6760699655860662">
        <ele>639.4000244140625</ele>
        <time>2021-05-22T09:37:19.560Z</time>
      </trkpt>
      <trkpt lat="40.157961789518595" lon="-3.6761599872261286">
        <ele>639.4000244140625</ele>
        <time>2021-05-22T09:37:20.676Z</time>
      </trkpt>
      <trkpt lat="40.15795927494764" lon="-3.6764103546738625">
        <ele>639.2000122070312</ele>
        <time>2021-05-22T09:37:21.796Z</time>
      </trkpt>
      <trkpt lat="40.15796707011759" lon="-3.676730375736952">
        <ele>638.4000244140625</ele>
        <time>2021-05-22T09:37:22.923Z</time>
      </trkpt>
      <trkpt lat="40.15797830186784" lon="-3.6768494825810194">
        <ele>638.4000244140625</ele>
        <time>2021-05-22T09:37:24.052Z</time>
      </trkpt>
      <trkpt lat="40.15802901238203" lon="-3.6769961658865213">
        <ele>637.7999877929688</ele>
        <time>2021-05-22T09:37:25.184Z</time>
      </trkpt>
      <trkpt lat="40.15806128270924" lon="-3.677035728469491">
        <ele>637.2000122070312</ele>
        <time>2021-05-22T09:37:26.318Z</time>
      </trkpt>
      <trkpt lat="40.15809196047485" lon="-3.677081912755966">
        <ele>637.0</ele>
        <time>2021-05-22T09:37:27.453Z</time>
      </trkpt>
      <trkpt lat="40.158123979344964" lon="-3.677193056792021">
        <ele>636.7999877929688</ele>
        <time>2021-05-22T09:37:28.590Z</time>
      </trkpt>
      <trkpt lat="40.15812590718269" lon="-3.677253657951951">
        <ele>636.5999755859375</ele>
        <time>2021-05-22T09:37:29.728Z</time>
      </trkpt>
      <trkpt lat="40.158126913011074" lon="-3.677315767854452">
        <ele>636.4000244140625</ele>
        <time>2021-05-22T09:37:30.867Z</time>
      </trkpt>
      <trkpt lat="40.15813194215298" lon="-3.6773774586617947">
        <ele>636.2000122070312</ele>
        <time>2021-05-22T09:37:32.008Z</time>
      </trkpt>
      <trkpt lat="40.15816982835531" lon="-3.677487513050437">
        <ele>636.0</ele>
        <time>2021-05-22T09:37:33.151Z</time>
      </trkpt>
      <trkpt lat="40.1582031045109" lon="-3.677536128088832">
        <ele>635.5999755859375</ele>
        <time>2021-05-22T09:37:34.295Z</time>
      </trkpt>
      <trkpt lat="40.158352721482515" lon="-3.6776702385395765">
        <ele>634.7999877929688</ele>
        <time>2021-05-22T09:37:35.444Z</time>
      </trkpt>
      <trkpt lat="40.15840862877667" lon="-3.6777200270444155">
        <ele>634.5999755859375</ele>
        <time>2021-05-22T09:37:36.595Z</time>
      </trkpt>
      <trkpt lat="40.15846378169954" lon="-3.677768474444747">
        <ele>634.4000244140625</ele>
        <time>2021-05-22T09:37:37.748Z</time>
      </trkpt>
      <trkpt lat="40.15874180942774" lon="-3.678050944581628">
        <ele>633.4000244140625</ele>
        <time>2021-05-22T09:37:38.910Z</time>
      </trkpt>
      <trkpt lat="40.15878883190453" lon="-3.6781178321689367">
        <ele>632.7999877929688</ele>
        <time>2021-05-22T09:37:40.073Z</time>
      </trkpt>
      <trkpt lat="40.15884893015027" lon="-3.678264180198312">
        <ele>631.4000244140625</ele>
        <time>2021-05-22T09:37:41.240Z</time>
      </trkpt>
      <trkpt lat="40.158885810524225" lon="-3.6784012243151665">
        <ele>630.2000122070312</ele>
        <time>2021-05-22T09:37:42.410Z</time>
      </trkpt>
      <trkpt lat="40.15887935645878" lon="-3.678521756082773">
        <ele>629.4000244140625</ele>
        <time>2021-05-22T09:37:43.582Z</time>
      </trkpt>
      <trkpt lat="40.15885228291154" lon="-3.678558049723506">
        <ele>629.0</ele>
        <time>2021-05-22T09:37:44.755Z</time>
      </trkpt>
      <trkpt lat="40.15881322324276" lon="-3.678573975339532">
        <ele>626.7999877929688</ele>
        <time>2021-05-22T09:37:45.929Z</time>
      </trkpt>
      <trkpt lat="40.15877022407949" lon="-3.6785828601568937">
        <ele>626.0</ele>
        <time>2021-05-22T09:37:47.104Z</time>
      </trkpt>
      <trkpt lat="40.15872672200203" lon="-3.6785883083939552">
        <ele>625.5999755859375</ele>
        <time>2021-05-22T09:37:48.280Z</time>
      </trkpt>
      <trkpt lat="40.15863779000938" lon="-3.678588643670082">
        <ele>625.2000122070312</ele>
        <time>2021-05-22T09:37:49.459Z</time>
      </trkpt>
      <trkpt lat="40.15855673700571" lon="-3.678573975339532">
        <ele>623.7999877929688</ele>
        <time>2021-05-22T09:37:50.640Z</time>
      </trkpt>
      <trkpt lat="40.15852010808885" lon="-3.6785575468093157">
        <ele>623.2000122070312</ele>
        <time>2021-05-22T09:37:51.822Z</time>
      </trkpt>
      <trkpt lat="40.1584155857563" lon="-3.678525108844042">
        <ele>622.7999877929688</ele>
        <time>2021-05-22T09:37:53.006Z</time>
      </trkpt>
      <trkpt lat="40.158326737582684" lon="-3.678502645343542">
        <ele>622.7999877929688</ele>
        <time>2021-05-22T09:37:54.193Z</time>
      </trkpt>
      <trkpt lat="40.15815985389054" lon="-3.6784465704113245">
        <ele>623.2000122070312</ele>
        <time>2021-05-22T09:37:55.384Z</time>
      </trkpt>
      <trkpt lat="40.158103946596384" lon="-3.6784238554537296">
        <ele>623.5999755859375</ele>
        <time>2021-05-22T09:37:56.577Z</time>
      </trkpt>
      <trkpt lat="40.157972602173686" lon="-3.678391920402646">
        <ele>624.5999755859375</ele>
        <time>2021-05-22T09:37:57.773Z</time>
      </trkpt>
      <trkpt lat="40.157948629930615" lon="-3.6783988773822784">
        <ele>624.5999755859375</ele>
        <time>2021-05-22T09:37:58.970Z</time>
      </trkpt>
      <trkpt lat="40.15789054334164" lon="-3.678460232913494">
        <ele>625.5999755859375</ele>
        <time>2021-05-22T09:38:00.169Z</time>
      </trkpt>
      <trkpt lat="40.157864140346646" lon="-3.678522761911154">
        <ele>626.5999755859375</ele>
        <time>2021-05-22T09:38:01.369Z</time>
      </trkpt>
      <trkpt lat="40.157853746786714" lon="-3.678555116057396">
        <ele>627.0</ele>
        <time>2021-05-22T09:38:02.570Z</time>
      </trkpt>
      <trkpt lat="40.15783111564815" lon="-3.678655866533518">
        <ele>628.4000244140625</ele>
        <time>2021-05-22T09:38:03.773Z</time>
      </trkpt>
      <trkpt lat="40.157828936353326" lon="-3.67871705442667">
        <ele>629.0</ele>
        <time>2021-05-22T09:38:04.977Z</time>
      </trkpt>
      <trkpt lat="40.15785056166351" lon="-3.67878545075655">
        <ele>629.2000122070312</ele>
        <time>2021-05-22T09:38:06.183Z</time>
      </trkpt>
      <trkpt lat="40.15791744925082" lon="-3.6788465548306704">
        <ele>629.4000244140625</ele>
        <time>2021-05-22T09:38:07.391Z</time>
      </trkpt>
      <trkpt lat="40.158041501417756" lon="-3.679039254784584">
        <ele>629.4000244140625</ele>
        <time>2021-05-22T09:38:08.604Z</time>
      </trkpt>
      <trkpt lat="40.15812766738236" lon="-3.6792935617268085">
        <ele>629.2000122070312</ele>
        <time>2021-05-22T09:38:09.822Z</time>
      </trkpt>
      <trkpt lat="40.158149460330606" lon="-3.679355923086405">
        <ele>628.7999877929688</ele>
        <time>2021-05-22T09:38:11.042Z</time>
      </trkpt>
      <trkpt lat="40.15817460604012" lon="-3.6794154345989227">
        <ele>628.4000244140625</ele>
        <time>2021-05-22T09:38:12.263Z</time>
      </trkpt>
      <trkpt lat="40.15822347253561" lon="-3.679539654403925">
        <ele>627.2000122070312</ele>
        <time>2021-05-22T09:38:13.487Z</time>
      </trkpt>
      <trkpt lat="40.15823964960873" lon="-3.6796052008867264">
        <ele>626.7999877929688</ele>
        <time>2021-05-22T09:38:14.712Z</time>
      </trkpt>
      <trkpt lat="40.15824744477868" lon="-3.6796731781214476">
        <ele>626.4000244140625</ele>
        <time>2021-05-22T09:38:15.938Z</time>
      </trkpt>
      <trkpt lat="40.15825825743377" lon="-3.679888090118766">
        <ele>625.5999755859375</ele>
        <time>2021-05-22T09:38:17.169Z</time>
      </trkpt>
      <trkpt lat="40.15824635513127" lon="-3.680104510858655">
        <ele>625.0</ele>
        <time>2021-05-22T09:38:18.404Z</time>
      </trkpt>
      <trkpt lat="40.15823017805815" lon="-3.680166620761156">
        <ele>624.5999755859375</ele>
        <time>2021-05-22T09:38:19.640Z</time>
      </trkpt>
      <trkpt lat="40.15820595435798" lon="-3.6802174989134073">
        <ele>624.4000244140625</ele>
        <time>2021-05-22T09:38:20.877Z</time>
      </trkpt>
      <trkpt lat="40.15813269652426" lon="-3.6802787706255913">
        <ele>623.7999877929688</ele>
        <time>2021-05-22T09:38:22.117Z</time>
      </trkpt>
      <trkpt lat="40.15809489414096" lon="-3.6802993062883615">
        <ele>623.2000122070312</ele>
        <time>2021-05-22T09:38:23.358Z</time>
      </trkpt>
      <trkpt lat="40.15805717557669" lon="-3.6803187523037195">
        <ele>623.0</ele>
        <time>2021-05-22T09:38:24.600Z</time>
      </trkpt>
      <trkpt lat="40.15794888138771" lon="-3.680382454767823">
        <ele>622.2000122070312</ele>
        <time>2021-05-22T09:38:25.845Z</time>
      </trkpt>
      <trkpt lat="40.15787947922945" lon="-3.680430231615901">
        <ele>622.0</ele>
        <time>2021-05-22T09:38:27.092Z</time>
      </trkpt>
      <trkpt lat="40.15765668824315" lon="-3.680545398965478">
        <ele>622.0</ele>
        <time>2021-05-22T09:38:28.345Z</time>
      </trkpt>
      <trkpt lat="40.15740942209959" lon="-3.6804928444325924">
        <ele>623.2000122070312</ele>
        <time>2021-05-22T09:38:29.604Z</time>
      </trkpt>
      <trkpt lat="40.157376481220126" lon="-3.680489407852292">
        <ele>623.2000122070312</ele>
        <time>2021-05-22T09:38:30.864Z</time>
      </trkpt>
      <trkpt lat="40.1571845356375" lon="-3.6804708000272512">
        <ele>624.2000122070312</ele>
        <time>2021-05-22T09:38:32.129Z</time>
      </trkpt>
      <trkpt lat="40.157157462090254" lon="-3.68045118637383">
        <ele>624.4000244140625</ele>
        <time>2021-05-22T09:38:33.395Z</time>
      </trkpt>
      <trkpt lat="40.157077414914966" lon="-3.6803358513861895">
        <ele>625.0</ele>
        <time>2021-05-22T09:38:34.664Z</time>
      </trkpt>
      <trkpt lat="40.15700373798609" lon="-3.68021029047668">
        <ele>625.4000244140625</ele>
        <time>2021-05-22T09:38:35.936Z</time>
      </trkpt>
      <trkpt lat="40.15693835914135" lon="-3.680090010166168">
        <ele>626.2000122070312</ele>
        <time>2021-05-22T09:38:37.211Z</time>
      </trkpt>
      <trkpt lat="40.156908351927996" lon="-3.6800263077020645">
        <ele>626.5999755859375</ele>
        <time>2021-05-22T09:38:38.488Z</time>
      </trkpt>
      <trkpt lat="40.15685839578509" lon="-3.67985799908638">
        <ele>627.2000122070312</ele>
        <time>2021-05-22T09:38:39.768Z</time>
      </trkpt>
      <trkpt lat="40.15684892423451" lon="-3.6798234656453133">
        <ele>627.5999755859375</ele>
        <time>2021-05-22T09:38:41.049Z</time>
      </trkpt>
      <trkpt lat="40.156790586188436" lon="-3.6797065380960703">
        <ele>628.5999755859375</ele>
        <time>2021-05-22T09:38:42.333Z</time>
      </trkpt>
      <trkpt lat="40.15674943104386" lon="-3.6796661373227835">
        <ele>629.4000244140625</ele>
        <time>2021-05-22T09:38:43.618Z</time>
      </trkpt>
      <trkpt lat="40.156706096604466" lon="-3.6796451825648546">
        <ele>629.7999877929688</ele>
        <time>2021-05-22T09:38:44.904Z</time>
      </trkpt>
      <trkpt lat="40.156663516536355" lon="-3.6796616949141026">
        <ele>630.2000122070312</ele>
        <time>2021-05-22T09:38:46.191Z</time>
      </trkpt>
      <trkpt lat="40.156619092449546" lon="-3.679721960797906">
        <ele>631.0</ele>
        <time>2021-05-22T09:38:47.480Z</time>
      </trkpt>
      <trkpt lat="40.15658807940781" lon="-3.6797656305134296">
        <ele>631.4000244140625</ele>
        <time>2021-05-22T09:38:48.770Z</time>
      </trkpt>
      <trkpt lat="40.15657223761082" lon="-3.6797875072807074">
        <ele>631.7999877929688</ele>
        <time>2021-05-22T09:38:50.061Z</time>
      </trkpt>
      <trkpt lat="40.15655631199479" lon="-3.6798081267625093">
        <ele>632.0</ele>
        <time>2021-05-22T09:38:51.352Z</time>
      </trkpt>
      <trkpt lat="40.15645363368094" lon="-3.679930502548814">
        <ele>633.0</ele>
        <time>2021-05-22T09:38:52.647Z</time>
      </trkpt>
      <trkpt lat="40.156416334211826" lon="-3.679969646036625">
        <ele>633.2000122070312</ele>
        <time>2021-05-22T09:38:53.943Z</time>
      </trkpt>
      <trkpt lat="40.1563502009958" lon="-3.680041814222932">
        <ele>634.0</ele>
        <time>2021-05-22T09:38:55.241Z</time>
      </trkpt>
      <trkpt lat="40.15628599561751" lon="-3.680115072056651">
        <ele>634.4000244140625</ele>
        <time>2021-05-22T09:38:56.542Z</time>
      </trkpt>
      <trkpt lat="40.156188094988465" lon="-3.6802687123417854">
        <ele>635.2000122070312</ele>
        <time>2021-05-22T09:38:57.847Z</time>
      </trkpt>
      <trkpt lat="40.156180802732706" lon="-3.6802942771464586">
        <ele>635.4000244140625</ele>
        <time>2021-05-22T09:38:59.152Z</time>
      </trkpt>
      <trkpt lat="40.15616521239281" lon="-3.6803705524653196">
        <ele>636.2000122070312</ele>
        <time>2021-05-22T09:39:00.459Z</time>
      </trkpt>
      <trkpt lat="40.15613419935107" lon="-3.680479433387518">
        <ele>637.2000122070312</ele>
        <time>2021-05-22T09:39:01.768Z</time>
      </trkpt>
      <trkpt lat="40.15610871836543" lon="-3.680520923808217">
        <ele>637.4000244140625</ele>
        <time>2021-05-22T09:39:03.078Z</time>
      </trkpt>
      <trkpt lat="40.156043423339725" lon="-3.6805522721260786">
        <ele>637.4000244140625</ele>
        <time>2021-05-22T09:39:04.390Z</time>
      </trkpt>
      <trkpt lat="40.155980894342065" lon="-3.680473566055298">
        <ele>637.4000244140625</ele>
        <time>2021-05-22T09:39:05.704Z</time>
      </trkpt>
      <trkpt lat="40.155965723097324" lon="-3.6803426407277584">
        <ele>637.5999755859375</ele>
        <time>2021-05-22T09:39:07.021Z</time>
      </trkpt>
      <trkpt lat="40.15594560652971" lon="-3.680122448131442">
        <ele>637.5999755859375</ele>
        <time>2021-05-22T09:39:08.342Z</time>
      </trkpt>
      <trkpt lat="40.15586421824992" lon="-3.680040556937456">
        <ele>638.2000122070312</ele>
        <time>2021-05-22T09:39:09.666Z</time>
      </trkpt>
      <trkpt lat="40.155841168016195" lon="-3.6800401378422976">
        <ele>638.4000244140625</ele>
        <time>2021-05-22T09:39:10.990Z</time>
      </trkpt>
      <trkpt lat="40.155763467773795" lon="-3.6800807900726795">
        <ele>639.2000122070312</ele>
        <time>2021-05-22T09:39:12.316Z</time>
      </trkpt>
      <trkpt lat="40.15574527904391" lon="-3.6800973024219275">
        <ele>639.4000244140625</ele>
        <time>2021-05-22T09:39:13.643Z</time>
      </trkpt>
      <trkpt lat="40.155655425041914" lon="-3.680207272991538">
        <ele>640.4000244140625</ele>
        <time>2021-05-22T09:39:14.973Z</time>
      </trkpt>
      <trkpt lat="40.15562055632472" lon="-3.680445570498705">
        <ele>640.5999755859375</ele>
        <time>2021-05-22T09:39:16.308Z</time>
      </trkpt>
      <trkpt lat="40.155674032866955" lon="-3.680753270164132">
        <ele>640.5999755859375</ele>
        <time>2021-05-22T09:39:17.649Z</time>
      </trkpt>
      <trkpt lat="40.155673529952765" lon="-3.6808230075985193">
        <ele>640.5999755859375</ele>
        <time>2021-05-22T09:39:18.992Z</time>
      </trkpt>
      <trkpt lat="40.15561334788799" lon="-3.6810430325567722">
        <ele>639.5999755859375</ele>
        <time>2021-05-22T09:39:20.339Z</time>
      </trkpt>
      <trkpt lat="40.15559163875878" lon="-3.681116458028555">
        <ele>639.0</ele>
        <time>2021-05-22T09:39:21.688Z</time>
      </trkpt>
      <trkpt lat="40.155569426715374" lon="-3.681252161040902">
        <ele>637.7999877929688</ele>
        <time>2021-05-22T09:39:23.040Z</time>
      </trkpt>
      <trkpt lat="40.155569929629564" lon="-3.6813745368272066">
        <ele>636.4000244140625</ele>
        <time>2021-05-22T09:39:24.394Z</time>
      </trkpt>
      <trkpt lat="40.155567498877645" lon="-3.6814399156719446">
        <ele>635.7999877929688</ele>
        <time>2021-05-22T09:39:25.749Z</time>
      </trkpt>
      <trkpt lat="40.155559703707695" lon="-3.68150663562119">
        <ele>635.0</ele>
        <time>2021-05-22T09:39:27.106Z</time>
      </trkpt>
      <trkpt lat="40.15552567318082" lon="-3.681631190702319">
        <ele>634.5999755859375</ele>
        <time>2021-05-22T09:39:28.465Z</time>
      </trkpt>
      <trkpt lat="40.155406314879656" lon="-3.681794134899974">
        <ele>634.0</ele>
        <time>2021-05-22T09:39:29.829Z</time>
      </trkpt>
      <trkpt lat="40.15531520359218" lon="-3.6817282531410456">
        <ele>634.0</ele>
        <time>2021-05-22T09:39:31.195Z</time>
      </trkpt>
      <trkpt lat="40.15529131516814" lon="-3.6816378124058247">
        <ele>634.0</ele>
        <time>2021-05-22T09:39:32.563Z</time>
      </trkpt>
      <trkpt lat="40.155254267156124" lon="-3.681510491296649">
        <ele>634.0</ele>
        <time>2021-05-22T09:39:33.934Z</time>
      </trkpt>
      <trkpt lat="40.155138932168484" lon="-3.681283425539732">
        <ele>635.2000122070312</ele>
        <time>2021-05-22T09:39:35.310Z</time>
      </trkpt>
      <trkpt lat="40.15511487610638" lon="-3.6812458746135235">
        <ele>635.5999755859375</ele>
        <time>2021-05-22T09:39:36.687Z</time>
      </trkpt>
      <trkpt lat="40.155066680163145" lon="-3.681172113865614">
        <ele>636.2000122070312</ele>
        <time>2021-05-22T09:39:38.066Z</time>
      </trkpt>
      <trkpt lat="40.15493902377784" lon="-3.6809828504920006">
        <ele>636.7999877929688</ele>
        <time>2021-05-22T09:39:39.450Z</time>
      </trkpt>
      <trkpt lat="40.1547753252089" lon="-3.680739775300026">
        <ele>637.2000122070312</ele>
        <time>2021-05-22T09:39:40.841Z</time>
      </trkpt>
      <trkpt lat="40.15475135296583" lon="-3.680713204666972">
        <ele>637.4000244140625</ele>
        <time>2021-05-22T09:39:42.232Z</time>
      </trkpt>
      <trkpt lat="40.15462797135115" lon="-3.680601976811886">
        <ele>638.4000244140625</ele>
        <time>2021-05-22T09:39:43.627Z</time>
      </trkpt>
      <trkpt lat="40.15460810624063" lon="-3.680579513311386">
        <ele>638.4000244140625</ele>
        <time>2021-05-22T09:39:45.023Z</time>
      </trkpt>
      <trkpt lat="40.154469050467014" lon="-3.680398715659976">
        <ele>639.2000122070312</ele>
        <time>2021-05-22T09:39:46.424Z</time>
      </trkpt>
      <trkpt lat="40.15441213734448" lon="-3.6803260445594788">
        <ele>639.4000244140625</ele>
        <time>2021-05-22T09:39:47.827Z</time>
      </trkpt>
      <trkpt lat="40.15432144515216" lon="-3.680219426751137">
        <ele>639.4000244140625</ele>
        <time>2021-05-22T09:39:49.233Z</time>
      </trkpt>
      <trkpt lat="40.15421574935317" lon="-3.6800993140786886">
        <ele>640.2000122070312</ele>
        <time>2021-05-22T09:39:50.643Z</time>
      </trkpt>
      <trkpt lat="40.154199404641986" lon="-3.680080706253648">
        <ele>640.5999755859375</ele>
        <time>2021-05-22T09:39:52.053Z</time>
      </trkpt>
      <trkpt lat="40.154168056324124" lon="-3.680039970204234">
        <ele>641.5999755859375</ele>
        <time>2021-05-22T09:39:53.465Z</time>
      </trkpt>
      <trkpt lat="40.154118770733476" lon="-3.6799829732626677">
        <ele>642.7999877929688</ele>
        <time>2021-05-22T09:39:54.878Z</time>
      </trkpt>
      <trkpt lat="40.154084488749504" lon="-3.67994399741292">
        <ele>643.2000122070312</ele>
        <time>2021-05-22T09:39:56.292Z</time>
      </trkpt>
      <trkpt lat="40.15393151901662" lon="-3.679834194481373">
        <ele>643.7999877929688</ele>
        <time>2021-05-22T09:39:57.711Z</time>
      </trkpt>
      <trkpt lat="40.15390980988741" lon="-3.679825896397233">
        <ele>644.0</ele>
        <time>2021-05-22T09:39:59.131Z</time>
      </trkpt>
      <trkpt lat="40.15377058647573" lon="-3.6797995772212744">
        <ele>645.0</ele>
        <time>2021-05-22T09:40:00.554Z</time>
      </trkpt>
      <trkpt lat="40.15374946407974" lon="-3.6797962244600058">
        <ele>645.4000244140625</ele>
        <time>2021-05-22T09:40:01.978Z</time>
      </trkpt>
      <trkpt lat="40.15366363339126" lon="-3.679791195318103">
        <ele>646.0</ele>
        <time>2021-05-22T09:40:03.404Z</time>
      </trkpt>
      <trkpt lat="40.15360772609711" lon="-3.679812988266349">
        <ele>646.5999755859375</ele>
        <time>2021-05-22T09:40:04.831Z</time>
      </trkpt>
      <trkpt lat="40.153572438284755" lon="-3.6798346135765314">
        <ele>647.0</ele>
        <time>2021-05-22T09:40:06.259Z</time>
      </trkpt>
      <trkpt lat="40.15353061258793" lon="-3.6799078714102507">
        <ele>648.2000122070312</ele>
        <time>2021-05-22T09:40:07.689Z</time>
      </trkpt>
      <trkpt lat="40.15352047048509" lon="-3.679978111758828">
        <ele>649.5999755859375</ele>
        <time>2021-05-22T09:40:09.121Z</time>
      </trkpt>
      <trkpt lat="40.15352566726506" lon="-3.6800253856927156">
        <ele>650.7999877929688</ele>
        <time>2021-05-22T09:40:10.554Z</time>
      </trkpt>
      <trkpt lat="40.15353354625404" lon="-3.6800456698983908">
        <ele>651.2000122070312</ele>
        <time>2021-05-22T09:40:11.987Z</time>
      </trkpt>
      <trkpt lat="40.15360496006906" lon="-3.6801182571798563">
        <ele>651.7999877929688</ele>
        <time>2021-05-22T09:40:13.422Z</time>
      </trkpt>
      <trkpt lat="40.153633039444685" lon="-3.6801426485180855">
        <ele>651.7999877929688</ele>
        <time>2021-05-22T09:40:14.858Z</time>
      </trkpt>
      <trkpt lat="40.153718534857035" lon="-3.6802995577454567">
        <ele>652.0</ele>
        <time>2021-05-22T09:40:16.298Z</time>
      </trkpt>
      <trkpt lat="40.153713673353195" lon="-3.6803971230983734">
        <ele>652.0</ele>
        <time>2021-05-22T09:40:17.740Z</time>
      </trkpt>
      <trkpt lat="40.153684336692095" lon="-3.680492090061307">
        <ele>652.0</ele>
        <time>2021-05-22T09:40:19.184Z</time>
      </trkpt>
      <trkpt lat="40.15363865531981" lon="-3.6805687844753265">
        <ele>651.7999877929688</ele>
        <time>2021-05-22T09:40:20.630Z</time>
      </trkpt>
      <trkpt lat="40.153560703620315" lon="-3.6806797608733177">
        <ele>650.5999755859375</ele>
        <time>2021-05-22T09:40:22.079Z</time>
      </trkpt>
      <trkpt lat="40.153513345867395" lon="-3.6807588022202253">
        <ele>649.5999755859375</ele>
        <time>2021-05-22T09:40:23.530Z</time>
      </trkpt>
      <trkpt lat="40.15344327315688" lon="-3.680949155241251">
        <ele>648.4000244140625</ele>
        <time>2021-05-22T09:40:24.985Z</time>
      </trkpt>
      <trkpt lat="40.153336487710476" lon="-3.6812049709260464">
        <ele>648.2000122070312</ele>
        <time>2021-05-22T09:40:26.446Z</time>
      </trkpt>
      <trkpt lat="40.15323154628277" lon="-3.6813253350555897">
        <ele>648.5999755859375</ele>
        <time>2021-05-22T09:40:27.910Z</time>
      </trkpt>
      <trkpt lat="40.15319491736591" lon="-3.6814308632165194">
        <ele>649.2000122070312</ele>
        <time>2021-05-22T09:40:29.377Z</time>
      </trkpt>
      <trkpt lat="40.15320329926908" lon="-3.681461624801159">
        <ele>649.4000244140625</ele>
        <time>2021-05-22T09:40:30.844Z</time>
      </trkpt>
      <trkpt lat="40.153220146894455" lon="-3.681495739147067">
        <ele>649.5999755859375</ele>
        <time>2021-05-22T09:40:32.312Z</time>
      </trkpt>
      <trkpt lat="40.153252417221665" lon="-3.6816285084933043">
        <ele>650.5999755859375</ele>
        <time>2021-05-22T09:40:33.783Z</time>
      </trkpt>
      <trkpt lat="40.15325459651649" lon="-3.681716350838542">
        <ele>651.0</ele>
        <time>2021-05-22T09:40:35.256Z</time>
      </trkpt>
      <trkpt lat="40.15323858708143" lon="-3.68192195892334">
        <ele>651.4000244140625</ele>
        <time>2021-05-22T09:40:36.733Z</time>
      </trkpt>
      <trkpt lat="40.15322123654187" lon="-3.682200573384762">
        <ele>651.4000244140625</ele>
        <time>2021-05-22T09:40:38.215Z</time>
      </trkpt>
      <trkpt lat="40.1532194763422" lon="-3.682260252535343">
        <ele>651.4000244140625</ele>
        <time>2021-05-22T09:40:39.698Z</time>
      </trkpt>
      <trkpt lat="40.153183434158564" lon="-3.6824532877653837">
        <ele>651.5999755859375</ele>
        <time>2021-05-22T09:40:41.185Z</time>
      </trkpt>
      <trkpt lat="40.15306239947677" lon="-3.682608352974057">
        <ele>651.0</ele>
        <time>2021-05-22T09:40:42.677Z</time>
      </trkpt>
      <trkpt lat="40.152865424752235" lon="-3.6826986260712147">
        <ele>650.2000122070312</ele>
        <time>2021-05-22T09:40:44.174Z</time>
      </trkpt>
      <trkpt lat="40.15271312557161" lon="-3.6827323213219643">
        <ele>649.7999877929688</ele>
        <time>2021-05-22T09:40:45.675Z</time>
      </trkpt>
      <trkpt lat="40.15256015583873" lon="-3.682779762893915">
        <ele>651.4000244140625</ele>
        <time>2021-05-22T09:40:47.180Z</time>
      </trkpt>
      <trkpt lat="40.1525444816798" lon="-3.68278487585485">
        <ele>651.4000244140625</ele>
        <time>2021-05-22T09:40:48.686Z</time>
      </trkpt>
      <trkpt lat="40.15246292576194" lon="-3.6828361731022596">
        <ele>652.5999755859375</ele>
        <time>2021-05-22T09:40:50.194Z</time>
      </trkpt>
      <trkpt lat="40.152424704283476" lon="-3.6828716285526752">
        <ele>653.2000122070312</ele>
        <time>2021-05-22T09:40:51.703Z</time>
      </trkpt>
      <trkpt lat="40.15238522551954" lon="-3.6828945111483335">
        <ele>653.7999877929688</ele>
        <time>2021-05-22T09:40:53.213Z</time>
      </trkpt>
      <trkpt lat="40.1523594930768" lon="-3.682896438986063">
        <ele>654.4000244140625</ele>
        <time>2021-05-22T09:40:54.724Z</time>
      </trkpt>
      <trkpt lat="40.15235697850585" lon="-3.6828960198909044">
        <ele>654.7999877929688</ele>
        <time>2021-05-22T09:40:56.235Z</time>
      </trkpt>
      <trkpt lat="40.15210141427815" lon="-3.682775404304266">
        <ele>663.7999877929688</ele>
        <time>2021-05-22T09:40:57.753Z</time>
      </trkpt>
      <trkpt lat="40.15208465047181" lon="-3.682777164503932">
        <ele>663.7999877929688</ele>
        <time>2021-05-22T09:40:59.271Z</time>
      </trkpt>
      <trkpt lat="40.15206679701805" lon="-3.6827796790748835">
        <ele>663.7999877929688</ele>
        <time>2021-05-22T09:41:00.790Z</time>
      </trkpt>
      <trkpt lat="40.151911145076156" lon="-3.6827843729406595">
        <ele>664.4000244140625</ele>
        <time>2021-05-22T09:41:02.313Z</time>
      </trkpt>
      <trkpt lat="40.15180955640972" lon="-3.6827438045293093">
        <ele>664.5999755859375</ele>
        <time>2021-05-22T09:41:03.839Z</time>
      </trkpt>
      <trkpt lat="40.15179455280304" lon="-3.6827334109693766">
        <ele>664.5999755859375</ele>
        <time>2021-05-22T09:41:05.365Z</time>
      </trkpt>
      <trkpt lat="40.151678044348955" lon="-3.682666188105941">
        <ele>665.7999877929688</ele>
        <time>2021-05-22T09:41:06.894Z</time>
      </trkpt>
      <trkpt lat="40.151658430695534" lon="-3.6826557107269764">
        <ele>666.0</ele>
        <time>2021-05-22T09:41:08.424Z</time>
      </trkpt>
      <trkpt lat="40.151557847857475" lon="-3.6825725622475147">
        <ele>666.7999877929688</ele>
        <time>2021-05-22T09:41:09.957Z</time>
      </trkpt>
      <trkpt lat="40.15154535882175" lon="-3.6825535353273153">
        <ele>667.0</ele>
        <time>2021-05-22T09:41:11.490Z</time>
      </trkpt>
      <trkpt lat="40.15149548649788" lon="-3.6824301537126303">
        <ele>668.7999877929688</ele>
        <time>2021-05-22T09:41:13.026Z</time>
      </trkpt>
      <trkpt lat="40.15148492529988" lon="-3.682406935840845">
        <ele>669.2000122070312</ele>
        <time>2021-05-22T09:41:14.563Z</time>
      </trkpt>
      <trkpt lat="40.1514461170882" lon="-3.682311298325658">
        <ele>670.0</ele>
        <time>2021-05-22T09:41:16.102Z</time>
      </trkpt>
      <trkpt lat="40.15141258947551" lon="-3.6822118051350117">
        <ele>671.0</ele>
        <time>2021-05-22T09:41:17.643Z</time>
      </trkpt>
      <trkpt lat="40.15140370465815" lon="-3.6821876652538776">
        <ele>671.2000122070312</ele>
        <time>2021-05-22T09:41:19.185Z</time>
      </trkpt>
      <trkpt lat="40.15135349705815" lon="-3.6820636969059706">
        <ele>672.2000122070312</ele>
        <time>2021-05-22T09:41:20.729Z</time>
      </trkpt>
      <trkpt lat="40.15133279375732" lon="-3.6820160038769245">
        <ele>672.7999877929688</ele>
        <time>2021-05-22T09:41:22.274Z</time>
      </trkpt>
      <trkpt lat="40.15131192281842" lon="-3.6819665506482124">
        <ele>673.4000244140625</ele>
        <time>2021-05-22T09:41:23.821Z</time>
      </trkpt>
      <trkpt lat="40.15126573853195" lon="-3.6818708293139935">
        <ele>674.4000244140625</ele>
        <time>2021-05-22T09:41:25.370Z</time>
      </trkpt>
      <trkpt lat="40.15124243684113" lon="-3.68182179518044">
        <ele>674.5999755859375</ele>
        <time>2021-05-22T09:41:26.920Z</time>
      </trkpt>
      <trkpt lat="40.15118912793696" lon="-3.6816993355751038">
        <ele>675.5999755859375</ele>
        <time>2021-05-22T09:41:28.473Z</time>
      </trkpt>
      <trkpt lat="40.1511662453413" lon="-3.6816443502902985">
        <ele>676.0</ele>
        <time>2021-05-22T09:41:30.027Z</time>
      </trkpt>
      <trkpt lat="40.15113682486117" lon="-3.6815883591771126">
        <ele>676.4000244140625</ele>
        <time>2021-05-22T09:41:31.582Z</time>
      </trkpt>
      <trkpt lat="40.15108175575733" lon="-3.6815173644572496">
        <ele>676.7999877929688</ele>
        <time>2021-05-22T09:41:33.139Z</time>
      </trkpt>
      <trkpt lat="40.15105560421944" lon="-3.6815026961266994">
        <ele>677.0</ele>
        <time>2021-05-22T09:41:34.697Z</time>
      </trkpt>
      <trkpt lat="40.150934318080544" lon="-3.6815277580171824">
        <ele>677.4000244140625</ele>
        <time>2021-05-22T09:41:36.258Z</time>
      </trkpt>
      <trkpt lat="40.15082040801644" lon="-3.681701850146055">
        <ele>677.5999755859375</ele>
        <time>2021-05-22T09:41:37.824Z</time>
      </trkpt>
      <trkpt lat="40.15071236528456" lon="-3.6819715797901154">
        <ele>677.5999755859375</ele>
        <time>2021-05-22T09:41:39.396Z</time>
      </trkpt>
      <trkpt lat="40.150676323100924" lon="-3.6820172611624002">
        <ele>677.5999755859375</ele>
        <time>2021-05-22T09:41:40.969Z</time>
      </trkpt>
      <trkpt lat="40.15046551823616" lon="-3.6821141559630632">
        <ele>676.4000244140625</ele>
        <time>2021-05-22T09:41:42.548Z</time>
      </trkpt>
      <trkpt lat="40.15040701255202" lon="-3.6821258906275034">
        <ele>675.4000244140625</ele>
        <time>2021-05-22T09:41:44.128Z</time>
      </trkpt>
      <trkpt lat="40.150233590975404" lon="-3.682171404361725">
        <ele>674.2000122070312</ele>
        <time>2021-05-22T09:41:45.713Z</time>
      </trkpt>
      <trkpt lat="40.15006913803518" lon="-3.6822342686355114">
        <ele>673.0</ele>
        <time>2021-05-22T09:41:47.302Z</time>
      </trkpt>
      <trkpt lat="40.15001457184553" lon="-3.682259162887931">
        <ele>672.7999877929688</ele>
        <time>2021-05-22T09:41:48.893Z</time>
      </trkpt>
      <trkpt lat="40.1497071236372" lon="-3.682387489825487">
        <ele>672.0</ele>
        <time>2021-05-22T09:41:50.492Z</time>
      </trkpt>
      <trkpt lat="40.14966010116041" lon="-3.6824071872979403">
        <ele>672.0</ele>
        <time>2021-05-22T09:41:52.092Z</time>
      </trkpt>
      <trkpt lat="40.149281742051244" lon="-3.682537777349353">
        <ele>671.5999755859375</ele>
        <time>2021-05-22T09:41:53.702Z</time>
      </trkpt>
      <trkpt lat="40.149236312136054" lon="-3.6825485061854124">
        <ele>671.5999755859375</ele>
        <time>2021-05-22T09:41:55.314Z</time>
      </trkpt>
      <trkpt lat="40.149125419557095" lon="-3.682492095977068">
        <ele>671.5999755859375</ele>
        <time>2021-05-22T09:41:56.929Z</time>
      </trkpt>
      <trkpt lat="40.14912307262421" lon="-3.6823656130582094">
        <ele>671.5999755859375</ele>
        <time>2021-05-22T09:41:58.546Z</time>
      </trkpt>
      <trkpt lat="40.14913153834641" lon="-3.682327475398779">
        <ele>671.7999877929688</ele>
        <time>2021-05-22T09:42:00.164Z</time>
      </trkpt>
      <trkpt lat="40.149205634370446" lon="-3.6821007449179888">
        <ele>672.7999877929688</ele>
        <time>2021-05-22T09:42:01.787Z</time>
      </trkpt>
      <trkpt lat="40.14922524802387" lon="-3.6820710729807615">
        <ele>673.2000122070312</ele>
        <time>2021-05-22T09:42:03.411Z</time>
      </trkpt>
      <trkpt lat="40.14930202625692" lon="-3.6820013355463743">
        <ele>674.2000122070312</ele>
        <time>2021-05-22T09:42:05.037Z</time>
      </trkpt>
      <trkpt lat="40.149333039298654" lon="-3.681983146816492">
        <ele>674.5999755859375</ele>
        <time>2021-05-22T09:42:06.664Z</time>
      </trkpt>
      <trkpt lat="40.14939833432436" lon="-3.6819518823176622">
        <ele>675.4000244140625</ele>
        <time>2021-05-22T09:42:08.293Z</time>
      </trkpt>
      <trkpt lat="40.14953671954572" lon="-3.6818991601467133">
        <ele>676.7999877929688</ele>
        <time>2021-05-22T09:42:09.925Z</time>
      </trkpt>
      <trkpt lat="40.14960469678044" lon="-3.6818828992545605">
        <ele>677.4000244140625</ele>
        <time>2021-05-22T09:42:11.559Z</time>
      </trkpt>
      <trkpt lat="40.14973503537476" lon="-3.681856580078602">
        <ele>677.7999877929688</ele>
        <time>2021-05-22T09:42:13.197Z</time>
      </trkpt>
      <trkpt lat="40.14986352995038" lon="-3.6818228010088205">
        <ele>678.0</ele>
        <time>2021-05-22T09:42:14.838Z</time>
      </trkpt>
      <trkpt lat="40.149973249062896" lon="-3.681729845702648">
        <ele>678.5999755859375</ele>
        <time>2021-05-22T09:42:16.482Z</time>
      </trkpt>
      <trkpt lat="40.14998272061348" lon="-3.6816778779029846">
        <ele>679.0</ele>
        <time>2021-05-22T09:42:18.127Z</time>
      </trkpt>
      <trkpt lat="40.14997014775872" lon="-3.681604703888297">
        <ele>679.4000244140625</ele>
        <time>2021-05-22T09:42:19.774Z</time>
      </trkpt>
      <trkpt lat="40.149951288476586" lon="-3.68153790012002">
        <ele>680.2000122070312</ele>
        <time>2021-05-22T09:42:21.422Z</time>
      </trkpt>
      <trkpt lat="40.14992161653936" lon="-3.6814708448946476">
        <ele>681.2000122070312</ele>
        <time>2021-05-22T09:42:23.072Z</time>
      </trkpt>
      <trkpt lat="40.149903343990445" lon="-3.6814502254128456">
        <ele>681.5999755859375</ele>
        <time>2021-05-22T09:42:24.723Z</time>
      </trkpt>
      <trkpt lat="40.1498659607023" lon="-3.6814034543931484">
        <ele>682.5999755859375</ele>
        <time>2021-05-22T09:42:26.375Z</time>
      </trkpt>
      <trkpt lat="40.14973847195506" lon="-3.6812505684792995">
        <ele>683.0</ele>
        <time>2021-05-22T09:42:28.031Z</time>
      </trkpt>
      <trkpt lat="40.14954510144889" lon="-3.681036662310362">
        <ele>683.5999755859375</ele>
        <time>2021-05-22T09:42:29.694Z</time>
      </trkpt>
      <trkpt lat="40.14946195296943" lon="-3.6809681821614504">
        <ele>683.5999755859375</ele>
        <time>2021-05-22T09:42:31.359Z</time>
      </trkpt>
      <trkpt lat="40.149225164204836" lon="-3.6807867139577866">
        <ele>683.4000244140625</ele>
        <time>2021-05-22T09:42:33.031Z</time>
      </trkpt>
      <trkpt lat="40.149036990478635" lon="-3.6807266995310783">
        <ele>683.2000122070312</ele>
        <time>2021-05-22T09:42:34.708Z</time>
      </trkpt>
      <trkpt lat="40.1489869505167" lon="-3.680703565478325">
        <ele>683.2000122070312</ele>
        <time>2021-05-22T09:42:36.387Z</time>
      </trkpt>
      <trkpt lat="40.14888217672706" lon="-3.680667607113719">
        <ele>683.0</ele>
        <time>2021-05-22T09:42:38.069Z</time>
      </trkpt>
      <trkpt lat="40.14877673238516" lon="-3.680702894926071">
        <ele>682.2000122070312</ele>
        <time>2021-05-22T09:42:39.753Z</time>
      </trkpt>
      <trkpt lat="40.148719903081656" lon="-3.6807976104319096">
        <ele>680.4000244140625</ele>
        <time>2021-05-22T09:42:41.440Z</time>
      </trkpt>
      <trkpt lat="40.14870825223625" lon="-3.6808521766215563">
        <ele>679.7999877929688</ele>
        <time>2021-05-22T09:42:43.128Z</time>
      </trkpt>
      <trkpt lat="40.148702301084995" lon="-3.6809054017066956">
        <ele>679.0</ele>
        <time>2021-05-22T09:42:44.817Z</time>
      </trkpt>
      <trkpt lat="40.148696852847934" lon="-3.6809546034783125">
        <ele>677.7999877929688</ele>
        <time>2021-05-22T09:42:46.507Z</time>
      </trkpt>
      <trkpt lat="40.14868796803057" lon="-3.6810411885380745">
        <ele>676.4000244140625</ele>
        <time>2021-05-22T09:42:48.199Z</time>
      </trkpt>
      <trkpt lat="40.14868402853608" lon="-3.6811092495918274">
        <ele>675.7999877929688</ele>
        <time>2021-05-22T09:42:49.892Z</time>
      </trkpt>
      <trkpt lat="40.148669024929404" lon="-3.681367412209511">
        <ele>675.5999755859375</ele>
        <time>2021-05-22T09:42:51.590Z</time>
      </trkpt>
      <trkpt lat="40.148653937503695" lon="-3.6816634610295296">
        <ele>676.0</ele>
        <time>2021-05-22T09:42:53.294Z</time>
      </trkpt>
      <trkpt lat="40.14861957170069" lon="-3.6819481942802668">
        <ele>677.2000122070312</ele>
        <time>2021-05-22T09:42:55.004Z</time>
      </trkpt>
      <trkpt lat="40.148565508425236" lon="-3.6823316663503647">
        <ele>677.7999877929688</ele>
        <time>2021-05-22T09:42:56.721Z</time>
      </trkpt>
      <trkpt lat="40.148485377430916" lon="-3.682776326313615">
        <ele>677.4000244140625</ele>
        <time>2021-05-22T09:42:58.448Z</time>
      </trkpt>
      <trkpt lat="40.14833953231573" lon="-3.683094084262848">
        <ele>676.7999877929688</ele>
        <time>2021-05-22T09:43:00.182Z</time>
      </trkpt>
      <trkpt lat="40.148248337209225" lon="-3.6832343973219395">
        <ele>676.2000122070312</ele>
        <time>2021-05-22T09:43:01.919Z</time>
      </trkpt>
      <trkpt lat="40.14815563336015" lon="-3.6833487264811993">
        <ele>675.0</ele>
        <time>2021-05-22T09:43:03.660Z</time>
      </trkpt>
      <trkpt lat="40.1481219381094" lon="-3.6833819188177586">
        <ele>674.5999755859375</ele>
        <time>2021-05-22T09:43:05.402Z</time>
      </trkpt>
      <trkpt lat="40.14801196753979" lon="-3.6834675818681717">
        <ele>674.0</ele>
        <time>2021-05-22T09:43:07.147Z</time>
      </trkpt>
      <trkpt lat="40.14786545187235" lon="-3.683542935177684">
        <ele>673.2000122070312</ele>
        <time>2021-05-22T09:43:08.896Z</time>
      </trkpt>
      <trkpt lat="40.147832091897726" lon="-3.6835539154708385">
        <ele>673.0</ele>
        <time>2021-05-22T09:43:10.646Z</time>
      </trkpt>
      <trkpt lat="40.14759429730475" lon="-3.6835768818855286">
        <ele>672.7999877929688</ele>
        <time>2021-05-22T09:43:12.402Z</time>
      </trkpt>
      <trkpt lat="40.147447446361184" lon="-3.6834996845573187">
        <ele>673.4000244140625</ele>
        <time>2021-05-22T09:43:14.162Z</time>
      </trkpt>
      <trkpt lat="40.14739790931344" lon="-3.6833856906741858">
        <ele>674.0</ele>
        <time>2021-05-22T09:43:15.925Z</time>
      </trkpt>
      <trkpt lat="40.14739254489541" lon="-3.683358784765005">
        <ele>674.0</ele>
        <time>2021-05-22T09:43:17.688Z</time>
      </trkpt>
      <trkpt lat="40.147365387529135" lon="-3.6832297034561634">
        <ele>675.0</ele>
        <time>2021-05-22T09:43:19.454Z</time>
      </trkpt>
      <trkpt lat="40.14735775999725" lon="-3.6831760592758656">
        <ele>675.7999877929688</ele>
        <time>2021-05-22T09:43:21.221Z</time>
      </trkpt>
      <trkpt lat="40.14735306613147" lon="-3.6831510812044144">
        <ele>676.0</ele>
        <time>2021-05-22T09:43:22.989Z</time>
      </trkpt>
      <trkpt lat="40.14733403921127" lon="-3.683058377355337">
        <ele>677.4000244140625</ele>
        <time>2021-05-22T09:43:24.759Z</time>
      </trkpt>
      <trkpt lat="40.147318532690406" lon="-3.6829634103924036">
        <ele>678.5999755859375</ele>
        <time>2021-05-22T09:43:26.531Z</time>
      </trkpt>
      <trkpt lat="40.14730713330209" lon="-3.6828862130641937">
        <ele>679.5999755859375</ele>
        <time>2021-05-22T09:43:28.304Z</time>
      </trkpt>
      <trkpt lat="40.14730026014149" lon="-3.682787725701928">
        <ele>680.7999877929688</ele>
        <time>2021-05-22T09:43:30.079Z</time>
      </trkpt>
      <trkpt lat="40.14729984104633" lon="-3.6827405355870724">
        <ele>681.2000122070312</ele>
        <time>2021-05-22T09:43:31.855Z</time>
      </trkpt>
      <trkpt lat="40.14730294235051" lon="-3.6826954409480095">
        <ele>682.0</ele>
        <time>2021-05-22T09:43:33.632Z</time>
      </trkpt>
      <trkpt lat="40.1473084744066" lon="-3.6826027370989323">
        <ele>683.0</ele>
        <time>2021-05-22T09:43:35.411Z</time>
      </trkpt>
      <trkpt lat="40.14731274917722" lon="-3.682556301355362">
        <ele>683.4000244140625</ele>
        <time>2021-05-22T09:43:37.191Z</time>
      </trkpt>
      <trkpt lat="40.14731492847204" lon="-3.682509446516633">
        <ele>684.2000122070312</ele>
        <time>2021-05-22T09:43:38.972Z</time>
      </trkpt>
      <trkpt lat="40.147305792197585" lon="-3.6824150662869215">
        <ele>685.2000122070312</ele>
        <time>2021-05-22T09:43:40.754Z</time>
      </trkpt>
      <trkpt lat="40.147292632609606" lon="-3.682371396571398">
        <ele>686.0</ele>
        <time>2021-05-22T09:43:42.537Z</time>
      </trkpt>
      <trkpt lat="40.147282322868705" lon="-3.6823520343750715">
        <ele>686.5999755859375</ele>
        <time>2021-05-22T09:43:44.321Z</time>
      </trkpt>
      <trkpt lat="40.14720696955919" lon="-3.682270897552371">
        <ele>687.7999877929688</ele>
        <time>2021-05-22T09:43:46.107Z</time>
      </trkpt>
      <trkpt lat="40.14713069424033" lon="-3.68222932331264">
        <ele>689.0</ele>
        <time>2021-05-22T09:43:47.896Z</time>
      </trkpt>
      <trkpt lat="40.14708853326738" lon="-3.68222345598042">
        <ele>689.4000244140625</ele>
        <time>2021-05-22T09:43:49.686Z</time>
      </trkpt>
      <trkpt lat="40.14700739644468" lon="-3.6823084484785795">
        <ele>689.7999877929688</ele>
        <time>2021-05-22T09:43:51.478Z</time>
      </trkpt>
      <trkpt lat="40.146941766142845" lon="-3.682570718228817">
        <ele>689.5999755859375</ele>
        <time>2021-05-22T09:43:53.276Z</time>
      </trkpt>
      <trkpt lat="40.14686440117657" lon="-3.682873724028468">
        <ele>688.2000122070312</ele>
        <time>2021-05-22T09:43:55.080Z</time>
      </trkpt>
      <trkpt lat="40.14683975838125" lon="-3.68295980617404">
        <ele>687.5999755859375</ele>
        <time>2021-05-22T09:43:56.886Z</time>
      </trkpt>
      <trkpt lat="40.146787790581584" lon="-3.6832343135029078">
        <ele>686.2000122070312</ele>
        <time>2021-05-22T09:43:58.697Z</time>
      </trkpt>
      <trkpt lat="40.146777145564556" lon="-3.6833282746374607">
        <ele>685.5999755859375</ele>
        <time>2021-05-22T09:44:00.510Z</time>
      </trkpt>
      <trkpt lat="40.14676624909043" lon="-3.6834196373820305">
        <ele>685.0</ele>
        <time>2021-05-22T09:44:02.325Z</time>
      </trkpt>
      <trkpt lat="40.14675434678793" lon="-3.6835913825780153">
        <ele>684.0</ele>
        <time>2021-05-22T09:44:04.144Z</time>
      </trkpt>
      <trkpt lat="40.14674562960863" lon="-3.6836690828204155">
        <ele>683.5999755859375</ele>
        <time>2021-05-22T09:44:05.964Z</time>
      </trkpt>
      <trkpt lat="40.14672945253551" lon="-3.6837370600551367">
        <ele>683.0</ele>
        <time>2021-05-22T09:44:07.786Z</time>
      </trkpt>
      <trkpt lat="40.1467074919492" lon="-3.683787938207388">
        <ele>682.4000244140625</ele>
        <time>2021-05-22T09:44:09.609Z</time>
      </trkpt>
      <trkpt lat="40.14664546586573" lon="-3.683809479698539">
        <ele>680.7999877929688</ele>
        <time>2021-05-22T09:44:11.433Z</time>
      </trkpt>
      <trkpt lat="40.14655142091215" lon="-3.6837026942521334">
        <ele>679.4000244140625</ele>
        <time>2021-05-22T09:44:13.261Z</time>
      </trkpt>
      <trkpt lat="40.14652174897492" lon="-3.6836545821279287">
        <ele>679.2000122070312</ele>
        <time>2021-05-22T09:44:15.090Z</time>
      </trkpt>
      <trkpt lat="40.146467769518495" lon="-3.6835662368685007">
        <ele>677.4000244140625</ele>
        <time>2021-05-22T09:44:16.921Z</time>
      </trkpt>
      <trkpt lat="40.14639878645539" lon="-3.6835070606321096">
        <ele>676.0</ele>
        <time>2021-05-22T09:44:18.754Z</time>
      </trkpt>
      <trkpt lat="40.14635821804404" lon="-3.6834851000458">
        <ele>675.5999755859375</ele>
        <time>2021-05-22T09:44:20.588Z</time>
      </trkpt>
      <trkpt lat="40.14631622470915" lon="-3.6834676656872034">
        <ele>675.5999755859375</ele>
        <time>2021-05-22T09:44:22.423Z</time>
      </trkpt>
      <trkpt lat="40.14613542705774" lon="-3.6834313720464706">
        <ele>675.4000244140625</ele>
        <time>2021-05-22T09:44:24.263Z</time>
      </trkpt>
      <trkpt lat="40.14608656056225" lon="-3.683431204408407">
        <ele>675.2000122070312</ele>
        <time>2021-05-22T09:44:26.104Z</time>
      </trkpt>
      <trkpt lat="40.14589570462704" lon="-3.6834178771823645">
        <ele>675.0</ele>
        <time>2021-05-22T09:44:27.950Z</time>
      </trkpt>
      <trkpt lat="40.14576595276594" lon="-3.6834134347736835">
        <ele>675.0</ele>
        <time>2021-05-22T09:44:29.800Z</time>
      </trkpt>
      <trkpt lat="40.14564969576895" lon="-3.6834114231169224">
        <ele>674.7999877929688</ele>
        <time>2021-05-22T09:44:31.653Z</time>
      </trkpt>
      <trkpt lat="40.1454262342304" lon="-3.6834239959716797">
        <ele>674.7999877929688</ele>
        <time>2021-05-22T09:44:33.511Z</time>
      </trkpt>
      <trkpt lat="40.145120630040765" lon="-3.683404717594385">
        <ele>674.2000122070312</ele>
        <time>2021-05-22T09:44:35.377Z</time>
      </trkpt>
      <trkpt lat="40.145008228719234" lon="-3.6833775602281094">
        <ele>673.7999877929688</ele>
        <time>2021-05-22T09:44:37.246Z</time>
      </trkpt>
      <trkpt lat="40.144870514050126" lon="-3.683361718431115">
        <ele>673.7999877929688</ele>
        <time>2021-05-22T09:44:39.119Z</time>
      </trkpt>
      <trkpt lat="40.14470849186182" lon="-3.683435143902898">
        <ele>674.2000122070312</ele>
        <time>2021-05-22T09:44:40.996Z</time>
      </trkpt>
      <trkpt lat="40.14463506639004" lon="-3.6835162807255983">
        <ele>675.0</ele>
        <time>2021-05-22T09:44:42.876Z</time>
      </trkpt>
      <trkpt lat="40.144521156325936" lon="-3.6836193781346083">
        <ele>676.5999755859375</ele>
        <time>2021-05-22T09:44:44.759Z</time>
      </trkpt>
      <trkpt lat="40.14435527846217" lon="-3.68373136036098">
        <ele>677.5999755859375</ele>
        <time>2021-05-22T09:44:46.647Z</time>
      </trkpt>
      <trkpt lat="40.14428813941777" lon="-3.6837795563042164">
        <ele>677.5999755859375</ele>
        <time>2021-05-22T09:44:48.537Z</time>
      </trkpt>
      <trkpt lat="40.14404992572963" lon="-3.684030594304204">
        <ele>678.0</ele>
        <time>2021-05-22T09:44:50.435Z</time>
      </trkpt>
      <trkpt lat="40.14394246973097" lon="-3.6841023433953524">
        <ele>677.7999877929688</ele>
        <time>2021-05-22T09:44:52.336Z</time>
      </trkpt>
      <trkpt lat="40.143854124471545" lon="-3.6841241363435984">
        <ele>677.5999755859375</ele>
        <time>2021-05-22T09:44:54.239Z</time>
      </trkpt>
      <trkpt lat="40.14367634430528" lon="-3.6841370444744825">
        <ele>677.4000244140625</ele>
        <time>2021-05-22T09:44:56.147Z</time>
      </trkpt>
      <trkpt lat="40.143584897741675" lon="-3.684121621772647">
        <ele>677.0</ele>
        <time>2021-05-22T09:44:58.057Z</time>
      </trkpt>
      <trkpt lat="40.1434057764709" lon="-3.684065965935588">
        <ele>676.5999755859375</ele>
        <time>2021-05-22T09:44:59.972Z</time>
      </trkpt>
      <trkpt lat="40.143358670175076" lon="-3.6840575002133846">
        <ele>676.5999755859375</ele>
        <time>2021-05-22T09:45:01.888Z</time>
      </trkpt>
      <trkpt lat="40.14325766824186" lon="-3.684058841317892">
        <ele>676.4000244140625</ele>
        <time>2021-05-22T09:45:03.807Z</time>
      </trkpt>
      <trkpt lat="40.14314644038677" lon="-3.684084825217724">
        <ele>676.2000122070312</ele>
        <time>2021-05-22T09:45:05.729Z</time>
      </trkpt>
      <trkpt lat="40.14295977540314" lon="-3.684109468013048">
        <ele>675.5999755859375</ele>
        <time>2021-05-22T09:45:07.656Z</time>
      </trkpt>
      <trkpt lat="40.14289163053036" lon="-3.684110390022397">
        <ele>675.4000244140625</ele>
        <time>2021-05-22T09:45:09.584Z</time>
      </trkpt>
      <trkpt lat="40.142820216715336" lon="-3.684103097766638">
        <ele>675.2000122070312</ele>
        <time>2021-05-22T09:45:11.514Z</time>
      </trkpt>
      <trkpt lat="40.14266590587795" lon="-3.684080298990011">
        <ele>675.0</ele>
        <time>2021-05-22T09:45:13.448Z</time>
      </trkpt>
      <trkpt lat="40.14249893836677" lon="-3.684077365323901">
        <ele>674.4000244140625</ele>
        <time>2021-05-22T09:45:15.387Z</time>
      </trkpt>
      <trkpt lat="40.14241713099182" lon="-3.6840931233018637">
        <ele>674.0</ele>
        <time>2021-05-22T09:45:17.328Z</time>
      </trkpt>
      <trkpt lat="40.142338424921036" lon="-3.684120113030076">
        <ele>673.4000244140625</ele>
        <time>2021-05-22T09:45:19.271Z</time>
      </trkpt>
      <trkpt lat="40.14219903387129" lon="-3.6842048540711403">
        <ele>672.7999877929688</ele>
        <time>2021-05-22T09:45:21.218Z</time>
      </trkpt>
      <trkpt lat="40.14214312657714" lon="-3.6842392198741436">
        <ele>672.2000122070312</ele>
        <time>2021-05-22T09:45:23.166Z</time>
      </trkpt>
      <trkpt lat="40.14209392480552" lon="-3.6842551454901695">
        <ele>671.2000122070312</ele>
        <time>2021-05-22T09:45:25.116Z</time>
      </trkpt>
      <trkpt lat="40.142020247876644" lon="-3.684214912354946">
        <ele>670.5999755859375</ele>
        <time>2021-05-22T09:45:27.068Z</time>
      </trkpt>
      <trkpt lat="40.142004657536745" lon="-3.6841739248484373">
        <ele>669.5999755859375</ele>
        <time>2021-05-22T09:45:29.021Z</time>
      </trkpt>
      <trkpt lat="40.1420172303915" lon="-3.6840861663222313">
        <ele>668.5999755859375</ele>
        <time>2021-05-22T09:45:30.975Z</time>
      </trkpt>
      <trkpt lat="40.14205218292773" lon="-3.6840227153152227">
        <ele>667.2000122070312</ele>
        <time>2021-05-22T09:45:32.931Z</time>
      </trkpt>
      <trkpt lat="40.14207238331437" lon="-3.683995809406042">
        <ele>667.0</ele>
        <time>2021-05-22T09:45:34.888Z</time>
      </trkpt>
      <trkpt lat="40.14211772941053" lon="-3.683948703110218">
        <ele>666.7999877929688</ele>
        <time>2021-05-22T09:45:36.846Z</time>
      </trkpt>
      <trkpt lat="40.142284194007516" lon="-3.6838327813893557">
        <ele>666.7999877929688</ele>
        <time>2021-05-22T09:45:38.809Z</time>
      </trkpt>
      <trkpt lat="40.142369186505675" lon="-3.6837700847536325">
        <ele>668.4000244140625</ele>
        <time>2021-05-22T09:45:40.775Z</time>
      </trkpt>
      <trkpt lat="40.14243054203689" lon="-3.683719038963318">
        <ele>669.4000244140625</ele>
        <time>2021-05-22T09:45:42.743Z</time>
      </trkpt>
      <trkpt lat="40.14248879626393" lon="-3.683669837191701">
        <ele>670.5999755859375</ele>
        <time>2021-05-22T09:45:44.712Z</time>
      </trkpt>
      <trkpt lat="40.142542105168104" lon="-3.6836205516010523">
        <ele>671.5999755859375</ele>
        <time>2021-05-22T09:45:46.683Z</time>
      </trkpt>
      <trkpt lat="40.14264101162553" lon="-3.683511922135949">
        <ele>673.0</ele>
        <time>2021-05-22T09:45:48.657Z</time>
      </trkpt>
      <trkpt lat="40.142725333571434" lon="-3.6833981797099113">
        <ele>674.4000244140625</ele>
        <time>2021-05-22T09:45:50.634Z</time>
      </trkpt>
      <trkpt lat="40.14276816509664" lon="-3.6833251733332872">
        <ele>675.2000122070312</ele>
        <time>2021-05-22T09:45:52.613Z</time>
      </trkpt>
      <trkpt lat="40.1428098231554" lon="-3.6832467187196016">
        <ele>675.4000244140625</ele>
        <time>2021-05-22T09:45:54.594Z</time>
      </trkpt>
      <trkpt lat="40.142858354374766" lon="-3.6831407714635134">
        <ele>676.5999755859375</ele>
        <time>2021-05-22T09:45:56.578Z</time>
      </trkpt>
      <trkpt lat="40.142890037968755" lon="-3.683089390397072">
        <ele>677.0</ele>
        <time>2021-05-22T09:45:58.563Z</time>
      </trkpt>
      <trkpt lat="40.14292306266725" lon="-3.6830409429967403">
        <ele>677.5999755859375</ele>
        <time>2021-05-22T09:46:00.549Z</time>
      </trkpt>
      <trkpt lat="40.14299782924354" lon="-3.68295687250793">
        <ele>678.7999877929688</ele>
        <time>2021-05-22T09:46:02.538Z</time>
      </trkpt>
      <trkpt lat="40.14305784367025" lon="-3.68290557526052">
        <ele>679.7999877929688</ele>
        <time>2021-05-22T09:46:04.529Z</time>
      </trkpt>
      <trkpt lat="40.14307930134237" lon="-3.6828877218067646">
        <ele>680.0</ele>
        <time>2021-05-22T09:46:06.520Z</time>
      </trkpt>
      <trkpt lat="40.14319706708193" lon="-3.6827931739389896">
        <ele>680.7999877929688</ele>
        <time>2021-05-22T09:46:08.515Z</time>
      </trkpt>
      <trkpt lat="40.143298069015145" lon="-3.6826588958501816">
        <ele>681.0</ele>
        <time>2021-05-22T09:46:10.514Z</time>
      </trkpt>
      <trkpt lat="40.14332028105855" lon="-3.682609526440501">
        <ele>681.0</ele>
        <time>2021-05-22T09:46:12.514Z</time>
      </trkpt>
      <trkpt lat="40.143394377082586" lon="-3.6823146510869265">
        <ele>680.7999877929688</ele>
        <time>2021-05-22T09:46:14.520Z</time>
      </trkpt>
      <trkpt lat="40.143485153093934" lon="-3.681714842095971">
        <ele>678.5999755859375</ele>
        <time>2021-05-22T09:46:16.538Z</time>
      </trkpt>
      <trkpt lat="40.14354156330228" lon="-3.6814911291003227">
        <ele>676.7999877929688</ele>
        <time>2021-05-22T09:46:18.561Z</time>
      </trkpt>
      <trkpt lat="40.14357341453433" lon="-3.6813795659691095">
        <ele>675.2000122070312</ele>
        <time>2021-05-22T09:46:20.586Z</time>
      </trkpt>
      <trkpt lat="40.143602918833494" lon="-3.6812697630375624">
        <ele>674.0</ele>
        <time>2021-05-22T09:46:22.613Z</time>
      </trkpt>
      <trkpt lat="40.143633680418134" lon="-3.6811659950762987">
        <ele>673.0</ele>
        <time>2021-05-22T09:46:24.642Z</time>
      </trkpt>
      <trkpt lat="40.143661173060536" lon="-3.6810656636953354">
        <ele>670.5999755859375</ele>
        <time>2021-05-22T09:46:26.674Z</time>
      </trkpt>
      <trkpt lat="40.14368782751262" lon="-3.680979162454605">
        <ele>669.5999755859375</ele>
        <time>2021-05-22T09:46:28.707Z</time>
      </trkpt>
      <trkpt lat="40.14371054247022" lon="-3.6809085868299007">
        <ele>668.4000244140625</ele>
        <time>2021-05-22T09:46:30.742Z</time>
      </trkpt>
      <trkpt lat="40.143726132810116" lon="-3.6808614805340767">
        <ele>667.0</ele>
        <time>2021-05-22T09:46:32.778Z</time>
      </trkpt>
      <trkpt lat="40.1437252946198" lon="-3.680835831910372">
        <ele>665.0</ele>
        <time>2021-05-22T09:46:34.814Z</time>
      </trkpt>
      <trkpt lat="40.14372244477272" lon="-3.6808265279978514">
        <ele>664.0</ele>
        <time>2021-05-22T09:46:36.851Z</time>
      </trkpt>
      <trkpt lat="40.14371640980244" lon="-3.6808217503130436">
        <ele>663.2000122070312</ele>
        <time>2021-05-22T09:46:38.888Z</time>
      </trkpt>
      <trkpt lat="40.143716325983405" lon="-3.6808115243911743">
        <ele>662.5999755859375</ele>
        <time>2021-05-22T09:46:40.925Z</time>
      </trkpt>
      <trkpt lat="40.14371615834534" lon="-3.680792497470975">
        <ele>661.4000244140625</ele>
        <time>2021-05-22T09:46:42.962Z</time>
      </trkpt>
      <trkpt lat="40.14372236095369" lon="-3.6807734705507755">
        <ele>660.2000122070312</ele>
        <time>2021-05-22T09:46:45.000Z</time>
      </trkpt>
      <trkpt lat="40.14373753219843" lon="-3.6807528510689735">
        <ele>658.7999877929688</ele>
        <time>2021-05-22T09:46:47.038Z</time>
      </trkpt>
      <trkpt lat="40.14374733902514" lon="-3.6807393562048674">
        <ele>657.4000244140625</ele>
        <time>2021-05-22T09:46:49.077Z</time>
      </trkpt>
      <trkpt lat="40.14374876394868" lon="-3.680738853290677">
        <ele>657.0</ele>
        <time>2021-05-22T09:46:51.116Z</time>
      </trkpt>
      <trkpt lat="40.14370685443282" lon="-3.680623769760132">
        <ele>656.7999877929688</ele>
        <time>2021-05-22T09:46:53.157Z</time>
      </trkpt>
      <trkpt lat="40.143697801977396" lon="-3.6805788427591324">
        <ele>656.7999877929688</ele>
        <time>2021-05-22T09:46:55.199Z</time>
      </trkpt>
      <trkpt lat="40.14369553886354" lon="-3.6802622582763433">
        <ele>656.5999755859375</ele>
        <time>2021-05-22T09:46:57.247Z</time>
      </trkpt>
      <trkpt lat="40.14369713142514" lon="-3.680197298526764">
        <ele>656.2000122070312</ele>
        <time>2021-05-22T09:46:59.297Z</time>
      </trkpt>
      <trkpt lat="40.14371959492564" lon="-3.6799279879778624">
        <ele>655.0</ele>
        <time>2021-05-22T09:47:01.352Z</time>
      </trkpt>
      <trkpt lat="40.143738789483905" lon="-3.679640991613269">
        <ele>653.7999877929688</ele>
        <time>2021-05-22T09:47:03.413Z</time>
      </trkpt>
      <trkpt lat="40.14376091770828" lon="-3.6794922966510057">
        <ele>653.0</ele>
        <time>2021-05-22T09:47:05.477Z</time>
      </trkpt>
      <trkpt lat="40.143780782818794" lon="-3.6794301867485046">
        <ele>652.5999755859375</ele>
        <time>2021-05-22T09:47:07.542Z</time>
      </trkpt>
      <trkpt lat="40.14387340284884" lon="-3.679341757670045">
        <ele>652.2000122070312</ele>
        <time>2021-05-22T09:47:09.610Z</time>
      </trkpt>
      <trkpt lat="40.14394858852029" lon="-3.6793747823685408">
        <ele>651.2000122070312</ele>
        <time>2021-05-22T09:47:11.680Z</time>
      </trkpt>
      <trkpt lat="40.14399703592062" lon="-3.6794347129762173">
        <ele>650.2000122070312</ele>
        <time>2021-05-22T09:47:13.752Z</time>
      </trkpt>
      <trkpt lat="40.14401698485017" lon="-3.679491374641657">
        <ele>649.2000122070312</ele>
        <time>2021-05-22T09:47:15.825Z</time>
      </trkpt>
      <trkpt lat="40.144017320126295" lon="-3.6795512214303017">
        <ele>648.5999755859375</ele>
        <time>2021-05-22T09:47:17.899Z</time>
      </trkpt>
      <trkpt lat="40.14401136897504" lon="-3.679740820080042">
        <ele>648.4000244140625</ele>
        <time>2021-05-22T09:47:19.977Z</time>
      </trkpt>
      <trkpt lat="40.14399711973965" lon="-3.6799590848386288">
        <ele>649.4000244140625</ele>
        <time>2021-05-22T09:47:22.059Z</time>
      </trkpt>
      <trkpt lat="40.143992928788066" lon="-3.6800499446690083">
        <ele>650.4000244140625</ele>
        <time>2021-05-22T09:47:24.143Z</time>
      </trkpt>
      <trkpt lat="40.14399074949324" lon="-3.6801438219845295">
        <ele>651.4000244140625</ele>
        <time>2021-05-22T09:47:26.229Z</time>
      </trkpt>
      <trkpt lat="40.14399552717805" lon="-3.6801992263644934">
        <ele>651.5999755859375</ele>
        <time>2021-05-22T09:47:28.316Z</time>
      </trkpt>
      <trkpt lat="40.14401304535568" lon="-3.6803738214075565">
        <ele>652.2000122070312</ele>
        <time>2021-05-22T09:47:30.407Z</time>
      </trkpt>
      <trkpt lat="40.14401447027922" lon="-3.6804015655070543">
        <ele>652.5999755859375</ele>
        <time>2021-05-22T09:47:32.498Z</time>
      </trkpt>
      <trkpt lat="40.144024612382054" lon="-3.680520337074995">
        <ele>653.5999755859375</ele>
        <time>2021-05-22T09:47:34.592Z</time>
      </trkpt>
      <trkpt lat="40.14404489658773" lon="-3.6806046590209007">
        <ele>654.2000122070312</ele>
        <time>2021-05-22T09:47:36.687Z</time>
      </trkpt>
      <trkpt lat="40.14405746944249" lon="-3.680693255737424">
        <ele>654.7999877929688</ele>
        <time>2021-05-22T09:47:38.784Z</time>
      </trkpt>
      <trkpt lat="40.14405529014766" lon="-3.680758299306035">
        <ele>655.0</ele>
        <time>2021-05-22T09:47:40.882Z</time>
      </trkpt>
      <trkpt lat="40.144073059782386" lon="-3.680922668427229">
        <ele>655.4000244140625</ele>
        <time>2021-05-22T09:47:42.984Z</time>
      </trkpt>
      <trkpt lat="40.14408504590392" lon="-3.6809970159083605">
        <ele>656.0</ele>
        <time>2021-05-22T09:47:45.087Z</time>
      </trkpt>
      <trkpt lat="40.14409074559808" lon="-3.681054934859276">
        <ele>656.5999755859375</ele>
        <time>2021-05-22T09:47:47.191Z</time>
      </trkpt>
      <trkpt lat="40.1441034860909" lon="-3.6811079923063517">
        <ele>657.2000122070312</ele>
        <time>2021-05-22T09:47:49.296Z</time>
      </trkpt>
      <trkpt lat="40.14412360265851" lon="-3.681183345615864">
        <ele>658.4000244140625</ele>
        <time>2021-05-22T09:47:51.403Z</time>
      </trkpt>
      <trkpt lat="40.144134163856506" lon="-3.681206312030554">
        <ele>658.5999755859375</ele>
        <time>2021-05-22T09:47:53.510Z</time>
      </trkpt>
      <trkpt lat="40.14417448081076" lon="-3.681273702532053">
        <ele>659.5999755859375</ele>
        <time>2021-05-22T09:47:55.619Z</time>
      </trkpt>
      <trkpt lat="40.144227957352996" lon="-3.6813488882035017">
        <ele>660.5999755859375</ele>
        <time>2021-05-22T09:47:57.730Z</time>
      </trkpt>
      <trkpt lat="40.14424723573029" lon="-3.681364059448242">
        <ele>660.7999877929688</ele>
        <time>2021-05-22T09:47:59.842Z</time>
      </trkpt>
      <trkpt lat="40.14434983022511" lon="-3.6814375687390566">
        <ele>661.5999755859375</ele>
        <time>2021-05-22T09:48:01.957Z</time>
      </trkpt>
      <trkpt lat="40.144374975934625" lon="-3.68144603446126">
        <ele>661.7999877929688</ele>
        <time>2021-05-22T09:48:04.072Z</time>
      </trkpt>
      <trkpt lat="40.144419400021434" lon="-3.6814591102302074">
        <ele>662.0</ele>
        <time>2021-05-22T09:48:06.189Z</time>
      </trkpt>
      <trkpt lat="40.14445041306317" lon="-3.6814399156719446">
        <ele>662.2000122070312</ele>
        <time>2021-05-22T09:48:08.307Z</time>
      </trkpt>
      <trkpt lat="40.14446122571826" lon="-3.681301698088646">
        <ele>662.4000244140625</ele>
        <time>2021-05-22T09:48:10.427Z</time>
      </trkpt>
      <trkpt lat="40.14446072280407" lon="-3.68121687322855">
        <ele>662.4000244140625</ele>
        <time>2021-05-22T09:48:12.549Z</time>
      </trkpt>
      <trkpt lat="40.14444739557803" lon="-3.6810490675270557">
        <ele>662.4000244140625</ele>
        <time>2021-05-22T09:48:14.674Z</time>
      </trkpt>
      <trkpt lat="40.14445007778704" lon="-3.6809848621487617">
        <ele>661.2000122070312</ele>
        <time>2021-05-22T09:48:16.801Z</time>
      </trkpt>
      <trkpt lat="40.14444278553128" lon="-3.680966841056943">
        <ele>660.7999877929688</ele>
        <time>2021-05-22T09:48:18.928Z</time>
      </trkpt>
      <trkpt lat="40.14443054795265" lon="-3.680952340364456">
        <ele>660.0</ele>
        <time>2021-05-22T09:48:21.055Z</time>
      </trkpt>
      <trkpt lat="40.14438847079873" lon="-3.680915292352438">
        <ele>659.5999755859375</ele>
        <time>2021-05-22T09:48:23.184Z</time>
      </trkpt>
      <trkpt lat="40.14434438198805" lon="-3.680817810818553">
        <ele>659.4000244140625</ele>
        <time>2021-05-22T09:48:25.315Z</time>
      </trkpt>
      <trkpt lat="40.14431521296501" lon="-3.6807113606482744">
        <ele>659.0</ele>
        <time>2021-05-22T09:48:27.448Z</time>
      </trkpt>
      <trkpt lat="40.14428596012294" lon="-3.680544225499034">
        <ele>658.5999755859375</ele>
        <time>2021-05-22T09:48:29.585Z</time>
      </trkpt>
      <trkpt lat="40.14427212998271" lon="-3.6804232746362686">
        <ele>658.0</ele>
        <time>2021-05-22T09:48:31.724Z</time>
      </trkpt>
      <trkpt lat="40.14427808113396" lon="-3.6802949476987123">
        <ele>657.2000122070312</ele>
        <time>2021-05-22T09:48:33.866Z</time>
      </trkpt>
      <trkpt lat="40.144289061427116" lon="-3.680231999605894">
        <ele>657.0</ele>
        <time>2021-05-22T09:48:36.009Z</time>
      </trkpt>
      <trkpt lat="40.144322756677866" lon="-3.680111300200224">
        <ele>656.2000122070312</ele>
        <time>2021-05-22T09:48:38.154Z</time>
      </trkpt>
      <trkpt lat="40.14437380246818" lon="-3.680020021274686">
        <ele>655.5999755859375</ele>
        <time>2021-05-22T09:48:40.302Z</time>
      </trkpt>
      <trkpt lat="40.14444982632995" lon="-3.679998144507408">
        <ele>655.0</ele>
        <time>2021-05-22T09:48:42.452Z</time>
      </trkpt>
      <trkpt lat="40.144486874341965" lon="-3.6800101306289434">
        <ele>654.5999755859375</ele>
        <time>2021-05-22T09:48:44.603Z</time>
      </trkpt>
      <trkpt lat="40.14454177580774" lon="-3.6800669599324465">
        <ele>653.5999755859375</ele>
        <time>2021-05-22T09:48:46.755Z</time>
      </trkpt>
      <trkpt lat="40.144564155489206" lon="-3.680142480880022">
        <ele>653.0</ele>
        <time>2021-05-22T09:48:48.909Z</time>
      </trkpt>
      <trkpt lat="40.14458234421909" lon="-3.680252283811569">
        <ele>652.7999877929688</ele>
        <time>2021-05-22T09:48:51.065Z</time>
      </trkpt>
      <trkpt lat="40.1446127705276" lon="-3.680346831679344">
        <ele>652.7999877929688</ele>
        <time>2021-05-22T09:48:53.223Z</time>
      </trkpt>
      <trkpt lat="40.14471863396466" lon="-3.6805133800953627">
        <ele>654.2000122070312</ele>
        <time>2021-05-22T09:48:55.386Z</time>
      </trkpt>
      <trkpt lat="40.14473372139037" lon="-3.680534167215228">
        <ele>654.5999755859375</ele>
        <time>2021-05-22T09:48:57.549Z</time>
      </trkpt>
      <trkpt lat="40.14478225260973" lon="-3.680623434484005">
        <ele>655.5999755859375</ele>
        <time>2021-05-22T09:48:59.714Z</time>
      </trkpt>
      <trkpt lat="40.14479449018836" lon="-3.6806447245180607">
        <ele>655.7999877929688</ele>
        <time>2021-05-22T09:49:01.880Z</time>
      </trkpt>
      <trkpt lat="40.14483002945781" lon="-3.6807142104953527">
        <ele>656.5999755859375</ele>
        <time>2021-05-22T09:49:04.047Z</time>
      </trkpt>
      <trkpt lat="40.14486053958535" lon="-3.6808102671056986">
        <ele>657.4000244140625</ele>
        <time>2021-05-22T09:49:06.216Z</time>
      </trkpt>
      <trkpt lat="40.14486523345113" lon="-3.6808353289961815">
        <ele>657.5999755859375</ele>
        <time>2021-05-22T09:49:08.386Z</time>
      </trkpt>
      <trkpt lat="40.14489322900772" lon="-3.6809820123016834">
        <ele>658.5999755859375</ele>
        <time>2021-05-22T09:49:10.559Z</time>
      </trkpt>
      <trkpt lat="40.144898341968656" lon="-3.6810070741921663">
        <ele>659.2000122070312</ele>
        <time>2021-05-22T09:49:12.733Z</time>
      </trkpt>
      <trkpt lat="40.14491125009954" lon="-3.6810599640011787">
        <ele>659.5999755859375</ele>
        <time>2021-05-22T09:49:14.908Z</time>
      </trkpt>
      <trkpt lat="40.14492876827717" lon="-3.6811654083430767">
        <ele>660.7999877929688</ele>
        <time>2021-05-22T09:49:17.085Z</time>
      </trkpt>
      <trkpt lat="40.14492935501039" lon="-3.6811917275190353">
        <ele>661.2000122070312</ele>
        <time>2021-05-22T09:49:19.262Z</time>
      </trkpt>
      <trkpt lat="40.144942263141274" lon="-3.681266577914357">
        <ele>662.0</ele>
        <time>2021-05-22T09:49:21.441Z</time>
      </trkpt>
      <trkpt lat="40.14496983960271" lon="-3.681383840739727">
        <ele>663.2000122070312</ele>
        <time>2021-05-22T09:49:23.622Z</time>
      </trkpt>
      <trkpt lat="40.14497914351523" lon="-3.6814287677407265">
        <ele>663.5999755859375</ele>
        <time>2021-05-22T09:49:25.804Z</time>
      </trkpt>
      <trkpt lat="40.14500110410154" lon="-3.6815135926008224">
        <ele>664.4000244140625</ele>
        <time>2021-05-22T09:49:27.988Z</time>
      </trkpt>
      <trkpt lat="40.145004289224744" lon="-3.681578803807497">
        <ele>665.2000122070312</ele>
        <time>2021-05-22T09:49:30.173Z</time>
      </trkpt>
      <trkpt lat="40.145005295053124" lon="-3.681602021679282">
        <ele>665.5999755859375</ele>
        <time>2021-05-22T09:49:32.359Z</time>
      </trkpt>
      <trkpt lat="40.14501795172691" lon="-3.6816900316625834">
        <ele>666.7999877929688</ele>
        <time>2021-05-22T09:49:34.546Z</time>
      </trkpt>
      <trkpt lat="40.145028261467814" lon="-3.6817523930221796">
        <ele>667.2000122070312</ele>
        <time>2021-05-22T09:49:36.735Z</time>
      </trkpt>
      <trkpt lat="40.145044857636094" lon="-3.6817959789186716">
        <ele>667.7999877929688</ele>
        <time>2021-05-22T09:49:38.925Z</time>
      </trkpt>
      <trkpt lat="40.1450757868588" lon="-3.6818595975637436">
        <ele>668.7999877929688</ele>
        <time>2021-05-22T09:49:41.116Z</time>
      </trkpt>
      <trkpt lat="40.14508944936097" lon="-3.681877786293626">
        <ele>669.2000122070312</ele>
        <time>2021-05-22T09:49:43.308Z</time>
      </trkpt>
      <trkpt lat="40.1451706700027" lon="-3.6819394771009684">
        <ele>670.0</ele>
        <time>2021-05-22T09:49:45.502Z</time>
      </trkpt>
      <trkpt lat="40.145222721621394" lon="-3.6819665506482124">
        <ele>670.5999755859375</ele>
        <time>2021-05-22T09:49:47.698Z</time>
      </trkpt>
      <trkpt lat="40.14525717124343" lon="-3.681981973350048">
        <ele>671.2000122070312</ele>
        <time>2021-05-22T09:49:49.894Z</time>
      </trkpt>
      <trkpt lat="40.14530846849084" lon="-3.681990774348378">
        <ele>672.2000122070312</ele>
        <time>2021-05-22T09:49:52.092Z</time>
      </trkpt>
      <trkpt lat="40.14534182846546" lon="-3.681995216757059">
        <ele>672.7999877929688</ele>
        <time>2021-05-22T09:49:54.291Z</time>
      </trkpt>
      <trkpt lat="40.14543226920068" lon="-3.681923719123006">
        <ele>673.0</ele>
        <time>2021-05-22T09:49:56.492Z</time>
      </trkpt>
      <trkpt lat="40.1454970613122" lon="-3.6817308515310287">
        <ele>673.0</ele>
        <time>2021-05-22T09:49:58.698Z</time>
      </trkpt>
      <trkpt lat="40.14554408378899" lon="-3.68150663562119">
        <ele>672.7999877929688</ele>
        <time>2021-05-22T09:50:00.908Z</time>
      </trkpt>
      <trkpt lat="40.145537881180644" lon="-3.6814523208886385">
        <ele>672.7999877929688</ele>
        <time>2021-05-22T09:50:03.119Z</time>
      </trkpt>
      <trkpt lat="40.145484153181314" lon="-3.6812700983136892">
        <ele>671.7999877929688</ele>
        <time>2021-05-22T09:50:05.334Z</time>
      </trkpt>
      <trkpt lat="40.145418187603354" lon="-3.6811460461467505">
        <ele>671.2000122070312</ele>
        <time>2021-05-22T09:50:07.552Z</time>
      </trkpt>
      <trkpt lat="40.145315593108535" lon="-3.6809457186609507">
        <ele>670.5999755859375</ele>
        <time>2021-05-22T09:50:09.775Z</time>
      </trkpt>
      <trkpt lat="40.14528005383909" lon="-3.6808801721781492">
        <ele>670.0</ele>
        <time>2021-05-22T09:50:11.999Z</time>
      </trkpt>
      <trkpt lat="40.14516815543175" lon="-3.6806871369481087">
        <ele>668.5999755859375</ele>
        <time>2021-05-22T09:50:14.228Z</time>
      </trkpt>
      <trkpt lat="40.14507595449686" lon="-3.6805820278823376">
        <ele>666.7999877929688</ele>
        <time>2021-05-22T09:50:16.460Z</time>
      </trkpt>
      <trkpt lat="40.14502750709653" lon="-3.680535424500704">
        <ele>666.0</ele>
        <time>2021-05-22T09:50:18.694Z</time>
      </trkpt>
      <trkpt lat="40.14498366974294" lon="-3.680497035384178">
        <ele>665.4000244140625</ele>
        <time>2021-05-22T09:50:20.929Z</time>
      </trkpt>
      <trkpt lat="40.14490035362542" lon="-3.6804102826863527">
        <ele>663.4000244140625</ele>
        <time>2021-05-22T09:50:23.167Z</time>
      </trkpt>
      <trkpt lat="40.14482583850622" lon="-3.6802860628813505">
        <ele>661.7999877929688</ele>
        <time>2021-05-22T09:50:25.408Z</time>
      </trkpt>
      <trkpt lat="40.14479356817901" lon="-3.6801309138536453">
        <ele>660.4000244140625</ele>
        <time>2021-05-22T09:50:27.652Z</time>
      </trkpt>
      <trkpt lat="40.14479356817901" lon="-3.679957492277026">
        <ele>659.0</ele>
        <time>2021-05-22T09:50:29.900Z</time>
      </trkpt>
      <trkpt lat="40.14478920958936" lon="-3.6797748506069183">
        <ele>657.4000244140625</ele>
        <time>2021-05-22T09:50:32.151Z</time>
      </trkpt>
      <trkpt lat="40.1447457075119" lon="-3.6795989982783794">
        <ele>655.7999877929688</ele>
        <time>2021-05-22T09:50:34.406Z</time>
      </trkpt>
      <trkpt lat="40.14467437751591" lon="-3.6794322822242975">
        <ele>654.5999755859375</ele>
        <time>2021-05-22T09:50:36.665Z</time>
      </trkpt>
      <trkpt lat="40.144636407494545" lon="-3.679350558668375">
        <ele>654.0</ele>
        <time>2021-05-22T09:50:38.926Z</time>
      </trkpt>
      <trkpt lat="40.14458469115198" lon="-3.679207479581237">
        <ele>653.4000244140625</ele>
        <time>2021-05-22T09:50:41.190Z</time>
      </trkpt>
      <trkpt lat="40.144579242914915" lon="-3.6791498120874166">
        <ele>653.2000122070312</ele>
        <time>2021-05-22T09:50:43.455Z</time>
      </trkpt>
      <trkpt lat="40.14466742053628" lon="-3.679048977792263">
        <ele>652.5999755859375</ele>
        <time>2021-05-22T09:50:45.723Z</time>
      </trkpt>
      <trkpt lat="40.144705306738615" lon="-3.6790388356894255">
        <ele>652.0</ele>
        <time>2021-05-22T09:50:47.992Z</time>
      </trkpt>
      <trkpt lat="40.14480186626315" lon="-3.6790671665221453">
        <ele>650.7999877929688</ele>
        <time>2021-05-22T09:50:50.264Z</time>
      </trkpt>
      <trkpt lat="40.14486573636532" lon="-3.679208317771554">
        <ele>650.5999755859375</ele>
        <time>2021-05-22T09:50:52.539Z</time>
      </trkpt>
      <trkpt lat="40.144896330311894" lon="-3.679397916421294">
        <ele>650.7999877929688</ele>
        <time>2021-05-22T09:50:54.818Z</time>
      </trkpt>
      <trkpt lat="40.14496305026114" lon="-3.6796750221401453">
        <ele>651.4000244140625</ele>
        <time>2021-05-22T09:50:57.102Z</time>
      </trkpt>
      <trkpt lat="40.14499632641673" lon="-3.6797859985381365">
        <ele>652.2000122070312</ele>
        <time>2021-05-22T09:50:59.389Z</time>
      </trkpt>
      <trkpt lat="40.14502180740237" lon="-3.6798897664994">
        <ele>652.4000244140625</ele>
        <time>2021-05-22T09:51:01.678Z</time>
      </trkpt>
      <trkpt lat="40.14508752152324" lon="-3.68000166490674">
        <ele>653.2000122070312</ele>
        <time>2021-05-22T09:51:03.970Z</time>
      </trkpt>
      <trkpt lat="40.14512834139168" lon="-3.6800498608499765">
        <ele>654.0</ele>
        <time>2021-05-22T09:51:06.263Z</time>
      </trkpt>
      <trkpt lat="40.1451497990638" lon="-3.680072408169508">
        <ele>654.2000122070312</ele>
        <time>2021-05-22T09:51:08.557Z</time>
      </trkpt>
      <trkpt lat="40.14525784179568" lon="-3.6801326740533113">
        <ele>655.0</ele>
        <time>2021-05-22T09:51:10.854Z</time>
      </trkpt>
      <trkpt lat="40.145285837352276" lon="-3.68014482781291">
        <ele>655.5999755859375</ele>
        <time>2021-05-22T09:51:13.152Z</time>
      </trkpt>
      <trkpt lat="40.145337637513876" lon="-3.68017022497952">
        <ele>656.7999877929688</ele>
        <time>2021-05-22T09:51:15.451Z</time>
      </trkpt>
      <trkpt lat="40.145412320271134" lon="-3.680209284648299">
        <ele>657.7999877929688</ele>
        <time>2021-05-22T09:51:17.752Z</time>
      </trkpt>
      <trkpt lat="40.14543947763741" lon="-3.680220264941454">
        <ele>658.0</ele>
        <time>2021-05-22T09:51:20.054Z</time>
      </trkpt>
      <trkpt lat="40.14554986730218" lon="-3.6802336759865284">
        <ele>659.0</ele>
        <time>2021-05-22T09:51:22.359Z</time>
      </trkpt>
      <trkpt lat="40.14558071270585" lon="-3.680230574682355">
        <ele>659.4000244140625</ele>
        <time>2021-05-22T09:51:24.664Z</time>
      </trkpt>
      <trkpt lat="40.14577207155526" lon="-3.6801795288920403">
        <ele>660.0</ele>
        <time>2021-05-22T09:51:26.975Z</time>
      </trkpt>
      <trkpt lat="40.145985055714846" lon="-3.6801564786583185">
        <ele>660.0</ele>
        <time>2021-05-22T09:51:29.291Z</time>
      </trkpt>
      <trkpt lat="40.146100809797645" lon="-3.6801577359437943">
        <ele>660.2000122070312</ele>
        <time>2021-05-22T09:51:31.610Z</time>
      </trkpt>
      <trkpt lat="40.14612595550716" lon="-3.6801752541214228">
        <ele>660.5999755859375</ele>
        <time>2021-05-22T09:51:33.930Z</time>
      </trkpt>
      <trkpt lat="40.14619250781834" lon="-3.6802330892533064">
        <ele>661.4000244140625</ele>
        <time>2021-05-22T09:51:36.252Z</time>
      </trkpt>
      <trkpt lat="40.14621966518462" lon="-3.6802386213093996">
        <ele>661.5999755859375</ele>
        <time>2021-05-22T09:51:38.575Z</time>
      </trkpt>
      <trkpt lat="40.14628822915256" lon="-3.6801605857908726">
        <ele>662.5999755859375</ele>
        <time>2021-05-22T09:51:40.900Z</time>
      </trkpt>
      <trkpt lat="40.14627389609814" lon="-3.680027900263667">
        <ele>663.2000122070312</ele>
        <time>2021-05-22T09:51:43.228Z</time>
      </trkpt>
      <trkpt lat="40.146267022937536" lon="-3.6799724120646715">
        <ele>663.4000244140625</ele>
        <time>2021-05-22T09:51:45.557Z</time>
      </trkpt>
      <trkpt lat="40.146196112036705" lon="-3.6796390637755394">
        <ele>663.4000244140625</ele>
        <time>2021-05-22T09:51:47.892Z</time>
      </trkpt>
      <trkpt lat="40.146145736798644" lon="-3.679474275559187">
        <ele>663.4000244140625</ele>
        <time>2021-05-22T09:51:50.231Z</time>
      </trkpt>
      <trkpt lat="40.146063175052404" lon="-3.67929900996387">
        <ele>663.0</ele>
        <time>2021-05-22T09:51:52.574Z</time>
      </trkpt>
      <trkpt lat="40.145881455391645" lon="-3.678945377469063">
        <ele>661.2000122070312</ele>
        <time>2021-05-22T09:51:54.925Z</time>
      </trkpt>
      <trkpt lat="40.14585563912988" lon="-3.6788459680974483">
        <ele>660.5999755859375</ele>
        <time>2021-05-22T09:51:57.279Z</time>
      </trkpt>
      <trkpt lat="40.14583803713322" lon="-3.6787413619458675">
        <ele>659.5999755859375</ele>
        <time>2021-05-22T09:51:59.635Z</time>
      </trkpt>
      <trkpt lat="40.1458284817636" lon="-3.678630217909813">
        <ele>658.4000244140625</ele>
        <time>2021-05-22T09:52:01.993Z</time>
      </trkpt>
      <trkpt lat="40.145826889202" lon="-3.6785179004073143">
        <ele>657.4000244140625</ele>
        <time>2021-05-22T09:52:04.353Z</time>
      </trkpt>
      <trkpt lat="40.145834097638726" lon="-3.678406337276101">
        <ele>656.4000244140625</ele>
        <time>2021-05-22T09:52:06.715Z</time>
      </trkpt>
      <trkpt lat="40.145843317732215" lon="-3.6783002223819494">
        <ele>655.0</ele>
        <time>2021-05-22T09:52:09.079Z</time>
      </trkpt>
      <trkpt lat="40.14584734104574" lon="-3.6782001424580812">
        <ele>654.5999755859375</ele>
        <time>2021-05-22T09:52:11.445Z</time>
      </trkpt>
      <trkpt lat="40.145850107073784" lon="-3.678108025342226">
        <ele>653.7999877929688</ele>
        <time>2021-05-22T09:52:13.813Z</time>
      </trkpt>
      <trkpt lat="40.145861338824034" lon="-3.678021188825369">
        <ele>653.4000244140625</ele>
        <time>2021-05-22T09:52:16.183Z</time>
      </trkpt>
      <trkpt lat="40.14588992111385" lon="-3.6779439076781273">
        <ele>652.7999877929688</ele>
        <time>2021-05-22T09:52:18.555Z</time>
      </trkpt>
      <trkpt lat="40.145991928875446" lon="-3.677850617095828">
        <ele>651.4000244140625</ele>
        <time>2021-05-22T09:52:20.930Z</time>
      </trkpt>
      <trkpt lat="40.14609611593187" lon="-3.677843241021037">
        <ele>650.2000122070312</ele>
        <time>2021-05-22T09:52:23.308Z</time>
      </trkpt>
      <trkpt lat="40.1461392827332" lon="-3.6778481025248766">
        <ele>649.5999755859375</ele>
        <time>2021-05-22T09:52:25.687Z</time>
      </trkpt>
      <trkpt lat="40.14617859385908" lon="-3.6778505332767963">
        <ele>649.0</ele>
        <time>2021-05-22T09:52:28.067Z</time>
      </trkpt>
      <trkpt lat="40.14635377563536" lon="-3.677850365638733">
        <ele>648.5999755859375</ele>
        <time>2021-05-22T09:52:30.451Z</time>
      </trkpt>
      <trkpt lat="40.14653557911515" lon="-3.6777671333402395">
        <ele>649.2000122070312</ele>
        <time>2021-05-22T09:52:32.840Z</time>
      </trkpt>
      <trkpt lat="40.14660783112049" lon="-3.6777571588754654">
        <ele>650.2000122070312</ele>
        <time>2021-05-22T09:52:35.231Z</time>
      </trkpt>
      <trkpt lat="40.14664680697024" lon="-3.67776813916862">
        <ele>651.2000122070312</ele>
        <time>2021-05-22T09:52:37.623Z</time>
      </trkpt>
      <trkpt lat="40.14668301679194" lon="-3.677790518850088">
        <ele>651.7999877929688</ele>
        <time>2021-05-22T09:52:40.016Z</time>
      </trkpt>
      <trkpt lat="40.14680664986372" lon="-3.677979866042733">
        <ele>652.5999755859375</ele>
        <time>2021-05-22T09:52:42.414Z</time>
      </trkpt>
      <trkpt lat="40.146917877718806" lon="-3.6781848035752773">
        <ele>652.4000244140625</ele>
        <time>2021-05-22T09:52:44.817Z</time>
      </trkpt>
      <trkpt lat="40.14701921492815" lon="-3.6783820297569036">
        <ele>651.7999877929688</ele>
        <time>2021-05-22T09:52:47.225Z</time>
      </trkpt>
      <trkpt lat="40.147109907120466" lon="-3.6786297149956226">
        <ele>652.2000122070312</ele>
        <time>2021-05-22T09:52:49.638Z</time>
      </trkpt>
      <trkpt lat="40.14718861319125" lon="-3.678713282570243">
        <ele>652.7999877929688</ele>
        <time>2021-05-22T09:52:52.054Z</time>
      </trkpt>
      <trkpt lat="40.14727151021361" lon="-3.6787898931652308">
        <ele>653.2000122070312</ele>
        <time>2021-05-22T09:52:54.472Z</time>
      </trkpt>
      <trkpt lat="40.147348791360855" lon="-3.6789203993976116">
        <ele>654.0</ele>
        <time>2021-05-22T09:52:56.894Z</time>
      </trkpt>
      <trkpt lat="40.147355161607265" lon="-3.6789583694189787">
        <ele>654.2000122070312</ele>
        <time>2021-05-22T09:52:59.316Z</time>
      </trkpt>
      <trkpt lat="40.14733789488673" lon="-3.6791719403117895">
        <ele>655.0</ele>
        <time>2021-05-22T09:53:01.743Z</time>
      </trkpt>
      <trkpt lat="40.147330183535814" lon="-3.6792019475251436">
        <ele>655.0</ele>
        <time>2021-05-22T09:53:04.170Z</time>
      </trkpt>
      <trkpt lat="40.147291123867035" lon="-3.679353827610612">
        <ele>656.0</ele>
        <time>2021-05-22T09:53:06.600Z</time>
      </trkpt>
      <trkpt lat="40.14728307723999" lon="-3.679376794025302">
        <ele>656.2000122070312</ele>
        <time>2021-05-22T09:53:09.031Z</time>
      </trkpt>
      <trkpt lat="40.14724946580827" lon="-3.679471593350172">
        <ele>657.4000244140625</ele>
        <time>2021-05-22T09:53:11.464Z</time>
      </trkpt>
      <trkpt lat="40.14722188934684" lon="-3.679566476494074">
        <ele>658.2000122070312</ele>
        <time>2021-05-22T09:53:13.899Z</time>
      </trkpt>
      <trkpt lat="40.14721551910043" lon="-3.679589442908764">
        <ele>658.4000244140625</ele>
        <time>2021-05-22T09:53:16.335Z</time>
      </trkpt>
      <trkpt lat="40.14718324877322" lon="-3.6797270737588406">
        <ele>660.0</ele>
        <time>2021-05-22T09:53:18.773Z</time>
      </trkpt>
      <trkpt lat="40.14717796817422" lon="-3.6797488667070866">
        <ele>660.2000122070312</ele>
        <time>2021-05-22T09:53:21.212Z</time>
      </trkpt>
      <trkpt lat="40.14715910889208" lon="-3.6798145808279514">
        <ele>661.2000122070312</ele>
        <time>2021-05-22T09:53:23.652Z</time>
      </trkpt>
      <trkpt lat="40.14714519493282" lon="-3.679900076240301">
        <ele>662.0</ele>
        <time>2021-05-22T09:53:26.094Z</time>
      </trkpt>
      <trkpt lat="40.1471409201622" lon="-3.679922204464674">
        <ele>662.5999755859375</ele>
        <time>2021-05-22T09:53:28.536Z</time>
      </trkpt>
      <trkpt lat="40.147113259881735" lon="-3.6800277326256037">
        <ele>663.7999877929688</ele>
        <time>2021-05-22T09:53:30.981Z</time>
      </trkpt>
      <trkpt lat="40.147105380892754" lon="-3.6800478491932154">
        <ele>664.0</ele>
        <time>2021-05-22T09:53:33.426Z</time>
      </trkpt>
      <trkpt lat="40.14707646332681" lon="-3.680103002116084">
        <ele>664.7999877929688</ele>
        <time>2021-05-22T09:53:35.872Z</time>
      </trkpt>
      <trkpt lat="40.1470185443759" lon="-3.6801786068826914">
        <ele>666.0</ele>
        <time>2021-05-22T09:53:38.320Z</time>
      </trkpt>
      <trkpt lat="40.14695375226438" lon="-3.6802413035184145">
        <ele>667.2000122070312</ele>
        <time>2021-05-22T09:53:40.771Z</time>
      </trkpt>
      <trkpt lat="40.14690287411213" lon="-3.680290672928095">
        <ele>668.0</ele>
        <time>2021-05-22T09:53:43.223Z</time>
      </trkpt>
      <trkpt lat="40.146882589906454" lon="-3.680322440341115">
        <ele>668.4000244140625</ele>
        <time>2021-05-22T09:53:45.676Z</time>
      </trkpt>
      <trkpt lat="40.14685509726405" lon="-3.6804335843771696">
        <ele>669.5999755859375</ele>
        <time>2021-05-22T09:53:48.131Z</time>
      </trkpt>
      <trkpt lat="40.14689994044602" lon="-3.6805516853928566">
        <ele>670.5999755859375</ele>
        <time>2021-05-22T09:53:50.589Z</time>
      </trkpt>
      <trkpt lat="40.14701720327139" lon="-3.6806124541908503">
        <ele>671.5999755859375</ele>
        <time>2021-05-22T09:53:53.050Z</time>
      </trkpt>
      <trkpt lat="40.14720940031111" lon="-3.6806566268205643">
        <ele>672.2000122070312</ele>
        <time>2021-05-22T09:53:55.516Z</time>
      </trkpt>
      <trkpt lat="40.14745934866369" lon="-3.6807016376405954">
        <ele>672.2000122070312</ele>
        <time>2021-05-22T09:53:57.989Z</time>
      </trkpt>
      <trkpt lat="40.14755565673113" lon="-3.68068621493876">
        <ele>671.7999877929688</ele>
        <time>2021-05-22T09:54:00.464Z</time>
      </trkpt>
      <trkpt lat="40.14771885238588" lon="-3.6805931758135557">
        <ele>671.2000122070312</ele>
        <time>2021-05-22T09:54:02.944Z</time>
      </trkpt>
      <trkpt lat="40.1477730832994" lon="-3.680532407015562">
        <ele>671.0</ele>
        <time>2021-05-22T09:54:05.426Z</time>
      </trkpt>
      <trkpt lat="40.14781231060624" lon="-3.68045118637383">
        <ele>671.0</ele>
        <time>2021-05-22T09:54:07.910Z</time>
      </trkpt>
      <trkpt lat="40.14783116988838" lon="-3.680393183603883">
        <ele>671.0</ele>
        <time>2021-05-22T09:54:10.395Z</time>
      </trkpt>
      <trkpt lat="40.14784634113312" lon="-3.680325960740447">
        <ele>670.7999877929688</ele>
        <time>2021-05-22T09:54:12.881Z</time>
      </trkpt>
      <trkpt lat="40.147877521812916" lon="-3.680116832256317">
        <ele>670.7999877929688</ele>
        <time>2021-05-22T09:54:15.371Z</time>
      </trkpt>
      <trkpt lat="40.14788489788771" lon="-3.679834697395563">
        <ele>670.5999755859375</ele>
        <time>2021-05-22T09:54:17.867Z</time>
      </trkpt>
      <trkpt lat="40.14785732142627" lon="-3.679705783724785">
        <ele>669.4000244140625</ele>
        <time>2021-05-22T09:54:20.366Z</time>
      </trkpt>
      <trkpt lat="40.14785774052143" lon="-3.6795933824032545">
        <ele>668.2000122070312</ele>
        <time>2021-05-22T09:54:22.867Z</time>
      </trkpt>
      <trkpt lat="40.14790962450206" lon="-3.679514843970537">
        <ele>666.7999877929688</ele>
        <time>2021-05-22T09:54:25.370Z</time>
      </trkpt>
      <trkpt lat="40.14795731753111" lon="-3.679492799565196">
        <ele>665.7999877929688</ele>
        <time>2021-05-22T09:54:27.874Z</time>
      </trkpt>
      <trkpt lat="40.148011296987534" lon="-3.679490704089403">
        <ele>664.0</ele>
        <time>2021-05-22T09:54:30.380Z</time>
      </trkpt>
      <trkpt lat="40.14806158840656" lon="-3.679510233923793">
        <ele>663.2000122070312</ele>
        <time>2021-05-22T09:54:32.887Z</time>
      </trkpt>
      <trkpt lat="40.148102240636945" lon="-3.6795339547097683">
        <ele>662.5999755859375</ele>
        <time>2021-05-22T09:54:35.395Z</time>
      </trkpt>
      <trkpt lat="40.14813870191574" lon="-3.679556166753173">
        <ele>662.2000122070312</ele>
        <time>2021-05-22T09:54:37.904Z</time>
      </trkpt>
      <trkpt lat="40.148208271712065" lon="-3.6795789655297995">
        <ele>661.5999755859375</ele>
        <time>2021-05-22T09:54:40.415Z</time>
      </trkpt>
      <trkpt lat="40.148240039125085" lon="-3.6795712541788816">
        <ele>661.2000122070312</ele>
        <time>2021-05-22T09:54:42.927Z</time>
      </trkpt>
      <trkpt lat="40.14829116873443" lon="-3.67951937019825">
        <ele>661.0</ele>
        <time>2021-05-22T09:54:45.440Z</time>
      </trkpt>
      <trkpt lat="40.14830860309303" lon="-3.6793754529207945">
        <ele>661.0</ele>
        <time>2021-05-22T09:54:47.956Z</time>
      </trkpt>
      <trkpt lat="40.148202488198876" lon="-3.6791654862463474">
        <ele>660.7999877929688</ele>
        <time>2021-05-22T09:54:50.477Z</time>
      </trkpt>
      <trkpt lat="40.14814683236182" lon="-3.6790078226476908">
        <ele>660.5999755859375</ele>
        <time>2021-05-22T09:54:53.002Z</time>
      </trkpt>
      <trkpt lat="40.14811749570072" lon="-3.6789130233228207">
        <ele>660.5999755859375</ele>
        <time>2021-05-22T09:54:55.529Z</time>
      </trkpt>
      <trkpt lat="40.14802202582359" lon="-3.678589565679431">
        <ele>660.4000244140625</ele>
        <time>2021-05-22T09:54:58.063Z</time>
      </trkpt>
      <trkpt lat="40.14797215349972" lon="-3.6784962750971317">
        <ele>660.4000244140625</ele>
        <time>2021-05-22T09:55:00.599Z</time>
      </trkpt>
      <trkpt lat="40.14778548851609" lon="-3.67824112996459">
        <ele>660.0</ele>
        <time>2021-05-22T09:55:03.142Z</time>
      </trkpt>
      <trkpt lat="40.1476779486984" lon="-3.6780531238764524">
        <ele>658.7999877929688</ele>
        <time>2021-05-22T09:55:05.690Z</time>
      </trkpt>
      <trkpt lat="40.147616006433964" lon="-3.6779720708727837">
        <ele>657.7999877929688</ele>
        <time>2021-05-22T09:55:08.240Z</time>
      </trkpt>
      <trkpt lat="40.14754350297153" lon="-3.6778934486210346">
        <ele>655.7999877929688</ele>
        <time>2021-05-22T09:55:10.792Z</time>
      </trkpt>
      <trkpt lat="40.147401010617614" lon="-3.6777208652347326">
        <ele>654.0</ele>
        <time>2021-05-22T09:55:13.349Z</time>
      </trkpt>
      <trkpt lat="40.14734476804733" lon="-3.677643584087491">
        <ele>653.4000244140625</ele>
        <time>2021-05-22T09:55:15.908Z</time>
      </trkpt>
      <trkpt lat="40.147304367274046" lon="-3.6775712482631207">
        <ele>653.4000244140625</ele>
        <time>2021-05-22T09:55:18.469Z</time>
      </trkpt>
      <trkpt lat="40.14728173613548" lon="-3.6774202901870012">
        <ele>653.0</ele>
        <time>2021-05-22T09:55:21.033Z</time>
      </trkpt>
      <trkpt lat="40.14729036949575" lon="-3.677342841401696">
        <ele>652.5999755859375</ele>
        <time>2021-05-22T09:55:23.599Z</time>
      </trkpt>
      <trkpt lat="40.14730445109308" lon="-3.6772714275866747">
        <ele>652.0</ele>
        <time>2021-05-22T09:55:26.166Z</time>
      </trkpt>
      <trkpt lat="40.147367315366864" lon="-3.6771493032574654">
        <ele>650.2000122070312</ele>
        <time>2021-05-22T09:55:28.736Z</time>
      </trkpt>
      <trkpt lat="40.14746127650142" lon="-3.6770742014050484">
        <ele>649.0</ele>
        <time>2021-05-22T09:55:31.309Z</time>
      </trkpt>
      <trkpt lat="40.147510059177876" lon="-3.677051905542612">
        <ele>648.2000122070312</ele>
        <time>2021-05-22T09:55:33.883Z</time>
      </trkpt>
      <trkpt lat="40.147557500749826" lon="-3.6770344711840153">
        <ele>647.5999755859375</ele>
        <time>2021-05-22T09:55:36.459Z</time>
      </trkpt>
      <trkpt lat="40.14760150574148" lon="-3.6770167853683233">
        <ele>647.5999755859375</ele>
        <time>2021-05-22T09:55:39.036Z</time>
      </trkpt>
      <trkpt lat="40.14777182601392" lon="-3.676946796476841">
        <ele>647.2000122070312</ele>
        <time>2021-05-22T09:55:41.617Z</time>
      </trkpt>
      <trkpt lat="40.14795589260757" lon="-3.6768830101937056">
        <ele>647.4000244140625</ele>
        <time>2021-05-22T09:55:44.203Z</time>
      </trkpt>
      <trkpt lat="40.148047087714076" lon="-3.6768886260688305">
        <ele>647.5999755859375</ele>
        <time>2021-05-22T09:55:46.792Z</time>
      </trkpt>
      <trkpt lat="40.14822671189904" lon="-3.676903797313571">
        <ele>648.0</ele>
        <time>2021-05-22T09:55:49.385Z</time>
      </trkpt>
      <trkpt lat="40.148318158462644" lon="-3.6768613010644913">
        <ele>648.2000122070312</ele>
        <time>2021-05-22T09:55:51.981Z</time>
      </trkpt>
      <trkpt lat="40.14840164221823" lon="-3.6768090818077326">
        <ele>648.5999755859375</ele>
        <time>2021-05-22T09:55:54.579Z</time>
      </trkpt>
      <trkpt lat="40.14843525364995" lon="-3.6767711956053972">
        <ele>649.0</ele>
        <time>2021-05-22T09:55:57.178Z</time>
      </trkpt>
      <trkpt lat="40.14846257865429" lon="-3.6767278611660004">
        <ele>649.5999755859375</ele>
        <time>2021-05-22T09:55:59.778Z</time>
      </trkpt>
      <trkpt lat="40.1485104393214" lon="-3.6764925811439753">
        <ele>650.2000122070312</ele>
        <time>2021-05-22T09:56:02.383Z</time>
      </trkpt>
      <trkpt lat="40.14862493611872" lon="-3.67631739936769">
        <ele>650.2000122070312</ele>
        <time>2021-05-22T09:56:04.993Z</time>
      </trkpt>
      <trkpt lat="40.14879819005728" lon="-3.6761941015720367">
        <ele>650.2000122070312</ele>
        <time>2021-05-22T09:56:07.608Z</time>
      </trkpt>
      <trkpt lat="40.14890514314175" lon="-3.6761304829269648">
        <ele>650.0</ele>
        <time>2021-05-22T09:56:10.226Z</time>
      </trkpt>
      <trkpt lat="40.148989045992494" lon="-3.6760627571493387">
        <ele>649.4000244140625</ele>
        <time>2021-05-22T09:56:12.846Z</time>
      </trkpt>
      <trkpt lat="40.14902265742421" lon="-3.676016489043832">
        <ele>649.0</ele>
        <time>2021-05-22T09:56:15.468Z</time>
      </trkpt>
      <trkpt lat="40.149044869467616" lon="-3.675955720245838">
        <ele>648.5999755859375</ele>
        <time>2021-05-22T09:56:18.091Z</time>
      </trkpt>
      <trkpt lat="40.14907789416611" lon="-3.6758177541196346">
        <ele>648.2000122070312</ele>
        <time>2021-05-22T09:56:20.717Z</time>
      </trkpt>
      <trkpt lat="40.14915400184691" lon="-3.6757082026451826">
        <ele>648.0</ele>
        <time>2021-05-22T09:56:23.346Z</time>
      </trkpt>
      <trkpt lat="40.14920881949365" lon="-3.675675932317972">
        <ele>647.7999877929688</ele>
        <time>2021-05-22T09:56:25.976Z</time>
      </trkpt>
      <trkpt lat="40.14926506206393" lon="-3.675650116056204">
        <ele>647.5999755859375</ele>
        <time>2021-05-22T09:56:28.608Z</time>
      </trkpt>
      <trkpt lat="40.14932071790099" lon="-3.675630921497941">
        <ele>647.4000244140625</ele>
        <time>2021-05-22T09:56:31.241Z</time>
      </trkpt>
      <trkpt lat="40.149377128109336" lon="-3.6756302509456873">
        <ele>647.2000122070312</ele>
        <time>2021-05-22T09:56:33.876Z</time>
      </trkpt>
      <trkpt lat="40.14947544783354" lon="-3.6756914388388395">
        <ele>646.4000244140625</ele>
        <time>2021-05-22T09:56:36.514Z</time>
      </trkpt>
      <trkpt lat="40.14950453303754" lon="-3.67574131116271">
        <ele>645.7999877929688</ele>
        <time>2021-05-22T09:56:39.153Z</time>
      </trkpt>
      <trkpt lat="40.149516770616174" lon="-3.6757986433804035">
        <ele>645.4000244140625</ele>
        <time>2021-05-22T09:56:41.793Z</time>
      </trkpt>
      <trkpt lat="40.149514926597476" lon="-3.6759026627987623">
        <ele>645.0</ele>
        <time>2021-05-22T09:56:44.435Z</time>
      </trkpt>
      <trkpt lat="40.149510484188795" lon="-3.6759882420301437">
        <ele>644.7999877929688</ele>
        <time>2021-05-22T09:56:47.079Z</time>
      </trkpt>
      <trkpt lat="40.14950687997043" lon="-3.676132243126631">
        <ele>644.7999877929688</ele>
        <time>2021-05-22T09:56:49.726Z</time>
      </trkpt>
      <trkpt lat="40.1494671497494" lon="-3.6763769946992397">
        <ele>646.4000244140625</ele>
        <time>2021-05-22T09:56:52.378Z</time>
      </trkpt>
      <trkpt lat="40.14934351667762" lon="-3.676524516195059">
        <ele>647.5999755859375</ele>
        <time>2021-05-22T09:56:55.034Z</time>
      </trkpt>
      <trkpt lat="40.14932465739548" lon="-3.676544548943639">
        <ele>648.0</ele>
        <time>2021-05-22T09:56:57.691Z</time>
      </trkpt>
      <trkpt lat="40.149284256622195" lon="-3.676590146496892">
        <ele>648.7999877929688</ele>
        <time>2021-05-22T09:57:00.349Z</time>
      </trkpt>
      <trkpt lat="40.149221727624536" lon="-3.676705230027437">
        <ele>649.4000244140625</ele>
        <time>2021-05-22T09:57:03.010Z</time>
      </trkpt>
      <trkpt lat="40.149205047637224" lon="-3.6767690163105726">
        <ele>650.0</ele>
        <time>2021-05-22T09:57:05.672Z</time>
      </trkpt>
      <trkpt lat="40.149195827543736" lon="-3.676904384046793">
        <ele>650.5999755859375</ele>
        <time>2021-05-22T09:57:08.337Z</time>
      </trkpt>
      <trkpt lat="40.14919172041118" lon="-3.67697068490088">
        <ele>651.2000122070312</ele>
        <time>2021-05-22T09:57:11.003Z</time>
      </trkpt>
      <trkpt lat="40.149206556379795" lon="-3.677062299102545">
        <ele>652.4000244140625</ele>
        <time>2021-05-22T09:57:13.671Z</time>
      </trkpt>
      <trkpt lat="40.14922130852938" lon="-3.6770791467279196">
        <ele>652.5999755859375</ele>
        <time>2021-05-22T09:57:16.339Z</time>
      </trkpt>
      <trkpt lat="40.14931376092136" lon="-3.677105214446783">
        <ele>653.4000244140625</ele>
        <time>2021-05-22T09:57:19.010Z</time>
      </trkpt>
      <trkpt lat="40.14934209175408" lon="-3.677110578864813">
        <ele>653.5999755859375</ele>
        <time>2021-05-22T09:57:21.682Z</time>
      </trkpt>
      <trkpt lat="40.149439070373774" lon="-3.6771419271826744">
        <ele>654.5999755859375</ele>
        <time>2021-05-22T09:57:24.356Z</time>
      </trkpt>
      <trkpt lat="40.149491960182786" lon="-3.6771975830197334">
        <ele>655.4000244140625</ele>
        <time>2021-05-22T09:57:27.032Z</time>
      </trkpt>
      <trkpt lat="40.1495120767504" lon="-3.677274528890848">
        <ele>655.7999877929688</ele>
        <time>2021-05-22T09:57:29.709Z</time>
      </trkpt>
      <trkpt lat="40.149509059265256" lon="-3.677345523610711">
        <ele>655.7999877929688</ele>
        <time>2021-05-22T09:57:32.388Z</time>
      </trkpt>
      <trkpt lat="40.14953873120248" lon="-3.6775471083819866">
        <ele>657.0</ele>
        <time>2021-05-22T09:57:35.071Z</time>
      </trkpt>
      <trkpt lat="40.14964610338211" lon="-3.67757024243474">
        <ele>658.2000122070312</ele>
        <time>2021-05-22T09:57:37.757Z</time>
      </trkpt>
      <trkpt lat="40.14967669732869" lon="-3.677569655701518">
        <ele>658.5999755859375</ele>
        <time>2021-05-22T09:57:40.444Z</time>
      </trkpt>
      <trkpt lat="40.14982195571065" lon="-3.6775533109903336">
        <ele>659.0</ele>
        <time>2021-05-22T09:57:43.134Z</time>
      </trkpt>
      <trkpt lat="40.14986562542617" lon="-3.6775262374430895">
        <ele>659.0</ele>
        <time>2021-05-22T09:57:45.826Z</time>
      </trkpt>
      <trkpt lat="40.15005840919912" lon="-3.6774922907352448">
        <ele>659.0</ele>
        <time>2021-05-22T09:57:48.523Z</time>
      </trkpt>
      <trkpt lat="40.15012051910162" lon="-3.677589101716876">
        <ele>658.7999877929688</ele>
        <time>2021-05-22T09:57:51.222Z</time>
      </trkpt>
      <trkpt lat="40.150144239887595" lon="-3.6776376329362392">
        <ele>658.5999755859375</ele>
        <time>2021-05-22T09:57:53.922Z</time>
      </trkpt>
      <trkpt lat="40.1501614227891" lon="-3.67768750526011">
        <ele>658.2000122070312</ele>
        <time>2021-05-22T09:57:56.623Z</time>
      </trkpt>
      <trkpt lat="40.150182293727994" lon="-3.677775599062443">
        <ele>656.4000244140625</ele>
        <time>2021-05-22T09:57:59.326Z</time>
      </trkpt>
      <trkpt lat="40.15018841251731" lon="-3.6778172571212053">
        <ele>655.2000122070312</ele>
        <time>2021-05-22T09:58:02.030Z</time>
      </trkpt>
      <trkpt lat="40.150196542963386" lon="-3.677856232970953">
        <ele>655.0</ele>
        <time>2021-05-22T09:58:04.735Z</time>
      </trkpt>
      <trkpt lat="40.15022998675704" lon="-3.6780530400574207">
        <ele>654.5999755859375</ele>
        <time>2021-05-22T09:58:07.444Z</time>
      </trkpt>
      <trkpt lat="40.15026753768325" lon="-3.6781644355505705">
        <ele>655.5999755859375</ele>
        <time>2021-05-22T09:58:10.155Z</time>
      </trkpt>
      <trkpt lat="40.15030634589493" lon="-3.6781682912260294">
        <ele>656.4000244140625</ele>
        <time>2021-05-22T09:58:12.867Z</time>
      </trkpt>
      <trkpt lat="40.150354374200106" lon="-3.6780631821602583">
        <ele>657.4000244140625</ele>
        <time>2021-05-22T09:58:15.582Z</time>
      </trkpt>
      <trkpt lat="40.150394439697266" lon="-3.67793963290751">
        <ele>657.7999877929688</ele>
        <time>2021-05-22T09:58:18.299Z</time>
      </trkpt>
      <trkpt lat="40.1504220161587" lon="-3.677868638187647">
        <ele>657.7999877929688</ele>
        <time>2021-05-22T09:58:21.018Z</time>
      </trkpt>
      <trkpt lat="40.15045881271362" lon="-3.6778071988373995">
        <ele>657.7999877929688</ele>
        <time>2021-05-22T09:58:23.738Z</time>
      </trkpt>
      <trkpt lat="40.15061211772263" lon="-3.677719859406352">
        <ele>657.7999877929688</ele>
        <time>2021-05-22T09:58:26.463Z</time>
      </trkpt>
      <trkpt lat="40.15071965754032" lon="-3.677739640697837">
        <ele>657.7999877929688</ele>
        <time>2021-05-22T09:58:29.190Z</time>
      </trkpt>
      <trkpt lat="40.15077095478773" lon="-3.6777562368661165">
        <ele>657.4000244140625</ele>
        <time>2021-05-22T09:58:31.919Z</time>
      </trkpt>
      <trkpt lat="40.15086340717971" lon="-3.6778045166283846">
        <ele>656.2000122070312</ele>
        <time>2021-05-22T09:58:34.650Z</time>
      </trkpt>
      <trkpt lat="40.15090464614332" lon="-3.6778339371085167">
        <ele>654.4000244140625</ele>
        <time>2021-05-22T09:58:37.383Z</time>
      </trkpt>
      <trkpt lat="40.15096843242645" lon="-3.67791130207479">
        <ele>653.0</ele>
        <time>2021-05-22T09:58:40.118Z</time>
      </trkpt>
      <trkpt lat="40.15098888427019" lon="-3.6779558937996626">
        <ele>652.7999877929688</ele>
        <time>2021-05-22T09:58:42.854Z</time>
      </trkpt>
      <trkpt lat="40.15100455842912" lon="-3.678000485524535">
        <ele>652.7999877929688</ele>
        <time>2021-05-22T09:58:45.591Z</time>
      </trkpt>
      <trkpt lat="40.15102065168321" lon="-3.678162507712841">
        <ele>652.5999755859375</ele>
        <time>2021-05-22T09:58:48.331Z</time>
      </trkpt>
      <trkpt lat="40.15100263059139" lon="-3.678388400003314">
        <ele>653.2000122070312</ele>
        <time>2021-05-22T09:58:51.076Z</time>
      </trkpt>
      <trkpt lat="40.15099139884114" lon="-3.6785230971872807">
        <ele>654.2000122070312</ele>
        <time>2021-05-22T09:58:53.823Z</time>
      </trkpt>
      <trkpt lat="40.1509727910161" lon="-3.678617477416992">
        <ele>655.0</ele>
        <time>2021-05-22T09:58:56.572Z</time>
      </trkpt>
      <trkpt lat="40.150957284495234" lon="-3.6786800902336836">
        <ele>655.4000244140625</ele>
        <time>2021-05-22T09:58:59.322Z</time>
      </trkpt>
      <trkpt lat="40.150890313088894" lon="-3.678879579529166">
        <ele>656.2000122070312</ele>
        <time>2021-05-22T09:59:02.077Z</time>
      </trkpt>
      <trkpt lat="40.15087841078639" lon="-3.678913190960884">
        <ele>656.5999755859375</ele>
        <time>2021-05-22T09:59:04.833Z</time>
      </trkpt>
      <trkpt lat="40.1508295442909" lon="-3.679034309461713">
        <ele>657.7999877929688</ele>
        <time>2021-05-22T09:59:07.591Z</time>
      </trkpt>
      <trkpt lat="40.15080766752362" lon="-3.6790944915264845">
        <ele>658.4000244140625</ele>
        <time>2021-05-22T09:59:10.351Z</time>
      </trkpt>
      <trkpt lat="40.15078931115568" lon="-3.679157020524144">
        <ele>659.2000122070312</ele>
        <time>2021-05-22T09:59:13.112Z</time>
      </trkpt>
      <trkpt lat="40.150755029171705" lon="-3.679322646930814">
        <ele>660.2000122070312</ele>
        <time>2021-05-22T09:59:15.876Z</time>
      </trkpt>
      <trkpt lat="40.150750083848834" lon="-3.6793560069054365">
        <ele>660.2000122070312</ele>
        <time>2021-05-22T09:59:18.641Z</time>
      </trkpt>
      <trkpt lat="40.15074698254466" lon="-3.67945927195251">
        <ele>661.2000122070312</ele>
        <time>2021-05-22T09:59:21.408Z</time>
      </trkpt>
      <trkpt lat="40.15077346935868" lon="-3.6795921251177792">
        <ele>661.7999877929688</ele>
        <time>2021-05-22T09:59:24.178Z</time>
      </trkpt>
      <trkpt lat="40.15080465003848" lon="-3.6796516366302967">
        <ele>662.4000244140625</ele>
        <time>2021-05-22T09:59:26.949Z</time>
      </trkpt>
      <trkpt lat="40.15087882988155" lon="-3.679724056273699">
        <ele>663.0</ele>
        <time>2021-05-22T09:59:29.722Z</time>
      </trkpt>
      <trkpt lat="40.150912860408425" lon="-3.67973729968071">
        <ele>663.4000244140625</ele>
        <time>2021-05-22T09:59:32.496Z</time>
      </trkpt>
      <trkpt lat="40.150952003896236" lon="-3.679738473147154">
        <ele>663.5999755859375</ele>
        <time>2021-05-22T09:59:35.271Z</time>
      </trkpt>
      <trkpt lat="40.151026183739305" lon="-3.6797181889414787">
        <ele>664.2000122070312</ele>
        <time>2021-05-22T09:59:38.048Z</time>
      </trkpt>
      <trkpt lat="40.151067255064845" lon="-3.6796864215284586">
        <ele>664.5999755859375</ele>
        <time>2021-05-22T09:59:40.827Z</time>
      </trkpt>
      <trkpt lat="40.15107630752027" lon="-3.6796778719872236">
        <ele>664.5999755859375</ele>
        <time>2021-05-22T09:59:43.606Z</time>
      </trkpt>
      <trkpt lat="40.15107689425349" lon="-3.6796755250543356">
        <ele>664.5999755859375</ele>
        <time>2021-05-22T09:59:46.385Z</time>
      </trkpt>
      <trkpt lat="40.15111017040908" lon="-3.6796436738222837">
        <ele>665.2000122070312</ele>
        <time>2021-05-22T09:59:49.165Z</time>
      </trkpt>
      <trkpt lat="40.15112970024347" lon="-3.679616851732135">
        <ele>665.2000122070312</ele>
        <time>2021-05-22T09:59:51.946Z</time>
      </trkpt>
      <trkpt lat="40.151153756305575" lon="-3.679579133167863">
        <ele>665.2000122070312</ele>
        <time>2021-05-22T09:59:54.728Z</time>
      </trkpt>
      <trkpt lat="40.151198683306575" lon="-3.679476622492075">
        <ele>665.2000122070312</ele>
        <time>2021-05-22T09:59:57.512Z</time>
      </trkpt>
      <trkpt lat="40.151219218969345" lon="-3.679416859522462">
        <ele>665.2000122070312</ele>
        <time>2021-05-22T10:00:00.297Z</time>
      </trkpt>
      <trkpt lat="40.15124444849789" lon="-3.6793527379631996">
        <ele>665.2000122070312</ele>
        <time>2021-05-22T10:00:03.084Z</time>
      </trkpt>
      <trkpt lat="40.15129566192627" lon="-3.679200354963541">
        <ele>665.2000122070312</ele>
        <time>2021-05-22T10:00:05.874Z</time>
      </trkpt>
      <trkpt lat="40.1513147726655" lon="-3.6791113391518593">
        <ele>665.2000122070312</ele>
        <time>2021-05-22T10:00:08.666Z</time>
      </trkpt>
      <trkpt lat="40.15132390893996" lon="-3.6790175456553698">
        <ele>665.0</ele>
        <time>2021-05-22T10:00:11.460Z</time>
      </trkpt>
      <trkpt lat="40.151318376883864" lon="-3.6788482312113047">
        <ele>664.5999755859375</ele>
        <time>2021-05-22T10:00:14.257Z</time>
      </trkpt>
      <trkpt lat="40.15133296139538" lon="-3.6787166353315115">
        <ele>664.0</ele>
        <time>2021-05-22T10:00:17.057Z</time>
      </trkpt>
      <trkpt lat="40.15135718509555" lon="-3.678652932867408">
        <ele>663.5999755859375</ele>
        <time>2021-05-22T10:00:19.858Z</time>
      </trkpt>
      <trkpt lat="40.151381492614746" lon="-3.6785847041755915">
        <ele>663.2000122070312</ele>
        <time>2021-05-22T10:00:22.661Z</time>
      </trkpt>
      <trkpt lat="40.151423988863826" lon="-3.6784280464053154">
        <ele>661.7999877929688</ele>
        <time>2021-05-22T10:00:25.467Z</time>
      </trkpt>
      <trkpt lat="40.15147394500673" lon="-3.6782560497522354">
        <ele>660.0</ele>
        <time>2021-05-22T10:00:28.277Z</time>
      </trkpt>
      <trkpt lat="40.15149464830756" lon="-3.6781646870076656">
        <ele>659.4000244140625</ele>
        <time>2021-05-22T10:00:31.088Z</time>
      </trkpt>
      <trkpt lat="40.15150546096265" lon="-3.6780693009495735">
        <ele>658.7999877929688</ele>
        <time>2021-05-22T10:00:33.901Z</time>
      </trkpt>
      <trkpt lat="40.15149800106883" lon="-3.67787953466177">
        <ele>657.7999877929688</ele>
        <time>2021-05-22T10:00:36.718Z</time>
      </trkpt>
      <trkpt lat="40.15149464830756" lon="-3.677784902974963">
        <ele>657.5999755859375</ele>
        <time>2021-05-22T10:00:39.537Z</time>
      </trkpt>
      <trkpt lat="40.15150051563978" lon="-3.6776911932975054">
        <ele>657.2000122070312</ele>
        <time>2021-05-22T10:00:42.358Z</time>
      </trkpt>
      <trkpt lat="40.151555836200714" lon="-3.6775292549282312">
        <ele>656.5999755859375</ele>
        <time>2021-05-22T10:00:45.182Z</time>
      </trkpt>
      <trkpt lat="40.151645774021745" lon="-3.677419200539589">
        <ele>656.2000122070312</ele>
        <time>2021-05-22T10:00:48.010Z</time>
      </trkpt>
      <trkpt lat="40.15168550424278" lon="-3.677363460883498">
        <ele>656.0</ele>
        <time>2021-05-22T10:00:50.839Z</time>
      </trkpt>
      <trkpt lat="40.151709308847785" lon="-3.677293388172984">
        <ele>655.7999877929688</ele>
        <time>2021-05-22T10:00:53.670Z</time>
      </trkpt>
      <trkpt lat="40.151691287755966" lon="-3.6771560925990343">
        <ele>655.2000122070312</ele>
        <time>2021-05-22T10:00:56.503Z</time>
      </trkpt>
      <trkpt lat="40.151602271944284" lon="-3.6771077290177345">
        <ele>655.0</ele>
        <time>2021-05-22T10:00:59.339Z</time>
      </trkpt>
      <trkpt lat="40.15150026418269" lon="-3.677127007395029">
        <ele>654.7999877929688</ele>
        <time>2021-05-22T10:01:02.177Z</time>
      </trkpt>
      <trkpt lat="40.15139942988753" lon="-3.6770862713456154">
        <ele>654.5999755859375</ele>
        <time>2021-05-22T10:01:05.018Z</time>
      </trkpt>
      <trkpt lat="40.151356514543295" lon="-3.6769581120461226">
        <ele>654.4000244140625</ele>
        <time>2021-05-22T10:01:07.862Z</time>
      </trkpt>
      <trkpt lat="40.151360873132944" lon="-3.676808411255479">
        <ele>654.4000244140625</ele>
        <time>2021-05-22T10:01:10.709Z</time>
      </trkpt>
      <trkpt lat="40.15136791393161" lon="-3.676730878651142">
        <ele>654.2000122070312</ele>
        <time>2021-05-22T10:01:13.557Z</time>
      </trkpt>
      <trkpt lat="40.15137327834964" lon="-3.6766515020281076">
        <ele>654.0</ele>
        <time>2021-05-22T10:01:16.407Z</time>
      </trkpt>
      <trkpt lat="40.151374535635114" lon="-3.6765693593770266">
        <ele>653.5999755859375</ele>
        <time>2021-05-22T10:01:19.259Z</time>
      </trkpt>
      <trkpt lat="40.15137093141675" lon="-3.6764822714030743">
        <ele>653.4000244140625</ele>
        <time>2021-05-22T10:01:22.112Z</time>
      </trkpt>
      <trkpt lat="40.15136254951358" lon="-3.676391914486885">
        <ele>652.7999877929688</ele>
        <time>2021-05-22T10:01:24.967Z</time>
      </trkpt>
      <trkpt lat="40.15135391615331" lon="-3.6762304790318012">
        <ele>652.5999755859375</ele>
        <time>2021-05-22T10:01:27.825Z</time>
      </trkpt>
      <trkpt lat="40.1513700094074" lon="-3.6761700455099344">
        <ele>652.4000244140625</ele>
        <time>2021-05-22T10:01:30.685Z</time>
      </trkpt>
      <trkpt lat="40.151399010792375" lon="-3.676124196499586">
        <ele>652.2000122070312</ele>
        <time>2021-05-22T10:01:33.546Z</time>
      </trkpt>
      <trkpt lat="40.15146849676967" lon="-3.6761026550084352">
        <ele>652.0</ele>
        <time>2021-05-22T10:01:36.409Z</time>
      </trkpt>
      <trkpt lat="40.151497749611735" lon="-3.676111875101924">
        <ele>651.4000244140625</ele>
        <time>2021-05-22T10:01:39.272Z</time>
      </trkpt>
      <trkpt lat="40.15155265107751" lon="-3.676122184842825">
        <ele>650.7999877929688</ele>
        <time>2021-05-22T10:01:42.137Z</time>
      </trkpt>
      <trkpt lat="40.15161216259003" lon="-3.676138026639819">
        <ele>650.7999877929688</ele>
        <time>2021-05-22T10:01:45.003Z</time>
      </trkpt>
      <trkpt lat="40.151677122339606" lon="-3.6761475820094347">
        <ele>650.7999877929688</ele>
        <time>2021-05-22T10:01:47.871Z</time>
      </trkpt>
      <trkpt lat="40.15170821920037" lon="-3.6761532817035913">
        <ele>650.7999877929688</ele>
        <time>2021-05-22T10:01:50.740Z</time>
      </trkpt>
      <trkpt lat="40.15173797495663" lon="-3.6761609092354774">
        <ele>650.7999877929688</ele>
        <time>2021-05-22T10:01:53.610Z</time>
      </trkpt>
      <trkpt lat="40.15179991722107" lon="-3.6761717218905687">
        <ele>650.7999877929688</ele>
        <time>2021-05-22T10:01:56.481Z</time>
      </trkpt>
      <trkpt lat="40.1518589258194" lon="-3.676176918670535">
        <ele>651.2000122070312</ele>
        <time>2021-05-22T10:01:59.354Z</time>
      </trkpt>
      <trkpt lat="40.1519207842648" lon="-3.6761801037937403">
        <ele>651.7999877929688</ele>
        <time>2021-05-22T10:02:02.228Z</time>
      </trkpt>
      <trkpt lat="40.151951126754284" lon="-3.676185132935643">
        <ele>652.2000122070312</ele>
        <time>2021-05-22T10:02:05.103Z</time>
      </trkpt>
      <trkpt lat="40.1519815530628" lon="-3.67619376629591">
        <ele>652.5999755859375</ele>
        <time>2021-05-22T10:02:07.979Z</time>
      </trkpt>
      <trkpt lat="40.15204391442239" lon="-3.676203154027462">
        <ele>653.2000122070312</ele>
        <time>2021-05-22T10:02:10.857Z</time>
      </trkpt>
      <trkpt lat="40.15207492746413" lon="-3.6762094404548407">
        <ele>653.4000244140625</ele>
        <time>2021-05-22T10:02:13.735Z</time>
      </trkpt>
      <trkpt lat="40.15210350975394" lon="-3.6762174032628536">
        <ele>653.5999755859375</ele>
        <time>2021-05-22T10:02:16.614Z</time>
      </trkpt>
      <trkpt lat="40.152151957154274" lon="-3.6762250307947397">
        <ele>654.0</ele>
        <time>2021-05-22T10:02:19.494Z</time>
      </trkpt>
      <trkpt lat="40.152203254401684" lon="-3.6762345861643553">
        <ele>654.4000244140625</ele>
        <time>2021-05-22T10:02:22.376Z</time>
      </trkpt>
      <trkpt lat="40.15222907066345" lon="-3.6762404534965754">
        <ele>654.7999877929688</ele>
        <time>2021-05-22T10:02:25.258Z</time>
      </trkpt>
      <trkpt lat="40.15225446783006" lon="-3.6762442253530025">
        <ele>655.0</ele>
        <time>2021-05-22T10:02:28.141Z</time>
      </trkpt>
      <trkpt lat="40.15230358578265" lon="-3.6762563791126013">
        <ele>655.7999877929688</ele>
        <time>2021-05-22T10:02:31.025Z</time>
      </trkpt>
      <trkpt lat="40.1523285638541" lon="-3.676264090463519">
        <ele>656.0</ele>
        <time>2021-05-22T10:02:33.910Z</time>
      </trkpt>
      <trkpt lat="40.152353877201676" lon="-3.676269119605422">
        <ele>656.4000244140625</ele>
        <time>2021-05-22T10:02:36.796Z</time>
      </trkpt>
      <trkpt lat="40.15240928158164" lon="-3.6762869730591774">
        <ele>656.7999877929688</ele>
        <time>2021-05-22T10:02:39.683Z</time>
      </trkpt>
      <trkpt lat="40.15243317000568" lon="-3.6762934271246195">
        <ele>657.2000122070312</ele>
        <time>2021-05-22T10:02:42.571Z</time>
      </trkpt>
      <trkpt lat="40.152459321543574" lon="-3.6762963607907295">
        <ele>657.2000122070312</ele>
        <time>2021-05-22T10:02:45.460Z</time>
      </trkpt>
      <trkpt lat="40.15251028351486" lon="-3.676280351355672">
        <ele>657.5999755859375</ele>
        <time>2021-05-22T10:02:48.350Z</time>
      </trkpt>
      <trkpt lat="40.15252763405442" lon="-3.676250511780381">
        <ele>657.7999877929688</ele>
        <time>2021-05-22T10:02:51.241Z</time>
      </trkpt>
      <trkpt lat="40.152524868026376" lon="-3.6761646810919046">
        <ele>658.2000122070312</ele>
        <time>2021-05-22T10:02:54.133Z</time>
      </trkpt>
      <trkpt lat="40.15250651165843" lon="-3.6761229392141104">
        <ele>658.4000244140625</ele>
        <time>2021-05-22T10:02:57.026Z</time>
      </trkpt>
      <trkpt lat="40.15245144255459" lon="-3.676037108525634">
        <ele>658.4000244140625</ele>
        <time>2021-05-22T10:02:59.921Z</time>
      </trkpt>
      <trkpt lat="40.15238631516695" lon="-3.6759324185550213">
        <ele>658.4000244140625</ele>
        <time>2021-05-22T10:03:02.819Z</time>
      </trkpt>
      <trkpt lat="40.15235052444041" lon="-3.675877684727311">
        <ele>658.4000244140625</ele>
        <time>2021-05-22T10:03:05.719Z</time>
      </trkpt>
      <trkpt lat="40.152313811704516" lon="-3.6758218612521887">
        <ele>658.4000244140625</ele>
        <time>2021-05-22T10:03:08.620Z</time>
      </trkpt>
      <trkpt lat="40.15224206261337" lon="-3.6757065262645483">
        <ele>658.0</ele>
        <time>2021-05-22T10:03:11.524Z</time>
      </trkpt>
      <trkpt lat="40.15217375010252" lon="-3.6756028421223164">
        <ele>657.2000122070312</ele>
        <time>2021-05-22T10:03:14.431Z</time>
      </trkpt>
      <trkpt lat="40.152137875556946" lon="-3.6755530536174774">
        <ele>656.7999877929688</ele>
        <time>2021-05-22T10:03:17.339Z</time>
      </trkpt>
      <trkpt lat="40.152095798403025" lon="-3.675498403608799">
        <ele>656.0</ele>
        <time>2021-05-22T10:03:20.249Z</time>
      </trkpt>
      <trkpt lat="40.1520470995456" lon="-3.6754340305924416">
        <ele>655.5999755859375</ele>
        <time>2021-05-22T10:03:23.160Z</time>
      </trkpt>
      <trkpt lat="40.152000496163964" lon="-3.6753575038164854">
        <ele>655.0</ele>
        <time>2021-05-22T10:03:26.073Z</time>
      </trkpt>
      <trkpt lat="40.151953138411045" lon="-3.6752772890031338">
        <ele>654.5999755859375</ele>
        <time>2021-05-22T10:03:28.988Z</time>
      </trkpt>
      <trkpt lat="40.15189949423075" lon="-3.6751957330852747">
        <ele>654.2000122070312</ele>
        <time>2021-05-22T10:03:31.905Z</time>
      </trkpt>
      <trkpt lat="40.151785584166646" lon="-3.6750243231654167">
        <ele>653.5999755859375</ele>
        <time>2021-05-22T10:03:34.827Z</time>
      </trkpt>
      <trkpt lat="40.15173738822341" lon="-3.6749381572008133">
        <ele>653.0</ele>
        <time>2021-05-22T10:03:37.751Z</time>
      </trkpt>
      <trkpt lat="40.15170453116298" lon="-3.674852577969432">
        <ele>652.0</ele>
        <time>2021-05-22T10:03:40.677Z</time>
      </trkpt>
      <trkpt lat="40.15168567188084" lon="-3.674686113372445">
        <ele>651.5999755859375</ele>
        <time>2021-05-22T10:03:43.606Z</time>
      </trkpt>
      <trkpt lat="40.1517466083169" lon="-3.674549488350749">
        <ele>649.5999755859375</ele>
        <time>2021-05-22T10:03:46.538Z</time>
      </trkpt>
      <trkpt lat="40.15179279260337" lon="-3.674510009586811">
        <ele>648.7999877929688</ele>
        <time>2021-05-22T10:03:49.472Z</time>
      </trkpt>
      <trkpt lat="40.15183947980404" lon="-3.6744898092001677">
        <ele>648.2000122070312</ele>
        <time>2021-05-22T10:03:52.407Z</time>
      </trkpt>
      <trkpt lat="40.151886250823736" lon="-3.6744859535247087">
        <ele>647.5999755859375</ele>
        <time>2021-05-22T10:03:55.343Z</time>
      </trkpt>
      <trkpt lat="40.15193386003375" lon="-3.6744863726198673">
        <ele>646.7999877929688</ele>
        <time>2021-05-22T10:03:58.280Z</time>
      </trkpt>
      <trkpt lat="40.151983480900526" lon="-3.67449089884758">
        <ele>646.2000122070312</ele>
        <time>2021-05-22T10:04:01.219Z</time>
      </trkpt>
      <trkpt lat="40.152031760662794" lon="-3.6745007894933224">
        <ele>645.7999877929688</ele>
        <time>2021-05-22T10:04:04.159Z</time>
      </trkpt>
      <trkpt lat="40.15213016420603" lon="-3.67452559992671">
        <ele>645.4000244140625</ele>
        <time>2021-05-22T10:04:07.102Z</time>
      </trkpt>
      <trkpt lat="40.15223057940602" lon="-3.6745558585971594">
        <ele>645.2000122070312</ele>
        <time>2021-05-22T10:04:10.047Z</time>
      </trkpt>
      <trkpt lat="40.15233367681503" lon="-3.674604305997491">
        <ele>645.2000122070312</ele>
        <time>2021-05-22T10:04:12.995Z</time>
      </trkpt>
      <trkpt lat="40.15243233181536" lon="-3.6746703553944826">
        <ele>645.2000122070312</ele>
        <time>2021-05-22T10:04:15.946Z</time>
      </trkpt>
      <trkpt lat="40.15247516334057" lon="-3.6747024580836296">
        <ele>645.2000122070312</ele>
        <time>2021-05-22T10:04:18.898Z</time>
      </trkpt>
      <trkpt lat="40.15251422300935" lon="-3.674734393134713">
        <ele>645.2000122070312</ele>
        <time>2021-05-22T10:04:21.851Z</time>
      </trkpt>
      <trkpt lat="40.15258261933923" lon="-3.6748041305691004">
        <ele>645.5999755859375</ele>
        <time>2021-05-22T10:04:24.807Z</time>
      </trkpt>
      <trkpt lat="40.152639616280794" lon="-3.6748689226806164">
        <ele>645.7999877929688</ele>
        <time>2021-05-22T10:04:27.765Z</time>
      </trkpt>
      <trkpt lat="40.152666522189975" lon="-3.674899684265256">
        <ele>646.2000122070312</ele>
        <time>2021-05-22T10:04:30.724Z</time>
      </trkpt>
      <trkpt lat="40.152691919356585" lon="-3.6749336309731007">
        <ele>646.5999755859375</ele>
        <time>2021-05-22T10:04:33.683Z</time>
      </trkpt>
      <trkpt lat="40.15274154022336" lon="-3.675004541873932">
        <ele>646.7999877929688</ele>
        <time>2021-05-22T10:04:36.644Z</time>
      </trkpt>
      <trkpt lat="40.15279300510883" lon="-3.675072183832526">
        <ele>647.2000122070312</ele>
        <time>2021-05-22T10:04:39.607Z</time>
      </trkpt>
      <trkpt lat="40.15284036286175" lon="-3.6751342937350273">
        <ele>647.4000244140625</ele>
        <time>2021-05-22T10:04:42.572Z</time>
      </trkpt>
      <trkpt lat="40.15286433510482" lon="-3.6751648876816034">
        <ele>647.5999755859375</ele>
        <time>2021-05-22T10:04:45.538Z</time>
      </trkpt>
      <trkpt lat="40.152885960415006" lon="-3.675196235999465">
        <ele>647.7999877929688</ele>
        <time>2021-05-22T10:04:48.505Z</time>
      </trkpt>
      <trkpt lat="40.15293465927243" lon="-3.6752581782639027">
        <ele>648.4000244140625</ele>
        <time>2021-05-22T10:04:51.473Z</time>
      </trkpt>
      <trkpt lat="40.15298344194889" lon="-3.675320455804467">
        <ele>648.7999877929688</ele>
        <time>2021-05-22T10:04:54.443Z</time>
      </trkpt>
      <trkpt lat="40.15302828513086" lon="-3.6753786262124777">
        <ele>649.2000122070312</ele>
        <time>2021-05-22T10:04:57.415Z</time>
      </trkpt>
      <trkpt lat="40.15307145193219" lon="-3.6754366289824247">
        <ele>649.5999755859375</ele>
        <time>2021-05-22T10:05:00.388Z</time>
      </trkpt>
      <trkpt lat="40.15312358736992" lon="-3.6754944641143084">
        <ele>650.0</ele>
        <time>2021-05-22T10:05:03.363Z</time>
      </trkpt>
      <trkpt lat="40.15316549688578" lon="-3.675549700856209">
        <ele>650.4000244140625</ele>
        <time>2021-05-22T10:05:06.340Z</time>
      </trkpt>
      <trkpt lat="40.15320095233619" lon="-3.675623293966055">
        <ele>650.5999755859375</ele>
        <time>2021-05-22T10:05:09.318Z</time>
      </trkpt>
      <trkpt lat="40.15322366729379" lon="-3.675701329484582">
        <ele>650.7999877929688</ele>
        <time>2021-05-22T10:05:12.298Z</time>
      </trkpt>
      <trkpt lat="40.15323179773986" lon="-3.675783136859536">
        <ele>651.0</ele>
        <time>2021-05-22T10:05:15.280Z</time>
      </trkpt>
      <trkpt lat="40.15322869643569" lon="-3.6758213583379984">
        <ele>651.0</ele>
        <time>2021-05-22T10:05:18.262Z</time>
      </trkpt>
      <trkpt lat="40.15321880578995" lon="-3.67585564032197">
        <ele>651.0</ele>
        <time>2021-05-22T10:05:21.245Z</time>
      </trkpt>
      <trkpt lat="40.15320271253586" lon="-3.675882378593087">
        <ele>651.0</ele>
        <time>2021-05-22T10:05:24.229Z</time>
      </trkpt>
      <trkpt lat="40.15318175777793" lon="-3.6758985556662083">
        <ele>651.0</ele>
        <time>2021-05-22T10:05:27.214Z</time>
      </trkpt>
      <trkpt lat="40.15315745025873" lon="-3.6759058479219675">
        <ele>651.0</ele>
        <time>2021-05-22T10:05:30.199Z</time>
      </trkpt>
      <trkpt lat="40.153132723644376" lon="-3.675905680283904">
        <ele>651.2000122070312</ele>
        <time>2021-05-22T10:05:33.185Z</time>
      </trkpt>
      <trkpt lat="40.15310799703002" lon="-3.675901908427477">
        <ele>651.2000122070312</ele>
        <time>2021-05-22T10:05:36.171Z</time>
      </trkpt>
      <trkpt lat="40.153083857148886" lon="-3.6758987233042717">
        <ele>651.4000244140625</ele>
        <time>2021-05-22T10:05:39.158Z</time>
      </trkpt>
      <trkpt lat="40.153037337586284" lon="-3.675905428826809">
        <ele>651.5999755859375</ele>
        <time>2021-05-22T10:05:42.146Z</time>
      </trkpt>
      <trkpt lat="40.15301696956158" lon="-3.6759220249950886">
        <ele>651.7999877929688</ele>
        <time>2021-05-22T10:05:45.135Z</time>
      </trkpt>
      <trkpt lat="40.15300548635423" lon="-3.675946081057191">
        <ele>652.2000122070312</ele>
        <time>2021-05-22T10:05:48.124Z</time>
      </trkpt>
      <trkpt lat="40.15300548635423" lon="-3.676007268950343">
        <ele>653.0</ele>
        <time>2021-05-22T10:05:51.115Z</time>
      </trkpt>
      <trkpt lat="40.153014454990625" lon="-3.6760368570685387">
        <ele>653.4000244140625</ele>
        <time>2021-05-22T10:05:54.106Z</time>
      </trkpt>
      <trkpt lat="40.15302702784538" lon="-3.676064433529973">
        <ele>653.5999755859375</ele>
        <time>2021-05-22T10:05:57.098Z</time>
      </trkpt>
      <trkpt lat="40.15304119326174" lon="-3.676090920343995">
        <ele>653.7999877929688</ele>
        <time>2021-05-22T10:06:00.091Z</time>
      </trkpt>
      <trkpt lat="40.153054520487785" lon="-3.676119754090905">
        <ele>654.0</ele>
        <time>2021-05-22T10:06:03.084Z</time>
      </trkpt>
      <trkpt lat="40.15307614579797" lon="-3.676181696355343">
        <ele>654.4000244140625</ele>
        <time>2021-05-22T10:06:06.079Z</time>
      </trkpt>
      <trkpt lat="40.15309391543269" lon="-3.6762492544949055">
        <ele>654.7999877929688</ele>
        <time>2021-05-22T10:06:09.075Z</time>
      </trkpt>
      <trkpt lat="40.153098525479436" lon="-3.6762857995927334">
        <ele>655.4000244140625</ele>
        <time>2021-05-22T10:06:12.072Z</time>
      </trkpt>
      <trkpt lat="40.15310104005039" lon="-3.6763211712241173">
        <ele>655.7999877929688</ele>
        <time>2021-05-22T10:06:15.069Z</time>
      </trkpt>
      <trkpt lat="40.15309056267142" lon="-3.676381269469857">
        <ele>656.4000244140625</ele>
        <time>2021-05-22T10:06:18.068Z</time>
      </trkpt>
      <trkpt lat="40.15307924710214" lon="-3.6764048226177692">
        <ele>656.5999755859375</ele>
        <time>2021-05-22T10:06:21.067Z</time>
      </trkpt>
      <trkpt lat="40.15306876972318" lon="-3.676424939185381">
        <ele>656.7999877929688</ele>
        <time>2021-05-22T10:06:24.067Z</time>
      </trkpt>
      <trkpt lat="40.15304538421333" lon="-3.6764621548354626">
        <ele>657.0</ele>
        <time>2021-05-22T10:06:27.068Z</time>
      </trkpt>
      <trkpt lat="40.15302233397961" lon="-3.6764913238584995">
        <ele>657.4000244140625</ele>
        <time>2021-05-22T10:06:30.069Z</time>
      </trkpt>
      <trkpt lat="40.15301713719964" lon="-3.6765069141983986">
        <ele>657.7999877929688</ele>
        <time>2021-05-22T10:06:33.071Z</time>
      </trkpt>
      <trkpt lat="40.15301520936191" lon="-3.676525941118598">
        <ele>658.4000244140625</ele>
        <time>2021-05-22T10:06:36.073Z</time>
      </trkpt>
      <trkpt lat="40.15301554463804" lon="-3.6765452194958925">
        <ele>658.7999877929688</ele>
        <time>2021-05-22T10:06:39.076Z</time>
      </trkpt>
      <trkpt lat="40.153018310666084" lon="-3.676568018272519">
        <ele>659.2000122070312</ele>
        <time>2021-05-22T10:06:42.079Z</time>
      </trkpt>
      <trkpt lat="40.153021747246385" lon="-3.676591068506241">
        <ele>659.5999755859375</ele>
        <time>2021-05-22T10:06:45.082Z</time>
      </trkpt>
      <trkpt lat="40.153027698397636" lon="-3.6766129452735186">
        <ele>660.2000122070312</ele>
        <time>2021-05-22T10:06:48.086Z</time>
      </trkpt>
      <trkpt lat="40.15304580330849" lon="-3.676662230864167">
        <ele>660.7999877929688</ele>
        <time>2021-05-22T10:06:51.091Z</time>
      </trkpt>
      <trkpt lat="40.153069104999304" lon="-3.676712941378355">
        <ele>661.4000244140625</ele>
        <time>2021-05-22T10:06:54.097Z</time>
      </trkpt>
      <trkpt lat="40.153094585984945" lon="-3.6767684295773506">
        <ele>661.5999755859375</ele>
        <time>2021-05-22T10:06:57.104Z</time>
      </trkpt>
      <trkpt lat="40.15311822295189" lon="-3.676824253052473">
        <ele>661.7999877929688</ele>
        <time>2021-05-22T10:07:00.113Z</time>
      </trkpt>
      <trkpt lat="40.153138507157564" lon="-3.676880830898881">
        <ele>661.7999877929688</ele>
        <time>2021-05-22T10:07:03.123Z</time>
      </trkpt>
      <trkpt lat="40.15316030010581" lon="-3.676925841718912">
        <ele>662.0</ele>
        <time>2021-05-22T10:07:06.134Z</time>
      </trkpt>
      <trkpt lat="40.15316775999963" lon="-3.6769487243145704">
        <ele>662.0</ele>
        <time>2021-05-22T10:07:09.145Z</time>
      </trkpt>
      <trkpt lat="40.15317413024604" lon="-3.676971774548292">
        <ele>662.0</ele>
        <time>2021-05-22T10:07:12.157Z</time>
      </trkpt>
      <trkpt lat="40.153191313147545" lon="-3.6770111694931984">
        <ele>662.4000244140625</ele>
        <time>2021-05-22T10:07:15.170Z</time>
      </trkpt>
      <trkpt lat="40.153206400573254" lon="-3.6770508997142315">
        <ele>662.7999877929688</ele>
        <time>2021-05-22T10:07:18.184Z</time>
      </trkpt>
      <trkpt lat="40.153226517140865" lon="-3.677091635763645">
        <ele>663.4000244140625</ele>
        <time>2021-05-22T10:07:21.199Z</time>
      </trkpt>
      <trkpt lat="40.15324596315622" lon="-3.6771291866898537">
        <ele>664.0</ele>
        <time>2021-05-22T10:07:24.215Z</time>
      </trkpt>
      <trkpt lat="40.15326130203903" lon="-3.677169755101204">
        <ele>664.7999877929688</ele>
        <time>2021-05-22T10:07:27.231Z</time>
      </trkpt>
      <trkpt lat="40.1532747130841" lon="-3.6772119160741568">
        <ele>665.2000122070312</ele>
        <time>2021-05-22T10:07:30.248Z</time>
      </trkpt>
      <trkpt lat="40.153290554881096" lon="-3.6772526521235704">
        <ele>665.5999755859375</ele>
        <time>2021-05-22T10:07:33.266Z</time>
      </trkpt>
      <trkpt lat="40.15330924652517" lon="-3.677289532497525">
        <ele>665.7999877929688</ele>
        <time>2021-05-22T10:07:36.285Z</time>
      </trkpt>
      <trkpt lat="40.153319807723165" lon="-3.677308978512883">
        <ele>666.2000122070312</ele>
        <time>2021-05-22T10:07:39.305Z</time>
      </trkpt>
      <trkpt lat="40.15333036892116" lon="-3.67732641287148">
        <ele>666.4000244140625</ele>
        <time>2021-05-22T10:07:42.325Z</time>
      </trkpt>
      <trkpt lat="40.153352497145534" lon="-3.6773624550551176">
        <ele>667.0</ele>
        <time>2021-05-22T10:07:45.346Z</time>
      </trkpt>
      <trkpt lat="40.15337529592216" lon="-3.6773981619626284">
        <ele>667.2000122070312</ele>
        <time>2021-05-22T10:07:48.368Z</time>
      </trkpt>
      <trkpt lat="40.15340127982199" lon="-3.677437137812376">
        <ele>667.5999755859375</ele>
        <time>2021-05-22T10:07:51.391Z</time>
      </trkpt>
      <trkpt lat="40.153430281206965" lon="-3.677475107833743">
        <ele>668.0</ele>
        <time>2021-05-22T10:07:54.415Z</time>
      </trkpt>
      <trkpt lat="40.15345886349678" lon="-3.677508383989334">
        <ele>668.2000122070312</ele>
        <time>2021-05-22T10:07:57.440Z</time>
      </trkpt>
      <trkpt lat="40.15348669141531" lon="-3.677542917430401">
        <ele>668.5999755859375</ele>
        <time>2021-05-22T10:08:00.466Z</time>
      </trkpt>
      <trkpt lat="40.15351410023868" lon="-3.677578456699848">
        <ele>669.2000122070312</ele>
        <time>2021-05-22T10:08:03.493Z</time>
      </trkpt>
      <trkpt lat="40.1535495556891" lon="-3.6776051111519337">
        <ele>669.5999755859375</ele>
        <time>2021-05-22T10:08:06.521Z</time>
      </trkpt>
      <trkpt lat="40.15361309051514" lon="-3.6776102241128683">
        <ele>670.2000122070312</ele>
        <time>2021-05-22T10:08:09.551Z</time>
      </trkpt>
      <trkpt lat="40.15368986874819" lon="-3.6775564961135387">
        <ele>670.4000244140625</ele>
        <time>2021-05-22T10:08:12.583Z</time>
      </trkpt>
      <trkpt lat="40.153755750507116" lon="-3.677455661818385">
        <ele>670.4000244140625</ele>
        <time>2021-05-22T10:08:15.618Z</time>
      </trkpt>
      <trkpt lat="40.153785506263375" lon="-3.67740067653358">
        <ele>670.4000244140625</ele>
        <time>2021-05-22T10:08:18.654Z</time>
      </trkpt>
      <trkpt lat="40.15381459146738" lon="-3.677348205819726">
        <ele>670.4000244140625</ele>
        <time>2021-05-22T10:08:21.691Z</time>
      </trkpt>
      <trkpt lat="40.15383613295853" lon="-3.677296070381999">
        <ele>670.4000244140625</ele>
        <time>2021-05-22T10:08:24.729Z</time>
      </trkpt>
      <trkpt lat="40.153843676671386" lon="-3.677241839468479">
        <ele>670.4000244140625</ele>
        <time>2021-05-22T10:08:27.768Z</time>
      </trkpt>
      <trkpt lat="40.15380562283099" lon="-3.6771389935165644">
        <ele>670.2000122070312</ele>
        <time>2021-05-22T10:08:30.810Z</time>
      </trkpt>
      <trkpt lat="40.153725827112794" lon="-3.677056347951293">
        <ele>669.7999877929688</ele>
        <time>2021-05-22T10:08:33.854Z</time>
      </trkpt>
      <trkpt lat="40.15368802472949" lon="-3.6770114209502935">
        <ele>669.5999755859375</ele>
        <time>2021-05-22T10:08:36.900Z</time>
      </trkpt>
      <trkpt lat="40.15365567058325" lon="-3.676959117874503">
        <ele>669.5999755859375</ele>
        <time>2021-05-22T10:08:39.947Z</time>
      </trkpt>
      <trkpt lat="40.15359867364168" lon="-3.6768483091145754">
        <ele>669.4000244140625</ele>
        <time>2021-05-22T10:08:42.997Z</time>
      </trkpt>
      <trkpt lat="40.15355693176389" lon="-3.676727106794715">
        <ele>669.2000122070312</ele>
        <time>2021-05-22T10:08:46.049Z</time>
      </trkpt>
      <trkpt lat="40.153550896793604" lon="-3.676659297198057">
        <ele>669.2000122070312</ele>
        <time>2021-05-22T10:08:49.103Z</time>
      </trkpt>
      <trkpt lat="40.15356095507741" lon="-3.676590397953987">
        <ele>669.0</ele>
        <time>2021-05-22T10:08:52.158Z</time>
      </trkpt>
      <trkpt lat="40.153631027787924" lon="-3.6764692794531584">
        <ele>668.2000122070312</ele>
        <time>2021-05-22T10:08:55.216Z</time>
      </trkpt>
      <trkpt lat="40.15368374995887" lon="-3.6764318123459816">
        <ele>667.4000244140625</ele>
        <time>2021-05-22T10:08:58.276Z</time>
      </trkpt>
      <trkpt lat="40.153741501271725" lon="-3.6764109414070845">
        <ele>666.2000122070312</ele>
        <time>2021-05-22T10:09:01.337Z</time>
      </trkpt>
      <trkpt lat="40.15386153012514" lon="-3.6763971112668514">
        <ele>665.0</ele>
        <time>2021-05-22T10:09:04.401Z</time>
      </trkpt>
      <trkpt lat="40.15391760505736" lon="-3.6763938423246145">
        <ele>663.7999877929688</ele>
        <time>2021-05-22T10:09:07.467Z</time>
      </trkpt>
      <trkpt lat="40.153970662504435" lon="-3.6763879749923944">
        <ele>662.5999755859375</ele>
        <time>2021-05-22T10:09:10.534Z</time>
      </trkpt>
      <trkpt lat="40.154019109904766" lon="-3.6763794254511595">
        <ele>661.7999877929688</ele>
        <time>2021-05-22T10:09:13.602Z</time>
      </trkpt>
      <trkpt lat="40.15406319871545" lon="-3.676370372995734">
        <ele>661.5999755859375</ele>
        <time>2021-05-22T10:09:16.671Z</time>
      </trkpt>
      <trkpt lat="40.154143162071705" lon="-3.676341036334634">
        <ele>661.2000122070312</ele>
        <time>2021-05-22T10:09:19.743Z</time>
      </trkpt>
      <trkpt lat="40.154218850657344" lon="-3.676287727430463">
        <ele>661.2000122070312</ele>
        <time>2021-05-22T10:09:22.817Z</time>
      </trkpt>
      <trkpt lat="40.15425271354616" lon="-3.6762483324855566">
        <ele>661.2000122070312</ele>
        <time>2021-05-22T10:09:25.892Z</time>
      </trkpt>
      <trkpt lat="40.1543091237545" lon="-3.6761402059346437">
        <ele>661.2000122070312</ele>
        <time>2021-05-22T10:09:28.969Z</time>
      </trkpt>
      <trkpt lat="40.15433007851243" lon="-3.6760790180414915">
        <ele>661.0</ele>
        <time>2021-05-22T10:09:32.048Z</time>
      </trkpt>
      <trkpt lat="40.154363606125116" lon="-3.6759611684828997">
        <ele>661.0</ele>
        <time>2021-05-22T10:09:35.129Z</time>
      </trkpt>
      <trkpt lat="40.15437701717019" lon="-3.675906267017126">
        <ele>661.0</ele>
        <time>2021-05-22T10:09:38.211Z</time>
      </trkpt>
      <trkpt lat="40.15438196249306" lon="-3.675851197913289">
        <ele>661.0</ele>
        <time>2021-05-22T10:09:41.295Z</time>
      </trkpt>
      <trkpt lat="40.15437358058989" lon="-3.6757983919233084">
        <ele>661.0</ele>
        <time>2021-05-22T10:09:44.380Z</time>
      </trkpt>
      <trkpt lat="40.15435162000358" lon="-3.6757544707506895">
        <ele>661.0</ele>
        <time>2021-05-22T10:09:47.466Z</time>
      </trkpt>
      <trkpt lat="40.15427433885634" lon="-3.675695965066552">
        <ele>661.0</ele>
        <time>2021-05-22T10:09:50.554Z</time>
      </trkpt>
      <trkpt lat="40.154176354408264" lon="-3.6756381299346685">
        <ele>661.0</ele>
        <time>2021-05-22T10:09:53.645Z</time>
      </trkpt>
      <trkpt lat="40.15405490063131" lon="-3.6755786184221506">
        <ele>660.7999877929688</ele>
        <time>2021-05-22T10:09:56.739Z</time>
      </trkpt>
      <trkpt lat="40.15392657369375" lon="-3.6755285784602165">
        <ele>660.4000244140625</ele>
        <time>2021-05-22T10:09:59.837Z</time>
      </trkpt>
      <trkpt lat="40.15386630780995" lon="-3.6755024269223213">
        <ele>659.5999755859375</ele>
        <time>2021-05-22T10:10:02.936Z</time>
      </trkpt>
      <trkpt lat="40.15381157398224" lon="-3.6754673905670643">
        <ele>658.7999877929688</ele>
        <time>2021-05-22T10:10:06.037Z</time>
      </trkpt>
      <trkpt lat="40.153764467686415" lon="-3.67541978135705">
        <ele>658.5999755859375</ele>
        <time>2021-05-22T10:10:09.139Z</time>
      </trkpt>
      <trkpt lat="40.153725408017635" lon="-3.675355911254883">
        <ele>658.0</ele>
        <time>2021-05-22T10:10:12.243Z</time>
      </trkpt>
      <trkpt lat="40.15369137749076" lon="-3.6752785462886095">
        <ele>657.4000244140625</ele>
        <time>2021-05-22T10:10:15.349Z</time>
      </trkpt>
      <trkpt lat="40.15363479964435" lon="-3.6750914622098207">
        <ele>655.5999755859375</ele>
        <time>2021-05-22T10:10:18.459Z</time>
      </trkpt>
      <trkpt lat="40.15360789373517" lon="-3.6749881133437157">
        <ele>654.7999877929688</ele>
        <time>2021-05-22T10:10:21.571Z</time>
      </trkpt>
      <trkpt lat="40.15358006581664" lon="-3.674877807497978">
        <ele>654.0</ele>
        <time>2021-05-22T10:10:24.685Z</time>
      </trkpt>
      <trkpt lat="40.15355424955487" lon="-3.674761885777116">
        <ele>653.4000244140625</ele>
        <time>2021-05-22T10:10:27.801Z</time>
      </trkpt>
      <trkpt lat="40.153533294796944" lon="-3.6746421921998262">
        <ele>653.0</ele>
        <time>2021-05-22T10:10:30.920Z</time>
      </trkpt>
      <trkpt lat="40.15351929701865" lon="-3.6745223309844732">
        <ele>652.5999755859375</ele>
        <time>2021-05-22T10:10:34.041Z</time>
      </trkpt>
      <trkpt lat="40.153518207371235" lon="-3.674399619922042">
        <ele>652.0</ele>
        <time>2021-05-22T10:10:37.165Z</time>
      </trkpt>
      <trkpt lat="40.153520219027996" lon="-3.6742734722793102">
        <ele>651.5999755859375</ele>
        <time>2021-05-22T10:10:40.291Z</time>
      </trkpt>
      <trkpt lat="40.15351410023868" lon="-3.6740354262292385">
        <ele>649.5999755859375</ele>
        <time>2021-05-22T10:10:43.422Z</time>
      </trkpt>
      <trkpt lat="40.15354226343334" lon="-3.673876840621233">
        <ele>648.0</ele>
        <time>2021-05-22T10:10:46.556Z</time>
      </trkpt>
      <trkpt lat="40.153579730540514" lon="-3.6738319974392653">
        <ele>647.0</ele>
        <time>2021-05-22T10:10:49.691Z</time>
      </trkpt>
      <trkpt lat="40.15362742356956" lon="-3.673807354643941">
        <ele>646.5999755859375</ele>
        <time>2021-05-22T10:10:52.828Z</time>
      </trkpt>
      <trkpt lat="40.153731191530824" lon="-3.6738013196736574">
        <ele>645.2000122070312</ele>
        <time>2021-05-22T10:10:55.967Z</time>
      </trkpt>
      <trkpt lat="40.15384241938591" lon="-3.6738112941384315">
        <ele>644.2000122070312</ele>
        <time>2021-05-22T10:10:59.109Z</time>
      </trkpt>
      <trkpt lat="40.153900757431984" lon="-3.6738166585564613">
        <ele>643.7999877929688</ele>
        <time>2021-05-22T10:11:02.253Z</time>
      </trkpt>
      <trkpt lat="40.15396119095385" lon="-3.67382001131773">
        <ele>643.5999755859375</ele>
        <time>2021-05-22T10:11:05.398Z</time>
      </trkpt>
      <trkpt lat="40.15402472577989" lon="-3.6738174967467785">
        <ele>643.4000244140625</ele>
        <time>2021-05-22T10:11:08.545Z</time>
      </trkpt>
      <trkpt lat="40.15408708713949" lon="-3.673814730718732">
        <ele>643.4000244140625</ele>
        <time>2021-05-22T10:11:11.694Z</time>
      </trkpt>
      <trkpt lat="40.15414911322296" lon="-3.673817915841937">
        <ele>643.4000244140625</ele>
        <time>2021-05-22T10:11:14.844Z</time>
      </trkpt>
      <trkpt lat="40.15421139076352" lon="-3.673830907791853">
        <ele>643.4000244140625</ele>
        <time>2021-05-22T10:11:17.996Z</time>
      </trkpt>
      <trkpt lat="40.15434424392879" lon="-3.673881785944104">
        <ele>643.4000244140625</ele>
        <time>2021-05-22T10:11:21.151Z</time>
      </trkpt>
      <trkpt lat="40.15440870076418" lon="-3.673900058493018">
        <ele>643.4000244140625</ele>
        <time>2021-05-22T10:11:24.308Z</time>
      </trkpt>
      <trkpt lat="40.15447173267603" lon="-3.6738946102559566">
        <ele>643.2000122070312</ele>
        <time>2021-05-22T10:11:27.467Z</time>
      </trkpt>
      <trkpt lat="40.154525209218264" lon="-3.6738555505871773">
        <ele>643.2000122070312</ele>
        <time>2021-05-22T10:11:30.627Z</time>
      </trkpt>
      <trkpt lat="40.15457105822861" lon="-3.673794362694025">
        <ele>643.2000122070312</ele>
        <time>2021-05-22T10:11:33.789Z</time>
      </trkpt>
      <trkpt lat="40.15466761775315" lon="-3.6736605875194073">
        <ele>643.2000122070312</ele>
        <time>2021-05-22T10:11:36.955Z</time>
      </trkpt>
      <trkpt lat="40.15471933409572" lon="-3.6735928617417812">
        <ele>643.2000122070312</ele>
        <time>2021-05-22T10:11:40.123Z</time>
      </trkpt>
      <trkpt lat="40.15476945787668" lon="-3.673523124307394">
        <ele>643.2000122070312</ele>
        <time>2021-05-22T10:11:43.292Z</time>
      </trkpt>
      <trkpt lat="40.15481245703995" lon="-3.6734469328075647">
        <ele>643.2000122070312</ele>
        <time>2021-05-22T10:11:46.463Z</time>
      </trkpt>
      <trkpt lat="40.15484397299588" lon="-3.673364454880357">
        <ele>643.2000122070312</ele>
        <time>2021-05-22T10:11:49.636Z</time>
      </trkpt>
      <trkpt lat="40.15486367046833" lon="-3.6732766963541508">
        <ele>643.2000122070312</ele>
        <time>2021-05-22T10:11:52.811Z</time>
      </trkpt>
      <trkpt lat="40.154880015179515" lon="-3.6731899436563253">
        <ele>643.0</ele>
        <time>2021-05-22T10:11:55.988Z</time>
      </trkpt>
      <trkpt lat="40.154899545013905" lon="-3.673112327232957">
        <ele>642.7999877929688</ele>
        <time>2021-05-22T10:11:59.166Z</time>
      </trkpt>
      <trkpt lat="40.15492033213377" lon="-3.6730450205504894">
        <ele>642.5999755859375</ele>
        <time>2021-05-22T10:12:02.346Z</time>
      </trkpt>
      <trkpt lat="40.15493734739721" lon="-3.6729873530566692">
        <ele>642.2000122070312</ele>
        <time>2021-05-22T10:12:05.527Z</time>
      </trkpt>
      <trkpt lat="40.15494170598686" lon="-3.6729342956095934">
        <ele>641.5999755859375</ele>
        <time>2021-05-22T10:12:08.709Z</time>
      </trkpt>
      <trkpt lat="40.154889235273004" lon="-3.672859612852335">
        <ele>641.0</ele>
        <time>2021-05-22T10:12:11.893Z</time>
      </trkpt>
      <trkpt lat="40.15484707430005" lon="-3.672833712771535">
        <ele>640.5999755859375</ele>
        <time>2021-05-22T10:12:15.078Z</time>
      </trkpt>
      <trkpt lat="40.154797956347466" lon="-3.672816613689065">
        <ele>640.0</ele>
        <time>2021-05-22T10:12:18.265Z</time>
      </trkpt>
      <trkpt lat="40.154690500348806" lon="-3.672806052491069">
        <ele>639.4000244140625</ele>
        <time>2021-05-22T10:12:21.454Z</time>
      </trkpt>
      <trkpt lat="40.154579523950815" lon="-3.6727908812463284">
        <ele>638.5999755859375</ele>
        <time>2021-05-22T10:12:24.646Z</time>
      </trkpt>
      <trkpt lat="40.15452613122761" lon="-3.672771016135812">
        <ele>638.2000122070312</ele>
        <time>2021-05-22T10:12:27.840Z</time>
      </trkpt>
      <trkpt lat="40.1544748339802" lon="-3.672744780778885">
        <ele>637.7999877929688</ele>
        <time>2021-05-22T10:12:31.035Z</time>
      </trkpt>
      <trkpt lat="40.154424123466015" lon="-3.6727184616029263">
        <ele>637.5999755859375</ele>
        <time>2021-05-22T10:12:34.231Z</time>
      </trkpt>
      <trkpt lat="40.15437240712345" lon="-3.672695243731141">
        <ele>637.2000122070312</ele>
        <time>2021-05-22T10:12:37.429Z</time>
      </trkpt>
      <trkpt lat="40.15432094223797" lon="-3.672676384449005">
        <ele>637.2000122070312</ele>
        <time>2021-05-22T10:12:40.628Z</time>
      </trkpt>
      <trkpt lat="40.15427182428539" lon="-3.6726609617471695">
        <ele>637.0</ele>
        <time>2021-05-22T10:12:43.829Z</time>
      </trkpt>
      <trkpt lat="40.15417912043631" lon="-3.672627182677388">
        <ele>637.0</ele>
        <time>2021-05-22T10:12:47.032Z</time>
      </trkpt>
      <trkpt lat="40.15413461253047" lon="-3.672611592337489">
        <ele>637.0</ele>
        <time>2021-05-22T10:12:50.236Z</time>
      </trkpt>
      <trkpt lat="40.154089936986566" lon="-3.672594577074051">
        <ele>637.0</ele>
        <time>2021-05-22T10:12:53.441Z</time>
      </trkpt>
      <trkpt lat="40.1539948862046" lon="-3.6725516617298126">
        <ele>637.0</ele>
        <time>2021-05-22T10:12:56.649Z</time>
      </trkpt>
      <trkpt lat="40.15389371663332" lon="-3.6725157033652067">
        <ele>637.2000122070312</ele>
        <time>2021-05-22T10:12:59.860Z</time>
      </trkpt>
      <trkpt lat="40.153785925358534" lon="-3.6724697705358267">
        <ele>637.5999755859375</ele>
        <time>2021-05-22T10:13:03.074Z</time>
      </trkpt>
      <trkpt lat="40.153734209015965" lon="-3.6724472232162952">
        <ele>637.7999877929688</ele>
        <time>2021-05-22T10:13:06.289Z</time>
      </trkpt>
      <trkpt lat="40.15360143966973" lon="-3.6723447125405073">
        <ele>638.2000122070312</ele>
        <time>2021-05-22T10:13:09.508Z</time>
      </trkpt>
      <trkpt lat="40.153544023633" lon="-3.672223510220647">
        <ele>638.4000244140625</ele>
        <time>2021-05-22T10:13:12.730Z</time>
      </trkpt>
      <trkpt lat="40.15351988375187" lon="-3.6720816884189844">
        <ele>638.7999877929688</ele>
        <time>2021-05-22T10:13:15.955Z</time>
      </trkpt>
      <trkpt lat="40.15353245660663" lon="-3.671937435865402">
        <ele>639.0</ele>
        <time>2021-05-22T10:13:19.183Z</time>
      </trkpt>
      <trkpt lat="40.15355894342065" lon="-3.6717939376831055">
        <ele>639.2000122070312</ele>
        <time>2021-05-22T10:13:22.414Z</time>
      </trkpt>
      <trkpt lat="40.15359012410045" lon="-3.671641554683447">
        <ele>639.4000244140625</ele>
        <time>2021-05-22T10:13:25.648Z</time>
      </trkpt>
      <trkpt lat="40.153618371114135" lon="-3.6714893393218517">
        <ele>639.4000244140625</ele>
        <time>2021-05-22T10:13:28.885Z</time>
      </trkpt>
      <trkpt lat="40.153646282851696" lon="-3.671340560540557">
        <ele>639.5999755859375</ele>
        <time>2021-05-22T10:13:32.125Z</time>
      </trkpt>
      <trkpt lat="40.15367469750345" lon="-3.6711963918060064">
        <ele>639.4000244140625</ele>
        <time>2021-05-22T10:13:35.368Z</time>
      </trkpt>
      <trkpt lat="40.15369229950011" lon="-3.6711280792951584">
        <ele>639.4000244140625</ele>
        <time>2021-05-22T10:13:38.612Z</time>
      </trkpt>
      <trkpt lat="40.15375155955553" lon="-3.6710185278207064">
        <ele>639.4000244140625</ele>
        <time>2021-05-22T10:13:41.859Z</time>
      </trkpt>
      <trkpt lat="40.15379388816655" lon="-3.6709802225232124">
        <ele>639.4000244140625</ele>
        <time>2021-05-22T10:13:45.107Z</time>
      </trkpt>
      <trkpt lat="40.15389455482364" lon="-3.6709554959088564">
        <ele>639.4000244140625</ele>
        <time>2021-05-22T10:13:48.358Z</time>
      </trkpt>
      <trkpt lat="40.154004441574216" lon="-3.6709795519709587">
        <ele>639.4000244140625</ele>
        <time>2021-05-22T10:13:51.612Z</time>
      </trkpt>
      <trkpt lat="40.15412589535117" lon="-3.67102506570518">
        <ele>639.4000244140625</ele>
        <time>2021-05-22T10:13:54.869Z</time>
      </trkpt>
      <trkpt lat="40.15425975434482" lon="-3.6710735131055117">
        <ele>639.2000122070312</ele>
        <time>2021-05-22T10:13:58.129Z</time>
      </trkpt>
      <trkpt lat="40.154331587255" lon="-3.671099077910185">
        <ele>639.2000122070312</ele>
        <time>2021-05-22T10:14:01.391Z</time>
      </trkpt>
      <trkpt lat="40.15440777875483" lon="-3.6711262352764606">
        <ele>639.0</ele>
        <time>2021-05-22T10:14:04.655Z</time>
      </trkpt>
      <trkpt lat="40.154487155377865" lon="-3.671153225004673">
        <ele>638.7999877929688</ele>
        <time>2021-05-22T10:14:07.922Z</time>
      </trkpt>
      <trkpt lat="40.15466250479221" lon="-3.6712031811475754">
        <ele>638.7999877929688</ele>
        <time>2021-05-22T10:14:11.193Z</time>
      </trkpt>
      <trkpt lat="40.15475663356483" lon="-3.671218939125538">
        <ele>638.7999877929688</ele>
        <time>2021-05-22T10:14:14.467Z</time>
      </trkpt>
      <trkpt lat="40.154947908595204" lon="-3.67124835960567">
        <ele>638.7999877929688</ele>
        <time>2021-05-22T10:14:17.746Z</time>
      </trkpt>
      <trkpt lat="40.15513784252107" lon="-3.671279875561595">
        <ele>638.0</ele>
        <time>2021-05-22T10:14:21.030Z</time>
      </trkpt>
      <trkpt lat="40.155329536646605" lon="-3.6713132355362177">
        <ele>636.7999877929688</ele>
        <time>2021-05-22T10:14:24.319Z</time>
      </trkpt>
      <trkpt lat="40.155423916876316" lon="-3.671330837532878">
        <ele>635.5999755859375</ele>
        <time>2021-05-22T10:14:27.610Z</time>
      </trkpt>
      <trkpt lat="40.15551595017314" lon="-3.671347601339221">
        <ele>633.2000122070312</ele>
        <time>2021-05-22T10:14:30.903Z</time>
      </trkpt>
      <trkpt lat="40.15560429543257" lon="-3.67136319167912">
        <ele>632.5999755859375</ele>
        <time>2021-05-22T10:14:34.199Z</time>
      </trkpt>
      <trkpt lat="40.15568685717881" lon="-3.6713819671422243">
        <ele>632.4000244140625</ele>
        <time>2021-05-22T10:14:37.497Z</time>
      </trkpt>
      <trkpt lat="40.1558393239975" lon="-3.671445418149233">
        <ele>632.0</ele>
        <time>2021-05-22T10:14:40.799Z</time>
      </trkpt>
      <trkpt lat="40.15591953881085" lon="-3.6714923568069935">
        <ele>631.5999755859375</ele>
        <time>2021-05-22T10:14:44.103Z</time>
      </trkpt>
      <trkpt lat="40.1560103148222" lon="-3.6715367808938026">
        <ele>631.4000244140625</ele>
        <time>2021-05-22T10:14:47.410Z</time>
      </trkpt>
      <trkpt lat="40.15611106529832" lon="-3.6715680453926325">
        <ele>631.2000122070312</ele>
        <time>2021-05-22T10:14:50.719Z</time>
      </trkpt>
      <trkpt lat="40.15621424652636" lon="-3.671576678752899">
        <ele>631.0</ele>
        <time>2021-05-22T10:14:54.031Z</time>
      </trkpt>
      <trkpt lat="40.156401162967086" lon="-3.6715085338801146">
        <ele>630.7999877929688</ele>
        <time>2021-05-22T10:14:57.348Z</time>
      </trkpt>
      <trkpt lat="40.15648481436074" lon="-3.6714508663862944">
        <ele>630.7999877929688</ele>
        <time>2021-05-22T10:15:00.668Z</time>
      </trkpt>
      <trkpt lat="40.15656553208828" lon="-3.671391438692808">
        <ele>630.7999877929688</ele>
        <time>2021-05-22T10:15:03.990Z</time>
      </trkpt>
      <trkpt lat="40.15672981739044" lon="-3.671281887218356">
        <ele>630.0</ele>
        <time>2021-05-22T10:15:07.317Z</time>
      </trkpt>
      <trkpt lat="40.15690038911998" lon="-3.671189686283469">
        <ele>628.7999877929688</ele>
        <time>2021-05-22T10:15:10.648Z</time>
      </trkpt>
      <trkpt lat="40.156986555084586" lon="-3.6711466033011675">
        <ele>628.2000122070312</ele>
        <time>2021-05-22T10:15:13.982Z</time>
      </trkpt>
      <trkpt lat="40.15707179903984" lon="-3.6711033526808023">
        <ele>627.4000244140625</ele>
        <time>2021-05-22T10:15:17.318Z</time>
      </trkpt>
      <trkpt lat="40.157237676903605" lon="-3.6710157617926598">
        <ele>626.4000244140625</ele>
        <time>2021-05-22T10:15:20.659Z</time>
      </trkpt>
      <trkpt lat="40.1573172211647" lon="-3.670971170067787">
        <ele>626.2000122070312</ele>
        <time>2021-05-22T10:15:24.002Z</time>
      </trkpt>
      <trkpt lat="40.15739416703582" lon="-3.670927584171295">
        <ele>626.2000122070312</ele>
        <time>2021-05-22T10:15:27.347Z</time>
      </trkpt>
      <trkpt lat="40.1575418561697" lon="-3.6708487942814827">
        <ele>626.0</ele>
        <time>2021-05-22T10:15:30.696Z</time>
      </trkpt>
      <trkpt lat="40.15769289806485" lon="-3.6707741115242243">
        <ele>626.0</ele>
        <time>2021-05-22T10:15:34.049Z</time>
      </trkpt>
      <trkpt lat="40.157845532521605" lon="-3.6706975009292364">
        <ele>626.0</ele>
        <time>2021-05-22T10:15:37.407Z</time>
      </trkpt>
      <trkpt lat="40.157996490597725" lon="-3.6706073954701424">
        <ele>626.2000122070312</ele>
        <time>2021-05-22T10:15:40.769Z</time>
      </trkpt>
      <trkpt lat="40.158069329336286" lon="-3.670558948069811">
        <ele>626.4000244140625</ele>
        <time>2021-05-22T10:15:44.133Z</time>
      </trkpt>
      <trkpt lat="40.15814141370356" lon="-3.6705093272030354">
        <ele>626.4000244140625</ele>
        <time>2021-05-22T10:15:47.499Z</time>
      </trkpt>
      <trkpt lat="40.15827711671591" lon="-3.670404050499201">
        <ele>626.5999755859375</ele>
        <time>2021-05-22T10:15:50.869Z</time>
      </trkpt>
      <trkpt lat="40.158344926312566" lon="-3.6703613866120577">
        <ele>626.5999755859375</ele>
        <time>2021-05-22T10:15:54.241Z</time>
      </trkpt>
      <trkpt lat="40.1584139931947" lon="-3.6703333910554647">
        <ele>626.5999755859375</ele>
        <time>2021-05-22T10:15:57.615Z</time>
      </trkpt>
      <trkpt lat="40.15854449942708" lon="-3.670285865664482">
        <ele>626.5999755859375</ele>
        <time>2021-05-22T10:16:00.993Z</time>
      </trkpt>
      <trkpt lat="40.158603424206376" lon="-3.670254098251462">
        <ele>626.5999755859375</ele>
        <time>2021-05-22T10:16:04.372Z</time>
      </trkpt>
      <trkpt lat="40.15865966677666" lon="-3.670216631144285">
        <ele>626.4000244140625</ele>
        <time>2021-05-22T10:16:07.753Z</time>
      </trkpt>
      <trkpt lat="40.15871297568083" lon="-3.670172542333603">
        <ele>626.4000244140625</ele>
        <time>2021-05-22T10:16:11.135Z</time>
      </trkpt>
      <trkpt lat="40.1587644405663" lon="-3.6701234243810177">
        <ele>626.0</ele>
        <time>2021-05-22T10:16:14.519Z</time>
      </trkpt>
      <trkpt lat="40.15886980108917" lon="-3.67003264836967">
        <ele>625.4000244140625</ele>
        <time>2021-05-22T10:16:17.906Z</time>
      </trkpt>
      <trkpt lat="40.15892721712589" lon="-3.6699974443763494">
        <ele>625.0</ele>
        <time>2021-05-22T10:16:21.295Z</time>
      </trkpt>
      <trkpt lat="40.15899024903774" lon="-3.6699694488197565">
        <ele>625.0</ele>
        <time>2021-05-22T10:16:24.686Z</time>
      </trkpt>
      <trkpt lat="40.15913081355393" lon="-3.6699064169079065">
        <ele>624.4000244140625</ele>
        <time>2021-05-22T10:16:28.081Z</time>
      </trkpt>
      <trkpt lat="40.15927347354591" lon="-3.669798457995057">
        <ele>624.2000122070312</ele>
        <time>2021-05-22T10:16:31.480Z</time>
      </trkpt>
      <trkpt lat="40.159346060827374" lon="-3.669733749702573">
        <ele>623.7999877929688</ele>
        <time>2021-05-22T10:16:34.881Z</time>
      </trkpt>
      <trkpt lat="40.159420408308506" lon="-3.6696685384958982">
        <ele>623.4000244140625</ele>
        <time>2021-05-22T10:16:38.284Z</time>
      </trkpt>
      <trkpt lat="40.15949626453221" lon="-3.669599639251828">
        <ele>622.5999755859375</ele>
        <time>2021-05-22T10:16:41.690Z</time>
      </trkpt>
      <trkpt lat="40.159571366384625" lon="-3.6695264652371407">
        <ele>622.2000122070312</ele>
        <time>2021-05-22T10:16:45.098Z</time>
      </trkpt>
      <trkpt lat="40.15965024009347" lon="-3.669458068907261">
        <ele>621.4000244140625</ele>
        <time>2021-05-22T10:16:48.509Z</time>
      </trkpt>
      <trkpt lat="40.159734981134534" lon="-3.6693987250328064">
        <ele>620.7999877929688</ele>
        <time>2021-05-22T10:16:51.922Z</time>
      </trkpt>
      <trkpt lat="40.15982324257493" lon="-3.6693444941192865">
        <ele>620.4000244140625</ele>
        <time>2021-05-22T10:16:55.338Z</time>
      </trkpt>
      <trkpt lat="40.15991209074855" lon="-3.66929336450994">
        <ele>619.4000244140625</ele>
        <time>2021-05-22T10:16:58.756Z</time>
      </trkpt>
      <trkpt lat="40.16000160947442" lon="-3.6692458391189575">
        <ele>618.0</ele>
        <time>2021-05-22T10:17:02.177Z</time>
      </trkpt>
      <trkpt lat="40.16008953563869" lon="-3.6691973078995943">
        <ele>617.5999755859375</ele>
        <time>2021-05-22T10:17:05.600Z</time>
      </trkpt>
      <trkpt lat="40.1602547429502" lon="-3.669087002053857">
        <ele>616.4000244140625</ele>
        <time>2021-05-22T10:17:09.028Z</time>
      </trkpt>
      <trkpt lat="40.16041534021497" lon="-3.6689782049506903">
        <ele>615.2000122070312</ele>
        <time>2021-05-22T10:17:12.460Z</time>
      </trkpt>
      <trkpt lat="40.16056998632848" lon="-3.668868988752365">
        <ele>614.0</ele>
        <time>2021-05-22T10:17:15.897Z</time>
      </trkpt>
      <trkpt lat="40.16064617782831" lon="-3.668824313208461">
        <ele>613.5999755859375</ele>
        <time>2021-05-22T10:17:19.336Z</time>
      </trkpt>
      <trkpt lat="40.16072320751846" lon="-3.6688026878982782">
        <ele>613.0</ele>
        <time>2021-05-22T10:17:22.777Z</time>
      </trkpt>
      <trkpt lat="40.16087324358523" lon="-3.668805453926325">
        <ele>612.4000244140625</ele>
        <time>2021-05-22T10:17:26.222Z</time>
      </trkpt>
      <trkpt lat="40.16094457358122" lon="-3.6688161827623844">
        <ele>612.4000244140625</ele>
        <time>2021-05-22T10:17:29.669Z</time>
      </trkpt>
      <trkpt lat="40.16101313754916" lon="-3.668829593807459">
        <ele>612.2000122070312</ele>
        <time>2021-05-22T10:17:33.118Z</time>
      </trkpt>
      <trkpt lat="40.16114942729473" lon="-3.6688470281660557">
        <ele>611.7999877929688</ele>
        <time>2021-05-22T10:17:36.570Z</time>
      </trkpt>
      <trkpt lat="40.161272725090384" lon="-3.6688323598355055">
        <ele>611.5999755859375</ele>
        <time>2021-05-22T10:17:40.025Z</time>
      </trkpt>
      <trkpt lat="40.16138780862093" lon="-3.668803106993437">
        <ele>611.5999755859375</ele>
        <time>2021-05-22T10:17:43.483Z</time>
      </trkpt>
      <trkpt lat="40.16149350441992" lon="-3.668765975162387">
        <ele>611.4000244140625</ele>
        <time>2021-05-22T10:17:46.944Z</time>
      </trkpt>
      <trkpt lat="40.161547400057316" lon="-3.6687489598989487">
        <ele>611.5999755859375</ele>
        <time>2021-05-22T10:17:50.407Z</time>
      </trkpt>
      <trkpt lat="40.16160330735147" lon="-3.668741248548031">
        <ele>611.5999755859375</ele>
        <time>2021-05-22T10:17:53.871Z</time>
      </trkpt>
      <trkpt lat="40.16171512193978" lon="-3.6687580961734056">
        <ele>611.4000244140625</ele>
        <time>2021-05-22T10:17:57.338Z</time>
      </trkpt>
      <trkpt lat="40.161770191043615" lon="-3.6687735188752413">
        <ele>611.2000122070312</ele>
        <time>2021-05-22T10:18:00.807Z</time>
      </trkpt>
      <trkpt lat="40.161822997033596" lon="-3.6687891092151403">
        <ele>611.0</ele>
        <time>2021-05-22T10:18:04.277Z</time>
      </trkpt>
      <trkpt lat="40.161928441375494" lon="-3.6688244808465242">
        <ele>610.7999877929688</ele>
        <time>2021-05-22T10:18:07.750Z</time>
      </trkpt>
      <trkpt lat="40.16203916631639" lon="-3.668866138905287">
        <ele>610.5999755859375</ele>
        <time>2021-05-22T10:18:11.226Z</time>
      </trkpt>
      <trkpt lat="40.16209599561989" lon="-3.6688918713480234">
        <ele>610.5999755859375</ele>
        <time>2021-05-22T10:18:14.703Z</time>
      </trkpt>
      <trkpt lat="40.162151316180825" lon="-3.668919950723648">
        <ele>610.4000244140625</ele>
        <time>2021-05-22T10:18:18.182Z</time>
      </trkpt>
      <trkpt lat="40.16220789402723" lon="-3.668944761157036">
        <ele>610.4000244140625</ele>
        <time>2021-05-22T10:18:21.662Z</time>
      </trkpt>
      <trkpt lat="40.162263130769134" lon="-3.668966805562377">
        <ele>610.4000244140625</ele>
        <time>2021-05-22T10:18:25.144Z</time>
      </trkpt>
      <trkpt lat="40.16236798837781" lon="-3.669018689543009">
        <ele>610.2000122070312</ele>
        <time>2021-05-22T10:18:28.629Z</time>
      </trkpt>
      <trkpt lat="40.16247200779617" lon="-3.6690670531243086">
        <ele>610.0</ele>
        <time>2021-05-22T10:18:32.117Z</time>
      </trkpt>
      <trkpt lat="40.16252640634775" lon="-3.669083397835493">
        <ele>609.7999877929688</ele>
        <time>2021-05-22T10:18:35.606Z</time>
      </trkpt>
      <trkpt lat="40.162579379975796" lon="-3.6690930370241404">
        <ele>609.7999877929688</ele>
        <time>2021-05-22T10:18:39.096Z</time>
      </trkpt>
      <trkpt lat="40.16268306411803" lon="-3.6691015865653753">
        <ele>609.5999755859375</ele>
        <time>2021-05-22T10:18:42.589Z</time>
      </trkpt>
      <trkpt lat="40.16278574243188" lon="-3.6691160034388304">
        <ele>609.5999755859375</ele>
        <time>2021-05-22T10:18:46.085Z</time>
      </trkpt>
      <trkpt lat="40.16283058561385" lon="-3.6691280733793974">
        <ele>609.5999755859375</ele>
        <time>2021-05-22T10:18:49.582Z</time>
      </trkpt>
      <trkpt lat="40.16288347542286" lon="-3.669135281816125">
        <ele>609.0</ele>
        <time>2021-05-22T10:18:53.080Z</time>
      </trkpt>
      <trkpt lat="40.16292991116643" lon="-3.6691403947770596">
        <ele>608.5999755859375</ele>
        <time>2021-05-22T10:18:56.579Z</time>
      </trkpt>
      <trkpt lat="40.163062093779445" lon="-3.669147016480565">
        <ele>608.5999755859375</ele>
        <time>2021-05-22T10:19:00.082Z</time>
      </trkpt>
      <trkpt lat="40.163143230602145" lon="-3.6691559851169586">
        <ele>608.7999877929688</ele>
        <time>2021-05-22T10:19:03.587Z</time>
      </trkpt>
      <trkpt lat="40.163220427930355" lon="-3.6691652052104473">
        <ele>609.0</ele>
        <time>2021-05-22T10:19:07.094Z</time>
      </trkpt>
      <trkpt lat="40.16330374404788" lon="-3.6691731680184603">
        <ele>609.2000122070312</ele>
        <time>2021-05-22T10:19:10.603Z</time>
      </trkpt>
      <trkpt lat="40.163397369906306" lon="-3.669184148311615">
        <ele>609.2000122070312</ele>
        <time>2021-05-22T10:19:14.115Z</time>
      </trkpt>
      <trkpt lat="40.16349049285054" lon="-3.6691859923303127">
        <ele>609.2000122070312</ele>
        <time>2021-05-22T10:19:17.629Z</time>
      </trkpt>
      <trkpt lat="40.16357967630029" lon="-3.6691792868077755">
        <ele>609.0</ele>
        <time>2021-05-22T10:19:21.145Z</time>
      </trkpt>
      <trkpt lat="40.16362284310162" lon="-3.669173000380397">
        <ele>609.2000122070312</ele>
        <time>2021-05-22T10:19:24.662Z</time>
      </trkpt>
      <trkpt lat="40.16366911120713" lon="-3.669169982895255">
        <ele>609.2000122070312</ele>
        <time>2021-05-22T10:19:28.181Z</time>
      </trkpt>
      <trkpt lat="40.1637689396739" lon="-3.669158248230815">
        <ele>609.2000122070312</ele>
        <time>2021-05-22T10:19:31.702Z</time>
      </trkpt>
      <trkpt lat="40.16386575065553" lon="-3.669136371463537">
        <ele>609.0</ele>
        <time>2021-05-22T10:19:35.226Z</time>
      </trkpt>
      <trkpt lat="40.163909420371056" lon="-3.6691259779036045">
        <ele>609.0</ele>
        <time>2021-05-22T10:19:38.751Z</time>
      </trkpt>
      <trkpt lat="40.164052080363035" lon="-3.669142657890916">
        <ele>608.5999755859375</ele>
        <time>2021-05-22T10:19:42.280Z</time>
      </trkpt>
      <trkpt lat="40.16414947807789" lon="-3.6691577453166246">
        <ele>608.0</ele>
        <time>2021-05-22T10:19:45.811Z</time>
      </trkpt>
      <trkpt lat="40.1642438583076" lon="-3.669176436960697">
        <ele>607.7999877929688</ele>
        <time>2021-05-22T10:19:49.345Z</time>
      </trkpt>
      <trkpt lat="40.16433672979474" lon="-3.669198816642165">
        <ele>607.7999877929688</ele>
        <time>2021-05-22T10:19:52.881Z</time>
      </trkpt>
      <trkpt lat="40.16443295404315" lon="-3.6692235432565212">
        <ele>607.7999877929688</ele>
        <time>2021-05-22T10:19:56.419Z</time>
      </trkpt>
      <trkpt lat="40.16452859155834" lon="-3.669252712279558">
        <ele>607.5999755859375</ele>
        <time>2021-05-22T10:19:59.960Z</time>
      </trkpt>
      <trkpt lat="40.1646151766181" lon="-3.6692896764725447">
        <ele>607.5999755859375</ele>
        <time>2021-05-22T10:20:03.503Z</time>
      </trkpt>
      <trkpt lat="40.16465038061142" lon="-3.669318426400423">
        <ele>607.5999755859375</ele>
        <time>2021-05-22T10:20:07.047Z</time>
      </trkpt>
      <trkpt lat="40.164680387824774" lon="-3.6693501099944115">
        <ele>607.4000244140625</ele>
        <time>2021-05-22T10:20:10.592Z</time>
      </trkpt>
      <trkpt lat="40.16473017632961" lon="-3.669413309544325">
        <ele>607.4000244140625</ele>
        <time>2021-05-22T10:20:14.139Z</time>
      </trkpt>
      <trkpt lat="40.164786418899894" lon="-3.669466618448496">
        <ele>607.5999755859375</ele>
        <time>2021-05-22T10:20:17.688Z</time>
      </trkpt>
      <trkpt lat="40.164820197969675" lon="-3.669486567378044">
        <ele>607.5999755859375</ele>
        <time>2021-05-22T10:20:21.238Z</time>
      </trkpt>
      <trkpt lat="40.1648982334882" lon="-3.6694887466728687">
        <ele>607.5999755859375</ele>
        <time>2021-05-22T10:20:24.790Z</time>
      </trkpt>
      <trkpt lat="40.16493620350957" lon="-3.669466869905591">
        <ele>607.5999755859375</ele>
        <time>2021-05-22T10:20:28.343Z</time>
      </trkpt>
      <trkpt lat="40.165002420544624" lon="-3.6693957075476646">
        <ele>607.5999755859375</ele>
        <time>2021-05-22T10:20:31.898Z</time>
      </trkpt>
      <trkpt lat="40.1650763489306" lon="-3.669322282075882">
        <ele>608.0</ele>
        <time>2021-05-22T10:20:35.456Z</time>
      </trkpt>
      <trkpt lat="40.165118258446455" lon="-3.6692909337580204">
        <ele>608.0</ele>
        <time>2021-05-22T10:20:39.015Z</time>
      </trkpt>
      <trkpt lat="40.16516352072358" lon="-3.669269308447838">
        <ele>608.4000244140625</ele>
        <time>2021-05-22T10:20:42.575Z</time>
      </trkpt>
      <trkpt lat="40.165210543200374" lon="-3.6692617647349834">
        <ele>608.4000244140625</ele>
        <time>2021-05-22T10:20:46.136Z</time>
      </trkpt>
      <trkpt lat="40.165257565677166" lon="-3.66926746442914">
        <ele>608.5999755859375</ele>
        <time>2021-05-22T10:20:49.699Z</time>
      </trkpt>
      <trkpt lat="40.1653438154608" lon="-3.669315241277218">
        <ele>608.5999755859375</ele>
        <time>2021-05-22T10:20:53.264Z</time>
      </trkpt>
      <trkpt lat="40.16541154123843" lon="-3.6694004014134407">
        <ele>608.7999877929688</ele>
        <time>2021-05-22T10:20:56.831Z</time>
      </trkpt>
      <trkpt lat="40.16546786762774" lon="-3.669493608176708">
        <ele>608.7999877929688</ele>
        <time>2021-05-22T10:21:00.401Z</time>
      </trkpt>
      <trkpt lat="40.16550064086914" lon="-3.6695297341793776">
        <ele>609.0</ele>
        <time>2021-05-22T10:21:03.972Z</time>
      </trkpt>
      <trkpt lat="40.165541963651776" lon="-3.669543731957674">
        <ele>609.0</ele>
        <time>2021-05-22T10:21:07.544Z</time>
      </trkpt>
      <trkpt lat="40.16558370552957" lon="-3.669530740007758">
        <ele>609.0</ele>
        <time>2021-05-22T10:21:11.117Z</time>
      </trkpt>
      <trkpt lat="40.16561781987548" lon="-3.6694943625479937">
        <ele>609.0</ele>
        <time>2021-05-22T10:21:14.691Z</time>
      </trkpt>
      <trkpt lat="40.16565847210586" lon="-3.669389169663191">
        <ele>609.0</ele>
        <time>2021-05-22T10:21:18.268Z</time>
      </trkpt>
      <trkpt lat="40.165689904242754" lon="-3.669274505227804">
        <ele>608.7999877929688</ele>
        <time>2021-05-22T10:21:21.847Z</time>
      </trkpt>
      <trkpt lat="40.16572301276028" lon="-3.669157661497593">
        <ele>608.7999877929688</ele>
        <time>2021-05-22T10:21:25.428Z</time>
      </trkpt>
      <trkpt lat="40.16575779765844" lon="-3.6690378841012716">
        <ele>608.5999755859375</ele>
        <time>2021-05-22T10:21:29.012Z</time>
      </trkpt>
      <trkpt lat="40.16577531583607" lon="-3.6689790431410074">
        <ele>608.5999755859375</ele>
        <time>2021-05-22T10:21:32.597Z</time>
      </trkpt>
      <trkpt lat="40.16579367220402" lon="-3.6689212918281555">
        <ele>608.5999755859375</ele>
        <time>2021-05-22T10:21:36.183Z</time>
      </trkpt>
      <trkpt lat="40.16583055257797" lon="-3.6688026040792465">
        <ele>608.5999755859375</ele>
        <time>2021-05-22T10:21:39.772Z</time>
      </trkpt>
      <trkpt lat="40.16586475074291" lon="-3.6686792224645615">
        <ele>608.2000122070312</ele>
        <time>2021-05-22T10:21:43.364Z</time>
      </trkpt>
      <trkpt lat="40.1659033074975" lon="-3.668552068993449">
        <ele>608.0</ele>
        <time>2021-05-22T10:21:46.958Z</time>
      </trkpt>
      <trkpt lat="40.165948988869786" lon="-3.6684235744178295">
        <ele>607.5999755859375</ele>
        <time>2021-05-22T10:21:50.555Z</time>
      </trkpt>
      <trkpt lat="40.165976816788316" lon="-3.6683611292392015">
        <ele>607.5999755859375</ele>
        <time>2021-05-22T10:21:54.153Z</time>
      </trkpt>
      <trkpt lat="40.166010344401" lon="-3.6683025397360325">
        <ele>607.4000244140625</ele>
        <time>2021-05-22T10:21:57.753Z</time>
      </trkpt>
      <trkpt lat="40.166090559214354" lon="-3.6681973468512297">
        <ele>607.2000122070312</ele>
        <time>2021-05-22T10:22:01.356Z</time>
      </trkpt>
      <trkpt lat="40.166137581691146" lon="-3.6681540962308645">
        <ele>606.7999877929688</ele>
        <time>2021-05-22T10:22:04.960Z</time>
      </trkpt>
      <trkpt lat="40.16623925417662" lon="-3.66808352060616">
        <ele>606.5999755859375</ele>
        <time>2021-05-22T10:22:08.567Z</time>
      </trkpt>
      <trkpt lat="40.1662918087095" lon="-3.6680578719824553">
        <ele>606.5999755859375</ele>
        <time>2021-05-22T10:22:12.176Z</time>
      </trkpt>
      <trkpt lat="40.16634645871818" lon="-3.6680384259670973">
        <ele>606.4000244140625</ele>
        <time>2021-05-22T10:22:15.786Z</time>
      </trkpt>
      <trkpt lat="40.16640244983137" lon="-3.668030546978116">
        <ele>606.4000244140625</ele>
        <time>2021-05-22T10:22:19.398Z</time>
      </trkpt>
      <trkpt lat="40.16645718365908" lon="-3.6680295411497355">
        <ele>606.2000122070312</ele>
        <time>2021-05-22T10:22:23.011Z</time>
      </trkpt>
      <trkpt lat="40.16651024110615" lon="-3.668031385168433">
        <ele>606.2000122070312</ele>
        <time>2021-05-22T10:22:26.625Z</time>
      </trkpt>
      <trkpt lat="40.166562628000975" lon="-3.6680378392338753">
        <ele>605.7999877929688</ele>
        <time>2021-05-22T10:22:30.241Z</time>
      </trkpt>
      <trkpt lat="40.16661434434354" lon="-3.668044628575444">
        <ele>605.7999877929688</ele>
        <time>2021-05-22T10:22:33.858Z</time>
      </trkpt>
      <trkpt lat="40.1667149271816" lon="-3.6680583748966455">
        <ele>605.5999755859375</ele>
        <time>2021-05-22T10:22:37.478Z</time>
      </trkpt>
      <trkpt lat="40.16681701876223" lon="-3.6680778209120035">
        <ele>605.4000244140625</ele>
        <time>2021-05-22T10:22:41.100Z</time>
      </trkpt>
      <trkpt lat="40.166870411485434" lon="-3.6680860351771116">
        <ele>605.2000122070312</ele>
        <time>2021-05-22T10:22:44.724Z</time>
      </trkpt>
      <trkpt lat="40.166923301294446" lon="-3.6680928245186806">
        <ele>605.2000122070312</ele>
        <time>2021-05-22T10:22:48.349Z</time>
      </trkpt>
      <trkpt lat="40.167025895789266" lon="-3.6681075766682625">
        <ele>605.0</ele>
        <time>2021-05-22T10:22:51.977Z</time>
      </trkpt>
      <trkpt lat="40.16712664626539" lon="-3.6681229155510664">
        <ele>604.7999877929688</ele>
        <time>2021-05-22T10:22:55.607Z</time>
      </trkpt>
      <trkpt lat="40.16717752441764" lon="-3.668123669922352">
        <ele>604.7999877929688</ele>
        <time>2021-05-22T10:22:59.239Z</time>
      </trkpt>
      <trkpt lat="40.16722848638892" lon="-3.668112102895975">
        <ele>604.7999877929688</ele>
        <time>2021-05-22T10:23:02.872Z</time>
      </trkpt>
      <trkpt lat="40.167277017608285" lon="-3.668084694072604">
        <ele>604.7999877929688</ele>
        <time>2021-05-22T10:23:06.506Z</time>
      </trkpt>
      <trkpt lat="40.16735262237489" lon="-3.6679873801767826">
        <ele>604.7999877929688</ele>
        <time>2021-05-22T10:23:10.143Z</time>
      </trkpt>
      <trkpt lat="40.167376259341836" lon="-3.6679223366081715">
        <ele>604.7999877929688</ele>
        <time>2021-05-22T10:23:13.782Z</time>
      </trkpt>
      <trkpt lat="40.16740174032748" lon="-3.667776994407177">
        <ele>604.7999877929688</ele>
        <time>2021-05-22T10:23:17.424Z</time>
      </trkpt>
      <trkpt lat="40.167418671771884" lon="-3.6676268745213747">
        <ele>604.5999755859375</ele>
        <time>2021-05-22T10:23:21.069Z</time>
      </trkpt>
      <trkpt lat="40.16743811778724" lon="-3.667476838454604">
        <ele>604.5999755859375</ele>
        <time>2021-05-22T10:23:24.717Z</time>
      </trkpt>
      <trkpt lat="40.16746058128774" lon="-3.667332250624895">
        <ele>604.7999877929688</ele>
        <time>2021-05-22T10:23:28.368Z</time>
      </trkpt>
      <trkpt lat="40.167482206597924" lon="-3.6671836394816637">
        <ele>604.7999877929688</ele>
        <time>2021-05-22T10:23:32.021Z</time>
      </trkpt>
      <trkpt lat="40.167504670098424" lon="-3.667031843215227">
        <ele>604.5999755859375</ele>
        <time>2021-05-22T10:23:35.678Z</time>
      </trkpt>
      <trkpt lat="40.16752319410443" lon="-3.666885830461979">
        <ele>604.5999755859375</ele>
        <time>2021-05-22T10:23:39.337Z</time>
      </trkpt>
      <trkpt lat="40.16753191128373" lon="-3.6668200325220823">
        <ele>604.5999755859375</ele>
        <time>2021-05-22T10:23:42.998Z</time>
      </trkpt>
      <trkpt lat="40.16754247248173" lon="-3.6667619459331036">
        <ele>604.4000244140625</ele>
        <time>2021-05-22T10:23:46.660Z</time>
      </trkpt>
      <trkpt lat="40.16755739226937" lon="-3.666711738333106">
        <ele>604.4000244140625</ele>
        <time>2021-05-22T10:23:50.323Z</time>
      </trkpt>
      <trkpt lat="40.16758211888373" lon="-3.6666688229888678">
        <ele>604.2000122070312</ele>
        <time>2021-05-22T10:23:53.987Z</time>
      </trkpt>
      <trkpt lat="40.16761623322964" lon="-3.6666385643184185">
        <ele>604.2000122070312</ele>
        <time>2021-05-22T10:23:57.652Z</time>
      </trkpt>
      <trkpt lat="40.16770130954683" lon="-3.66662104614079">
        <ele>604.0</ele>
        <time>2021-05-22T10:24:01.319Z</time>
      </trkpt>
      <trkpt lat="40.16774640418589" lon="-3.666624817997217">
        <ele>604.0</ele>
        <time>2021-05-22T10:24:04.988Z</time>
      </trkpt>
      <trkpt lat="40.167840365320444" lon="-3.6666404083371162">
        <ele>603.7999877929688</ele>
        <time>2021-05-22T10:24:08.659Z</time>
      </trkpt>
      <trkpt lat="40.167937595397234" lon="-3.6666617821902037">
        <ele>603.5999755859375</ele>
        <time>2021-05-22T10:24:12.333Z</time>
      </trkpt>
      <trkpt lat="40.16803918406367" lon="-3.6666848324239254">
        <ele>603.4000244140625</ele>
        <time>2021-05-22T10:24:16.009Z</time>
      </trkpt>
      <trkpt lat="40.16814177855849" lon="-3.666706122457981">
        <ele>603.4000244140625</ele>
        <time>2021-05-22T10:24:19.688Z</time>
      </trkpt>
      <trkpt lat="40.16824998892844" lon="-3.666728585958481">
        <ele>603.4000244140625</ele>
        <time>2021-05-22T10:24:23.370Z</time>
      </trkpt>
      <trkpt lat="40.16835778020322" lon="-3.6667511332780123">
        <ele>603.4000244140625</ele>
        <time>2021-05-22T10:24:27.055Z</time>
      </trkpt>
      <trkpt lat="40.16846674494445" lon="-3.6667772848159075">
        <ele>603.4000244140625</ele>
        <time>2021-05-22T10:24:30.742Z</time>
      </trkpt>
      <trkpt lat="40.16858518123627" lon="-3.6668055318295956">
        <ele>603.4000244140625</ele>
        <time>2021-05-22T10:24:34.432Z</time>
      </trkpt>
      <trkpt lat="40.16869934275746" lon="-3.6668314319103956">
        <ele>603.4000244140625</ele>
        <time>2021-05-22T10:24:38.125Z</time>
      </trkpt>
      <trkpt lat="40.16881199553609" lon="-3.66685900837183">
        <ele>603.4000244140625</ele>
        <time>2021-05-22T10:24:41.821Z</time>
      </trkpt>
      <trkpt lat="40.16892246901989" lon="-3.666887255385518">
        <ele>603.4000244140625</ele>
        <time>2021-05-22T10:24:45.520Z</time>
      </trkpt>
      <trkpt lat="40.16897460445762" lon="-3.6669013369828463">
        <ele>603.4000244140625</ele>
        <time>2021-05-22T10:24:49.221Z</time>
      </trkpt>
      <trkpt lat="40.16912489198148" lon="-3.666945258155465">
        <ele>603.2000122070312</ele>
        <time>2021-05-22T10:24:52.926Z</time>
      </trkpt>
      <trkpt lat="40.16921499744058" lon="-3.6669887602329254">
        <ele>603.2000122070312</ele>
        <time>2021-05-22T10:24:56.633Z</time>
      </trkpt>
      <trkpt lat="40.169255984947085" lon="-3.667015917599201">
        <ele>603.2000122070312</ele>
        <time>2021-05-22T10:25:00.341Z</time>
      </trkpt>
      <trkpt lat="40.16937006264925" lon="-3.667112896218896">
        <ele>603.0</ele>
        <time>2021-05-22T10:25:04.053Z</time>
      </trkpt>
      <trkpt lat="40.169435776770115" lon="-3.667186154052615">
        <ele>603.0</ele>
        <time>2021-05-22T10:25:07.767Z</time>
      </trkpt>
      <trkpt lat="40.16949134878814" lon="-3.6672696378082037">
        <ele>603.0</ele>
        <time>2021-05-22T10:25:11.483Z</time>
      </trkpt>
      <trkpt lat="40.169541304931045" lon="-3.667356725782156">
        <ele>603.0</ele>
        <time>2021-05-22T10:25:15.201Z</time>
      </trkpt>
      <trkpt lat="40.169584304094315" lon="-3.6674501840025187">
        <ele>603.0</ele>
        <time>2021-05-22T10:25:18.922Z</time>
      </trkpt>
      <trkpt lat="40.16960542649031" lon="-3.66749569773674">
        <ele>603.2000122070312</ele>
        <time>2021-05-22T10:25:22.644Z</time>
      </trkpt>
      <trkpt lat="40.1696506049484" lon="-3.667640872299671">
        <ele>603.2000122070312</ele>
        <time>2021-05-22T10:25:26.369Z</time>
      </trkpt>
      <trkpt lat="40.16967055387795" lon="-3.667741706594825">
        <ele>603.4000244140625</ele>
        <time>2021-05-22T10:25:30.096Z</time>
      </trkpt>
      <trkpt lat="40.16969217918813" lon="-3.6678401101380587">
        <ele>603.5999755859375</ele>
        <time>2021-05-22T10:25:33.825Z</time>
      </trkpt>
      <trkpt lat="40.16971095465124" lon="-3.667937759310007">
        <ele>603.5999755859375</ele>
        <time>2021-05-22T10:25:37.556Z</time>
      </trkpt>
      <trkpt lat="40.169729981571436" lon="-3.668034989386797">
        <ele>603.7999877929688</ele>
        <time>2021-05-22T10:25:41.289Z</time>
      </trkpt>
      <trkpt lat="40.169756803661585" lon="-3.668133895844221">
        <ele>604.2000122070312</ele>
        <time>2021-05-22T10:25:45.024Z</time>
      </trkpt>
      <trkpt lat="40.16978337429464" lon="-3.6682310421019793">
        <ele>604.5999755859375</ele>
        <time>2021-05-22T10:25:48.761Z</time>
      </trkpt>
      <trkpt lat="40.169816901907325" lon="-3.6683240812271833">
        <ele>605.2000122070312</ele>
        <time>2021-05-22T10:25:52.500Z</time>
      </trkpt>
      <trkpt lat="40.16983291134238" lon="-3.668370768427849">
        <ele>605.4000244140625</ele>
        <time>2021-05-22T10:25:56.240Z</time>
      </trkpt>
      <trkpt lat="40.169851183891296" lon="-3.6684159468859434">
        <ele>605.4000244140625</ele>
        <time>2021-05-22T10:25:59.981Z</time>
      </trkpt>
      <trkpt lat="40.16989326104522" lon="-3.6685022804886103">
        <ele>605.5999755859375</ele>
        <time>2021-05-22T10:26:03.724Z</time>
      </trkpt>
      <trkpt lat="40.16994128935039" lon="-3.6685859318822622">
        <ele>605.5999755859375</ele>
        <time>2021-05-22T10:26:07.469Z</time>
      </trkpt>
      <trkpt lat="40.16999593935907" lon="-3.6686662305146456">
        <ele>605.5999755859375</ele>
        <time>2021-05-22T10:26:11.216Z</time>
      </trkpt>
      <trkpt lat="40.1700549479574" lon="-3.6687381472438574">
        <ele>605.5999755859375</ele>
        <time>2021-05-22T10:26:14.965Z</time>
      </trkpt>
      <trkpt lat="40.17011714167893" lon="-3.6688026040792465">
        <ele>605.5999755859375</ele>
        <time>2021-05-22T10:26:18.716Z</time>
      </trkpt>
      <trkpt lat="40.1701791677624" lon="-3.668863959610462">
        <ele>605.7999877929688</ele>
        <time>2021-05-22T10:26:22.469Z</time>
      </trkpt>
      <trkpt lat="40.170248402282596" lon="-3.6689142510294914">
        <ele>606.2000122070312</ele>
        <time>2021-05-22T10:26:26.224Z</time>
      </trkpt>
      <trkpt lat="40.17028528265655" lon="-3.6689374689012766">
        <ele>606.4000244140625</ele>
        <time>2021-05-22T10:26:29.980Z</time>
      </trkpt>
      <trkpt lat="40.17032350413501" lon="-3.6689601838588715">
        <ele>606.5999755859375</ele>
        <time>2021-05-22T10:26:33.737Z</time>
      </trkpt>
      <trkpt lat="40.17036289907992" lon="-3.668982647359371">
        <ele>606.7999877929688</ele>
        <time>2021-05-22T10:26:37.496Z</time>
      </trkpt>
      <trkpt lat="40.17040346749127" lon="-3.6690041050314903">
        <ele>607.0</ele>
        <time>2021-05-22T10:26:41.256Z</time>
      </trkpt>
      <trkpt lat="40.170489214360714" lon="-3.6690414045006037">
        <ele>607.0</ele>
        <time>2021-05-22T10:26:45.018Z</time>
      </trkpt>
      <trkpt lat="40.17058267258108" lon="-3.6690723337233067">
        <ele>607.0</ele>
        <time>2021-05-22T10:26:48.783Z</time>
      </trkpt>
      <trkpt lat="40.17068023793399" lon="-3.6690956354141235">
        <ele>607.0</ele>
        <time>2021-05-22T10:26:52.550Z</time>
      </trkpt>
      <trkpt lat="40.17078375443816" lon="-3.6691054422408342">
        <ele>607.0</ele>
        <time>2021-05-22T10:26:56.320Z</time>
      </trkpt>
      <trkpt lat="40.170838655903935" lon="-3.6691044364124537">
        <ele>606.7999877929688</ele>
        <time>2021-05-22T10:27:00.091Z</time>
      </trkpt>
      <trkpt lat="40.170893892645836" lon="-3.6690942104905844">
        <ele>606.7999877929688</ele>
        <time>2021-05-22T10:27:03.864Z</time>
      </trkpt>
      <trkpt lat="40.17094820737839" lon="-3.6690785363316536">
        <ele>606.7999877929688</ele>
        <time>2021-05-22T10:27:07.638Z</time>
      </trkpt>
      <trkpt lat="40.17100210301578" lon="-3.6690623592585325">
        <ele>606.5999755859375</ele>
        <time>2021-05-22T10:27:11.413Z</time>
      </trkpt>
      <trkpt lat="40.1711046975106" lon="-3.6690220423042774">
        <ele>606.4000244140625</ele>
        <time>2021-05-22T10:27:15.191Z</time>
      </trkpt>
      <trkpt lat="40.17120813019574" lon="-3.6689789593219757">
        <ele>605.7999877929688</ele>
        <time>2021-05-22T10:27:18.972Z</time>
      </trkpt>
      <trkpt lat="40.1713137421757" lon="-3.6689336132258177">
        <ele>605.5999755859375</ele>
        <time>2021-05-22T10:27:22.756Z</time>
      </trkpt>
      <trkpt lat="40.1714189350605" lon="-3.6688832379877567">
        <ele>605.4000244140625</ele>
        <time>2021-05-22T10:27:26.543Z</time>
      </trkpt>
      <trkpt lat="40.17147123813629" lon="-3.668855158612132">
        <ele>605.2000122070312</ele>
        <time>2021-05-22T10:27:30.331Z</time>
      </trkpt>
      <trkpt lat="40.17152102664113" lon="-3.6688190326094627">
        <ele>605.2000122070312</ele>
        <time>2021-05-22T10:27:34.121Z</time>
      </trkpt>
      <trkpt lat="40.17160316929221" lon="-3.6687130015343428">
        <ele>604.7999877929688</ele>
        <time>2021-05-22T10:27:37.914Z</time>
      </trkpt>
      <trkpt lat="40.17164574936032" lon="-3.668562462553382">
        <ele>604.5999755859375</ele>
        <time>2021-05-22T10:27:41.710Z</time>
      </trkpt>
      <trkpt lat="40.171649772673845" lon="-3.6684775538742542">
        <ele>604.5999755859375</ele>
        <time>2021-05-22T10:27:45.508Z</time>
      </trkpt>
      <trkpt lat="40.17164424061775" lon="-3.6683894600719213">
        <ele>604.4000244140625</ele>
        <time>2021-05-22T10:27:49.307Z</time>
      </trkpt>
      <trkpt lat="40.1716330088675" lon="-3.6682999413460493">
        <ele>604.4000244140625</ele>
        <time>2021-05-22T10:27:53.108Z</time>
      </trkpt>
      <trkpt lat="40.171620436012745" lon="-3.668207572773099">
        <ele>604.4000244140625</ele>
        <time>2021-05-22T10:27:56.911Z</time>
      </trkpt>
      <trkpt lat="40.17159084789455" lon="-3.6680191475898027">
        <ele>604.4000244140625</ele>
        <time>2021-05-22T10:28:00.718Z</time>
      </trkpt>
      <trkpt lat="40.171574000269175" lon="-3.667923593893647">
        <ele>604.2000122070312</ele>
        <time>2021-05-22T10:28:04.527Z</time>
      </trkpt>
      <trkpt lat="40.17155732028186" lon="-3.6678269505500793">
        <ele>604.0</ele>
        <time>2021-05-22T10:28:08.338Z</time>
      </trkpt>
      <trkpt lat="40.1715227868408" lon="-3.667630311101675">
        <ele>604.0</ele>
        <time>2021-05-22T10:28:12.153Z</time>
      </trkpt>
      <trkpt lat="40.17147844657302" lon="-3.667432749643922">
        <ele>603.5999755859375</ele>
        <time>2021-05-22T10:28:15.972Z</time>
      </trkpt>
      <trkpt lat="40.17143494449556" lon="-3.6672363616526127">
        <ele>603.0</ele>
        <time>2021-05-22T10:28:19.795Z</time>
      </trkpt>
      <trkpt lat="40.171398567035794" lon="-3.667049864307046">
        <ele>602.5999755859375</ele>
        <time>2021-05-22T10:28:23.622Z</time>
      </trkpt>
      <trkpt lat="40.1713446713984" lon="-3.666882812976837">
        <ele>601.7999877929688</ele>
        <time>2021-05-22T10:28:27.452Z</time>
      </trkpt>
      <trkpt lat="40.171306282281876" lon="-3.666803352534771">
        <ele>601.4000244140625</ele>
        <time>2021-05-22T10:28:31.284Z</time>
      </trkpt>
      <trkpt lat="40.17125925980508" lon="-3.6667306814342737">
        <ele>601.2000122070312</ele>
        <time>2021-05-22T10:28:35.118Z</time>
      </trkpt>
      <trkpt lat="40.17120636999607" lon="-3.6666659731417894">
        <ele>600.7999877929688</ele>
        <time>2021-05-22T10:28:38.954Z</time>
      </trkpt>
      <trkpt lat="40.171151803806424" lon="-3.6666058748960495">
        <ele>600.4000244140625</ele>
        <time>2021-05-22T10:28:42.792Z</time>
      </trkpt>
      <trkpt lat="40.171103943139315" lon="-3.6665487941354513">
        <ele>600.2000122070312</ele>
        <time>2021-05-22T10:28:46.631Z</time>
      </trkpt>
      <trkpt lat="40.17106622457504" lon="-3.666487354785204">
        <ele>600.0</ele>
        <time>2021-05-22T10:28:50.472Z</time>
      </trkpt>
      <trkpt lat="40.17104216851294" lon="-3.6663446947932243">
        <ele>599.7999877929688</ele>
        <time>2021-05-22T10:28:54.316Z</time>
      </trkpt>
      <trkpt lat="40.17108852043748" lon="-3.6662164516747">
        <ele>599.7999877929688</ele>
        <time>2021-05-22T10:28:58.163Z</time>
      </trkpt>
      <trkpt lat="40.17113302834332" lon="-3.666180996224284">
        <ele>599.5999755859375</ele>
        <time>2021-05-22T10:29:02.011Z</time>
      </trkpt>
      <trkpt lat="40.17118340358138" lon="-3.6661675851792097">
        <ele>599.5999755859375</ele>
        <time>2021-05-22T10:29:05.860Z</time>
      </trkpt>
      <trkpt lat="40.17128893174231" lon="-3.6661777272820473">
        <ele>599.4000244140625</ele>
        <time>2021-05-22T10:29:09.712Z</time>
      </trkpt>
      <trkpt lat="40.17134207300842" lon="-3.666194239631295">
        <ele>599.4000244140625</ele>
        <time>2021-05-22T10:29:13.565Z</time>
      </trkpt>
      <trkpt lat="40.17139504663646" lon="-3.6662123445421457">
        <ele>599.4000244140625</ele>
        <time>2021-05-22T10:29:17.420Z</time>
      </trkpt>
      <trkpt lat="40.17150040715933" lon="-3.666250901296735">
        <ele>599.4000244140625</ele>
        <time>2021-05-22T10:29:21.278Z</time>
      </trkpt>
      <trkpt lat="40.1716055162251" lon="-3.6662954930216074">
        <ele>599.2000122070312</ele>
        <time>2021-05-22T10:29:25.138Z</time>
      </trkpt>
      <trkpt lat="40.171711798757315" lon="-3.6663388274610043">
        <ele>599.2000122070312</ele>
        <time>2021-05-22T10:29:29.001Z</time>
      </trkpt>
      <trkpt lat="40.171764101833105" lon="-3.6663612071424723">
        <ele>599.2000122070312</ele>
        <time>2021-05-22T10:29:32.866Z</time>
      </trkpt>
      <trkpt lat="40.17181606963277" lon="-3.6663829162716866">
        <ele>599.2000122070312</ele>
        <time>2021-05-22T10:29:36.732Z</time>
      </trkpt>
      <trkpt lat="40.17191732302308" lon="-3.6664300225675106">
        <ele>599.2000122070312</ele>
        <time>2021-05-22T10:29:40.601Z</time>
      </trkpt>
      <trkpt lat="40.17201882787049" lon="-3.6664747819304466">
        <ele>599.2000122070312</ele>
        <time>2021-05-22T10:29:44.473Z</time>
      </trkpt>
      <trkpt lat="40.17211874015629" lon="-3.6665178649127483">
        <ele>599.4000244140625</ele>
        <time>2021-05-22T10:29:48.347Z</time>
      </trkpt>
      <trkpt lat="40.17221814952791" lon="-3.6665607802569866">
        <ele>599.5999755859375</ele>
        <time>2021-05-22T10:29:52.224Z</time>
      </trkpt>
      <trkpt lat="40.17231563106179" lon="-3.6666020192205906">
        <ele>599.7999877929688</ele>
        <time>2021-05-22T10:29:56.104Z</time>
      </trkpt>
      <trkpt lat="40.17241043038666" lon="-3.6666486226022243">
        <ele>599.7999877929688</ele>
        <time>2021-05-22T10:29:59.986Z</time>
      </trkpt>
      <trkpt lat="40.17250305041671" lon="-3.6666930466890335">
        <ele>600.2000122070312</ele>
        <time>2021-05-22T10:30:03.871Z</time>
      </trkpt>
      <trkpt lat="40.17259583808482" lon="-3.6667342018336058">
        <ele>600.4000244140625</ele>
        <time>2021-05-22T10:30:07.758Z</time>
      </trkpt>
      <trkpt lat="40.17268351279199" lon="-3.6667860858142376">
        <ele>600.4000244140625</ele>
        <time>2021-05-22T10:30:11.648Z</time>
      </trkpt>
      <trkpt lat="40.172770684584975" lon="-3.6668493691831827">
        <ele>600.5999755859375</ele>
        <time>2021-05-22T10:30:15.540Z</time>
      </trkpt>
      <trkpt lat="40.172857185825706" lon="-3.666919944807887">
        <ele>600.5999755859375</ele>
        <time>2021-05-22T10:30:19.435Z</time>
      </trkpt>
      <trkpt lat="40.17294108867645" lon="-3.666990688070655">
        <ele>600.5999755859375</ele>
        <time>2021-05-22T10:30:23.333Z</time>
      </trkpt>
      <trkpt lat="40.1730162743479" lon="-3.667066292837262">
        <ele>600.5999755859375</ele>
        <time>2021-05-22T10:30:27.233Z</time>
      </trkpt>
      <trkpt lat="40.17305290326476" lon="-3.667104933410883">
        <ele>600.5999755859375</ele>
        <time>2021-05-22T10:30:31.134Z</time>
      </trkpt>
      <trkpt lat="40.17316237092018" lon="-3.6672116350382566">
        <ele>600.5999755859375</ele>
        <time>2021-05-22T10:30:35.039Z</time>
      </trkpt>
      <trkpt lat="40.17324049025774" lon="-3.667265111580491">
        <ele>600.7999877929688</ele>
        <time>2021-05-22T10:30:38.946Z</time>
      </trkpt>
      <trkpt lat="40.17332749441266" lon="-3.667286988347769">
        <ele>601.0</ele>
        <time>2021-05-22T10:30:42.855Z</time>
      </trkpt>
      <trkpt lat="40.1733722537756" lon="-3.66728900000453">
        <ele>601.0</ele>
        <time>2021-05-22T10:30:46.766Z</time>
      </trkpt>
      <trkpt lat="40.17341776750982" lon="-3.667287491261959">
        <ele>601.0</ele>
        <time>2021-05-22T10:30:50.678Z</time>
      </trkpt>
      <trkpt lat="40.17350963316858" lon="-3.667288748547435">
        <ele>601.2000122070312</ele>
        <time>2021-05-22T10:30:54.592Z</time>
      </trkpt>
      <trkpt lat="40.17359613440931" lon="-3.667322611436248">
        <ele>601.4000244140625</ele>
        <time>2021-05-22T10:30:58.508Z</time>
      </trkpt>
      <trkpt lat="40.173631673678756" lon="-3.6673589050769806">
        <ele>601.5999755859375</ele>
        <time>2021-05-22T10:31:02.426Z</time>
      </trkpt>
      <trkpt lat="40.173658076673746" lon="-3.667405843734741">
        <ele>601.5999755859375</ele>
        <time>2021-05-22T10:31:06.345Z</time>
      </trkpt>
      <trkpt lat="40.17367785796523" lon="-3.6675195023417473">
        <ele>601.5999755859375</ele>
        <time>2021-05-22T10:31:10.266Z</time>
      </trkpt>
      <trkpt lat="40.17365229316056" lon="-3.6676267068833113">
        <ele>601.5999755859375</ele>
        <time>2021-05-22T10:31:14.189Z</time>
      </trkpt>
      <trkpt lat="40.17363033257425" lon="-3.66767649538815">
        <ele>601.5999755859375</ele>
        <time>2021-05-22T10:31:18.113Z</time>
      </trkpt>
      <trkpt lat="40.173608707264066" lon="-3.667726367712021">
        <ele>601.7999877929688</ele>
        <time>2021-05-22T10:31:22.039Z</time>
      </trkpt>
      <trkpt lat="40.17359026707709" lon="-3.667777581140399">
        <ele>601.7999877929688</ele>
        <time>2021-05-22T10:31:25.966Z</time>
      </trkpt>
      <trkpt lat="40.17357610166073" lon="-3.667830638587475">
        <ele>601.7999877929688</ele>
        <time>2021-05-22T10:31:29.894Z</time>
      </trkpt>
      <trkpt lat="40.173561265692115" lon="-3.6679397709667683">
        <ele>601.7999877929688</ele>
        <time>2021-05-22T10:31:33.824Z</time>
      </trkpt>
      <trkpt lat="40.173556907102466" lon="-3.6679939180612564">
        <ele>601.7999877929688</ele>
        <time>2021-05-22T10:31:37.755Z</time>
      </trkpt>
      <trkpt lat="40.17355238087475" lon="-3.668047310784459">
        <ele>601.7999877929688</ele>
        <time>2021-05-22T10:31:41.687Z</time>
      </trkpt>
      <trkpt lat="40.173544669523835" lon="-3.6681520845741034">
        <ele>601.7999877929688</ele>
        <time>2021-05-22T10:31:45.621Z</time>
      </trkpt>
      <trkpt lat="40.17353645525873" lon="-3.6682530026882887">
        <ele>601.7999877929688</ele>
        <time>2021-05-22T10:31:49.557Z</time>
      </trkpt>
      <trkpt lat="40.173532515764244" lon="-3.6683540046215057">
        <ele>601.7999877929688</ele>
        <time>2021-05-22T10:31:53.495Z</time>
      </trkpt>
      <trkpt lat="40.17353938892484" lon="-3.6684545036405325">
        <ele>601.7999877929688</ele>
        <time>2021-05-22T10:31:57.435Z</time>
      </trkpt>
      <trkpt lat="40.173560762777925" lon="-3.6685552541166544">
        <ele>601.7999877929688</ele>
        <time>2021-05-22T10:32:01.377Z</time>
      </trkpt>
      <trkpt lat="40.17360954545438" lon="-3.668644269928336">
        <ele>602.2000122070312</ele>
        <time>2021-05-22T10:32:05.321Z</time>
      </trkpt>
      <trkpt lat="40.17367928288877" lon="-3.6687155161052942">
        <ele>602.4000244140625</ele>
        <time>2021-05-22T10:32:09.268Z</time>
      </trkpt>
      <trkpt lat="40.17375094816089" lon="-3.668783912435174">
        <ele>602.4000244140625</ele>
        <time>2021-05-22T10:32:13.217Z</time>
      </trkpt>
      <trkpt lat="40.17378682270646" lon="-3.6688179429620504">
        <ele>602.5999755859375</ele>
        <time>2021-05-22T10:32:17.167Z</time>
      </trkpt>
      <trkpt lat="40.173859829083085" lon="-3.668881645426154">
        <ele>602.5999755859375</ele>
        <time>2021-05-22T10:32:21.119Z</time>
      </trkpt>
      <trkpt lat="40.173894027248025" lon="-3.6689133290201426">
        <ele>602.5999755859375</ele>
        <time>2021-05-22T10:32:25.072Z</time>
      </trkpt>
      <trkpt lat="40.17396309413016" lon="-3.6689771991223097">
        <ele>602.7999877929688</ele>
        <time>2021-05-22T10:32:29.028Z</time>
      </trkpt>
      <trkpt lat="40.174032328650355" lon="-3.6690400633960962">
        <ele>602.7999877929688</ele>
        <time>2021-05-22T10:32:32.986Z</time>
      </trkpt>
      <trkpt lat="40.1741043291986" lon="-3.66909840144217">
        <ele>602.7999877929688</ele>
        <time>2021-05-22T10:32:36.946Z</time>
      </trkpt>
      <trkpt lat="40.17417574301362" lon="-3.66915849968791">
        <ele>602.7999877929688</ele>
        <time>2021-05-22T10:32:40.908Z</time>
      </trkpt>
      <trkpt lat="40.174248749390244" lon="-3.6692204419523478">
        <ele>602.7999877929688</ele>
        <time>2021-05-22T10:32:44.872Z</time>
      </trkpt>
      <trkpt lat="40.1743202470243" lon="-3.669282216578722">
        <ele>603.0</ele>
        <time>2021-05-22T10:32:48.839Z</time>
      </trkpt>
      <trkpt lat="40.17439057119191" lon="-3.6693418119102716">
        <ele>603.0</ele>
        <time>2021-05-22T10:32:52.808Z</time>
      </trkpt>
      <trkpt lat="40.17446290701628" lon="-3.6694019101560116">
        <ele>603.0</ele>
        <time>2021-05-22T10:32:56.779Z</time>
      </trkpt>
      <trkpt lat="40.17453867942095" lon="-3.669464271515608">
        <ele>603.0</ele>
        <time>2021-05-22T10:33:00.752Z</time>
      </trkpt>
      <trkpt lat="40.17461311072111" lon="-3.6695323325693607">
        <ele>603.0</ele>
        <time>2021-05-22T10:33:04.728Z</time>
      </trkpt>
      <trkpt lat="40.17468980513513" lon="-3.669600645080209">
        <ele>602.7999877929688</ele>
        <time>2021-05-22T10:33:08.706Z</time>
      </trkpt>
      <trkpt lat="40.17476834356785" lon="-3.669675998389721">
        <ele>602.4000244140625</ele>
        <time>2021-05-22T10:33:12.687Z</time>
      </trkpt>
      <trkpt lat="40.17484889365733" lon="-3.6697521060705185">
        <ele>602.0</ele>
        <time>2021-05-22T10:33:16.670Z</time>
      </trkpt>
      <trkpt lat="40.17488870769739" lon="-3.6697919201105833">
        <ele>602.0</ele>
        <time>2021-05-22T10:33:20.654Z</time>
      </trkpt>
      <trkpt lat="40.174929862841964" lon="-3.669831482693553">
        <ele>602.0</ele>
        <time>2021-05-22T10:33:24.640Z</time>
      </trkpt>
      <trkpt lat="40.17501368187368" lon="-3.6699137929826975">
        <ele>601.7999877929688</ele>
        <time>2021-05-22T10:33:28.628Z</time>
      </trkpt>
      <trkpt lat="40.17509431578219" lon="-3.6699979472905397">
        <ele>601.5999755859375</ele>
        <time>2021-05-22T10:33:32.619Z</time>
      </trkpt>
      <trkpt lat="40.175174279138446" lon="-3.670077072456479">
        <ele>601.4000244140625</ele>
        <time>2021-05-22T10:33:36.613Z</time>
      </trkpt>
      <trkpt lat="40.17525273375213" lon="-3.670148067176342">
        <ele>601.4000244140625</ele>
        <time>2021-05-22T10:33:40.609Z</time>
      </trkpt>
      <trkpt lat="40.17532976344228" lon="-3.6702124401926994">
        <ele>601.4000244140625</ele>
        <time>2021-05-22T10:33:44.608Z</time>
      </trkpt>
      <trkpt lat="40.17537058331072" lon="-3.6702368315309286">
        <ele>601.4000244140625</ele>
        <time>2021-05-22T10:33:48.608Z</time>
      </trkpt>
      <trkpt lat="40.17541391775012" lon="-3.670257618650794">
        <ele>601.4000244140625</ele>
        <time>2021-05-22T10:33:52.609Z</time>
      </trkpt>
      <trkpt lat="40.175455743446946" lon="-3.670273208990693">
        <ele>601.4000244140625</ele>
        <time>2021-05-22T10:33:56.611Z</time>
      </trkpt>
      <trkpt lat="40.175495222210884" lon="-3.670282009989023">
        <ele>601.4000244140625</ele>
        <time>2021-05-22T10:34:00.614Z</time>
      </trkpt>
      <trkpt lat="40.17556588165462" lon="-3.670292655006051">
        <ele>601.4000244140625</ele>
        <time>2021-05-22T10:34:04.619Z</time>
      </trkpt>
      <trkpt lat="40.17563335597515" lon="-3.670277986675501">
        <ele>601.2000122070312</ele>
        <time>2021-05-22T10:34:08.626Z</time>
      </trkpt>
      <trkpt lat="40.175711726769805" lon="-3.670237921178341">
        <ele>601.2000122070312</ele>
        <time>2021-05-22T10:34:12.635Z</time>
      </trkpt>
      <trkpt lat="40.17575304955244" lon="-3.6702282819896936">
        <ele>601.0</ele>
        <time>2021-05-22T10:34:16.645Z</time>
      </trkpt>
      <trkpt lat="40.17579546198249" lon="-3.6702341493219137">
        <ele>601.0</ele>
        <time>2021-05-22T10:34:20.656Z</time>
      </trkpt>
      <trkpt lat="40.17587810754776" lon="-3.6702866200357676">
        <ele>600.7999877929688</ele>
        <time>2021-05-22T10:34:24.669Z</time>
      </trkpt>
      <trkpt lat="40.1759450789541" lon="-3.6703826766461134">
        <ele>600.0</ele>
        <time>2021-05-22T10:34:28.685Z</time>
      </trkpt>
      <trkpt lat="40.17597634345293" lon="-3.670433973893523">
        <ele>599.4000244140625</ele>
        <time>2021-05-22T10:34:32.702Z</time>
      </trkpt>
      <trkpt lat="40.17601347528398" lon="-3.670481499284506">
        <ele>599.0</ele>
        <time>2021-05-22T10:34:36.721Z</time>
      </trkpt>
      <trkpt lat="40.17610534094274" lon="-3.6705558467656374">
        <ele>598.5999755859375</ele>
        <time>2021-05-22T10:34:40.742Z</time>
      </trkpt>
      <trkpt lat="40.17615873366594" lon="-3.670586859807372">
        <ele>598.5999755859375</ele>
        <time>2021-05-22T10:34:44.765Z</time>
      </trkpt>
      <trkpt lat="40.176215479150414" lon="-3.6706198006868362">
        <ele>598.4000244140625</ele>
        <time>2021-05-22T10:34:48.789Z</time>
      </trkpt>
      <trkpt lat="40.176275158300996" lon="-3.6706547532230616">
        <ele>598.2000122070312</ele>
        <time>2021-05-22T10:34:52.815Z</time>
      </trkpt>
      <trkpt lat="40.17633710056543" lon="-3.6706903763115406">
        <ele>598.0</ele>
        <time>2021-05-22T10:34:56.843Z</time>
      </trkpt>
      <trkpt lat="40.17640231177211" lon="-3.670724406838417">
        <ele>598.0</ele>
        <time>2021-05-22T10:35:00.873Z</time>
      </trkpt>
      <trkpt lat="40.176469618454576" lon="-3.6707570124417543">
        <ele>597.7999877929688</ele>
        <time>2021-05-22T10:35:04.905Z</time>
      </trkpt>
      <trkpt lat="40.17660481855273" lon="-3.670818619430065">
        <ele>597.2000122070312</ele>
        <time>2021-05-22T10:35:08.940Z</time>
      </trkpt>
      <trkpt lat="40.17673566006124" lon="-3.6708801425993443">
        <ele>596.4000244140625</ele>
        <time>2021-05-22T10:35:12.979Z</time>
      </trkpt>
      <trkpt lat="40.17680028453469" lon="-3.670912915840745">
        <ele>596.0</ele>
        <time>2021-05-22T10:35:17.020Z</time>
      </trkpt>
      <trkpt lat="40.17686415463686" lon="-3.6709466110914946">
        <ele>595.5999755859375</ele>
        <time>2021-05-22T10:35:21.062Z</time>
      </trkpt>
      <trkpt lat="40.17692668363452" lon="-3.6709769535809755">
        <ele>594.7999877929688</ele>
        <time>2021-05-22T10:35:25.106Z</time>
      </trkpt>
      <trkpt lat="40.17698736861348" lon="-3.6710061226040125">
        <ele>594.2000122070312</ele>
        <time>2021-05-22T10:35:29.152Z</time>
      </trkpt>
      <trkpt lat="40.177046209573746" lon="-3.671033950522542">
        <ele>593.7999877929688</ele>
        <time>2021-05-22T10:35:33.199Z</time>
      </trkpt>
      <trkpt lat="40.17710178159177" lon="-3.6710606049746275">
        <ele>593.2000122070312</ele>
        <time>2021-05-22T10:35:37.248Z</time>
      </trkpt>
      <trkpt lat="40.17719549126923" lon="-3.671102011576295">
        <ele>592.4000244140625</ele>
        <time>2021-05-22T10:35:41.299Z</time>
      </trkpt>
      <trkpt lat="40.17726631835103" lon="-3.6711059510707855">
        <ele>591.4000244140625</ele>
        <time>2021-05-22T10:35:45.352Z</time>
      </trkpt>
      <trkpt lat="40.177300600335" lon="-3.6710979882627726">
        <ele>591.0</ele>
        <time>2021-05-22T10:35:49.406Z</time>
      </trkpt>
      <trkpt lat="40.17733664251864" lon="-3.6710895225405693">
        <ele>590.4000244140625</ele>
        <time>2021-05-22T10:35:53.461Z</time>
      </trkpt>
      <trkpt lat="40.17737343907356" lon="-3.6710842419415712">
        <ele>589.7999877929688</ele>
        <time>2021-05-22T10:35:57.517Z</time>
      </trkpt>
      <trkpt lat="40.17741157673299" lon="-3.671087259426713">
        <ele>589.5999755859375</ele>
        <time>2021-05-22T10:36:01.574Z</time>
      </trkpt>
      <trkpt lat="40.17748869024217" lon="-3.671126402914524">
        <ele>589.0</ele>
        <time>2021-05-22T10:36:05.633Z</time>
      </trkpt>
      <trkpt lat="40.177559182047844" lon="-3.671202678233385">
        <ele>588.7999877929688</ele>
        <time>2021-05-22T10:36:09.695Z</time>
      </trkpt>
      <trkpt lat="40.177636463195086" lon="-3.6712788697332144">
        <ele>588.5999755859375</ele>
        <time>2021-05-22T10:36:13.759Z</time>
      </trkpt>
      <trkpt lat="40.177679965272546" lon="-3.6713030096143484">
        <ele>588.5999755859375</ele>
        <time>2021-05-22T10:36:17.824Z</time>
      </trkpt>
      <trkpt lat="40.17772455699742" lon="-3.671321952715516">
        <ele>588.5999755859375</ele>
        <time>2021-05-22T10:36:21.891Z</time>
      </trkpt>
      <trkpt lat="40.17781147733331" lon="-3.671359084546566">
        <ele>588.5999755859375</ele>
        <time>2021-05-22T10:36:25.960Z</time>
      </trkpt>
      <trkpt lat="40.17789462581277" lon="-3.6713924445211887">
        <ele>588.5999755859375</ele>
        <time>2021-05-22T10:36:30.031Z</time>
      </trkpt>
      <trkpt lat="40.17797467298806" lon="-3.6714257206767797">
        <ele>588.5999755859375</ele>
        <time>2021-05-22T10:36:34.104Z</time>
      </trkpt>
      <trkpt lat="40.17805480398238" lon="-3.671453632414341">
        <ele>588.7999877929688</ele>
        <time>2021-05-22T10:36:38.179Z</time>
      </trkpt>
      <trkpt lat="40.178133342415094" lon="-3.6714812088757753">
        <ele>588.7999877929688</ele>
        <time>2021-05-22T10:36:42.257Z</time>
      </trkpt>
      <trkpt lat="40.178213557228446" lon="-3.6715126410126686">
        <ele>589.0</ele>
        <time>2021-05-22T10:36:46.337Z</time>
      </trkpt>
      <trkpt lat="40.178253119811416" lon="-3.671523705124855">
        <ele>589.2000122070312</ele>
        <time>2021-05-22T10:36:50.418Z</time>
      </trkpt>
      <trkpt lat="40.17829343676567" lon="-3.6715394631028175">
        <ele>589.4000244140625</ele>
        <time>2021-05-22T10:36:54.500Z</time>
      </trkpt>
      <trkpt lat="40.178364431485534" lon="-3.6715736612677574">
        <ele>589.5999755859375</ele>
        <time>2021-05-22T10:36:58.584Z</time>
      </trkpt>
      <trkpt lat="40.17840198241174" lon="-3.671591179445386">
        <ele>589.7999877929688</ele>
        <time>2021-05-22T10:37:02.669Z</time>
      </trkpt>
      <trkpt lat="40.17843852750957" lon="-3.671606434509158">
        <ele>590.0</ele>
        <time>2021-05-22T10:37:06.755Z</time>
      </trkpt>
      <trkpt lat="40.17851614393294" lon="-3.6716407164931297">
        <ele>590.0</ele>
        <time>2021-05-22T10:37:10.843Z</time>
      </trkpt>
      <trkpt lat="40.17855478450656" lon="-3.6716552171856165">
        <ele>590.2000122070312</ele>
        <time>2021-05-22T10:37:14.932Z</time>
      </trkpt>
      <trkpt lat="40.178593173623085" lon="-3.6716669518500566">
        <ele>590.2000122070312</ele>
        <time>2021-05-22T10:37:19.022Z</time>
      </trkpt>
      <trkpt lat="40.178654696792364" lon="-3.671700479462743">
        <ele>590.5999755859375</ele>
        <time>2021-05-22T10:37:23.114Z</time>
      </trkpt>
      <trkpt lat="40.17871789634228" lon="-3.6717323306947947">
        <ele>590.7999877929688</ele>
        <time>2021-05-22T10:37:27.207Z</time>
      </trkpt>
      <trkpt lat="40.17875519581139" lon="-3.671745238825679">
        <ele>590.7999877929688</ele>
        <time>2021-05-22T10:37:31.301Z</time>
      </trkpt>
      <trkpt lat="40.17879182472825" lon="-3.6717594042420387">
        <ele>591.0</ele>
        <time>2021-05-22T10:37:35.396Z</time>
      </trkpt>
      <trkpt lat="40.17885376699269" lon="-3.6717862263321877">
        <ele>591.2000122070312</ele>
        <time>2021-05-22T10:37:39.493Z</time>
      </trkpt>
      <trkpt lat="40.178920067846775" lon="-3.6718162335455418">
        <ele>591.2000122070312</ele>
        <time>2021-05-22T10:37:43.592Z</time>
      </trkpt>
      <trkpt lat="40.178956696763635" lon="-3.6718293093144894">
        <ele>591.2000122070312</ele>
        <time>2021-05-22T10:37:47.692Z</time>
      </trkpt>
      <trkpt lat="40.1789914816618" lon="-3.6718411277979612">
        <ele>591.2000122070312</ele>
        <time>2021-05-22T10:37:51.793Z</time>
      </trkpt>
      <trkpt lat="40.179058872163296" lon="-3.671873062849045">
        <ele>591.4000244140625</ele>
        <time>2021-05-22T10:37:55.896Z</time>
      </trkpt>
      <trkpt lat="40.179138919338584" lon="-3.6719053331762552">
        <ele>591.4000244140625</ele>
        <time>2021-05-22T10:38:00.001Z</time>
      </trkpt>
      <trkpt lat="40.179218631237745" lon="-3.671936262398958">
        <ele>591.4000244140625</ele>
        <time>2021-05-22T10:38:04.108Z</time>
      </trkpt>
      <trkpt lat="40.17928954213858" lon="-3.6719754058867693">
        <ele>591.5999755859375</ele>
        <time>2021-05-22T10:38:08.217Z</time>
      </trkpt>
      <trkpt lat="40.17936430871487" lon="-3.6720069218426943">
        <ele>591.5999755859375</ele>
        <time>2021-05-22T10:38:12.328Z</time>
      </trkpt>
      <trkpt lat="40.179437566548586" lon="-3.6720375157892704">
        <ele>591.5999755859375</ele>
        <time>2021-05-22T10:38:16.441Z</time>
      </trkpt>
      <trkpt lat="40.17950822599232" lon="-3.672073306515813">
        <ele>591.4000244140625</ele>
        <time>2021-05-22T10:38:20.556Z</time>
      </trkpt>
      <trkpt lat="40.179551308974624" lon="-3.672074396163225">
        <ele>591.2000122070312</ele>
        <time>2021-05-22T10:38:24.672Z</time>
      </trkpt>
      <trkpt lat="40.1795974932611" lon="-3.6720598116517067">
        <ele>591.2000122070312</ele>
        <time>2021-05-22T10:38:28.789Z</time>
      </trkpt>
      <trkpt lat="40.179687095806" lon="-3.6720041558146477">
        <ele>591.0</ele>
        <time>2021-05-22T10:38:32.909Z</time>
      </trkpt>
      <trkpt lat="40.1797288376838" lon="-3.6719712987542152">
        <ele>591.0</ele>
        <time>2021-05-22T10:38:37.030Z</time>
      </trkpt>
      <trkpt lat="40.17977108247578" lon="-3.6719397827982903">
        <ele>591.0</ele>
        <time>2021-05-22T10:38:41.152Z</time>
      </trkpt>
      <trkpt lat="40.179852806031704" lon="-3.6718855518847704">
        <ele>591.0</ele>
        <time>2021-05-22T10:38:45.277Z</time>
      </trkpt>
      <trkpt lat="40.17993360757828" lon="-3.6718289740383625">
        <ele>591.0</ele>
        <time>2021-05-22T10:38:49.404Z</time>
      </trkpt>
      <trkpt lat="40.18001860007644" lon="-3.671766109764576">
        <ele>591.2000122070312</ele>
        <time>2021-05-22T10:38:53.534Z</time>
      </trkpt>
      <trkpt lat="40.18010392785072" lon="-3.671710705384612">
        <ele>591.2000122070312</ele>
        <time>2021-05-22T10:38:57.666Z</time>
      </trkpt>
      <trkpt lat="40.18019109964371" lon="-3.671655301004648">
        <ele>591.2000122070312</ele>
        <time>2021-05-22T10:39:01.800Z</time>
      </trkpt>
      <trkpt lat="40.18027659505606" lon="-3.671598555520177">
        <ele>591.4000244140625</ele>
        <time>2021-05-22T10:39:05.937Z</time>
      </trkpt>
      <trkpt lat="40.180362928658724" lon="-3.671541977673769">
        <ele>591.4000244140625</ele>
        <time>2021-05-22T10:39:10.076Z</time>
      </trkpt>
      <trkpt lat="40.180450016632676" lon="-3.6714808735996485">
        <ele>591.7999877929688</ele>
        <time>2021-05-22T10:39:14.218Z</time>
      </trkpt>
      <trkpt lat="40.18049452453852" lon="-3.6714505311101675">
        <ele>592.0</ele>
        <time>2021-05-22T10:39:18.361Z</time>
      </trkpt>
      <trkpt lat="40.18053995445371" lon="-3.6714205238968134">
        <ele>592.2000122070312</ele>
        <time>2021-05-22T10:39:22.506Z</time>
      </trkpt>
      <trkpt lat="40.180627293884754" lon="-3.671359671279788">
        <ele>592.7999877929688</ele>
        <time>2021-05-22T10:39:26.653Z</time>
      </trkpt>
      <trkpt lat="40.18071396276355" lon="-3.671301919966936">
        <ele>593.0</ele>
        <time>2021-05-22T10:39:30.803Z</time>
      </trkpt>
      <trkpt lat="40.180755285546184" lon="-3.6712725833058357">
        <ele>593.0</ele>
        <time>2021-05-22T10:39:34.954Z</time>
      </trkpt>
      <trkpt lat="40.18079426139593" lon="-3.6712403129786253">
        <ele>593.2000122070312</ele>
        <time>2021-05-22T10:39:39.106Z</time>
      </trkpt>
      <trkpt lat="40.18085804767907" lon="-3.6711539793759584">
        <ele>593.2000122070312</ele>
        <time>2021-05-22T10:39:43.260Z</time>
      </trkpt>
      <trkpt lat="40.18091688863933" lon="-3.6710656341165304">
        <ele>593.4000244140625</ele>
        <time>2021-05-22T10:39:47.417Z</time>
      </trkpt>
      <trkpt lat="40.180998193100095" lon="-3.6710341181606054">
        <ele>593.4000244140625</ele>
        <time>2021-05-22T10:39:51.576Z</time>
      </trkpt>
      <trkpt lat="40.181040186434984" lon="-3.671048702672124">
        <ele>593.4000244140625</ele>
        <time>2021-05-22T10:39:55.736Z</time>
      </trkpt>
      <trkpt lat="40.1810790784657" lon="-3.671078123152256">
        <ele>593.4000244140625</ele>
        <time>2021-05-22T10:39:59.897Z</time>
      </trkpt>
      <trkpt lat="40.181148145347834" lon="-3.671138556674123">
        <ele>593.4000244140625</ele>
        <time>2021-05-22T10:40:04.060Z</time>
      </trkpt>
      <trkpt lat="40.181188294664025" lon="-3.6711590085178614">
        <ele>593.4000244140625</ele>
        <time>2021-05-22T10:40:08.224Z</time>
      </trkpt>
      <trkpt lat="40.181229868903756" lon="-3.671179125085473">
        <ele>593.4000244140625</ele>
        <time>2021-05-22T10:40:12.390Z</time>
      </trkpt>
      <trkpt lat="40.18127119168639" lon="-3.6711972299963236">
        <ele>593.4000244140625</ele>
        <time>2021-05-22T10:40:16.557Z</time>
      </trkpt>
      <trkpt lat="40.1813121791929" lon="-3.6712129041552544">
        <ele>593.4000244140625</ele>
        <time>2021-05-22T10:40:20.725Z</time>
      </trkpt>
      <trkpt lat="40.18139566294849" lon="-3.671246264129877">
        <ele>593.5999755859375</ele>
        <time>2021-05-22T10:40:24.895Z</time>
      </trkpt>
      <trkpt lat="40.18148182891309" lon="-3.671280713751912">
        <ele>593.5999755859375</ele>
        <time>2021-05-22T10:40:29.067Z</time>
      </trkpt>
      <trkpt lat="40.181525414809585" lon="-3.6712979804724455">
        <ele>593.5999755859375</ele>
        <time>2021-05-22T10:40:33.241Z</time>
      </trkpt>
      <trkpt lat="40.18156908452511" lon="-3.671314660459757">
        <ele>593.5999755859375</ele>
        <time>2021-05-22T10:40:37.416Z</time>
      </trkpt>
      <trkpt lat="40.181650556623936" lon="-3.671349948272109">
        <ele>593.5999755859375</ele>
        <time>2021-05-22T10:40:41.593Z</time>
      </trkpt>
      <trkpt lat="40.18173177726567" lon="-3.6713878344744444">
        <ele>593.5999755859375</ele>
        <time>2021-05-22T10:40:45.772Z</time>
      </trkpt>
      <trkpt lat="40.18181676976383" lon="-3.6714227870106697">
        <ele>593.5999755859375</ele>
        <time>2021-05-22T10:40:49.954Z</time>
      </trkpt>
      <trkpt lat="40.18190050497651" lon="-3.671453380957246">
        <ele>593.7999877929688</ele>
        <time>2021-05-22T10:40:54.138Z</time>
      </trkpt>
      <trkpt lat="40.181978875771165" lon="-3.671482549980283">
        <ele>593.7999877929688</ele>
        <time>2021-05-22T10:40:58.324Z</time>
      </trkpt>
      <trkpt lat="40.182057581841946" lon="-3.6715141497552395">
        <ele>594.0</ele>
        <time>2021-05-22T10:41:02.512Z</time>
      </trkpt>
      <trkpt lat="40.1820978987962" lon="-3.6715279798954725">
        <ele>594.2000122070312</ele>
        <time>2021-05-22T10:41:06.701Z</time>
      </trkpt>
      <trkpt lat="40.182139137759805" lon="-3.671546671539545">
        <ele>594.4000244140625</ele>
        <time>2021-05-22T10:41:10.891Z</time>
      </trkpt>
      <trkpt lat="40.18218104727566" lon="-3.6715656146407127">
        <ele>594.4000244140625</ele>
        <time>2021-05-22T10:41:15.082Z</time>
      </trkpt>
      <trkpt lat="40.18222438171506" lon="-3.671584641560912">
        <ele>594.5999755859375</ele>
        <time>2021-05-22T10:41:19.275Z</time>
      </trkpt>
      <trkpt lat="40.182306775823236" lon="-3.6716177500784397">
        <ele>594.5999755859375</ele>
        <time>2021-05-22T10:41:23.470Z</time>
      </trkpt>
      <trkpt lat="40.18238749355078" lon="-3.671653540804982">
        <ele>594.5999755859375</ele>
        <time>2021-05-22T10:41:27.667Z</time>
      </trkpt>
      <trkpt lat="40.182427978143096" lon="-3.671671897172928">
        <ele>594.5999755859375</ele>
        <time>2021-05-22T10:41:31.865Z</time>
      </trkpt>
      <trkpt lat="40.182467959821224" lon="-3.6716896668076515">
        <ele>594.7999877929688</ele>
        <time>2021-05-22T10:41:36.064Z</time>
      </trkpt>
      <trkpt lat="40.182551108300686" lon="-3.6717232782393694">
        <ele>594.7999877929688</ele>
        <time>2021-05-22T10:41:40.265Z</time>
      </trkpt>
      <trkpt lat="40.18263626843691" lon="-3.671757308766246">
        <ele>595.0</ele>
        <time>2021-05-22T10:41:44.469Z</time>
      </trkpt>
      <trkpt lat="40.18272025510669" lon="-3.671792345121503">
        <ele>595.0</ele>
        <time>2021-05-22T10:41:48.675Z</time>
      </trkpt>
      <trkpt lat="40.18280306831002" lon="-3.671827968209982">
        <ele>595.0</ele>
        <time>2021-05-22T10:41:52.883Z</time>
      </trkpt>
      <trkpt lat="40.182844307273626" lon="-3.671845067292452">
        <ele>595.0</ele>
        <time>2021-05-22T10:41:57.092Z</time>
      </trkpt>
      <trkpt lat="40.18288604915142" lon="-3.6718623340129852">
        <ele>595.0</ele>
        <time>2021-05-22T10:42:01.302Z</time>
      </trkpt>
      <trkpt lat="40.18296919763088" lon="-3.671898962929845">
        <ele>594.7999877929688</ele>
        <time>2021-05-22T10:42:05.515Z</time>
      </trkpt>
      <trkpt lat="40.1830511726439" lon="-3.671934250742197">
        <ele>595.2000122070312</ele>
        <time>2021-05-22T10:42:09.730Z</time>
      </trkpt>
      <trkpt lat="40.18309400416911" lon="-3.6719524394720793">
        <ele>595.2000122070312</ele>
        <time>2021-05-22T10:42:13.946Z</time>
      </trkpt>
      <trkpt lat="40.18313532695174" lon="-3.671969538554549">
        <ele>595.2000122070312</ele>
        <time>2021-05-22T10:42:18.163Z</time>
      </trkpt>
      <trkpt lat="40.183213194832206" lon="-3.6720088496804237">
        <ele>595.4000244140625</ele>
        <time>2021-05-22T10:42:22.382Z</time>
      </trkpt>
      <trkpt lat="40.183269772678614" lon="-3.672062996774912">
        <ele>595.5999755859375</ele>
        <time>2021-05-22T10:42:26.603Z</time>
      </trkpt>
      <trkpt lat="40.18328133970499" lon="-3.672089483588934">
        <ele>595.5999755859375</ele>
        <time>2021-05-22T10:42:30.825Z</time>
      </trkpt>
      <trkpt lat="40.1832824293524" lon="-3.6721040681004524">
        <ele>595.5999755859375</ele>
        <time>2021-05-22T10:42:35.047Z</time>
      </trkpt>
      <trkpt lat="40.1832826808095" lon="-3.672115635126829">
        <ele>595.7999877929688</ele>
        <time>2021-05-22T10:42:39.269Z</time>
      </trkpt>
      <trkpt lat="40.18328092060983" lon="-3.672116557136178">
        <ele>595.7999877929688</ele>
        <time>2021-05-22T10:42:43.491Z</time>
      </trkpt>
      <trkpt lat="40.18327999860048" lon="-3.6721184849739075">
        <ele>596.0</ele>
        <time>2021-05-22T10:42:47.713Z</time>
      </trkpt>
      <trkpt lat="40.178347" lon="-3.67033"/>
      <trkpt lat="40.178347" lon="-3.67033"/>
      <trkpt lat="40.178347" lon="-3.67033"/>
      <trkpt lat="40.178347" lon="-3.67033"/>
      <trkpt lat="40.178347" lon="-3.67033"/>
      <trkpt lat="40.178375" lon="-3.670235"/>
      <trkpt lat="40.178375" lon="-3.670235"/>
      <trkpt lat="40.178402" lon="-3.670242"/>
      <trkpt lat="40.178418" lon="-3.670258"/>
      <trkpt lat="40.178418" lon="-3.670258"/>
      <trkpt lat="40.178455" lon="-3.670272"/>
      <trkpt lat="40.178455" lon="-3.670272"/>
      <trkpt lat="40.178507" lon="-3.670278"/>
      <trkpt lat="40.178507" lon="-3.670278"/>
      <trkpt lat="40.178553" lon="-3.670293"/>
      <trkpt lat="40.178553" lon="-3.670293"/>
      <trkpt lat="40.178607" lon="-3.670303"/>
      <trkpt lat="40.178607" lon="-3.670303"/>
      <trkpt lat="40.178665" lon="-3.670323"/>
      <trkpt lat="40.178665" lon="-3.670323"/>
      <trkpt lat="40.178725" lon="-3.670345"/>
      <trkpt lat="40.178725" lon="-3.670345"/>
      <trkpt lat="40.178787" lon="-3.670372"/>
      <trkpt lat="40.178787" lon="-3.670372"/>
      <trkpt lat="40.178855" lon="-3.670388"/>
      <trkpt lat="40.178855" lon="-3.670388"/>
      <trkpt lat="40.178927" lon="-3.670395"/>
      <trkpt lat="40.178927" lon="-3.670395"/>
      <trkpt lat="40.179" lon="-3.670398"/>
      <trkpt lat="40.179" lon="-3.670398"/>
      <trkpt lat="40.179063" lon="-3.67043"/>
      <trkpt lat="40.179063" lon="-3.67043"/>
      <trkpt lat="40.179137" lon="-3.670463"/>
      <trkpt lat="40.179137" lon="-3.670463"/>
      <trkpt lat="40.179202" lon="-3.670488"/>
      <trkpt lat="40.179202" lon="-3.670488"/>
      <trkpt lat="40.179258" lon="-3.670517"/>
      <trkpt lat="40.179288" lon="-3.670525"/>
      <trkpt lat="40.179318" lon="-3.670532"/>
      <trkpt lat="40.179318" lon="-3.670532"/>
      <trkpt lat="40.179375" lon="-3.670553"/>
      <trkpt lat="40.1794" lon="-3.670567"/>
      <trkpt lat="40.1794" lon="-3.670567"/>
      <trkpt lat="40.17945" lon="-3.670597"/>
      <trkpt lat="40.179475" lon="-3.670605"/>
      <trkpt lat="40.179475" lon="-3.670605"/>
      <trkpt lat="40.179515" lon="-3.670625"/>
      <trkpt lat="40.179515" lon="-3.670625"/>
      <trkpt lat="40.17959" lon="-3.670638"/>
      <trkpt lat="40.17959" lon="-3.670638"/>
      <trkpt lat="40.179652" lon="-3.670655"/>
      <trkpt lat="40.179652" lon="-3.670655"/>
      <trkpt lat="40.179703" lon="-3.670677"/>
      <trkpt lat="40.179703" lon="-3.670677"/>
      <trkpt lat="40.179752" lon="-3.670697"/>
      <trkpt lat="40.179752" lon="-3.670697"/>
      <trkpt lat="40.17981" lon="-3.67074"/>
      <trkpt lat="40.17981" lon="-3.67074"/>
      <trkpt lat="40.179863" lon="-3.67077"/>
      <trkpt lat="40.179863" lon="-3.67077"/>
      <trkpt lat="40.179907" lon="-3.6708"/>
      <trkpt lat="40.179907" lon="-3.6708"/>
      <trkpt lat="40.179965" lon="-3.670822"/>
      <trkpt lat="40.179965" lon="-3.670822"/>
      <trkpt lat="40.180032" lon="-3.67084"/>
      <trkpt lat="40.180032" lon="-3.67084"/>
      <trkpt lat="40.180092" lon="-3.670865"/>
      <trkpt lat="40.180092" lon="-3.670865"/>
      <trkpt lat="40.18013" lon="-3.670902"/>
      <trkpt lat="40.18013" lon="-3.670902"/>
      <trkpt lat="40.180202" lon="-3.670903"/>
      <trkpt lat="40.180202" lon="-3.670903"/>
      <trkpt lat="40.180262" lon="-3.670927"/>
      <trkpt lat="40.180262" lon="-3.670927"/>
      <trkpt lat="40.180367" lon="-3.670922"/>
      <trkpt lat="40.180367" lon="-3.670922"/>
      <trkpt lat="40.180433" lon="-3.670947"/>
      <trkpt lat="40.180433" lon="-3.670947"/>
      <trkpt lat="40.180497" lon="-3.67097"/>
      <trkpt lat="40.180497" lon="-3.67097"/>
      <trkpt lat="40.18056" lon="-3.670992"/>
      <trkpt lat="40.18056" lon="-3.670992"/>
      <trkpt lat="40.180623" lon="-3.671013"/>
      <trkpt lat="40.180623" lon="-3.671013"/>
      <trkpt lat="40.180687" lon="-3.671033"/>
      <trkpt lat="40.180723" lon="-3.671042"/>
      <trkpt lat="40.180723" lon="-3.671042"/>
      <trkpt lat="40.180795" lon="-3.671053"/>
      <trkpt lat="40.180795" lon="-3.671053"/>
      <trkpt lat="40.180865" lon="-3.671102"/>
      <trkpt lat="40.180865" lon="-3.671102"/>
      <trkpt lat="40.18093" lon="-3.671157"/>
      <trkpt lat="40.18093" lon="-3.671157"/>
      <trkpt lat="40.181002" lon="-3.671197"/>
      <trkpt lat="40.181037" lon="-3.671213"/>
      <trkpt lat="40.181037" lon="-3.671213"/>
      <trkpt lat="40.181108" lon="-3.67124"/>
      <trkpt lat="40.181108" lon="-3.67124"/>
      <trkpt lat="40.181177" lon="-3.671267"/>
      <trkpt lat="40.181177" lon="-3.671267"/>
      <trkpt lat="40.181243" lon="-3.671297"/>
      <trkpt lat="40.181243" lon="-3.671297"/>
      <trkpt lat="40.18131" lon="-3.671325"/>
      <trkpt lat="40.18131" lon="-3.671325"/>
      <trkpt lat="40.181382" lon="-3.671348"/>
      <trkpt lat="40.181382" lon="-3.671348"/>
      <trkpt lat="40.181447" lon="-3.671375"/>
      <trkpt lat="40.181447" lon="-3.671375"/>
      <trkpt lat="40.181508" lon="-3.6714"/>
      <trkpt lat="40.181508" lon="-3.6714"/>
      <trkpt lat="40.181577" lon="-3.671435"/>
      <trkpt lat="40.181577" lon="-3.671435"/>
      <trkpt lat="40.181655" lon="-3.671475"/>
      <trkpt lat="40.181655" lon="-3.671475"/>
      <trkpt lat="40.18173" lon="-3.671515"/>
      <trkpt lat="40.18173" lon="-3.671515"/>
      <trkpt lat="40.181803" lon="-3.671552"/>
      <trkpt lat="40.181837" lon="-3.67157"/>
      <trkpt lat="40.181837" lon="-3.67157"/>
      <trkpt lat="40.181912" lon="-3.671603"/>
      <trkpt lat="40.181912" lon="-3.671603"/>
      <trkpt lat="40.181988" lon="-3.671637"/>
      <trkpt lat="40.181988" lon="-3.671637"/>
      <trkpt lat="40.18206" lon="-3.671668"/>
      <trkpt lat="40.182093" lon="-3.67168"/>
      <trkpt lat="40.182093" lon="-3.67168"/>
      <trkpt lat="40.18217" lon="-3.67171"/>
      <trkpt lat="40.18217" lon="-3.67171"/>
      <trkpt lat="40.182243" lon="-3.671738"/>
      <trkpt lat="40.182243" lon="-3.671738"/>
      <trkpt lat="40.18231" lon="-3.671765"/>
      <trkpt lat="40.18231" lon="-3.671765"/>
      <trkpt lat="40.182378" lon="-3.671797"/>
      <trkpt lat="40.182378" lon="-3.671797"/>
      <trkpt lat="40.182447" lon="-3.671825"/>
      <trkpt lat="40.182478" lon="-3.671837"/>
      <trkpt lat="40.182478" lon="-3.671837"/>
      <trkpt lat="40.182545" lon="-3.671863"/>
      <trkpt lat="40.182545" lon="-3.671863"/>
      <trkpt lat="40.18261" lon="-3.671888"/>
      <trkpt lat="40.18261" lon="-3.671888"/>
      <trkpt lat="40.182678" lon="-3.671915"/>
      <trkpt lat="40.182678" lon="-3.671915"/>
      <trkpt lat="40.18275" lon="-3.671943"/>
      <trkpt lat="40.18275" lon="-3.671943"/>
      <trkpt lat="40.182828" lon="-3.671963"/>
      <trkpt lat="40.182858" lon="-3.671978"/>
      <trkpt lat="40.182858" lon="-3.671978"/>
      <trkpt lat="40.182923" lon="-3.672015"/>
      <trkpt lat="40.182923" lon="-3.672015"/>
      <trkpt lat="40.182988" lon="-3.672047"/>
      <trkpt lat="40.182988" lon="-3.672047"/>
      <trkpt lat="40.183092" lon="-3.672067"/>
      <trkpt lat="40.183092" lon="-3.672067"/>
      <trkpt lat="40.183175" lon="-3.67209"/>
      <trkpt lat="40.183175" lon="-3.67209"/>
      <trkpt lat="40.183247" lon="-3.672115"/>
      <trkpt lat="40.183247" lon="-3.672115"/>
      <trkpt lat="40.183288" lon="-3.672142"/>
      <trkpt lat="40.183288" lon="-3.672142"/>
      <trkpt lat="40.183305" lon="-3.672162"/>
      <trkpt lat="40.183305" lon="-3.672162"/>
      <trkpt lat="40.18331" lon="-3.672172"/>
      <trkpt lat="40.18331" lon="-3.672172"/>
      <trkpt lat="40.183323" lon="-3.672163"/>
      <trkpt lat="40.183323" lon="-3.672163"/>
      <trkpt lat="40.183323" lon="-3.672163"/>
      <trkpt lat="40.183323" lon="-3.672163"/>
      <trkpt lat="40.183323" lon="-3.672163"/>
      <trkpt lat="40.183323" lon="-3.672163"/>
      <trkpt lat="40.183323" lon="-3.672163"/>
      <trkpt lat="40.183312" lon="-3.672078"/>
      <trkpt lat="40.183312" lon="-3.672078"/>
      <trkpt lat="40.183248" lon="-3.67205"/>
      <trkpt lat="40.183213" lon="-3.672033"/>
      <trkpt lat="40.183213" lon="-3.672033"/>
      <trkpt lat="40.183147" lon="-3.671997"/>
      <trkpt lat="40.183147" lon="-3.671997"/>
      <trkpt lat="40.183083" lon="-3.67197"/>
      <trkpt lat="40.183083" lon="-3.67197"/>
      <trkpt lat="40.18303" lon="-3.671945"/>
      <trkpt lat="40.183002" lon="-3.67193"/>
      <trkpt lat="40.183002" lon="-3.67193"/>
      <trkpt lat="40.182947" lon="-3.671907"/>
      <trkpt lat="40.182917" lon="-3.671902"/>
      <trkpt lat="40.182917" lon="-3.671902"/>
      <trkpt lat="40.182863" lon="-3.671887"/>
      <trkpt lat="40.182832" lon="-3.67187"/>
      <trkpt lat="40.182832" lon="-3.67187"/>
      <trkpt lat="40.182768" lon="-3.671842"/>
      <trkpt lat="40.182768" lon="-3.671842"/>
      <trkpt lat="40.182697" lon="-3.67182"/>
      <trkpt lat="40.182697" lon="-3.67182"/>
      <trkpt lat="40.18263" lon="-3.67179"/>
      <trkpt lat="40.18263" lon="-3.67179"/>
      <trkpt lat="40.182563" lon="-3.671762"/>
      <trkpt lat="40.182563" lon="-3.671762"/>
      <trkpt lat="40.182498" lon="-3.671737"/>
      <trkpt lat="40.182498" lon="-3.671737"/>
      <trkpt lat="40.182435" lon="-3.671713"/>
      <trkpt lat="40.1824" lon="-3.671695"/>
      <trkpt lat="40.1824" lon="-3.671695"/>
      <trkpt lat="40.182333" lon="-3.671662"/>
      <trkpt lat="40.182333" lon="-3.671662"/>
      <trkpt lat="40.182262" lon="-3.671625"/>
      <trkpt lat="40.182225" lon="-3.671608"/>
      <trkpt lat="40.182225" lon="-3.671608"/>
      <trkpt lat="40.182145" lon="-3.671585"/>
      <trkpt lat="40.182145" lon="-3.671585"/>
      <trkpt lat="40.18207" lon="-3.67155"/>
      <trkpt lat="40.18207" lon="-3.67155"/>
      <trkpt lat="40.181998" lon="-3.671518"/>
      <trkpt lat="40.181998" lon="-3.671518"/>
      <trkpt lat="40.181927" lon="-3.671493"/>
      <trkpt lat="40.181927" lon="-3.671493"/>
      <trkpt lat="40.181855" lon="-3.671465"/>
      <trkpt lat="40.181855" lon="-3.671465"/>
      <trkpt lat="40.181783" lon="-3.671432"/>
      <trkpt lat="40.181783" lon="-3.671432"/>
      <trkpt lat="40.18171" lon="-3.671393"/>
      <trkpt lat="40.18171" lon="-3.671393"/>
      <trkpt lat="40.181632" lon="-3.671363"/>
      <trkpt lat="40.181595" lon="-3.671352"/>
      <trkpt lat="40.181558" lon="-3.671335"/>
      <trkpt lat="40.181558" lon="-3.671335"/>
      <trkpt lat="40.181488" lon="-3.671302"/>
      <trkpt lat="40.181488" lon="-3.671302"/>
      <trkpt lat="40.181412" lon="-3.671263"/>
      <trkpt lat="40.181412" lon="-3.671263"/>
      <trkpt lat="40.181332" lon="-3.671227"/>
      <trkpt lat="40.181332" lon="-3.671227"/>
      <trkpt lat="40.181247" lon="-3.671187"/>
      <trkpt lat="40.181247" lon="-3.671187"/>
      <trkpt lat="40.181163" lon="-3.671163"/>
      <trkpt lat="40.181123" lon="-3.671163"/>
      <trkpt lat="40.181123" lon="-3.671163"/>
      <trkpt lat="40.181063" lon="-3.671193"/>
      <trkpt lat="40.181063" lon="-3.671193"/>
      <trkpt lat="40.181003" lon="-3.671223"/>
      <trkpt lat="40.181003" lon="-3.671223"/>
      <trkpt lat="40.18094" lon="-3.671232"/>
      <trkpt lat="40.18091" lon="-3.671227"/>
      <trkpt lat="40.18091" lon="-3.671227"/>
      <trkpt lat="40.18086" lon="-3.67123"/>
      <trkpt lat="40.18086" lon="-3.67123"/>
      <trkpt lat="40.18081" lon="-3.671268"/>
      <trkpt lat="40.18081" lon="-3.671268"/>
      <trkpt lat="40.180757" lon="-3.671307"/>
      <trkpt lat="40.180757" lon="-3.671307"/>
      <trkpt lat="40.180703" lon="-3.671338"/>
      <trkpt lat="40.180703" lon="-3.671338"/>
      <trkpt lat="40.18065" lon="-3.671373"/>
      <trkpt lat="40.18065" lon="-3.671373"/>
      <trkpt lat="40.180602" lon="-3.671413"/>
      <trkpt lat="40.180578" lon="-3.671432"/>
      <trkpt lat="40.180578" lon="-3.671432"/>
      <trkpt lat="40.180522" lon="-3.671472"/>
      <trkpt lat="40.180522" lon="-3.671472"/>
      <trkpt lat="40.180465" lon="-3.671508"/>
      <trkpt lat="40.18044" lon="-3.671528"/>
      <trkpt lat="40.18044" lon="-3.671528"/>
      <trkpt lat="40.180388" lon="-3.671572"/>
      <trkpt lat="40.180388" lon="-3.671572"/>
      <trkpt lat="40.180337" lon="-3.671603"/>
      <trkpt lat="40.180337" lon="-3.671603"/>
      <trkpt lat="40.180288" lon="-3.671643"/>
      <trkpt lat="40.180288" lon="-3.671643"/>
      <trkpt lat="40.180232" lon="-3.671677"/>
      <trkpt lat="40.180232" lon="-3.671677"/>
      <trkpt lat="40.180172" lon="-3.67171"/>
      <trkpt lat="40.180172" lon="-3.67171"/>
      <trkpt lat="40.180113" lon="-3.671755"/>
      <trkpt lat="40.180113" lon="-3.671755"/>
      <trkpt lat="40.18005" lon="-3.671795"/>
      <trkpt lat="40.18005" lon="-3.671795"/>
      <trkpt lat="40.179982" lon="-3.671838"/>
      <trkpt lat="40.179982" lon="-3.671838"/>
      <trkpt lat="40.179902" lon="-3.671875"/>
      <trkpt lat="40.179902" lon="-3.671875"/>
      <trkpt lat="40.179832" lon="-3.671928"/>
      <trkpt lat="40.179832" lon="-3.671928"/>
      <trkpt lat="40.179758" lon="-3.671977"/>
      <trkpt lat="40.179758" lon="-3.671977"/>
      <trkpt lat="40.179682" lon="-3.672012"/>
      <trkpt lat="40.179682" lon="-3.672012"/>
      <trkpt lat="40.179602" lon="-3.672017"/>
      <trkpt lat="40.179602" lon="-3.672017"/>
      <trkpt lat="40.179528" lon="-3.672"/>
      <trkpt lat="40.179528" lon="-3.672"/>
      <trkpt lat="40.17945" lon="-3.671973"/>
      <trkpt lat="40.17945" lon="-3.671973"/>
      <trkpt lat="40.179378" lon="-3.671945"/>
      <trkpt lat="40.179378" lon="-3.671945"/>
      <trkpt lat="40.179303" lon="-3.671918"/>
      <trkpt lat="40.179303" lon="-3.671918"/>
      <trkpt lat="40.179223" lon="-3.671885"/>
      <trkpt lat="40.179223" lon="-3.671885"/>
      <trkpt lat="40.179158" lon="-3.671852"/>
      <trkpt lat="40.179158" lon="-3.671852"/>
      <trkpt lat="40.17909" lon="-3.671825"/>
      <trkpt lat="40.17909" lon="-3.671825"/>
      <trkpt lat="40.17902" lon="-3.671805"/>
      <trkpt lat="40.17902" lon="-3.671805"/>
      <trkpt lat="40.178937" lon="-3.671765"/>
      <trkpt lat="40.178937" lon="-3.671765"/>
      <trkpt lat="40.17885" lon="-3.671728"/>
      <trkpt lat="40.17885" lon="-3.671728"/>
      <trkpt lat="40.178775" lon="-3.671702"/>
      <trkpt lat="40.178775" lon="-3.671702"/>
      <trkpt lat="40.178693" lon="-3.67167"/>
      <trkpt lat="40.178693" lon="-3.67167"/>
      <trkpt lat="40.178627" lon="-3.671618"/>
      <trkpt lat="40.178627" lon="-3.671618"/>
      <trkpt lat="40.178553" lon="-3.671572"/>
      <trkpt lat="40.178553" lon="-3.671572"/>
      <trkpt lat="40.178462" lon="-3.671532"/>
      <trkpt lat="40.178462" lon="-3.671532"/>
      <trkpt lat="40.178367" lon="-3.671492"/>
      <trkpt lat="40.178367" lon="-3.671492"/>
      <trkpt lat="40.17828" lon="-3.671482"/>
      <trkpt lat="40.17828" lon="-3.671482"/>
      <trkpt lat="40.178185" lon="-3.671458"/>
      <trkpt lat="40.178185" lon="-3.671458"/>
      <trkpt lat="40.178092" lon="-3.671428"/>
      <trkpt lat="40.178047" lon="-3.671413"/>
      <trkpt lat="40.178007" lon="-3.671395"/>
      <trkpt lat="40.178007" lon="-3.671395"/>
      <trkpt lat="40.177913" lon="-3.671358"/>
      <trkpt lat="40.177913" lon="-3.671358"/>
      <trkpt lat="40.177813" lon="-3.671337"/>
      <trkpt lat="40.177813" lon="-3.671337"/>
      <trkpt lat="40.177717" lon="-3.671328"/>
      <trkpt lat="40.177665" lon="-3.671343"/>
      <trkpt lat="40.177665" lon="-3.671343"/>
      <trkpt lat="40.177577" lon="-3.671345"/>
      <trkpt lat="40.177577" lon="-3.671345"/>
      <trkpt lat="40.177503" lon="-3.671357"/>
      <trkpt lat="40.177477" lon="-3.671367"/>
      <trkpt lat="40.177477" lon="-3.671367"/>
      <trkpt lat="40.177423" lon="-3.671403"/>
      <trkpt lat="40.177423" lon="-3.671403"/>
      <trkpt lat="40.177387" lon="-3.671453"/>
      <trkpt lat="40.177387" lon="-3.671453"/>
      <trkpt lat="40.177355" lon="-3.671493"/>
      <trkpt lat="40.177355" lon="-3.671493"/>
      <trkpt lat="40.177293" lon="-3.671485"/>
      <trkpt lat="40.177293" lon="-3.671485"/>
      <trkpt lat="40.177248" lon="-3.671493"/>
      <trkpt lat="40.177248" lon="-3.671493"/>
      <trkpt lat="40.177232" lon="-3.671558"/>
      <trkpt lat="40.177232" lon="-3.671558"/>
      <trkpt lat="40.177205" lon="-3.671637"/>
      <trkpt lat="40.177188" lon="-3.671672"/>
      <trkpt lat="40.177188" lon="-3.671672"/>
      <trkpt lat="40.177165" lon="-3.671748"/>
      <trkpt lat="40.177155" lon="-3.671787"/>
      <trkpt lat="40.177155" lon="-3.671787"/>
      <trkpt lat="40.177133" lon="-3.671858"/>
      <trkpt lat="40.177133" lon="-3.671858"/>
      <trkpt lat="40.177103" lon="-3.671938"/>
      <trkpt lat="40.177103" lon="-3.671938"/>
      <trkpt lat="40.177075" lon="-3.67202"/>
      <trkpt lat="40.177075" lon="-3.67202"/>
      <trkpt lat="40.177047" lon="-3.672103"/>
      <trkpt lat="40.177047" lon="-3.672103"/>
      <trkpt lat="40.177022" lon="-3.672188"/>
      <trkpt lat="40.177022" lon="-3.672188"/>
      <trkpt lat="40.176993" lon="-3.672272"/>
      <trkpt lat="40.176993" lon="-3.672272"/>
      <trkpt lat="40.176968" lon="-3.672355"/>
      <trkpt lat="40.176968" lon="-3.672355"/>
      <trkpt lat="40.176937" lon="-3.672432"/>
      <trkpt lat="40.176937" lon="-3.672432"/>
      <trkpt lat="40.176897" lon="-3.672503"/>
      <trkpt lat="40.176897" lon="-3.672503"/>
      <trkpt lat="40.176863" lon="-3.67258"/>
      <trkpt lat="40.176863" lon="-3.67258"/>
      <trkpt lat="40.176823" lon="-3.672663"/>
      <trkpt lat="40.176823" lon="-3.672663"/>
      <trkpt lat="40.17679" lon="-3.672738"/>
      <trkpt lat="40.17679" lon="-3.672738"/>
      <trkpt lat="40.176753" lon="-3.672817"/>
      <trkpt lat="40.176753" lon="-3.672817"/>
      <trkpt lat="40.176725" lon="-3.672892"/>
      <trkpt lat="40.176725" lon="-3.672892"/>
      <trkpt lat="40.176698" lon="-3.672967"/>
      <trkpt lat="40.176698" lon="-3.672967"/>
      <trkpt lat="40.176672" lon="-3.67305"/>
      <trkpt lat="40.176672" lon="-3.67305"/>
      <trkpt lat="40.176645" lon="-3.673138"/>
      <trkpt lat="40.176645" lon="-3.673138"/>
      <trkpt lat="40.176618" lon="-3.673227"/>
      <trkpt lat="40.176618" lon="-3.673227"/>
      <trkpt lat="40.17659" lon="-3.67331"/>
      <trkpt lat="40.17659" lon="-3.67331"/>
      <trkpt lat="40.176563" lon="-3.673393"/>
      <trkpt lat="40.176563" lon="-3.673393"/>
      <trkpt lat="40.176537" lon="-3.673475"/>
      <trkpt lat="40.176537" lon="-3.673475"/>
      <trkpt lat="40.176507" lon="-3.673555"/>
      <trkpt lat="40.176507" lon="-3.673555"/>
      <trkpt lat="40.176478" lon="-3.673635"/>
      <trkpt lat="40.176478" lon="-3.673635"/>
      <trkpt lat="40.17645" lon="-3.673713"/>
      <trkpt lat="40.17645" lon="-3.673713"/>
      <trkpt lat="40.176422" lon="-3.673797"/>
      <trkpt lat="40.176422" lon="-3.673797"/>
      <trkpt lat="40.17639" lon="-3.673878"/>
      <trkpt lat="40.17639" lon="-3.673878"/>
      <trkpt lat="40.176362" lon="-3.673962"/>
      <trkpt lat="40.176362" lon="-3.673962"/>
      <trkpt lat="40.176338" lon="-3.674047"/>
      <trkpt lat="40.176338" lon="-3.674047"/>
      <trkpt lat="40.176313" lon="-3.674128"/>
      <trkpt lat="40.176313" lon="-3.674128"/>
      <trkpt lat="40.176288" lon="-3.674218"/>
      <trkpt lat="40.176288" lon="-3.674218"/>
      <trkpt lat="40.176263" lon="-3.674312"/>
      <trkpt lat="40.176263" lon="-3.674312"/>
      <trkpt lat="40.17624" lon="-3.674403"/>
      <trkpt lat="40.17624" lon="-3.674403"/>
      <trkpt lat="40.176213" lon="-3.674498"/>
      <trkpt lat="40.176213" lon="-3.674498"/>
      <trkpt lat="40.17619" lon="-3.674595"/>
      <trkpt lat="40.17619" lon="-3.674595"/>
      <trkpt lat="40.176158" lon="-3.674688"/>
      <trkpt lat="40.176158" lon="-3.674688"/>
      <trkpt lat="40.176133" lon="-3.674775"/>
      <trkpt lat="40.176133" lon="-3.674775"/>
      <trkpt lat="40.176108" lon="-3.674868"/>
      <trkpt lat="40.176108" lon="-3.674868"/>
      <trkpt lat="40.176083" lon="-3.674965"/>
      <trkpt lat="40.17607" lon="-3.675013"/>
      <trkpt lat="40.17607" lon="-3.675013"/>
      <trkpt lat="40.176047" lon="-3.675107"/>
      <trkpt lat="40.176035" lon="-3.675155"/>
      <trkpt lat="40.176025" lon="-3.675202"/>
      <trkpt lat="40.176025" lon="-3.675202"/>
      <trkpt lat="40.176003" lon="-3.675292"/>
      <trkpt lat="40.175993" lon="-3.675335"/>
      <trkpt lat="40.175993" lon="-3.675335"/>
      <trkpt lat="40.175977" lon="-3.675417"/>
      <trkpt lat="40.175977" lon="-3.675417"/>
      <trkpt lat="40.175958" lon="-3.675505"/>
      <trkpt lat="40.175958" lon="-3.675505"/>
      <trkpt lat="40.175947" lon="-3.675592"/>
      <trkpt lat="40.175947" lon="-3.675592"/>
      <trkpt lat="40.175937" lon="-3.675682"/>
      <trkpt lat="40.175937" lon="-3.675682"/>
      <trkpt lat="40.175923" lon="-3.67577"/>
      <trkpt lat="40.175923" lon="-3.67577"/>
      <trkpt lat="40.175912" lon="-3.67585"/>
      <trkpt lat="40.175907" lon="-3.675892"/>
      <trkpt lat="40.175907" lon="-3.675892"/>
      <trkpt lat="40.175895" lon="-3.675983"/>
      <trkpt lat="40.175895" lon="-3.675983"/>
      <trkpt lat="40.17588" lon="-3.676083"/>
      <trkpt lat="40.175878" lon="-3.676135"/>
      <trkpt lat="40.175878" lon="-3.676135"/>
      <trkpt lat="40.175873" lon="-3.676237"/>
      <trkpt lat="40.175873" lon="-3.676237"/>
      <trkpt lat="40.175867" lon="-3.676338"/>
      <trkpt lat="40.175867" lon="-3.676338"/>
      <trkpt lat="40.175857" lon="-3.676435"/>
      <trkpt lat="40.175857" lon="-3.676435"/>
      <trkpt lat="40.175847" lon="-3.676532"/>
      <trkpt lat="40.175847" lon="-3.676532"/>
      <trkpt lat="40.17584" lon="-3.676625"/>
      <trkpt lat="40.17584" lon="-3.676625"/>
      <trkpt lat="40.175833" lon="-3.676718"/>
      <trkpt lat="40.175833" lon="-3.676718"/>
      <trkpt lat="40.175828" lon="-3.67681"/>
      <trkpt lat="40.175827" lon="-3.676855"/>
      <trkpt lat="40.175827" lon="-3.676855"/>
      <trkpt lat="40.175825" lon="-3.676945"/>
      <trkpt lat="40.175823" lon="-3.676988"/>
      <trkpt lat="40.175822" lon="-3.677032"/>
      <trkpt lat="40.175822" lon="-3.677032"/>
      <trkpt lat="40.175822" lon="-3.67712"/>
      <trkpt lat="40.175822" lon="-3.67712"/>
      <trkpt lat="40.175823" lon="-3.67721"/>
      <trkpt lat="40.175823" lon="-3.677257"/>
      <trkpt lat="40.175823" lon="-3.677257"/>
      <trkpt lat="40.175823" lon="-3.677355"/>
      <trkpt lat="40.175823" lon="-3.677355"/>
      <trkpt lat="40.175823" lon="-3.67746"/>
      <trkpt lat="40.175823" lon="-3.67746"/>
      <trkpt lat="40.175828" lon="-3.677573"/>
      <trkpt lat="40.175835" lon="-3.67763"/>
      <trkpt lat="40.175835" lon="-3.67763"/>
      <trkpt lat="40.17585" lon="-3.677747"/>
      <trkpt lat="40.175862" lon="-3.67781"/>
      <trkpt lat="40.175862" lon="-3.67781"/>
      <trkpt lat="40.175893" lon="-3.677965"/>
      <trkpt lat="40.175893" lon="-3.677965"/>
      <trkpt lat="40.175923" lon="-3.67813"/>
      <trkpt lat="40.175923" lon="-3.67813"/>
      <trkpt lat="40.175937" lon="-3.678287"/>
      <trkpt lat="40.175937" lon="-3.678287"/>
      <trkpt lat="40.175915" lon="-3.678445"/>
      <trkpt lat="40.175915" lon="-3.678445"/>
      <trkpt lat="40.175908" lon="-3.678598"/>
      <trkpt lat="40.175908" lon="-3.678598"/>
      <trkpt lat="40.175933" lon="-3.678747"/>
      <trkpt lat="40.175933" lon="-3.678747"/>
      <trkpt lat="40.175967" lon="-3.6789"/>
      <trkpt lat="40.175967" lon="-3.6789"/>
      <trkpt lat="40.175993" lon="-3.679053"/>
      <trkpt lat="40.175993" lon="-3.679053"/>
      <trkpt lat="40.176022" lon="-3.679215"/>
      <trkpt lat="40.176022" lon="-3.679215"/>
      <trkpt lat="40.176045" lon="-3.679367"/>
      <trkpt lat="40.176045" lon="-3.679367"/>
      <trkpt lat="40.176068" lon="-3.67951"/>
      <trkpt lat="40.176068" lon="-3.67951"/>
      <trkpt lat="40.176095" lon="-3.679642"/>
      <trkpt lat="40.176103" lon="-3.6797"/>
      <trkpt lat="40.17611" lon="-3.679758"/>
      <trkpt lat="40.17611" lon="-3.679758"/>
      <trkpt lat="40.176127" lon="-3.679872"/>
      <trkpt lat="40.176127" lon="-3.679872"/>
      <trkpt lat="40.176153" lon="-3.679975"/>
      <trkpt lat="40.176153" lon="-3.679975"/>
      <trkpt lat="40.176163" lon="-3.680072"/>
      <trkpt lat="40.176158" lon="-3.68012"/>
      <trkpt lat="40.176158" lon="-3.68012"/>
      <trkpt lat="40.176127" lon="-3.680212"/>
      <trkpt lat="40.176127" lon="-3.680212"/>
      <trkpt lat="40.176095" lon="-3.680295"/>
      <trkpt lat="40.176078" lon="-3.680322"/>
      <trkpt lat="40.176078" lon="-3.680322"/>
      <trkpt lat="40.176057" lon="-3.680383"/>
      <trkpt lat="40.176037" lon="-3.68041"/>
      <trkpt lat="40.176037" lon="-3.68041"/>
      <trkpt lat="40.175987" lon="-3.680448"/>
      <trkpt lat="40.175962" lon="-3.680463"/>
      <trkpt lat="40.175962" lon="-3.680463"/>
      <trkpt lat="40.175898" lon="-3.680503"/>
      <trkpt lat="40.175898" lon="-3.680503"/>
      <trkpt lat="40.175827" lon="-3.68054"/>
      <trkpt lat="40.175827" lon="-3.68054"/>
      <trkpt lat="40.17575" lon="-3.680587"/>
      <trkpt lat="40.175708" lon="-3.68061"/>
      <trkpt lat="40.175708" lon="-3.68061"/>
      <trkpt lat="40.175632" lon="-3.68066"/>
      <trkpt lat="40.17559" lon="-3.680685"/>
      <trkpt lat="40.175548" lon="-3.68071"/>
      <trkpt lat="40.175548" lon="-3.68071"/>
      <trkpt lat="40.175468" lon="-3.680757"/>
      <trkpt lat="40.175432" lon="-3.680777"/>
      <trkpt lat="40.175398" lon="-3.680795"/>
      <trkpt lat="40.175398" lon="-3.680795"/>
      <trkpt lat="40.17533" lon="-3.680837"/>
      <trkpt lat="40.17533" lon="-3.680837"/>
      <trkpt lat="40.175267" lon="-3.680877"/>
      <trkpt lat="40.175267" lon="-3.680877"/>
      <trkpt lat="40.175192" lon="-3.680923"/>
      <trkpt lat="40.175162" lon="-3.680938"/>
      <trkpt lat="40.175162" lon="-3.680938"/>
      <trkpt lat="40.175098" lon="-3.680978"/>
      <trkpt lat="40.175098" lon="-3.680978"/>
      <trkpt lat="40.175027" lon="-3.681018"/>
      <trkpt lat="40.174992" lon="-3.681038"/>
      <trkpt lat="40.174992" lon="-3.681038"/>
      <trkpt lat="40.174915" lon="-3.681083"/>
      <trkpt lat="40.174915" lon="-3.681083"/>
      <trkpt lat="40.174833" lon="-3.681132"/>
      <trkpt lat="40.174792" lon="-3.681153"/>
      <trkpt lat="40.174792" lon="-3.681153"/>
      <trkpt lat="40.174703" lon="-3.681202"/>
      <trkpt lat="40.174703" lon="-3.681202"/>
      <trkpt lat="40.174622" lon="-3.681245"/>
      <trkpt lat="40.174582" lon="-3.681263"/>
      <trkpt lat="40.174582" lon="-3.681263"/>
      <trkpt lat="40.174508" lon="-3.6813"/>
      <trkpt lat="40.174508" lon="-3.6813"/>
      <trkpt lat="40.174425" lon="-3.681337"/>
      <trkpt lat="40.174425" lon="-3.681337"/>
      <trkpt lat="40.174348" lon="-3.68137"/>
      <trkpt lat="40.174348" lon="-3.68137"/>
      <trkpt lat="40.174268" lon="-3.681402"/>
      <trkpt lat="40.174268" lon="-3.681402"/>
      <trkpt lat="40.174188" lon="-3.681425"/>
      <trkpt lat="40.174188" lon="-3.681425"/>
      <trkpt lat="40.174103" lon="-3.681448"/>
      <trkpt lat="40.174103" lon="-3.681448"/>
      <trkpt lat="40.174018" lon="-3.681462"/>
      <trkpt lat="40.173975" lon="-3.681468"/>
      <trkpt lat="40.173975" lon="-3.681468"/>
      <trkpt lat="40.173883" lon="-3.681485"/>
      <trkpt lat="40.173838" lon="-3.681492"/>
      <trkpt lat="40.173838" lon="-3.681492"/>
      <trkpt lat="40.173752" lon="-3.681503"/>
      <trkpt lat="40.173752" lon="-3.681503"/>
      <trkpt lat="40.173667" lon="-3.681515"/>
      <trkpt lat="40.173667" lon="-3.681515"/>
      <trkpt lat="40.173587" lon="-3.681527"/>
      <trkpt lat="40.173587" lon="-3.681527"/>
      <trkpt lat="40.173507" lon="-3.681537"/>
      <trkpt lat="40.173468" lon="-3.681543"/>
      <trkpt lat="40.173468" lon="-3.681543"/>
      <trkpt lat="40.173388" lon="-3.681557"/>
      <trkpt lat="40.173348" lon="-3.681562"/>
      <trkpt lat="40.173348" lon="-3.681562"/>
      <trkpt lat="40.173268" lon="-3.681582"/>
      <trkpt lat="40.17323" lon="-3.681595"/>
      <trkpt lat="40.17323" lon="-3.681595"/>
      <trkpt lat="40.173153" lon="-3.681622"/>
      <trkpt lat="40.173153" lon="-3.681622"/>
      <trkpt lat="40.173078" lon="-3.681652"/>
      <trkpt lat="40.17304" lon="-3.681667"/>
      <trkpt lat="40.17304" lon="-3.681667"/>
      <trkpt lat="40.172967" lon="-3.6817"/>
      <trkpt lat="40.172967" lon="-3.6817"/>
      <trkpt lat="40.172892" lon="-3.681727"/>
      <trkpt lat="40.172892" lon="-3.681727"/>
      <trkpt lat="40.172817" lon="-3.681758"/>
      <trkpt lat="40.17278" lon="-3.681777"/>
      <trkpt lat="40.172743" lon="-3.681798"/>
      <trkpt lat="40.172743" lon="-3.681798"/>
      <trkpt lat="40.172665" lon="-3.681838"/>
      <trkpt lat="40.172665" lon="-3.681838"/>
      <trkpt lat="40.172587" lon="-3.681883"/>
      <trkpt lat="40.172587" lon="-3.681883"/>
      <trkpt lat="40.172508" lon="-3.681933"/>
      <trkpt lat="40.17247" lon="-3.681958"/>
      <trkpt lat="40.172432" lon="-3.681985"/>
      <trkpt lat="40.172432" lon="-3.681985"/>
      <trkpt lat="40.172355" lon="-3.682043"/>
      <trkpt lat="40.172355" lon="-3.682043"/>
      <trkpt lat="40.17228" lon="-3.682108"/>
      <trkpt lat="40.172243" lon="-3.68214"/>
      <trkpt lat="40.172243" lon="-3.68214"/>
      <trkpt lat="40.17217" lon="-3.682203"/>
      <trkpt lat="40.17217" lon="-3.682203"/>
      <trkpt lat="40.172095" lon="-3.682263"/>
      <trkpt lat="40.172095" lon="-3.682263"/>
      <trkpt lat="40.172022" lon="-3.682323"/>
      <trkpt lat="40.172022" lon="-3.682323"/>
      <trkpt lat="40.171947" lon="-3.682382"/>
      <trkpt lat="40.171947" lon="-3.682382"/>
      <trkpt lat="40.171865" lon="-3.682422"/>
      <trkpt lat="40.171865" lon="-3.682422"/>
      <trkpt lat="40.171782" lon="-3.682455"/>
      <trkpt lat="40.171782" lon="-3.682455"/>
      <trkpt lat="40.171697" lon="-3.682487"/>
      <trkpt lat="40.171697" lon="-3.682487"/>
      <trkpt lat="40.171615" lon="-3.682512"/>
      <trkpt lat="40.171573" lon="-3.682523"/>
      <trkpt lat="40.171535" lon="-3.682532"/>
      <trkpt lat="40.171535" lon="-3.682532"/>
      <trkpt lat="40.171462" lon="-3.682543"/>
      <trkpt lat="40.171462" lon="-3.682543"/>
      <trkpt lat="40.171388" lon="-3.682553"/>
      <trkpt lat="40.171352" lon="-3.682568"/>
      <trkpt lat="40.171322" lon="-3.682597"/>
      <trkpt lat="40.171322" lon="-3.682597"/>
      <trkpt lat="40.171297" lon="-3.682675"/>
      <trkpt lat="40.171297" lon="-3.682675"/>
      <trkpt lat="40.171307" lon="-3.682777"/>
      <trkpt lat="40.171307" lon="-3.682777"/>
      <trkpt lat="40.171323" lon="-3.682882"/>
      <trkpt lat="40.171323" lon="-3.682882"/>
      <trkpt lat="40.171343" lon="-3.68298"/>
      <trkpt lat="40.171343" lon="-3.68298"/>
      <trkpt lat="40.171362" lon="-3.68308"/>
      <trkpt lat="40.171362" lon="-3.68308"/>
      <trkpt lat="40.171382" lon="-3.683175"/>
      <trkpt lat="40.171382" lon="-3.683175"/>
      <trkpt lat="40.171403" lon="-3.683273"/>
      <trkpt lat="40.171403" lon="-3.683273"/>
      <trkpt lat="40.171423" lon="-3.683372"/>
      <trkpt lat="40.171423" lon="-3.683372"/>
      <trkpt lat="40.171445" lon="-3.683473"/>
      <trkpt lat="40.171445" lon="-3.683473"/>
      <trkpt lat="40.171467" lon="-3.683573"/>
      <trkpt lat="40.171467" lon="-3.683573"/>
      <trkpt lat="40.171487" lon="-3.68368"/>
      <trkpt lat="40.171487" lon="-3.68368"/>
      <trkpt lat="40.17151" lon="-3.683795"/>
      <trkpt lat="40.17151" lon="-3.683795"/>
      <trkpt lat="40.171538" lon="-3.683912"/>
      <trkpt lat="40.171538" lon="-3.683912"/>
      <trkpt lat="40.171565" lon="-3.684027"/>
      <trkpt lat="40.171565" lon="-3.684027"/>
      <trkpt lat="40.171593" lon="-3.68414"/>
      <trkpt lat="40.171593" lon="-3.68414"/>
      <trkpt lat="40.171617" lon="-3.684262"/>
      <trkpt lat="40.171617" lon="-3.684262"/>
      <trkpt lat="40.171638" lon="-3.684387"/>
      <trkpt lat="40.17165" lon="-3.68445"/>
      <trkpt lat="40.17165" lon="-3.68445"/>
      <trkpt lat="40.171672" lon="-3.684575"/>
      <trkpt lat="40.171672" lon="-3.684575"/>
      <trkpt lat="40.171697" lon="-3.684702"/>
      <trkpt lat="40.171697" lon="-3.684702"/>
      <trkpt lat="40.171722" lon="-3.684827"/>
      <trkpt lat="40.171733" lon="-3.684888"/>
      <trkpt lat="40.171733" lon="-3.684888"/>
      <trkpt lat="40.171755" lon="-3.68501"/>
      <trkpt lat="40.171755" lon="-3.68501"/>
      <trkpt lat="40.171778" lon="-3.685128"/>
      <trkpt lat="40.171778" lon="-3.685128"/>
      <trkpt lat="40.171798" lon="-3.685243"/>
      <trkpt lat="40.171798" lon="-3.685243"/>
      <trkpt lat="40.171818" lon="-3.68536"/>
      <trkpt lat="40.171818" lon="-3.68536"/>
      <trkpt lat="40.171843" lon="-3.685467"/>
      <trkpt lat="40.171843" lon="-3.685467"/>
      <trkpt lat="40.171867" lon="-3.68557"/>
      <trkpt lat="40.171867" lon="-3.68557"/>
      <trkpt lat="40.171893" lon="-3.685677"/>
      <trkpt lat="40.171893" lon="-3.685677"/>
      <trkpt lat="40.171918" lon="-3.685783"/>
      <trkpt lat="40.17193" lon="-3.685835"/>
      <trkpt lat="40.17193" lon="-3.685835"/>
      <trkpt lat="40.171953" lon="-3.68594"/>
      <trkpt lat="40.171953" lon="-3.68594"/>
      <trkpt lat="40.171975" lon="-3.686042"/>
      <trkpt lat="40.171975" lon="-3.686042"/>
      <trkpt lat="40.172" lon="-3.686142"/>
      <trkpt lat="40.172012" lon="-3.686193"/>
      <trkpt lat="40.172012" lon="-3.686193"/>
      <trkpt lat="40.172032" lon="-3.686295"/>
      <trkpt lat="40.172032" lon="-3.686295"/>
      <trkpt lat="40.172052" lon="-3.686395"/>
      <trkpt lat="40.172052" lon="-3.686395"/>
      <trkpt lat="40.172073" lon="-3.686493"/>
      <trkpt lat="40.172083" lon="-3.686542"/>
      <trkpt lat="40.172083" lon="-3.686542"/>
      <trkpt lat="40.172102" lon="-3.686638"/>
      <trkpt lat="40.172113" lon="-3.686687"/>
      <trkpt lat="40.172113" lon="-3.686687"/>
      <trkpt lat="40.172132" lon="-3.686788"/>
      <trkpt lat="40.172132" lon="-3.686788"/>
      <trkpt lat="40.17215" lon="-3.686897"/>
      <trkpt lat="40.17215" lon="-3.686897"/>
      <trkpt lat="40.172167" lon="-3.687003"/>
      <trkpt lat="40.172167" lon="-3.687003"/>
      <trkpt lat="40.172183" lon="-3.68711"/>
      <trkpt lat="40.172183" lon="-3.68711"/>
      <trkpt lat="40.172205" lon="-3.687213"/>
      <trkpt lat="40.172205" lon="-3.687213"/>
      <trkpt lat="40.172228" lon="-3.687315"/>
      <trkpt lat="40.172228" lon="-3.687315"/>
      <trkpt lat="40.172257" lon="-3.687415"/>
      <trkpt lat="40.172257" lon="-3.687415"/>
      <trkpt lat="40.172283" lon="-3.687513"/>
      <trkpt lat="40.172283" lon="-3.687513"/>
      <trkpt lat="40.172308" lon="-3.687607"/>
      <trkpt lat="40.172308" lon="-3.687607"/>
      <trkpt lat="40.172335" lon="-3.687697"/>
      <trkpt lat="40.172335" lon="-3.687697"/>
      <trkpt lat="40.17236" lon="-3.687782"/>
      <trkpt lat="40.17236" lon="-3.687782"/>
      <trkpt lat="40.172383" lon="-3.687865"/>
      <trkpt lat="40.172383" lon="-3.687865"/>
      <trkpt lat="40.17241" lon="-3.687948"/>
      <trkpt lat="40.17241" lon="-3.687948"/>
      <trkpt lat="40.172435" lon="-3.688023"/>
      <trkpt lat="40.172435" lon="-3.688023"/>
      <trkpt lat="40.17248" lon="-3.688083"/>
      <trkpt lat="40.17248" lon="-3.688083"/>
      <trkpt lat="40.17253" lon="-3.68813"/>
      <trkpt lat="40.17253" lon="-3.68813"/>
      <trkpt lat="40.172587" lon="-3.688173"/>
      <trkpt lat="40.172587" lon="-3.688173"/>
      <trkpt lat="40.172635" lon="-3.688242"/>
      <trkpt lat="40.172635" lon="-3.688242"/>
      <trkpt lat="40.172677" lon="-3.688327"/>
      <trkpt lat="40.172677" lon="-3.688327"/>
      <trkpt lat="40.172713" lon="-3.688397"/>
      <trkpt lat="40.172713" lon="-3.688397"/>
      <trkpt lat="40.17272" lon="-3.68845"/>
      <trkpt lat="40.17272" lon="-3.68845"/>
      <trkpt lat="40.172688" lon="-3.688528"/>
      <trkpt lat="40.172688" lon="-3.688528"/>
      <trkpt lat="40.172655" lon="-3.688625"/>
      <trkpt lat="40.172655" lon="-3.688625"/>
      <trkpt lat="40.17265" lon="-3.688735"/>
      <trkpt lat="40.17265" lon="-3.688735"/>
      <trkpt lat="40.172635" lon="-3.688847"/>
      <trkpt lat="40.172635" lon="-3.688847"/>
      <trkpt lat="40.172598" lon="-3.688945"/>
      <trkpt lat="40.172598" lon="-3.688945"/>
      <trkpt lat="40.172545" lon="-3.689025"/>
      <trkpt lat="40.172545" lon="-3.689025"/>
      <trkpt lat="40.17248" lon="-3.689087"/>
      <trkpt lat="40.17248" lon="-3.689087"/>
      <trkpt lat="40.1724" lon="-3.689135"/>
      <trkpt lat="40.1724" lon="-3.689135"/>
      <trkpt lat="40.172312" lon="-3.689148"/>
      <trkpt lat="40.172265" lon="-3.689143"/>
      <trkpt lat="40.17222" lon="-3.689128"/>
      <trkpt lat="40.17222" lon="-3.689128"/>
      <trkpt lat="40.17214" lon="-3.689072"/>
      <trkpt lat="40.17214" lon="-3.689072"/>
      <trkpt lat="40.172068" lon="-3.688992"/>
      <trkpt lat="40.172068" lon="-3.688992"/>
      <trkpt lat="40.171993" lon="-3.688928"/>
      <trkpt lat="40.171945" lon="-3.688922"/>
      <trkpt lat="40.171945" lon="-3.688922"/>
      <trkpt lat="40.171838" lon="-3.68897"/>
      <trkpt lat="40.171838" lon="-3.68897"/>
      <trkpt lat="40.171786" lon="-3.689001"/>
      <trkpt lat="40.171759" lon="-3.689017"/>
      <trkpt lat="40.171733" lon="-3.689033"/>
      <trkpt lat="40.171688" lon="-3.689063"/>
      <trkpt lat="40.171688" lon="-3.689063"/>
      <trkpt lat="40.171605" lon="-3.689128"/>
      <trkpt lat="40.171605" lon="-3.689128"/>
      <trkpt lat="40.171532" lon="-3.689187"/>
      <trkpt lat="40.171532" lon="-3.689187"/>
      <trkpt lat="40.171462" lon="-3.689245"/>
      <trkpt lat="40.171462" lon="-3.689245"/>
      <trkpt lat="40.171397" lon="-3.689307"/>
      <trkpt lat="40.171397" lon="-3.689307"/>
      <trkpt lat="40.171333" lon="-3.689367"/>
      <trkpt lat="40.171333" lon="-3.689367"/>
      <trkpt lat="40.171278" lon="-3.689422"/>
      <trkpt lat="40.171278" lon="-3.689422"/>
      <trkpt lat="40.171222" lon="-3.689473"/>
      <trkpt lat="40.171222" lon="-3.689473"/>
      <trkpt lat="40.171165" lon="-3.689527"/>
      <trkpt lat="40.171137" lon="-3.689553"/>
      <trkpt lat="40.17111" lon="-3.689585"/>
      <trkpt lat="40.171083" lon="-3.689617"/>
      <trkpt lat="40.171083" lon="-3.689617"/>
      <trkpt lat="40.171083" lon="-3.689617"/>
      <trkpt lat="40.171083" lon="-3.689617"/>
      <trkpt lat="40.171035" lon="-3.689668"/>
      <trkpt lat="40.171035" lon="-3.689668"/>
      <trkpt lat="40.171005" lon="-3.689694"/>
      <trkpt lat="40.170975" lon="-3.68972"/>
      <trkpt lat="40.170945" lon="-3.689743"/>
      <trkpt lat="40.170945" lon="-3.689743"/>
      <trkpt lat="40.170945" lon="-3.689743"/>
      <trkpt lat="40.170931" lon="-3.689756"/>
      <trkpt lat="40.170917" lon="-3.68977"/>
      <trkpt lat="40.170888" lon="-3.689797"/>
      <trkpt lat="40.170888" lon="-3.689797"/>
      <trkpt lat="40.170888" lon="-3.689797"/>
      <trkpt lat="40.170888" lon="-3.689797"/>
      <trkpt lat="40.170833" lon="-3.689847"/>
      <trkpt lat="40.170833" lon="-3.689847"/>
      <trkpt lat="40.17082" lon="-3.68986"/>
      <trkpt lat="40.170808" lon="-3.689873"/>
      <trkpt lat="40.170782" lon="-3.6899"/>
      <trkpt lat="40.170782" lon="-3.6899"/>
      <trkpt lat="40.170727" lon="-3.689952"/>
      <trkpt lat="40.170727" lon="-3.689952"/>
      <trkpt lat="40.17067" lon="-3.690003"/>
      <trkpt lat="40.17067" lon="-3.690003"/>
      <trkpt lat="40.170608" lon="-3.69006"/>
      <trkpt lat="40.170608" lon="-3.69006"/>
      <trkpt lat="40.170578" lon="-3.690086"/>
      <trkpt lat="40.170548" lon="-3.690112"/>
      <trkpt lat="40.170548" lon="-3.690112"/>
      <trkpt lat="40.170548" lon="-3.690112"/>
      <trkpt lat="40.170488" lon="-3.690167"/>
      <trkpt lat="40.170488" lon="-3.690167"/>
      <trkpt lat="40.170458" lon="-3.690193"/>
      <trkpt lat="40.170427" lon="-3.69022"/>
      <trkpt lat="40.170427" lon="-3.69022"/>
      <trkpt lat="40.170427" lon="-3.69022"/>
      <trkpt lat="40.170365" lon="-3.690278"/>
      <trkpt lat="40.170365" lon="-3.690278"/>
      <trkpt lat="40.170365" lon="-3.690278"/>
      <trkpt lat="40.170302" lon="-3.690337"/>
      <trkpt lat="40.170302" lon="-3.690337"/>
      <trkpt lat="40.170302" lon="-3.690337"/>
      <trkpt lat="40.170238" lon="-3.690392"/>
      <trkpt lat="40.170238" lon="-3.690392"/>
      <trkpt lat="40.170208" lon="-3.69042"/>
      <trkpt lat="40.170178" lon="-3.690447"/>
      <trkpt lat="40.170178" lon="-3.690447"/>
      <trkpt lat="40.17012" lon="-3.690507"/>
      <trkpt lat="40.17012" lon="-3.690507"/>
      <trkpt lat="40.170058" lon="-3.690562"/>
      <trkpt lat="40.170058" lon="-3.690562"/>
      <trkpt lat="40.169997" lon="-3.690622"/>
      <trkpt lat="40.169997" lon="-3.690622"/>
      <trkpt lat="40.16996" lon="-3.690705"/>
      <trkpt lat="40.16996" lon="-3.690705"/>
      <trkpt lat="40.169967" lon="-3.690812"/>
      <trkpt lat="40.169967" lon="-3.690812"/>
      <trkpt lat="40.170015" lon="-3.69091"/>
      <trkpt lat="40.170015" lon="-3.69091"/>
      <trkpt lat="40.170065" lon="-3.691007"/>
      <trkpt lat="40.17009" lon="-3.69106"/>
      <trkpt lat="40.17009" lon="-3.69106"/>
      <trkpt lat="40.170147" lon="-3.691175"/>
      <trkpt lat="40.170147" lon="-3.691175"/>
      <trkpt lat="40.170208" lon="-3.6913"/>
      <trkpt lat="40.170242" lon="-3.691368"/>
      <trkpt lat="40.170242" lon="-3.691368"/>
      <trkpt lat="40.170313" lon="-3.691517"/>
      <trkpt lat="40.170313" lon="-3.691517"/>
      <trkpt lat="40.170388" lon="-3.691672"/>
      <trkpt lat="40.170388" lon="-3.691672"/>
      <trkpt lat="40.17046" lon="-3.691822"/>
      <trkpt lat="40.17046" lon="-3.691822"/>
      <trkpt lat="40.17052" lon="-3.691962"/>
      <trkpt lat="40.17052" lon="-3.691962"/>
      <trkpt lat="40.170572" lon="-3.69209"/>
      <trkpt lat="40.170572" lon="-3.69209"/>
      <trkpt lat="40.170622" lon="-3.692205"/>
      <trkpt lat="40.170645" lon="-3.692257"/>
      <trkpt lat="40.170645" lon="-3.692257"/>
      <trkpt lat="40.17069" lon="-3.692355"/>
      <trkpt lat="40.170713" lon="-3.6924"/>
      <trkpt lat="40.170737" lon="-3.692447"/>
      <trkpt lat="40.170737" lon="-3.692447"/>
      <trkpt lat="40.170777" lon="-3.692538"/>
      <trkpt lat="40.1708" lon="-3.69258"/>
      <trkpt lat="40.1708" lon="-3.69258"/>
      <trkpt lat="40.170852" lon="-3.69268"/>
      <trkpt lat="40.170878" lon="-3.692737"/>
      <trkpt lat="40.170878" lon="-3.692737"/>
      <trkpt lat="40.170938" lon="-3.692863"/>
      <trkpt lat="40.17097" lon="-3.692935"/>
      <trkpt lat="40.17097" lon="-3.692935"/>
      <trkpt lat="40.171032" lon="-3.693088"/>
      <trkpt lat="40.171032" lon="-3.693088"/>
      <trkpt lat="40.171095" lon="-3.693248"/>
      <trkpt lat="40.171095" lon="-3.693248"/>
      <trkpt lat="40.171165" lon="-3.693392"/>
      <trkpt lat="40.171165" lon="-3.693392"/>
      <trkpt lat="40.171225" lon="-3.693517"/>
      <trkpt lat="40.171252" lon="-3.693573"/>
      <trkpt lat="40.171252" lon="-3.693573"/>
      <trkpt lat="40.171295" lon="-3.69367"/>
      <trkpt lat="40.171313" lon="-3.693715"/>
      <trkpt lat="40.171313" lon="-3.693715"/>
      <trkpt lat="40.171352" lon="-3.693797"/>
      <trkpt lat="40.171352" lon="-3.693797"/>
      <trkpt lat="40.17139" lon="-3.693877"/>
      <trkpt lat="40.17139" lon="-3.693877"/>
      <trkpt lat="40.171425" lon="-3.69396"/>
      <trkpt lat="40.171425" lon="-3.69396"/>
      <trkpt lat="40.171462" lon="-3.694038"/>
      <trkpt lat="40.171462" lon="-3.694038"/>
      <trkpt lat="40.171503" lon="-3.694115"/>
      <trkpt lat="40.171503" lon="-3.694115"/>
      <trkpt lat="40.17154" lon="-3.69419"/>
      <trkpt lat="40.17154" lon="-3.69419"/>
      <trkpt lat="40.171582" lon="-3.694268"/>
      <trkpt lat="40.171582" lon="-3.694268"/>
      <trkpt lat="40.17162" lon="-3.69435"/>
      <trkpt lat="40.17162" lon="-3.69435"/>
      <trkpt lat="40.171653" lon="-3.694432"/>
      <trkpt lat="40.171672" lon="-3.69447"/>
      <trkpt lat="40.171672" lon="-3.69447"/>
      <trkpt lat="40.171705" lon="-3.694555"/>
      <trkpt lat="40.171705" lon="-3.694555"/>
      <trkpt lat="40.171738" lon="-3.69465"/>
      <trkpt lat="40.171748" lon="-3.694703"/>
      <trkpt lat="40.171748" lon="-3.694703"/>
      <trkpt lat="40.17175" lon="-3.694813"/>
      <trkpt lat="40.17175" lon="-3.694813"/>
      <trkpt lat="40.171727" lon="-3.694913"/>
      <trkpt lat="40.171727" lon="-3.694913"/>
      <trkpt lat="40.171683" lon="-3.69499"/>
      <trkpt lat="40.171683" lon="-3.69499"/>
      <trkpt lat="40.171645" lon="-3.695068"/>
      <trkpt lat="40.171645" lon="-3.695068"/>
      <trkpt lat="40.1716" lon="-3.695133"/>
      <trkpt lat="40.1716" lon="-3.695133"/>
      <trkpt lat="40.171553" lon="-3.695197"/>
      <trkpt lat="40.171553" lon="-3.695197"/>
      <trkpt lat="40.171502" lon="-3.69526"/>
      <trkpt lat="40.171502" lon="-3.69526"/>
      <trkpt lat="40.171445" lon="-3.695325"/>
      <trkpt lat="40.171445" lon="-3.695325"/>
      <trkpt lat="40.171392" lon="-3.695402"/>
      <trkpt lat="40.171363" lon="-3.69544"/>
      <trkpt lat="40.171363" lon="-3.69544"/>
      <trkpt lat="40.171305" lon="-3.695517"/>
      <trkpt lat="40.171305" lon="-3.695517"/>
      <trkpt lat="40.171243" lon="-3.695595"/>
      <trkpt lat="40.171215" lon="-3.695638"/>
      <trkpt lat="40.171215" lon="-3.695638"/>
      <trkpt lat="40.171162" lon="-3.69573"/>
      <trkpt lat="40.171162" lon="-3.69573"/>
      <trkpt lat="40.171112" lon="-3.695822"/>
      <trkpt lat="40.171112" lon="-3.695822"/>
      <trkpt lat="40.171055" lon="-3.695912"/>
      <trkpt lat="40.171055" lon="-3.695912"/>
      <trkpt lat="40.171007" lon="-3.695997"/>
      <trkpt lat="40.171007" lon="-3.695997"/>
      <trkpt lat="40.170958" lon="-3.696087"/>
      <trkpt lat="40.170958" lon="-3.696087"/>
      <trkpt lat="40.170913" lon="-3.696173"/>
      <trkpt lat="40.170913" lon="-3.696173"/>
      <trkpt lat="40.170867" lon="-3.69626"/>
      <trkpt lat="40.170843" lon="-3.696307"/>
      <trkpt lat="40.170843" lon="-3.696307"/>
      <trkpt lat="40.1708" lon="-3.696395"/>
      <trkpt lat="40.170778" lon="-3.696438"/>
      <trkpt lat="40.170778" lon="-3.696438"/>
      <trkpt lat="40.170733" lon="-3.696517"/>
      <trkpt lat="40.170733" lon="-3.696517"/>
      <trkpt lat="40.170688" lon="-3.696593"/>
      <trkpt lat="40.170688" lon="-3.696593"/>
      <trkpt lat="40.170643" lon="-3.696668"/>
      <trkpt lat="40.170643" lon="-3.696668"/>
      <trkpt lat="40.170597" lon="-3.696743"/>
      <trkpt lat="40.170597" lon="-3.696743"/>
      <trkpt lat="40.170548" lon="-3.696822"/>
      <trkpt lat="40.170548" lon="-3.696822"/>
      <trkpt lat="40.170502" lon="-3.696903"/>
      <trkpt lat="40.170502" lon="-3.696903"/>
      <trkpt lat="40.17046" lon="-3.696987"/>
      <trkpt lat="40.17046" lon="-3.696987"/>
      <trkpt lat="40.170415" lon="-3.69707"/>
      <trkpt lat="40.170415" lon="-3.69707"/>
      <trkpt lat="40.170372" lon="-3.697155"/>
      <trkpt lat="40.170372" lon="-3.697155"/>
      <trkpt lat="40.170323" lon="-3.697243"/>
      <trkpt lat="40.170323" lon="-3.697243"/>
      <trkpt lat="40.170277" lon="-3.697325"/>
      <trkpt lat="40.170277" lon="-3.697325"/>
      <trkpt lat="40.170225" lon="-3.697403"/>
      <trkpt lat="40.170225" lon="-3.697403"/>
      <trkpt lat="40.170172" lon="-3.697477"/>
      <trkpt lat="40.170172" lon="-3.697477"/>
      <trkpt lat="40.170112" lon="-3.697545"/>
      <trkpt lat="40.170112" lon="-3.697545"/>
      <trkpt lat="40.170053" lon="-3.697613"/>
      <trkpt lat="40.170053" lon="-3.697613"/>
      <trkpt lat="40.169998" lon="-3.697688"/>
      <trkpt lat="40.169998" lon="-3.697688"/>
      <trkpt lat="40.169943" lon="-3.697773"/>
      <trkpt lat="40.169943" lon="-3.697773"/>
      <trkpt lat="40.169882" lon="-3.697858"/>
      <trkpt lat="40.169882" lon="-3.697858"/>
      <trkpt lat="40.16982" lon="-3.697942"/>
      <trkpt lat="40.16982" lon="-3.697942"/>
      <trkpt lat="40.169765" lon="-3.698032"/>
      <trkpt lat="40.169735" lon="-3.698078"/>
      <trkpt lat="40.169735" lon="-3.698078"/>
      <trkpt lat="40.169675" lon="-3.698162"/>
      <trkpt lat="40.169645" lon="-3.698203"/>
      <trkpt lat="40.169645" lon="-3.698203"/>
      <trkpt lat="40.169587" lon="-3.698287"/>
      <trkpt lat="40.169587" lon="-3.698287"/>
      <trkpt lat="40.169527" lon="-3.698372"/>
      <trkpt lat="40.169527" lon="-3.698372"/>
      <trkpt lat="40.169467" lon="-3.698455"/>
      <trkpt lat="40.169467" lon="-3.698455"/>
      <trkpt lat="40.16941" lon="-3.698538"/>
      <trkpt lat="40.16941" lon="-3.698538"/>
      <trkpt lat="40.169352" lon="-3.69862"/>
      <trkpt lat="40.169352" lon="-3.69862"/>
      <trkpt lat="40.169293" lon="-3.6987"/>
      <trkpt lat="40.169293" lon="-3.6987"/>
      <trkpt lat="40.169242" lon="-3.698782"/>
      <trkpt lat="40.169242" lon="-3.698782"/>
      <trkpt lat="40.169192" lon="-3.698862"/>
      <trkpt lat="40.169192" lon="-3.698862"/>
      <trkpt lat="40.169145" lon="-3.698943"/>
      <trkpt lat="40.169145" lon="-3.698943"/>
      <trkpt lat="40.169095" lon="-3.699032"/>
      <trkpt lat="40.169095" lon="-3.699032"/>
      <trkpt lat="40.16904" lon="-3.699128"/>
      <trkpt lat="40.16904" lon="-3.699128"/>
      <trkpt lat="40.16898" lon="-3.699228"/>
      <trkpt lat="40.16898" lon="-3.699228"/>
      <trkpt lat="40.168918" lon="-3.69933"/>
      <trkpt lat="40.168887" lon="-3.699382"/>
      <trkpt lat="40.168887" lon="-3.699382"/>
      <trkpt lat="40.168822" lon="-3.699478"/>
      <trkpt lat="40.168822" lon="-3.699478"/>
      <trkpt lat="40.16875" lon="-3.699568"/>
      <trkpt lat="40.16875" lon="-3.699568"/>
      <trkpt lat="40.168675" lon="-3.699653"/>
      <trkpt lat="40.168635" lon="-3.699693"/>
      <trkpt lat="40.168635" lon="-3.699693"/>
      <trkpt lat="40.168555" lon="-3.699772"/>
      <trkpt lat="40.168555" lon="-3.699772"/>
      <trkpt lat="40.168478" lon="-3.699853"/>
      <trkpt lat="40.168478" lon="-3.699853"/>
      <trkpt lat="40.168405" lon="-3.699933"/>
      <trkpt lat="40.168405" lon="-3.699933"/>
      <trkpt lat="40.168333" lon="-3.700008"/>
      <trkpt lat="40.168333" lon="-3.700008"/>
      <trkpt lat="40.168267" lon="-3.700078"/>
      <trkpt lat="40.168267" lon="-3.700078"/>
      <trkpt lat="40.168205" lon="-3.700143"/>
      <trkpt lat="40.168205" lon="-3.700143"/>
      <trkpt lat="40.168143" lon="-3.700213"/>
      <trkpt lat="40.168143" lon="-3.700213"/>
      <trkpt lat="40.168083" lon="-3.700287"/>
      <trkpt lat="40.168083" lon="-3.700287"/>
      <trkpt lat="40.168023" lon="-3.700355"/>
      <trkpt lat="40.168023" lon="-3.700355"/>
      <trkpt lat="40.167967" lon="-3.700428"/>
      <trkpt lat="40.167967" lon="-3.700428"/>
      <trkpt lat="40.167907" lon="-3.700503"/>
      <trkpt lat="40.167907" lon="-3.700503"/>
      <trkpt lat="40.167848" lon="-3.700578"/>
      <trkpt lat="40.167817" lon="-3.700612"/>
      <trkpt lat="40.167817" lon="-3.700612"/>
      <trkpt lat="40.167752" lon="-3.700677"/>
      <trkpt lat="40.167752" lon="-3.700677"/>
      <trkpt lat="40.167683" lon="-3.700747"/>
      <trkpt lat="40.167648" lon="-3.700782"/>
      <trkpt lat="40.167648" lon="-3.700782"/>
      <trkpt lat="40.16758" lon="-3.700842"/>
      <trkpt lat="40.16758" lon="-3.700842"/>
      <trkpt lat="40.167505" lon="-3.700892"/>
      <trkpt lat="40.167467" lon="-3.700913"/>
      <trkpt lat="40.167423" lon="-3.700937"/>
      <trkpt lat="40.167423" lon="-3.700937"/>
      <trkpt lat="40.167342" lon="-3.700982"/>
      <trkpt lat="40.167342" lon="-3.700982"/>
      <trkpt lat="40.167263" lon="-3.701028"/>
      <trkpt lat="40.167263" lon="-3.701028"/>
      <trkpt lat="40.167187" lon="-3.701073"/>
      <trkpt lat="40.167187" lon="-3.701073"/>
      <trkpt lat="40.167117" lon="-3.701128"/>
      <trkpt lat="40.167085" lon="-3.70116"/>
      <trkpt lat="40.167085" lon="-3.70116"/>
      <trkpt lat="40.167017" lon="-3.701213"/>
      <trkpt lat="40.166982" lon="-3.701235"/>
      <trkpt lat="40.166948" lon="-3.701255"/>
      <trkpt lat="40.166948" lon="-3.701255"/>
      <trkpt lat="40.166882" lon="-3.701298"/>
      <trkpt lat="40.166882" lon="-3.701298"/>
      <trkpt lat="40.166813" lon="-3.701345"/>
      <trkpt lat="40.166778" lon="-3.70137"/>
      <trkpt lat="40.166778" lon="-3.70137"/>
      <trkpt lat="40.16671" lon="-3.70142"/>
      <trkpt lat="40.16671" lon="-3.70142"/>
      <trkpt lat="40.166645" lon="-3.701468"/>
      <trkpt lat="40.166645" lon="-3.701468"/>
      <trkpt lat="40.166578" lon="-3.701513"/>
      <trkpt lat="40.166578" lon="-3.701513"/>
      <trkpt lat="40.166518" lon="-3.701563"/>
      <trkpt lat="40.166518" lon="-3.701563"/>
      <trkpt lat="40.166457" lon="-3.701613"/>
      <trkpt lat="40.166457" lon="-3.701613"/>
      <trkpt lat="40.166393" lon="-3.701655"/>
      <trkpt lat="40.166393" lon="-3.701655"/>
      <trkpt lat="40.166328" lon="-3.701698"/>
      <trkpt lat="40.166328" lon="-3.701698"/>
      <trkpt lat="40.166265" lon="-3.70174"/>
      <trkpt lat="40.166265" lon="-3.70174"/>
      <trkpt lat="40.166198" lon="-3.701787"/>
      <trkpt lat="40.166198" lon="-3.701787"/>
      <trkpt lat="40.16613" lon="-3.701827"/>
      <trkpt lat="40.16613" lon="-3.701827"/>
      <trkpt lat="40.166062" lon="-3.701867"/>
      <trkpt lat="40.166062" lon="-3.701867"/>
      <trkpt lat="40.165992" lon="-3.701903"/>
      <trkpt lat="40.165992" lon="-3.701903"/>
      <trkpt lat="40.16592" lon="-3.701938"/>
      <trkpt lat="40.16592" lon="-3.701938"/>
      <trkpt lat="40.165852" lon="-3.701975"/>
      <trkpt lat="40.165852" lon="-3.701975"/>
      <trkpt lat="40.165782" lon="-3.702018"/>
      <trkpt lat="40.165782" lon="-3.702018"/>
      <trkpt lat="40.165713" lon="-3.702062"/>
      <trkpt lat="40.165713" lon="-3.702062"/>
      <trkpt lat="40.165647" lon="-3.702107"/>
      <trkpt lat="40.165647" lon="-3.702107"/>
      <trkpt lat="40.165588" lon="-3.702158"/>
      <trkpt lat="40.165588" lon="-3.702158"/>
      <trkpt lat="40.16553" lon="-3.70221"/>
      <trkpt lat="40.16553" lon="-3.70221"/>
      <trkpt lat="40.165478" lon="-3.70227"/>
      <trkpt lat="40.165478" lon="-3.70227"/>
      <trkpt lat="40.165427" lon="-3.702337"/>
      <trkpt lat="40.165427" lon="-3.702337"/>
      <trkpt lat="40.165373" lon="-3.702407"/>
      <trkpt lat="40.165345" lon="-3.702442"/>
      <trkpt lat="40.165345" lon="-3.702442"/>
      <trkpt lat="40.165298" lon="-3.702528"/>
      <trkpt lat="40.165277" lon="-3.702577"/>
      <trkpt lat="40.165277" lon="-3.702577"/>
      <trkpt lat="40.165235" lon="-3.702673"/>
      <trkpt lat="40.165235" lon="-3.702673"/>
      <trkpt lat="40.165193" lon="-3.702762"/>
      <trkpt lat="40.165193" lon="-3.702762"/>
      <trkpt lat="40.165148" lon="-3.702845"/>
      <trkpt lat="40.165148" lon="-3.702845"/>
      <trkpt lat="40.165108" lon="-3.70293"/>
      <trkpt lat="40.165108" lon="-3.70293"/>
      <trkpt lat="40.165065" lon="-3.703008"/>
      <trkpt lat="40.165065" lon="-3.703008"/>
      <trkpt lat="40.165023" lon="-3.703087"/>
      <trkpt lat="40.165023" lon="-3.703087"/>
      <trkpt lat="40.164983" lon="-3.70315"/>
      <trkpt lat="40.164983" lon="-3.70315"/>
      <trkpt lat="40.164945" lon="-3.703208"/>
      <trkpt lat="40.164945" lon="-3.703208"/>
      <trkpt lat="40.164902" lon="-3.703263"/>
      <trkpt lat="40.164902" lon="-3.703263"/>
      <trkpt lat="40.164855" lon="-3.703315"/>
      <trkpt lat="40.164855" lon="-3.703315"/>
      <trkpt lat="40.164802" lon="-3.703353"/>
      <trkpt lat="40.164802" lon="-3.703353"/>
      <trkpt lat="40.164752" lon="-3.703397"/>
      <trkpt lat="40.164752" lon="-3.703397"/>
      <trkpt lat="40.164707" lon="-3.70344"/>
      <trkpt lat="40.164707" lon="-3.70344"/>
      <trkpt lat="40.16466" lon="-3.703475"/>
      <trkpt lat="40.16466" lon="-3.703475"/>
      <trkpt lat="40.16461" lon="-3.70351"/>
      <trkpt lat="40.16461" lon="-3.70351"/>
      <trkpt lat="40.16456" lon="-3.703537"/>
      <trkpt lat="40.16456" lon="-3.703537"/>
      <trkpt lat="40.164507" lon="-3.703567"/>
      <trkpt lat="40.164507" lon="-3.703567"/>
      <trkpt lat="40.16446" lon="-3.703597"/>
      <trkpt lat="40.16446" lon="-3.703597"/>
      <trkpt lat="40.164407" lon="-3.703612"/>
      <trkpt lat="40.164407" lon="-3.703612"/>
      <trkpt lat="40.16435" lon="-3.703628"/>
      <trkpt lat="40.16435" lon="-3.703628"/>
      <trkpt lat="40.164297" lon="-3.703652"/>
      <trkpt lat="40.164297" lon="-3.703652"/>
      <trkpt lat="40.16424" lon="-3.703673"/>
      <trkpt lat="40.16424" lon="-3.703673"/>
      <trkpt lat="40.164185" lon="-3.7037"/>
      <trkpt lat="40.164185" lon="-3.7037"/>
      <trkpt lat="40.164132" lon="-3.703725"/>
      <trkpt lat="40.164132" lon="-3.703725"/>
      <trkpt lat="40.164078" lon="-3.703748"/>
      <trkpt lat="40.164078" lon="-3.703748"/>
      <trkpt lat="40.164027" lon="-3.703772"/>
      <trkpt lat="40.164027" lon="-3.703772"/>
      <trkpt lat="40.163972" lon="-3.703797"/>
      <trkpt lat="40.163972" lon="-3.703797"/>
      <trkpt lat="40.16392" lon="-3.70382"/>
      <trkpt lat="40.16392" lon="-3.70382"/>
      <trkpt lat="40.163867" lon="-3.703843"/>
      <trkpt lat="40.163867" lon="-3.703843"/>
      <trkpt lat="40.163817" lon="-3.703872"/>
      <trkpt lat="40.163817" lon="-3.703872"/>
      <trkpt lat="40.163762" lon="-3.703893"/>
      <trkpt lat="40.163762" lon="-3.703893"/>
      <trkpt lat="40.163703" lon="-3.703927"/>
      <trkpt lat="40.163703" lon="-3.703927"/>
      <trkpt lat="40.163652" lon="-3.703973"/>
      <trkpt lat="40.163652" lon="-3.703973"/>
      <trkpt lat="40.163602" lon="-3.704017"/>
      <trkpt lat="40.163602" lon="-3.704017"/>
      <trkpt lat="40.163552" lon="-3.704058"/>
      <trkpt lat="40.163523" lon="-3.70408"/>
      <trkpt lat="40.163497" lon="-3.704098"/>
      <trkpt lat="40.163497" lon="-3.704098"/>
      <trkpt lat="40.163445" lon="-3.704142"/>
      <trkpt lat="40.163445" lon="-3.704142"/>
      <trkpt lat="40.163402" lon="-3.704185"/>
      <trkpt lat="40.163402" lon="-3.704185"/>
      <trkpt lat="40.163355" lon="-3.704222"/>
      <trkpt lat="40.163355" lon="-3.704222"/>
      <trkpt lat="40.163307" lon="-3.704265"/>
      <trkpt lat="40.163307" lon="-3.704265"/>
      <trkpt lat="40.163262" lon="-3.704307"/>
      <trkpt lat="40.163238" lon="-3.704328"/>
      <trkpt lat="40.163238" lon="-3.704328"/>
      <trkpt lat="40.16319" lon="-3.704372"/>
      <trkpt lat="40.163165" lon="-3.704393"/>
      <trkpt lat="40.163165" lon="-3.704393"/>
      <trkpt lat="40.163115" lon="-3.704437"/>
      <trkpt lat="40.163115" lon="-3.704437"/>
      <trkpt lat="40.163063" lon="-3.704482"/>
      <trkpt lat="40.163063" lon="-3.704482"/>
      <trkpt lat="40.163012" lon="-3.70453"/>
      <trkpt lat="40.163012" lon="-3.70453"/>
      <trkpt lat="40.162963" lon="-3.704575"/>
      <trkpt lat="40.162938" lon="-3.704597"/>
      <trkpt lat="40.162938" lon="-3.704597"/>
      <trkpt lat="40.16289" lon="-3.704643"/>
      <trkpt lat="40.162868" lon="-3.704668"/>
      <trkpt lat="40.162868" lon="-3.704668"/>
      <trkpt lat="40.162827" lon="-3.704712"/>
      <trkpt lat="40.162827" lon="-3.704712"/>
      <trkpt lat="40.162782" lon="-3.704752"/>
      <trkpt lat="40.162782" lon="-3.704752"/>
      <trkpt lat="40.162735" lon="-3.704797"/>
      <trkpt lat="40.162735" lon="-3.704797"/>
      <trkpt lat="40.16269" lon="-3.704843"/>
      <trkpt lat="40.16269" lon="-3.704843"/>
      <trkpt lat="40.162642" lon="-3.704888"/>
      <trkpt lat="40.162642" lon="-3.704888"/>
      <trkpt lat="40.162592" lon="-3.70493"/>
      <trkpt lat="40.162565" lon="-3.704948"/>
      <trkpt lat="40.162538" lon="-3.704963"/>
      <trkpt lat="40.162538" lon="-3.704963"/>
      <trkpt lat="40.162485" lon="-3.704987"/>
      <trkpt lat="40.162485" lon="-3.704987"/>
      <trkpt lat="40.16243" lon="-3.705012"/>
      <trkpt lat="40.16243" lon="-3.705012"/>
      <trkpt lat="40.16238" lon="-3.70503"/>
      <trkpt lat="40.162355" lon="-3.705033"/>
      <trkpt lat="40.162355" lon="-3.705033"/>
      <trkpt lat="40.162302" lon="-3.705043"/>
      <trkpt lat="40.162302" lon="-3.705043"/>
      <trkpt lat="40.162248" lon="-3.705057"/>
      <trkpt lat="40.162248" lon="-3.705057"/>
      <trkpt lat="40.162197" lon="-3.705073"/>
      <trkpt lat="40.162197" lon="-3.705073"/>
      <trkpt lat="40.162145" lon="-3.70508"/>
      <trkpt lat="40.162145" lon="-3.70508"/>
      <trkpt lat="40.16209" lon="-3.705088"/>
      <trkpt lat="40.16209" lon="-3.705088"/>
      <trkpt lat="40.16203" lon="-3.705102"/>
      <trkpt lat="40.16203" lon="-3.705102"/>
      <trkpt lat="40.161972" lon="-3.70513"/>
      <trkpt lat="40.161972" lon="-3.70513"/>
      <trkpt lat="40.161923" lon="-3.70518"/>
      <trkpt lat="40.161923" lon="-3.70518"/>
      <trkpt lat="40.161888" lon="-3.705237"/>
      <trkpt lat="40.161888" lon="-3.705237"/>
      <trkpt lat="40.161863" lon="-3.705297"/>
      <trkpt lat="40.161863" lon="-3.705297"/>
      <trkpt lat="40.161835" lon="-3.705357"/>
      <trkpt lat="40.161835" lon="-3.705357"/>
      <trkpt lat="40.161807" lon="-3.705422"/>
      <trkpt lat="40.161807" lon="-3.705422"/>
      <trkpt lat="40.161773" lon="-3.705487"/>
      <trkpt lat="40.161773" lon="-3.705487"/>
      <trkpt lat="40.161738" lon="-3.705552"/>
      <trkpt lat="40.161722" lon="-3.705583"/>
      <trkpt lat="40.161722" lon="-3.705583"/>
      <trkpt lat="40.16169" lon="-3.70565"/>
      <trkpt lat="40.16169" lon="-3.70565"/>
      <trkpt lat="40.161655" lon="-3.70571"/>
      <trkpt lat="40.161638" lon="-3.70574"/>
      <trkpt lat="40.161638" lon="-3.70574"/>
      <trkpt lat="40.161607" lon="-3.705802"/>
      <trkpt lat="40.16159" lon="-3.705833"/>
      <trkpt lat="40.16159" lon="-3.705833"/>
      <trkpt lat="40.16155" lon="-3.705897"/>
      <trkpt lat="40.161528" lon="-3.705927"/>
      <trkpt lat="40.161528" lon="-3.705927"/>
      <trkpt lat="40.161483" lon="-3.705982"/>
      <trkpt lat="40.161465" lon="-3.70601"/>
      <trkpt lat="40.161465" lon="-3.70601"/>
      <trkpt lat="40.16142" lon="-3.706062"/>
      <trkpt lat="40.16142" lon="-3.706062"/>
      <trkpt lat="40.161375" lon="-3.706102"/>
      <trkpt lat="40.161375" lon="-3.706102"/>
      <trkpt lat="40.16132" lon="-3.706145"/>
      <trkpt lat="40.16132" lon="-3.706145"/>
      <trkpt lat="40.161265" lon="-3.706183"/>
      <trkpt lat="40.161265" lon="-3.706183"/>
      <trkpt lat="40.161207" lon="-3.706222"/>
      <trkpt lat="40.161207" lon="-3.706222"/>
      <trkpt lat="40.161145" lon="-3.706265"/>
      <trkpt lat="40.161145" lon="-3.706265"/>
      <trkpt lat="40.161087" lon="-3.706308"/>
      <trkpt lat="40.161087" lon="-3.706308"/>
      <trkpt lat="40.161027" lon="-3.706352"/>
      <trkpt lat="40.161027" lon="-3.706352"/>
      <trkpt lat="40.160975" lon="-3.706397"/>
      <trkpt lat="40.160975" lon="-3.706397"/>
      <trkpt lat="40.160928" lon="-3.706448"/>
      <trkpt lat="40.160928" lon="-3.706448"/>
      <trkpt lat="40.160883" lon="-3.706512"/>
      <trkpt lat="40.160883" lon="-3.706512"/>
      <trkpt lat="40.160865" lon="-3.706588"/>
      <trkpt lat="40.160865" lon="-3.706588"/>
      <trkpt lat="40.160872" lon="-3.706675"/>
      <trkpt lat="40.160872" lon="-3.706675"/>
      <trkpt lat="40.160877" lon="-3.706762"/>
      <trkpt lat="40.160877" lon="-3.706762"/>
      <trkpt lat="40.160877" lon="-3.706848"/>
      <trkpt lat="40.160877" lon="-3.706848"/>
      <trkpt lat="40.160878" lon="-3.706928"/>
      <trkpt lat="40.16088" lon="-3.706963"/>
      <trkpt lat="40.16088" lon="-3.706963"/>
      <trkpt lat="40.160885" lon="-3.707043"/>
      <trkpt lat="40.160885" lon="-3.707043"/>
      <trkpt lat="40.160892" lon="-3.707128"/>
      <trkpt lat="40.160897" lon="-3.707172"/>
      <trkpt lat="40.160897" lon="-3.707172"/>
      <trkpt lat="40.160905" lon="-3.70726"/>
      <trkpt lat="40.160905" lon="-3.70726"/>
      <trkpt lat="40.16091" lon="-3.707348"/>
      <trkpt lat="40.16091" lon="-3.707348"/>
      <trkpt lat="40.160917" lon="-3.707438"/>
      <trkpt lat="40.160917" lon="-3.707438"/>
      <trkpt lat="40.160923" lon="-3.707532"/>
      <trkpt lat="40.160923" lon="-3.707532"/>
      <trkpt lat="40.16093" lon="-3.707623"/>
      <trkpt lat="40.16093" lon="-3.707623"/>
      <trkpt lat="40.160937" lon="-3.707717"/>
      <trkpt lat="40.160937" lon="-3.707717"/>
      <trkpt lat="40.160943" lon="-3.707805"/>
      <trkpt lat="40.160943" lon="-3.707805"/>
      <trkpt lat="40.160952" lon="-3.707897"/>
      <trkpt lat="40.160952" lon="-3.707897"/>
      <trkpt lat="40.160955" lon="-3.70799"/>
      <trkpt lat="40.160955" lon="-3.70799"/>
      <trkpt lat="40.160958" lon="-3.708083"/>
      <trkpt lat="40.160958" lon="-3.708083"/>
      <trkpt lat="40.160963" lon="-3.708178"/>
      <trkpt lat="40.160963" lon="-3.708178"/>
      <trkpt lat="40.160968" lon="-3.708272"/>
      <trkpt lat="40.160968" lon="-3.708272"/>
      <trkpt lat="40.160973" lon="-3.708367"/>
      <trkpt lat="40.160973" lon="-3.708367"/>
      <trkpt lat="40.16098" lon="-3.70846"/>
      <trkpt lat="40.16098" lon="-3.70846"/>
      <trkpt lat="40.160985" lon="-3.708555"/>
      <trkpt lat="40.160985" lon="-3.708555"/>
      <trkpt lat="40.160992" lon="-3.708648"/>
      <trkpt lat="40.160992" lon="-3.708648"/>
      <trkpt lat="40.161" lon="-3.708743"/>
      <trkpt lat="40.161" lon="-3.708743"/>
      <trkpt lat="40.161005" lon="-3.708837"/>
      <trkpt lat="40.161005" lon="-3.708837"/>
      <trkpt lat="40.161013" lon="-3.708932"/>
      <trkpt lat="40.161013" lon="-3.708932"/>
      <trkpt lat="40.161018" lon="-3.709025"/>
      <trkpt lat="40.161018" lon="-3.709025"/>
      <trkpt lat="40.161027" lon="-3.70912"/>
      <trkpt lat="40.16103" lon="-3.709168"/>
      <trkpt lat="40.16103" lon="-3.709168"/>
      <trkpt lat="40.161037" lon="-3.709267"/>
      <trkpt lat="40.16104" lon="-3.709317"/>
      <trkpt lat="40.16104" lon="-3.709317"/>
      <trkpt lat="40.161047" lon="-3.709425"/>
      <trkpt lat="40.161047" lon="-3.709425"/>
      <trkpt lat="40.161058" lon="-3.709537"/>
      <trkpt lat="40.161058" lon="-3.709537"/>
      <trkpt lat="40.161068" lon="-3.70965"/>
      <trkpt lat="40.161068" lon="-3.70965"/>
      <trkpt lat="40.161082" lon="-3.70976"/>
      <trkpt lat="40.161082" lon="-3.70976"/>
      <trkpt lat="40.161093" lon="-3.709867"/>
      <trkpt lat="40.161093" lon="-3.709867"/>
      <trkpt lat="40.16111" lon="-3.709968"/>
      <trkpt lat="40.16111" lon="-3.709968"/>
      <trkpt lat="40.161115" lon="-3.710062"/>
      <trkpt lat="40.161115" lon="-3.710062"/>
      <trkpt lat="40.16112" lon="-3.710158"/>
      <trkpt lat="40.16112" lon="-3.710158"/>
      <trkpt lat="40.161127" lon="-3.710257"/>
      <trkpt lat="40.161127" lon="-3.710257"/>
      <trkpt lat="40.16113" lon="-3.710362"/>
      <trkpt lat="40.16113" lon="-3.710362"/>
      <trkpt lat="40.161128" lon="-3.710468"/>
      <trkpt lat="40.161128" lon="-3.710468"/>
      <trkpt lat="40.161127" lon="-3.710578"/>
      <trkpt lat="40.161127" lon="-3.710578"/>
      <trkpt lat="40.161127" lon="-3.710693"/>
      <trkpt lat="40.161127" lon="-3.710693"/>
      <trkpt lat="40.161127" lon="-3.710812"/>
      <trkpt lat="40.161127" lon="-3.710812"/>
      <trkpt lat="40.16113" lon="-3.71093"/>
      <trkpt lat="40.16113" lon="-3.71093"/>
      <trkpt lat="40.16114" lon="-3.711045"/>
      <trkpt lat="40.16114" lon="-3.711045"/>
      <trkpt lat="40.161152" lon="-3.71116"/>
      <trkpt lat="40.161152" lon="-3.71116"/>
      <trkpt lat="40.161165" lon="-3.711273"/>
      <trkpt lat="40.161165" lon="-3.711273"/>
      <trkpt lat="40.16118" lon="-3.711385"/>
      <trkpt lat="40.16118" lon="-3.711385"/>
      <trkpt lat="40.161195" lon="-3.711495"/>
      <trkpt lat="40.161195" lon="-3.711495"/>
      <trkpt lat="40.161212" lon="-3.711607"/>
      <trkpt lat="40.161212" lon="-3.711607"/>
      <trkpt lat="40.161227" lon="-3.711715"/>
      <trkpt lat="40.161227" lon="-3.711715"/>
      <trkpt lat="40.161235" lon="-3.711828"/>
      <trkpt lat="40.161235" lon="-3.711828"/>
      <trkpt lat="40.16124" lon="-3.711948"/>
      <trkpt lat="40.16124" lon="-3.711948"/>
      <trkpt lat="40.161248" lon="-3.712078"/>
      <trkpt lat="40.161248" lon="-3.712078"/>
      <trkpt lat="40.161255" lon="-3.712208"/>
      <trkpt lat="40.161255" lon="-3.712208"/>
      <trkpt lat="40.16126" lon="-3.712342"/>
      <trkpt lat="40.16126" lon="-3.712342"/>
      <trkpt lat="40.161268" lon="-3.712473"/>
      <trkpt lat="40.161268" lon="-3.712473"/>
      <trkpt lat="40.161287" lon="-3.712603"/>
      <trkpt lat="40.161295" lon="-3.712667"/>
      <trkpt lat="40.161295" lon="-3.712667"/>
      <trkpt lat="40.161295" lon="-3.712793"/>
      <trkpt lat="40.161288" lon="-3.712853"/>
      <trkpt lat="40.161283" lon="-3.712912"/>
      <trkpt lat="40.161283" lon="-3.712912"/>
      <trkpt lat="40.161283" lon="-3.71303"/>
      <trkpt lat="40.161287" lon="-3.71309"/>
      <trkpt lat="40.161287" lon="-3.71309"/>
      <trkpt lat="40.161292" lon="-3.71321"/>
      <trkpt lat="40.161292" lon="-3.71321"/>
      <trkpt lat="40.161297" lon="-3.713328"/>
      <trkpt lat="40.161297" lon="-3.713328"/>
      <trkpt lat="40.161307" lon="-3.713445"/>
      <trkpt lat="40.161307" lon="-3.713445"/>
      <trkpt lat="40.16132" lon="-3.713562"/>
      <trkpt lat="40.16132" lon="-3.713562"/>
      <trkpt lat="40.161335" lon="-3.713678"/>
      <trkpt lat="40.161335" lon="-3.713678"/>
      <trkpt lat="40.161352" lon="-3.713792"/>
      <trkpt lat="40.161352" lon="-3.713792"/>
      <trkpt lat="40.161365" lon="-3.71391"/>
      <trkpt lat="40.161365" lon="-3.71391"/>
      <trkpt lat="40.16137" lon="-3.714027"/>
      <trkpt lat="40.16137" lon="-3.714027"/>
      <trkpt lat="40.161373" lon="-3.714145"/>
      <trkpt lat="40.161373" lon="-3.714145"/>
      <trkpt lat="40.161375" lon="-3.714265"/>
      <trkpt lat="40.161375" lon="-3.714265"/>
      <trkpt lat="40.161375" lon="-3.714382"/>
      <trkpt lat="40.161375" lon="-3.714382"/>
      <trkpt lat="40.161375" lon="-3.714498"/>
      <trkpt lat="40.161375" lon="-3.714498"/>
      <trkpt lat="40.161377" lon="-3.714613"/>
      <trkpt lat="40.161377" lon="-3.714613"/>
      <trkpt lat="40.161382" lon="-3.714728"/>
      <trkpt lat="40.161382" lon="-3.714728"/>
      <trkpt lat="40.16139" lon="-3.714837"/>
      <trkpt lat="40.16139" lon="-3.714837"/>
      <trkpt lat="40.161397" lon="-3.714942"/>
      <trkpt lat="40.161397" lon="-3.714942"/>
      <trkpt lat="40.161403" lon="-3.715047"/>
      <trkpt lat="40.161403" lon="-3.715047"/>
      <trkpt lat="40.161407" lon="-3.715148"/>
      <trkpt lat="40.161407" lon="-3.715148"/>
      <trkpt lat="40.161413" lon="-3.71525"/>
      <trkpt lat="40.161417" lon="-3.7153"/>
      <trkpt lat="40.161417" lon="-3.7153"/>
      <trkpt lat="40.161428" lon="-3.715405"/>
      <trkpt lat="40.161432" lon="-3.715458"/>
      <trkpt lat="40.161432" lon="-3.715458"/>
      <trkpt lat="40.161437" lon="-3.715562"/>
      <trkpt lat="40.16144" lon="-3.715613"/>
      <trkpt lat="40.16144" lon="-3.715613"/>
      <trkpt lat="40.16145" lon="-3.715713"/>
      <trkpt lat="40.161455" lon="-3.715765"/>
      <trkpt lat="40.161455" lon="-3.715765"/>
      <trkpt lat="40.161457" lon="-3.715868"/>
      <trkpt lat="40.161457" lon="-3.715868"/>
      <trkpt lat="40.161475" lon="-3.715968"/>
      <trkpt lat="40.161475" lon="-3.715968"/>
      <trkpt lat="40.161502" lon="-3.716067"/>
      <trkpt lat="40.161502" lon="-3.716067"/>
      <trkpt lat="40.161518" lon="-3.716165"/>
      <trkpt lat="40.161518" lon="-3.716165"/>
      <trkpt lat="40.161498" lon="-3.716258"/>
      <trkpt lat="40.161498" lon="-3.716258"/>
      <trkpt lat="40.161442" lon="-3.716337"/>
      <trkpt lat="40.161442" lon="-3.716337"/>
      <trkpt lat="40.161375" lon="-3.716408"/>
      <trkpt lat="40.161375" lon="-3.716408"/>
      <trkpt lat="40.161307" lon="-3.716487"/>
      <trkpt lat="40.161277" lon="-3.716528"/>
      <trkpt lat="40.161247" lon="-3.716573"/>
      <trkpt lat="40.161247" lon="-3.716573"/>
      <trkpt lat="40.161193" lon="-3.716678"/>
      <trkpt lat="40.161193" lon="-3.716678"/>
      <trkpt lat="40.16115" lon="-3.716783"/>
      <trkpt lat="40.16115" lon="-3.716783"/>
      <trkpt lat="40.161113" lon="-3.71688"/>
      <trkpt lat="40.161113" lon="-3.71688"/>
      <trkpt lat="40.161065" lon="-3.716975"/>
      <trkpt lat="40.161065" lon="-3.716975"/>
      <trkpt lat="40.161015" lon="-3.717063"/>
      <trkpt lat="40.161015" lon="-3.717063"/>
      <trkpt lat="40.160962" lon="-3.717152"/>
      <trkpt lat="40.160962" lon="-3.717152"/>
      <trkpt lat="40.160913" lon="-3.717243"/>
      <trkpt lat="40.160913" lon="-3.717243"/>
      <trkpt lat="40.160863" lon="-3.717338"/>
      <trkpt lat="40.160863" lon="-3.717338"/>
      <trkpt lat="40.160812" lon="-3.717425"/>
      <trkpt lat="40.160812" lon="-3.717425"/>
      <trkpt lat="40.160755" lon="-3.717502"/>
      <trkpt lat="40.160755" lon="-3.717502"/>
      <trkpt lat="40.160697" lon="-3.717567"/>
      <trkpt lat="40.160697" lon="-3.717567"/>
      <trkpt lat="40.160637" lon="-3.717632"/>
      <trkpt lat="40.160637" lon="-3.717632"/>
      <trkpt lat="40.160575" lon="-3.717683"/>
      <trkpt lat="40.160575" lon="-3.717683"/>
      <trkpt lat="40.160507" lon="-3.717733"/>
      <trkpt lat="40.160507" lon="-3.717733"/>
      <trkpt lat="40.160438" lon="-3.717787"/>
      <trkpt lat="40.160438" lon="-3.717787"/>
      <trkpt lat="40.160368" lon="-3.717838"/>
      <trkpt lat="40.160332" lon="-3.717862"/>
      <trkpt lat="40.160332" lon="-3.717862"/>
      <trkpt lat="40.160265" lon="-3.717918"/>
      <trkpt lat="40.160233" lon="-3.717948"/>
      <trkpt lat="40.160233" lon="-3.717948"/>
      <trkpt lat="40.160172" lon="-3.718015"/>
      <trkpt lat="40.160172" lon="-3.718015"/>
      <trkpt lat="40.160115" lon="-3.718083"/>
      <trkpt lat="40.160115" lon="-3.718083"/>
      <trkpt lat="40.160062" lon="-3.718157"/>
      <trkpt lat="40.160062" lon="-3.718157"/>
      <trkpt lat="40.16001" lon="-3.718225"/>
      <trkpt lat="40.16001" lon="-3.718225"/>
      <trkpt lat="40.15996" lon="-3.7183"/>
      <trkpt lat="40.15996" lon="-3.7183"/>
      <trkpt lat="40.159913" lon="-3.718375"/>
      <trkpt lat="40.159913" lon="-3.718375"/>
      <trkpt lat="40.159865" lon="-3.71845"/>
      <trkpt lat="40.159865" lon="-3.71845"/>
      <trkpt lat="40.159818" lon="-3.718525"/>
      <trkpt lat="40.159818" lon="-3.718525"/>
      <trkpt lat="40.159775" lon="-3.718602"/>
      <trkpt lat="40.159775" lon="-3.718602"/>
      <trkpt lat="40.159732" lon="-3.71868"/>
      <trkpt lat="40.159732" lon="-3.71868"/>
      <trkpt lat="40.159687" lon="-3.71876"/>
      <trkpt lat="40.159687" lon="-3.71876"/>
      <trkpt lat="40.159637" lon="-3.718842"/>
      <trkpt lat="40.159637" lon="-3.718842"/>
      <trkpt lat="40.159578" lon="-3.718927"/>
      <trkpt lat="40.159578" lon="-3.718927"/>
      <trkpt lat="40.159513" lon="-3.719017"/>
      <trkpt lat="40.159482" lon="-3.719058"/>
      <trkpt lat="40.15945" lon="-3.719098"/>
      <trkpt lat="40.15945" lon="-3.719098"/>
      <trkpt lat="40.159395" lon="-3.719167"/>
      <trkpt lat="40.159395" lon="-3.719167"/>
      <trkpt lat="40.15934" lon="-3.719233"/>
      <trkpt lat="40.15934" lon="-3.719233"/>
      <trkpt lat="40.159283" lon="-3.719303"/>
      <trkpt lat="40.159283" lon="-3.719303"/>
      <trkpt lat="40.15922" lon="-3.719378"/>
      <trkpt lat="40.15922" lon="-3.719378"/>
      <trkpt lat="40.159148" lon="-3.71945"/>
      <trkpt lat="40.159148" lon="-3.71945"/>
      <trkpt lat="40.159068" lon="-3.719527"/>
      <trkpt lat="40.159068" lon="-3.719527"/>
      <trkpt lat="40.158987" lon="-3.719603"/>
      <trkpt lat="40.158987" lon="-3.719603"/>
      <trkpt lat="40.158905" lon="-3.719675"/>
      <trkpt lat="40.158905" lon="-3.719675"/>
      <trkpt lat="40.158825" lon="-3.719757"/>
      <trkpt lat="40.158825" lon="-3.719757"/>
      <trkpt lat="40.158748" lon="-3.71984"/>
      <trkpt lat="40.158748" lon="-3.71984"/>
      <trkpt lat="40.158662" lon="-3.719922"/>
      <trkpt lat="40.158662" lon="-3.719922"/>
      <trkpt lat="40.158555" lon="-3.720018"/>
      <trkpt lat="40.158555" lon="-3.720018"/>
      <trkpt lat="40.158428" lon="-3.720118"/>
      <trkpt lat="40.158362" lon="-3.720162"/>
      <trkpt lat="40.158362" lon="-3.720162"/>
      <trkpt lat="40.158222" lon="-3.720237"/>
      <trkpt lat="40.158147" lon="-3.720272"/>
      <trkpt lat="40.158147" lon="-3.720272"/>
      <trkpt lat="40.157998" lon="-3.720332"/>
      <trkpt lat="40.157998" lon="-3.720332"/>
      <trkpt lat="40.157867" lon="-3.720395"/>
      <trkpt lat="40.157867" lon="-3.720395"/>
      <trkpt lat="40.157758" lon="-3.720478"/>
      <trkpt lat="40.157758" lon="-3.720478"/>
      <trkpt lat="40.157667" lon="-3.720563"/>
      <trkpt lat="40.157667" lon="-3.720563"/>
      <trkpt lat="40.157592" lon="-3.720658"/>
      <trkpt lat="40.157592" lon="-3.720658"/>
      <trkpt lat="40.157527" lon="-3.720762"/>
      <trkpt lat="40.157527" lon="-3.720762"/>
      <trkpt lat="40.157463" lon="-3.720848"/>
      <trkpt lat="40.157463" lon="-3.720848"/>
      <trkpt lat="40.157407" lon="-3.720918"/>
      <trkpt lat="40.157407" lon="-3.720918"/>
      <trkpt lat="40.157363" lon="-3.721003"/>
      <trkpt lat="40.157363" lon="-3.721003"/>
      <trkpt lat="40.157318" lon="-3.721115"/>
      <trkpt lat="40.157318" lon="-3.721115"/>
      <trkpt lat="40.157275" lon="-3.721243"/>
      <trkpt lat="40.157275" lon="-3.721243"/>
      <trkpt lat="40.157227" lon="-3.721382"/>
      <trkpt lat="40.157227" lon="-3.721382"/>
      <trkpt lat="40.157168" lon="-3.721523"/>
      <trkpt lat="40.157168" lon="-3.721523"/>
      <trkpt lat="40.157117" lon="-3.721678"/>
      <trkpt lat="40.157117" lon="-3.721678"/>
      <trkpt lat="40.157073" lon="-3.721837"/>
      <trkpt lat="40.157073" lon="-3.721837"/>
      <trkpt lat="40.157042" lon="-3.721985"/>
      <trkpt lat="40.157042" lon="-3.721985"/>
      <trkpt lat="40.15703" lon="-3.722138"/>
      <trkpt lat="40.15703" lon="-3.722138"/>
      <trkpt lat="40.15701" lon="-3.722307"/>
      <trkpt lat="40.15701" lon="-3.722307"/>
      <trkpt lat="40.156975" lon="-3.722488"/>
      <trkpt lat="40.156975" lon="-3.722488"/>
      <trkpt lat="40.156938" lon="-3.72267"/>
      <trkpt lat="40.156938" lon="-3.72267"/>
      <trkpt lat="40.1569" lon="-3.722815"/>
      <trkpt lat="40.1569" lon="-3.722815"/>
      <trkpt lat="40.156852" lon="-3.722953"/>
      <trkpt lat="40.156852" lon="-3.722953"/>
      <trkpt lat="40.1568" lon="-3.723088"/>
      <trkpt lat="40.1568" lon="-3.723088"/>
      <trkpt lat="40.156758" lon="-3.72322"/>
      <trkpt lat="40.156758" lon="-3.72322"/>
      <trkpt lat="40.156735" lon="-3.72337"/>
      <trkpt lat="40.156735" lon="-3.72337"/>
      <trkpt lat="40.156733" lon="-3.723538"/>
      <trkpt lat="40.15674" lon="-3.723623"/>
      <trkpt lat="40.15675" lon="-3.723708"/>
      <trkpt lat="40.15675" lon="-3.723708"/>
      <trkpt lat="40.156773" lon="-3.72387"/>
      <trkpt lat="40.156787" lon="-3.723943"/>
      <trkpt lat="40.156787" lon="-3.723943"/>
      <trkpt lat="40.156813" lon="-3.724072"/>
      <trkpt lat="40.156825" lon="-3.724135"/>
      <trkpt lat="40.156825" lon="-3.724135"/>
      <trkpt lat="40.15685" lon="-3.724257"/>
      <trkpt lat="40.15685" lon="-3.724257"/>
      <trkpt lat="40.156853" lon="-3.724373"/>
      <trkpt lat="40.156853" lon="-3.724373"/>
      <trkpt lat="40.156842" lon="-3.724483"/>
      <trkpt lat="40.156842" lon="-3.724483"/>
      <trkpt lat="40.156828" lon="-3.724598"/>
      <trkpt lat="40.156828" lon="-3.724598"/>
      <trkpt lat="40.156813" lon="-3.724727"/>
      <trkpt lat="40.156807" lon="-3.724797"/>
      <trkpt lat="40.156797" lon="-3.724873"/>
      <trkpt lat="40.156797" lon="-3.724873"/>
      <trkpt lat="40.156758" lon="-3.72503"/>
      <trkpt lat="40.156758" lon="-3.72503"/>
      <trkpt lat="40.156712" lon="-3.725195"/>
      <trkpt lat="40.156712" lon="-3.725195"/>
      <trkpt lat="40.156662" lon="-3.725363"/>
      <trkpt lat="40.156662" lon="-3.725363"/>
      <trkpt lat="40.156613" lon="-3.725535"/>
      <trkpt lat="40.156613" lon="-3.725535"/>
      <trkpt lat="40.156567" lon="-3.72571"/>
      <trkpt lat="40.156567" lon="-3.72571"/>
      <trkpt lat="40.156513" lon="-3.725885"/>
      <trkpt lat="40.156513" lon="-3.725885"/>
      <trkpt lat="40.15646" lon="-3.726067"/>
      <trkpt lat="40.15646" lon="-3.726067"/>
      <trkpt lat="40.156408" lon="-3.726248"/>
      <trkpt lat="40.156408" lon="-3.726248"/>
      <trkpt lat="40.156358" lon="-3.726435"/>
      <trkpt lat="40.156358" lon="-3.726435"/>
      <trkpt lat="40.156297" lon="-3.72661"/>
      <trkpt lat="40.156297" lon="-3.72661"/>
      <trkpt lat="40.156227" lon="-3.726787"/>
      <trkpt lat="40.156227" lon="-3.726787"/>
      <trkpt lat="40.15617" lon="-3.726993"/>
      <trkpt lat="40.15617" lon="-3.726993"/>
      <trkpt lat="40.156122" lon="-3.727208"/>
      <trkpt lat="40.156122" lon="-3.727208"/>
      <trkpt lat="40.15609" lon="-3.727435"/>
      <trkpt lat="40.15609" lon="-3.727435"/>
      <trkpt lat="40.156068" lon="-3.727668"/>
      <trkpt lat="40.156068" lon="-3.727668"/>
      <trkpt lat="40.156033" lon="-3.727902"/>
      <trkpt lat="40.156033" lon="-3.727902"/>
      <trkpt lat="40.15598" lon="-3.728127"/>
      <trkpt lat="40.15598" lon="-3.728127"/>
      <trkpt lat="40.155907" lon="-3.72834"/>
      <trkpt lat="40.155907" lon="-3.72834"/>
      <trkpt lat="40.155828" lon="-3.728548"/>
      <trkpt lat="40.155828" lon="-3.728548"/>
      <trkpt lat="40.155758" lon="-3.728745"/>
      <trkpt lat="40.155758" lon="-3.728745"/>
      <trkpt lat="40.155718" lon="-3.728935"/>
      <trkpt lat="40.155718" lon="-3.728935"/>
      <trkpt lat="40.155682" lon="-3.729108"/>
      <trkpt lat="40.155682" lon="-3.729108"/>
      <trkpt lat="40.155612" lon="-3.729243"/>
      <trkpt lat="40.155612" lon="-3.729243"/>
      <trkpt lat="40.155543" lon="-3.729357"/>
      <trkpt lat="40.155543" lon="-3.729357"/>
      <trkpt lat="40.155502" lon="-3.729463"/>
      <trkpt lat="40.155502" lon="-3.729463"/>
      <trkpt lat="40.155477" lon="-3.729562"/>
      <trkpt lat="40.155472" lon="-3.729607"/>
      <trkpt lat="40.15547" lon="-3.729647"/>
      <trkpt lat="40.15547" lon="-3.729647"/>
      <trkpt lat="40.155457" lon="-3.729722"/>
      <trkpt lat="40.155457" lon="-3.729722"/>
      <trkpt lat="40.155435" lon="-3.729812"/>
      <trkpt lat="40.155437" lon="-3.72987"/>
      <trkpt lat="40.155438" lon="-3.729935"/>
      <trkpt lat="40.155438" lon="-3.729935"/>
      <trkpt lat="40.155435" lon="-3.730073"/>
      <trkpt lat="40.155428" lon="-3.730145"/>
      <trkpt lat="40.155428" lon="-3.730145"/>
      <trkpt lat="40.155407" lon="-3.730293"/>
      <trkpt lat="40.155397" lon="-3.73037"/>
      <trkpt lat="40.155397" lon="-3.73037"/>
      <trkpt lat="40.155385" lon="-3.730522"/>
      <trkpt lat="40.155385" lon="-3.730522"/>
      <trkpt lat="40.155373" lon="-3.730675"/>
      <trkpt lat="40.155373" lon="-3.730675"/>
      <trkpt lat="40.15537" lon="-3.730828"/>
      <trkpt lat="40.15537" lon="-3.730828"/>
      <trkpt lat="40.15536" lon="-3.730983"/>
      <trkpt lat="40.15536" lon="-3.730983"/>
      <trkpt lat="40.155345" lon="-3.731148"/>
      <trkpt lat="40.155345" lon="-3.731148"/>
      <trkpt lat="40.15532" lon="-3.73132"/>
      <trkpt lat="40.15532" lon="-3.73132"/>
      <trkpt lat="40.155293" lon="-3.7315"/>
      <trkpt lat="40.155293" lon="-3.7315"/>
      <trkpt lat="40.155282" lon="-3.731698"/>
      <trkpt lat="40.155282" lon="-3.731698"/>
      <trkpt lat="40.155288" lon="-3.73189"/>
      <trkpt lat="40.155297" lon="-3.731982"/>
      <trkpt lat="40.155297" lon="-3.731982"/>
      <trkpt lat="40.155323" lon="-3.73217"/>
      <trkpt lat="40.155323" lon="-3.73217"/>
      <trkpt lat="40.155368" lon="-3.73236"/>
      <trkpt lat="40.155393" lon="-3.73246"/>
      <trkpt lat="40.155393" lon="-3.73246"/>
      <trkpt lat="40.155453" lon="-3.732672"/>
      <trkpt lat="40.155453" lon="-3.732672"/>
      <trkpt lat="40.155532" lon="-3.732892"/>
      <trkpt lat="40.155532" lon="-3.732892"/>
      <trkpt lat="40.15563" lon="-3.733095"/>
      <trkpt lat="40.15563" lon="-3.733095"/>
      <trkpt lat="40.155757" lon="-3.733268"/>
      <trkpt lat="40.155757" lon="-3.733268"/>
      <trkpt lat="40.15589" lon="-3.73342"/>
      <trkpt lat="40.15589" lon="-3.73342"/>
      <trkpt lat="40.156008" lon="-3.733578"/>
      <trkpt lat="40.156008" lon="-3.733578"/>
      <trkpt lat="40.156112" lon="-3.733745"/>
      <trkpt lat="40.156112" lon="-3.733745"/>
      <trkpt lat="40.156213" lon="-3.733908"/>
      <trkpt lat="40.156213" lon="-3.733908"/>
      <trkpt lat="40.156297" lon="-3.734097"/>
      <trkpt lat="40.156297" lon="-3.734097"/>
      <trkpt lat="40.15634" lon="-3.734312"/>
      <trkpt lat="40.15636" lon="-3.734418"/>
      <trkpt lat="40.15636" lon="-3.734418"/>
      <trkpt lat="40.156403" lon="-3.734627"/>
      <trkpt lat="40.156432" lon="-3.734722"/>
      <trkpt lat="40.156432" lon="-3.734722"/>
      <trkpt lat="40.156492" lon="-3.734848"/>
      <trkpt lat="40.156492" lon="-3.734848"/>
      <trkpt lat="40.156558" lon="-3.734897"/>
      <trkpt lat="40.156558" lon="-3.734897"/>
      <trkpt lat="40.156607" lon="-3.734943"/>
      <trkpt lat="40.156617" lon="-3.734973"/>
      <trkpt lat="40.156617" lon="-3.734973"/>
      <trkpt lat="40.15662" lon="-3.734988"/>
      <trkpt lat="40.156618" lon="-3.734987"/>
      <trkpt lat="40.15662" lon="-3.734987"/>
      <trkpt lat="40.15662" lon="-3.734987"/>
      <trkpt lat="40.15662" lon="-3.734987"/>
      <trkpt lat="40.15662" lon="-3.734987"/>
      <trkpt lat="40.15662" lon="-3.734987"/>
      <trkpt lat="40.15662" lon="-3.734987"/>
      <trkpt lat="40.15662" lon="-3.734987"/>
      <trkpt lat="40.15662" lon="-3.734987"/>
      <trkpt lat="40.15662" lon="-3.734987"/>
      <trkpt lat="40.15662" lon="-3.734987"/>
      <trkpt lat="40.15662" lon="-3.734987"/>
      <trkpt lat="40.15662" lon="-3.734987"/>
      <trkpt lat="40.15662" lon="-3.734987"/>
      <trkpt lat="40.15662" lon="-3.734987"/>
      <trkpt lat="40.15662" lon="-3.734987"/>
      <trkpt lat="40.15662" lon="-3.734987"/>
      <trkpt lat="40.15662" lon="-3.734987"/>
      <trkpt lat="40.15662" lon="-3.734987"/>
      <trkpt lat="40.15662" lon="-3.734987"/>
      <trkpt lat="40.15662" lon="-3.734987"/>
      <trkpt lat="40.15662" lon="-3.734987"/>
      <trkpt lat="40.15662" lon="-3.734987"/>
      <trkpt lat="40.15662" lon="-3.734987"/>
      <trkpt lat="40.15662" lon="-3.734987"/>
      <trkpt lat="40.15662" lon="-3.734987"/>
      <trkpt lat="40.15662" lon="-3.734987"/>
      <trkpt lat="40.15662" lon="-3.734987"/>
      <trkpt lat="40.15662" lon="-3.734987"/>
      <trkpt lat="40.15662" lon="-3.734987"/>
      <trkpt lat="40.15662" lon="-3.734987"/>
      <trkpt lat="40.15662" lon="-3.734987"/>
      <trkpt lat="40.15662" lon="-3.734987"/>
      <trkpt lat="40.15662" lon="-3.734987"/>
      <trkpt lat="40.15662" lon="-3.734987"/>
      <trkpt lat="40.15662" lon="-3.734987"/>
      <trkpt lat="40.15662" lon="-3.734987"/>
      <trkpt lat="40.15662" lon="-3.734987"/>
      <trkpt lat="40.15662" lon="-3.734987"/>
      <trkpt lat="40.15662" lon="-3.734987"/>
      <trkpt lat="40.15662" lon="-3.734987"/>
      <trkpt lat="40.15662" lon="-3.734987"/>
      <trkpt lat="40.15662" lon="-3.734987"/>
      <trkpt lat="40.15662" lon="-3.734987"/>
      <trkpt lat="40.15662" lon="-3.734987"/>
      <trkpt lat="40.15662" lon="-3.734987"/>
      <trkpt lat="40.15662" lon="-3.734987"/>
      <trkpt lat="40.15662" lon="-3.734987"/>
      <trkpt lat="40.15662" lon="-3.734987"/>
      <trkpt lat="40.15662" lon="-3.734987"/>
      <trkpt lat="40.15662" lon="-3.734987"/>
      <trkpt lat="40.15662" lon="-3.734987"/>
      <trkpt lat="40.15662" lon="-3.734987"/>
      <trkpt lat="40.15662" lon="-3.734987"/>
      <trkpt lat="40.15662" lon="-3.734987"/>
      <trkpt lat="40.15662" lon="-3.734987"/>
      <trkpt lat="40.15662" lon="-3.734987"/>
      <trkpt lat="40.15662" lon="-3.734987"/>
      <trkpt lat="40.15662" lon="-3.734987"/>
      <trkpt lat="40.15662" lon="-3.734987"/>
      <trkpt lat="40.15662" lon="-3.734987"/>
      <trkpt lat="40.15662" lon="-3.734987"/>
      <trkpt lat="40.15662" lon="-3.734987"/>
      <trkpt lat="40.15662" lon="-3.734987"/>
      <trkpt lat="40.15662" lon="-3.734987"/>
      <trkpt lat="40.15662" lon="-3.734987"/>
      <trkpt lat="40.15662" lon="-3.734987"/>
      <trkpt lat="40.15662" lon="-3.734987"/>
      <trkpt lat="40.15662" lon="-3.734987"/>
      <trkpt lat="40.15662" lon="-3.734987"/>
      <trkpt lat="40.15662" lon="-3.734987"/>
      <trkpt lat="40.15662" lon="-3.734987"/>
      <trkpt lat="40.15662" lon="-3.734987"/>
      <trkpt lat="40.15662" lon="-3.734987"/>
      <trkpt lat="40.15662" lon="-3.734987"/>
      <trkpt lat="40.15662" lon="-3.734987"/>
      <trkpt lat="40.156638" lon="-3.734992"/>
      <trkpt lat="40.156638" lon="-3.734992"/>
      <trkpt lat="40.156658" lon="-3.735035"/>
      <trkpt lat="40.156658" lon="-3.735035"/>
      <trkpt lat="40.156678" lon="-3.735092"/>
      <trkpt lat="40.156678" lon="-3.735092"/>
      <trkpt lat="40.156692" lon="-3.735165"/>
      <trkpt lat="40.156692" lon="-3.735165"/>
      <trkpt lat="40.156707" lon="-3.735252"/>
      <trkpt lat="40.156707" lon="-3.735252"/>
      <trkpt lat="40.156715" lon="-3.735347"/>
      <trkpt lat="40.156715" lon="-3.735347"/>
      <trkpt lat="40.156717" lon="-3.735443"/>
      <trkpt lat="40.156717" lon="-3.735443"/>
      <trkpt lat="40.156727" lon="-3.73554"/>
      <trkpt lat="40.156727" lon="-3.73554"/>
      <trkpt lat="40.156747" lon="-3.735642"/>
      <trkpt lat="40.156747" lon="-3.735642"/>
      <trkpt lat="40.156778" lon="-3.73574"/>
      <trkpt lat="40.156778" lon="-3.73574"/>
      <trkpt lat="40.156827" lon="-3.735835"/>
      <trkpt lat="40.156827" lon="-3.735835"/>
      <trkpt lat="40.156872" lon="-3.735923"/>
      <trkpt lat="40.156872" lon="-3.735923"/>
      <trkpt lat="40.156925" lon="-3.736022"/>
      <trkpt lat="40.156925" lon="-3.736022"/>
      <trkpt lat="40.156973" lon="-3.736123"/>
      <trkpt lat="40.156973" lon="-3.736123"/>
      <trkpt lat="40.157023" lon="-3.73623"/>
      <trkpt lat="40.15705" lon="-3.736285"/>
      <trkpt lat="40.157078" lon="-3.736337"/>
      <trkpt lat="40.157078" lon="-3.736337"/>
      <trkpt lat="40.157138" lon="-3.736443"/>
      <trkpt lat="40.157138" lon="-3.736443"/>
      <trkpt lat="40.157208" lon="-3.73654"/>
      <trkpt lat="40.157208" lon="-3.73654"/>
      <trkpt lat="40.157288" lon="-3.736627"/>
      <trkpt lat="40.157288" lon="-3.736627"/>
      <trkpt lat="40.157375" lon="-3.736705"/>
      <trkpt lat="40.157375" lon="-3.736705"/>
      <trkpt lat="40.157458" lon="-3.736777"/>
      <trkpt lat="40.157458" lon="-3.736777"/>
      <trkpt lat="40.157547" lon="-3.736837"/>
      <trkpt lat="40.157547" lon="-3.736837"/>
      <trkpt lat="40.157638" lon="-3.736883"/>
      <trkpt lat="40.157638" lon="-3.736883"/>
      <trkpt lat="40.15773" lon="-3.736922"/>
      <trkpt lat="40.15773" lon="-3.736922"/>
      <trkpt lat="40.157822" lon="-3.736972"/>
      <trkpt lat="40.157822" lon="-3.736972"/>
      <trkpt lat="40.15791" lon="-3.737028"/>
      <trkpt lat="40.15791" lon="-3.737028"/>
      <trkpt lat="40.157998" lon="-3.737085"/>
      <trkpt lat="40.157998" lon="-3.737085"/>
      <trkpt lat="40.15808" lon="-3.737143"/>
      <trkpt lat="40.15808" lon="-3.737143"/>
      <trkpt lat="40.158153" lon="-3.737203"/>
      <trkpt lat="40.158153" lon="-3.737203"/>
      <trkpt lat="40.158222" lon="-3.737268"/>
      <trkpt lat="40.158255" lon="-3.737302"/>
      <trkpt lat="40.158287" lon="-3.737335"/>
      <trkpt lat="40.158287" lon="-3.737335"/>
      <trkpt lat="40.158352" lon="-3.737403"/>
      <trkpt lat="40.158352" lon="-3.737403"/>
      <trkpt lat="40.158415" lon="-3.737462"/>
      <trkpt lat="40.158448" lon="-3.737493"/>
      <trkpt lat="40.158448" lon="-3.737493"/>
      <trkpt lat="40.158522" lon="-3.737555"/>
      <trkpt lat="40.158522" lon="-3.737555"/>
      <trkpt lat="40.158603" lon="-3.737608"/>
      <trkpt lat="40.158603" lon="-3.737608"/>
      <trkpt lat="40.158688" lon="-3.737648"/>
      <trkpt lat="40.158733" lon="-3.737663"/>
      <trkpt lat="40.158733" lon="-3.737663"/>
      <trkpt lat="40.158825" lon="-3.73769"/>
      <trkpt lat="40.158825" lon="-3.73769"/>
      <trkpt lat="40.158918" lon="-3.737723"/>
      <trkpt lat="40.158918" lon="-3.737723"/>
      <trkpt lat="40.15901" lon="-3.737757"/>
      <trkpt lat="40.15901" lon="-3.737757"/>
      <trkpt lat="40.1591" lon="-3.73779"/>
      <trkpt lat="40.1591" lon="-3.73779"/>
      <trkpt lat="40.159185" lon="-3.737815"/>
      <trkpt lat="40.159227" lon="-3.73783"/>
      <trkpt lat="40.159267" lon="-3.737853"/>
      <trkpt lat="40.159267" lon="-3.737853"/>
      <trkpt lat="40.159345" lon="-3.737902"/>
      <trkpt lat="40.159345" lon="-3.737902"/>
      <trkpt lat="40.159423" lon="-3.737957"/>
      <trkpt lat="40.159423" lon="-3.737957"/>
      <trkpt lat="40.159507" lon="-3.738007"/>
      <trkpt lat="40.159507" lon="-3.738007"/>
      <trkpt lat="40.159592" lon="-3.738055"/>
      <trkpt lat="40.159592" lon="-3.738055"/>
      <trkpt lat="40.159678" lon="-3.738105"/>
      <trkpt lat="40.159678" lon="-3.738105"/>
      <trkpt lat="40.159767" lon="-3.738163"/>
      <trkpt lat="40.159767" lon="-3.738163"/>
      <trkpt lat="40.159855" lon="-3.738222"/>
      <trkpt lat="40.159855" lon="-3.738222"/>
      <trkpt lat="40.15994" lon="-3.73828"/>
      <trkpt lat="40.15994" lon="-3.73828"/>
      <trkpt lat="40.160025" lon="-3.738335"/>
      <trkpt lat="40.160025" lon="-3.738335"/>
      <trkpt lat="40.160107" lon="-3.738393"/>
      <trkpt lat="40.160107" lon="-3.738393"/>
      <trkpt lat="40.16018" lon="-3.738465"/>
      <trkpt lat="40.16018" lon="-3.738465"/>
      <trkpt lat="40.160255" lon="-3.738533"/>
      <trkpt lat="40.160255" lon="-3.738533"/>
      <trkpt lat="40.160327" lon="-3.738627"/>
      <trkpt lat="40.160327" lon="-3.738627"/>
      <trkpt lat="40.160403" lon="-3.738725"/>
      <trkpt lat="40.160403" lon="-3.738725"/>
      <trkpt lat="40.160473" lon="-3.738818"/>
      <trkpt lat="40.160473" lon="-3.738818"/>
      <trkpt lat="40.160537" lon="-3.738917"/>
      <trkpt lat="40.160537" lon="-3.738917"/>
      <trkpt lat="40.160605" lon="-3.739013"/>
      <trkpt lat="40.160605" lon="-3.739013"/>
      <trkpt lat="40.160682" lon="-3.73911"/>
      <trkpt lat="40.160682" lon="-3.73911"/>
      <trkpt lat="40.160762" lon="-3.739205"/>
      <trkpt lat="40.160762" lon="-3.739205"/>
      <trkpt lat="40.160838" lon="-3.7393"/>
      <trkpt lat="40.160838" lon="-3.7393"/>
      <trkpt lat="40.160912" lon="-3.739397"/>
      <trkpt lat="40.160912" lon="-3.739397"/>
      <trkpt lat="40.160983" lon="-3.739492"/>
      <trkpt lat="40.160983" lon="-3.739492"/>
      <trkpt lat="40.161053" lon="-3.73958"/>
      <trkpt lat="40.161053" lon="-3.73958"/>
      <trkpt lat="40.161132" lon="-3.739657"/>
      <trkpt lat="40.161132" lon="-3.739657"/>
      <trkpt lat="40.161215" lon="-3.739728"/>
      <trkpt lat="40.161215" lon="-3.739728"/>
      <trkpt lat="40.161295" lon="-3.7398"/>
      <trkpt lat="40.161295" lon="-3.7398"/>
      <trkpt lat="40.16137" lon="-3.739875"/>
      <trkpt lat="40.16137" lon="-3.739875"/>
      <trkpt lat="40.161445" lon="-3.739945"/>
      <trkpt lat="40.161445" lon="-3.739945"/>
      <trkpt lat="40.161523" lon="-3.740013"/>
      <trkpt lat="40.161523" lon="-3.740013"/>
      <trkpt lat="40.161595" lon="-3.74008"/>
      <trkpt lat="40.161595" lon="-3.74008"/>
      <trkpt lat="40.161665" lon="-3.740148"/>
      <trkpt lat="40.161665" lon="-3.740148"/>
      <trkpt lat="40.161733" lon="-3.740222"/>
      <trkpt lat="40.161733" lon="-3.740222"/>
      <trkpt lat="40.161805" lon="-3.740298"/>
      <trkpt lat="40.161805" lon="-3.740298"/>
      <trkpt lat="40.161877" lon="-3.740385"/>
      <trkpt lat="40.161877" lon="-3.740385"/>
      <trkpt lat="40.161952" lon="-3.740477"/>
      <trkpt lat="40.16199" lon="-3.740523"/>
      <trkpt lat="40.16199" lon="-3.740523"/>
      <trkpt lat="40.162067" lon="-3.740618"/>
      <trkpt lat="40.162067" lon="-3.740618"/>
      <trkpt lat="40.162147" lon="-3.740712"/>
      <trkpt lat="40.162187" lon="-3.740758"/>
      <trkpt lat="40.162187" lon="-3.740758"/>
      <trkpt lat="40.162267" lon="-3.740852"/>
      <trkpt lat="40.162305" lon="-3.740898"/>
      <trkpt lat="40.162305" lon="-3.740898"/>
      <trkpt lat="40.162387" lon="-3.740993"/>
      <trkpt lat="40.162387" lon="-3.740993"/>
      <trkpt lat="40.16247" lon="-3.741088"/>
      <trkpt lat="40.162512" lon="-3.741135"/>
      <trkpt lat="40.162512" lon="-3.741135"/>
      <trkpt lat="40.162593" lon="-3.741235"/>
      <trkpt lat="40.162593" lon="-3.741235"/>
      <trkpt lat="40.162668" lon="-3.741338"/>
      <trkpt lat="40.162668" lon="-3.741338"/>
      <trkpt lat="40.16274" lon="-3.74144"/>
      <trkpt lat="40.16274" lon="-3.74144"/>
      <trkpt lat="40.162813" lon="-3.741547"/>
      <trkpt lat="40.162813" lon="-3.741547"/>
      <trkpt lat="40.162882" lon="-3.741655"/>
      <trkpt lat="40.162882" lon="-3.741655"/>
      <trkpt lat="40.162948" lon="-3.74176"/>
      <trkpt lat="40.162948" lon="-3.74176"/>
      <trkpt lat="40.163018" lon="-3.741863"/>
      <trkpt lat="40.163018" lon="-3.741863"/>
      <trkpt lat="40.163085" lon="-3.741965"/>
      <trkpt lat="40.163085" lon="-3.741965"/>
      <trkpt lat="40.163155" lon="-3.742063"/>
      <trkpt lat="40.163155" lon="-3.742063"/>
      <trkpt lat="40.16322" lon="-3.742153"/>
      <trkpt lat="40.16322" lon="-3.742153"/>
      <trkpt lat="40.16327" lon="-3.742238"/>
      <trkpt lat="40.16327" lon="-3.742238"/>
      <trkpt lat="40.163318" lon="-3.742325"/>
      <trkpt lat="40.163318" lon="-3.742325"/>
      <trkpt lat="40.163368" lon="-3.742417"/>
      <trkpt lat="40.163368" lon="-3.742417"/>
      <trkpt lat="40.163427" lon="-3.742498"/>
      <trkpt lat="40.16346" lon="-3.742545"/>
      <trkpt lat="40.163492" lon="-3.742592"/>
      <trkpt lat="40.163492" lon="-3.742592"/>
      <trkpt lat="40.163553" lon="-3.742683"/>
      <trkpt lat="40.163553" lon="-3.742683"/>
      <trkpt lat="40.16361" lon="-3.742767"/>
      <trkpt lat="40.16361" lon="-3.742767"/>
      <trkpt lat="40.163672" lon="-3.742852"/>
      <trkpt lat="40.163672" lon="-3.742852"/>
      <trkpt lat="40.163733" lon="-3.742942"/>
      <trkpt lat="40.163733" lon="-3.742942"/>
      <trkpt lat="40.163797" lon="-3.743025"/>
      <trkpt lat="40.163797" lon="-3.743025"/>
      <trkpt lat="40.163863" lon="-3.74311"/>
      <trkpt lat="40.163863" lon="-3.74311"/>
      <trkpt lat="40.163925" lon="-3.743197"/>
      <trkpt lat="40.163925" lon="-3.743197"/>
      <trkpt lat="40.16399" lon="-3.743297"/>
      <trkpt lat="40.16399" lon="-3.743297"/>
      <trkpt lat="40.164057" lon="-3.7434"/>
      <trkpt lat="40.164057" lon="-3.7434"/>
      <trkpt lat="40.164123" lon="-3.743513"/>
      <trkpt lat="40.164123" lon="-3.743513"/>
      <trkpt lat="40.16419" lon="-3.74364"/>
      <trkpt lat="40.16419" lon="-3.74364"/>
      <trkpt lat="40.16426" lon="-3.743778"/>
      <trkpt lat="40.16426" lon="-3.743778"/>
      <trkpt lat="40.164325" lon="-3.743927"/>
      <trkpt lat="40.164325" lon="-3.743927"/>
      <trkpt lat="40.164385" lon="-3.744082"/>
      <trkpt lat="40.164385" lon="-3.744082"/>
      <trkpt lat="40.16445" lon="-3.744235"/>
      <trkpt lat="40.16445" lon="-3.744235"/>
      <trkpt lat="40.164518" lon="-3.744388"/>
      <trkpt lat="40.164553" lon="-3.744465"/>
      <trkpt lat="40.164553" lon="-3.744465"/>
      <trkpt lat="40.164623" lon="-3.744615"/>
      <trkpt lat="40.164655" lon="-3.744692"/>
      <trkpt lat="40.164655" lon="-3.744692"/>
      <trkpt lat="40.164727" lon="-3.744833"/>
      <trkpt lat="40.164727" lon="-3.744833"/>
      <trkpt lat="40.164822" lon="-3.744953"/>
      <trkpt lat="40.164822" lon="-3.744953"/>
      <trkpt lat="40.164918" lon="-3.745063"/>
      <trkpt lat="40.164918" lon="-3.745063"/>
      <trkpt lat="40.16502" lon="-3.745163"/>
      <trkpt lat="40.16502" lon="-3.745163"/>
      <trkpt lat="40.165127" lon="-3.745267"/>
      <trkpt lat="40.165127" lon="-3.745267"/>
      <trkpt lat="40.165242" lon="-3.745345"/>
      <trkpt lat="40.165242" lon="-3.745345"/>
      <trkpt lat="40.165365" lon="-3.745398"/>
      <trkpt lat="40.165365" lon="-3.745398"/>
      <trkpt lat="40.16549" lon="-3.745433"/>
      <trkpt lat="40.16549" lon="-3.745433"/>
      <trkpt lat="40.165617" lon="-3.74546"/>
      <trkpt lat="40.165617" lon="-3.74546"/>
      <trkpt lat="40.165743" lon="-3.745482"/>
      <trkpt lat="40.165743" lon="-3.745482"/>
      <trkpt lat="40.165867" lon="-3.745503"/>
      <trkpt lat="40.165867" lon="-3.745503"/>
      <trkpt lat="40.165987" lon="-3.745525"/>
      <trkpt lat="40.165987" lon="-3.745525"/>
      <trkpt lat="40.166102" lon="-3.745552"/>
      <trkpt lat="40.166102" lon="-3.745552"/>
      <trkpt lat="40.166213" lon="-3.745578"/>
      <trkpt lat="40.166268" lon="-3.745592"/>
      <trkpt lat="40.166322" lon="-3.745607"/>
      <trkpt lat="40.166322" lon="-3.745607"/>
      <trkpt lat="40.16643" lon="-3.745635"/>
      <trkpt lat="40.16643" lon="-3.745635"/>
      <trkpt lat="40.166532" lon="-3.745668"/>
      <trkpt lat="40.166532" lon="-3.745668"/>
      <trkpt lat="40.166623" lon="-3.745712"/>
      <trkpt lat="40.166623" lon="-3.745712"/>
      <trkpt lat="40.166713" lon="-3.745757"/>
      <trkpt lat="40.166713" lon="-3.745757"/>
      <trkpt lat="40.16681" lon="-3.745798"/>
      <trkpt lat="40.16681" lon="-3.745798"/>
      <trkpt lat="40.166908" lon="-3.745837"/>
      <trkpt lat="40.166908" lon="-3.745837"/>
      <trkpt lat="40.167007" lon="-3.745873"/>
      <trkpt lat="40.167007" lon="-3.745873"/>
      <trkpt lat="40.167102" lon="-3.74592"/>
      <trkpt lat="40.16715" lon="-3.745945"/>
      <trkpt lat="40.167195" lon="-3.745972"/>
      <trkpt lat="40.167195" lon="-3.745972"/>
      <trkpt lat="40.167283" lon="-3.74602"/>
      <trkpt lat="40.167283" lon="-3.74602"/>
      <trkpt lat="40.167368" lon="-3.746072"/>
      <trkpt lat="40.16741" lon="-3.746097"/>
      <trkpt lat="40.167453" lon="-3.746118"/>
      <trkpt lat="40.167453" lon="-3.746118"/>
      <trkpt lat="40.167535" lon="-3.746158"/>
      <trkpt lat="40.167535" lon="-3.746158"/>
      <trkpt lat="40.167608" lon="-3.746207"/>
      <trkpt lat="40.167608" lon="-3.746207"/>
      <trkpt lat="40.167672" lon="-3.746273"/>
      <trkpt lat="40.167672" lon="-3.746273"/>
      <trkpt lat="40.167742" lon="-3.74633"/>
      <trkpt lat="40.167742" lon="-3.74633"/>
      <trkpt lat="40.16782" lon="-3.746383"/>
      <trkpt lat="40.16782" lon="-3.746383"/>
      <trkpt lat="40.167908" lon="-3.746425"/>
      <trkpt lat="40.167908" lon="-3.746425"/>
      <trkpt lat="40.168002" lon="-3.746452"/>
      <trkpt lat="40.168053" lon="-3.746458"/>
      <trkpt lat="40.168053" lon="-3.746458"/>
      <trkpt lat="40.168163" lon="-3.746468"/>
      <trkpt lat="40.16822" lon="-3.74647"/>
      <trkpt lat="40.16822" lon="-3.74647"/>
      <trkpt lat="40.168333" lon="-3.746477"/>
      <trkpt lat="40.168333" lon="-3.746477"/>
      <trkpt lat="40.168453" lon="-3.746493"/>
      <trkpt lat="40.168453" lon="-3.746493"/>
      <trkpt lat="40.16857" lon="-3.746525"/>
      <trkpt lat="40.16857" lon="-3.746525"/>
      <trkpt lat="40.168685" lon="-3.746587"/>
      <trkpt lat="40.16874" lon="-3.746618"/>
      <trkpt lat="40.16874" lon="-3.746618"/>
      <trkpt lat="40.168845" lon="-3.746697"/>
      <trkpt lat="40.168895" lon="-3.746738"/>
      <trkpt lat="40.168895" lon="-3.746738"/>
      <trkpt lat="40.168992" lon="-3.746823"/>
      <trkpt lat="40.168992" lon="-3.746823"/>
      <trkpt lat="40.169085" lon="-3.74692"/>
      <trkpt lat="40.169085" lon="-3.74692"/>
      <trkpt lat="40.169173" lon="-3.74702"/>
      <trkpt lat="40.169173" lon="-3.74702"/>
      <trkpt lat="40.169262" lon="-3.747118"/>
      <trkpt lat="40.169262" lon="-3.747118"/>
      <trkpt lat="40.169343" lon="-3.747217"/>
      <trkpt lat="40.169343" lon="-3.747217"/>
      <trkpt lat="40.169422" lon="-3.747307"/>
      <trkpt lat="40.169422" lon="-3.747307"/>
      <trkpt lat="40.169503" lon="-3.747388"/>
      <trkpt lat="40.169503" lon="-3.747388"/>
      <trkpt lat="40.169588" lon="-3.74745"/>
      <trkpt lat="40.169588" lon="-3.74745"/>
      <trkpt lat="40.169677" lon="-3.747505"/>
      <trkpt lat="40.169677" lon="-3.747505"/>
      <trkpt lat="40.169767" lon="-3.74756"/>
      <trkpt lat="40.169767" lon="-3.74756"/>
      <trkpt lat="40.169858" lon="-3.747613"/>
      <trkpt lat="40.169858" lon="-3.747613"/>
      <trkpt lat="40.16995" lon="-3.747665"/>
      <trkpt lat="40.16995" lon="-3.747665"/>
      <trkpt lat="40.170042" lon="-3.74771"/>
      <trkpt lat="40.170042" lon="-3.74771"/>
      <trkpt lat="40.170137" lon="-3.747747"/>
      <trkpt lat="40.170137" lon="-3.747747"/>
      <trkpt lat="40.170232" lon="-3.74778"/>
      <trkpt lat="40.170232" lon="-3.74778"/>
      <trkpt lat="40.17033" lon="-3.747798"/>
      <trkpt lat="40.17033" lon="-3.747798"/>
      <trkpt lat="40.170428" lon="-3.747812"/>
      <trkpt lat="40.170428" lon="-3.747812"/>
      <trkpt lat="40.170528" lon="-3.747827"/>
      <trkpt lat="40.170528" lon="-3.747827"/>
      <trkpt lat="40.17063" lon="-3.747857"/>
      <trkpt lat="40.17063" lon="-3.747857"/>
      <trkpt lat="40.170725" lon="-3.747907"/>
      <trkpt lat="40.170725" lon="-3.747907"/>
      <trkpt lat="40.170808" lon="-3.747968"/>
      <trkpt lat="40.170808" lon="-3.747968"/>
      <trkpt lat="40.170893" lon="-3.748022"/>
      <trkpt lat="40.170893" lon="-3.748022"/>
      <trkpt lat="40.170988" lon="-3.748085"/>
      <trkpt lat="40.170988" lon="-3.748085"/>
      <trkpt lat="40.171075" lon="-3.748135"/>
      <trkpt lat="40.171075" lon="-3.748135"/>
      <trkpt lat="40.171187" lon="-3.748197"/>
      <trkpt lat="40.171235" lon="-3.748237"/>
      <trkpt lat="40.171235" lon="-3.748237"/>
      <trkpt lat="40.171333" lon="-3.74831"/>
      <trkpt lat="40.171383" lon="-3.748347"/>
      <trkpt lat="40.171383" lon="-3.748347"/>
      <trkpt lat="40.171485" lon="-3.74845"/>
      <trkpt lat="40.171485" lon="-3.74845"/>
      <trkpt lat="40.171572" lon="-3.748548"/>
      <trkpt lat="40.171572" lon="-3.748548"/>
      <trkpt lat="40.171668" lon="-3.748643"/>
      <trkpt lat="40.171668" lon="-3.748643"/>
      <trkpt lat="40.17177" lon="-3.748733"/>
      <trkpt lat="40.17177" lon="-3.748733"/>
      <trkpt lat="40.171877" lon="-3.748803"/>
      <trkpt lat="40.171877" lon="-3.748803"/>
      <trkpt lat="40.171978" lon="-3.748867"/>
      <trkpt lat="40.171978" lon="-3.748867"/>
      <trkpt lat="40.172075" lon="-3.748928"/>
      <trkpt lat="40.172075" lon="-3.748928"/>
      <trkpt lat="40.172167" lon="-3.748992"/>
      <trkpt lat="40.172167" lon="-3.748992"/>
      <trkpt lat="40.17225" lon="-3.749052"/>
      <trkpt lat="40.17225" lon="-3.749052"/>
      <trkpt lat="40.172325" lon="-3.74912"/>
      <trkpt lat="40.172325" lon="-3.74912"/>
      <trkpt lat="40.1724" lon="-3.749193"/>
      <trkpt lat="40.17244" lon="-3.749232"/>
      <trkpt lat="40.172478" lon="-3.749275"/>
      <trkpt lat="40.172478" lon="-3.749275"/>
      <trkpt lat="40.172553" lon="-3.749365"/>
      <trkpt lat="40.172553" lon="-3.749365"/>
      <trkpt lat="40.17263" lon="-3.749462"/>
      <trkpt lat="40.17263" lon="-3.749462"/>
      <trkpt lat="40.172705" lon="-3.749567"/>
      <trkpt lat="40.172705" lon="-3.749567"/>
      <trkpt lat="40.172772" lon="-3.749673"/>
      <trkpt lat="40.172772" lon="-3.749673"/>
      <trkpt lat="40.172835" lon="-3.749783"/>
      <trkpt lat="40.172835" lon="-3.749783"/>
      <trkpt lat="40.172897" lon="-3.749893"/>
      <trkpt lat="40.172897" lon="-3.749893"/>
      <trkpt lat="40.172958" lon="-3.75"/>
      <trkpt lat="40.172958" lon="-3.75"/>
      <trkpt lat="40.173015" lon="-3.750112"/>
      <trkpt lat="40.173015" lon="-3.750112"/>
      <trkpt lat="40.173075" lon="-3.750227"/>
      <trkpt lat="40.173075" lon="-3.750227"/>
      <trkpt lat="40.173145" lon="-3.750337"/>
      <trkpt lat="40.173145" lon="-3.750337"/>
      <trkpt lat="40.173222" lon="-3.750435"/>
      <trkpt lat="40.173222" lon="-3.750435"/>
      <trkpt lat="40.17331" lon="-3.750513"/>
      <trkpt lat="40.17331" lon="-3.750513"/>
      <trkpt lat="40.17339" lon="-3.750597"/>
      <trkpt lat="40.17339" lon="-3.750597"/>
      <trkpt lat="40.173463" lon="-3.750693"/>
      <trkpt lat="40.173463" lon="-3.750693"/>
      <trkpt lat="40.173533" lon="-3.75079"/>
      <trkpt lat="40.173533" lon="-3.75079"/>
      <trkpt lat="40.1736" lon="-3.750892"/>
      <trkpt lat="40.1736" lon="-3.750892"/>
      <trkpt lat="40.17367" lon="-3.750995"/>
      <trkpt lat="40.17367" lon="-3.750995"/>
      <trkpt lat="40.173745" lon="-3.751092"/>
      <trkpt lat="40.173745" lon="-3.751092"/>
      <trkpt lat="40.173835" lon="-3.751155"/>
      <trkpt lat="40.173835" lon="-3.751155"/>
      <trkpt lat="40.173937" lon="-3.751172"/>
      <trkpt lat="40.173937" lon="-3.751172"/>
      <trkpt lat="40.174038" lon="-3.751155"/>
      <trkpt lat="40.174038" lon="-3.751155"/>
      <trkpt lat="40.174142" lon="-3.751133"/>
      <trkpt lat="40.174142" lon="-3.751133"/>
      <trkpt lat="40.174243" lon="-3.751112"/>
      <trkpt lat="40.174243" lon="-3.751112"/>
      <trkpt lat="40.174347" lon="-3.751088"/>
      <trkpt lat="40.174347" lon="-3.751088"/>
      <trkpt lat="40.174448" lon="-3.751068"/>
      <trkpt lat="40.174448" lon="-3.751068"/>
      <trkpt lat="40.174548" lon="-3.751042"/>
      <trkpt lat="40.1746" lon="-3.751025"/>
      <trkpt lat="40.174648" lon="-3.751005"/>
      <trkpt lat="40.174648" lon="-3.751005"/>
      <trkpt lat="40.174745" lon="-3.750958"/>
      <trkpt lat="40.174745" lon="-3.750958"/>
      <trkpt lat="40.174843" lon="-3.750893"/>
      <trkpt lat="40.174843" lon="-3.750893"/>
      <trkpt lat="40.174938" lon="-3.750822"/>
      <trkpt lat="40.174938" lon="-3.750822"/>
      <trkpt lat="40.175035" lon="-3.750748"/>
      <trkpt lat="40.175035" lon="-3.750748"/>
      <trkpt lat="40.175132" lon="-3.750672"/>
      <trkpt lat="40.175132" lon="-3.750672"/>
      <trkpt lat="40.175232" lon="-3.750605"/>
      <trkpt lat="40.175232" lon="-3.750605"/>
      <trkpt lat="40.175335" lon="-3.750553"/>
      <trkpt lat="40.175335" lon="-3.750553"/>
      <trkpt lat="40.17543" lon="-3.75051"/>
      <trkpt lat="40.17543" lon="-3.75051"/>
      <trkpt lat="40.175513" lon="-3.750457"/>
      <trkpt lat="40.175513" lon="-3.750457"/>
      <trkpt lat="40.175592" lon="-3.750392"/>
      <trkpt lat="40.175592" lon="-3.750392"/>
      <trkpt lat="40.17567" lon="-3.750313"/>
      <trkpt lat="40.17567" lon="-3.750313"/>
      <trkpt lat="40.175747" lon="-3.750228"/>
      <trkpt lat="40.175747" lon="-3.750228"/>
      <trkpt lat="40.175823" lon="-3.750142"/>
      <trkpt lat="40.175823" lon="-3.750142"/>
      <trkpt lat="40.175893" lon="-3.750048"/>
      <trkpt lat="40.175893" lon="-3.750048"/>
      <trkpt lat="40.175963" lon="-3.749952"/>
      <trkpt lat="40.175963" lon="-3.749952"/>
      <trkpt lat="40.176028" lon="-3.749852"/>
      <trkpt lat="40.17606" lon="-3.7498"/>
      <trkpt lat="40.17606" lon="-3.7498"/>
      <trkpt lat="40.176123" lon="-3.749693"/>
      <trkpt lat="40.176157" lon="-3.74964"/>
      <trkpt lat="40.176157" lon="-3.74964"/>
      <trkpt lat="40.17622" lon="-3.749535"/>
      <trkpt lat="40.17622" lon="-3.749535"/>
      <trkpt lat="40.176287" lon="-3.749427"/>
      <trkpt lat="40.176287" lon="-3.749427"/>
      <trkpt lat="40.17636" lon="-3.749323"/>
      <trkpt lat="40.17636" lon="-3.749323"/>
      <trkpt lat="40.176438" lon="-3.74922"/>
      <trkpt lat="40.176438" lon="-3.74922"/>
      <trkpt lat="40.17652" lon="-3.749118"/>
      <trkpt lat="40.17652" lon="-3.749118"/>
      <trkpt lat="40.176603" lon="-3.749018"/>
      <trkpt lat="40.176603" lon="-3.749018"/>
      <trkpt lat="40.176693" lon="-3.74892"/>
      <trkpt lat="40.176693" lon="-3.74892"/>
      <trkpt lat="40.17678" lon="-3.748818"/>
      <trkpt lat="40.17678" lon="-3.748818"/>
      <trkpt lat="40.176862" lon="-3.748715"/>
      <trkpt lat="40.176862" lon="-3.748715"/>
      <trkpt lat="40.176943" lon="-3.748613"/>
      <trkpt lat="40.176943" lon="-3.748613"/>
      <trkpt lat="40.177017" lon="-3.748512"/>
      <trkpt lat="40.177017" lon="-3.748512"/>
      <trkpt lat="40.177087" lon="-3.748415"/>
      <trkpt lat="40.177087" lon="-3.748415"/>
      <trkpt lat="40.177157" lon="-3.748322"/>
      <trkpt lat="40.177157" lon="-3.748322"/>
      <trkpt lat="40.177225" lon="-3.748235"/>
      <trkpt lat="40.177225" lon="-3.748235"/>
      <trkpt lat="40.177293" lon="-3.748152"/>
      <trkpt lat="40.177293" lon="-3.748152"/>
      <trkpt lat="40.177367" lon="-3.748073"/>
      <trkpt lat="40.177367" lon="-3.748073"/>
      <trkpt lat="40.177443" lon="-3.748005"/>
      <trkpt lat="40.177443" lon="-3.748005"/>
      <trkpt lat="40.177522" lon="-3.747942"/>
      <trkpt lat="40.177522" lon="-3.747942"/>
      <trkpt lat="40.177603" lon="-3.747882"/>
      <trkpt lat="40.177603" lon="-3.747882"/>
      <trkpt lat="40.177685" lon="-3.747822"/>
      <trkpt lat="40.177685" lon="-3.747822"/>
      <trkpt lat="40.177768" lon="-3.747763"/>
      <trkpt lat="40.177768" lon="-3.747763"/>
      <trkpt lat="40.177852" lon="-3.7477"/>
      <trkpt lat="40.177852" lon="-3.7477"/>
      <trkpt lat="40.177938" lon="-3.747635"/>
      <trkpt lat="40.177938" lon="-3.747635"/>
      <trkpt lat="40.178023" lon="-3.747572"/>
      <trkpt lat="40.178023" lon="-3.747572"/>
      <trkpt lat="40.178108" lon="-3.747513"/>
      <trkpt lat="40.178108" lon="-3.747513"/>
      <trkpt lat="40.178192" lon="-3.747453"/>
      <trkpt lat="40.178192" lon="-3.747453"/>
      <trkpt lat="40.178275" lon="-3.747398"/>
      <trkpt lat="40.178275" lon="-3.747398"/>
      <trkpt lat="40.178357" lon="-3.747343"/>
      <trkpt lat="40.178357" lon="-3.747343"/>
      <trkpt lat="40.178438" lon="-3.747288"/>
      <trkpt lat="40.178438" lon="-3.747288"/>
      <trkpt lat="40.178522" lon="-3.747232"/>
      <trkpt lat="40.178522" lon="-3.747232"/>
      <trkpt lat="40.178607" lon="-3.747173"/>
      <trkpt lat="40.178607" lon="-3.747173"/>
      <trkpt lat="40.17869" lon="-3.747113"/>
      <trkpt lat="40.17869" lon="-3.747113"/>
      <trkpt lat="40.178778" lon="-3.74705"/>
      <trkpt lat="40.178778" lon="-3.74705"/>
      <trkpt lat="40.17887" lon="-3.746987"/>
      <trkpt lat="40.17887" lon="-3.746987"/>
      <trkpt lat="40.178963" lon="-3.74692"/>
      <trkpt lat="40.178963" lon="-3.74692"/>
      <trkpt lat="40.17906" lon="-3.746853"/>
      <trkpt lat="40.17906" lon="-3.746853"/>
      <trkpt lat="40.179158" lon="-3.74679"/>
      <trkpt lat="40.179158" lon="-3.74679"/>
      <trkpt lat="40.179255" lon="-3.746725"/>
      <trkpt lat="40.179255" lon="-3.746725"/>
      <trkpt lat="40.179348" lon="-3.746663"/>
      <trkpt lat="40.179348" lon="-3.746663"/>
      <trkpt lat="40.17944" lon="-3.7466"/>
      <trkpt lat="40.17944" lon="-3.7466"/>
      <trkpt lat="40.17953" lon="-3.746543"/>
      <trkpt lat="40.17953" lon="-3.746543"/>
      <trkpt lat="40.179622" lon="-3.746483"/>
      <trkpt lat="40.179622" lon="-3.746483"/>
      <trkpt lat="40.17971" lon="-3.746423"/>
      <trkpt lat="40.17971" lon="-3.746423"/>
      <trkpt lat="40.179797" lon="-3.746362"/>
      <trkpt lat="40.179797" lon="-3.746362"/>
      <trkpt lat="40.17988" lon="-3.746305"/>
      <trkpt lat="40.17988" lon="-3.746305"/>
      <trkpt lat="40.179967" lon="-3.746242"/>
      <trkpt lat="40.179967" lon="-3.746242"/>
      <trkpt lat="40.180052" lon="-3.746182"/>
      <trkpt lat="40.180052" lon="-3.746182"/>
      <trkpt lat="40.180135" lon="-3.74612"/>
      <trkpt lat="40.180135" lon="-3.74612"/>
      <trkpt lat="40.180215" lon="-3.746057"/>
      <trkpt lat="40.180215" lon="-3.746057"/>
      <trkpt lat="40.180297" lon="-3.745993"/>
      <trkpt lat="40.180297" lon="-3.745993"/>
      <trkpt lat="40.18038" lon="-3.745923"/>
      <trkpt lat="40.18038" lon="-3.745923"/>
      <trkpt lat="40.180467" lon="-3.745857"/>
      <trkpt lat="40.180467" lon="-3.745857"/>
      <trkpt lat="40.180552" lon="-3.745787"/>
      <trkpt lat="40.180593" lon="-3.745752"/>
      <trkpt lat="40.180638" lon="-3.745718"/>
      <trkpt lat="40.180638" lon="-3.745718"/>
      <trkpt lat="40.180733" lon="-3.745655"/>
      <trkpt lat="40.180733" lon="-3.745655"/>
      <trkpt lat="40.18082" lon="-3.745565"/>
      <trkpt lat="40.18082" lon="-3.745565"/>
      <trkpt lat="40.180908" lon="-3.7455"/>
      <trkpt lat="40.180908" lon="-3.7455"/>
      <trkpt lat="40.180997" lon="-3.745448"/>
      <trkpt lat="40.181037" lon="-3.745418"/>
      <trkpt lat="40.181037" lon="-3.745418"/>
      <trkpt lat="40.181113" lon="-3.745343"/>
      <trkpt lat="40.181158" lon="-3.745307"/>
      <trkpt lat="40.181158" lon="-3.745307"/>
      <trkpt lat="40.181257" lon="-3.745232"/>
      <trkpt lat="40.181257" lon="-3.745232"/>
      <trkpt lat="40.181357" lon="-3.745155"/>
      <trkpt lat="40.181357" lon="-3.745155"/>
      <trkpt lat="40.181458" lon="-3.745072"/>
      <trkpt lat="40.18151" lon="-3.745032"/>
      <trkpt lat="40.18151" lon="-3.745032"/>
      <trkpt lat="40.181613" lon="-3.744948"/>
      <trkpt lat="40.181613" lon="-3.744948"/>
      <trkpt lat="40.181713" lon="-3.744868"/>
      <trkpt lat="40.181763" lon="-3.744825"/>
      <trkpt lat="40.181813" lon="-3.744783"/>
      <trkpt lat="40.181813" lon="-3.744783"/>
      <trkpt lat="40.181908" lon="-3.744698"/>
      <trkpt lat="40.181955" lon="-3.744657"/>
      <trkpt lat="40.181955" lon="-3.744657"/>
      <trkpt lat="40.182045" lon="-3.744568"/>
      <trkpt lat="40.182045" lon="-3.744568"/>
      <trkpt lat="40.182132" lon="-3.74448"/>
      <trkpt lat="40.182132" lon="-3.74448"/>
      <trkpt lat="40.182212" lon="-3.744387"/>
      <trkpt lat="40.182212" lon="-3.744387"/>
      <trkpt lat="40.182287" lon="-3.744288"/>
      <trkpt lat="40.182287" lon="-3.744288"/>
      <trkpt lat="40.182362" lon="-3.744188"/>
      <trkpt lat="40.182362" lon="-3.744188"/>
      <trkpt lat="40.182435" lon="-3.744095"/>
      <trkpt lat="40.182435" lon="-3.744095"/>
      <trkpt lat="40.18251" lon="-3.744003"/>
      <trkpt lat="40.18251" lon="-3.744003"/>
      <trkpt lat="40.182588" lon="-3.74392"/>
      <trkpt lat="40.182625" lon="-3.743877"/>
      <trkpt lat="40.182625" lon="-3.743877"/>
      <trkpt lat="40.182698" lon="-3.743797"/>
      <trkpt lat="40.182733" lon="-3.743758"/>
      <trkpt lat="40.182733" lon="-3.743758"/>
      <trkpt lat="40.182802" lon="-3.743685"/>
      <trkpt lat="40.182802" lon="-3.743685"/>
      <trkpt lat="40.182867" lon="-3.743613"/>
      <trkpt lat="40.182867" lon="-3.743613"/>
      <trkpt lat="40.182932" lon="-3.743538"/>
      <trkpt lat="40.182932" lon="-3.743538"/>
      <trkpt lat="40.182995" lon="-3.743468"/>
      <trkpt lat="40.182995" lon="-3.743468"/>
      <trkpt lat="40.183058" lon="-3.7434"/>
      <trkpt lat="40.183058" lon="-3.7434"/>
      <trkpt lat="40.183122" lon="-3.743327"/>
      <trkpt lat="40.183122" lon="-3.743327"/>
      <trkpt lat="40.183183" lon="-3.743255"/>
      <trkpt lat="40.183217" lon="-3.743222"/>
      <trkpt lat="40.183217" lon="-3.743222"/>
      <trkpt lat="40.183278" lon="-3.743155"/>
      <trkpt lat="40.18331" lon="-3.743123"/>
      <trkpt lat="40.18331" lon="-3.743123"/>
      <trkpt lat="40.183375" lon="-3.743055"/>
      <trkpt lat="40.183375" lon="-3.743055"/>
      <trkpt lat="40.183435" lon="-3.742983"/>
      <trkpt lat="40.183463" lon="-3.742948"/>
      <trkpt lat="40.183488" lon="-3.742918"/>
      <trkpt lat="40.183488" lon="-3.742918"/>
      <trkpt lat="40.183532" lon="-3.742857"/>
      <trkpt lat="40.183532" lon="-3.742857"/>
      <trkpt lat="40.183568" lon="-3.742797"/>
      <trkpt lat="40.183568" lon="-3.742797"/>
      <trkpt lat="40.183608" lon="-3.742725"/>
      <trkpt lat="40.183608" lon="-3.742725"/>
      <trkpt lat="40.183663" lon="-3.742663"/>
      <trkpt lat="40.183663" lon="-3.742663"/>
      <trkpt lat="40.18373" lon="-3.742613"/>
      <trkpt lat="40.18373" lon="-3.742613"/>
      <trkpt lat="40.183795" lon="-3.742537"/>
      <trkpt lat="40.183795" lon="-3.742537"/>
      <trkpt lat="40.18387" lon="-3.742448"/>
      <trkpt lat="40.18387" lon="-3.742448"/>
      <trkpt lat="40.183948" lon="-3.742362"/>
      <trkpt lat="40.183948" lon="-3.742362"/>
      <trkpt lat="40.184035" lon="-3.742278"/>
      <trkpt lat="40.184035" lon="-3.742278"/>
      <trkpt lat="40.184127" lon="-3.742195"/>
      <trkpt lat="40.184127" lon="-3.742195"/>
      <trkpt lat="40.18422" lon="-3.742115"/>
      <trkpt lat="40.18422" lon="-3.742115"/>
      <trkpt lat="40.184305" lon="-3.742023"/>
      <trkpt lat="40.184305" lon="-3.742023"/>
      <trkpt lat="40.184385" lon="-3.741918"/>
      <trkpt lat="40.184385" lon="-3.741918"/>
      <trkpt lat="40.184468" lon="-3.741815"/>
      <trkpt lat="40.184468" lon="-3.741815"/>
      <trkpt lat="40.184552" lon="-3.741707"/>
      <trkpt lat="40.184552" lon="-3.741707"/>
      <trkpt lat="40.184642" lon="-3.741603"/>
      <trkpt lat="40.184642" lon="-3.741603"/>
      <trkpt lat="40.18473" lon="-3.741503"/>
      <trkpt lat="40.18473" lon="-3.741503"/>
      <trkpt lat="40.184815" lon="-3.741403"/>
      <trkpt lat="40.184815" lon="-3.741403"/>
      <trkpt lat="40.184902" lon="-3.741305"/>
      <trkpt lat="40.184902" lon="-3.741305"/>
      <trkpt lat="40.184988" lon="-3.741215"/>
      <trkpt lat="40.184988" lon="-3.741215"/>
      <trkpt lat="40.185073" lon="-3.741127"/>
      <trkpt lat="40.185073" lon="-3.741127"/>
      <trkpt lat="40.185157" lon="-3.741047"/>
      <trkpt lat="40.185157" lon="-3.741047"/>
      <trkpt lat="40.185238" lon="-3.740972"/>
      <trkpt lat="40.185238" lon="-3.740972"/>
      <trkpt lat="40.185322" lon="-3.740902"/>
      <trkpt lat="40.185322" lon="-3.740902"/>
      <trkpt lat="40.185407" lon="-3.74084"/>
      <trkpt lat="40.185407" lon="-3.74084"/>
      <trkpt lat="40.185493" lon="-3.740782"/>
      <trkpt lat="40.185538" lon="-3.740755"/>
      <trkpt lat="40.18558" lon="-3.74073"/>
      <trkpt lat="40.18558" lon="-3.74073"/>
      <trkpt lat="40.185665" lon="-3.740673"/>
      <trkpt lat="40.185665" lon="-3.740673"/>
      <trkpt lat="40.185747" lon="-3.740613"/>
      <trkpt lat="40.185747" lon="-3.740613"/>
      <trkpt lat="40.185827" lon="-3.740552"/>
      <trkpt lat="40.185827" lon="-3.740552"/>
      <trkpt lat="40.185907" lon="-3.740487"/>
      <trkpt lat="40.185907" lon="-3.740487"/>
      <trkpt lat="40.185988" lon="-3.740422"/>
      <trkpt lat="40.185988" lon="-3.740422"/>
      <trkpt lat="40.18607" lon="-3.74036"/>
      <trkpt lat="40.18607" lon="-3.74036"/>
      <trkpt lat="40.186153" lon="-3.740303"/>
      <trkpt lat="40.186153" lon="-3.740303"/>
      <trkpt lat="40.186235" lon="-3.740253"/>
      <trkpt lat="40.186235" lon="-3.740253"/>
      <trkpt lat="40.18632" lon="-3.740215"/>
      <trkpt lat="40.18632" lon="-3.740215"/>
      <trkpt lat="40.18641" lon="-3.740188"/>
      <trkpt lat="40.18641" lon="-3.740188"/>
      <trkpt lat="40.1865" lon="-3.74016"/>
      <trkpt lat="40.1865" lon="-3.74016"/>
      <trkpt lat="40.186595" lon="-3.740133"/>
      <trkpt lat="40.186595" lon="-3.740133"/>
      <trkpt lat="40.186693" lon="-3.740105"/>
      <trkpt lat="40.186693" lon="-3.740105"/>
      <trkpt lat="40.186797" lon="-3.740078"/>
      <trkpt lat="40.186797" lon="-3.740078"/>
      <trkpt lat="40.186898" lon="-3.740047"/>
      <trkpt lat="40.186898" lon="-3.740047"/>
      <trkpt lat="40.187003" lon="-3.740018"/>
      <trkpt lat="40.187003" lon="-3.740018"/>
      <trkpt lat="40.187107" lon="-3.739983"/>
      <trkpt lat="40.187107" lon="-3.739983"/>
      <trkpt lat="40.187208" lon="-3.739958"/>
      <trkpt lat="40.187208" lon="-3.739958"/>
      <trkpt lat="40.187315" lon="-3.739942"/>
      <trkpt lat="40.187315" lon="-3.739942"/>
      <trkpt lat="40.187423" lon="-3.73993"/>
      <trkpt lat="40.187423" lon="-3.73993"/>
      <trkpt lat="40.18753" lon="-3.73993"/>
      <trkpt lat="40.18753" lon="-3.73993"/>
      <trkpt lat="40.187635" lon="-3.739932"/>
      <trkpt lat="40.187635" lon="-3.739932"/>
      <trkpt lat="40.18774" lon="-3.739938"/>
      <trkpt lat="40.18774" lon="-3.739938"/>
      <trkpt lat="40.187845" lon="-3.739945"/>
      <trkpt lat="40.187845" lon="-3.739945"/>
      <trkpt lat="40.187945" lon="-3.739953"/>
      <trkpt lat="40.187995" lon="-3.739958"/>
      <trkpt lat="40.187995" lon="-3.739958"/>
      <trkpt lat="40.188092" lon="-3.73997"/>
      <trkpt lat="40.18814" lon="-3.739973"/>
      <trkpt lat="40.18814" lon="-3.739973"/>
      <trkpt lat="40.188235" lon="-3.739983"/>
      <trkpt lat="40.188235" lon="-3.739983"/>
      <trkpt lat="40.18833" lon="-3.739998"/>
      <trkpt lat="40.18833" lon="-3.739998"/>
      <trkpt lat="40.188425" lon="-3.740008"/>
      <trkpt lat="40.188425" lon="-3.740008"/>
      <trkpt lat="40.18852" lon="-3.740015"/>
      <trkpt lat="40.18852" lon="-3.740015"/>
      <trkpt lat="40.188617" lon="-3.740012"/>
      <trkpt lat="40.188617" lon="-3.740012"/>
      <trkpt lat="40.188713" lon="-3.74"/>
      <trkpt lat="40.188713" lon="-3.74"/>
      <trkpt lat="40.18881" lon="-3.739977"/>
      <trkpt lat="40.188858" lon="-3.73996"/>
      <trkpt lat="40.188858" lon="-3.73996"/>
      <trkpt lat="40.188952" lon="-3.739913"/>
      <trkpt lat="40.188995" lon="-3.739883"/>
      <trkpt lat="40.188995" lon="-3.739883"/>
      <trkpt lat="40.18908" lon="-3.739807"/>
      <trkpt lat="40.18908" lon="-3.739807"/>
      <trkpt lat="40.189157" lon="-3.739718"/>
      <trkpt lat="40.189157" lon="-3.739718"/>
      <trkpt lat="40.189227" lon="-3.739622"/>
      <trkpt lat="40.189227" lon="-3.739622"/>
      <trkpt lat="40.189293" lon="-3.739522"/>
      <trkpt lat="40.189293" lon="-3.739522"/>
      <trkpt lat="40.189355" lon="-3.739423"/>
      <trkpt lat="40.189355" lon="-3.739423"/>
      <trkpt lat="40.189412" lon="-3.739322"/>
      <trkpt lat="40.189412" lon="-3.739322"/>
      <trkpt lat="40.18946" lon="-3.739213"/>
      <trkpt lat="40.18946" lon="-3.739213"/>
      <trkpt lat="40.189508" lon="-3.739103"/>
      <trkpt lat="40.189508" lon="-3.739103"/>
      <trkpt lat="40.189562" lon="-3.739"/>
      <trkpt lat="40.189562" lon="-3.739"/>
      <trkpt lat="40.189605" lon="-3.738888"/>
      <trkpt lat="40.189627" lon="-3.738832"/>
      <trkpt lat="40.189627" lon="-3.738832"/>
      <trkpt lat="40.189675" lon="-3.738723"/>
      <trkpt lat="40.189702" lon="-3.73867"/>
      <trkpt lat="40.189702" lon="-3.73867"/>
      <trkpt lat="40.189753" lon="-3.738562"/>
      <trkpt lat="40.189753" lon="-3.738562"/>
      <trkpt lat="40.189802" lon="-3.738448"/>
      <trkpt lat="40.189802" lon="-3.738448"/>
      <trkpt lat="40.189853" lon="-3.738333"/>
      <trkpt lat="40.189853" lon="-3.738333"/>
      <trkpt lat="40.189902" lon="-3.738222"/>
      <trkpt lat="40.189902" lon="-3.738222"/>
      <trkpt lat="40.189945" lon="-3.738113"/>
      <trkpt lat="40.18997" lon="-3.738063"/>
      <trkpt lat="40.190002" lon="-3.738023"/>
      <trkpt lat="40.190002" lon="-3.738023"/>
      <trkpt lat="40.190082" lon="-3.737997"/>
      <trkpt lat="40.190082" lon="-3.737997"/>
      <trkpt lat="40.190162" lon="-3.73805"/>
      <trkpt lat="40.190162" lon="-3.73805"/>
      <trkpt lat="40.190235" lon="-3.738133"/>
      <trkpt lat="40.190235" lon="-3.738133"/>
      <trkpt lat="40.190303" lon="-3.738223"/>
      <trkpt lat="40.190303" lon="-3.738223"/>
      <trkpt lat="40.190373" lon="-3.738308"/>
      <trkpt lat="40.190373" lon="-3.738308"/>
      <trkpt lat="40.190452" lon="-3.738392"/>
      <trkpt lat="40.190452" lon="-3.738392"/>
      <trkpt lat="40.190525" lon="-3.738483"/>
      <trkpt lat="40.190525" lon="-3.738483"/>
      <trkpt lat="40.190598" lon="-3.738577"/>
      <trkpt lat="40.190637" lon="-3.738627"/>
      <trkpt lat="40.190673" lon="-3.738677"/>
      <trkpt lat="40.190673" lon="-3.738677"/>
      <trkpt lat="40.190752" lon="-3.73878"/>
      <trkpt lat="40.190752" lon="-3.73878"/>
      <trkpt lat="40.190825" lon="-3.738892"/>
      <trkpt lat="40.190825" lon="-3.738892"/>
      <trkpt lat="40.190898" lon="-3.739005"/>
      <trkpt lat="40.190898" lon="-3.739005"/>
      <trkpt lat="40.190968" lon="-3.739118"/>
      <trkpt lat="40.190968" lon="-3.739118"/>
      <trkpt lat="40.191037" lon="-3.739235"/>
      <trkpt lat="40.191037" lon="-3.739235"/>
      <trkpt lat="40.191103" lon="-3.73935"/>
      <trkpt lat="40.191103" lon="-3.73935"/>
      <trkpt lat="40.191172" lon="-3.739462"/>
      <trkpt lat="40.191172" lon="-3.739462"/>
      <trkpt lat="40.191238" lon="-3.739573"/>
      <trkpt lat="40.191238" lon="-3.739573"/>
      <trkpt lat="40.191298" lon="-3.73969"/>
      <trkpt lat="40.191298" lon="-3.73969"/>
      <trkpt lat="40.19135" lon="-3.73981"/>
      <trkpt lat="40.19135" lon="-3.73981"/>
      <trkpt lat="40.191397" lon="-3.73993"/>
      <trkpt lat="40.191397" lon="-3.73993"/>
      <trkpt lat="40.191437" lon="-3.740052"/>
      <trkpt lat="40.191437" lon="-3.740052"/>
      <trkpt lat="40.191473" lon="-3.740177"/>
      <trkpt lat="40.191492" lon="-3.740238"/>
      <trkpt lat="40.191492" lon="-3.740238"/>
      <trkpt lat="40.191533" lon="-3.740355"/>
      <trkpt lat="40.191555" lon="-3.74041"/>
      <trkpt lat="40.191555" lon="-3.74041"/>
      <trkpt lat="40.191603" lon="-3.74051"/>
      <trkpt lat="40.191603" lon="-3.74051"/>
      <trkpt lat="40.191657" lon="-3.740605"/>
      <trkpt lat="40.191657" lon="-3.740605"/>
      <trkpt lat="40.191712" lon="-3.74069"/>
      <trkpt lat="40.191712" lon="-3.74069"/>
      <trkpt lat="40.191767" lon="-3.740767"/>
      <trkpt lat="40.191767" lon="-3.740767"/>
      <trkpt lat="40.191822" lon="-3.740842"/>
      <trkpt lat="40.191822" lon="-3.740842"/>
      <trkpt lat="40.191875" lon="-3.740908"/>
      <trkpt lat="40.191875" lon="-3.740908"/>
      <trkpt lat="40.191932" lon="-3.740973"/>
      <trkpt lat="40.191932" lon="-3.740973"/>
      <trkpt lat="40.191987" lon="-3.741033"/>
      <trkpt lat="40.191987" lon="-3.741033"/>
      <trkpt lat="40.192038" lon="-3.741093"/>
      <trkpt lat="40.192038" lon="-3.741093"/>
      <trkpt lat="40.192087" lon="-3.741153"/>
      <trkpt lat="40.192113" lon="-3.741182"/>
      <trkpt lat="40.192113" lon="-3.741182"/>
      <trkpt lat="40.192165" lon="-3.74124"/>
      <trkpt lat="40.19219" lon="-3.741267"/>
      <trkpt lat="40.19219" lon="-3.741267"/>
      <trkpt lat="40.192238" lon="-3.74132"/>
      <trkpt lat="40.192238" lon="-3.74132"/>
      <trkpt lat="40.192285" lon="-3.74137"/>
      <trkpt lat="40.192308" lon="-3.741395"/>
      <trkpt lat="40.192332" lon="-3.741418"/>
      <trkpt lat="40.192332" lon="-3.741418"/>
      <trkpt lat="40.192378" lon="-3.741467"/>
      <trkpt lat="40.192378" lon="-3.741467"/>
      <trkpt lat="40.192427" lon="-3.741515"/>
      <trkpt lat="40.192427" lon="-3.741515"/>
      <trkpt lat="40.192475" lon="-3.741562"/>
      <trkpt lat="40.1925" lon="-3.741585"/>
      <trkpt lat="40.1925" lon="-3.741585"/>
      <trkpt lat="40.192548" lon="-3.741633"/>
      <trkpt lat="40.192548" lon="-3.741633"/>
      <trkpt lat="40.192597" lon="-3.741678"/>
      <trkpt lat="40.192622" lon="-3.741702"/>
      <trkpt lat="40.192622" lon="-3.741702"/>
      <trkpt lat="40.192673" lon="-3.741743"/>
      <trkpt lat="40.192673" lon="-3.741743"/>
      <trkpt lat="40.192728" lon="-3.741777"/>
      <trkpt lat="40.192757" lon="-3.741788"/>
      <trkpt lat="40.192787" lon="-3.741795"/>
      <trkpt lat="40.192787" lon="-3.741795"/>
      <trkpt lat="40.192848" lon="-3.74179"/>
      <trkpt lat="40.192848" lon="-3.74179"/>
      <trkpt lat="40.192902" lon="-3.741758"/>
      <trkpt lat="40.192902" lon="-3.741758"/>
      <trkpt lat="40.19295" lon="-3.741715"/>
      <trkpt lat="40.19295" lon="-3.741715"/>
      <trkpt lat="40.192988" lon="-3.741665"/>
      <trkpt lat="40.192988" lon="-3.741665"/>
      <trkpt lat="40.193025" lon="-3.741607"/>
      <trkpt lat="40.193025" lon="-3.741607"/>
      <trkpt lat="40.19306" lon="-3.741545"/>
      <trkpt lat="40.19306" lon="-3.741545"/>
      <trkpt lat="40.193095" lon="-3.741492"/>
      <trkpt lat="40.193095" lon="-3.741492"/>
      <trkpt lat="40.19313" lon="-3.741442"/>
      <trkpt lat="40.193147" lon="-3.741418"/>
      <trkpt lat="40.193147" lon="-3.741418"/>
      <trkpt lat="40.193183" lon="-3.741365"/>
      <trkpt lat="40.193183" lon="-3.741365"/>
      <trkpt lat="40.193218" lon="-3.741313"/>
      <trkpt lat="40.193218" lon="-3.741313"/>
      <trkpt lat="40.193255" lon="-3.741265"/>
      <trkpt lat="40.193272" lon="-3.74124"/>
      <trkpt lat="40.193272" lon="-3.74124"/>
      <trkpt lat="40.193303" lon="-3.741193"/>
      <trkpt lat="40.193303" lon="-3.741193"/>
      <trkpt lat="40.193337" lon="-3.74115"/>
      <trkpt lat="40.193337" lon="-3.74115"/>
      <trkpt lat="40.193372" lon="-3.741105"/>
      <trkpt lat="40.193372" lon="-3.741105"/>
      <trkpt lat="40.193405" lon="-3.741057"/>
      <trkpt lat="40.193405" lon="-3.741057"/>
      <trkpt lat="40.193433" lon="-3.74101"/>
      <trkpt lat="40.193433" lon="-3.74101"/>
      <trkpt lat="40.19346" lon="-3.740972"/>
      <trkpt lat="40.19346" lon="-3.740972"/>
      <trkpt lat="40.193497" lon="-3.740923"/>
      <trkpt lat="40.193497" lon="-3.740923"/>
      <trkpt lat="40.193547" lon="-3.740873"/>
      <trkpt lat="40.193547" lon="-3.740873"/>
      <trkpt lat="40.193602" lon="-3.740825"/>
      <trkpt lat="40.193602" lon="-3.740825"/>
      <trkpt lat="40.193662" lon="-3.74076"/>
      <trkpt lat="40.193662" lon="-3.74076"/>
      <trkpt lat="40.19373" lon="-3.740692"/>
      <trkpt lat="40.19373" lon="-3.740692"/>
      <trkpt lat="40.193803" lon="-3.740618"/>
      <trkpt lat="40.193803" lon="-3.740618"/>
      <trkpt lat="40.193883" lon="-3.740527"/>
      <trkpt lat="40.193883" lon="-3.740527"/>
      <trkpt lat="40.193973" lon="-3.740425"/>
      <trkpt lat="40.193973" lon="-3.740425"/>
      <trkpt lat="40.194073" lon="-3.740317"/>
      <trkpt lat="40.194073" lon="-3.740317"/>
      <trkpt lat="40.194177" lon="-3.740207"/>
      <trkpt lat="40.194177" lon="-3.740207"/>
      <trkpt lat="40.194287" lon="-3.740097"/>
      <trkpt lat="40.194287" lon="-3.740097"/>
      <trkpt lat="40.194397" lon="-3.739988"/>
      <trkpt lat="40.194397" lon="-3.739988"/>
      <trkpt lat="40.194503" lon="-3.739878"/>
      <trkpt lat="40.194503" lon="-3.739878"/>
      <trkpt lat="40.19461" lon="-3.739772"/>
      <trkpt lat="40.19461" lon="-3.739772"/>
      <trkpt lat="40.194717" lon="-3.739668"/>
      <trkpt lat="40.194717" lon="-3.739668"/>
      <trkpt lat="40.194827" lon="-3.739572"/>
      <trkpt lat="40.194827" lon="-3.739572"/>
      <trkpt lat="40.194935" lon="-3.739478"/>
      <trkpt lat="40.194935" lon="-3.739478"/>
      <trkpt lat="40.195038" lon="-3.739383"/>
      <trkpt lat="40.195038" lon="-3.739383"/>
      <trkpt lat="40.195132" lon="-3.739283"/>
      <trkpt lat="40.195132" lon="-3.739283"/>
      <trkpt lat="40.195213" lon="-3.739182"/>
      <trkpt lat="40.195213" lon="-3.739182"/>
      <trkpt lat="40.195292" lon="-3.739083"/>
      <trkpt lat="40.195292" lon="-3.739083"/>
      <trkpt lat="40.195367" lon="-3.738987"/>
      <trkpt lat="40.195367" lon="-3.738987"/>
      <trkpt lat="40.195437" lon="-3.7389"/>
      <trkpt lat="40.195437" lon="-3.7389"/>
      <trkpt lat="40.195493" lon="-3.738805"/>
      <trkpt lat="40.195493" lon="-3.738805"/>
      <trkpt lat="40.195558" lon="-3.738707"/>
      <trkpt lat="40.195558" lon="-3.738707"/>
      <trkpt lat="40.195615" lon="-3.738598"/>
      <trkpt lat="40.195615" lon="-3.738598"/>
      <trkpt lat="40.195668" lon="-3.73849"/>
      <trkpt lat="40.195668" lon="-3.73849"/>
      <trkpt lat="40.195712" lon="-3.738382"/>
      <trkpt lat="40.195712" lon="-3.738382"/>
      <trkpt lat="40.195763" lon="-3.738272"/>
      <trkpt lat="40.195763" lon="-3.738272"/>
      <trkpt lat="40.195825" lon="-3.738172"/>
      <trkpt lat="40.195825" lon="-3.738172"/>
      <trkpt lat="40.195892" lon="-3.738068"/>
      <trkpt lat="40.195892" lon="-3.738068"/>
      <trkpt lat="40.195963" lon="-3.737973"/>
      <trkpt lat="40.195963" lon="-3.737973"/>
      <trkpt lat="40.196045" lon="-3.737893"/>
      <trkpt lat="40.196045" lon="-3.737893"/>
      <trkpt lat="40.19614" lon="-3.737837"/>
      <trkpt lat="40.19614" lon="-3.737837"/>
      <trkpt lat="40.19624" lon="-3.737793"/>
      <trkpt lat="40.19624" lon="-3.737793"/>
      <trkpt lat="40.196337" lon="-3.737732"/>
      <trkpt lat="40.196337" lon="-3.737732"/>
      <trkpt lat="40.196425" lon="-3.737657"/>
      <trkpt lat="40.196425" lon="-3.737657"/>
      <trkpt lat="40.196505" lon="-3.73757"/>
      <trkpt lat="40.196505" lon="-3.73757"/>
      <trkpt lat="40.196583" lon="-3.737485"/>
      <trkpt lat="40.196583" lon="-3.737485"/>
      <trkpt lat="40.196652" lon="-3.737397"/>
      <trkpt lat="40.196652" lon="-3.737397"/>
      <trkpt lat="40.196715" lon="-3.737307"/>
      <trkpt lat="40.196715" lon="-3.737307"/>
      <trkpt lat="40.196775" lon="-3.737205"/>
      <trkpt lat="40.196775" lon="-3.737205"/>
      <trkpt lat="40.196835" lon="-3.737098"/>
      <trkpt lat="40.196835" lon="-3.737098"/>
      <trkpt lat="40.196892" lon="-3.736987"/>
      <trkpt lat="40.196892" lon="-3.736987"/>
      <trkpt lat="40.19694" lon="-3.736868"/>
      <trkpt lat="40.19694" lon="-3.736868"/>
      <trkpt lat="40.19698" lon="-3.736748"/>
      <trkpt lat="40.19698" lon="-3.736748"/>
      <trkpt lat="40.197017" lon="-3.736625"/>
      <trkpt lat="40.197017" lon="-3.736625"/>
      <trkpt lat="40.197042" lon="-3.7365"/>
      <trkpt lat="40.197042" lon="-3.7365"/>
      <trkpt lat="40.197068" lon="-3.736375"/>
      <trkpt lat="40.19708" lon="-3.736313"/>
      <trkpt lat="40.19708" lon="-3.736313"/>
      <trkpt lat="40.197098" lon="-3.736188"/>
      <trkpt lat="40.19711" lon="-3.736127"/>
      <trkpt lat="40.19711" lon="-3.736127"/>
      <trkpt lat="40.19714" lon="-3.736002"/>
      <trkpt lat="40.19714" lon="-3.736002"/>
      <trkpt lat="40.197177" lon="-3.73588"/>
      <trkpt lat="40.197177" lon="-3.73588"/>
      <trkpt lat="40.197215" lon="-3.735762"/>
      <trkpt lat="40.197215" lon="-3.735762"/>
      <trkpt lat="40.197255" lon="-3.735645"/>
      <trkpt lat="40.197255" lon="-3.735645"/>
      <trkpt lat="40.197293" lon="-3.735528"/>
      <trkpt lat="40.197293" lon="-3.735528"/>
      <trkpt lat="40.197332" lon="-3.73541"/>
      <trkpt lat="40.197332" lon="-3.73541"/>
      <trkpt lat="40.19737" lon="-3.735292"/>
      <trkpt lat="40.19739" lon="-3.735233"/>
      <trkpt lat="40.19739" lon="-3.735233"/>
      <trkpt lat="40.197427" lon="-3.735113"/>
      <trkpt lat="40.197447" lon="-3.735055"/>
      <trkpt lat="40.197447" lon="-3.735055"/>
      <trkpt lat="40.197483" lon="-3.73494"/>
      <trkpt lat="40.197483" lon="-3.73494"/>
      <trkpt lat="40.197523" lon="-3.734822"/>
      <trkpt lat="40.197523" lon="-3.734822"/>
      <trkpt lat="40.19756" lon="-3.734705"/>
      <trkpt lat="40.19756" lon="-3.734705"/>
      <trkpt lat="40.197593" lon="-3.734592"/>
      <trkpt lat="40.197593" lon="-3.734592"/>
      <trkpt lat="40.197627" lon="-3.73447"/>
      <trkpt lat="40.197627" lon="-3.73447"/>
      <trkpt lat="40.197663" lon="-3.734343"/>
      <trkpt lat="40.197663" lon="-3.734343"/>
      <trkpt lat="40.197702" lon="-3.734213"/>
      <trkpt lat="40.197702" lon="-3.734213"/>
      <trkpt lat="40.197743" lon="-3.734078"/>
      <trkpt lat="40.197743" lon="-3.734078"/>
      <trkpt lat="40.197787" lon="-3.733938"/>
      <trkpt lat="40.197787" lon="-3.733938"/>
      <trkpt lat="40.197838" lon="-3.7338"/>
      <trkpt lat="40.197838" lon="-3.7338"/>
      <trkpt lat="40.19789" lon="-3.733665"/>
      <trkpt lat="40.19789" lon="-3.733665"/>
      <trkpt lat="40.197942" lon="-3.73353"/>
      <trkpt lat="40.197942" lon="-3.73353"/>
      <trkpt lat="40.19799" lon="-3.733395"/>
      <trkpt lat="40.19799" lon="-3.733395"/>
      <trkpt lat="40.198037" lon="-3.733263"/>
      <trkpt lat="40.198037" lon="-3.733263"/>
      <trkpt lat="40.198075" lon="-3.73313"/>
      <trkpt lat="40.198075" lon="-3.73313"/>
      <trkpt lat="40.19811" lon="-3.732997"/>
      <trkpt lat="40.19811" lon="-3.732997"/>
      <trkpt lat="40.198142" lon="-3.732875"/>
      <trkpt lat="40.198142" lon="-3.732875"/>
      <trkpt lat="40.198172" lon="-3.732763"/>
      <trkpt lat="40.198172" lon="-3.732763"/>
      <trkpt lat="40.198213" lon="-3.732647"/>
      <trkpt lat="40.198232" lon="-3.732588"/>
      <trkpt lat="40.198232" lon="-3.732588"/>
      <trkpt lat="40.198263" lon="-3.732463"/>
      <trkpt lat="40.198278" lon="-3.732402"/>
      <trkpt lat="40.198278" lon="-3.732402"/>
      <trkpt lat="40.198303" lon="-3.732275"/>
      <trkpt lat="40.198303" lon="-3.732275"/>
      <trkpt lat="40.198327" lon="-3.732148"/>
      <trkpt lat="40.198327" lon="-3.732148"/>
      <trkpt lat="40.19835" lon="-3.732022"/>
      <trkpt lat="40.19835" lon="-3.732022"/>
      <trkpt lat="40.198372" lon="-3.731898"/>
      <trkpt lat="40.198372" lon="-3.731898"/>
      <trkpt lat="40.198393" lon="-3.731778"/>
      <trkpt lat="40.198393" lon="-3.731778"/>
      <trkpt lat="40.198413" lon="-3.73166"/>
      <trkpt lat="40.198413" lon="-3.73166"/>
      <trkpt lat="40.198433" lon="-3.73154"/>
      <trkpt lat="40.198433" lon="-3.73154"/>
      <trkpt lat="40.198452" lon="-3.731422"/>
      <trkpt lat="40.198458" lon="-3.731365"/>
      <trkpt lat="40.198468" lon="-3.731308"/>
      <trkpt lat="40.198468" lon="-3.731308"/>
      <trkpt lat="40.198487" lon="-3.731197"/>
      <trkpt lat="40.198487" lon="-3.731197"/>
      <trkpt lat="40.198503" lon="-3.731083"/>
      <trkpt lat="40.198512" lon="-3.731027"/>
      <trkpt lat="40.198518" lon="-3.730972"/>
      <trkpt lat="40.198518" lon="-3.730972"/>
      <trkpt lat="40.198532" lon="-3.730863"/>
      <trkpt lat="40.198532" lon="-3.730863"/>
      <trkpt lat="40.198552" lon="-3.730757"/>
      <trkpt lat="40.198552" lon="-3.730757"/>
      <trkpt lat="40.19859" lon="-3.730662"/>
      <trkpt lat="40.19859" lon="-3.730662"/>
      <trkpt lat="40.198655" lon="-3.73061"/>
      <trkpt lat="40.198655" lon="-3.73061"/>
      <trkpt lat="40.198732" lon="-3.730575"/>
      <trkpt lat="40.198732" lon="-3.730575"/>
      <trkpt lat="40.198808" lon="-3.730542"/>
      <trkpt lat="40.198808" lon="-3.730542"/>
      <trkpt lat="40.198887" lon="-3.730513"/>
      <trkpt lat="40.198925" lon="-3.7305"/>
      <trkpt lat="40.198925" lon="-3.7305"/>
      <trkpt lat="40.199003" lon="-3.730468"/>
      <trkpt lat="40.199043" lon="-3.730452"/>
      <trkpt lat="40.199043" lon="-3.730452"/>
      <trkpt lat="40.199122" lon="-3.73042"/>
      <trkpt lat="40.199122" lon="-3.73042"/>
      <trkpt lat="40.199198" lon="-3.730385"/>
      <trkpt lat="40.199198" lon="-3.730385"/>
      <trkpt lat="40.19927" lon="-3.730347"/>
      <trkpt lat="40.19927" lon="-3.730347"/>
      <trkpt lat="40.19934" lon="-3.7303"/>
      <trkpt lat="40.19934" lon="-3.7303"/>
      <trkpt lat="40.199403" lon="-3.730248"/>
      <trkpt lat="40.199403" lon="-3.730248"/>
      <trkpt lat="40.199468" lon="-3.730195"/>
      <trkpt lat="40.199468" lon="-3.730195"/>
      <trkpt lat="40.199537" lon="-3.730143"/>
      <trkpt lat="40.199537" lon="-3.730143"/>
      <trkpt lat="40.199603" lon="-3.730088"/>
      <trkpt lat="40.199603" lon="-3.730088"/>
      <trkpt lat="40.199668" lon="-3.730037"/>
      <trkpt lat="40.199668" lon="-3.730037"/>
      <trkpt lat="40.199735" lon="-3.729988"/>
      <trkpt lat="40.199735" lon="-3.729988"/>
      <trkpt lat="40.199807" lon="-3.729945"/>
      <trkpt lat="40.199807" lon="-3.729945"/>
      <trkpt lat="40.19988" lon="-3.729908"/>
      <trkpt lat="40.19988" lon="-3.729908"/>
      <trkpt lat="40.199953" lon="-3.729878"/>
      <trkpt lat="40.199953" lon="-3.729878"/>
      <trkpt lat="40.200027" lon="-3.72985"/>
      <trkpt lat="40.200027" lon="-3.72985"/>
      <trkpt lat="40.200102" lon="-3.729825"/>
      <trkpt lat="40.200102" lon="-3.729825"/>
      <trkpt lat="40.200173" lon="-3.729795"/>
      <trkpt lat="40.200173" lon="-3.729795"/>
      <trkpt lat="40.200245" lon="-3.729763"/>
      <trkpt lat="40.200282" lon="-3.729752"/>
      <trkpt lat="40.20032" lon="-3.729738"/>
      <trkpt lat="40.20032" lon="-3.729738"/>
      <trkpt lat="40.200395" lon="-3.72971"/>
      <trkpt lat="40.200395" lon="-3.72971"/>
      <trkpt lat="40.200472" lon="-3.729683"/>
      <trkpt lat="40.20051" lon="-3.729673"/>
      <trkpt lat="40.200548" lon="-3.729662"/>
      <trkpt lat="40.200548" lon="-3.729662"/>
      <trkpt lat="40.200628" lon="-3.729642"/>
      <trkpt lat="40.200628" lon="-3.729642"/>
      <trkpt lat="40.200708" lon="-3.729623"/>
      <trkpt lat="40.200708" lon="-3.729623"/>
      <trkpt lat="40.200792" lon="-3.729603"/>
      <trkpt lat="40.200792" lon="-3.729603"/>
      <trkpt lat="40.20087" lon="-3.729582"/>
      <trkpt lat="40.20087" lon="-3.729582"/>
      <trkpt lat="40.200948" lon="-3.729568"/>
      <trkpt lat="40.200948" lon="-3.729568"/>
      <trkpt lat="40.201028" lon="-3.729553"/>
      <trkpt lat="40.201028" lon="-3.729553"/>
      <trkpt lat="40.201113" lon="-3.729535"/>
      <trkpt lat="40.201113" lon="-3.729535"/>
      <trkpt lat="40.201198" lon="-3.729523"/>
      <trkpt lat="40.201198" lon="-3.729523"/>
      <trkpt lat="40.201285" lon="-3.729507"/>
      <trkpt lat="40.201285" lon="-3.729507"/>
      <trkpt lat="40.201375" lon="-3.72949"/>
      <trkpt lat="40.201375" lon="-3.72949"/>
      <trkpt lat="40.201468" lon="-3.729475"/>
      <trkpt lat="40.201468" lon="-3.729475"/>
      <trkpt lat="40.201562" lon="-3.729462"/>
      <trkpt lat="40.201562" lon="-3.729462"/>
      <trkpt lat="40.201658" lon="-3.729445"/>
      <trkpt lat="40.201658" lon="-3.729445"/>
      <trkpt lat="40.201757" lon="-3.729432"/>
      <trkpt lat="40.201757" lon="-3.729432"/>
      <trkpt lat="40.201855" lon="-3.729425"/>
      <trkpt lat="40.201855" lon="-3.729425"/>
      <trkpt lat="40.201952" lon="-3.729408"/>
      <trkpt lat="40.201952" lon="-3.729408"/>
      <trkpt lat="40.202048" lon="-3.72939"/>
      <trkpt lat="40.202048" lon="-3.72939"/>
      <trkpt lat="40.20214" lon="-3.729375"/>
      <trkpt lat="40.20214" lon="-3.729375"/>
      <trkpt lat="40.202237" lon="-3.72936"/>
      <trkpt lat="40.202237" lon="-3.72936"/>
      <trkpt lat="40.202337" lon="-3.72934"/>
      <trkpt lat="40.202337" lon="-3.72934"/>
      <trkpt lat="40.202443" lon="-3.72932"/>
      <trkpt lat="40.202443" lon="-3.72932"/>
      <trkpt lat="40.20255" lon="-3.729302"/>
      <trkpt lat="40.20255" lon="-3.729302"/>
      <trkpt lat="40.202652" lon="-3.729275"/>
      <trkpt lat="40.202652" lon="-3.729275"/>
      <trkpt lat="40.20275" lon="-3.729247"/>
      <trkpt lat="40.20275" lon="-3.729247"/>
      <trkpt lat="40.202847" lon="-3.729232"/>
      <trkpt lat="40.202847" lon="-3.729232"/>
      <trkpt lat="40.202942" lon="-3.72921"/>
      <trkpt lat="40.202942" lon="-3.72921"/>
      <trkpt lat="40.203032" lon="-3.729188"/>
      <trkpt lat="40.203032" lon="-3.729188"/>
      <trkpt lat="40.203118" lon="-3.729162"/>
      <trkpt lat="40.203118" lon="-3.729162"/>
      <trkpt lat="40.203207" lon="-3.729135"/>
      <trkpt lat="40.203207" lon="-3.729135"/>
      <trkpt lat="40.203298" lon="-3.729108"/>
      <trkpt lat="40.203298" lon="-3.729108"/>
      <trkpt lat="40.203388" lon="-3.729075"/>
      <trkpt lat="40.203388" lon="-3.729075"/>
      <trkpt lat="40.203477" lon="-3.729048"/>
      <trkpt lat="40.203477" lon="-3.729048"/>
      <trkpt lat="40.203562" lon="-3.72902"/>
      <trkpt lat="40.203562" lon="-3.72902"/>
      <trkpt lat="40.203648" lon="-3.728987"/>
      <trkpt lat="40.203648" lon="-3.728987"/>
      <trkpt lat="40.203733" lon="-3.728955"/>
      <trkpt lat="40.203773" lon="-3.728938"/>
      <trkpt lat="40.203817" lon="-3.728923"/>
      <trkpt lat="40.203817" lon="-3.728923"/>
      <trkpt lat="40.203903" lon="-3.728898"/>
      <trkpt lat="40.203903" lon="-3.728898"/>
      <trkpt lat="40.203988" lon="-3.728865"/>
      <trkpt lat="40.203988" lon="-3.728865"/>
      <trkpt lat="40.20407" lon="-3.728832"/>
      <trkpt lat="40.20407" lon="-3.728832"/>
      <trkpt lat="40.204152" lon="-3.7288"/>
      <trkpt lat="40.204152" lon="-3.7288"/>
      <trkpt lat="40.204235" lon="-3.728768"/>
      <trkpt lat="40.204235" lon="-3.728768"/>
      <trkpt lat="40.20432" lon="-3.728735"/>
      <trkpt lat="40.20432" lon="-3.728735"/>
      <trkpt lat="40.204402" lon="-3.728702"/>
      <trkpt lat="40.204442" lon="-3.728682"/>
      <trkpt lat="40.204442" lon="-3.728682"/>
      <trkpt lat="40.204518" lon="-3.728643"/>
      <trkpt lat="40.204557" lon="-3.728625"/>
      <trkpt lat="40.204597" lon="-3.728608"/>
      <trkpt lat="40.204597" lon="-3.728608"/>
      <trkpt lat="40.204678" lon="-3.72857"/>
      <trkpt lat="40.204678" lon="-3.72857"/>
      <trkpt lat="40.204762" lon="-3.728533"/>
      <trkpt lat="40.204805" lon="-3.728515"/>
      <trkpt lat="40.204805" lon="-3.728515"/>
      <trkpt lat="40.204888" lon="-3.72848"/>
      <trkpt lat="40.204888" lon="-3.72848"/>
      <trkpt lat="40.204973" lon="-3.728445"/>
      <trkpt lat="40.204973" lon="-3.728445"/>
      <trkpt lat="40.205058" lon="-3.728412"/>
      <trkpt lat="40.205058" lon="-3.728412"/>
      <trkpt lat="40.205143" lon="-3.728373"/>
      <trkpt lat="40.205143" lon="-3.728373"/>
      <trkpt lat="40.20523" lon="-3.728333"/>
      <trkpt lat="40.20523" lon="-3.728333"/>
      <trkpt lat="40.205317" lon="-3.728292"/>
      <trkpt lat="40.205358" lon="-3.728273"/>
      <trkpt lat="40.205358" lon="-3.728273"/>
      <trkpt lat="40.205448" lon="-3.728242"/>
      <trkpt lat="40.205448" lon="-3.728242"/>
      <trkpt lat="40.20554" lon="-3.728208"/>
      <trkpt lat="40.20554" lon="-3.728208"/>
      <trkpt lat="40.205628" lon="-3.728167"/>
      <trkpt lat="40.20567" lon="-3.728147"/>
      <trkpt lat="40.20567" lon="-3.728147"/>
      <trkpt lat="40.205757" lon="-3.728102"/>
      <trkpt lat="40.205757" lon="-3.728102"/>
      <trkpt lat="40.205845" lon="-3.728055"/>
      <trkpt lat="40.205845" lon="-3.728055"/>
      <trkpt lat="40.205935" lon="-3.728008"/>
      <trkpt lat="40.205978" lon="-3.727985"/>
      <trkpt lat="40.205978" lon="-3.727985"/>
      <trkpt lat="40.206063" lon="-3.72794"/>
      <trkpt lat="40.206063" lon="-3.72794"/>
      <trkpt lat="40.206143" lon="-3.7279"/>
      <trkpt lat="40.206143" lon="-3.7279"/>
      <trkpt lat="40.206222" lon="-3.727855"/>
      <trkpt lat="40.206262" lon="-3.727835"/>
      <trkpt lat="40.206262" lon="-3.727835"/>
      <trkpt lat="40.206343" lon="-3.727792"/>
      <trkpt lat="40.206343" lon="-3.727792"/>
      <trkpt lat="40.206427" lon="-3.72775"/>
      <trkpt lat="40.206468" lon="-3.727727"/>
      <trkpt lat="40.206468" lon="-3.727727"/>
      <trkpt lat="40.206552" lon="-3.72768"/>
      <trkpt lat="40.206552" lon="-3.72768"/>
      <trkpt lat="40.206637" lon="-3.727635"/>
      <trkpt lat="40.206678" lon="-3.727608"/>
      <trkpt lat="40.206678" lon="-3.727608"/>
      <trkpt lat="40.206762" lon="-3.727552"/>
      <trkpt lat="40.206802" lon="-3.727523"/>
      <trkpt lat="40.206842" lon="-3.727495"/>
      <trkpt lat="40.206842" lon="-3.727495"/>
      <trkpt lat="40.206918" lon="-3.727437"/>
      <trkpt lat="40.206918" lon="-3.727437"/>
      <trkpt lat="40.206997" lon="-3.72738"/>
      <trkpt lat="40.206997" lon="-3.72738"/>
      <trkpt lat="40.207072" lon="-3.727322"/>
      <trkpt lat="40.207108" lon="-3.72729"/>
      <trkpt lat="40.207108" lon="-3.72729"/>
      <trkpt lat="40.207187" lon="-3.72723"/>
      <trkpt lat="40.207227" lon="-3.727197"/>
      <trkpt lat="40.207227" lon="-3.727197"/>
      <trkpt lat="40.207308" lon="-3.727128"/>
      <trkpt lat="40.207308" lon="-3.727128"/>
      <trkpt lat="40.207388" lon="-3.727057"/>
      <trkpt lat="40.207388" lon="-3.727057"/>
      <trkpt lat="40.207468" lon="-3.726988"/>
      <trkpt lat="40.207468" lon="-3.726988"/>
      <trkpt lat="40.207548" lon="-3.726918"/>
      <trkpt lat="40.207548" lon="-3.726918"/>
      <trkpt lat="40.207632" lon="-3.72685"/>
      <trkpt lat="40.207632" lon="-3.72685"/>
      <trkpt lat="40.207713" lon="-3.726783"/>
      <trkpt lat="40.207713" lon="-3.726783"/>
      <trkpt lat="40.207793" lon="-3.726718"/>
      <trkpt lat="40.207793" lon="-3.726718"/>
      <trkpt lat="40.207875" lon="-3.726657"/>
      <trkpt lat="40.207918" lon="-3.726627"/>
      <trkpt lat="40.207918" lon="-3.726627"/>
      <trkpt lat="40.208008" lon="-3.726567"/>
      <trkpt lat="40.208052" lon="-3.726537"/>
      <trkpt lat="40.208052" lon="-3.726537"/>
      <trkpt lat="40.208143" lon="-3.726475"/>
      <trkpt lat="40.208143" lon="-3.726475"/>
      <trkpt lat="40.208233" lon="-3.72641"/>
      <trkpt lat="40.208233" lon="-3.72641"/>
      <trkpt lat="40.208322" lon="-3.72635"/>
      <trkpt lat="40.208322" lon="-3.72635"/>
      <trkpt lat="40.208412" lon="-3.726285"/>
      <trkpt lat="40.208412" lon="-3.726285"/>
      <trkpt lat="40.208503" lon="-3.726225"/>
      <trkpt lat="40.208503" lon="-3.726225"/>
      <trkpt lat="40.208592" lon="-3.726163"/>
      <trkpt lat="40.208592" lon="-3.726163"/>
      <trkpt lat="40.208678" lon="-3.726098"/>
      <trkpt lat="40.208678" lon="-3.726098"/>
      <trkpt lat="40.208767" lon="-3.72604"/>
      <trkpt lat="40.208767" lon="-3.72604"/>
      <trkpt lat="40.208853" lon="-3.725978"/>
      <trkpt lat="40.208853" lon="-3.725978"/>
      <trkpt lat="40.208942" lon="-3.725918"/>
      <trkpt lat="40.208942" lon="-3.725918"/>
      <trkpt lat="40.209032" lon="-3.725862"/>
      <trkpt lat="40.209032" lon="-3.725862"/>
      <trkpt lat="40.209125" lon="-3.725817"/>
      <trkpt lat="40.209125" lon="-3.725817"/>
      <trkpt lat="40.209217" lon="-3.72577"/>
      <trkpt lat="40.209217" lon="-3.72577"/>
      <trkpt lat="40.209308" lon="-3.725722"/>
      <trkpt lat="40.209308" lon="-3.725722"/>
      <trkpt lat="40.2094" lon="-3.725675"/>
      <trkpt lat="40.2094" lon="-3.725675"/>
      <trkpt lat="40.209492" lon="-3.725633"/>
      <trkpt lat="40.209492" lon="-3.725633"/>
      <trkpt lat="40.209583" lon="-3.725595"/>
      <trkpt lat="40.209583" lon="-3.725595"/>
      <trkpt lat="40.209677" lon="-3.725553"/>
      <trkpt lat="40.209677" lon="-3.725553"/>
      <trkpt lat="40.20977" lon="-3.725508"/>
      <trkpt lat="40.20977" lon="-3.725508"/>
      <trkpt lat="40.209865" lon="-3.725468"/>
      <trkpt lat="40.209865" lon="-3.725468"/>
      <trkpt lat="40.20996" lon="-3.725423"/>
      <trkpt lat="40.20996" lon="-3.725423"/>
      <trkpt lat="40.210052" lon="-3.725378"/>
      <trkpt lat="40.210097" lon="-3.725357"/>
      <trkpt lat="40.210097" lon="-3.725357"/>
      <trkpt lat="40.21019" lon="-3.725313"/>
      <trkpt lat="40.210237" lon="-3.725292"/>
      <trkpt lat="40.210237" lon="-3.725292"/>
      <trkpt lat="40.210328" lon="-3.72525"/>
      <trkpt lat="40.210328" lon="-3.72525"/>
      <trkpt lat="40.210417" lon="-3.725208"/>
      <trkpt lat="40.210417" lon="-3.725208"/>
      <trkpt lat="40.210507" lon="-3.725168"/>
      <trkpt lat="40.210507" lon="-3.725168"/>
      <trkpt lat="40.210595" lon="-3.725128"/>
      <trkpt lat="40.210595" lon="-3.725128"/>
      <trkpt lat="40.21068" lon="-3.725088"/>
      <trkpt lat="40.21068" lon="-3.725088"/>
      <trkpt lat="40.210765" lon="-3.725048"/>
      <trkpt lat="40.210765" lon="-3.725048"/>
      <trkpt lat="40.210848" lon="-3.725008"/>
      <trkpt lat="40.210848" lon="-3.725008"/>
      <trkpt lat="40.210932" lon="-3.724965"/>
      <trkpt lat="40.210932" lon="-3.724965"/>
      <trkpt lat="40.211015" lon="-3.72492"/>
      <trkpt lat="40.211015" lon="-3.72492"/>
      <trkpt lat="40.211097" lon="-3.724875"/>
      <trkpt lat="40.211097" lon="-3.724875"/>
      <trkpt lat="40.211175" lon="-3.724828"/>
      <trkpt lat="40.211215" lon="-3.724803"/>
      <trkpt lat="40.211255" lon="-3.724777"/>
      <trkpt lat="40.211255" lon="-3.724777"/>
      <trkpt lat="40.211337" lon="-3.724727"/>
      <trkpt lat="40.211337" lon="-3.724727"/>
      <trkpt lat="40.211418" lon="-3.724675"/>
      <trkpt lat="40.211457" lon="-3.724648"/>
      <trkpt lat="40.211498" lon="-3.724622"/>
      <trkpt lat="40.211498" lon="-3.724622"/>
      <trkpt lat="40.211578" lon="-3.724568"/>
      <trkpt lat="40.211578" lon="-3.724568"/>
      <trkpt lat="40.211658" lon="-3.724512"/>
      <trkpt lat="40.211658" lon="-3.724512"/>
      <trkpt lat="40.211733" lon="-3.724453"/>
      <trkpt lat="40.211733" lon="-3.724453"/>
      <trkpt lat="40.211808" lon="-3.724393"/>
      <trkpt lat="40.211808" lon="-3.724393"/>
      <trkpt lat="40.21188" lon="-3.724323"/>
      <trkpt lat="40.211915" lon="-3.724287"/>
      <trkpt lat="40.211948" lon="-3.72425"/>
      <trkpt lat="40.211948" lon="-3.72425"/>
      <trkpt lat="40.212013" lon="-3.724167"/>
      <trkpt lat="40.212013" lon="-3.724167"/>
      <trkpt lat="40.212068" lon="-3.724073"/>
      <trkpt lat="40.212095" lon="-3.724023"/>
      <trkpt lat="40.212122" lon="-3.723972"/>
      <trkpt lat="40.212122" lon="-3.723972"/>
      <trkpt lat="40.21218" lon="-3.723872"/>
      <trkpt lat="40.21218" lon="-3.723872"/>
      <trkpt lat="40.212243" lon="-3.723772"/>
      <trkpt lat="40.212243" lon="-3.723772"/>
      <trkpt lat="40.212305" lon="-3.723668"/>
      <trkpt lat="40.212305" lon="-3.723668"/>
      <trkpt lat="40.212368" lon="-3.72357"/>
      <trkpt lat="40.212368" lon="-3.72357"/>
      <trkpt lat="40.212433" lon="-3.723472"/>
      <trkpt lat="40.212433" lon="-3.723472"/>
      <trkpt lat="40.212497" lon="-3.723375"/>
      <trkpt lat="40.212497" lon="-3.723375"/>
      <trkpt lat="40.21256" lon="-3.723282"/>
      <trkpt lat="40.21256" lon="-3.723282"/>
      <trkpt lat="40.212627" lon="-3.723188"/>
      <trkpt lat="40.212627" lon="-3.723188"/>
      <trkpt lat="40.212685" lon="-3.723083"/>
      <trkpt lat="40.212685" lon="-3.723083"/>
      <trkpt lat="40.212748" lon="-3.722977"/>
      <trkpt lat="40.212748" lon="-3.722977"/>
      <trkpt lat="40.212818" lon="-3.722878"/>
      <trkpt lat="40.212818" lon="-3.722878"/>
      <trkpt lat="40.212888" lon="-3.722783"/>
      <trkpt lat="40.212888" lon="-3.722783"/>
      <trkpt lat="40.212957" lon="-3.72269"/>
      <trkpt lat="40.212992" lon="-3.722643"/>
      <trkpt lat="40.212992" lon="-3.722643"/>
      <trkpt lat="40.213063" lon="-3.722555"/>
      <trkpt lat="40.213098" lon="-3.722512"/>
      <trkpt lat="40.213098" lon="-3.722512"/>
      <trkpt lat="40.213172" lon="-3.722422"/>
      <trkpt lat="40.213207" lon="-3.722375"/>
      <trkpt lat="40.213207" lon="-3.722375"/>
      <trkpt lat="40.213278" lon="-3.722282"/>
      <trkpt lat="40.213315" lon="-3.722235"/>
      <trkpt lat="40.213315" lon="-3.722235"/>
      <trkpt lat="40.213387" lon="-3.72214"/>
      <trkpt lat="40.213387" lon="-3.72214"/>
      <trkpt lat="40.213458" lon="-3.722045"/>
      <trkpt lat="40.213458" lon="-3.722045"/>
      <trkpt lat="40.21353" lon="-3.721952"/>
      <trkpt lat="40.21353" lon="-3.721952"/>
      <trkpt lat="40.213603" lon="-3.721857"/>
      <trkpt lat="40.213603" lon="-3.721857"/>
      <trkpt lat="40.213683" lon="-3.721765"/>
      <trkpt lat="40.213683" lon="-3.721765"/>
      <trkpt lat="40.21376" lon="-3.721677"/>
      <trkpt lat="40.213797" lon="-3.721632"/>
      <trkpt lat="40.213797" lon="-3.721632"/>
      <trkpt lat="40.213873" lon="-3.721543"/>
      <trkpt lat="40.21391" lon="-3.7215"/>
      <trkpt lat="40.21391" lon="-3.7215"/>
      <trkpt lat="40.213987" lon="-3.721415"/>
      <trkpt lat="40.213987" lon="-3.721415"/>
      <trkpt lat="40.214065" lon="-3.721332"/>
      <trkpt lat="40.214065" lon="-3.721332"/>
      <trkpt lat="40.214148" lon="-3.721253"/>
      <trkpt lat="40.214148" lon="-3.721253"/>
      <trkpt lat="40.214233" lon="-3.721182"/>
      <trkpt lat="40.214233" lon="-3.721182"/>
      <trkpt lat="40.214323" lon="-3.721115"/>
      <trkpt lat="40.214367" lon="-3.72108"/>
      <trkpt lat="40.214367" lon="-3.72108"/>
      <trkpt lat="40.214455" lon="-3.721008"/>
      <trkpt lat="40.214497" lon="-3.720972"/>
      <trkpt lat="40.214497" lon="-3.720972"/>
      <trkpt lat="40.214578" lon="-3.720897"/>
      <trkpt lat="40.214578" lon="-3.720897"/>
      <trkpt lat="40.214658" lon="-3.720823"/>
      <trkpt lat="40.214658" lon="-3.720823"/>
      <trkpt lat="40.214737" lon="-3.72074"/>
      <trkpt lat="40.214737" lon="-3.72074"/>
      <trkpt lat="40.214807" lon="-3.720648"/>
      <trkpt lat="40.214807" lon="-3.720648"/>
      <trkpt lat="40.214875" lon="-3.720555"/>
      <trkpt lat="40.214875" lon="-3.720555"/>
      <trkpt lat="40.214943" lon="-3.720462"/>
      <trkpt lat="40.214975" lon="-3.720412"/>
      <trkpt lat="40.214975" lon="-3.720412"/>
      <trkpt lat="40.215037" lon="-3.72031"/>
      <trkpt lat="40.215037" lon="-3.72031"/>
      <trkpt lat="40.215093" lon="-3.720208"/>
      <trkpt lat="40.215122" lon="-3.72016"/>
      <trkpt lat="40.215122" lon="-3.72016"/>
      <trkpt lat="40.215175" lon="-3.720062"/>
      <trkpt lat="40.215175" lon="-3.720062"/>
      <trkpt lat="40.215222" lon="-3.719955"/>
      <trkpt lat="40.215222" lon="-3.719955"/>
      <trkpt lat="40.215255" lon="-3.719842"/>
      <trkpt lat="40.215255" lon="-3.719842"/>
      <trkpt lat="40.215287" lon="-3.71973"/>
      <trkpt lat="40.215287" lon="-3.71973"/>
      <trkpt lat="40.215317" lon="-3.71962"/>
      <trkpt lat="40.215317" lon="-3.71962"/>
      <trkpt lat="40.215357" lon="-3.719518"/>
      <trkpt lat="40.215357" lon="-3.719518"/>
      <trkpt lat="40.215405" lon="-3.719423"/>
      <trkpt lat="40.215405" lon="-3.719423"/>
      <trkpt lat="40.21546" lon="-3.719333"/>
      <trkpt lat="40.21549" lon="-3.71929"/>
      <trkpt lat="40.215522" lon="-3.719247"/>
      <trkpt lat="40.215522" lon="-3.719247"/>
      <trkpt lat="40.215583" lon="-3.719162"/>
      <trkpt lat="40.215583" lon="-3.719162"/>
      <trkpt lat="40.215645" lon="-3.719077"/>
      <trkpt lat="40.215645" lon="-3.719077"/>
      <trkpt lat="40.21571" lon="-3.718998"/>
      <trkpt lat="40.21571" lon="-3.718998"/>
      <trkpt lat="40.215777" lon="-3.718917"/>
      <trkpt lat="40.215777" lon="-3.718917"/>
      <trkpt lat="40.215843" lon="-3.718835"/>
      <trkpt lat="40.215877" lon="-3.718793"/>
      <trkpt lat="40.21591" lon="-3.718753"/>
      <trkpt lat="40.21591" lon="-3.718753"/>
      <trkpt lat="40.215977" lon="-3.718673"/>
      <trkpt lat="40.215977" lon="-3.718673"/>
      <trkpt lat="40.216047" lon="-3.718595"/>
      <trkpt lat="40.216047" lon="-3.718595"/>
      <trkpt lat="40.216117" lon="-3.71851"/>
      <trkpt lat="40.216117" lon="-3.71851"/>
      <trkpt lat="40.21619" lon="-3.718428"/>
      <trkpt lat="40.21619" lon="-3.718428"/>
      <trkpt lat="40.216262" lon="-3.718342"/>
      <trkpt lat="40.216262" lon="-3.718342"/>
      <trkpt lat="40.216335" lon="-3.718257"/>
      <trkpt lat="40.216335" lon="-3.718257"/>
      <trkpt lat="40.216407" lon="-3.718172"/>
      <trkpt lat="40.216407" lon="-3.718172"/>
      <trkpt lat="40.216478" lon="-3.718085"/>
      <trkpt lat="40.216515" lon="-3.71804"/>
      <trkpt lat="40.216515" lon="-3.71804"/>
      <trkpt lat="40.216588" lon="-3.717952"/>
      <trkpt lat="40.216625" lon="-3.717907"/>
      <trkpt lat="40.216625" lon="-3.717907"/>
      <trkpt lat="40.2167" lon="-3.717818"/>
      <trkpt lat="40.2167" lon="-3.717818"/>
      <trkpt lat="40.216775" lon="-3.71773"/>
      <trkpt lat="40.216775" lon="-3.71773"/>
      <trkpt lat="40.216852" lon="-3.717643"/>
      <trkpt lat="40.216852" lon="-3.717643"/>
      <trkpt lat="40.216925" lon="-3.717558"/>
      <trkpt lat="40.216962" lon="-3.717513"/>
      <trkpt lat="40.216962" lon="-3.717513"/>
      <trkpt lat="40.217035" lon="-3.717425"/>
      <trkpt lat="40.217035" lon="-3.717425"/>
      <trkpt lat="40.217107" lon="-3.717335"/>
      <trkpt lat="40.217142" lon="-3.717288"/>
      <trkpt lat="40.217177" lon="-3.71724"/>
      <trkpt lat="40.217212" lon="-3.717193"/>
      <trkpt lat="40.217212" lon="-3.717193"/>
      <trkpt lat="40.217282" lon="-3.7171"/>
      <trkpt lat="40.217282" lon="-3.7171"/>
      <trkpt lat="40.217352" lon="-3.717008"/>
      <trkpt lat="40.217352" lon="-3.717008"/>
      <trkpt lat="40.217423" lon="-3.716917"/>
      <trkpt lat="40.217423" lon="-3.716917"/>
      <trkpt lat="40.217493" lon="-3.716825"/>
      <trkpt lat="40.217493" lon="-3.716825"/>
      <trkpt lat="40.217565" lon="-3.716735"/>
      <trkpt lat="40.217565" lon="-3.716735"/>
      <trkpt lat="40.217635" lon="-3.71665"/>
      <trkpt lat="40.217635" lon="-3.71665"/>
      <trkpt lat="40.217707" lon="-3.716563"/>
      <trkpt lat="40.217707" lon="-3.716563"/>
      <trkpt lat="40.217778" lon="-3.716478"/>
      <trkpt lat="40.217778" lon="-3.716478"/>
      <trkpt lat="40.21785" lon="-3.716393"/>
      <trkpt lat="40.21785" lon="-3.716393"/>
      <trkpt lat="40.217923" lon="-3.71631"/>
      <trkpt lat="40.217923" lon="-3.71631"/>
      <trkpt lat="40.217997" lon="-3.716228"/>
      <trkpt lat="40.218035" lon="-3.71619"/>
      <trkpt lat="40.218073" lon="-3.716152"/>
      <trkpt lat="40.218073" lon="-3.716152"/>
      <trkpt lat="40.218152" lon="-3.716078"/>
      <trkpt lat="40.218152" lon="-3.716078"/>
      <trkpt lat="40.21823" lon="-3.71601"/>
      <trkpt lat="40.21823" lon="-3.71601"/>
      <trkpt lat="40.21831" lon="-3.715942"/>
      <trkpt lat="40.21831" lon="-3.715942"/>
      <trkpt lat="40.218392" lon="-3.715878"/>
      <trkpt lat="40.218392" lon="-3.715878"/>
      <trkpt lat="40.21847" lon="-3.715808"/>
      <trkpt lat="40.21847" lon="-3.715808"/>
      <trkpt lat="40.218552" lon="-3.715742"/>
      <trkpt lat="40.218552" lon="-3.715742"/>
      <trkpt lat="40.218635" lon="-3.71568"/>
      <trkpt lat="40.218635" lon="-3.71568"/>
      <trkpt lat="40.21872" lon="-3.71562"/>
      <trkpt lat="40.21872" lon="-3.71562"/>
      <trkpt lat="40.2188" lon="-3.715553"/>
      <trkpt lat="40.2188" lon="-3.715553"/>
      <trkpt lat="40.218877" lon="-3.715488"/>
      <trkpt lat="40.218877" lon="-3.715488"/>
      <trkpt lat="40.218953" lon="-3.715418"/>
      <trkpt lat="40.218953" lon="-3.715418"/>
      <trkpt lat="40.219032" lon="-3.715348"/>
      <trkpt lat="40.219032" lon="-3.715348"/>
      <trkpt lat="40.219113" lon="-3.71528"/>
      <trkpt lat="40.219113" lon="-3.71528"/>
      <trkpt lat="40.219192" lon="-3.71521"/>
      <trkpt lat="40.219192" lon="-3.71521"/>
      <trkpt lat="40.219268" lon="-3.715142"/>
      <trkpt lat="40.219268" lon="-3.715142"/>
      <trkpt lat="40.219345" lon="-3.715073"/>
      <trkpt lat="40.219345" lon="-3.715073"/>
      <trkpt lat="40.219423" lon="-3.715005"/>
      <trkpt lat="40.219423" lon="-3.715005"/>
      <trkpt lat="40.219503" lon="-3.714935"/>
      <trkpt lat="40.219503" lon="-3.714935"/>
      <trkpt lat="40.21958" lon="-3.714865"/>
      <trkpt lat="40.21958" lon="-3.714865"/>
      <trkpt lat="40.219653" lon="-3.714795"/>
      <trkpt lat="40.219653" lon="-3.714795"/>
      <trkpt lat="40.219728" lon="-3.714723"/>
      <trkpt lat="40.219728" lon="-3.714723"/>
      <trkpt lat="40.219803" lon="-3.714655"/>
      <trkpt lat="40.219803" lon="-3.714655"/>
      <trkpt lat="40.219877" lon="-3.714578"/>
      <trkpt lat="40.219877" lon="-3.714578"/>
      <trkpt lat="40.219948" lon="-3.714505"/>
      <trkpt lat="40.219948" lon="-3.714505"/>
      <trkpt lat="40.220022" lon="-3.714432"/>
      <trkpt lat="40.220022" lon="-3.714432"/>
      <trkpt lat="40.220093" lon="-3.71436"/>
      <trkpt lat="40.220093" lon="-3.71436"/>
      <trkpt lat="40.220168" lon="-3.714288"/>
      <trkpt lat="40.220168" lon="-3.714288"/>
      <trkpt lat="40.220247" lon="-3.714215"/>
      <trkpt lat="40.220247" lon="-3.714215"/>
      <trkpt lat="40.220325" lon="-3.714143"/>
      <trkpt lat="40.220325" lon="-3.714143"/>
      <trkpt lat="40.220403" lon="-3.714068"/>
      <trkpt lat="40.220403" lon="-3.714068"/>
      <trkpt lat="40.220483" lon="-3.713995"/>
      <trkpt lat="40.220483" lon="-3.713995"/>
      <trkpt lat="40.220565" lon="-3.713923"/>
      <trkpt lat="40.220565" lon="-3.713923"/>
      <trkpt lat="40.220648" lon="-3.713852"/>
      <trkpt lat="40.220648" lon="-3.713852"/>
      <trkpt lat="40.220727" lon="-3.713782"/>
      <trkpt lat="40.220727" lon="-3.713782"/>
      <trkpt lat="40.22081" lon="-3.713708"/>
      <trkpt lat="40.22081" lon="-3.713708"/>
      <trkpt lat="40.220892" lon="-3.713633"/>
      <trkpt lat="40.220892" lon="-3.713633"/>
      <trkpt lat="40.220973" lon="-3.713562"/>
      <trkpt lat="40.221013" lon="-3.713527"/>
      <trkpt lat="40.221013" lon="-3.713527"/>
      <trkpt lat="40.221095" lon="-3.713453"/>
      <trkpt lat="40.221133" lon="-3.713417"/>
      <trkpt lat="40.221133" lon="-3.713417"/>
      <trkpt lat="40.221212" lon="-3.713348"/>
      <trkpt lat="40.221252" lon="-3.713313"/>
      <trkpt lat="40.221252" lon="-3.713313"/>
      <trkpt lat="40.221328" lon="-3.713247"/>
      <trkpt lat="40.221367" lon="-3.713215"/>
      <trkpt lat="40.221367" lon="-3.713215"/>
      <trkpt lat="40.221447" lon="-3.713152"/>
      <trkpt lat="40.221447" lon="-3.713152"/>
      <trkpt lat="40.221527" lon="-3.713092"/>
      <trkpt lat="40.221527" lon="-3.713092"/>
      <trkpt lat="40.221607" lon="-3.713032"/>
      <trkpt lat="40.221607" lon="-3.713032"/>
      <trkpt lat="40.221685" lon="-3.712972"/>
      <trkpt lat="40.221685" lon="-3.712972"/>
      <trkpt lat="40.221762" lon="-3.71291"/>
      <trkpt lat="40.221802" lon="-3.71288"/>
      <trkpt lat="40.221842" lon="-3.712852"/>
      <trkpt lat="40.221842" lon="-3.712852"/>
      <trkpt lat="40.22192" lon="-3.712793"/>
      <trkpt lat="40.22192" lon="-3.712793"/>
      <trkpt lat="40.221997" lon="-3.712737"/>
      <trkpt lat="40.222037" lon="-3.712712"/>
      <trkpt lat="40.222037" lon="-3.712712"/>
      <trkpt lat="40.222113" lon="-3.712653"/>
      <trkpt lat="40.222113" lon="-3.712653"/>
      <trkpt lat="40.22219" lon="-3.71259"/>
      <trkpt lat="40.22219" lon="-3.71259"/>
      <trkpt lat="40.222265" lon="-3.712527"/>
      <trkpt lat="40.222302" lon="-3.712495"/>
      <trkpt lat="40.222302" lon="-3.712495"/>
      <trkpt lat="40.222375" lon="-3.71243"/>
      <trkpt lat="40.222375" lon="-3.71243"/>
      <trkpt lat="40.222448" lon="-3.712362"/>
      <trkpt lat="40.222448" lon="-3.712362"/>
      <trkpt lat="40.22252" lon="-3.712295"/>
      <trkpt lat="40.22252" lon="-3.712295"/>
      <trkpt lat="40.22259" lon="-3.712228"/>
      <trkpt lat="40.22259" lon="-3.712228"/>
      <trkpt lat="40.222653" lon="-3.712165"/>
      <trkpt lat="40.222653" lon="-3.712165"/>
      <trkpt lat="40.222717" lon="-3.712102"/>
      <trkpt lat="40.222717" lon="-3.712102"/>
      <trkpt lat="40.222782" lon="-3.712038"/>
      <trkpt lat="40.222782" lon="-3.712038"/>
      <trkpt lat="40.222843" lon="-3.711977"/>
      <trkpt lat="40.222873" lon="-3.711947"/>
      <trkpt lat="40.222902" lon="-3.711917"/>
      <trkpt lat="40.222902" lon="-3.711917"/>
      <trkpt lat="40.222958" lon="-3.711853"/>
      <trkpt lat="40.222958" lon="-3.711853"/>
      <trkpt lat="40.223018" lon="-3.71179"/>
      <trkpt lat="40.223018" lon="-3.71179"/>
      <trkpt lat="40.223078" lon="-3.711728"/>
      <trkpt lat="40.223078" lon="-3.711728"/>
      <trkpt lat="40.223143" lon="-3.711667"/>
      <trkpt lat="40.223143" lon="-3.711667"/>
      <trkpt lat="40.223207" lon="-3.711603"/>
      <trkpt lat="40.223207" lon="-3.711603"/>
      <trkpt lat="40.223275" lon="-3.71154"/>
      <trkpt lat="40.223275" lon="-3.71154"/>
      <trkpt lat="40.22334" lon="-3.711482"/>
      <trkpt lat="40.22334" lon="-3.711482"/>
      <trkpt lat="40.223405" lon="-3.711423"/>
      <trkpt lat="40.223438" lon="-3.711395"/>
      <trkpt lat="40.223475" lon="-3.711368"/>
      <trkpt lat="40.223475" lon="-3.711368"/>
      <trkpt lat="40.223545" lon="-3.711313"/>
      <trkpt lat="40.223545" lon="-3.711313"/>
      <trkpt lat="40.22362" lon="-3.711262"/>
      <trkpt lat="40.22362" lon="-3.711262"/>
      <trkpt lat="40.223695" lon="-3.711208"/>
      <trkpt lat="40.223695" lon="-3.711208"/>
      <trkpt lat="40.223768" lon="-3.711155"/>
      <trkpt lat="40.223805" lon="-3.711128"/>
      <trkpt lat="40.223805" lon="-3.711128"/>
      <trkpt lat="40.223882" lon="-3.711082"/>
      <trkpt lat="40.22392" lon="-3.71106"/>
      <trkpt lat="40.22392" lon="-3.71106"/>
      <trkpt lat="40.224" lon="-3.711015"/>
      <trkpt lat="40.224" lon="-3.711015"/>
      <trkpt lat="40.224077" lon="-3.710968"/>
      <trkpt lat="40.224077" lon="-3.710968"/>
      <trkpt lat="40.224157" lon="-3.710922"/>
      <trkpt lat="40.224157" lon="-3.710922"/>
      <trkpt lat="40.224238" lon="-3.710883"/>
      <trkpt lat="40.224238" lon="-3.710883"/>
      <trkpt lat="40.224323" lon="-3.710845"/>
      <trkpt lat="40.224367" lon="-3.710825"/>
      <trkpt lat="40.22441" lon="-3.710805"/>
      <trkpt lat="40.22441" lon="-3.710805"/>
      <trkpt lat="40.224495" lon="-3.710762"/>
      <trkpt lat="40.224495" lon="-3.710762"/>
      <trkpt lat="40.22458" lon="-3.710718"/>
      <trkpt lat="40.22458" lon="-3.710718"/>
      <trkpt lat="40.224667" lon="-3.710673"/>
      <trkpt lat="40.224667" lon="-3.710673"/>
      <trkpt lat="40.224753" lon="-3.710627"/>
      <trkpt lat="40.224753" lon="-3.710627"/>
      <trkpt lat="40.224838" lon="-3.71058"/>
      <trkpt lat="40.224838" lon="-3.71058"/>
      <trkpt lat="40.224923" lon="-3.710533"/>
      <trkpt lat="40.224923" lon="-3.710533"/>
      <trkpt lat="40.225007" lon="-3.710487"/>
      <trkpt lat="40.225007" lon="-3.710487"/>
      <trkpt lat="40.22509" lon="-3.710438"/>
      <trkpt lat="40.22509" lon="-3.710438"/>
      <trkpt lat="40.225175" lon="-3.710395"/>
      <trkpt lat="40.225175" lon="-3.710395"/>
      <trkpt lat="40.225258" lon="-3.710357"/>
      <trkpt lat="40.225258" lon="-3.710357"/>
      <trkpt lat="40.22534" lon="-3.710315"/>
      <trkpt lat="40.225382" lon="-3.710295"/>
      <trkpt lat="40.225423" lon="-3.710273"/>
      <trkpt lat="40.225423" lon="-3.710273"/>
      <trkpt lat="40.225505" lon="-3.71023"/>
      <trkpt lat="40.225505" lon="-3.71023"/>
      <trkpt lat="40.225585" lon="-3.710185"/>
      <trkpt lat="40.225585" lon="-3.710185"/>
      <trkpt lat="40.225665" lon="-3.710142"/>
      <trkpt lat="40.225665" lon="-3.710142"/>
      <trkpt lat="40.225748" lon="-3.710098"/>
      <trkpt lat="40.22579" lon="-3.710077"/>
      <trkpt lat="40.22579" lon="-3.710077"/>
      <trkpt lat="40.225877" lon="-3.71003"/>
      <trkpt lat="40.225922" lon="-3.710007"/>
      <trkpt lat="40.225922" lon="-3.710007"/>
      <trkpt lat="40.22601" lon="-3.70996"/>
      <trkpt lat="40.226052" lon="-3.709938"/>
      <trkpt lat="40.226052" lon="-3.709938"/>
      <trkpt lat="40.226135" lon="-3.709897"/>
      <trkpt lat="40.226173" lon="-3.709875"/>
      <trkpt lat="40.226173" lon="-3.709875"/>
      <trkpt lat="40.22625" lon="-3.709828"/>
      <trkpt lat="40.22625" lon="-3.709828"/>
      <trkpt lat="40.226327" lon="-3.70977"/>
      <trkpt lat="40.226327" lon="-3.70977"/>
      <trkpt lat="40.226408" lon="-3.709713"/>
      <trkpt lat="40.226408" lon="-3.709713"/>
      <trkpt lat="40.226492" lon="-3.709653"/>
      <trkpt lat="40.226532" lon="-3.709623"/>
      <trkpt lat="40.226532" lon="-3.709623"/>
      <trkpt lat="40.226612" lon="-3.70956"/>
      <trkpt lat="40.226648" lon="-3.709527"/>
      <trkpt lat="40.226648" lon="-3.709527"/>
      <trkpt lat="40.226725" lon="-3.709458"/>
      <trkpt lat="40.226725" lon="-3.709458"/>
      <trkpt lat="40.226802" lon="-3.709383"/>
      <trkpt lat="40.226802" lon="-3.709383"/>
      <trkpt lat="40.226883" lon="-3.709302"/>
      <trkpt lat="40.226883" lon="-3.709302"/>
      <trkpt lat="40.226967" lon="-3.709212"/>
      <trkpt lat="40.226967" lon="-3.709212"/>
      <trkpt lat="40.227055" lon="-3.709122"/>
      <trkpt lat="40.227055" lon="-3.709122"/>
      <trkpt lat="40.227142" lon="-3.70903"/>
      <trkpt lat="40.227142" lon="-3.70903"/>
      <trkpt lat="40.22723" lon="-3.708942"/>
      <trkpt lat="40.22723" lon="-3.708942"/>
      <trkpt lat="40.227315" lon="-3.708852"/>
      <trkpt lat="40.227357" lon="-3.70881"/>
      <trkpt lat="40.227398" lon="-3.708768"/>
      <trkpt lat="40.227398" lon="-3.708768"/>
      <trkpt lat="40.22748" lon="-3.708685"/>
      <trkpt lat="40.22748" lon="-3.708685"/>
      <trkpt lat="40.227562" lon="-3.7086"/>
      <trkpt lat="40.227562" lon="-3.7086"/>
      <trkpt lat="40.227647" lon="-3.708518"/>
      <trkpt lat="40.227647" lon="-3.708518"/>
      <trkpt lat="40.227728" lon="-3.708437"/>
      <trkpt lat="40.227728" lon="-3.708437"/>
      <trkpt lat="40.227812" lon="-3.708357"/>
      <trkpt lat="40.227812" lon="-3.708357"/>
      <trkpt lat="40.227897" lon="-3.70828"/>
      <trkpt lat="40.227897" lon="-3.70828"/>
      <trkpt lat="40.227983" lon="-3.708203"/>
      <trkpt lat="40.227983" lon="-3.708203"/>
      <trkpt lat="40.228067" lon="-3.708122"/>
      <trkpt lat="40.228108" lon="-3.708083"/>
      <trkpt lat="40.228152" lon="-3.708048"/>
      <trkpt lat="40.228152" lon="-3.708048"/>
      <trkpt lat="40.228238" lon="-3.707982"/>
      <trkpt lat="40.228238" lon="-3.707982"/>
      <trkpt lat="40.228322" lon="-3.707908"/>
      <trkpt lat="40.228322" lon="-3.707908"/>
      <trkpt lat="40.228407" lon="-3.707835"/>
      <trkpt lat="40.228407" lon="-3.707835"/>
      <trkpt lat="40.228487" lon="-3.707755"/>
      <trkpt lat="40.228527" lon="-3.707713"/>
      <trkpt lat="40.228527" lon="-3.707713"/>
      <trkpt lat="40.228608" lon="-3.707637"/>
      <trkpt lat="40.228608" lon="-3.707637"/>
      <trkpt lat="40.228692" lon="-3.707563"/>
      <trkpt lat="40.228692" lon="-3.707563"/>
      <trkpt lat="40.228775" lon="-3.70749"/>
      <trkpt lat="40.228775" lon="-3.70749"/>
      <trkpt lat="40.228858" lon="-3.707418"/>
      <trkpt lat="40.228897" lon="-3.707385"/>
      <trkpt lat="40.228897" lon="-3.707385"/>
      <trkpt lat="40.228975" lon="-3.70732"/>
      <trkpt lat="40.228975" lon="-3.70732"/>
      <trkpt lat="40.229057" lon="-3.707258"/>
      <trkpt lat="40.229057" lon="-3.707258"/>
      <trkpt lat="40.229133" lon="-3.707187"/>
      <trkpt lat="40.229133" lon="-3.707187"/>
      <trkpt lat="40.229212" lon="-3.707117"/>
      <trkpt lat="40.229212" lon="-3.707117"/>
      <trkpt lat="40.229287" lon="-3.707045"/>
      <trkpt lat="40.229287" lon="-3.707045"/>
      <trkpt lat="40.229362" lon="-3.706972"/>
      <trkpt lat="40.229362" lon="-3.706972"/>
      <trkpt lat="40.229438" lon="-3.706893"/>
      <trkpt lat="40.229438" lon="-3.706893"/>
      <trkpt lat="40.229513" lon="-3.706808"/>
      <trkpt lat="40.229513" lon="-3.706808"/>
      <trkpt lat="40.229592" lon="-3.706723"/>
      <trkpt lat="40.229592" lon="-3.706723"/>
      <trkpt lat="40.229677" lon="-3.706645"/>
      <trkpt lat="40.229677" lon="-3.706645"/>
      <trkpt lat="40.229762" lon="-3.706572"/>
      <trkpt lat="40.229762" lon="-3.706572"/>
      <trkpt lat="40.229845" lon="-3.706498"/>
      <trkpt lat="40.229845" lon="-3.706498"/>
      <trkpt lat="40.22993" lon="-3.706433"/>
      <trkpt lat="40.22993" lon="-3.706433"/>
      <trkpt lat="40.230015" lon="-3.70637"/>
      <trkpt lat="40.230015" lon="-3.70637"/>
      <trkpt lat="40.2301" lon="-3.706308"/>
      <trkpt lat="40.2301" lon="-3.706308"/>
      <trkpt lat="40.230187" lon="-3.70625"/>
      <trkpt lat="40.230187" lon="-3.70625"/>
      <trkpt lat="40.230275" lon="-3.70619"/>
      <trkpt lat="40.230275" lon="-3.70619"/>
      <trkpt lat="40.230362" lon="-3.706135"/>
      <trkpt lat="40.230362" lon="-3.706135"/>
      <trkpt lat="40.230447" lon="-3.706077"/>
      <trkpt lat="40.230447" lon="-3.706077"/>
      <trkpt lat="40.230532" lon="-3.706017"/>
      <trkpt lat="40.230532" lon="-3.706017"/>
      <trkpt lat="40.230613" lon="-3.705958"/>
      <trkpt lat="40.230613" lon="-3.705958"/>
      <trkpt lat="40.230697" lon="-3.705903"/>
      <trkpt lat="40.230697" lon="-3.705903"/>
      <trkpt lat="40.230777" lon="-3.705848"/>
      <trkpt lat="40.230777" lon="-3.705848"/>
      <trkpt lat="40.230857" lon="-3.705787"/>
      <trkpt lat="40.230857" lon="-3.705787"/>
      <trkpt lat="40.23094" lon="-3.705728"/>
      <trkpt lat="40.23094" lon="-3.705728"/>
      <trkpt lat="40.231023" lon="-3.705672"/>
      <trkpt lat="40.231065" lon="-3.705642"/>
      <trkpt lat="40.231065" lon="-3.705642"/>
      <trkpt lat="40.23115" lon="-3.705583"/>
      <trkpt lat="40.231192" lon="-3.705555"/>
      <trkpt lat="40.231232" lon="-3.705523"/>
      <trkpt lat="40.231232" lon="-3.705523"/>
      <trkpt lat="40.231313" lon="-3.705465"/>
      <trkpt lat="40.231353" lon="-3.705435"/>
      <trkpt lat="40.231353" lon="-3.705435"/>
      <trkpt lat="40.231433" lon="-3.705375"/>
      <trkpt lat="40.231433" lon="-3.705375"/>
      <trkpt lat="40.231512" lon="-3.705313"/>
      <trkpt lat="40.231512" lon="-3.705313"/>
      <trkpt lat="40.231592" lon="-3.70525"/>
      <trkpt lat="40.231592" lon="-3.70525"/>
      <trkpt lat="40.231672" lon="-3.705192"/>
      <trkpt lat="40.231672" lon="-3.705192"/>
      <trkpt lat="40.231747" lon="-3.70513"/>
      <trkpt lat="40.231747" lon="-3.70513"/>
      <trkpt lat="40.231798" lon="-3.705087"/>
      <trkpt lat="40.231798" lon="-3.705087"/>
      <trkpt lat="40.231805" lon="-3.705082"/>
      <trkpt lat="40.231805" lon="-3.705082"/>
      <trkpt lat="40.231805" lon="-3.705082"/>
      <trkpt lat="40.231833" lon="-3.705052"/>
      <trkpt lat="40.231833" lon="-3.705052"/>
      <trkpt lat="40.231882" lon="-3.705027"/>
      <trkpt lat="40.231882" lon="-3.705027"/>
      <trkpt lat="40.231937" lon="-3.704985"/>
      <trkpt lat="40.231937" lon="-3.704985"/>
      <trkpt lat="40.232" lon="-3.704933"/>
      <trkpt lat="40.232" lon="-3.704933"/>
      <trkpt lat="40.232068" lon="-3.704878"/>
      <trkpt lat="40.232068" lon="-3.704878"/>
      <trkpt lat="40.23214" lon="-3.70482"/>
      <trkpt lat="40.23214" lon="-3.70482"/>
      <trkpt lat="40.232213" lon="-3.70476"/>
      <trkpt lat="40.232213" lon="-3.70476"/>
      <trkpt lat="40.232293" lon="-3.704703"/>
      <trkpt lat="40.232293" lon="-3.704703"/>
      <trkpt lat="40.232372" lon="-3.704645"/>
      <trkpt lat="40.232372" lon="-3.704645"/>
      <trkpt lat="40.232452" lon="-3.704583"/>
      <trkpt lat="40.232492" lon="-3.704553"/>
      <trkpt lat="40.232492" lon="-3.704553"/>
      <trkpt lat="40.23257" lon="-3.704487"/>
      <trkpt lat="40.232608" lon="-3.704455"/>
      <trkpt lat="40.232608" lon="-3.704455"/>
      <trkpt lat="40.232693" lon="-3.7044"/>
      <trkpt lat="40.232693" lon="-3.7044"/>
      <trkpt lat="40.23278" lon="-3.704348"/>
      <trkpt lat="40.23278" lon="-3.704348"/>
      <trkpt lat="40.232863" lon="-3.704295"/>
      <trkpt lat="40.232863" lon="-3.704295"/>
      <trkpt lat="40.232945" lon="-3.70424"/>
      <trkpt lat="40.232945" lon="-3.70424"/>
      <trkpt lat="40.233027" lon="-3.704182"/>
      <trkpt lat="40.233065" lon="-3.704148"/>
      <trkpt lat="40.233065" lon="-3.704148"/>
      <trkpt lat="40.233142" lon="-3.70408"/>
      <trkpt lat="40.23318" lon="-3.704047"/>
      <trkpt lat="40.23318" lon="-3.704047"/>
      <trkpt lat="40.233255" lon="-3.70398"/>
      <trkpt lat="40.233255" lon="-3.70398"/>
      <trkpt lat="40.23333" lon="-3.703912"/>
      <trkpt lat="40.23333" lon="-3.703912"/>
      <trkpt lat="40.233407" lon="-3.70384"/>
      <trkpt lat="40.233407" lon="-3.70384"/>
      <trkpt lat="40.233483" lon="-3.703765"/>
      <trkpt lat="40.233483" lon="-3.703765"/>
      <trkpt lat="40.23356" lon="-3.703688"/>
      <trkpt lat="40.23356" lon="-3.703688"/>
      <trkpt lat="40.233638" lon="-3.703612"/>
      <trkpt lat="40.233638" lon="-3.703612"/>
      <trkpt lat="40.233712" lon="-3.703533"/>
      <trkpt lat="40.233712" lon="-3.703533"/>
      <trkpt lat="40.233782" lon="-3.703457"/>
      <trkpt lat="40.233782" lon="-3.703457"/>
      <trkpt lat="40.233845" lon="-3.703383"/>
      <trkpt lat="40.233845" lon="-3.703383"/>
      <trkpt lat="40.233907" lon="-3.703317"/>
      <trkpt lat="40.233907" lon="-3.703317"/>
      <trkpt lat="40.233962" lon="-3.703255"/>
      <trkpt lat="40.233962" lon="-3.703255"/>
      <trkpt lat="40.234017" lon="-3.703198"/>
      <trkpt lat="40.234017" lon="-3.703198"/>
      <trkpt lat="40.23407" lon="-3.703143"/>
      <trkpt lat="40.23407" lon="-3.703143"/>
      <trkpt lat="40.234118" lon="-3.703088"/>
      <trkpt lat="40.234118" lon="-3.703088"/>
      <trkpt lat="40.23415" lon="-3.703013"/>
      <trkpt lat="40.23415" lon="-3.703013"/>
      <trkpt lat="40.234157" lon="-3.702928"/>
      <trkpt lat="40.234155" lon="-3.702882"/>
      <trkpt lat="40.234152" lon="-3.702837"/>
      <trkpt lat="40.234152" lon="-3.702837"/>
      <trkpt lat="40.234143" lon="-3.702743"/>
      <trkpt lat="40.234135" lon="-3.702692"/>
      <trkpt lat="40.234135" lon="-3.702692"/>
      <trkpt lat="40.23411" lon="-3.702588"/>
      <trkpt lat="40.23411" lon="-3.702588"/>
      <trkpt lat="40.234077" lon="-3.702475"/>
      <trkpt lat="40.234077" lon="-3.702475"/>
      <trkpt lat="40.234035" lon="-3.702363"/>
      <trkpt lat="40.234035" lon="-3.702363"/>
      <trkpt lat="40.233993" lon="-3.702252"/>
      <trkpt lat="40.233972" lon="-3.7022"/>
      <trkpt lat="40.233972" lon="-3.7022"/>
      <trkpt lat="40.233925" lon="-3.702095"/>
      <trkpt lat="40.233925" lon="-3.702095"/>
      <trkpt lat="40.233877" lon="-3.701995"/>
      <trkpt lat="40.233855" lon="-3.701947"/>
      <trkpt lat="40.233832" lon="-3.701902"/>
      <trkpt lat="40.233832" lon="-3.701902"/>
      <trkpt lat="40.233782" lon="-3.701815"/>
      <trkpt lat="40.233782" lon="-3.701815"/>
      <trkpt lat="40.23373" lon="-3.701723"/>
      <trkpt lat="40.23373" lon="-3.701723"/>
      <trkpt lat="40.233687" lon="-3.701628"/>
      <trkpt lat="40.233687" lon="-3.701628"/>
      <trkpt lat="40.233643" lon="-3.701525"/>
      <trkpt lat="40.233643" lon="-3.701525"/>
      <trkpt lat="40.233588" lon="-3.701432"/>
      <trkpt lat="40.233588" lon="-3.701432"/>
      <trkpt lat="40.233527" lon="-3.701345"/>
      <trkpt lat="40.233527" lon="-3.701345"/>
      <trkpt lat="40.23347" lon="-3.701257"/>
      <trkpt lat="40.23347" lon="-3.701257"/>
      <trkpt lat="40.233412" lon="-3.701173"/>
      <trkpt lat="40.233412" lon="-3.701173"/>
      <trkpt lat="40.233357" lon="-3.701085"/>
      <trkpt lat="40.233357" lon="-3.701085"/>
      <trkpt lat="40.233297" lon="-3.700997"/>
      <trkpt lat="40.233297" lon="-3.700997"/>
      <trkpt lat="40.233235" lon="-3.700912"/>
      <trkpt lat="40.233235" lon="-3.700912"/>
      <trkpt lat="40.233175" lon="-3.700825"/>
      <trkpt lat="40.233175" lon="-3.700825"/>
      <trkpt lat="40.233115" lon="-3.70074"/>
      <trkpt lat="40.233115" lon="-3.70074"/>
      <trkpt lat="40.233055" lon="-3.70065"/>
      <trkpt lat="40.233055" lon="-3.70065"/>
      <trkpt lat="40.232993" lon="-3.700565"/>
      <trkpt lat="40.232993" lon="-3.700565"/>
      <trkpt lat="40.23293" lon="-3.700478"/>
      <trkpt lat="40.23293" lon="-3.700478"/>
      <trkpt lat="40.23287" lon="-3.700392"/>
      <trkpt lat="40.23287" lon="-3.700392"/>
      <trkpt lat="40.232808" lon="-3.700303"/>
      <trkpt lat="40.232808" lon="-3.700303"/>
      <trkpt lat="40.232748" lon="-3.700217"/>
      <trkpt lat="40.232748" lon="-3.700217"/>
      <trkpt lat="40.232685" lon="-3.70013"/>
      <trkpt lat="40.232685" lon="-3.70013"/>
      <trkpt lat="40.232622" lon="-3.70004"/>
      <trkpt lat="40.232622" lon="-3.70004"/>
      <trkpt lat="40.232557" lon="-3.69995"/>
      <trkpt lat="40.232525" lon="-3.699907"/>
      <trkpt lat="40.232525" lon="-3.699907"/>
      <trkpt lat="40.23246" lon="-3.699818"/>
      <trkpt lat="40.232428" lon="-3.699775"/>
      <trkpt lat="40.232428" lon="-3.699775"/>
      <trkpt lat="40.23236" lon="-3.699693"/>
      <trkpt lat="40.23236" lon="-3.699693"/>
      <trkpt lat="40.232295" lon="-3.699607"/>
      <trkpt lat="40.232295" lon="-3.699607"/>
      <trkpt lat="40.23223" lon="-3.699518"/>
      <trkpt lat="40.23223" lon="-3.699518"/>
      <trkpt lat="40.232168" lon="-3.699425"/>
      <trkpt lat="40.232168" lon="-3.699425"/>
      <trkpt lat="40.23211" lon="-3.69933"/>
      <trkpt lat="40.23211" lon="-3.69933"/>
      <trkpt lat="40.232052" lon="-3.699237"/>
      <trkpt lat="40.232025" lon="-3.69919"/>
      <trkpt lat="40.232025" lon="-3.69919"/>
      <trkpt lat="40.231973" lon="-3.699093"/>
      <trkpt lat="40.231973" lon="-3.699093"/>
      <trkpt lat="40.231925" lon="-3.698988"/>
      <trkpt lat="40.2319" lon="-3.698937"/>
      <trkpt lat="40.2319" lon="-3.698937"/>
      <trkpt lat="40.231857" lon="-3.69883"/>
      <trkpt lat="40.231837" lon="-3.698777"/>
      <trkpt lat="40.231837" lon="-3.698777"/>
      <trkpt lat="40.231797" lon="-3.698668"/>
      <trkpt lat="40.231778" lon="-3.698613"/>
      <trkpt lat="40.231778" lon="-3.698613"/>
      <trkpt lat="40.231743" lon="-3.698507"/>
      <trkpt lat="40.231743" lon="-3.698507"/>
      <trkpt lat="40.231712" lon="-3.6984"/>
      <trkpt lat="40.231695" lon="-3.698348"/>
      <trkpt lat="40.23168" lon="-3.698297"/>
      <trkpt lat="40.23168" lon="-3.698297"/>
      <trkpt lat="40.231652" lon="-3.698193"/>
      <trkpt lat="40.231652" lon="-3.698193"/>
      <trkpt lat="40.231627" lon="-3.698088"/>
      <trkpt lat="40.231615" lon="-3.698037"/>
      <trkpt lat="40.231603" lon="-3.697988"/>
      <trkpt lat="40.231603" lon="-3.697988"/>
      <trkpt lat="40.231577" lon="-3.697892"/>
      <trkpt lat="40.231577" lon="-3.697892"/>
      <trkpt lat="40.23155" lon="-3.697792"/>
      <trkpt lat="40.23155" lon="-3.697792"/>
      <trkpt lat="40.231528" lon="-3.69769"/>
      <trkpt lat="40.231528" lon="-3.69769"/>
      <trkpt lat="40.231503" lon="-3.697592"/>
      <trkpt lat="40.231503" lon="-3.697592"/>
      <trkpt lat="40.23148" lon="-3.697493"/>
      <trkpt lat="40.23148" lon="-3.697493"/>
      <trkpt lat="40.231465" lon="-3.697393"/>
      <trkpt lat="40.231465" lon="-3.697393"/>
      <trkpt lat="40.231448" lon="-3.697293"/>
      <trkpt lat="40.231448" lon="-3.697293"/>
      <trkpt lat="40.231423" lon="-3.697197"/>
      <trkpt lat="40.231423" lon="-3.697197"/>
      <trkpt lat="40.231387" lon="-3.697103"/>
      <trkpt lat="40.231387" lon="-3.697103"/>
      <trkpt lat="40.231338" lon="-3.69702"/>
      <trkpt lat="40.231338" lon="-3.69702"/>
      <trkpt lat="40.23128" lon="-3.69695"/>
      <trkpt lat="40.23128" lon="-3.69695"/>
      <trkpt lat="40.231215" lon="-3.696892"/>
      <trkpt lat="40.231215" lon="-3.696892"/>
      <trkpt lat="40.23115" lon="-3.696833"/>
      <trkpt lat="40.23115" lon="-3.696833"/>
      <trkpt lat="40.231083" lon="-3.69677"/>
      <trkpt lat="40.231083" lon="-3.69677"/>
      <trkpt lat="40.231013" lon="-3.696712"/>
      <trkpt lat="40.231013" lon="-3.696712"/>
      <trkpt lat="40.230942" lon="-3.696652"/>
      <trkpt lat="40.230942" lon="-3.696652"/>
      <trkpt lat="40.230872" lon="-3.696593"/>
      <trkpt lat="40.230872" lon="-3.696593"/>
      <trkpt lat="40.230803" lon="-3.696533"/>
      <trkpt lat="40.230803" lon="-3.696533"/>
      <trkpt lat="40.230737" lon="-3.696468"/>
      <trkpt lat="40.230705" lon="-3.696435"/>
      <trkpt lat="40.230705" lon="-3.696435"/>
      <trkpt lat="40.230642" lon="-3.696365"/>
      <trkpt lat="40.230608" lon="-3.696332"/>
      <trkpt lat="40.230608" lon="-3.696332"/>
      <trkpt lat="40.230542" lon="-3.696263"/>
      <trkpt lat="40.230542" lon="-3.696263"/>
      <trkpt lat="40.230473" lon="-3.696197"/>
      <trkpt lat="40.230473" lon="-3.696197"/>
      <trkpt lat="40.230403" lon="-3.696128"/>
      <trkpt lat="40.230403" lon="-3.696128"/>
      <trkpt lat="40.230335" lon="-3.696058"/>
      <trkpt lat="40.230335" lon="-3.696058"/>
      <trkpt lat="40.230267" lon="-3.695993"/>
      <trkpt lat="40.230267" lon="-3.695993"/>
      <trkpt lat="40.230198" lon="-3.695928"/>
      <trkpt lat="40.230198" lon="-3.695928"/>
      <trkpt lat="40.230128" lon="-3.695863"/>
      <trkpt lat="40.230093" lon="-3.69583"/>
      <trkpt lat="40.230093" lon="-3.69583"/>
      <trkpt lat="40.230025" lon="-3.695765"/>
      <trkpt lat="40.229993" lon="-3.695738"/>
      <trkpt lat="40.229993" lon="-3.695738"/>
      <trkpt lat="40.22993" lon="-3.695692"/>
      <trkpt lat="40.22993" lon="-3.695692"/>
      <trkpt lat="40.229863" lon="-3.695635"/>
      <trkpt lat="40.229828" lon="-3.695602"/>
      <trkpt lat="40.229793" lon="-3.695568"/>
      <trkpt lat="40.229793" lon="-3.695568"/>
      <trkpt lat="40.229723" lon="-3.695503"/>
      <trkpt lat="40.229723" lon="-3.695503"/>
      <trkpt lat="40.229653" lon="-3.695435"/>
      <trkpt lat="40.229653" lon="-3.695435"/>
      <trkpt lat="40.229585" lon="-3.695365"/>
      <trkpt lat="40.229585" lon="-3.695365"/>
      <trkpt lat="40.229512" lon="-3.695303"/>
      <trkpt lat="40.229512" lon="-3.695303"/>
      <trkpt lat="40.229438" lon="-3.695242"/>
      <trkpt lat="40.229438" lon="-3.695242"/>
      <trkpt lat="40.22936" lon="-3.695178"/>
      <trkpt lat="40.22936" lon="-3.695178"/>
      <trkpt lat="40.229283" lon="-3.69511"/>
      <trkpt lat="40.229283" lon="-3.69511"/>
      <trkpt lat="40.229205" lon="-3.695037"/>
      <trkpt lat="40.229205" lon="-3.695037"/>
      <trkpt lat="40.229125" lon="-3.694963"/>
      <trkpt lat="40.229125" lon="-3.694963"/>
      <trkpt lat="40.229043" lon="-3.694897"/>
      <trkpt lat="40.229043" lon="-3.694897"/>
      <trkpt lat="40.22896" lon="-3.694838"/>
      <trkpt lat="40.22896" lon="-3.694838"/>
      <trkpt lat="40.228877" lon="-3.694777"/>
      <trkpt lat="40.228877" lon="-3.694777"/>
      <trkpt lat="40.228802" lon="-3.694717"/>
      <trkpt lat="40.228802" lon="-3.694717"/>
      <trkpt lat="40.228733" lon="-3.694655"/>
      <trkpt lat="40.228733" lon="-3.694655"/>
      <trkpt lat="40.228662" lon="-3.69459"/>
      <trkpt lat="40.228662" lon="-3.69459"/>
      <trkpt lat="40.228593" lon="-3.694527"/>
      <trkpt lat="40.228593" lon="-3.694527"/>
      <trkpt lat="40.22853" lon="-3.69446"/>
      <trkpt lat="40.228505" lon="-3.694428"/>
      <trkpt lat="40.228505" lon="-3.694428"/>
      <trkpt lat="40.228448" lon="-3.694368"/>
      <trkpt lat="40.228417" lon="-3.69434"/>
      <trkpt lat="40.228417" lon="-3.69434"/>
      <trkpt lat="40.228355" lon="-3.69428"/>
      <trkpt lat="40.228355" lon="-3.69428"/>
      <trkpt lat="40.228302" lon="-3.694213"/>
      <trkpt lat="40.228302" lon="-3.694213"/>
      <trkpt lat="40.228242" lon="-3.694162"/>
      <trkpt lat="40.228242" lon="-3.694162"/>
      <trkpt lat="40.228185" lon="-3.694112"/>
      <trkpt lat="40.228185" lon="-3.694112"/>
      <trkpt lat="40.22812" lon="-3.694065"/>
      <trkpt lat="40.22812" lon="-3.694065"/>
      <trkpt lat="40.228053" lon="-3.694018"/>
      <trkpt lat="40.228053" lon="-3.694018"/>
      <trkpt lat="40.227983" lon="-3.693972"/>
      <trkpt lat="40.227983" lon="-3.693972"/>
      <trkpt lat="40.227915" lon="-3.693925"/>
      <trkpt lat="40.227915" lon="-3.693925"/>
      <trkpt lat="40.227847" lon="-3.693877"/>
      <trkpt lat="40.227813" lon="-3.693852"/>
      <trkpt lat="40.227813" lon="-3.693852"/>
      <trkpt lat="40.227745" lon="-3.693802"/>
      <trkpt lat="40.227712" lon="-3.693777"/>
      <trkpt lat="40.227712" lon="-3.693777"/>
      <trkpt lat="40.227642" lon="-3.693725"/>
      <trkpt lat="40.227642" lon="-3.693725"/>
      <trkpt lat="40.22757" lon="-3.693675"/>
      <trkpt lat="40.22757" lon="-3.693675"/>
      <trkpt lat="40.227492" lon="-3.693627"/>
      <trkpt lat="40.227492" lon="-3.693627"/>
      <trkpt lat="40.227413" lon="-3.693578"/>
      <trkpt lat="40.227413" lon="-3.693578"/>
      <trkpt lat="40.227335" lon="-3.693525"/>
      <trkpt lat="40.227335" lon="-3.693525"/>
      <trkpt lat="40.227257" lon="-3.693473"/>
      <trkpt lat="40.227257" lon="-3.693473"/>
      <trkpt lat="40.22718" lon="-3.693425"/>
      <trkpt lat="40.22718" lon="-3.693425"/>
      <trkpt lat="40.227107" lon="-3.693377"/>
      <trkpt lat="40.227107" lon="-3.693377"/>
      <trkpt lat="40.22703" lon="-3.693332"/>
      <trkpt lat="40.22703" lon="-3.693332"/>
      <trkpt lat="40.226957" lon="-3.693287"/>
      <trkpt lat="40.226957" lon="-3.693287"/>
      <trkpt lat="40.226882" lon="-3.693242"/>
      <trkpt lat="40.226882" lon="-3.693242"/>
      <trkpt lat="40.226807" lon="-3.693197"/>
      <trkpt lat="40.226807" lon="-3.693197"/>
      <trkpt lat="40.22673" lon="-3.693152"/>
      <trkpt lat="40.22673" lon="-3.693152"/>
      <trkpt lat="40.22665" lon="-3.693107"/>
      <trkpt lat="40.22665" lon="-3.693107"/>
      <trkpt lat="40.226573" lon="-3.693058"/>
      <trkpt lat="40.226535" lon="-3.693035"/>
      <trkpt lat="40.226535" lon="-3.693035"/>
      <trkpt lat="40.226458" lon="-3.692992"/>
      <trkpt lat="40.226458" lon="-3.692992"/>
      <trkpt lat="40.22638" lon="-3.692947"/>
      <trkpt lat="40.22634" lon="-3.692925"/>
      <trkpt lat="40.22634" lon="-3.692925"/>
      <trkpt lat="40.226262" lon="-3.692877"/>
      <trkpt lat="40.226262" lon="-3.692877"/>
      <trkpt lat="40.226185" lon="-3.69283"/>
      <trkpt lat="40.226145" lon="-3.692807"/>
      <trkpt lat="40.226107" lon="-3.692785"/>
      <trkpt lat="40.226107" lon="-3.692785"/>
      <trkpt lat="40.226027" lon="-3.692743"/>
      <trkpt lat="40.225988" lon="-3.692722"/>
      <trkpt lat="40.225988" lon="-3.692722"/>
      <trkpt lat="40.22591" lon="-3.692678"/>
      <trkpt lat="40.22587" lon="-3.692657"/>
      <trkpt lat="40.22587" lon="-3.692657"/>
      <trkpt lat="40.22579" lon="-3.692615"/>
      <trkpt lat="40.22579" lon="-3.692615"/>
      <trkpt lat="40.225708" lon="-3.692573"/>
      <trkpt lat="40.225708" lon="-3.692573"/>
      <trkpt lat="40.225628" lon="-3.692532"/>
      <trkpt lat="40.225628" lon="-3.692532"/>
      <trkpt lat="40.225547" lon="-3.692493"/>
      <trkpt lat="40.225547" lon="-3.692493"/>
      <trkpt lat="40.225468" lon="-3.692457"/>
      <trkpt lat="40.225468" lon="-3.692457"/>
      <trkpt lat="40.225387" lon="-3.692425"/>
      <trkpt lat="40.225347" lon="-3.692408"/>
      <trkpt lat="40.225347" lon="-3.692408"/>
      <trkpt lat="40.225263" lon="-3.69237"/>
      <trkpt lat="40.225263" lon="-3.69237"/>
      <trkpt lat="40.22518" lon="-3.692337"/>
      <trkpt lat="40.225138" lon="-3.692322"/>
      <trkpt lat="40.225138" lon="-3.692322"/>
      <trkpt lat="40.225057" lon="-3.692292"/>
      <trkpt lat="40.225057" lon="-3.692292"/>
      <trkpt lat="40.224973" lon="-3.692265"/>
      <trkpt lat="40.224932" lon="-3.692252"/>
      <trkpt lat="40.224892" lon="-3.692237"/>
      <trkpt lat="40.224892" lon="-3.692237"/>
      <trkpt lat="40.224812" lon="-3.692212"/>
      <trkpt lat="40.224812" lon="-3.692212"/>
      <trkpt lat="40.224735" lon="-3.692187"/>
      <trkpt lat="40.224735" lon="-3.692187"/>
      <trkpt lat="40.224663" lon="-3.692163"/>
      <trkpt lat="40.224663" lon="-3.692163"/>
      <trkpt lat="40.224593" lon="-3.692137"/>
      <trkpt lat="40.224593" lon="-3.692137"/>
      <trkpt lat="40.22453" lon="-3.692113"/>
      <trkpt lat="40.22453" lon="-3.692113"/>
      <trkpt lat="40.224468" lon="-3.692092"/>
      <trkpt lat="40.224468" lon="-3.692092"/>
      <trkpt lat="40.224408" lon="-3.69207"/>
      <trkpt lat="40.224408" lon="-3.69207"/>
      <trkpt lat="40.224347" lon="-3.692043"/>
      <trkpt lat="40.224347" lon="-3.692043"/>
      <trkpt lat="40.224287" lon="-3.692017"/>
      <trkpt lat="40.224287" lon="-3.692017"/>
      <trkpt lat="40.224225" lon="-3.69199"/>
      <trkpt lat="40.224225" lon="-3.69199"/>
      <trkpt lat="40.224165" lon="-3.691965"/>
      <trkpt lat="40.224165" lon="-3.691965"/>
      <trkpt lat="40.224105" lon="-3.691938"/>
      <trkpt lat="40.224105" lon="-3.691938"/>
      <trkpt lat="40.224048" lon="-3.691913"/>
      <trkpt lat="40.224048" lon="-3.691913"/>
      <trkpt lat="40.223993" lon="-3.69189"/>
      <trkpt lat="40.223965" lon="-3.691878"/>
      <trkpt lat="40.223965" lon="-3.691878"/>
      <trkpt lat="40.22391" lon="-3.691855"/>
      <trkpt lat="40.22391" lon="-3.691855"/>
      <trkpt lat="40.223853" lon="-3.69183"/>
      <trkpt lat="40.223853" lon="-3.69183"/>
      <trkpt lat="40.223798" lon="-3.691808"/>
      <trkpt lat="40.22377" lon="-3.691797"/>
      <trkpt lat="40.22377" lon="-3.691797"/>
      <trkpt lat="40.223717" lon="-3.69177"/>
      <trkpt lat="40.223717" lon="-3.69177"/>
      <trkpt lat="40.223662" lon="-3.691745"/>
      <trkpt lat="40.223662" lon="-3.691745"/>
      <trkpt lat="40.223608" lon="-3.691718"/>
      <trkpt lat="40.223608" lon="-3.691718"/>
      <trkpt lat="40.223555" lon="-3.691693"/>
      <trkpt lat="40.223555" lon="-3.691693"/>
      <trkpt lat="40.2235" lon="-3.691668"/>
      <trkpt lat="40.2235" lon="-3.691668"/>
      <trkpt lat="40.223445" lon="-3.691645"/>
      <trkpt lat="40.223445" lon="-3.691645"/>
      <trkpt lat="40.223393" lon="-3.691617"/>
      <trkpt lat="40.223393" lon="-3.691617"/>
      <trkpt lat="40.223343" lon="-3.691587"/>
      <trkpt lat="40.223343" lon="-3.691587"/>
      <trkpt lat="40.223293" lon="-3.691557"/>
      <trkpt lat="40.223293" lon="-3.691557"/>
      <trkpt lat="40.223242" lon="-3.691527"/>
      <trkpt lat="40.223242" lon="-3.691527"/>
      <trkpt lat="40.223183" lon="-3.691495"/>
      <trkpt lat="40.223153" lon="-3.691478"/>
      <trkpt lat="40.223153" lon="-3.691478"/>
      <trkpt lat="40.22309" lon="-3.69144"/>
      <trkpt lat="40.22309" lon="-3.69144"/>
      <trkpt lat="40.223022" lon="-3.691398"/>
      <trkpt lat="40.223022" lon="-3.691398"/>
      <trkpt lat="40.222953" lon="-3.691348"/>
      <trkpt lat="40.222913" lon="-3.691322"/>
      <trkpt lat="40.222913" lon="-3.691322"/>
      <trkpt lat="40.222828" lon="-3.691258"/>
      <trkpt lat="40.222828" lon="-3.691258"/>
      <trkpt lat="40.222735" lon="-3.691183"/>
      <trkpt lat="40.222685" lon="-3.691145"/>
      <trkpt lat="40.222685" lon="-3.691145"/>
      <trkpt lat="40.222575" lon="-3.691065"/>
      <trkpt lat="40.222575" lon="-3.691065"/>
      <trkpt lat="40.22246" lon="-3.690973"/>
      <trkpt lat="40.222402" lon="-3.690925"/>
      <trkpt lat="40.222402" lon="-3.690925"/>
      <trkpt lat="40.222277" lon="-3.690822"/>
      <trkpt lat="40.222277" lon="-3.690822"/>
      <trkpt lat="40.222148" lon="-3.690718"/>
      <trkpt lat="40.222148" lon="-3.690718"/>
      <trkpt lat="40.22202" lon="-3.690615"/>
      <trkpt lat="40.22202" lon="-3.690615"/>
      <trkpt lat="40.221893" lon="-3.690513"/>
      <trkpt lat="40.221893" lon="-3.690513"/>
      <trkpt lat="40.221767" lon="-3.690415"/>
      <trkpt lat="40.221767" lon="-3.690415"/>
      <trkpt lat="40.221648" lon="-3.690327"/>
      <trkpt lat="40.221648" lon="-3.690327"/>
      <trkpt lat="40.221533" lon="-3.690252"/>
      <trkpt lat="40.221533" lon="-3.690252"/>
      <trkpt lat="40.221418" lon="-3.690177"/>
      <trkpt lat="40.221418" lon="-3.690177"/>
      <trkpt lat="40.221305" lon="-3.690092"/>
      <trkpt lat="40.221305" lon="-3.690092"/>
      <trkpt lat="40.221197" lon="-3.690007"/>
      <trkpt lat="40.221197" lon="-3.690007"/>
      <trkpt lat="40.221093" lon="-3.689932"/>
      <trkpt lat="40.221093" lon="-3.689932"/>
      <trkpt lat="40.220995" lon="-3.689868"/>
      <trkpt lat="40.220995" lon="-3.689868"/>
      <trkpt lat="40.220908" lon="-3.68981"/>
      <trkpt lat="40.220908" lon="-3.68981"/>
      <trkpt lat="40.220827" lon="-3.689753"/>
      <trkpt lat="40.220827" lon="-3.689753"/>
      <trkpt lat="40.220747" lon="-3.689698"/>
      <trkpt lat="40.220747" lon="-3.689698"/>
      <trkpt lat="40.220667" lon="-3.689647"/>
      <trkpt lat="40.220667" lon="-3.689647"/>
      <trkpt lat="40.220582" lon="-3.689587"/>
      <trkpt lat="40.220582" lon="-3.689587"/>
      <trkpt lat="40.2205" lon="-3.689532"/>
      <trkpt lat="40.2205" lon="-3.689532"/>
      <trkpt lat="40.220423" lon="-3.689473"/>
      <trkpt lat="40.220423" lon="-3.689473"/>
      <trkpt lat="40.22035" lon="-3.689413"/>
      <trkpt lat="40.22035" lon="-3.689413"/>
      <trkpt lat="40.220273" lon="-3.689355"/>
      <trkpt lat="40.220273" lon="-3.689355"/>
      <trkpt lat="40.220192" lon="-3.689292"/>
      <trkpt lat="40.220192" lon="-3.689292"/>
      <trkpt lat="40.220108" lon="-3.689222"/>
      <trkpt lat="40.220108" lon="-3.689222"/>
      <trkpt lat="40.220025" lon="-3.689143"/>
      <trkpt lat="40.220025" lon="-3.689143"/>
      <trkpt lat="40.219947" lon="-3.689063"/>
      <trkpt lat="40.219947" lon="-3.689063"/>
      <trkpt lat="40.219867" lon="-3.688983"/>
      <trkpt lat="40.219867" lon="-3.688983"/>
      <trkpt lat="40.219785" lon="-3.688895"/>
      <trkpt lat="40.219743" lon="-3.688848"/>
      <trkpt lat="40.219743" lon="-3.688848"/>
      <trkpt lat="40.21966" lon="-3.688753"/>
      <trkpt lat="40.21966" lon="-3.688753"/>
      <trkpt lat="40.219572" lon="-3.688658"/>
      <trkpt lat="40.219528" lon="-3.68861"/>
      <trkpt lat="40.219528" lon="-3.68861"/>
      <trkpt lat="40.21944" lon="-3.688508"/>
      <trkpt lat="40.21944" lon="-3.688508"/>
      <trkpt lat="40.219347" lon="-3.6884"/>
      <trkpt lat="40.219347" lon="-3.6884"/>
      <trkpt lat="40.219245" lon="-3.68829"/>
      <trkpt lat="40.219245" lon="-3.68829"/>
      <trkpt lat="40.21913" lon="-3.688207"/>
      <trkpt lat="40.21913" lon="-3.688207"/>
      <trkpt lat="40.21901" lon="-3.688135"/>
      <trkpt lat="40.21901" lon="-3.688135"/>
      <trkpt lat="40.218888" lon="-3.688073"/>
      <trkpt lat="40.218888" lon="-3.688073"/>
      <trkpt lat="40.218768" lon="-3.688028"/>
      <trkpt lat="40.218768" lon="-3.688028"/>
      <trkpt lat="40.218648" lon="-3.688"/>
      <trkpt lat="40.218648" lon="-3.688"/>
      <trkpt lat="40.218527" lon="-3.687983"/>
      <trkpt lat="40.218527" lon="-3.687983"/>
      <trkpt lat="40.218407" lon="-3.687962"/>
      <trkpt lat="40.218407" lon="-3.687962"/>
      <trkpt lat="40.218292" lon="-3.687942"/>
      <trkpt lat="40.218292" lon="-3.687942"/>
      <trkpt lat="40.21818" lon="-3.687912"/>
      <trkpt lat="40.21818" lon="-3.687912"/>
      <trkpt lat="40.21807" lon="-3.687873"/>
      <trkpt lat="40.21807" lon="-3.687873"/>
      <trkpt lat="40.217965" lon="-3.687827"/>
      <trkpt lat="40.217965" lon="-3.687827"/>
      <trkpt lat="40.217868" lon="-3.687775"/>
      <trkpt lat="40.217868" lon="-3.687775"/>
      <trkpt lat="40.217775" lon="-3.687723"/>
      <trkpt lat="40.217775" lon="-3.687723"/>
      <trkpt lat="40.217682" lon="-3.687673"/>
      <trkpt lat="40.217682" lon="-3.687673"/>
      <trkpt lat="40.21759" lon="-3.687625"/>
      <trkpt lat="40.21759" lon="-3.687625"/>
      <trkpt lat="40.217508" lon="-3.687578"/>
      <trkpt lat="40.217508" lon="-3.687578"/>
      <trkpt lat="40.217427" lon="-3.687542"/>
      <trkpt lat="40.217427" lon="-3.687542"/>
      <trkpt lat="40.217342" lon="-3.68751"/>
      <trkpt lat="40.217342" lon="-3.68751"/>
      <trkpt lat="40.217257" lon="-3.687473"/>
      <trkpt lat="40.217257" lon="-3.687473"/>
      <trkpt lat="40.217177" lon="-3.687435"/>
      <trkpt lat="40.217177" lon="-3.687435"/>
      <trkpt lat="40.217098" lon="-3.687397"/>
      <trkpt lat="40.217098" lon="-3.687397"/>
      <trkpt lat="40.217023" lon="-3.687355"/>
      <trkpt lat="40.217023" lon="-3.687355"/>
      <trkpt lat="40.216948" lon="-3.687305"/>
      <trkpt lat="40.216948" lon="-3.687305"/>
      <trkpt lat="40.216873" lon="-3.68725"/>
      <trkpt lat="40.216873" lon="-3.68725"/>
      <trkpt lat="40.216793" lon="-3.687212"/>
      <trkpt lat="40.216793" lon="-3.687212"/>
      <trkpt lat="40.216718" lon="-3.687173"/>
      <trkpt lat="40.216718" lon="-3.687173"/>
      <trkpt lat="40.216677" lon="-3.687098"/>
      <trkpt lat="40.216677" lon="-3.687098"/>
      <trkpt lat="40.216675" lon="-3.687002"/>
      <trkpt lat="40.216682" lon="-3.68695"/>
      <trkpt lat="40.216682" lon="-3.68695"/>
      <trkpt lat="40.216702" lon="-3.686837"/>
      <trkpt lat="40.216712" lon="-3.686775"/>
      <trkpt lat="40.216712" lon="-3.686775"/>
      <trkpt lat="40.216733" lon="-3.68665"/>
      <trkpt lat="40.216743" lon="-3.686588"/>
      <trkpt lat="40.216743" lon="-3.686588"/>
      <trkpt lat="40.21676" lon="-3.686465"/>
      <trkpt lat="40.21677" lon="-3.686403"/>
      <trkpt lat="40.216778" lon="-3.686338"/>
      <trkpt lat="40.216778" lon="-3.686338"/>
      <trkpt lat="40.2168" lon="-3.68621"/>
      <trkpt lat="40.2168" lon="-3.68621"/>
      <trkpt lat="40.216823" lon="-3.68608"/>
      <trkpt lat="40.216832" lon="-3.686015"/>
      <trkpt lat="40.216832" lon="-3.686015"/>
      <trkpt lat="40.216847" lon="-3.685885"/>
      <trkpt lat="40.216847" lon="-3.685885"/>
      <trkpt lat="40.216865" lon="-3.685753"/>
      <trkpt lat="40.216865" lon="-3.685753"/>
      <trkpt lat="40.216887" lon="-3.685622"/>
      <trkpt lat="40.216897" lon="-3.685553"/>
      <trkpt lat="40.216897" lon="-3.685553"/>
      <trkpt lat="40.216907" lon="-3.685422"/>
      <trkpt lat="40.216898" lon="-3.685365"/>
      <trkpt lat="40.216898" lon="-3.685365"/>
      <trkpt lat="40.216873" lon="-3.68527"/>
      <trkpt lat="40.216873" lon="-3.68527"/>
      <trkpt lat="40.216845" lon="-3.685223"/>
      <trkpt lat="40.216845" lon="-3.685223"/>
      <trkpt lat="40.216837" lon="-3.685202"/>
      <trkpt lat="40.216837" lon="-3.685202"/>
      <trkpt lat="40.216832" lon="-3.685198"/>
      <trkpt lat="40.216832" lon="-3.685198"/>
      <trkpt lat="40.216752" lon="-3.685142"/>
      <trkpt lat="40.216752" lon="-3.685142"/>
      <trkpt lat="40.216688" lon="-3.685122"/>
      <trkpt lat="40.216652" lon="-3.685108"/>
      <trkpt lat="40.216652" lon="-3.685108"/>
      <trkpt lat="40.216573" lon="-3.68507"/>
      <trkpt lat="40.216533" lon="-3.685052"/>
      <trkpt lat="40.216533" lon="-3.685052"/>
      <trkpt lat="40.216452" lon="-3.685013"/>
      <trkpt lat="40.216407" lon="-3.684992"/>
      <trkpt lat="40.216407" lon="-3.684992"/>
      <trkpt lat="40.216315" lon="-3.684942"/>
      <trkpt lat="40.216315" lon="-3.684942"/>
      <trkpt lat="40.216223" lon="-3.684883"/>
      <trkpt lat="40.216178" lon="-3.684853"/>
      <trkpt lat="40.216178" lon="-3.684853"/>
      <trkpt lat="40.216092" lon="-3.68479"/>
      <trkpt lat="40.216092" lon="-3.68479"/>
      <trkpt lat="40.216013" lon="-3.68473"/>
      <trkpt lat="40.216013" lon="-3.68473"/>
      <trkpt lat="40.215937" lon="-3.684672"/>
      <trkpt lat="40.215937" lon="-3.684672"/>
      <trkpt lat="40.215863" lon="-3.68461"/>
      <trkpt lat="40.215863" lon="-3.68461"/>
      <trkpt lat="40.2158" lon="-3.684587"/>
      <trkpt lat="40.2158" lon="-3.684587"/>
      <trkpt lat="40.21577" lon="-3.684658"/>
      <trkpt lat="40.215768" lon="-3.684707"/>
      <trkpt lat="40.215768" lon="-3.684707"/>
      <trkpt lat="40.215758" lon="-3.684795"/>
      <trkpt lat="40.215758" lon="-3.684795"/>
      <trkpt lat="40.215728" lon="-3.684867"/>
      <trkpt lat="40.215728" lon="-3.684867"/>
      <trkpt lat="40.215683" lon="-3.68493"/>
      <trkpt lat="40.215683" lon="-3.68493"/>
      <trkpt lat="40.215625" lon="-3.68498"/>
      <trkpt lat="40.215625" lon="-3.68498"/>
      <trkpt lat="40.215553" lon="-3.685005"/>
      <trkpt lat="40.215553" lon="-3.685005"/>
      <trkpt lat="40.215483" lon="-3.685025"/>
      <trkpt lat="40.215483" lon="-3.685025"/>
      <trkpt lat="40.215418" lon="-3.68502"/>
      <trkpt lat="40.215418" lon="-3.68502"/>
      <trkpt lat="40.215337" lon="-3.684997"/>
      <trkpt lat="40.215337" lon="-3.684997"/>
      <trkpt lat="40.215257" lon="-3.685"/>
      <trkpt lat="40.215257" lon="-3.685"/>
      <trkpt lat="40.21518" lon="-3.684998"/>
      <trkpt lat="40.21518" lon="-3.684998"/>
      <trkpt lat="40.215103" lon="-3.68499"/>
      <trkpt lat="40.215103" lon="-3.68499"/>
      <trkpt lat="40.21502" lon="-3.684978"/>
      <trkpt lat="40.21502" lon="-3.684978"/>
      <trkpt lat="40.214937" lon="-3.684965"/>
      <trkpt lat="40.214937" lon="-3.684965"/>
      <trkpt lat="40.21485" lon="-3.684953"/>
      <trkpt lat="40.21485" lon="-3.684953"/>
      <trkpt lat="40.214763" lon="-3.684937"/>
      <trkpt lat="40.214763" lon="-3.684937"/>
      <trkpt lat="40.214678" lon="-3.684923"/>
      <trkpt lat="40.214678" lon="-3.684923"/>
      <trkpt lat="40.214592" lon="-3.684907"/>
      <trkpt lat="40.214592" lon="-3.684907"/>
      <trkpt lat="40.214503" lon="-3.684893"/>
      <trkpt lat="40.214503" lon="-3.684893"/>
      <trkpt lat="40.214412" lon="-3.684875"/>
      <trkpt lat="40.214412" lon="-3.684875"/>
      <trkpt lat="40.214322" lon="-3.68486"/>
      <trkpt lat="40.214277" lon="-3.684852"/>
      <trkpt lat="40.214277" lon="-3.684852"/>
      <trkpt lat="40.214193" lon="-3.684837"/>
      <trkpt lat="40.214193" lon="-3.684837"/>
      <trkpt lat="40.214108" lon="-3.68482"/>
      <trkpt lat="40.214068" lon="-3.684812"/>
      <trkpt lat="40.214068" lon="-3.684812"/>
      <trkpt lat="40.213987" lon="-3.684802"/>
      <trkpt lat="40.213987" lon="-3.684802"/>
      <trkpt lat="40.213908" lon="-3.684792"/>
      <trkpt lat="40.213908" lon="-3.684792"/>
      <trkpt lat="40.213828" lon="-3.684778"/>
      <trkpt lat="40.213828" lon="-3.684778"/>
      <trkpt lat="40.213753" lon="-3.684765"/>
      <trkpt lat="40.213753" lon="-3.684765"/>
      <trkpt lat="40.213678" lon="-3.684748"/>
      <trkpt lat="40.213678" lon="-3.684748"/>
      <trkpt lat="40.213605" lon="-3.684738"/>
      <trkpt lat="40.213605" lon="-3.684738"/>
      <trkpt lat="40.21353" lon="-3.684727"/>
      <trkpt lat="40.21353" lon="-3.684727"/>
      <trkpt lat="40.213457" lon="-3.684715"/>
      <trkpt lat="40.213457" lon="-3.684715"/>
      <trkpt lat="40.213383" lon="-3.684707"/>
      <trkpt lat="40.213383" lon="-3.684707"/>
      <trkpt lat="40.213312" lon="-3.684697"/>
      <trkpt lat="40.213312" lon="-3.684697"/>
      <trkpt lat="40.213237" lon="-3.684685"/>
      <trkpt lat="40.213237" lon="-3.684685"/>
      <trkpt lat="40.213162" lon="-3.684675"/>
      <trkpt lat="40.213162" lon="-3.684675"/>
      <trkpt lat="40.213085" lon="-3.684663"/>
      <trkpt lat="40.213085" lon="-3.684663"/>
      <trkpt lat="40.21301" lon="-3.684652"/>
      <trkpt lat="40.21301" lon="-3.684652"/>
      <trkpt lat="40.212932" lon="-3.684642"/>
      <trkpt lat="40.212895" lon="-3.684638"/>
      <trkpt lat="40.212895" lon="-3.684638"/>
      <trkpt lat="40.212818" lon="-3.684627"/>
      <trkpt lat="40.212818" lon="-3.684627"/>
      <trkpt lat="40.21274" lon="-3.684617"/>
      <trkpt lat="40.21274" lon="-3.684617"/>
      <trkpt lat="40.212662" lon="-3.684605"/>
      <trkpt lat="40.212623" lon="-3.684598"/>
      <trkpt lat="40.212623" lon="-3.684598"/>
      <trkpt lat="40.212543" lon="-3.684587"/>
      <trkpt lat="40.212543" lon="-3.684587"/>
      <trkpt lat="40.212467" lon="-3.684585"/>
      <trkpt lat="40.212425" lon="-3.684583"/>
      <trkpt lat="40.212425" lon="-3.684583"/>
      <trkpt lat="40.212343" lon="-3.684582"/>
      <trkpt lat="40.212343" lon="-3.684582"/>
      <trkpt lat="40.21226" lon="-3.68458"/>
      <trkpt lat="40.21226" lon="-3.68458"/>
      <trkpt lat="40.212175" lon="-3.684577"/>
      <trkpt lat="40.212135" lon="-3.684577"/>
      <trkpt lat="40.212135" lon="-3.684577"/>
      <trkpt lat="40.212052" lon="-3.684572"/>
      <trkpt lat="40.212052" lon="-3.684572"/>
      <trkpt lat="40.211968" lon="-3.684567"/>
      <trkpt lat="40.211968" lon="-3.684567"/>
      <trkpt lat="40.211883" lon="-3.684563"/>
      <trkpt lat="40.211883" lon="-3.684563"/>
      <trkpt lat="40.2118" lon="-3.684563"/>
      <trkpt lat="40.2118" lon="-3.684563"/>
      <trkpt lat="40.21172" lon="-3.684563"/>
      <trkpt lat="40.21172" lon="-3.684563"/>
      <trkpt lat="40.211638" lon="-3.684557"/>
      <trkpt lat="40.211638" lon="-3.684557"/>
      <trkpt lat="40.211557" lon="-3.684552"/>
      <trkpt lat="40.211517" lon="-3.684547"/>
      <trkpt lat="40.211517" lon="-3.684547"/>
      <trkpt lat="40.211427" lon="-3.684537"/>
      <trkpt lat="40.211383" lon="-3.684528"/>
      <trkpt lat="40.211383" lon="-3.684528"/>
      <trkpt lat="40.2113" lon="-3.68452"/>
      <trkpt lat="40.2113" lon="-3.68452"/>
      <trkpt lat="40.211217" lon="-3.684508"/>
      <trkpt lat="40.211217" lon="-3.684508"/>
      <trkpt lat="40.211143" lon="-3.684503"/>
      <trkpt lat="40.211143" lon="-3.684503"/>
      <trkpt lat="40.211077" lon="-3.684497"/>
      <trkpt lat="40.211077" lon="-3.684497"/>
      <trkpt lat="40.21103" lon="-3.684495"/>
      <trkpt lat="40.21101" lon="-3.684503"/>
      <trkpt lat="40.21101" lon="-3.684503"/>
      <trkpt lat="40.210965" lon="-3.684555"/>
      <trkpt lat="40.210943" lon="-3.684595"/>
      <trkpt lat="40.210943" lon="-3.684595"/>
      <trkpt lat="40.2109" lon="-3.684683"/>
      <trkpt lat="40.2109" lon="-3.684683"/>
      <trkpt lat="40.210872" lon="-3.684783"/>
      <trkpt lat="40.210872" lon="-3.684783"/>
      <trkpt lat="40.21085" lon="-3.684877"/>
      <trkpt lat="40.21085" lon="-3.684877"/>
      <trkpt lat="40.210842" lon="-3.684978"/>
      <trkpt lat="40.210842" lon="-3.684978"/>
      <trkpt lat="40.210838" lon="-3.685075"/>
      <trkpt lat="40.210838" lon="-3.685075"/>
      <trkpt lat="40.210837" lon="-3.685177"/>
      <trkpt lat="40.210837" lon="-3.685177"/>
      <trkpt lat="40.210833" lon="-3.68528"/>
      <trkpt lat="40.210833" lon="-3.68528"/>
      <trkpt lat="40.21083" lon="-3.685382"/>
      <trkpt lat="40.21083" lon="-3.685382"/>
      <trkpt lat="40.210825" lon="-3.68548"/>
      <trkpt lat="40.210825" lon="-3.68548"/>
      <trkpt lat="40.210818" lon="-3.685577"/>
      <trkpt lat="40.210818" lon="-3.685577"/>
      <trkpt lat="40.210818" lon="-3.685677"/>
      <trkpt lat="40.210818" lon="-3.685677"/>
      <trkpt lat="40.210818" lon="-3.685778"/>
      <trkpt lat="40.210818" lon="-3.68583"/>
      <trkpt lat="40.210818" lon="-3.68583"/>
      <trkpt lat="40.210822" lon="-3.685933"/>
      <trkpt lat="40.21083" lon="-3.685983"/>
      <trkpt lat="40.21083" lon="-3.685983"/>
      <trkpt lat="40.210867" lon="-3.686072"/>
      <trkpt lat="40.210867" lon="-3.686072"/>
      <trkpt lat="40.21092" lon="-3.686142"/>
      <trkpt lat="40.21092" lon="-3.686142"/>
      <trkpt lat="40.210965" lon="-3.686215"/>
      <trkpt lat="40.210965" lon="-3.686215"/>
      <trkpt lat="40.210987" lon="-3.686305"/>
      <trkpt lat="40.210987" lon="-3.686305"/>
      <trkpt lat="40.21099" lon="-3.686402"/>
      <trkpt lat="40.21099" lon="-3.686402"/>
      <trkpt lat="40.21097" lon="-3.686492"/>
      <trkpt lat="40.21097" lon="-3.686492"/>
      <trkpt lat="40.210928" lon="-3.686572"/>
      <trkpt lat="40.210928" lon="-3.686572"/>
      <trkpt lat="40.210885" lon="-3.686653"/>
      <trkpt lat="40.210865" lon="-3.6867"/>
      <trkpt lat="40.210852" lon="-3.686752"/>
      <trkpt lat="40.210852" lon="-3.686752"/>
      <trkpt lat="40.210842" lon="-3.686857"/>
      <trkpt lat="40.210842" lon="-3.686857"/>
      <trkpt lat="40.21084" lon="-3.68696"/>
      <trkpt lat="40.21084" lon="-3.68696"/>
      <trkpt lat="40.210838" lon="-3.687063"/>
      <trkpt lat="40.210838" lon="-3.687063"/>
      <trkpt lat="40.210828" lon="-3.687165"/>
      <trkpt lat="40.210825" lon="-3.687217"/>
      <trkpt lat="40.210825" lon="-3.687217"/>
      <trkpt lat="40.21082" lon="-3.687323"/>
      <trkpt lat="40.210817" lon="-3.687377"/>
      <trkpt lat="40.210817" lon="-3.687377"/>
      <trkpt lat="40.210812" lon="-3.687485"/>
      <trkpt lat="40.210812" lon="-3.687485"/>
      <trkpt lat="40.210805" lon="-3.687597"/>
      <trkpt lat="40.210805" lon="-3.687597"/>
      <trkpt lat="40.210798" lon="-3.687708"/>
      <trkpt lat="40.210798" lon="-3.687708"/>
      <trkpt lat="40.210788" lon="-3.687813"/>
      <trkpt lat="40.210788" lon="-3.687813"/>
      <trkpt lat="40.210778" lon="-3.687917"/>
      <trkpt lat="40.210778" lon="-3.687917"/>
      <trkpt lat="40.210768" lon="-3.688018"/>
      <trkpt lat="40.210768" lon="-3.688018"/>
      <trkpt lat="40.210757" lon="-3.688117"/>
      <trkpt lat="40.210757" lon="-3.688117"/>
      <trkpt lat="40.210753" lon="-3.688218"/>
      <trkpt lat="40.210752" lon="-3.688267"/>
      <trkpt lat="40.210742" lon="-3.688313"/>
      <trkpt lat="40.210742" lon="-3.688313"/>
      <trkpt lat="40.210725" lon="-3.688397"/>
      <trkpt lat="40.210725" lon="-3.688397"/>
      <trkpt lat="40.210697" lon="-3.688475"/>
      <trkpt lat="40.210697" lon="-3.688475"/>
      <trkpt lat="40.210667" lon="-3.688562"/>
      <trkpt lat="40.210667" lon="-3.688562"/>
      <trkpt lat="40.21064" lon="-3.688657"/>
      <trkpt lat="40.210628" lon="-3.688705"/>
      <trkpt lat="40.210628" lon="-3.688705"/>
      <trkpt lat="40.210597" lon="-3.6888"/>
      <trkpt lat="40.21058" lon="-3.688848"/>
      <trkpt lat="40.21058" lon="-3.688848"/>
      <trkpt lat="40.210548" lon="-3.688943"/>
      <trkpt lat="40.210548" lon="-3.688943"/>
      <trkpt lat="40.210515" lon="-3.689035"/>
      <trkpt lat="40.210497" lon="-3.689082"/>
      <trkpt lat="40.210478" lon="-3.689127"/>
      <trkpt lat="40.210478" lon="-3.689127"/>
      <trkpt lat="40.210438" lon="-3.689218"/>
      <trkpt lat="40.210438" lon="-3.689218"/>
      <trkpt lat="40.210397" lon="-3.68931"/>
      <trkpt lat="40.210377" lon="-3.689357"/>
      <trkpt lat="40.210357" lon="-3.689403"/>
      <trkpt lat="40.210357" lon="-3.689403"/>
      <trkpt lat="40.210308" lon="-3.68949"/>
      <trkpt lat="40.210308" lon="-3.68949"/>
      <trkpt lat="40.210253" lon="-3.689573"/>
      <trkpt lat="40.210253" lon="-3.689573"/>
      <trkpt lat="40.210202" lon="-3.689668"/>
      <trkpt lat="40.210202" lon="-3.689668"/>
      <trkpt lat="40.210145" lon="-3.689757"/>
      <trkpt lat="40.210145" lon="-3.689757"/>
      <trkpt lat="40.210087" lon="-3.689843"/>
      <trkpt lat="40.210087" lon="-3.689843"/>
      <trkpt lat="40.210025" lon="-3.689928"/>
      <trkpt lat="40.210025" lon="-3.689928"/>
      <trkpt lat="40.209963" lon="-3.690013"/>
      <trkpt lat="40.209963" lon="-3.690013"/>
      <trkpt lat="40.209902" lon="-3.690097"/>
      <trkpt lat="40.209902" lon="-3.690097"/>
      <trkpt lat="40.209837" lon="-3.690177"/>
      <trkpt lat="40.209837" lon="-3.690177"/>
      <trkpt lat="40.20977" lon="-3.690262"/>
      <trkpt lat="40.20977" lon="-3.690262"/>
      <trkpt lat="40.209708" lon="-3.690337"/>
      <trkpt lat="40.209708" lon="-3.690337"/>
      <trkpt lat="40.209675" lon="-3.690372"/>
      <trkpt lat="40.209675" lon="-3.690372"/>
      <trkpt lat="40.209658" lon="-3.690393"/>
      <trkpt lat="40.209658" lon="-3.690393"/>
      <trkpt lat="40.209637" lon="-3.690415"/>
      <trkpt lat="40.209637" lon="-3.690415"/>
      <trkpt lat="40.209607" lon="-3.690455"/>
      <trkpt lat="40.209607" lon="-3.690455"/>
      <trkpt lat="40.20958" lon="-3.690517"/>
      <trkpt lat="40.20958" lon="-3.690517"/>
      <trkpt lat="40.209573" lon="-3.690597"/>
      <trkpt lat="40.209573" lon="-3.690597"/>
      <trkpt lat="40.209588" lon="-3.690688"/>
      <trkpt lat="40.209588" lon="-3.690688"/>
      <trkpt lat="40.209597" lon="-3.690788"/>
      <trkpt lat="40.209597" lon="-3.690788"/>
      <trkpt lat="40.209587" lon="-3.690892"/>
      <trkpt lat="40.209587" lon="-3.690892"/>
      <trkpt lat="40.209552" lon="-3.69099"/>
      <trkpt lat="40.209523" lon="-3.691032"/>
      <trkpt lat="40.209523" lon="-3.691032"/>
      <trkpt lat="40.209452" lon="-3.691108"/>
      <trkpt lat="40.209407" lon="-3.691137"/>
      <trkpt lat="40.209407" lon="-3.691137"/>
      <trkpt lat="40.2093" lon="-3.691165"/>
      <trkpt lat="40.2093" lon="-3.691165"/>
      <trkpt lat="40.20918" lon="-3.69117"/>
      <trkpt lat="40.209122" lon="-3.691198"/>
      <trkpt lat="40.209122" lon="-3.691198"/>
      <trkpt lat="40.209022" lon="-3.691313"/>
      <trkpt lat="40.208972" lon="-3.691378"/>
      <trkpt lat="40.208972" lon="-3.691378"/>
      <trkpt lat="40.20886" lon="-3.6915"/>
      <trkpt lat="40.20886" lon="-3.6915"/>
      <trkpt lat="40.208735" lon="-3.691617"/>
      <trkpt lat="40.208735" lon="-3.691617"/>
      <trkpt lat="40.208602" lon="-3.691735"/>
      <trkpt lat="40.208602" lon="-3.691735"/>
      <trkpt lat="40.208467" lon="-3.691858"/>
      <trkpt lat="40.208395" lon="-3.691917"/>
      <trkpt lat="40.208395" lon="-3.691917"/>
      <trkpt lat="40.208243" lon="-3.692017"/>
      <trkpt lat="40.208163" lon="-3.692053"/>
      <trkpt lat="40.208163" lon="-3.692053"/>
      <trkpt lat="40.208" lon="-3.692107"/>
      <trkpt lat="40.208" lon="-3.692107"/>
      <trkpt lat="40.20784" lon="-3.692138"/>
      <trkpt lat="40.20784" lon="-3.692138"/>
      <trkpt lat="40.207682" lon="-3.692155"/>
      <trkpt lat="40.207682" lon="-3.692155"/>
      <trkpt lat="40.207523" lon="-3.69216"/>
      <trkpt lat="40.207523" lon="-3.69216"/>
      <trkpt lat="40.207368" lon="-3.692158"/>
      <trkpt lat="40.207368" lon="-3.692158"/>
      <trkpt lat="40.207215" lon="-3.69216"/>
      <trkpt lat="40.207215" lon="-3.69216"/>
      <trkpt lat="40.207065" lon="-3.69216"/>
      <trkpt lat="40.207065" lon="-3.69216"/>
      <trkpt lat="40.206918" lon="-3.692162"/>
      <trkpt lat="40.206845" lon="-3.692162"/>
      <trkpt lat="40.206845" lon="-3.692162"/>
      <trkpt lat="40.2067" lon="-3.692157"/>
      <trkpt lat="40.2067" lon="-3.692157"/>
      <trkpt lat="40.206558" lon="-3.692152"/>
      <trkpt lat="40.206558" lon="-3.692152"/>
      <trkpt lat="40.206418" lon="-3.692153"/>
      <trkpt lat="40.20635" lon="-3.692153"/>
      <trkpt lat="40.20635" lon="-3.692153"/>
      <trkpt lat="40.206218" lon="-3.692153"/>
      <trkpt lat="40.206218" lon="-3.692153"/>
      <trkpt lat="40.206097" lon="-3.692182"/>
      <trkpt lat="40.206042" lon="-3.692217"/>
      <trkpt lat="40.205982" lon="-3.692252"/>
      <trkpt lat="40.205982" lon="-3.692252"/>
      <trkpt lat="40.20585" lon="-3.692258"/>
      <trkpt lat="40.20585" lon="-3.692258"/>
      <trkpt lat="40.205733" lon="-3.692193"/>
      <trkpt lat="40.205733" lon="-3.692193"/>
      <trkpt lat="40.205618" lon="-3.692145"/>
      <trkpt lat="40.205618" lon="-3.692145"/>
      <trkpt lat="40.205498" lon="-3.692145"/>
      <trkpt lat="40.205498" lon="-3.692145"/>
      <trkpt lat="40.20538" lon="-3.692145"/>
      <trkpt lat="40.205325" lon="-3.692145"/>
      <trkpt lat="40.20527" lon="-3.692145"/>
      <trkpt lat="40.20527" lon="-3.692145"/>
      <trkpt lat="40.205165" lon="-3.692142"/>
      <trkpt lat="40.205165" lon="-3.692142"/>
      <trkpt lat="40.20506" lon="-3.69214"/>
      <trkpt lat="40.20506" lon="-3.69214"/>
      <trkpt lat="40.204957" lon="-3.692143"/>
      <trkpt lat="40.204957" lon="-3.692143"/>
      <trkpt lat="40.204853" lon="-3.692145"/>
      <trkpt lat="40.204853" lon="-3.692145"/>
      <trkpt lat="40.20475" lon="-3.692143"/>
      <trkpt lat="40.20475" lon="-3.692143"/>
      <trkpt lat="40.204647" lon="-3.692147"/>
      <trkpt lat="40.204647" lon="-3.692147"/>
      <trkpt lat="40.204543" lon="-3.692143"/>
      <trkpt lat="40.204543" lon="-3.692143"/>
      <trkpt lat="40.204437" lon="-3.692142"/>
      <trkpt lat="40.204437" lon="-3.692142"/>
      <trkpt lat="40.204333" lon="-3.692138"/>
      <trkpt lat="40.204333" lon="-3.692138"/>
      <trkpt lat="40.204227" lon="-3.692138"/>
      <trkpt lat="40.204227" lon="-3.692138"/>
      <trkpt lat="40.204117" lon="-3.69214"/>
      <trkpt lat="40.204117" lon="-3.69214"/>
      <trkpt lat="40.204002" lon="-3.692138"/>
      <trkpt lat="40.204002" lon="-3.692138"/>
      <trkpt lat="40.203883" lon="-3.692135"/>
      <trkpt lat="40.203883" lon="-3.692135"/>
      <trkpt lat="40.20376" lon="-3.692137"/>
      <trkpt lat="40.20376" lon="-3.692137"/>
      <trkpt lat="40.203635" lon="-3.692137"/>
      <trkpt lat="40.203635" lon="-3.692137"/>
      <trkpt lat="40.203507" lon="-3.692133"/>
      <trkpt lat="40.203507" lon="-3.692133"/>
      <trkpt lat="40.20338" lon="-3.692135"/>
      <trkpt lat="40.20338" lon="-3.692135"/>
      <trkpt lat="40.203252" lon="-3.692138"/>
      <trkpt lat="40.203252" lon="-3.692138"/>
      <trkpt lat="40.203123" lon="-3.692137"/>
      <trkpt lat="40.20306" lon="-3.692135"/>
      <trkpt lat="40.20306" lon="-3.692135"/>
      <trkpt lat="40.202935" lon="-3.692133"/>
      <trkpt lat="40.202873" lon="-3.692133"/>
      <trkpt lat="40.202873" lon="-3.692133"/>
      <trkpt lat="40.202752" lon="-3.692137"/>
      <trkpt lat="40.202752" lon="-3.692137"/>
      <trkpt lat="40.202633" lon="-3.692137"/>
      <trkpt lat="40.202575" lon="-3.692137"/>
      <trkpt lat="40.202517" lon="-3.692143"/>
      <trkpt lat="40.202517" lon="-3.692143"/>
      <trkpt lat="40.202412" lon="-3.692197"/>
      <trkpt lat="40.202412" lon="-3.692197"/>
      <trkpt lat="40.20232" lon="-3.69227"/>
      <trkpt lat="40.20232" lon="-3.69227"/>
      <trkpt lat="40.20221" lon="-3.692303"/>
      <trkpt lat="40.20221" lon="-3.692303"/>
      <trkpt lat="40.202102" lon="-3.69227"/>
      <trkpt lat="40.202102" lon="-3.69227"/>
      <trkpt lat="40.202018" lon="-3.69221"/>
      <trkpt lat="40.202018" lon="-3.69221"/>
      <trkpt lat="40.201955" lon="-3.692158"/>
      <trkpt lat="40.201955" lon="-3.692158"/>
      <trkpt lat="40.201903" lon="-3.692138"/>
      <trkpt lat="40.201903" lon="-3.692138"/>
      <trkpt lat="40.201845" lon="-3.692138"/>
      <trkpt lat="40.201808" lon="-3.692135"/>
      <trkpt lat="40.20177" lon="-3.69213"/>
      <trkpt lat="40.20177" lon="-3.69213"/>
      <trkpt lat="40.201687" lon="-3.692125"/>
      <trkpt lat="40.201643" lon="-3.692123"/>
      <trkpt lat="40.201598" lon="-3.692125"/>
      <trkpt lat="40.201598" lon="-3.692125"/>
      <trkpt lat="40.20151" lon="-3.692127"/>
      <trkpt lat="40.20151" lon="-3.692127"/>
      <trkpt lat="40.201422" lon="-3.692123"/>
      <trkpt lat="40.201422" lon="-3.692123"/>
      <trkpt lat="40.201335" lon="-3.692127"/>
      <trkpt lat="40.201335" lon="-3.692127"/>
      <trkpt lat="40.201252" lon="-3.692132"/>
      <trkpt lat="40.201252" lon="-3.692132"/>
      <trkpt lat="40.201165" lon="-3.692132"/>
      <trkpt lat="40.201165" lon="-3.692132"/>
      <trkpt lat="40.20108" lon="-3.69213"/>
      <trkpt lat="40.201038" lon="-3.69213"/>
      <trkpt lat="40.200995" lon="-3.692125"/>
      <trkpt lat="40.200995" lon="-3.692125"/>
      <trkpt lat="40.200913" lon="-3.692123"/>
      <trkpt lat="40.200913" lon="-3.692123"/>
      <trkpt lat="40.20083" lon="-3.69212"/>
      <trkpt lat="40.20083" lon="-3.69212"/>
      <trkpt lat="40.200748" lon="-3.692118"/>
      <trkpt lat="40.200748" lon="-3.692118"/>
      <trkpt lat="40.200668" lon="-3.692115"/>
      <trkpt lat="40.200668" lon="-3.692115"/>
      <trkpt lat="40.200592" lon="-3.692115"/>
      <trkpt lat="40.200592" lon="-3.692115"/>
      <trkpt lat="40.200513" lon="-3.692115"/>
      <trkpt lat="40.200513" lon="-3.692115"/>
      <trkpt lat="40.200438" lon="-3.692112"/>
      <trkpt lat="40.200438" lon="-3.692112"/>
      <trkpt lat="40.200367" lon="-3.692113"/>
      <trkpt lat="40.200367" lon="-3.692113"/>
      <trkpt lat="40.200293" lon="-3.69211"/>
      <trkpt lat="40.200293" lon="-3.69211"/>
      <trkpt lat="40.200222" lon="-3.692107"/>
      <trkpt lat="40.200222" lon="-3.692107"/>
      <trkpt lat="40.20015" lon="-3.692102"/>
      <trkpt lat="40.20015" lon="-3.692102"/>
      <trkpt lat="40.200073" lon="-3.692107"/>
      <trkpt lat="40.200073" lon="-3.692107"/>
      <trkpt lat="40.199997" lon="-3.692115"/>
      <trkpt lat="40.199997" lon="-3.692115"/>
      <trkpt lat="40.199923" lon="-3.692122"/>
      <trkpt lat="40.199923" lon="-3.692122"/>
      <trkpt lat="40.19985" lon="-3.692127"/>
      <trkpt lat="40.19985" lon="-3.692127"/>
      <trkpt lat="40.199773" lon="-3.692128"/>
      <trkpt lat="40.199773" lon="-3.692128"/>
      <trkpt lat="40.199703" lon="-3.692138"/>
      <trkpt lat="40.199703" lon="-3.692138"/>
      <trkpt lat="40.199623" lon="-3.69213"/>
      <trkpt lat="40.199623" lon="-3.69213"/>
      <trkpt lat="40.19955" lon="-3.692127"/>
      <trkpt lat="40.19955" lon="-3.692127"/>
      <trkpt lat="40.199477" lon="-3.692128"/>
      <trkpt lat="40.199477" lon="-3.692128"/>
      <trkpt lat="40.199403" lon="-3.692128"/>
      <trkpt lat="40.199403" lon="-3.692128"/>
      <trkpt lat="40.199333" lon="-3.692132"/>
      <trkpt lat="40.199333" lon="-3.692132"/>
      <trkpt lat="40.199263" lon="-3.692138"/>
      <trkpt lat="40.199263" lon="-3.692138"/>
      <trkpt lat="40.19919" lon="-3.69214"/>
      <trkpt lat="40.19919" lon="-3.69214"/>
      <trkpt lat="40.199118" lon="-3.692142"/>
      <trkpt lat="40.199118" lon="-3.692142"/>
      <trkpt lat="40.199048" lon="-3.692148"/>
      <trkpt lat="40.199048" lon="-3.692148"/>
      <trkpt lat="40.19898" lon="-3.692152"/>
      <trkpt lat="40.19898" lon="-3.692152"/>
      <trkpt lat="40.198903" lon="-3.692142"/>
      <trkpt lat="40.198903" lon="-3.692142"/>
      <trkpt lat="40.198835" lon="-3.692138"/>
      <trkpt lat="40.198835" lon="-3.692138"/>
      <trkpt lat="40.19877" lon="-3.69214"/>
      <trkpt lat="40.19877" lon="-3.69214"/>
      <trkpt lat="40.198702" lon="-3.692142"/>
      <trkpt lat="40.198702" lon="-3.692142"/>
      <trkpt lat="40.19864" lon="-3.692178"/>
      <trkpt lat="40.19864" lon="-3.692178"/>
      <trkpt lat="40.198573" lon="-3.692215"/>
      <trkpt lat="40.198573" lon="-3.692215"/>
      <trkpt lat="40.198502" lon="-3.692237"/>
      <trkpt lat="40.198502" lon="-3.692237"/>
      <trkpt lat="40.198425" lon="-3.692225"/>
      <trkpt lat="40.198425" lon="-3.692225"/>
      <trkpt lat="40.198355" lon="-3.692192"/>
      <trkpt lat="40.198355" lon="-3.692192"/>
      <trkpt lat="40.198288" lon="-3.692145"/>
      <trkpt lat="40.198288" lon="-3.692145"/>
      <trkpt lat="40.198215" lon="-3.692118"/>
      <trkpt lat="40.198215" lon="-3.692118"/>
      <trkpt lat="40.19814" lon="-3.692113"/>
      <trkpt lat="40.19814" lon="-3.692113"/>
      <trkpt lat="40.198063" lon="-3.692108"/>
      <trkpt lat="40.198063" lon="-3.692108"/>
      <trkpt lat="40.197987" lon="-3.69211"/>
      <trkpt lat="40.19795" lon="-3.692108"/>
      <trkpt lat="40.197912" lon="-3.69211"/>
      <trkpt lat="40.197912" lon="-3.69211"/>
      <trkpt lat="40.197833" lon="-3.69211"/>
      <trkpt lat="40.197833" lon="-3.69211"/>
      <trkpt lat="40.197755" lon="-3.692112"/>
      <trkpt lat="40.197755" lon="-3.692112"/>
      <trkpt lat="40.197675" lon="-3.692113"/>
      <trkpt lat="40.197675" lon="-3.692113"/>
      <trkpt lat="40.197595" lon="-3.692115"/>
      <trkpt lat="40.197595" lon="-3.692115"/>
      <trkpt lat="40.197518" lon="-3.692117"/>
      <trkpt lat="40.197518" lon="-3.692117"/>
      <trkpt lat="40.197437" lon="-3.692117"/>
      <trkpt lat="40.197437" lon="-3.692117"/>
      <trkpt lat="40.197353" lon="-3.692117"/>
      <trkpt lat="40.197353" lon="-3.692117"/>
      <trkpt lat="40.197268" lon="-3.692118"/>
      <trkpt lat="40.197268" lon="-3.692118"/>
      <trkpt lat="40.197187" lon="-3.692117"/>
      <trkpt lat="40.197187" lon="-3.692117"/>
      <trkpt lat="40.197102" lon="-3.692117"/>
      <trkpt lat="40.197102" lon="-3.692117"/>
      <trkpt lat="40.19702" lon="-3.69212"/>
      <trkpt lat="40.19702" lon="-3.69212"/>
      <trkpt lat="40.196937" lon="-3.692122"/>
      <trkpt lat="40.196937" lon="-3.692122"/>
      <trkpt lat="40.19685" lon="-3.692123"/>
      <trkpt lat="40.19685" lon="-3.692123"/>
      <trkpt lat="40.196757" lon="-3.69212"/>
      <trkpt lat="40.196708" lon="-3.692122"/>
      <trkpt lat="40.19666" lon="-3.692122"/>
      <trkpt lat="40.19666" lon="-3.692122"/>
      <trkpt lat="40.196562" lon="-3.692122"/>
      <trkpt lat="40.196562" lon="-3.692122"/>
      <trkpt lat="40.196463" lon="-3.692123"/>
      <trkpt lat="40.196463" lon="-3.692123"/>
      <trkpt lat="40.196362" lon="-3.692127"/>
      <trkpt lat="40.196362" lon="-3.692127"/>
      <trkpt lat="40.196258" lon="-3.692128"/>
      <trkpt lat="40.196258" lon="-3.692128"/>
      <trkpt lat="40.196153" lon="-3.692125"/>
      <trkpt lat="40.196153" lon="-3.692125"/>
      <trkpt lat="40.196047" lon="-3.692123"/>
      <trkpt lat="40.196047" lon="-3.692123"/>
      <trkpt lat="40.19594" lon="-3.692123"/>
      <trkpt lat="40.19594" lon="-3.692123"/>
      <trkpt lat="40.195835" lon="-3.692127"/>
      <trkpt lat="40.195835" lon="-3.692127"/>
      <trkpt lat="40.195727" lon="-3.692128"/>
      <trkpt lat="40.195727" lon="-3.692128"/>
      <trkpt lat="40.195617" lon="-3.692127"/>
      <trkpt lat="40.195617" lon="-3.692127"/>
      <trkpt lat="40.195507" lon="-3.692125"/>
      <trkpt lat="40.195507" lon="-3.692125"/>
      <trkpt lat="40.195395" lon="-3.692125"/>
      <trkpt lat="40.195395" lon="-3.692125"/>
      <trkpt lat="40.195285" lon="-3.692122"/>
      <trkpt lat="40.195285" lon="-3.692122"/>
      <trkpt lat="40.195175" lon="-3.692123"/>
      <trkpt lat="40.195175" lon="-3.692123"/>
      <trkpt lat="40.195065" lon="-3.692122"/>
      <trkpt lat="40.195065" lon="-3.692122"/>
      <trkpt lat="40.194958" lon="-3.692113"/>
      <trkpt lat="40.194958" lon="-3.692113"/>
      <trkpt lat="40.194863" lon="-3.692115"/>
      <trkpt lat="40.194863" lon="-3.692115"/>
      <trkpt lat="40.194775" lon="-3.692122"/>
      <trkpt lat="40.194775" lon="-3.692122"/>
      <trkpt lat="40.194692" lon="-3.692178"/>
      <trkpt lat="40.194692" lon="-3.692178"/>
      <trkpt lat="40.194618" lon="-3.692267"/>
      <trkpt lat="40.194618" lon="-3.692267"/>
      <trkpt lat="40.194533" lon="-3.69233"/>
      <trkpt lat="40.194533" lon="-3.69233"/>
      <trkpt lat="40.19444" lon="-3.692363"/>
      <trkpt lat="40.19444" lon="-3.692363"/>
      <trkpt lat="40.194345" lon="-3.692355"/>
      <trkpt lat="40.194345" lon="-3.692355"/>
      <trkpt lat="40.19425" lon="-3.69231"/>
      <trkpt lat="40.19425" lon="-3.69231"/>
      <trkpt lat="40.194163" lon="-3.692237"/>
      <trkpt lat="40.194118" lon="-3.692198"/>
      <trkpt lat="40.194118" lon="-3.692198"/>
      <trkpt lat="40.194013" lon="-3.692172"/>
      <trkpt lat="40.193953" lon="-3.692188"/>
      <trkpt lat="40.193953" lon="-3.692188"/>
      <trkpt lat="40.193833" lon="-3.692235"/>
      <trkpt lat="40.193833" lon="-3.692235"/>
      <trkpt lat="40.19371" lon="-3.692277"/>
      <trkpt lat="40.19365" lon="-3.6923"/>
      <trkpt lat="40.19359" lon="-3.692323"/>
      <trkpt lat="40.19359" lon="-3.692323"/>
      <trkpt lat="40.19347" lon="-3.692368"/>
      <trkpt lat="40.19347" lon="-3.692368"/>
      <trkpt lat="40.193348" lon="-3.69241"/>
      <trkpt lat="40.193348" lon="-3.69241"/>
      <trkpt lat="40.193228" lon="-3.692457"/>
      <trkpt lat="40.193228" lon="-3.692457"/>
      <trkpt lat="40.193105" lon="-3.692498"/>
      <trkpt lat="40.193105" lon="-3.692498"/>
      <trkpt lat="40.192978" lon="-3.692542"/>
      <trkpt lat="40.192978" lon="-3.692542"/>
      <trkpt lat="40.192847" lon="-3.69259"/>
      <trkpt lat="40.192847" lon="-3.69259"/>
      <trkpt lat="40.192715" lon="-3.692637"/>
      <trkpt lat="40.192715" lon="-3.692637"/>
      <trkpt lat="40.192595" lon="-3.692678"/>
      <trkpt lat="40.192595" lon="-3.692678"/>
      <trkpt lat="40.19248" lon="-3.69272"/>
      <trkpt lat="40.19248" lon="-3.69272"/>
      <trkpt lat="40.192375" lon="-3.692758"/>
      <trkpt lat="40.192375" lon="-3.692758"/>
      <trkpt lat="40.192267" lon="-3.692797"/>
      <trkpt lat="40.19221" lon="-3.692818"/>
      <trkpt lat="40.19221" lon="-3.692818"/>
      <trkpt lat="40.19211" lon="-3.69286"/>
      <trkpt lat="40.19211" lon="-3.69286"/>
      <trkpt lat="40.192022" lon="-3.692893"/>
      <trkpt lat="40.192022" lon="-3.692893"/>
      <trkpt lat="40.191932" lon="-3.69292"/>
      <trkpt lat="40.191883" lon="-3.692935"/>
      <trkpt lat="40.191883" lon="-3.692935"/>
      <trkpt lat="40.19178" lon="-3.692965"/>
      <trkpt lat="40.19173" lon="-3.692982"/>
      <trkpt lat="40.19173" lon="-3.692982"/>
      <trkpt lat="40.19163" lon="-3.69301"/>
      <trkpt lat="40.19158" lon="-3.69302"/>
      <trkpt lat="40.19158" lon="-3.69302"/>
      <trkpt lat="40.191478" lon="-3.69303"/>
      <trkpt lat="40.191478" lon="-3.69303"/>
      <trkpt lat="40.19138" lon="-3.693053"/>
      <trkpt lat="40.19138" lon="-3.693053"/>
      <trkpt lat="40.191285" lon="-3.69309"/>
      <trkpt lat="40.191285" lon="-3.69309"/>
      <trkpt lat="40.191192" lon="-3.69312"/>
      <trkpt lat="40.191152" lon="-3.693135"/>
      <trkpt lat="40.191152" lon="-3.693135"/>
      <trkpt lat="40.19108" lon="-3.693158"/>
      <trkpt lat="40.19104" lon="-3.693152"/>
      <trkpt lat="40.19104" lon="-3.693152"/>
      <trkpt lat="40.190975" lon="-3.693082"/>
      <trkpt lat="40.190952" lon="-3.693028"/>
      <trkpt lat="40.190952" lon="-3.693028"/>
      <trkpt lat="40.190917" lon="-3.692915"/>
      <trkpt lat="40.190898" lon="-3.692855"/>
      <trkpt lat="40.190898" lon="-3.692855"/>
      <trkpt lat="40.190875" lon="-3.692725"/>
      <trkpt lat="40.190875" lon="-3.692725"/>
      <trkpt lat="40.190848" lon="-3.692597"/>
      <trkpt lat="40.190848" lon="-3.692597"/>
      <trkpt lat="40.190822" lon="-3.692462"/>
      <trkpt lat="40.190805" lon="-3.692395"/>
      <trkpt lat="40.190805" lon="-3.692395"/>
      <trkpt lat="40.190778" lon="-3.692257"/>
      <trkpt lat="40.190767" lon="-3.692188"/>
      <trkpt lat="40.190767" lon="-3.692188"/>
      <trkpt lat="40.190743" lon="-3.692053"/>
      <trkpt lat="40.190743" lon="-3.692053"/>
      <trkpt lat="40.190718" lon="-3.691925"/>
      <trkpt lat="40.190718" lon="-3.691925"/>
      <trkpt lat="40.190693" lon="-3.691803"/>
      <trkpt lat="40.190693" lon="-3.691803"/>
      <trkpt lat="40.190665" lon="-3.691705"/>
      <trkpt lat="40.19064" lon="-3.69168"/>
      <trkpt lat="40.19064" lon="-3.69168"/>
      <trkpt lat="40.190555" lon="-3.691663"/>
      <trkpt lat="40.190555" lon="-3.691663"/>
      <trkpt lat="40.19046" lon="-3.691623"/>
      <trkpt lat="40.19042" lon="-3.691595"/>
      <trkpt lat="40.19042" lon="-3.691595"/>
      <trkpt lat="40.190345" lon="-3.69154"/>
      <trkpt lat="40.190345" lon="-3.69154"/>
      <trkpt lat="40.190247" lon="-3.691532"/>
      <trkpt lat="40.190247" lon="-3.691532"/>
      <trkpt lat="40.190158" lon="-3.691565"/>
      <trkpt lat="40.190158" lon="-3.691565"/>
      <trkpt lat="40.190068" lon="-3.691593"/>
      <trkpt lat="40.190068" lon="-3.691593"/>
      <trkpt lat="40.189975" lon="-3.691615"/>
      <trkpt lat="40.189975" lon="-3.691615"/>
      <trkpt lat="40.189888" lon="-3.691647"/>
      <trkpt lat="40.189888" lon="-3.691647"/>
      <trkpt lat="40.189797" lon="-3.691677"/>
      <trkpt lat="40.189797" lon="-3.691677"/>
      <trkpt lat="40.189702" lon="-3.691703"/>
      <trkpt lat="40.189655" lon="-3.691718"/>
      <trkpt lat="40.189655" lon="-3.691718"/>
      <trkpt lat="40.189558" lon="-3.691745"/>
      <trkpt lat="40.189558" lon="-3.691745"/>
      <trkpt lat="40.18946" lon="-3.691778"/>
      <trkpt lat="40.18946" lon="-3.691778"/>
      <trkpt lat="40.189352" lon="-3.6918"/>
      <trkpt lat="40.189298" lon="-3.69181"/>
      <trkpt lat="40.189298" lon="-3.69181"/>
      <trkpt lat="40.189193" lon="-3.691837"/>
      <trkpt lat="40.18914" lon="-3.69185"/>
      <trkpt lat="40.18914" lon="-3.69185"/>
      <trkpt lat="40.189043" lon="-3.6919"/>
      <trkpt lat="40.189043" lon="-3.6919"/>
      <trkpt lat="40.188957" lon="-3.691977"/>
      <trkpt lat="40.188957" lon="-3.691977"/>
      <trkpt lat="40.188853" lon="-3.691992"/>
      <trkpt lat="40.188853" lon="-3.691992"/>
      <trkpt lat="40.188755" lon="-3.691987"/>
      <trkpt lat="40.188755" lon="-3.691987"/>
      <trkpt lat="40.188663" lon="-3.692022"/>
      <trkpt lat="40.188663" lon="-3.692022"/>
      <trkpt lat="40.188582" lon="-3.692058"/>
      <trkpt lat="40.188582" lon="-3.692058"/>
      <trkpt lat="40.188505" lon="-3.692088"/>
      <trkpt lat="40.188467" lon="-3.692103"/>
      <trkpt lat="40.188467" lon="-3.692103"/>
      <trkpt lat="40.188395" lon="-3.692135"/>
      <trkpt lat="40.188395" lon="-3.692135"/>
      <trkpt lat="40.188325" lon="-3.692165"/>
      <trkpt lat="40.188325" lon="-3.692165"/>
      <trkpt lat="40.188258" lon="-3.692193"/>
      <trkpt lat="40.188258" lon="-3.692193"/>
      <trkpt lat="40.18819" lon="-3.69222"/>
      <trkpt lat="40.18819" lon="-3.69222"/>
      <trkpt lat="40.188125" lon="-3.692248"/>
      <trkpt lat="40.188125" lon="-3.692248"/>
      <trkpt lat="40.188057" lon="-3.692273"/>
      <trkpt lat="40.188057" lon="-3.692273"/>
      <trkpt lat="40.18799" lon="-3.692302"/>
      <trkpt lat="40.18799" lon="-3.692302"/>
      <trkpt lat="40.18792" lon="-3.692327"/>
      <trkpt lat="40.18792" lon="-3.692327"/>
      <trkpt lat="40.187853" lon="-3.692353"/>
      <trkpt lat="40.187853" lon="-3.692353"/>
      <trkpt lat="40.187785" lon="-3.692377"/>
      <trkpt lat="40.187785" lon="-3.692377"/>
      <trkpt lat="40.187715" lon="-3.6924"/>
      <trkpt lat="40.187715" lon="-3.6924"/>
      <trkpt lat="40.187647" lon="-3.692422"/>
      <trkpt lat="40.187647" lon="-3.692422"/>
      <trkpt lat="40.187578" lon="-3.692447"/>
      <trkpt lat="40.187578" lon="-3.692447"/>
      <trkpt lat="40.187512" lon="-3.692475"/>
      <trkpt lat="40.187512" lon="-3.692475"/>
      <trkpt lat="40.187442" lon="-3.692493"/>
      <trkpt lat="40.187442" lon="-3.692493"/>
      <trkpt lat="40.187375" lon="-3.692517"/>
      <trkpt lat="40.187375" lon="-3.692517"/>
      <trkpt lat="40.187312" lon="-3.692538"/>
      <trkpt lat="40.187312" lon="-3.692538"/>
      <trkpt lat="40.187248" lon="-3.692567"/>
      <trkpt lat="40.187248" lon="-3.692567"/>
      <trkpt lat="40.187188" lon="-3.6926"/>
      <trkpt lat="40.187188" lon="-3.6926"/>
      <trkpt lat="40.187125" lon="-3.692625"/>
      <trkpt lat="40.187125" lon="-3.692625"/>
      <trkpt lat="40.187062" lon="-3.692647"/>
      <trkpt lat="40.187062" lon="-3.692647"/>
      <trkpt lat="40.186998" lon="-3.69268"/>
      <trkpt lat="40.186998" lon="-3.69268"/>
      <trkpt lat="40.186935" lon="-3.692712"/>
      <trkpt lat="40.186935" lon="-3.692712"/>
      <trkpt lat="40.186872" lon="-3.692733"/>
      <trkpt lat="40.186872" lon="-3.692733"/>
      <trkpt lat="40.186812" lon="-3.692758"/>
      <trkpt lat="40.186778" lon="-3.692767"/>
      <trkpt lat="40.186778" lon="-3.692767"/>
      <trkpt lat="40.186715" lon="-3.692788"/>
      <trkpt lat="40.186683" lon="-3.692798"/>
      <trkpt lat="40.186683" lon="-3.692798"/>
      <trkpt lat="40.18662" lon="-3.692822"/>
      <trkpt lat="40.18662" lon="-3.692822"/>
      <trkpt lat="40.186558" lon="-3.692847"/>
      <trkpt lat="40.186558" lon="-3.692847"/>
      <trkpt lat="40.186497" lon="-3.692867"/>
      <trkpt lat="40.186497" lon="-3.692867"/>
      <trkpt lat="40.186438" lon="-3.692873"/>
      <trkpt lat="40.186438" lon="-3.692873"/>
      <trkpt lat="40.18642" lon="-3.692822"/>
      <trkpt lat="40.186412" lon="-3.692792"/>
      <trkpt lat="40.186412" lon="-3.692792"/>
      <trkpt lat="40.186395" lon="-3.692727"/>
      <trkpt lat="40.186387" lon="-3.692693"/>
      <trkpt lat="40.186387" lon="-3.692693"/>
      <trkpt lat="40.186368" lon="-3.692638"/>
      <trkpt lat="40.186368" lon="-3.692638"/>
      <trkpt lat="40.186337" lon="-3.69263"/>
      <trkpt lat="40.186337" lon="-3.69263"/>
      <trkpt lat="40.186305" lon="-3.692642"/>
      <trkpt lat="40.186305" lon="-3.692642"/>
      <trkpt lat="40.186277" lon="-3.692642"/>
      <trkpt lat="40.186277" lon="-3.692642"/>
      <trkpt lat="40.186248" lon="-3.692663"/>
      <trkpt lat="40.186248" lon="-3.692663"/>
      <trkpt lat="40.186217" lon="-3.692675"/>
      <trkpt lat="40.186217" lon="-3.692675"/>
      <trkpt lat="40.186185" lon="-3.69268"/>
      <trkpt lat="40.186185" lon="-3.69268"/>
      <trkpt lat="40.186145" lon="-3.692693"/>
      <trkpt lat="40.186145" lon="-3.692693"/>
      <trkpt lat="40.186098" lon="-3.69271"/>
      <trkpt lat="40.186098" lon="-3.69271"/>
      <trkpt lat="40.186045" lon="-3.692728"/>
      <trkpt lat="40.186045" lon="-3.692728"/>
      <trkpt lat="40.185995" lon="-3.692755"/>
      <trkpt lat="40.185995" lon="-3.692755"/>
      <trkpt lat="40.185945" lon="-3.692773"/>
      <trkpt lat="40.185945" lon="-3.692773"/>
      <trkpt lat="40.185898" lon="-3.692792"/>
      <trkpt lat="40.185898" lon="-3.692792"/>
      <trkpt lat="40.185857" lon="-3.692807"/>
      <trkpt lat="40.185857" lon="-3.692807"/>
      <trkpt lat="40.185815" lon="-3.692825"/>
      <trkpt lat="40.185815" lon="-3.692825"/>
      <trkpt lat="40.185772" lon="-3.692843"/>
      <trkpt lat="40.185772" lon="-3.692843"/>
      <trkpt lat="40.185733" lon="-3.692862"/>
      <trkpt lat="40.185733" lon="-3.692862"/>
      <trkpt lat="40.185692" lon="-3.692873"/>
      <trkpt lat="40.185692" lon="-3.692873"/>
      <trkpt lat="40.185665" lon="-3.69285"/>
      <trkpt lat="40.185665" lon="-3.69285"/>
      <trkpt lat="40.185662" lon="-3.692818"/>
      <trkpt lat="40.185662" lon="-3.692818"/>
      <trkpt lat="40.185668" lon="-3.6928"/>
      <trkpt lat="40.185668" lon="-3.6928"/>
      <trkpt lat="40.18568" lon="-3.69279"/>
      <trkpt lat="40.18568" lon="-3.69279"/>
      <trkpt lat="40.18568" lon="-3.69279"/>
      <trkpt lat="40.18568" lon="-3.69279"/>
      <trkpt lat="40.185685" lon="-3.692745"/>
      <trkpt lat="40.185685" lon="-3.692745"/>
      <trkpt lat="40.185683" lon="-3.692745"/>
      <trkpt lat="40.18567" lon="-3.692755"/>
      <trkpt lat="40.18567" lon="-3.692755"/>
      <trkpt lat="40.185667" lon="-3.692753"/>
      <trkpt lat="40.185603" lon="-3.69279"/>
      <trkpt lat="40.185603" lon="-3.69279"/>
      <trkpt lat="40.185568" lon="-3.692793"/>
      <trkpt lat="40.185552" lon="-3.692788"/>
      <trkpt lat="40.185552" lon="-3.692788"/>
      <trkpt lat="40.185525" lon="-3.692763"/>
      <trkpt lat="40.185525" lon="-3.692763"/>
      <trkpt lat="40.185503" lon="-3.692737"/>
      <trkpt lat="40.18549" lon="-3.692728"/>
      <trkpt lat="40.18549" lon="-3.692728"/>
      <trkpt lat="40.185473" lon="-3.692703"/>
      <trkpt lat="40.185473" lon="-3.692703"/>
      <trkpt lat="40.185453" lon="-3.692673"/>
      <trkpt lat="40.185453" lon="-3.692673"/>
      <trkpt lat="40.185433" lon="-3.692637"/>
      <trkpt lat="40.185433" lon="-3.692637"/>
      <trkpt lat="40.185407" lon="-3.692602"/>
      <trkpt lat="40.185407" lon="-3.692602"/>
      <trkpt lat="40.185372" lon="-3.692567"/>
      <trkpt lat="40.185372" lon="-3.692567"/>
      <trkpt lat="40.18534" lon="-3.692552"/>
      <trkpt lat="40.18532" lon="-3.692567"/>
      <trkpt lat="40.18532" lon="-3.692567"/>
      <trkpt lat="40.185283" lon="-3.692628"/>
      <trkpt lat="40.185265" lon="-3.69266"/>
      <trkpt lat="40.185265" lon="-3.69266"/>
      <trkpt lat="40.185233" lon="-3.692728"/>
      <trkpt lat="40.185233" lon="-3.692728"/>
      <trkpt lat="40.18521" lon="-3.6928"/>
      <trkpt lat="40.18521" lon="-3.6928"/>
      <trkpt lat="40.185183" lon="-3.69287"/>
      <trkpt lat="40.185183" lon="-3.69287"/>
      <trkpt lat="40.18518" lon="-3.692957"/>
      <trkpt lat="40.18518" lon="-3.692957"/>
      <trkpt lat="40.185198" lon="-3.693045"/>
      <trkpt lat="40.185198" lon="-3.693045"/>
      <trkpt lat="40.185218" lon="-3.693135"/>
      <trkpt lat="40.185218" lon="-3.693135"/>
      <trkpt lat="40.18522" lon="-3.693232"/>
      <trkpt lat="40.18522" lon="-3.693232"/>
      <trkpt lat="40.185198" lon="-3.693332"/>
      <trkpt lat="40.185198" lon="-3.693332"/>
      <trkpt lat="40.185152" lon="-3.693415"/>
      <trkpt lat="40.185152" lon="-3.693415"/>
      <trkpt lat="40.185082" lon="-3.693478"/>
      <trkpt lat="40.185082" lon="-3.693478"/>
      <trkpt lat="40.185" lon="-3.693502"/>
      <trkpt lat="40.185" lon="-3.693502"/>
      <trkpt lat="40.184923" lon="-3.693485"/>
      <trkpt lat="40.184888" lon="-3.693468"/>
      <trkpt lat="40.184888" lon="-3.693468"/>
      <trkpt lat="40.184818" lon="-3.69343"/>
      <trkpt lat="40.184818" lon="-3.69343"/>
      <trkpt lat="40.184748" lon="-3.693413"/>
      <trkpt lat="40.18471" lon="-3.69342"/>
      <trkpt lat="40.18471" lon="-3.69342"/>
      <trkpt lat="40.184625" lon="-3.693447"/>
      <trkpt lat="40.184625" lon="-3.693447"/>
      <trkpt lat="40.184528" lon="-3.693478"/>
      <trkpt lat="40.184528" lon="-3.693478"/>
      <trkpt lat="40.184422" lon="-3.693515"/>
      <trkpt lat="40.184422" lon="-3.693515"/>
      <trkpt lat="40.184312" lon="-3.693555"/>
      <trkpt lat="40.184253" lon="-3.693577"/>
      <trkpt lat="40.184253" lon="-3.693577"/>
      <trkpt lat="40.184133" lon="-3.693617"/>
      <trkpt lat="40.184072" lon="-3.69364"/>
      <trkpt lat="40.184072" lon="-3.69364"/>
      <trkpt lat="40.183945" lon="-3.693683"/>
      <trkpt lat="40.183882" lon="-3.693705"/>
      <trkpt lat="40.183882" lon="-3.693705"/>
      <trkpt lat="40.18375" lon="-3.693748"/>
      <trkpt lat="40.183683" lon="-3.69377"/>
      <trkpt lat="40.183683" lon="-3.69377"/>
      <trkpt lat="40.18355" lon="-3.693815"/>
      <trkpt lat="40.18355" lon="-3.693815"/>
      <trkpt lat="40.183415" lon="-3.693855"/>
      <trkpt lat="40.183415" lon="-3.693855"/>
      <trkpt lat="40.183278" lon="-3.693895"/>
      <trkpt lat="40.183278" lon="-3.693895"/>
      <trkpt lat="40.183142" lon="-3.693938"/>
      <trkpt lat="40.183142" lon="-3.693938"/>
      <trkpt lat="40.183005" lon="-3.693978"/>
      <trkpt lat="40.183005" lon="-3.693978"/>
      <trkpt lat="40.182863" lon="-3.694012"/>
      <trkpt lat="40.182863" lon="-3.694012"/>
      <trkpt lat="40.18274" lon="-3.694058"/>
      <trkpt lat="40.182678" lon="-3.694082"/>
      <trkpt lat="40.182678" lon="-3.694082"/>
      <trkpt lat="40.182553" lon="-3.69413"/>
      <trkpt lat="40.182492" lon="-3.694153"/>
      <trkpt lat="40.182492" lon="-3.694153"/>
      <trkpt lat="40.182365" lon="-3.694202"/>
      <trkpt lat="40.182365" lon="-3.694202"/>
      <trkpt lat="40.182237" lon="-3.69425"/>
      <trkpt lat="40.182237" lon="-3.69425"/>
      <trkpt lat="40.182105" lon="-3.694297"/>
      <trkpt lat="40.182105" lon="-3.694297"/>
      <trkpt lat="40.18197" lon="-3.694343"/>
      <trkpt lat="40.18197" lon="-3.694343"/>
      <trkpt lat="40.181835" lon="-3.69439"/>
      <trkpt lat="40.181835" lon="-3.69439"/>
      <trkpt lat="40.181703" lon="-3.694435"/>
      <trkpt lat="40.181703" lon="-3.694435"/>
      <trkpt lat="40.181577" lon="-3.694478"/>
      <trkpt lat="40.181577" lon="-3.694478"/>
      <trkpt lat="40.181453" lon="-3.694518"/>
      <trkpt lat="40.181453" lon="-3.694518"/>
      <trkpt lat="40.181332" lon="-3.694558"/>
      <trkpt lat="40.181332" lon="-3.694558"/>
      <trkpt lat="40.181215" lon="-3.6946"/>
      <trkpt lat="40.181215" lon="-3.6946"/>
      <trkpt lat="40.181098" lon="-3.694642"/>
      <trkpt lat="40.181098" lon="-3.694642"/>
      <trkpt lat="40.18099" lon="-3.694687"/>
      <trkpt lat="40.18099" lon="-3.694687"/>
      <trkpt lat="40.180895" lon="-3.694762"/>
      <trkpt lat="40.180895" lon="-3.694762"/>
      <trkpt lat="40.180827" lon="-3.69488"/>
      <trkpt lat="40.180827" lon="-3.69488"/>
      <trkpt lat="40.180737" lon="-3.69497"/>
      <trkpt lat="40.180737" lon="-3.69497"/>
      <trkpt lat="40.180632" lon="-3.695"/>
      <trkpt lat="40.180578" lon="-3.694988"/>
      <trkpt lat="40.180578" lon="-3.694988"/>
      <trkpt lat="40.180488" lon="-3.69492"/>
      <trkpt lat="40.180455" lon="-3.694868"/>
      <trkpt lat="40.180455" lon="-3.694868"/>
      <trkpt lat="40.180438" lon="-3.694735"/>
      <trkpt lat="40.180438" lon="-3.694735"/>
      <trkpt lat="40.180452" lon="-3.6946"/>
      <trkpt lat="40.180452" lon="-3.6946"/>
      <trkpt lat="40.180483" lon="-3.694477"/>
      <trkpt lat="40.180483" lon="-3.694477"/>
      <trkpt lat="40.180487" lon="-3.694345"/>
      <trkpt lat="40.180487" lon="-3.694345"/>
      <trkpt lat="40.180447" lon="-3.694218"/>
      <trkpt lat="40.180447" lon="-3.694218"/>
      <trkpt lat="40.1804" lon="-3.694088"/>
      <trkpt lat="40.1804" lon="-3.694088"/>
      <trkpt lat="40.180353" lon="-3.693947"/>
      <trkpt lat="40.180353" lon="-3.693947"/>
      <trkpt lat="40.180305" lon="-3.693802"/>
      <trkpt lat="40.180305" lon="-3.693802"/>
      <trkpt lat="40.180257" lon="-3.693653"/>
      <trkpt lat="40.180207" lon="-3.693507"/>
      <trkpt lat="40.180207" lon="-3.693507"/>
      <trkpt lat="40.180207" lon="-3.693507"/>
      <trkpt lat="40.180155" lon="-3.693355"/>
      <trkpt lat="40.180155" lon="-3.693355"/>
      <trkpt lat="40.180105" lon="-3.693202"/>
      <trkpt lat="40.180105" lon="-3.693202"/>
      <trkpt lat="40.180053" lon="-3.693045"/>
      <trkpt lat="40.180053" lon="-3.693045"/>
      <trkpt lat="40.18" lon="-3.69289"/>
      <trkpt lat="40.18" lon="-3.69289"/>
      <trkpt lat="40.179947" lon="-3.692735"/>
      <trkpt lat="40.179947" lon="-3.692735"/>
      <trkpt lat="40.179893" lon="-3.692578"/>
      <trkpt lat="40.179893" lon="-3.692578"/>
      <trkpt lat="40.179842" lon="-3.692422"/>
      <trkpt lat="40.179813" lon="-3.692345"/>
      <trkpt lat="40.179787" lon="-3.692268"/>
      <trkpt lat="40.179787" lon="-3.692268"/>
      <trkpt lat="40.179733" lon="-3.692113"/>
      <trkpt lat="40.179733" lon="-3.692113"/>
      <trkpt lat="40.179678" lon="-3.691962"/>
      <trkpt lat="40.179678" lon="-3.691962"/>
      <trkpt lat="40.17963" lon="-3.691807"/>
      <trkpt lat="40.17963" lon="-3.691807"/>
      <trkpt lat="40.179577" lon="-3.691643"/>
      <trkpt lat="40.179548" lon="-3.691563"/>
      <trkpt lat="40.179548" lon="-3.691563"/>
      <trkpt lat="40.179492" lon="-3.691402"/>
      <trkpt lat="40.179462" lon="-3.69132"/>
      <trkpt lat="40.179462" lon="-3.69132"/>
      <trkpt lat="40.179403" lon="-3.691155"/>
      <trkpt lat="40.179403" lon="-3.691155"/>
      <trkpt lat="40.179348" lon="-3.690998"/>
      <trkpt lat="40.179348" lon="-3.690998"/>
      <trkpt lat="40.179305" lon="-3.690862"/>
      <trkpt lat="40.179283" lon="-3.6908"/>
      <trkpt lat="40.179283" lon="-3.6908"/>
      <trkpt lat="40.179238" lon="-3.690685"/>
      <trkpt lat="40.179218" lon="-3.69063"/>
      <trkpt lat="40.179218" lon="-3.69063"/>
      <trkpt lat="40.179187" lon="-3.690532"/>
      <trkpt lat="40.179187" lon="-3.690532"/>
      <trkpt lat="40.179155" lon="-3.690435"/>
      <trkpt lat="40.179155" lon="-3.690435"/>
      <trkpt lat="40.179118" lon="-3.690338"/>
      <trkpt lat="40.179105" lon="-3.69029"/>
      <trkpt lat="40.179105" lon="-3.69029"/>
      <trkpt lat="40.179077" lon="-3.690195"/>
      <trkpt lat="40.179058" lon="-3.690148"/>
      <trkpt lat="40.179058" lon="-3.690148"/>
      <trkpt lat="40.179027" lon="-3.69006"/>
      <trkpt lat="40.179027" lon="-3.69006"/>
      <trkpt lat="40.178997" lon="-3.689967"/>
      <trkpt lat="40.178997" lon="-3.689967"/>
      <trkpt lat="40.178962" lon="-3.689878"/>
      <trkpt lat="40.178962" lon="-3.689878"/>
      <trkpt lat="40.17893" lon="-3.689792"/>
      <trkpt lat="40.178918" lon="-3.689747"/>
      <trkpt lat="40.178908" lon="-3.689703"/>
      <trkpt lat="40.178908" lon="-3.689703"/>
      <trkpt lat="40.17888" lon="-3.689608"/>
      <trkpt lat="40.178865" lon="-3.68956"/>
      <trkpt lat="40.178865" lon="-3.68956"/>
      <trkpt lat="40.178832" lon="-3.689463"/>
      <trkpt lat="40.178813" lon="-3.689418"/>
      <trkpt lat="40.178813" lon="-3.689418"/>
      <trkpt lat="40.178783" lon="-3.689322"/>
      <trkpt lat="40.178783" lon="-3.689322"/>
      <trkpt lat="40.178747" lon="-3.68922"/>
      <trkpt lat="40.178747" lon="-3.68922"/>
      <trkpt lat="40.178708" lon="-3.689117"/>
      <trkpt lat="40.178708" lon="-3.689117"/>
      <trkpt lat="40.178668" lon="-3.689012"/>
      <trkpt lat="40.178668" lon="-3.689012"/>
      <trkpt lat="40.178633" lon="-3.688907"/>
      <trkpt lat="40.178615" lon="-3.688852"/>
      <trkpt lat="40.178615" lon="-3.688852"/>
      <trkpt lat="40.178577" lon="-3.68874"/>
      <trkpt lat="40.178555" lon="-3.688682"/>
      <trkpt lat="40.178555" lon="-3.688682"/>
      <trkpt lat="40.178515" lon="-3.688568"/>
      <trkpt lat="40.178515" lon="-3.688568"/>
      <trkpt lat="40.178473" lon="-3.68845"/>
      <trkpt lat="40.178473" lon="-3.68845"/>
      <trkpt lat="40.178432" lon="-3.68833"/>
      <trkpt lat="40.178432" lon="-3.68833"/>
      <trkpt lat="40.178397" lon="-3.688218"/>
      <trkpt lat="40.178375" lon="-3.688163"/>
      <trkpt lat="40.178375" lon="-3.688163"/>
      <trkpt lat="40.178337" lon="-3.688043"/>
      <trkpt lat="40.178337" lon="-3.688043"/>
      <trkpt lat="40.178293" lon="-3.687922"/>
      <trkpt lat="40.178293" lon="-3.687922"/>
      <trkpt lat="40.17825" lon="-3.687802"/>
      <trkpt lat="40.178233" lon="-3.687743"/>
      <trkpt lat="40.178233" lon="-3.687743"/>
      <trkpt lat="40.1782" lon="-3.687628"/>
      <trkpt lat="40.178183" lon="-3.687573"/>
      <trkpt lat="40.178183" lon="-3.687573"/>
      <trkpt lat="40.178145" lon="-3.687472"/>
      <trkpt lat="40.178117" lon="-3.687433"/>
      <trkpt lat="40.178117" lon="-3.687433"/>
      <trkpt lat="40.178028" lon="-3.687405"/>
      <trkpt lat="40.178028" lon="-3.687405"/>
      <trkpt lat="40.177927" lon="-3.687405"/>
      <trkpt lat="40.177927" lon="-3.687405"/>
      <trkpt lat="40.177823" lon="-3.687398"/>
      <trkpt lat="40.177823" lon="-3.687398"/>
      <trkpt lat="40.177723" lon="-3.687372"/>
      <trkpt lat="40.177672" lon="-3.687353"/>
      <trkpt lat="40.177672" lon="-3.687353"/>
      <trkpt lat="40.177573" lon="-3.687293"/>
      <trkpt lat="40.177528" lon="-3.68725"/>
      <trkpt lat="40.177528" lon="-3.68725"/>
      <trkpt lat="40.177447" lon="-3.687152"/>
      <trkpt lat="40.177413" lon="-3.687095"/>
      <trkpt lat="40.177413" lon="-3.687095"/>
      <trkpt lat="40.177358" lon="-3.686973"/>
      <trkpt lat="40.177335" lon="-3.68691"/>
      <trkpt lat="40.177335" lon="-3.68691"/>
      <trkpt lat="40.177303" lon="-3.686773"/>
      <trkpt lat="40.177293" lon="-3.686702"/>
      <trkpt lat="40.177293" lon="-3.686702"/>
      <trkpt lat="40.177285" lon="-3.686555"/>
      <trkpt lat="40.17729" lon="-3.686482"/>
      <trkpt lat="40.17729" lon="-3.686482"/>
      <trkpt lat="40.177315" lon="-3.686338"/>
      <trkpt lat="40.177338" lon="-3.686272"/>
      <trkpt lat="40.177338" lon="-3.686272"/>
      <trkpt lat="40.177392" lon="-3.686142"/>
      <trkpt lat="40.177392" lon="-3.686142"/>
      <trkpt lat="40.177462" lon="-3.686027"/>
      <trkpt lat="40.177462" lon="-3.686027"/>
      <trkpt lat="40.177543" lon="-3.685925"/>
      <trkpt lat="40.177543" lon="-3.685925"/>
      <trkpt lat="40.177572" lon="-3.685793"/>
      <trkpt lat="40.177572" lon="-3.685793"/>
      <trkpt lat="40.17753" lon="-3.685655"/>
      <trkpt lat="40.17753" lon="-3.685655"/>
      <trkpt lat="40.177477" lon="-3.685522"/>
      <trkpt lat="40.177477" lon="-3.685522"/>
      <trkpt lat="40.177432" lon="-3.685388"/>
      <trkpt lat="40.177432" lon="-3.685388"/>
      <trkpt lat="40.177385" lon="-3.685252"/>
      <trkpt lat="40.177385" lon="-3.685252"/>
      <trkpt lat="40.17734" lon="-3.68512"/>
      <trkpt lat="40.17734" lon="-3.68512"/>
      <trkpt lat="40.177297" lon="-3.684985"/>
      <trkpt lat="40.177297" lon="-3.684985"/>
      <trkpt lat="40.17725" lon="-3.684852"/>
      <trkpt lat="40.17725" lon="-3.684852"/>
      <trkpt lat="40.177205" lon="-3.684725"/>
      <trkpt lat="40.177183" lon="-3.684662"/>
      <trkpt lat="40.177163" lon="-3.684602"/>
      <trkpt lat="40.177142" lon="-3.68454"/>
      <trkpt lat="40.177142" lon="-3.68454"/>
      <trkpt lat="40.177095" lon="-3.68441"/>
      <trkpt lat="40.177095" lon="-3.68441"/>
      <trkpt lat="40.177045" lon="-3.684275"/>
      <trkpt lat="40.177045" lon="-3.684275"/>
      <trkpt lat="40.176997" lon="-3.68413"/>
      <trkpt lat="40.176997" lon="-3.68413"/>
      <trkpt lat="40.176943" lon="-3.683985"/>
      <trkpt lat="40.176918" lon="-3.683913"/>
      <trkpt lat="40.176918" lon="-3.683913"/>
      <trkpt lat="40.176867" lon="-3.68377"/>
      <trkpt lat="40.176867" lon="-3.68377"/>
      <trkpt lat="40.176817" lon="-3.683623"/>
      <trkpt lat="40.176817" lon="-3.683623"/>
      <trkpt lat="40.17677" lon="-3.683477"/>
      <trkpt lat="40.17677" lon="-3.683477"/>
      <trkpt lat="40.176733" lon="-3.683328"/>
      <trkpt lat="40.17672" lon="-3.683252"/>
      <trkpt lat="40.17671" lon="-3.683175"/>
      <trkpt lat="40.17671" lon="-3.683175"/>
      <trkpt lat="40.176688" lon="-3.683027"/>
      <trkpt lat="40.176688" lon="-3.683027"/>
      <trkpt lat="40.176668" lon="-3.682882"/>
      <trkpt lat="40.17666" lon="-3.682808"/>
      <trkpt lat="40.17666" lon="-3.682808"/>
      <trkpt lat="40.17664" lon="-3.682665"/>
      <trkpt lat="40.17663" lon="-3.682593"/>
      <trkpt lat="40.17662" lon="-3.682522"/>
      <trkpt lat="40.17662" lon="-3.682522"/>
      <trkpt lat="40.176603" lon="-3.682382"/>
      <trkpt lat="40.176603" lon="-3.682382"/>
      <trkpt lat="40.176582" lon="-3.682245"/>
      <trkpt lat="40.17657" lon="-3.682175"/>
      <trkpt lat="40.17657" lon="-3.682175"/>
      <trkpt lat="40.176547" lon="-3.682037"/>
      <trkpt lat="40.176547" lon="-3.682037"/>
      <trkpt lat="40.176532" lon="-3.681898"/>
      <trkpt lat="40.176532" lon="-3.681898"/>
      <trkpt lat="40.176517" lon="-3.681757"/>
      <trkpt lat="40.176508" lon="-3.681688"/>
      <trkpt lat="40.176498" lon="-3.681617"/>
      <trkpt lat="40.176487" lon="-3.681545"/>
      <trkpt lat="40.176487" lon="-3.681545"/>
      <trkpt lat="40.176467" lon="-3.681407"/>
      <trkpt lat="40.176467" lon="-3.681407"/>
      <trkpt lat="40.176447" lon="-3.681277"/>
      <trkpt lat="40.176447" lon="-3.681277"/>
      <trkpt lat="40.176427" lon="-3.681158"/>
      <trkpt lat="40.176427" lon="-3.681158"/>
      <trkpt lat="40.176358" lon="-3.681077"/>
      <trkpt lat="40.176358" lon="-3.681077"/>
      <trkpt lat="40.176267" lon="-3.681037"/>
      <trkpt lat="40.176267" lon="-3.681037"/>
      <trkpt lat="40.176185" lon="-3.680975"/>
      <trkpt lat="40.176185" lon="-3.680975"/>
      <trkpt lat="40.176113" lon="-3.680875"/>
      <trkpt lat="40.176113" lon="-3.680875"/>
      <trkpt lat="40.176078" lon="-3.680748"/>
      <trkpt lat="40.176078" lon="-3.680748"/>
      <trkpt lat="40.17607" lon="-3.680602"/>
      <trkpt lat="40.17607" lon="-3.680602"/>
      <trkpt lat="40.176103" lon="-3.68046"/>
      <trkpt lat="40.176103" lon="-3.68046"/>
      <trkpt lat="40.176167" lon="-3.680332"/>
      <trkpt lat="40.176167" lon="-3.680332"/>
      <trkpt lat="40.176242" lon="-3.680218"/>
      <trkpt lat="40.176242" lon="-3.680218"/>
      <trkpt lat="40.176282" lon="-3.680077"/>
      <trkpt lat="40.176282" lon="-3.680077"/>
      <trkpt lat="40.176265" lon="-3.679917"/>
      <trkpt lat="40.17625" lon="-3.679835"/>
      <trkpt lat="40.17625" lon="-3.679835"/>
      <trkpt lat="40.176223" lon="-3.679675"/>
      <trkpt lat="40.176223" lon="-3.679675"/>
      <trkpt lat="40.1762" lon="-3.679517"/>
      <trkpt lat="40.1762" lon="-3.679517"/>
      <trkpt lat="40.17618" lon="-3.679358"/>
      <trkpt lat="40.176165" lon="-3.679282"/>
      <trkpt lat="40.176165" lon="-3.679282"/>
      <trkpt lat="40.176147" lon="-3.679135"/>
      <trkpt lat="40.176147" lon="-3.679135"/>
      <trkpt lat="40.176127" lon="-3.678997"/>
      <trkpt lat="40.176127" lon="-3.678997"/>
      <trkpt lat="40.176103" lon="-3.678862"/>
      <trkpt lat="40.176103" lon="-3.678862"/>
      <trkpt lat="40.176082" lon="-3.67873"/>
      <trkpt lat="40.176072" lon="-3.678667"/>
      <trkpt lat="40.176072" lon="-3.678667"/>
      <trkpt lat="40.176053" lon="-3.678543"/>
      <trkpt lat="40.176045" lon="-3.67848"/>
      <trkpt lat="40.176045" lon="-3.67848"/>
      <trkpt lat="40.17603" lon="-3.678355"/>
      <trkpt lat="40.176022" lon="-3.678292"/>
      <trkpt lat="40.176022" lon="-3.678292"/>
      <trkpt lat="40.176005" lon="-3.678172"/>
      <trkpt lat="40.176002" lon="-3.67811"/>
      <trkpt lat="40.176002" lon="-3.67811"/>
      <trkpt lat="40.175992" lon="-3.677987"/>
      <trkpt lat="40.175992" lon="-3.677987"/>
      <trkpt lat="40.175978" lon="-3.67786"/>
      <trkpt lat="40.175978" lon="-3.67786"/>
      <trkpt lat="40.17597" lon="-3.67774"/>
      <trkpt lat="40.17597" lon="-3.67774"/>
      <trkpt lat="40.175963" lon="-3.677618"/>
      <trkpt lat="40.175963" lon="-3.677618"/>
      <trkpt lat="40.175957" lon="-3.6775"/>
      <trkpt lat="40.175957" lon="-3.6775"/>
      <trkpt lat="40.175952" lon="-3.677383"/>
      <trkpt lat="40.175952" lon="-3.677383"/>
      <trkpt lat="40.175947" lon="-3.677268"/>
      <trkpt lat="40.175947" lon="-3.677268"/>
      <trkpt lat="40.175947" lon="-3.677153"/>
      <trkpt lat="40.175947" lon="-3.677153"/>
      <trkpt lat="40.175947" lon="-3.677042"/>
      <trkpt lat="40.175947" lon="-3.677042"/>
      <trkpt lat="40.175945" lon="-3.676928"/>
      <trkpt lat="40.175945" lon="-3.676928"/>
      <trkpt lat="40.175943" lon="-3.676817"/>
      <trkpt lat="40.175943" lon="-3.676817"/>
      <trkpt lat="40.175943" lon="-3.676703"/>
      <trkpt lat="40.175943" lon="-3.676703"/>
      <trkpt lat="40.175952" lon="-3.676588"/>
      <trkpt lat="40.175952" lon="-3.676588"/>
      <trkpt lat="40.175958" lon="-3.676473"/>
      <trkpt lat="40.175958" lon="-3.676473"/>
      <trkpt lat="40.175967" lon="-3.676355"/>
      <trkpt lat="40.175967" lon="-3.676355"/>
      <trkpt lat="40.175977" lon="-3.676237"/>
      <trkpt lat="40.175977" lon="-3.676237"/>
      <trkpt lat="40.175987" lon="-3.676117"/>
      <trkpt lat="40.175993" lon="-3.676055"/>
      <trkpt lat="40.175998" lon="-3.67599"/>
      <trkpt lat="40.175998" lon="-3.67599"/>
      <trkpt lat="40.176012" lon="-3.675857"/>
      <trkpt lat="40.176012" lon="-3.675857"/>
      <trkpt lat="40.17603" lon="-3.67572"/>
      <trkpt lat="40.17603" lon="-3.67572"/>
      <trkpt lat="40.17605" lon="-3.675583"/>
      <trkpt lat="40.17605" lon="-3.675583"/>
      <trkpt lat="40.176073" lon="-3.675447"/>
      <trkpt lat="40.176073" lon="-3.675447"/>
      <trkpt lat="40.176098" lon="-3.675307"/>
      <trkpt lat="40.176098" lon="-3.675307"/>
      <trkpt lat="40.176123" lon="-3.675167"/>
      <trkpt lat="40.176123" lon="-3.675167"/>
      <trkpt lat="40.176152" lon="-3.675022"/>
      <trkpt lat="40.176165" lon="-3.67495"/>
      <trkpt lat="40.176165" lon="-3.67495"/>
      <trkpt lat="40.1762" lon="-3.674803"/>
      <trkpt lat="40.176218" lon="-3.674728"/>
      <trkpt lat="40.176218" lon="-3.674728"/>
      <trkpt lat="40.176257" lon="-3.674578"/>
      <trkpt lat="40.176257" lon="-3.674578"/>
      <trkpt lat="40.176298" lon="-3.674428"/>
      <trkpt lat="40.176298" lon="-3.674428"/>
      <trkpt lat="40.176342" lon="-3.674282"/>
      <trkpt lat="40.176342" lon="-3.674282"/>
      <trkpt lat="40.176385" lon="-3.674132"/>
      <trkpt lat="40.176385" lon="-3.674132"/>
      <trkpt lat="40.176433" lon="-3.673987"/>
      <trkpt lat="40.176457" lon="-3.673915"/>
      <trkpt lat="40.176457" lon="-3.673915"/>
      <trkpt lat="40.176507" lon="-3.67377"/>
      <trkpt lat="40.176533" lon="-3.6737"/>
      <trkpt lat="40.176533" lon="-3.6737"/>
      <trkpt lat="40.176583" lon="-3.673555"/>
      <trkpt lat="40.176583" lon="-3.673555"/>
      <trkpt lat="40.176635" lon="-3.67341"/>
      <trkpt lat="40.176635" lon="-3.67341"/>
      <trkpt lat="40.176685" lon="-3.673267"/>
      <trkpt lat="40.176685" lon="-3.673267"/>
      <trkpt lat="40.176733" lon="-3.673122"/>
      <trkpt lat="40.176758" lon="-3.673048"/>
      <trkpt lat="40.176782" lon="-3.672975"/>
      <trkpt lat="40.176782" lon="-3.672975"/>
      <trkpt lat="40.176828" lon="-3.672832"/>
      <trkpt lat="40.176828" lon="-3.672832"/>
      <trkpt lat="40.176877" lon="-3.672687"/>
      <trkpt lat="40.176877" lon="-3.672687"/>
      <trkpt lat="40.176925" lon="-3.672543"/>
      <trkpt lat="40.176925" lon="-3.672543"/>
      <trkpt lat="40.176972" lon="-3.672402"/>
      <trkpt lat="40.176972" lon="-3.672402"/>
      <trkpt lat="40.17702" lon="-3.672263"/>
      <trkpt lat="40.17702" lon="-3.672263"/>
      <trkpt lat="40.177068" lon="-3.672123"/>
      <trkpt lat="40.177068" lon="-3.672123"/>
      <trkpt lat="40.177115" lon="-3.671982"/>
      <trkpt lat="40.177115" lon="-3.671982"/>
      <trkpt lat="40.177162" lon="-3.671842"/>
      <trkpt lat="40.177183" lon="-3.671772"/>
      <trkpt lat="40.177207" lon="-3.671705"/>
      <trkpt lat="40.177207" lon="-3.671705"/>
      <trkpt lat="40.177253" lon="-3.671573"/>
      <trkpt lat="40.177253" lon="-3.671573"/>
      <trkpt lat="40.177295" lon="-3.671445"/>
      <trkpt lat="40.177295" lon="-3.671445"/>
      <trkpt lat="40.177318" lon="-3.671323"/>
      <trkpt lat="40.177318" lon="-3.671323"/>
      <trkpt lat="40.17732" lon="-3.671193"/>
      <trkpt lat="40.17732" lon="-3.671193"/>
      <trkpt lat="40.177363" lon="-3.671085"/>
      <trkpt lat="40.177363" lon="-3.671085"/>
      <trkpt lat="40.177448" lon="-3.671032"/>
      <trkpt lat="40.177448" lon="-3.671032"/>
      <trkpt lat="40.177533" lon="-3.671063"/>
      <trkpt lat="40.177533" lon="-3.671063"/>
      <trkpt lat="40.177597" lon="-3.67114"/>
      <trkpt lat="40.177597" lon="-3.67114"/>
      <trkpt lat="40.17767" lon="-3.671225"/>
      <trkpt lat="40.17767" lon="-3.671225"/>
      <trkpt lat="40.177763" lon="-3.671277"/>
      <trkpt lat="40.177763" lon="-3.671277"/>
      <trkpt lat="40.177853" lon="-3.671318"/>
      <trkpt lat="40.177853" lon="-3.671318"/>
      <trkpt lat="40.177933" lon="-3.671347"/>
      <trkpt lat="40.177933" lon="-3.671347"/>
      <trkpt lat="40.178013" lon="-3.671378"/>
      <trkpt lat="40.178013" lon="-3.671378"/>
      <trkpt lat="40.178093" lon="-3.671398"/>
      <trkpt lat="40.178093" lon="-3.671398"/>
      <trkpt lat="40.178168" lon="-3.671435"/>
      <trkpt lat="40.178168" lon="-3.671435"/>
      <trkpt lat="40.178243" lon="-3.671457"/>
      <trkpt lat="40.178243" lon="-3.671457"/>
      <trkpt lat="40.178322" lon="-3.671475"/>
      <trkpt lat="40.178358" lon="-3.671483"/>
      <trkpt lat="40.178392" lon="-3.671493"/>
      <trkpt lat="40.178392" lon="-3.671493"/>
      <trkpt lat="40.178465" lon="-3.671523"/>
      <trkpt lat="40.178465" lon="-3.671523"/>
      <trkpt lat="40.17853" lon="-3.671553"/>
      <trkpt lat="40.17853" lon="-3.671553"/>
      <trkpt lat="40.178593" lon="-3.671578"/>
      <trkpt lat="40.178593" lon="-3.671578"/>
      <trkpt lat="40.178658" lon="-3.671607"/>
      <trkpt lat="40.178687" lon="-3.671625"/>
      <trkpt lat="40.178687" lon="-3.671625"/>
      <trkpt lat="40.17874" lon="-3.671668"/>
      <trkpt lat="40.178778" lon="-3.671685"/>
      <trkpt lat="40.178778" lon="-3.671685"/>
      <trkpt lat="40.17886" lon="-3.671723"/>
      <trkpt lat="40.17886" lon="-3.671723"/>
      <trkpt lat="40.178952" lon="-3.671767"/>
      <trkpt lat="40.17899" lon="-3.671782"/>
      <trkpt lat="40.17903" lon="-3.6718"/>
      <trkpt lat="40.17903" lon="-3.6718"/>
      <trkpt lat="40.179107" lon="-3.671832"/>
      <trkpt lat="40.179107" lon="-3.671832"/>
      <trkpt lat="40.17919" lon="-3.671865"/>
      <trkpt lat="40.17919" lon="-3.671865"/>
      <trkpt lat="40.179282" lon="-3.6719"/>
      <trkpt lat="40.179282" lon="-3.6719"/>
      <trkpt lat="40.179368" lon="-3.671932"/>
      <trkpt lat="40.179368" lon="-3.671932"/>
      <trkpt lat="40.179448" lon="-3.671962"/>
      <trkpt lat="40.179448" lon="-3.671962"/>
      <trkpt lat="40.179533" lon="-3.671985"/>
      <trkpt lat="40.179533" lon="-3.671985"/>
      <trkpt lat="40.179623" lon="-3.671988"/>
      <trkpt lat="40.17967" lon="-3.671978"/>
      <trkpt lat="40.17967" lon="-3.671978"/>
      <trkpt lat="40.179753" lon="-3.671935"/>
      <trkpt lat="40.179753" lon="-3.671935"/>
      <trkpt lat="40.179838" lon="-3.671878"/>
      <trkpt lat="40.179878" lon="-3.671848"/>
      <trkpt lat="40.179878" lon="-3.671848"/>
      <trkpt lat="40.179962" lon="-3.671792"/>
      <trkpt lat="40.180005" lon="-3.671768"/>
      <trkpt lat="40.180005" lon="-3.671768"/>
      <trkpt lat="40.180088" lon="-3.671715"/>
      <trkpt lat="40.180088" lon="-3.671715"/>
      <trkpt lat="40.180168" lon="-3.671665"/>
      <trkpt lat="40.180168" lon="-3.671665"/>
      <trkpt lat="40.180248" lon="-3.671608"/>
      <trkpt lat="40.180288" lon="-3.671578"/>
      <trkpt lat="40.180288" lon="-3.671578"/>
      <trkpt lat="40.180368" lon="-3.671525"/>
      <trkpt lat="40.180368" lon="-3.671525"/>
      <trkpt lat="40.180447" lon="-3.671472"/>
      <trkpt lat="40.180483" lon="-3.671443"/>
      <trkpt lat="40.180483" lon="-3.671443"/>
      <trkpt lat="40.180562" lon="-3.671392"/>
      <trkpt lat="40.180598" lon="-3.671365"/>
      <trkpt lat="40.180598" lon="-3.671365"/>
      <trkpt lat="40.18067" lon="-3.671313"/>
      <trkpt lat="40.180705" lon="-3.671288"/>
      <trkpt lat="40.180705" lon="-3.671288"/>
      <trkpt lat="40.180768" lon="-3.671245"/>
      <trkpt lat="40.180797" lon="-3.671222"/>
      <trkpt lat="40.180797" lon="-3.671222"/>
      <trkpt lat="40.180833" lon="-3.671182"/>
      <trkpt lat="40.180833" lon="-3.671182"/>
      <trkpt lat="40.18085" lon="-3.671132"/>
      <trkpt lat="40.18085" lon="-3.671132"/>
      <trkpt lat="40.180862" lon="-3.671077"/>
      <trkpt lat="40.180862" lon="-3.671077"/>
      <trkpt lat="40.180868" lon="-3.671035"/>
      <trkpt lat="40.180868" lon="-3.671035"/>
      <trkpt lat="40.180875" lon="-3.671027"/>
      <trkpt lat="40.179755" lon="-3.67052">
        <ele>606.6842431110601</ele>
        <time>2021-05-07T17:59:52.000Z</time>
      </trkpt>
      <trkpt lat="40.179756" lon="-3.670521">
        <ele>606.6908299428608</ele>
        <time>2021-05-07T17:59:52.000Z</time>
      </trkpt>
      <trkpt lat="40.179757" lon="-3.670521">
        <ele>606.698052994321</ele>
        <time>2021-05-07T17:59:52.000Z</time>
      </trkpt>
      <trkpt lat="40.179758" lon="-3.670522">
        <ele>606.7064987280455</ele>
        <time>2021-05-07T17:59:52.000Z</time>
      </trkpt>
      <trkpt lat="40.179759" lon="-3.670522">
        <ele>606.7151290755592</ele>
        <time>2021-05-07T17:59:52.000Z</time>
      </trkpt>
      <trkpt lat="40.17976" lon="-3.670523">
        <ele>606.7246259385919</ele>
        <time>2021-05-07T17:59:52.000Z</time>
      </trkpt>
      <trkpt lat="40.179761" lon="-3.670523">
        <ele>606.7341099804887</ele>
        <time>2021-05-07T17:59:52.000Z</time>
      </trkpt>
      <trkpt lat="40.179762" lon="-3.670524">
        <ele>606.7442632981733</ele>
        <time>2021-05-07T17:59:52.000Z</time>
      </trkpt>
      <trkpt lat="40.179763" lon="-3.670524">
        <ele>606.7542831931092</ele>
        <time>2021-05-07T17:59:52.000Z</time>
      </trkpt>
      <trkpt lat="40.179764" lon="-3.670525">
        <ele>606.7648159412942</ele>
        <time>2021-05-07T17:59:52.000Z</time>
      </trkpt>
      <trkpt lat="40.179765" lon="-3.670525">
        <ele>606.7750946842609</ele>
        <time>2021-05-07T17:59:52.000Z</time>
      </trkpt>
      <trkpt lat="40.179766" lon="-3.670526">
        <ele>606.7857120808716</ele>
        <time>2021-05-07T17:59:52.000Z</time>
      </trkpt>
      <trkpt lat="40.179767" lon="-3.670526">
        <ele>606.7959277258335</ele>
        <time>2021-05-07T17:59:52.000Z</time>
      </trkpt>
      <trkpt lat="40.179768" lon="-3.670527">
        <ele>606.8062896853028</ele>
        <time>2021-05-07T17:59:52.000Z</time>
      </trkpt>
      <trkpt lat="40.179769" lon="-3.670528">
        <ele>606.8164489147305</ele>
        <time>2021-05-07T17:59:52.000Z</time>
      </trkpt>
      <trkpt lat="40.17977" lon="-3.670528">
        <ele>606.8258674910712</ele>
        <time>2021-05-07T17:59:52.000Z</time>
      </trkpt>
      <trkpt lat="40.179772" lon="-3.670529">
        <ele>606.8354097129335</ele>
        <time>2021-05-07T17:59:52.000Z</time>
      </trkpt>
      <trkpt lat="40.179773" lon="-3.670529">
        <ele>606.8436946537829</ele>
        <time>2021-05-07T17:59:52.000Z</time>
      </trkpt>
      <trkpt lat="40.179774" lon="-3.67053">
        <ele>606.8513810003631</ele>
        <time>2021-05-07T17:59:52.000Z</time>
      </trkpt>
      <trkpt lat="40.179775" lon="-3.67053">
        <ele>606.8577180902334</ele>
        <time>2021-05-07T17:59:52.000Z</time>
      </trkpt>
      <trkpt lat="40.179776" lon="-3.670531">
        <ele>606.8631268652492</ele>
        <time>2021-05-07T17:59:52.000Z</time>
      </trkpt>
      <trkpt lat="40.179777" lon="-3.670531">
        <ele>606.866865565268</ele>
        <time>2021-05-07T17:59:52.000Z</time>
      </trkpt>
      <trkpt lat="40.179778" lon="-3.670532">
        <ele>606.8693385904602</ele>
        <time>2021-05-07T17:59:52.001Z</time>
      </trkpt>
      <trkpt lat="40.179779" lon="-3.670532">
        <ele>606.8698175820381</ele>
        <time>2021-05-07T17:59:52.002Z</time>
      </trkpt>
      <trkpt lat="40.17978" lon="-3.670533">
        <ele>606.8687010572394</ele>
        <time>2021-05-07T17:59:52.003Z</time>
      </trkpt>
      <trkpt lat="40.179781" lon="-3.670534">
        <ele>606.8656098947096</ele>
        <time>2021-05-07T17:59:52.004Z</time>
      </trkpt>
      <trkpt lat="40.179782" lon="-3.670534">
        <ele>606.8600699376761</ele>
        <time>2021-05-07T17:59:52.005Z</time>
      </trkpt>
      <trkpt lat="40.179783" lon="-3.670535">
        <ele>606.8525003292478</ele>
        <time>2021-05-07T17:59:52.006Z</time>
      </trkpt>
      <trkpt lat="40.179784" lon="-3.670535">
        <ele>606.8422612896763</ele>
        <time>2021-05-07T17:59:52.007Z</time>
      </trkpt>
      <trkpt lat="40.179785" lon="-3.670536">
        <ele>606.8298138011205</ele>
        <time>2021-05-07T17:59:52.008Z</time>
      </trkpt>
      <trkpt lat="40.179786" lon="-3.670536">
        <ele>606.8145877499176</ele>
        <time>2021-05-07T17:59:52.009Z</time>
      </trkpt>
      <trkpt lat="40.179787" lon="-3.670537">
        <ele>606.7971088734566</ele>
        <time>2021-05-07T17:59:52.010Z</time>
      </trkpt>
      <trkpt lat="40.179788" lon="-3.670537">
        <ele>606.7768991804472</ele>
        <time>2021-05-07T17:59:52.011Z</time>
      </trkpt>
      <trkpt lat="40.179789" lon="-3.670538">
        <ele>606.7545741666443</ele>
        <time>2021-05-07T17:59:52.012Z</time>
      </trkpt>
      <trkpt lat="40.17979" lon="-3.670538">
        <ele>606.7297670840926</ele>
        <time>2021-05-07T17:59:52.013Z</time>
      </trkpt>
      <trkpt lat="40.179791" lon="-3.670539">
        <ele>606.7032176282402</ele>
        <time>2021-05-07T17:59:52.014Z</time>
      </trkpt>
      <trkpt lat="40.179792" lon="-3.670539">
        <ele>606.6747005210167</ele>
        <time>2021-05-07T17:59:52.015Z</time>
      </trkpt>
      <trkpt lat="40.179793" lon="-3.67054">
        <ele>606.6450862409638</ele>
        <time>2021-05-07T17:59:52.016Z</time>
      </trkpt>
      <trkpt lat="40.179794" lon="-3.670541">
        <ele>606.6145964596199</ele>
        <time>2021-05-07T17:59:52.017Z</time>
      </trkpt>
      <trkpt lat="40.179795" lon="-3.670541">
        <ele>606.583473654146</ele>
        <time>2021-05-07T17:59:52.018Z</time>
      </trkpt>
      <trkpt lat="40.179796" lon="-3.670542">
        <ele>606.5528343591363</ele>
        <time>2021-05-07T17:59:52.019Z</time>
      </trkpt>
      <trkpt lat="40.179797" lon="-3.670542">
        <ele>606.5228911679619</ele>
        <time>2021-05-07T17:59:52.020Z</time>
      </trkpt>
      <trkpt lat="40.179798" lon="-3.670543">
        <ele>606.4949399812642</ele>
        <time>2021-05-07T17:59:52.021Z</time>
      </trkpt>
      <trkpt lat="40.179799" lon="-3.670543">
        <ele>606.4693821516257</ele>
        <time>2021-05-07T17:59:52.022Z</time>
      </trkpt>
      <trkpt lat="40.1798" lon="-3.670544">
        <ele>606.4476903763149</ele>
        <time>2021-05-07T17:59:52.023Z</time>
      </trkpt>
      <trkpt lat="40.179801" lon="-3.670544">
        <ele>606.4304443066417</ele>
        <time>2021-05-07T17:59:52.024Z</time>
      </trkpt>
      <trkpt lat="40.179803" lon="-3.670545">
        <ele>606.4195405090757</ele>
        <time>2021-05-07T17:59:52.025Z</time>
      </trkpt>
      <trkpt lat="40.179804" lon="-3.670545">
        <ele>606.4152195508266</ele>
        <time>2021-05-07T17:59:52.026Z</time>
      </trkpt>
      <trkpt lat="40.179805" lon="-3.670546">
        <ele>606.4194508725677</ele>
        <time>2021-05-07T17:59:52.027Z</time>
      </trkpt>
      <trkpt lat="40.179806" lon="-3.670547">
        <ele>606.4333289843366</ele>
        <time>2021-05-07T17:59:52.028Z</time>
      </trkpt>
      <trkpt lat="40.179807" lon="-3.670547">
        <ele>606.4579313437202</ele>
        <time>2021-05-07T17:59:52.029Z</time>
      </trkpt>
      <trkpt lat="40.179808" lon="-3.670548">
        <ele>606.4950815261539</ele>
        <time>2021-05-07T17:59:52.030Z</time>
      </trkpt>
      <trkpt lat="40.179809" lon="-3.670548">
        <ele>606.5456308753005</ele>
        <time>2021-05-07T17:59:52.031Z</time>
      </trkpt>
      <trkpt lat="40.17981" lon="-3.670549">
        <ele>606.6113340215151</ele>
        <time>2021-05-07T17:59:52.032Z</time>
      </trkpt>
      <trkpt lat="40.179811" lon="-3.670549">
        <ele>606.6929199568408</ele>
        <time>2021-05-07T17:59:52.033Z</time>
      </trkpt>
      <trkpt lat="40.179812" lon="-3.67055">
        <ele>606.7919493001052</ele>
        <time>2021-05-07T17:59:52.034Z</time>
      </trkpt>
      <trkpt lat="40.179813" lon="-3.67055">
        <ele>606.9088899097553</ele>
        <time>2021-05-07T17:59:52.035Z</time>
      </trkpt>
      <trkpt lat="40.179814" lon="-3.670551">
        <ele>607.044953017887</ele>
        <time>2021-05-07T17:59:52.036Z</time>
      </trkpt>
      <trkpt lat="40.179815" lon="-3.670551">
        <ele>607.200189821356</ele>
        <time>2021-05-07T17:59:52.037Z</time>
      </trkpt>
      <trkpt lat="40.179816" lon="-3.670552">
        <ele>607.3752929742893</ele>
        <time>2021-05-07T17:59:52.038Z</time>
      </trkpt>
      <trkpt lat="40.179817" lon="-3.670552">
        <ele>607.569697344532</ele>
        <time>2021-05-07T17:59:52.039Z</time>
      </trkpt>
      <trkpt lat="40.179818" lon="-3.670553">
        <ele>607.7833894186815</ele>
        <time>2021-05-07T17:59:52.040Z</time>
      </trkpt>
      <trkpt lat="40.179912" lon="-3.67058">
        <ele>608.0442547791911</ele>
        <time>2021-05-07T17:59:52.043Z</time>
      </trkpt>
      <trkpt lat="40.179952" lon="-3.670595">
        <ele>608.3083142306268</ele>
        <time>2021-05-07T17:59:52.047Z</time>
      </trkpt>
      <trkpt lat="40.179993" lon="-3.670612">
        <ele>608.5882711556922</ele>
        <time>2021-05-07T17:59:52.052Z</time>
      </trkpt>
      <trkpt lat="40.180078" lon="-3.670645">
        <ele>608.9018180649281</ele>
        <time>2021-05-07T17:59:52.059Z</time>
      </trkpt>
      <trkpt lat="40.180165" lon="-3.67068">
        <ele>609.2307016835091</ele>
        <time>2021-05-07T17:59:52.068Z</time>
      </trkpt>
      <trkpt lat="40.18025" lon="-3.670713">
        <ele>609.5658084192592</ele>
        <time>2021-05-07T17:59:52.078Z</time>
      </trkpt>
      <trkpt lat="40.180287" lon="-3.67073">
        <ele>609.8837595876375</ele>
        <time>2021-05-07T17:59:52.089Z</time>
      </trkpt>
      <trkpt lat="40.180373" lon="-3.67076">
        <ele>610.2190337576781</ele>
        <time>2021-05-07T17:59:52.102Z</time>
      </trkpt>
      <trkpt lat="40.180453" lon="-3.67079">
        <ele>610.5464574459902</ele>
        <time>2021-05-07T17:59:52.117Z</time>
      </trkpt>
      <trkpt lat="40.180493" lon="-3.670807">
        <ele>610.840529021935</ele>
        <time>2021-05-07T17:59:52.132Z</time>
      </trkpt>
      <trkpt lat="40.180577" lon="-3.670835">
        <ele>611.1279436574146</ele>
        <time>2021-05-07T17:59:52.149Z</time>
      </trkpt>
      <trkpt lat="40.180663" lon="-3.670868">
        <ele>611.3970550403692</ele>
        <time>2021-05-07T17:59:52.168Z</time>
      </trkpt>
      <trkpt lat="40.180745" lon="-3.670897">
        <ele>611.6422037488734</ele>
        <time>2021-05-07T17:59:52.189Z</time>
      </trkpt>
      <trkpt lat="40.180788" lon="-3.670913">
        <ele>611.8639622458356</ele>
        <time>2021-05-07T17:59:52.211Z</time>
      </trkpt>
      <trkpt lat="40.180872" lon="-3.670947">
        <ele>612.0679316237474</ele>
        <time>2021-05-07T17:59:52.234Z</time>
      </trkpt>
      <trkpt lat="40.18096" lon="-3.67096">
        <ele>612.2441034977089</ele>
        <time>2021-05-07T17:59:52.259Z</time>
      </trkpt>
      <trkpt lat="40.181003" lon="-3.670977">
        <ele>612.3970564981962</ele>
        <time>2021-05-07T17:59:52.285Z</time>
      </trkpt>
      <trkpt lat="40.181067" lon="-3.67105">
        <ele>612.5330630767456</ele>
        <time>2021-05-07T17:59:52.313Z</time>
      </trkpt>
      <trkpt lat="40.181075" lon="-3.67109">
        <ele>612.6323333458975</ele>
        <time>2021-05-07T17:59:52.341Z</time>
      </trkpt>
      <trkpt lat="40.181018" lon="-3.671155">
        <ele>612.7055775593602</ele>
        <time>2021-05-07T17:59:52.371Z</time>
      </trkpt>
      <trkpt lat="40.180922" lon="-3.671175">
        <ele>612.7526949181924</ele>
        <time>2021-05-07T17:59:52.403Z</time>
      </trkpt>
      <trkpt lat="40.180872" lon="-3.67118">
        <ele>612.7737207343914</ele>
        <time>2021-05-07T17:59:52.436Z</time>
      </trkpt>
      <trkpt lat="40.18078" lon="-3.671225">
        <ele>612.768805584263</ele>
        <time>2021-05-07T17:59:52.471Z</time>
      </trkpt>
      <trkpt lat="40.180693" lon="-3.67129">
        <ele>612.738202454118</ele>
        <time>2021-05-07T17:59:52.508Z</time>
      </trkpt>
      <trkpt lat="40.180608" lon="-3.671357">
        <ele>612.6822617392147</ele>
        <time>2021-05-07T17:59:52.547Z</time>
      </trkpt>
      <trkpt lat="40.180522" lon="-3.671422">
        <ele>612.6014338382095</ele>
        <time>2021-05-07T17:59:52.588Z</time>
      </trkpt>
      <trkpt lat="40.180435" lon="-3.67149">
        <ele>612.494454594561</ele>
        <time>2021-05-07T17:59:52.631Z</time>
      </trkpt>
      <trkpt lat="40.18039" lon="-3.671523">
        <ele>612.3587910597003</ele>
        <time>2021-05-07T17:59:52.675Z</time>
      </trkpt>
      <trkpt lat="40.180297" lon="-3.671588">
        <ele>612.192909699977</ele>
        <time>2021-05-07T17:59:52.721Z</time>
      </trkpt>
      <trkpt lat="40.1802" lon="-3.671652">
        <ele>612.0043890829281</ele>
        <time>2021-05-07T17:59:52.769Z</time>
      </trkpt>
      <trkpt lat="40.180153" lon="-3.671687">
        <ele>611.8027535840454</ele>
        <time>2021-05-07T17:59:52.818Z</time>
      </trkpt>
      <trkpt lat="40.180055" lon="-3.671755">
        <ele>611.5744731624195</ele>
        <time>2021-05-07T17:59:52.869Z</time>
      </trkpt>
      <trkpt lat="40.180005" lon="-3.671788">
        <ele>611.3356555744963</ele>
        <time>2021-05-07T17:59:52.922Z</time>
      </trkpt>
      <trkpt lat="40.179952" lon="-3.671823">
        <ele>611.0804344207601</ele>
        <time>2021-05-07T17:59:52.976Z</time>
      </trkpt>
      <trkpt lat="40.179852" lon="-3.671897">
        <ele>610.8091037152924</ele>
        <time>2021-05-07T17:59:53.032Z</time>
      </trkpt>
      <trkpt lat="40.17975" lon="-3.671965">
        <ele>610.5295231211038</ele>
        <time>2021-05-07T17:59:53.090Z</time>
      </trkpt>
      <trkpt lat="40.179695" lon="-3.67199">
        <ele>610.2396297451912</ele>
        <time>2021-05-07T17:59:53.149Z</time>
      </trkpt>
      <trkpt lat="40.179578" lon="-3.672005">
        <ele>609.9272715243329</ele>
        <time>2021-05-07T17:59:53.211Z</time>
      </trkpt>
      <trkpt lat="40.17947" lon="-3.671973">
        <ele>609.5965747649209</ele>
        <time>2021-05-07T17:59:53.275Z</time>
      </trkpt>
      <trkpt lat="40.179417" lon="-3.671953">
        <ele>609.2749764863272</ele>
        <time>2021-05-07T17:59:53.340Z</time>
      </trkpt>
      <trkpt lat="40.179305" lon="-3.67191">
        <ele>608.9347932958993</ele>
        <time>2021-05-07T17:59:53.407Z</time>
      </trkpt>
      <trkpt lat="40.17925" lon="-3.67189">
        <ele>608.6110993067207</ele>
        <time>2021-05-07T17:59:53.476Z</time>
      </trkpt>
      <trkpt lat="40.179143" lon="-3.671847">
        <ele>608.2758982505543</ele>
        <time>2021-05-07T17:59:53.547Z</time>
      </trkpt>
      <trkpt lat="40.17909" lon="-3.671825">
        <ele>607.9616977334864</ele>
        <time>2021-05-07T17:59:53.619Z</time>
      </trkpt>
      <trkpt lat="40.178987" lon="-3.67179">
        <ele>607.6432735307137</ele>
        <time>2021-05-07T17:59:53.693Z</time>
      </trkpt>
      <trkpt lat="40.178887" lon="-3.671752">
        <ele>607.3361032192447</ele>
        <time>2021-05-07T17:59:53.769Z</time>
      </trkpt>
      <trkpt lat="40.178837" lon="-3.671737">
        <ele>607.0568703035558</ele>
        <time>2021-05-07T17:59:53.846Z</time>
      </trkpt>
      <trkpt lat="40.178788" lon="-3.67172">
        <ele>606.7932814835266</ele>
        <time>2021-05-07T17:59:53.924Z</time>
      </trkpt>
      <trkpt lat="40.178743" lon="-3.671703">
        <ele>606.5560901133144</ele>
        <time>2021-05-07T17:59:54.003Z</time>
      </trkpt>
      <trkpt lat="40.17865" lon="-3.671663">
        <ele>606.3359183344082</ele>
        <time>2021-05-07T17:59:54.084Z</time>
      </trkpt>
      <trkpt lat="40.178557" lon="-3.671628">
        <ele>606.1360120017976</ele>
        <time>2021-05-07T17:59:54.167Z</time>
      </trkpt>
      <trkpt lat="40.178508" lon="-3.671612">
        <ele>605.9591170950501</ele>
        <time>2021-05-07T17:59:54.251Z</time>
      </trkpt>
      <trkpt lat="40.178407" lon="-3.671575">
        <ele>605.7998357010574</ele>
        <time>2021-05-07T17:59:54.337Z</time>
      </trkpt>
      <trkpt lat="40.178302" lon="-3.671535">
        <ele>605.6610630716672</ele>
        <time>2021-05-07T17:59:54.425Z</time>
      </trkpt>
      <trkpt lat="40.178193" lon="-3.671495">
        <ele>605.5434301074007</ele>
        <time>2021-05-07T17:59:54.516Z</time>
      </trkpt>
      <trkpt lat="40.178138" lon="-3.671473">
        <ele>605.4496532523418</ele>
        <time>2021-05-07T17:59:54.608Z</time>
      </trkpt>
      <trkpt lat="40.17803" lon="-3.67143">
        <ele>605.3739709007502</ele>
        <time>2021-05-07T17:59:54.702Z</time>
      </trkpt>
      <trkpt lat="40.177973" lon="-3.671408">
        <ele>605.3223380017012</ele>
        <time>2021-05-07T17:59:54.797Z</time>
      </trkpt>
      <trkpt lat="40.177865" lon="-3.671363">
        <ele>605.2880646501542</ele>
        <time>2021-05-07T17:59:54.894Z</time>
      </trkpt>
      <trkpt lat="40.17781" lon="-3.671338">
        <ele>605.2770397830224</ele>
        <time>2021-05-07T17:59:54.993Z</time>
      </trkpt>
      <trkpt lat="40.177698" lon="-3.671295">
        <ele>605.2832346317127</ele>
        <time>2021-05-07T17:59:55.094Z</time>
      </trkpt>
      <trkpt lat="40.177642" lon="-3.671285">
        <ele>605.3204205967315</ele>
        <time>2021-05-07T17:59:55.196Z</time>
      </trkpt>
      <trkpt lat="40.177585" lon="-3.671283">
        <ele>605.3789038304799</ele>
        <time>2021-05-07T17:59:55.299Z</time>
      </trkpt>
      <trkpt lat="40.177483" lon="-3.671318">
        <ele>605.4613162599128</ele>
        <time>2021-05-07T17:59:55.404Z</time>
      </trkpt>
      <trkpt lat="40.177443" lon="-3.671355">
        <ele>605.5507827718111</ele>
        <time>2021-05-07T17:59:55.510Z</time>
      </trkpt>
      <trkpt lat="40.17739" lon="-3.671458">
        <ele>605.6569133692624</ele>
        <time>2021-05-07T17:59:55.618Z</time>
      </trkpt>
      <trkpt lat="40.177352" lon="-3.671573">
        <ele>605.7744049712319</ele>
        <time>2021-05-07T17:59:55.728Z</time>
      </trkpt>
      <trkpt lat="40.177305" lon="-3.671693">
        <ele>605.908978582127</ele>
        <time>2021-05-07T17:59:55.840Z</time>
      </trkpt>
      <trkpt lat="40.177262" lon="-3.671808">
        <ele>606.0612165115989</ele>
        <time>2021-05-07T17:59:55.954Z</time>
      </trkpt>
      <trkpt lat="40.177223" lon="-3.671922">
        <ele>606.2188744963548</ele>
        <time>2021-05-07T17:59:56.070Z</time>
      </trkpt>
      <trkpt lat="40.17719" lon="-3.672037">
        <ele>606.3815493970519</ele>
        <time>2021-05-07T17:59:56.188Z</time>
      </trkpt>
      <trkpt lat="40.17717" lon="-3.672092">
        <ele>606.5477497010829</ele>
        <time>2021-05-07T17:59:56.307Z</time>
      </trkpt>
      <trkpt lat="40.177132" lon="-3.6722">
        <ele>606.7249867463928</ele>
        <time>2021-05-07T17:59:56.428Z</time>
      </trkpt>
      <trkpt lat="40.17709" lon="-3.672313">
        <ele>606.9092094258929</ele>
        <time>2021-05-07T17:59:56.551Z</time>
      </trkpt>
      <trkpt lat="40.177067" lon="-3.672368">
        <ele>607.0953517490412</ele>
        <time>2021-05-07T17:59:56.675Z</time>
      </trkpt>
      <trkpt lat="40.177028" lon="-3.672477">
        <ele>607.291202577786</ele>
        <time>2021-05-07T17:59:56.800Z</time>
      </trkpt>
      <trkpt lat="40.177008" lon="-3.672532">
        <ele>607.4886548706897</ele>
        <time>2021-05-07T17:59:56.926Z</time>
      </trkpt>
      <trkpt lat="40.17697" lon="-3.67265">
        <ele>607.6960030200785</ele>
        <time>2021-05-07T17:59:57.054Z</time>
      </trkpt>
      <trkpt lat="40.176928" lon="-3.672767">
        <ele>607.9188987249054</ele>
        <time>2021-05-07T17:59:57.184Z</time>
      </trkpt>
      <trkpt lat="40.176887" lon="-3.672875">
        <ele>608.151192651326</ele>
        <time>2021-05-07T17:59:57.316Z</time>
      </trkpt>
      <trkpt lat="40.17687" lon="-3.672928">
        <ele>608.3759648450762</ele>
        <time>2021-05-07T17:59:57.449Z</time>
      </trkpt>
      <trkpt lat="40.176837" lon="-3.673032">
        <ele>608.6116115666048</ele>
        <time>2021-05-07T17:59:57.584Z</time>
      </trkpt>
      <trkpt lat="40.176808" lon="-3.673132">
        <ele>608.8497428272979</ele>
        <time>2021-05-07T17:59:57.720Z</time>
      </trkpt>
      <trkpt lat="40.176792" lon="-3.67318">
        <ele>609.0834168212682</ele>
        <time>2021-05-07T17:59:57.857Z</time>
      </trkpt>
      <trkpt lat="40.176757" lon="-3.673277">
        <ele>609.3297373530137</ele>
        <time>2021-05-07T17:59:57.996Z</time>
      </trkpt>
      <trkpt lat="40.17674" lon="-3.673327">
        <ele>609.5723245554778</ele>
        <time>2021-05-07T17:59:58.136Z</time>
      </trkpt>
      <trkpt lat="40.176705" lon="-3.673418">
        <ele>609.8268652422439</ele>
        <time>2021-05-07T17:59:58.277Z</time>
      </trkpt>
      <trkpt lat="40.176688" lon="-3.673467">
        <ele>610.0790879822081</ele>
        <time>2021-05-07T17:59:58.419Z</time>
      </trkpt>
      <trkpt lat="40.176672" lon="-3.673515">
        <ele>610.336590005353</ele>
        <time>2021-05-07T17:59:58.562Z</time>
      </trkpt>
      <trkpt lat="40.17664" lon="-3.673613">
        <ele>610.6084902214052</ele>
        <time>2021-05-07T17:59:58.706Z</time>
      </trkpt>
      <trkpt lat="40.176608" lon="-3.67371">
        <ele>610.8866247603748</ele>
        <time>2021-05-07T17:59:58.852Z</time>
      </trkpt>
      <trkpt lat="40.176592" lon="-3.673758">
        <ele>611.1631709687006</ele>
        <time>2021-05-07T17:59:58.999Z</time>
      </trkpt>
      <trkpt lat="40.176575" lon="-3.673807">
        <ele>611.4469162170356</ele>
        <time>2021-05-07T17:59:59.147Z</time>
      </trkpt>
      <trkpt lat="40.176543" lon="-3.673905">
        <ele>611.7461067440108</ele>
        <time>2021-05-07T17:59:59.296Z</time>
      </trkpt>
      <trkpt lat="40.176508" lon="-3.674005">
        <ele>612.0531278208937</ele>
        <time>2021-05-07T17:59:59.447Z</time>
      </trkpt>
      <trkpt lat="40.176495" lon="-3.674062">
        <ele>612.3595083607952</ele>
        <time>2021-05-07T17:59:59.599Z</time>
      </trkpt>
      <trkpt lat="40.176463" lon="-3.67417">
        <ele>612.6815893914634</ele>
        <time>2021-05-07T17:59:59.753Z</time>
      </trkpt>
      <trkpt lat="40.176435" lon="-3.674275">
        <ele>613.0143824582977</ele>
        <time>2021-05-07T17:59:59.908Z</time>
      </trkpt>
      <trkpt lat="40.176413" lon="-3.67438">
        <ele>613.3521834577562</ele>
        <time>2021-05-07T18:00:00.065Z</time>
      </trkpt>
      <trkpt lat="40.176405" lon="-3.674432">
        <ele>613.6808128577529</ele>
        <time>2021-05-07T18:00:00.223Z</time>
      </trkpt>
      <trkpt lat="40.176382" lon="-3.674537">
        <ele>614.0209048448216</ele>
        <time>2021-05-07T18:00:00.383Z</time>
      </trkpt>
      <trkpt lat="40.176358" lon="-3.674638">
        <ele>614.363052523413</ele>
        <time>2021-05-07T18:00:00.544Z</time>
      </trkpt>
      <trkpt lat="40.176335" lon="-3.674738">
        <ele>614.7062660872493</ele>
        <time>2021-05-07T18:00:00.707Z</time>
      </trkpt>
      <trkpt lat="40.17631" lon="-3.674837">
        <ele>615.0489087923638</ele>
        <time>2021-05-07T18:00:00.871Z</time>
      </trkpt>
      <trkpt lat="40.176287" lon="-3.67494">
        <ele>615.3898330785714</ele>
        <time>2021-05-07T18:00:01.037Z</time>
      </trkpt>
      <trkpt lat="40.176275" lon="-3.674992">
        <ele>615.7186371336753</ele>
        <time>2021-05-07T18:00:01.204Z</time>
      </trkpt>
      <trkpt lat="40.176253" lon="-3.675093">
        <ele>616.046593698697</ele>
        <time>2021-05-07T18:00:01.373Z</time>
      </trkpt>
      <trkpt lat="40.176232" lon="-3.675198">
        <ele>616.3663485396631</ele>
        <time>2021-05-07T18:00:01.543Z</time>
      </trkpt>
      <trkpt lat="40.176223" lon="-3.67525">
        <ele>616.6743137324061</ele>
        <time>2021-05-07T18:00:01.714Z</time>
      </trkpt>
      <trkpt lat="40.176205" lon="-3.675357">
        <ele>616.9759724562819</ele>
        <time>2021-05-07T18:00:01.887Z</time>
      </trkpt>
      <trkpt lat="40.176197" lon="-3.67541">
        <ele>617.2470754778926</ele>
        <time>2021-05-07T18:00:02.060Z</time>
      </trkpt>
      <trkpt lat="40.17618" lon="-3.675517">
        <ele>617.5076287995844</ele>
        <time>2021-05-07T18:00:02.235Z</time>
      </trkpt>
      <trkpt lat="40.176163" lon="-3.675623">
        <ele>617.7419734717732</ele>
        <time>2021-05-07T18:00:02.412Z</time>
      </trkpt>
      <trkpt lat="40.176155" lon="-3.675677">
        <ele>617.9352441591295</ele>
        <time>2021-05-07T18:00:02.590Z</time>
      </trkpt>
      <trkpt lat="40.17614" lon="-3.675782">
        <ele>618.1060959327325</ele>
        <time>2021-05-07T18:00:02.769Z</time>
      </trkpt>
      <trkpt lat="40.176128" lon="-3.675883">
        <ele>618.2389999564525</ele>
        <time>2021-05-07T18:00:02.950Z</time>
      </trkpt>
      <trkpt lat="40.176123" lon="-3.675935">
        <ele>618.3207897797522</ele>
        <time>2021-05-07T18:00:03.132Z</time>
      </trkpt>
      <trkpt lat="40.176118" lon="-3.675987">
        <ele>618.3591043614545</ele>
        <time>2021-05-07T18:00:03.314Z</time>
      </trkpt>
      <trkpt lat="40.176107" lon="-3.676092">
        <ele>618.3537747927181</ele>
        <time>2021-05-07T18:00:03.498Z</time>
      </trkpt>
      <trkpt lat="40.176093" lon="-3.676198">
        <ele>618.2944517982806</ele>
        <time>2021-05-07T18:00:03.684Z</time>
      </trkpt>
      <trkpt lat="40.176085" lon="-3.676302">
        <ele>618.1798657067052</ele>
        <time>2021-05-07T18:00:03.871Z</time>
      </trkpt>
      <trkpt lat="40.176078" lon="-3.67641">
        <ele>618.0138538440349</ele>
        <time>2021-05-07T18:00:04.060Z</time>
      </trkpt>
      <trkpt lat="40.17607" lon="-3.676518">
        <ele>617.7979138349987</ele>
        <time>2021-05-07T18:00:04.251Z</time>
      </trkpt>
      <trkpt lat="40.176067" lon="-3.676578">
        <ele>617.5324737456466</ele>
        <time>2021-05-07T18:00:04.443Z</time>
      </trkpt>
      <trkpt lat="40.176062" lon="-3.676702">
        <ele>617.2197212951088</ele>
        <time>2021-05-07T18:00:04.637Z</time>
      </trkpt>
      <trkpt lat="40.176058" lon="-3.676832">
        <ele>616.8619863762223</ele>
        <time>2021-05-07T18:00:04.833Z</time>
      </trkpt>
      <trkpt lat="40.176053" lon="-3.67697">
        <ele>616.4473728327923</ele>
        <time>2021-05-07T18:00:05.031Z</time>
      </trkpt>
      <trkpt lat="40.176052" lon="-3.677113">
        <ele>615.987345040623</ele>
        <time>2021-05-07T18:00:05.231Z</time>
      </trkpt>
      <trkpt lat="40.176053" lon="-3.677267">
        <ele>615.4756980953862</ele>
        <time>2021-05-07T18:00:05.433Z</time>
      </trkpt>
      <trkpt lat="40.176057" lon="-3.677427">
        <ele>614.9378374618921</ele>
        <time>2021-05-07T18:00:05.638Z</time>
      </trkpt>
      <trkpt lat="40.176067" lon="-3.677597">
        <ele>614.3798449351943</ele>
        <time>2021-05-07T18:00:05.845Z</time>
      </trkpt>
      <trkpt lat="40.176078" lon="-3.677773">
        <ele>613.8124498485903</ele>
        <time>2021-05-07T18:00:06.055Z</time>
      </trkpt>
      <trkpt lat="40.17609" lon="-3.677958">
        <ele>613.2436932234193</ele>
        <time>2021-05-07T18:00:06.268Z</time>
      </trkpt>
      <trkpt lat="40.176108" lon="-3.678147">
        <ele>612.6830121700655</ele>
        <time>2021-05-07T18:00:06.484Z</time>
      </trkpt>
      <trkpt lat="40.176128" lon="-3.67834">
        <ele>612.1403021815638</ele>
        <time>2021-05-07T18:00:06.703Z</time>
      </trkpt>
      <trkpt lat="40.176155" lon="-3.678532">
        <ele>611.6250441073885</ele>
        <time>2021-05-07T18:00:06.925Z</time>
      </trkpt>
      <trkpt lat="40.176187" lon="-3.678727">
        <ele>611.1794818495998</ele>
        <time>2021-05-07T18:00:07.150Z</time>
      </trkpt>
      <trkpt lat="40.176222" lon="-3.678925">
        <ele>610.7852055681548</ele>
        <time>2021-05-07T18:00:07.378Z</time>
      </trkpt>
      <trkpt lat="40.17625" lon="-3.679117">
        <ele>610.4411905906265</ele>
        <time>2021-05-07T18:00:07.609Z</time>
      </trkpt>
      <trkpt lat="40.176278" lon="-3.679308">
        <ele>610.1506685535921</ele>
        <time>2021-05-07T18:00:07.843Z</time>
      </trkpt>
      <trkpt lat="40.176312" lon="-3.6795">
        <ele>609.9429276186895</ele>
        <time>2021-05-07T18:00:08.080Z</time>
      </trkpt>
      <trkpt lat="40.17634" lon="-3.679688">
        <ele>609.8016809123516</ele>
        <time>2021-05-07T18:00:08.320Z</time>
      </trkpt>
      <trkpt lat="40.17637" lon="-3.679862">
        <ele>609.7194134463505</ele>
        <time>2021-05-07T18:00:08.563Z</time>
      </trkpt>
      <trkpt lat="40.176397" lon="-3.680017">
        <ele>609.6953168533121</ele>
        <time>2021-05-07T18:00:08.808Z</time>
      </trkpt>
      <trkpt lat="40.176412" lon="-3.680087">
        <ele>609.7214397922869</ele>
        <time>2021-05-07T18:00:09.054Z</time>
      </trkpt>
      <trkpt lat="40.176472" lon="-3.680193">
        <ele>609.8004857588</ele>
        <time>2021-05-07T18:00:09.302Z</time>
      </trkpt>
      <trkpt lat="40.176565" lon="-3.680257">
        <ele>609.9479126620869</ele>
        <time>2021-05-07T18:00:09.552Z</time>
      </trkpt>
      <trkpt lat="40.176652" lon="-3.680337">
        <ele>610.1516525039997</ele>
        <time>2021-05-07T18:00:09.804Z</time>
      </trkpt>
      <trkpt lat="40.176687" lon="-3.680387">
        <ele>610.3973480747495</ele>
        <time>2021-05-07T18:00:10.057Z</time>
      </trkpt>
      <trkpt lat="40.176745" lon="-3.680497">
        <ele>610.700200000533</ele>
        <time>2021-05-07T18:00:10.312Z</time>
      </trkpt>
      <trkpt lat="40.17678" lon="-3.68062">
        <ele>611.0581810598073</ele>
        <time>2021-05-07T18:00:10.569Z</time>
      </trkpt>
      <trkpt lat="40.176787" lon="-3.680745">
        <ele>611.4561589156156</ele>
        <time>2021-05-07T18:00:10.828Z</time>
      </trkpt>
      <trkpt lat="40.176768" lon="-3.680867">
        <ele>611.8769480241831</ele>
        <time>2021-05-07T18:00:11.089Z</time>
      </trkpt>
      <trkpt lat="40.176727" lon="-3.680975">
        <ele>612.311156596066</ele>
        <time>2021-05-07T18:00:11.352Z</time>
      </trkpt>
      <trkpt lat="40.176665" lon="-3.681062">
        <ele>612.7506350124352</ele>
        <time>2021-05-07T18:00:11.617Z</time>
      </trkpt>
      <trkpt lat="40.176593" lon="-3.681125">
        <ele>613.19049286996</ele>
        <time>2021-05-07T18:00:11.884Z</time>
      </trkpt>
      <trkpt lat="40.176568" lon="-3.681215">
        <ele>613.6523036433396</ele>
        <time>2021-05-07T18:00:12.152Z</time>
      </trkpt>
      <trkpt lat="40.176588" lon="-3.681322">
        <ele>614.1272302898874</ele>
        <time>2021-05-07T18:00:12.422Z</time>
      </trkpt>
      <trkpt lat="40.176607" lon="-3.681433">
        <ele>614.5991545319057</ele>
        <time>2021-05-07T18:00:12.694Z</time>
      </trkpt>
      <trkpt lat="40.176618" lon="-3.681552">
        <ele>615.0582274054652</ele>
        <time>2021-05-07T18:00:12.967Z</time>
      </trkpt>
      <trkpt lat="40.176622" lon="-3.681612">
        <ele>615.4747454853766</ele>
        <time>2021-05-07T18:00:13.241Z</time>
      </trkpt>
      <trkpt lat="40.176637" lon="-3.681732">
        <ele>615.8841566961546</ele>
        <time>2021-05-07T18:00:13.517Z</time>
      </trkpt>
      <trkpt lat="40.17666" lon="-3.681862">
        <ele>616.2774937636809</ele>
        <time>2021-05-07T18:00:13.795Z</time>
      </trkpt>
      <trkpt lat="40.17668" lon="-3.68199">
        <ele>616.6341883546997</ele>
        <time>2021-05-07T18:00:14.075Z</time>
      </trkpt>
      <trkpt lat="40.176698" lon="-3.682112">
        <ele>616.9721360280927</ele>
        <time>2021-05-07T18:00:14.357Z</time>
      </trkpt>
      <trkpt lat="40.176712" lon="-3.682235">
        <ele>617.2917073819249</ele>
        <time>2021-05-07T18:00:14.641Z</time>
      </trkpt>
      <trkpt lat="40.176723" lon="-3.682368">
        <ele>617.6016001459345</ele>
        <time>2021-05-07T18:00:14.927Z</time>
      </trkpt>
      <trkpt lat="40.176732" lon="-3.68243">
        <ele>617.8910039032628</ele>
        <time>2021-05-07T18:00:15.214Z</time>
      </trkpt>
      <trkpt lat="40.176752" lon="-3.682558">
        <ele>618.1686356624416</ele>
        <time>2021-05-07T18:00:15.503Z</time>
      </trkpt>
      <trkpt lat="40.176758" lon="-3.682623">
        <ele>618.4262755515601</ele>
        <time>2021-05-07T18:00:15.793Z</time>
      </trkpt>
      <trkpt lat="40.17677" lon="-3.682752">
        <ele>618.6623197938327</ele>
        <time>2021-05-07T18:00:16.085Z</time>
      </trkpt>
      <trkpt lat="40.176778" lon="-3.682815">
        <ele>618.8791756258352</ele>
        <time>2021-05-07T18:00:16.378Z</time>
      </trkpt>
      <trkpt lat="40.176793" lon="-3.682948">
        <ele>619.0745848856056</ele>
        <time>2021-05-07T18:00:16.673Z</time>
      </trkpt>
      <trkpt lat="40.176808" lon="-3.683082">
        <ele>619.2830135820044</ele>
        <time>2021-05-07T18:00:16.970Z</time>
      </trkpt>
      <trkpt lat="40.17682" lon="-3.683218">
        <ele>619.501355848282</ele>
        <time>2021-05-07T18:00:17.269Z</time>
      </trkpt>
      <trkpt lat="40.17684" lon="-3.683355">
        <ele>619.7128530795376</ele>
        <time>2021-05-07T18:00:17.570Z</time>
      </trkpt>
      <trkpt lat="40.176852" lon="-3.683423">
        <ele>619.9024026828237</ele>
        <time>2021-05-07T18:00:17.872Z</time>
      </trkpt>
      <trkpt lat="40.176888" lon="-3.683553">
        <ele>620.0958546742055</ele>
        <time>2021-05-07T18:00:18.177Z</time>
      </trkpt>
      <trkpt lat="40.176907" lon="-3.683615">
        <ele>620.2605290912118</ele>
        <time>2021-05-07T18:00:18.483Z</time>
      </trkpt>
      <trkpt lat="40.176947" lon="-3.683737">
        <ele>620.4262425089031</ele>
        <time>2021-05-07T18:00:18.791Z</time>
      </trkpt>
      <trkpt lat="40.176987" lon="-3.683852">
        <ele>620.5860755530639</ele>
        <time>2021-05-07T18:00:19.101Z</time>
      </trkpt>
      <trkpt lat="40.177028" lon="-3.683967">
        <ele>620.7311390351297</ele>
        <time>2021-05-07T18:00:19.413Z</time>
      </trkpt>
      <trkpt lat="40.177067" lon="-3.684083">
        <ele>620.8589891495453</ele>
        <time>2021-05-07T18:00:19.726Z</time>
      </trkpt>
      <trkpt lat="40.177107" lon="-3.684202">
        <ele>620.9696618694952</ele>
        <time>2021-05-07T18:00:20.041Z</time>
      </trkpt>
      <trkpt lat="40.17715" lon="-3.68432">
        <ele>621.0490098381141</ele>
        <time>2021-05-07T18:00:20.358Z</time>
      </trkpt>
      <trkpt lat="40.177195" lon="-3.684442">
        <ele>621.0844936612158</ele>
        <time>2021-05-07T18:00:20.678Z</time>
      </trkpt>
      <trkpt lat="40.177235" lon="-3.684562">
        <ele>621.0948698389998</ele>
        <time>2021-05-07T18:00:21.000Z</time>
      </trkpt>
      <trkpt lat="40.177257" lon="-3.684623">
        <ele>621.0930021954742</ele>
        <time>2021-05-07T18:00:21.323Z</time>
      </trkpt>
      <trkpt lat="40.177282" lon="-3.684683">
        <ele>621.0746158348967</ele>
        <time>2021-05-07T18:00:21.647Z</time>
      </trkpt>
      <trkpt lat="40.177303" lon="-3.684743">
        <ele>621.041913966819</ele>
        <time>2021-05-07T18:00:21.972Z</time>
      </trkpt>
      <trkpt lat="40.17735" lon="-3.684865">
        <ele>620.990345425343</ele>
        <time>2021-05-07T18:00:22.299Z</time>
      </trkpt>
      <trkpt lat="40.177373" lon="-3.684927">
        <ele>620.9347019713894</ele>
        <time>2021-05-07T18:00:22.627Z</time>
      </trkpt>
      <trkpt lat="40.177417" lon="-3.685047">
        <ele>620.8546977823779</ele>
        <time>2021-05-07T18:00:22.957Z</time>
      </trkpt>
      <trkpt lat="40.177458" lon="-3.685163">
        <ele>620.7702642281806</ele>
        <time>2021-05-07T18:00:23.289Z</time>
      </trkpt>
      <trkpt lat="40.177498" lon="-3.685278">
        <ele>620.7017989061217</ele>
        <time>2021-05-07T18:00:23.623Z</time>
      </trkpt>
      <trkpt lat="40.177538" lon="-3.685388">
        <ele>620.640962438579</ele>
        <time>2021-05-07T18:00:23.959Z</time>
      </trkpt>
      <trkpt lat="40.177557" lon="-3.68544">
        <ele>620.5818488312827</ele>
        <time>2021-05-07T18:00:24.295Z</time>
      </trkpt>
      <trkpt lat="40.177592" lon="-3.685547">
        <ele>620.5293166029844</ele>
        <time>2021-05-07T18:00:24.633Z</time>
      </trkpt>
      <trkpt lat="40.177623" lon="-3.685652">
        <ele>620.4934527081118</ele>
        <time>2021-05-07T18:00:24.973Z</time>
      </trkpt>
      <trkpt lat="40.17764" lon="-3.685702">
        <ele>620.459311861389</ele>
        <time>2021-05-07T18:00:25.314Z</time>
      </trkpt>
      <trkpt lat="40.177675" lon="-3.685787">
        <ele>620.43872455719</ele>
        <time>2021-05-07T18:00:25.656Z</time>
      </trkpt>
      <trkpt lat="40.177737" lon="-3.685837">
        <ele>620.4223211364763</ele>
        <time>2021-05-07T18:00:26.000Z</time>
      </trkpt>
      <trkpt lat="40.177773" lon="-3.685838">
        <ele>620.4132956417957</ele>
        <time>2021-05-07T18:00:26.344Z</time>
      </trkpt>
      <trkpt lat="40.17785" lon="-3.685825">
        <ele>620.4132725958704</ele>
        <time>2021-05-07T18:00:26.690Z</time>
      </trkpt>
      <trkpt lat="40.177932" lon="-3.685827">
        <ele>620.4304134956866</ele>
        <time>2021-05-07T18:00:27.038Z</time>
      </trkpt>
      <trkpt lat="40.17802" lon="-3.685837">
        <ele>620.4754119427606</ele>
        <time>2021-05-07T18:00:27.387Z</time>
      </trkpt>
      <trkpt lat="40.178105" lon="-3.685862">
        <ele>620.5418713018989</ele>
        <time>2021-05-07T18:00:27.738Z</time>
      </trkpt>
      <trkpt lat="40.178143" lon="-3.685878">
        <ele>620.6216572624965</ele>
        <time>2021-05-07T18:00:28.090Z</time>
      </trkpt>
      <trkpt lat="40.178218" lon="-3.685918">
        <ele>620.7260257882203</ele>
        <time>2021-05-07T18:00:28.444Z</time>
      </trkpt>
      <trkpt lat="40.178255" lon="-3.685943">
        <ele>620.8441669205844</ele>
        <time>2021-05-07T18:00:28.798Z</time>
      </trkpt>
      <trkpt lat="40.178288" lon="-3.68597">
        <ele>620.9810846449834</ele>
        <time>2021-05-07T18:00:29.153Z</time>
      </trkpt>
      <trkpt lat="40.178355" lon="-3.68603">
        <ele>621.1439071583345</ele>
        <time>2021-05-07T18:00:29.510Z</time>
      </trkpt>
      <trkpt lat="40.178417" lon="-3.686103">
        <ele>621.3266079492078</ele>
        <time>2021-05-07T18:00:29.869Z</time>
      </trkpt>
      <trkpt lat="40.17847" lon="-3.686187">
        <ele>621.5280972899182</ele>
        <time>2021-05-07T18:00:30.229Z</time>
      </trkpt>
      <trkpt lat="40.17851" lon="-3.686278">
        <ele>621.7468417814548</ele>
        <time>2021-05-07T18:00:30.591Z</time>
      </trkpt>
      <trkpt lat="40.178527" lon="-3.686327">
        <ele>621.9743149797448</ele>
        <time>2021-05-07T18:00:30.954Z</time>
      </trkpt>
      <trkpt lat="40.178548" lon="-3.686433">
        <ele>622.2259893649629</ele>
        <time>2021-05-07T18:00:31.318Z</time>
      </trkpt>
      <trkpt lat="40.178557" lon="-3.686493">
        <ele>622.4849687761821</ele>
        <time>2021-05-07T18:00:31.683Z</time>
      </trkpt>
      <trkpt lat="40.178563" lon="-3.686555">
        <ele>622.7579205965396</ele>
        <time>2021-05-07T18:00:32.049Z</time>
      </trkpt>
      <trkpt lat="40.178562" lon="-3.686678">
        <ele>623.0520692773089</ele>
        <time>2021-05-07T18:00:32.417Z</time>
      </trkpt>
      <trkpt lat="40.17855" lon="-3.686805">
        <ele>623.3577235283203</ele>
        <time>2021-05-07T18:00:32.787Z</time>
      </trkpt>
      <trkpt lat="40.17854" lon="-3.686868">
        <ele>623.6641490133161</ele>
        <time>2021-05-07T18:00:33.158Z</time>
      </trkpt>
      <trkpt lat="40.178512" lon="-3.686987">
        <ele>623.9700154625516</ele>
        <time>2021-05-07T18:00:33.531Z</time>
      </trkpt>
      <trkpt lat="40.17847" lon="-3.687093">
        <ele>624.2829062532228</ele>
        <time>2021-05-07T18:00:33.906Z</time>
      </trkpt>
      <trkpt lat="40.178415" lon="-3.687188">
        <ele>624.6015253321622</ele>
        <time>2021-05-07T18:00:34.283Z</time>
      </trkpt>
      <trkpt lat="40.178352" lon="-3.68727">
        <ele>624.924611569101</ele>
        <time>2021-05-07T18:00:34.661Z</time>
      </trkpt>
      <trkpt lat="40.178287" lon="-3.68735">
        <ele>625.2505885412197</ele>
        <time>2021-05-07T18:00:35.041Z</time>
      </trkpt>
      <trkpt lat="40.178265" lon="-3.687455">
        <ele>625.5966333542926</ele>
        <time>2021-05-07T18:00:35.423Z</time>
      </trkpt>
      <trkpt lat="40.1783" lon="-3.687562">
        <ele>625.9582314590036</ele>
        <time>2021-05-07T18:00:35.807Z</time>
      </trkpt>
      <trkpt lat="40.17834" lon="-3.687667">
        <ele>626.3139001177881</ele>
        <time>2021-05-07T18:00:36.192Z</time>
      </trkpt>
      <trkpt lat="40.178373" lon="-3.687785">
        <ele>626.6651056173306</ele>
        <time>2021-05-07T18:00:36.579Z</time>
      </trkpt>
      <trkpt lat="40.178413" lon="-3.687888">
        <ele>626.9996228196135</ele>
        <time>2021-05-07T18:00:36.968Z</time>
      </trkpt>
      <trkpt lat="40.17845" lon="-3.687993">
        <ele>627.3121239213355</ele>
        <time>2021-05-07T18:00:37.359Z</time>
      </trkpt>
      <trkpt lat="40.178483" lon="-3.688103">
        <ele>627.5824813092031</ele>
        <time>2021-05-07T18:00:37.752Z</time>
      </trkpt>
      <trkpt lat="40.178512" lon="-3.688223">
        <ele>627.8173157219776</ele>
        <time>2021-05-07T18:00:38.147Z</time>
      </trkpt>
      <trkpt lat="40.178523" lon="-3.688283">
        <ele>628.0052819798404</ele>
        <time>2021-05-07T18:00:38.543Z</time>
      </trkpt>
      <trkpt lat="40.178557" lon="-3.688395">
        <ele>628.261095340031</ele>
        <time>2021-05-07T18:00:38.940Z</time>
      </trkpt>
      <trkpt lat="40.178575" lon="-3.688453">
        <ele>628.3233218216544</ele>
        <time>2021-05-07T18:00:39.338Z</time>
      </trkpt>
      <trkpt lat="40.178603" lon="-3.688572">
        <ele>628.3457249936416</ele>
        <time>2021-05-07T18:00:39.738Z</time>
      </trkpt>
      <trkpt lat="40.178638" lon="-3.688685">
        <ele>628.313638041289</ele>
        <time>2021-05-07T18:00:40.140Z</time>
      </trkpt>
      <trkpt lat="40.178677" lon="-3.688798">
        <ele>628.2227989932392</ele>
        <time>2021-05-07T18:00:40.544Z</time>
      </trkpt>
      <trkpt lat="40.178715" lon="-3.68892">
        <ele>628.082930608158</ele>
        <time>2021-05-07T18:00:40.950Z</time>
      </trkpt>
      <trkpt lat="40.178757" lon="-3.689038">
        <ele>627.8955819425166</ele>
        <time>2021-05-07T18:00:41.358Z</time>
      </trkpt>
      <trkpt lat="40.1788" lon="-3.689158">
        <ele>627.6583451863114</ele>
        <time>2021-05-07T18:00:41.768Z</time>
      </trkpt>
      <trkpt lat="40.178843" lon="-3.689283">
        <ele>627.3735795241333</ele>
        <time>2021-05-07T18:00:42.180Z</time>
      </trkpt>
      <trkpt lat="40.17889" lon="-3.689412">
        <ele>627.0272014888192</ele>
        <time>2021-05-07T18:00:42.594Z</time>
      </trkpt>
      <trkpt lat="40.178947" lon="-3.689538">
        <ele>626.6428831371</ele>
        <time>2021-05-07T18:00:43.011Z</time>
      </trkpt>
      <trkpt lat="40.179005" lon="-3.689673">
        <ele>626.2305858334596</ele>
        <time>2021-05-07T18:00:43.430Z</time>
      </trkpt>
      <trkpt lat="40.179068" lon="-3.689812">
        <ele>625.7970625336859</ele>
        <time>2021-05-07T18:00:43.851Z</time>
      </trkpt>
      <trkpt lat="40.179102" lon="-3.689877">
        <ele>625.3709018243267</ele>
        <time>2021-05-07T18:00:44.274Z</time>
      </trkpt>
      <trkpt lat="40.179157" lon="-3.690035">
        <ele>624.8912635348752</ele>
        <time>2021-05-07T18:00:44.699Z</time>
      </trkpt>
      <trkpt lat="40.179213" lon="-3.690203">
        <ele>624.4140439327294</ele>
        <time>2021-05-07T18:00:45.127Z</time>
      </trkpt>
      <trkpt lat="40.179275" lon="-3.690378">
        <ele>623.9587440880523</ele>
        <time>2021-05-07T18:00:45.558Z</time>
      </trkpt>
      <trkpt lat="40.179308" lon="-3.69047">
        <ele>623.5566668888466</ele>
        <time>2021-05-07T18:00:45.991Z</time>
      </trkpt>
      <trkpt lat="40.179367" lon="-3.690657">
        <ele>623.1836183888438</ele>
        <time>2021-05-07T18:00:46.427Z</time>
      </trkpt>
      <trkpt lat="40.179425" lon="-3.690858">
        <ele>622.8513236401</ele>
        <time>2021-05-07T18:00:46.866Z</time>
      </trkpt>
      <trkpt lat="40.179492" lon="-3.691065">
        <ele>622.5582005879685</ele>
        <time>2021-05-07T18:00:47.308Z</time>
      </trkpt>
      <trkpt lat="40.179563" lon="-3.691257">
        <ele>622.3494351501697</ele>
        <time>2021-05-07T18:00:47.754Z</time>
      </trkpt>
      <trkpt lat="40.179632" lon="-3.691435">
        <ele>622.2122729625578</ele>
        <time>2021-05-07T18:00:48.203Z</time>
      </trkpt>
      <trkpt lat="40.179688" lon="-3.691605">
        <ele>622.1359629727779</ele>
        <time>2021-05-07T18:00:48.655Z</time>
      </trkpt>
      <trkpt lat="40.179745" lon="-3.691757">
        <ele>622.107365680285</ele>
        <time>2021-05-07T18:00:49.109Z</time>
      </trkpt>
      <trkpt lat="40.179798" lon="-3.691907">
        <ele>622.1267113540765</ele>
        <time>2021-05-07T18:00:49.566Z</time>
      </trkpt>
      <trkpt lat="40.179827" lon="-3.691975">
        <ele>622.1765629219462</ele>
        <time>2021-05-07T18:00:50.024Z</time>
      </trkpt>
      <trkpt lat="40.179883" lon="-3.692112">
        <ele>622.287826346002</ele>
        <time>2021-05-07T18:00:50.484Z</time>
      </trkpt>
      <trkpt lat="40.179908" lon="-3.692175">
        <ele>622.4249779098614</ele>
        <time>2021-05-07T18:00:50.945Z</time>
      </trkpt>
      <trkpt lat="40.179953" lon="-3.692303">
        <ele>622.6166208061813</ele>
        <time>2021-05-07T18:00:51.409Z</time>
      </trkpt>
      <trkpt lat="40.179973" lon="-3.692368">
        <ele>622.8297750750576</ele>
        <time>2021-05-07T18:00:51.874Z</time>
      </trkpt>
      <trkpt lat="40.180015" lon="-3.692492">
        <ele>623.0818689814164</ele>
        <time>2021-05-07T18:00:52.341Z</time>
      </trkpt>
      <trkpt lat="40.180058" lon="-3.692612">
        <ele>623.3667676429023</ele>
        <time>2021-05-07T18:00:52.810Z</time>
      </trkpt>
      <trkpt lat="40.180077" lon="-3.692672">
        <ele>623.6742861269811</ele>
        <time>2021-05-07T18:00:53.280Z</time>
      </trkpt>
      <trkpt lat="40.180115" lon="-3.692787">
        <ele>624.0292741068007</ele>
        <time>2021-05-07T18:00:53.752Z</time>
      </trkpt>
      <trkpt lat="40.180155" lon="-3.692897">
        <ele>624.4125811240676</ele>
        <time>2021-05-07T18:00:54.226Z</time>
      </trkpt>
      <trkpt lat="40.180197" lon="-3.693003">
        <ele>624.8101565417885</ele>
        <time>2021-05-07T18:00:54.701Z</time>
      </trkpt>
      <trkpt lat="40.180235" lon="-3.693112">
        <ele>625.2149587592921</ele>
        <time>2021-05-07T18:00:55.178Z</time>
      </trkpt>
      <trkpt lat="40.180278" lon="-3.693217">
        <ele>625.6379524519932</ele>
        <time>2021-05-07T18:00:55.657Z</time>
      </trkpt>
      <trkpt lat="40.18032" lon="-3.693327">
        <ele>626.0779870348579</ele>
        <time>2021-05-07T18:00:56.138Z</time>
      </trkpt>
      <trkpt lat="40.180362" lon="-3.693433">
        <ele>626.5326768216033</ele>
        <time>2021-05-07T18:00:56.621Z</time>
      </trkpt>
      <trkpt lat="40.1804" lon="-3.69355">
        <ele>627.0013539101335</ele>
        <time>2021-05-07T18:00:57.106Z</time>
      </trkpt>
      <trkpt lat="40.180433" lon="-3.69367">
        <ele>627.4905479960248</ele>
        <time>2021-05-07T18:00:57.593Z</time>
      </trkpt>
      <trkpt lat="40.180468" lon="-3.693783">
        <ele>627.9977087732468</ele>
        <time>2021-05-07T18:00:58.082Z</time>
      </trkpt>
      <trkpt lat="40.180503" lon="-3.69389">
        <ele>628.5158251018188</ele>
        <time>2021-05-07T18:00:58.572Z</time>
      </trkpt>
      <trkpt lat="40.180535" lon="-3.693997">
        <ele>629.0367341312419</ele>
        <time>2021-05-07T18:00:59.064Z</time>
      </trkpt>
      <trkpt lat="40.180552" lon="-3.694047">
        <ele>629.5442651923659</ele>
        <time>2021-05-07T18:00:59.557Z</time>
      </trkpt>
      <trkpt lat="40.180588" lon="-3.694147">
        <ele>630.0658015687534</ele>
        <time>2021-05-07T18:01:00.052Z</time>
      </trkpt>
      <trkpt lat="40.18062" lon="-3.694245">
        <ele>630.5808896280857</ele>
        <time>2021-05-07T18:01:00.548Z</time>
      </trkpt>
      <trkpt lat="40.18065" lon="-3.69434">
        <ele>631.0871139625831</ele>
        <time>2021-05-07T18:01:01.046Z</time>
      </trkpt>
      <trkpt lat="40.18067" lon="-3.694378">
        <ele>631.5700574760647</ele>
        <time>2021-05-07T18:01:01.545Z</time>
      </trkpt>
      <trkpt lat="40.180742" lon="-3.694418">
        <ele>632.0618991254947</ele>
        <time>2021-05-07T18:01:02.045Z</time>
      </trkpt>
      <trkpt lat="40.180817" lon="-3.694472">
        <ele>632.5397314540527</ele>
        <time>2021-05-07T18:01:02.547Z</time>
      </trkpt>
      <trkpt lat="40.18089" lon="-3.694538">
        <ele>632.9975520540486</ele>
        <time>2021-05-07T18:01:03.051Z</time>
      </trkpt>
      <trkpt lat="40.18097" lon="-3.694577">
        <ele>633.4301701604466</ele>
        <time>2021-05-07T18:01:03.556Z</time>
      </trkpt>
      <trkpt lat="40.181068" lon="-3.694553">
        <ele>633.8339239700449</ele>
        <time>2021-05-07T18:01:04.063Z</time>
      </trkpt>
      <trkpt lat="40.181117" lon="-3.694535">
        <ele>634.1860393607013</ele>
        <time>2021-05-07T18:01:04.571Z</time>
      </trkpt>
      <trkpt lat="40.18122" lon="-3.694498">
        <ele>634.5176190403022</ele>
        <time>2021-05-07T18:01:05.081Z</time>
      </trkpt>
      <trkpt lat="40.181315" lon="-3.694468">
        <ele>634.8075923278863</ele>
        <time>2021-05-07T18:01:05.593Z</time>
      </trkpt>
      <trkpt lat="40.181412" lon="-3.694433">
        <ele>635.0536357780569</ele>
        <time>2021-05-07T18:01:06.107Z</time>
      </trkpt>
      <trkpt lat="40.18146" lon="-3.694417">
        <ele>635.2566629526333</ele>
        <time>2021-05-07T18:01:06.622Z</time>
      </trkpt>
      <trkpt lat="40.181555" lon="-3.694385">
        <ele>635.43070926347</ele>
        <time>2021-05-07T18:01:07.139Z</time>
      </trkpt>
      <trkpt lat="40.181652" lon="-3.694352">
        <ele>635.565261343817</ele>
        <time>2021-05-07T18:01:07.658Z</time>
      </trkpt>
      <trkpt lat="40.181745" lon="-3.69432">
        <ele>635.658675072317</ele>
        <time>2021-05-07T18:01:08.179Z</time>
      </trkpt>
      <trkpt lat="40.18184" lon="-3.694283">
        <ele>635.7187629741753</ele>
        <time>2021-05-07T18:01:08.702Z</time>
      </trkpt>
      <trkpt lat="40.181935" lon="-3.694257">
        <ele>635.7534706528078</ele>
        <time>2021-05-07T18:01:09.227Z</time>
      </trkpt>
      <trkpt lat="40.18203" lon="-3.694222">
        <ele>635.7584640096484</ele>
        <time>2021-05-07T18:01:09.754Z</time>
      </trkpt>
      <trkpt lat="40.182123" lon="-3.694193">
        <ele>635.7408763402292</ele>
        <time>2021-05-07T18:01:10.283Z</time>
      </trkpt>
      <trkpt lat="40.18221" lon="-3.694162">
        <ele>635.6910461065941</ele>
        <time>2021-05-07T18:01:10.814Z</time>
      </trkpt>
      <trkpt lat="40.182257" lon="-3.694145">
        <ele>635.6310379817284</ele>
        <time>2021-05-07T18:01:11.346Z</time>
      </trkpt>
      <trkpt lat="40.182302" lon="-3.694132">
        <ele>635.5616446855165</ele>
        <time>2021-05-07T18:01:11.879Z</time>
      </trkpt>
      <trkpt lat="40.182395" lon="-3.694098">
        <ele>635.4774181104763</ele>
        <time>2021-05-07T18:01:12.414Z</time>
      </trkpt>
      <trkpt lat="40.18244" lon="-3.694085">
        <ele>635.3979367754797</ele>
        <time>2021-05-07T18:01:12.950Z</time>
      </trkpt>
      <trkpt lat="40.18253" lon="-3.694055">
        <ele>635.3134843979054</ele>
        <time>2021-05-07T18:01:13.487Z</time>
      </trkpt>
      <trkpt lat="40.182573" lon="-3.694038">
        <ele>635.2440171420205</ele>
        <time>2021-05-07T18:01:14.025Z</time>
      </trkpt>
      <trkpt lat="40.182618" lon="-3.694022">
        <ele>635.186959097692</ele>
        <time>2021-05-07T18:01:14.564Z</time>
      </trkpt>
      <trkpt lat="40.182708" lon="-3.693988">
        <ele>635.1378732941414</ele>
        <time>2021-05-07T18:01:15.105Z</time>
      </trkpt>
      <trkpt lat="40.182798" lon="-3.693955">
        <ele>635.1093559648971</ele>
        <time>2021-05-07T18:01:15.648Z</time>
      </trkpt>
      <trkpt lat="40.182843" lon="-3.693942">
        <ele>635.1135208149565</ele>
        <time>2021-05-07T18:01:16.192Z</time>
      </trkpt>
      <trkpt lat="40.182933" lon="-3.693912">
        <ele>635.1359230808613</ele>
        <time>2021-05-07T18:01:16.738Z</time>
      </trkpt>
      <trkpt lat="40.183028" lon="-3.69388">
        <ele>635.2206402084405</ele>
        <time>2021-05-07T18:01:17.286Z</time>
      </trkpt>
      <trkpt lat="40.18307" lon="-3.693865">
        <ele>635.3267290114763</ele>
        <time>2021-05-07T18:01:17.835Z</time>
      </trkpt>
      <trkpt lat="40.183112" lon="-3.693845">
        <ele>635.4609064503722</ele>
        <time>2021-05-07T18:01:18.385Z</time>
      </trkpt>
      <trkpt lat="40.183197" lon="-3.693812">
        <ele>635.6358534164274</ele>
        <time>2021-05-07T18:01:18.936Z</time>
      </trkpt>
      <trkpt lat="40.18324" lon="-3.693792">
        <ele>635.8271511003247</ele>
        <time>2021-05-07T18:01:19.488Z</time>
      </trkpt>
      <trkpt lat="40.183327" lon="-3.693758">
        <ele>636.0561618711265</ele>
        <time>2021-05-07T18:01:20.042Z</time>
      </trkpt>
      <trkpt lat="40.18337" lon="-3.693742">
        <ele>636.2978713941429</ele>
        <time>2021-05-07T18:01:20.597Z</time>
      </trkpt>
      <trkpt lat="40.183417" lon="-3.693725">
        <ele>636.5611363405719</ele>
        <time>2021-05-07T18:01:21.153Z</time>
      </trkpt>
      <trkpt lat="40.18351" lon="-3.693693">
        <ele>636.8535597811372</ele>
        <time>2021-05-07T18:01:21.711Z</time>
      </trkpt>
      <trkpt lat="40.183605" lon="-3.693663">
        <ele>637.1600819563399</ele>
        <time>2021-05-07T18:01:22.271Z</time>
      </trkpt>
      <trkpt lat="40.183652" lon="-3.69365">
        <ele>637.4624882069525</ele>
        <time>2021-05-07T18:01:22.832Z</time>
      </trkpt>
      <trkpt lat="40.183747" lon="-3.693627">
        <ele>637.7784742376462</ele>
        <time>2021-05-07T18:01:23.395Z</time>
      </trkpt>
      <trkpt lat="40.183793" lon="-3.693608">
        <ele>638.0781748353077</ele>
        <time>2021-05-07T18:01:23.959Z</time>
      </trkpt>
      <trkpt lat="40.183885" lon="-3.69357">
        <ele>638.3748643729031</ele>
        <time>2021-05-07T18:01:24.525Z</time>
      </trkpt>
      <trkpt lat="40.18393" lon="-3.693553">
        <ele>638.6543992792677</ele>
        <time>2021-05-07T18:01:25.092Z</time>
      </trkpt>
      <trkpt lat="40.184015" lon="-3.69352">
        <ele>638.9215531850377</ele>
        <time>2021-05-07T18:01:25.660Z</time>
      </trkpt>
      <trkpt lat="40.184102" lon="-3.693497">
        <ele>639.1684582239111</ele>
        <time>2021-05-07T18:01:26.230Z</time>
      </trkpt>
      <trkpt lat="40.184187" lon="-3.693468">
        <ele>639.3858031081916</ele>
        <time>2021-05-07T18:01:26.802Z</time>
      </trkpt>
      <trkpt lat="40.184273" lon="-3.693437">
        <ele>639.5700825033118</ele>
        <time>2021-05-07T18:01:27.376Z</time>
      </trkpt>
      <trkpt lat="40.184357" lon="-3.693408">
        <ele>639.7165823858422</ele>
        <time>2021-05-07T18:01:27.951Z</time>
      </trkpt>
      <trkpt lat="40.184442" lon="-3.693387">
        <ele>639.8226156645328</ele>
        <time>2021-05-07T18:01:28.528Z</time>
      </trkpt>
      <trkpt lat="40.184518" lon="-3.693357">
        <ele>639.8762540032059</ele>
        <time>2021-05-07T18:01:29.107Z</time>
      </trkpt>
      <trkpt lat="40.18459" lon="-3.693335">
        <ele>639.8789876905676</ele>
        <time>2021-05-07T18:01:29.687Z</time>
      </trkpt>
      <trkpt lat="40.184663" lon="-3.693313">
        <ele>639.8185140216997</ele>
        <time>2021-05-07T18:01:30.269Z</time>
      </trkpt>
      <trkpt lat="40.184725" lon="-3.693282">
        <ele>639.6912483655137</ele>
        <time>2021-05-07T18:01:30.852Z</time>
      </trkpt>
      <trkpt lat="40.184768" lon="-3.693198">
        <ele>639.4846984586351</ele>
        <time>2021-05-07T18:01:31.437Z</time>
      </trkpt>
      <trkpt lat="40.184815" lon="-3.693093">
        <ele>639.2078633301729</ele>
        <time>2021-05-07T18:01:32.023Z</time>
      </trkpt>
      <trkpt lat="40.184898" lon="-3.693005">
        <ele>638.8728274501152</ele>
        <time>2021-05-07T18:01:32.612Z</time>
      </trkpt>
      <trkpt lat="40.185005" lon="-3.69296">
        <ele>638.4855379742403</ele>
        <time>2021-05-07T18:01:33.203Z</time>
      </trkpt>
      <trkpt lat="40.185125" lon="-3.692983">
        <ele>638.0521046668043</ele>
        <time>2021-05-07T18:01:33.796Z</time>
      </trkpt>
      <trkpt lat="40.185237" lon="-3.693065">
        <ele>637.5460744195138</ele>
        <time>2021-05-07T18:01:34.392Z</time>
      </trkpt>
      <trkpt lat="40.185353" lon="-3.69312">
        <ele>636.9649249377132</ele>
        <time>2021-05-07T18:01:34.990Z</time>
      </trkpt>
      <trkpt lat="40.185482" lon="-3.693085">
        <ele>636.2969114340976</ele>
        <time>2021-05-07T18:01:35.591Z</time>
      </trkpt>
      <trkpt lat="40.185617" lon="-3.693032">
        <ele>635.5376263657403</ele>
        <time>2021-05-07T18:01:36.195Z</time>
      </trkpt>
      <trkpt lat="40.18576" lon="-3.692978">
        <ele>634.7217472480736</ele>
        <time>2021-05-07T18:01:36.802Z</time>
      </trkpt>
      <trkpt lat="40.185922" lon="-3.692923">
        <ele>633.8521613311825</ele>
        <time>2021-05-07T18:01:37.412Z</time>
      </trkpt>
      <trkpt lat="40.186092" lon="-3.692873">
        <ele>632.9416073518368</ele>
        <time>2021-05-07T18:01:38.025Z</time>
      </trkpt>
      <trkpt lat="40.186272" lon="-3.692817">
        <ele>632.0044050905158</ele>
        <time>2021-05-07T18:01:38.642Z</time>
      </trkpt>
      <trkpt lat="40.186458" lon="-3.692765">
        <ele>631.0339096984214</ele>
        <time>2021-05-07T18:01:39.263Z</time>
      </trkpt>
      <trkpt lat="40.186652" lon="-3.692702">
        <ele>630.0466384262747</ele>
        <time>2021-05-07T18:01:39.888Z</time>
      </trkpt>
      <trkpt lat="40.186845" lon="-3.692617">
        <ele>629.0601696055014</ele>
        <time>2021-05-07T18:01:40.517Z</time>
      </trkpt>
      <trkpt lat="40.187047" lon="-3.692533">
        <ele>628.0803565477432</ele>
        <time>2021-05-07T18:01:41.150Z</time>
      </trkpt>
      <trkpt lat="40.187253" lon="-3.692457">
        <ele>627.1195724783802</ele>
        <time>2021-05-07T18:01:41.788Z</time>
      </trkpt>
      <trkpt lat="40.187463" lon="-3.692382">
        <ele>626.1837677866529</ele>
        <time>2021-05-07T18:01:42.430Z</time>
      </trkpt>
      <trkpt lat="40.187677" lon="-3.692308">
        <ele>625.2759452686744</ele>
        <time>2021-05-07T18:01:43.076Z</time>
      </trkpt>
      <trkpt lat="40.187892" lon="-3.692237">
        <ele>624.412431164728</ele>
        <time>2021-05-07T18:01:43.727Z</time>
      </trkpt>
      <trkpt lat="40.187998" lon="-3.6922">
        <ele>623.6739700684561</ele>
        <time>2021-05-07T18:01:44.380Z</time>
      </trkpt>
      <trkpt lat="40.188215" lon="-3.692125">
        <ele>623.0227186415502</ele>
        <time>2021-05-07T18:01:45.037Z</time>
      </trkpt>
      <trkpt lat="40.188327" lon="-3.692085">
        <ele>622.4209166480011</ele>
        <time>2021-05-07T18:01:45.697Z</time>
      </trkpt>
      <trkpt lat="40.188545" lon="-3.69201">
        <ele>621.8781565014514</ele>
        <time>2021-05-07T18:01:46.361Z</time>
      </trkpt>
      <trkpt lat="40.188735" lon="-3.69194">
        <ele>621.3878517605574</ele>
        <time>2021-05-07T18:01:47.029Z</time>
      </trkpt>
      <trkpt lat="40.188813" lon="-3.691908">
        <ele>620.94262380605</ele>
        <time>2021-05-07T18:01:47.699Z</time>
      </trkpt>
      <trkpt lat="40.188882" lon="-3.691862">
        <ele>620.5398139238998</ele>
        <time>2021-05-07T18:01:48.370Z</time>
      </trkpt>
      <trkpt lat="40.189017" lon="-3.691792">
        <ele>620.1892873505623</ele>
        <time>2021-05-07T18:01:49.044Z</time>
      </trkpt>
      <trkpt lat="40.189152" lon="-3.691798">
        <ele>619.8809542205922</ele>
        <time>2021-05-07T18:01:49.721Z</time>
      </trkpt>
      <trkpt lat="40.189287" lon="-3.691763">
        <ele>619.6015264562845</ele>
        <time>2021-05-07T18:01:50.401Z</time>
      </trkpt>
      <trkpt lat="40.189415" lon="-3.691715">
        <ele>619.3473022941782</ele>
        <time>2021-05-07T18:01:51.083Z</time>
      </trkpt>
      <trkpt lat="40.189537" lon="-3.691672">
        <ele>619.115410853738</ele>
        <time>2021-05-07T18:01:51.768Z</time>
      </trkpt>
      <trkpt lat="40.189598" lon="-3.69165">
        <ele>618.8953708713889</ele>
        <time>2021-05-07T18:01:52.454Z</time>
      </trkpt>
      <trkpt lat="40.18966" lon="-3.691627">
        <ele>618.6691320043903</ele>
        <time>2021-05-07T18:01:53.141Z</time>
      </trkpt>
      <trkpt lat="40.189778" lon="-3.691578">
        <ele>618.4269234037123</ele>
        <time>2021-05-07T18:01:53.831Z</time>
      </trkpt>
      <trkpt lat="40.189893" lon="-3.69154">
        <ele>618.201116696627</ele>
        <time>2021-05-07T18:01:54.523Z</time>
      </trkpt>
      <trkpt lat="40.190008" lon="-3.691508">
        <ele>617.993442999788</ele>
        <time>2021-05-07T18:01:55.218Z</time>
      </trkpt>
      <trkpt lat="40.190127" lon="-3.691468">
        <ele>617.8030830887881</ele>
        <time>2021-05-07T18:01:55.915Z</time>
      </trkpt>
      <trkpt lat="40.190207" lon="-3.691438">
        <ele>617.6431896526288</ele>
        <time>2021-05-07T18:01:56.614Z</time>
      </trkpt>
      <trkpt lat="40.19024" lon="-3.691423">
        <ele>617.5184209618001</ele>
        <time>2021-05-07T18:01:57.314Z</time>
      </trkpt>
      <trkpt lat="40.190312" lon="-3.691398">
        <ele>617.4020285263235</ele>
        <time>2021-05-07T18:01:58.015Z</time>
      </trkpt>
      <trkpt lat="40.19037" lon="-3.691322">
        <ele>617.3052598519142</ele>
        <time>2021-05-07T18:01:58.718Z</time>
      </trkpt>
      <trkpt lat="40.190428" lon="-3.691218">
        <ele>617.2293807966589</ele>
        <time>2021-05-07T18:01:59.423Z</time>
      </trkpt>
      <trkpt lat="40.190462" lon="-3.691168">
        <ele>617.1997922860758</ele>
        <time>2021-05-07T18:02:00.129Z</time>
      </trkpt>
      <trkpt lat="40.19055" lon="-3.691098">
        <ele>617.2068265319348</ele>
        <time>2021-05-07T18:02:00.837Z</time>
      </trkpt>
      <trkpt lat="40.190658" lon="-3.691085">
        <ele>617.2525262298959</ele>
        <time>2021-05-07T18:02:01.547Z</time>
      </trkpt>
      <trkpt lat="40.190763" lon="-3.691147">
        <ele>617.3381429932205</ele>
        <time>2021-05-07T18:02:02.259Z</time>
      </trkpt>
      <trkpt lat="40.190832" lon="-3.691265">
        <ele>617.4583585196054</ele>
        <time>2021-05-07T18:02:02.973Z</time>
      </trkpt>
      <trkpt lat="40.19085" lon="-3.691398">
        <ele>617.6055770155226</ele>
        <time>2021-05-07T18:02:03.690Z</time>
      </trkpt>
      <trkpt lat="40.190815" lon="-3.691522">
        <ele>617.7753820546759</ele>
        <time>2021-05-07T18:02:04.409Z</time>
      </trkpt>
      <trkpt lat="40.19076" lon="-3.691632">
        <ele>617.9685286222052</ele>
        <time>2021-05-07T18:02:05.130Z</time>
      </trkpt>
      <trkpt lat="40.190742" lon="-3.691763">
        <ele>618.193189263355</ele>
        <time>2021-05-07T18:02:05.853Z</time>
      </trkpt>
      <trkpt lat="40.190773" lon="-3.691882">
        <ele>618.4455583680892</ele>
        <time>2021-05-07T18:02:06.578Z</time>
      </trkpt>
      <trkpt lat="40.190805" lon="-3.692012">
        <ele>618.7310710997754</ele>
        <time>2021-05-07T18:02:07.305Z</time>
      </trkpt>
      <trkpt lat="40.19084" lon="-3.692135">
        <ele>619.0372204410894</ele>
        <time>2021-05-07T18:02:08.034Z</time>
      </trkpt>
      <trkpt lat="40.190867" lon="-3.692267">
        <ele>619.3652819654355</ele>
        <time>2021-05-07T18:02:08.765Z</time>
      </trkpt>
      <trkpt lat="40.19089" lon="-3.692402">
        <ele>619.7025468662193</ele>
        <time>2021-05-07T18:02:09.498Z</time>
      </trkpt>
      <trkpt lat="40.190905" lon="-3.692538">
        <ele>620.057410259522</ele>
        <time>2021-05-07T18:02:10.233Z</time>
      </trkpt>
      <trkpt lat="40.190917" lon="-3.692603">
        <ele>620.4197674576606</ele>
        <time>2021-05-07T18:02:10.969Z</time>
      </trkpt>
      <trkpt lat="40.190947" lon="-3.692728">
        <ele>620.801738390647</ele>
        <time>2021-05-07T18:02:11.707Z</time>
      </trkpt>
      <trkpt lat="40.190983" lon="-3.692845">
        <ele>621.1810056666566</ele>
        <time>2021-05-07T18:02:12.447Z</time>
      </trkpt>
      <trkpt lat="40.19101" lon="-3.692895">
        <ele>621.5826042478569</ele>
        <time>2021-05-07T18:02:13.188Z</time>
      </trkpt>
      <trkpt lat="40.191077" lon="-3.692975">
        <ele>622.0048468659604</ele>
        <time>2021-05-07T18:02:13.931Z</time>
      </trkpt>
      <trkpt lat="40.191113" lon="-3.693002">
        <ele>622.4478225741816</ele>
        <time>2021-05-07T18:02:14.674Z</time>
      </trkpt>
      <trkpt lat="40.191155" lon="-3.693017">
        <ele>622.9082959187219</ele>
        <time>2021-05-07T18:02:15.418Z</time>
      </trkpt>
      <trkpt lat="40.191237" lon="-3.693017">
        <ele>623.3878059288684</ele>
        <time>2021-05-07T18:02:16.164Z</time>
      </trkpt>
      <trkpt lat="40.191317" lon="-3.692995">
        <ele>623.9018694190929</ele>
        <time>2021-05-07T18:02:16.912Z</time>
      </trkpt>
      <trkpt lat="40.191395" lon="-3.692973">
        <ele>624.4528279056299</ele>
        <time>2021-05-07T18:02:17.661Z</time>
      </trkpt>
      <trkpt lat="40.19147" lon="-3.692948">
        <ele>625.0105854145743</ele>
        <time>2021-05-07T18:02:18.412Z</time>
      </trkpt>
      <trkpt lat="40.19154" lon="-3.692932">
        <ele>625.56991992339</ele>
        <time>2021-05-07T18:02:19.164Z</time>
      </trkpt>
      <trkpt lat="40.191618" lon="-3.692907">
        <ele>626.1350127088513</ele>
        <time>2021-05-07T18:02:19.918Z</time>
      </trkpt>
      <trkpt lat="40.191698" lon="-3.692878">
        <ele>626.6974162502081</ele>
        <time>2021-05-07T18:02:20.673Z</time>
      </trkpt>
      <trkpt lat="40.191772" lon="-3.69286">
        <ele>627.2472823331891</ele>
        <time>2021-05-07T18:02:21.430Z</time>
      </trkpt>
      <trkpt lat="40.191843" lon="-3.692837">
        <ele>627.7819935554228</ele>
        <time>2021-05-07T18:02:22.188Z</time>
      </trkpt>
      <trkpt lat="40.191918" lon="-3.692817">
        <ele>628.3017526341589</ele>
        <time>2021-05-07T18:02:22.948Z</time>
      </trkpt>
      <trkpt lat="40.191957" lon="-3.6928">
        <ele>628.7766302303528</ele>
        <time>2021-05-07T18:02:23.709Z</time>
      </trkpt>
      <trkpt lat="40.192033" lon="-3.692767">
        <ele>629.2506545750036</ele>
        <time>2021-05-07T18:02:24.471Z</time>
      </trkpt>
      <trkpt lat="40.192115" lon="-3.692732">
        <ele>629.6982945431384</ele>
        <time>2021-05-07T18:02:25.235Z</time>
      </trkpt>
      <trkpt lat="40.192152" lon="-3.69272">
        <ele>630.068745739721</ele>
        <time>2021-05-07T18:02:26.000Z</time>
      </trkpt>
      <trkpt lat="40.192228" lon="-3.692693">
        <ele>630.4107263129716</ele>
        <time>2021-05-07T18:02:26.766Z</time>
      </trkpt>
      <trkpt lat="40.192308" lon="-3.692665">
        <ele>630.7182408110884</ele>
        <time>2021-05-07T18:02:27.534Z</time>
      </trkpt>
      <trkpt lat="40.192353" lon="-3.692648">
        <ele>630.9929301555075</ele>
        <time>2021-05-07T18:02:28.303Z</time>
      </trkpt>
      <trkpt lat="40.192433" lon="-3.692623">
        <ele>631.2394965532371</ele>
        <time>2021-05-07T18:02:29.074Z</time>
      </trkpt>
      <trkpt lat="40.19246" lon="-3.69262">
        <ele>631.4552700858437</ele>
        <time>2021-05-07T18:02:29.845Z</time>
      </trkpt>
      <trkpt lat="40.192497" lon="-3.6926">
        <ele>631.6439165340134</ele>
        <time>2021-05-07T18:02:30.617Z</time>
      </trkpt>
      <trkpt lat="40.192537" lon="-3.692582">
        <ele>631.8085791006793</ele>
        <time>2021-05-07T18:02:31.390Z</time>
      </trkpt>
      <trkpt lat="40.192617" lon="-3.69255">
        <ele>631.9532933582836</ele>
        <time>2021-05-07T18:02:32.165Z</time>
      </trkpt>
      <trkpt lat="40.192698" lon="-3.692513">
        <ele>632.0785600216146</ele>
        <time>2021-05-07T18:02:32.941Z</time>
      </trkpt>
      <trkpt lat="40.192738" lon="-3.692497">
        <ele>632.1860056520788</ele>
        <time>2021-05-07T18:02:33.718Z</time>
      </trkpt>
      <trkpt lat="40.19282" lon="-3.692472">
        <ele>632.2822837650749</ele>
        <time>2021-05-07T18:02:34.497Z</time>
      </trkpt>
      <trkpt lat="40.192905" lon="-3.692438">
        <ele>632.3673895965213</ele>
        <time>2021-05-07T18:02:35.278Z</time>
      </trkpt>
      <trkpt lat="40.192948" lon="-3.692425">
        <ele>632.442975021453</ele>
        <time>2021-05-07T18:02:36.059Z</time>
      </trkpt>
      <trkpt lat="40.192987" lon="-3.692412">
        <ele>632.515649186709</ele>
        <time>2021-05-07T18:02:36.841Z</time>
      </trkpt>
      <trkpt lat="40.193063" lon="-3.692377">
        <ele>632.5892515761187</ele>
        <time>2021-05-07T18:02:37.625Z</time>
      </trkpt>
      <trkpt lat="40.193138" lon="-3.69235">
        <ele>632.6626061115657</ele>
        <time>2021-05-07T18:02:38.410Z</time>
      </trkpt>
      <trkpt lat="40.193218" lon="-3.692318">
        <ele>632.7376440651819</ele>
        <time>2021-05-07T18:02:39.197Z</time>
      </trkpt>
      <trkpt lat="40.193303" lon="-3.692292">
        <ele>632.8169526950032</ele>
        <time>2021-05-07T18:02:39.986Z</time>
      </trkpt>
      <trkpt lat="40.193388" lon="-3.692263">
        <ele>632.9004656367533</ele>
        <time>2021-05-07T18:02:40.777Z</time>
      </trkpt>
      <trkpt lat="40.193468" lon="-3.692232">
        <ele>632.9859194948906</ele>
        <time>2021-05-07T18:02:41.569Z</time>
      </trkpt>
      <trkpt lat="40.193553" lon="-3.692202">
        <ele>633.0790448619687</ele>
        <time>2021-05-07T18:02:42.363Z</time>
      </trkpt>
      <trkpt lat="40.1936" lon="-3.692188">
        <ele>633.2823817398802</ele>
        <time>2021-05-07T18:02:43.158Z</time>
      </trkpt>
      <trkpt lat="40.193685" lon="-3.692162">
        <ele>633.4029366460475</ele>
        <time>2021-05-07T18:02:43.955Z</time>
      </trkpt>
      <trkpt lat="40.193728" lon="-3.69215">
        <ele>633.5305727134062</ele>
        <time>2021-05-07T18:02:44.753Z</time>
      </trkpt>
      <trkpt lat="40.193815" lon="-3.692125">
        <ele>633.6808167135387</ele>
        <time>2021-05-07T18:02:45.552Z</time>
      </trkpt>
      <trkpt lat="40.193898" lon="-3.692103">
        <ele>633.8549286959026</ele>
        <time>2021-05-07T18:02:46.353Z</time>
      </trkpt>
      <trkpt lat="40.193938" lon="-3.69209">
        <ele>634.0221929764634</ele>
        <time>2021-05-07T18:02:47.155Z</time>
      </trkpt>
      <trkpt lat="40.19402" lon="-3.692065">
        <ele>634.2122307769748</ele>
        <time>2021-05-07T18:02:47.959Z</time>
      </trkpt>
      <trkpt lat="40.194095" lon="-3.692017">
        <ele>634.4061190326377</ele>
        <time>2021-05-07T18:02:48.764Z</time>
      </trkpt>
      <trkpt lat="40.19412" lon="-3.691975">
        <ele>634.5871151333467</ele>
        <time>2021-05-07T18:02:49.570Z</time>
      </trkpt>
      <trkpt lat="40.194157" lon="-3.69186">
        <ele>634.7752256012902</ele>
        <time>2021-05-07T18:02:50.378Z</time>
      </trkpt>
      <trkpt lat="40.194208" lon="-3.691742">
        <ele>634.9390215558162</ele>
        <time>2021-05-07T18:02:51.188Z</time>
      </trkpt>
      <trkpt lat="40.194243" lon="-3.691688">
        <ele>635.1183365988387</ele>
        <time>2021-05-07T18:02:51.999Z</time>
      </trkpt>
      <trkpt lat="40.194332" lon="-3.691605">
        <ele>635.3109749090256</ele>
        <time>2021-05-07T18:02:52.812Z</time>
      </trkpt>
      <trkpt lat="40.194432" lon="-3.691562">
        <ele>635.5204434583263</ele>
        <time>2021-05-07T18:02:53.627Z</time>
      </trkpt>
      <trkpt lat="40.194535" lon="-3.691562">
        <ele>635.7434999585917</ele>
        <time>2021-05-07T18:02:54.444Z</time>
      </trkpt>
      <trkpt lat="40.194582" lon="-3.69158">
        <ele>635.9502727261581</ele>
        <time>2021-05-07T18:02:55.262Z</time>
      </trkpt>
      <trkpt lat="40.194627" lon="-3.691605">
        <ele>636.1511825875136</ele>
        <time>2021-05-07T18:02:56.081Z</time>
      </trkpt>
      <trkpt lat="40.194708" lon="-3.691673">
        <ele>636.343853972805</ele>
        <time>2021-05-07T18:02:56.902Z</time>
      </trkpt>
      <trkpt lat="40.194742" lon="-3.691715">
        <ele>636.5285233078629</ele>
        <time>2021-05-07T18:02:57.724Z</time>
      </trkpt>
      <trkpt lat="40.194772" lon="-3.691757">
        <ele>636.7092993031334</ele>
        <time>2021-05-07T18:02:58.547Z</time>
      </trkpt>
      <trkpt lat="40.194845" lon="-3.691812">
        <ele>636.8864963869828</ele>
        <time>2021-05-07T18:02:59.372Z</time>
      </trkpt>
      <trkpt lat="40.194897" lon="-3.691895">
        <ele>637.0648506495393</ele>
        <time>2021-05-07T18:03:00.199Z</time>
      </trkpt>
      <trkpt lat="40.194922" lon="-3.691933">
        <ele>637.2273736244144</ele>
        <time>2021-05-07T18:03:01.026Z</time>
      </trkpt>
      <trkpt lat="40.194988" lon="-3.691962">
        <ele>637.3827078451309</ele>
        <time>2021-05-07T18:03:01.855Z</time>
      </trkpt>
      <trkpt lat="40.195033" lon="-3.69196">
        <ele>637.5331946047083</ele>
        <time>2021-05-07T18:03:02.685Z</time>
      </trkpt>
      <trkpt lat="40.195122" lon="-3.691955">
        <ele>637.6794308650775</ele>
        <time>2021-05-07T18:03:03.516Z</time>
      </trkpt>
      <trkpt lat="40.19521" lon="-3.691955">
        <ele>637.8271711943233</ele>
        <time>2021-05-07T18:03:04.349Z</time>
      </trkpt>
      <trkpt lat="40.195255" lon="-3.691955">
        <ele>637.9800420566044</ele>
        <time>2021-05-07T18:03:05.183Z</time>
      </trkpt>
      <trkpt lat="40.195342" lon="-3.691957">
        <ele>638.1333762616061</ele>
        <time>2021-05-07T18:03:06.019Z</time>
      </trkpt>
      <trkpt lat="40.195387" lon="-3.691955">
        <ele>638.2953323307506</ele>
        <time>2021-05-07T18:03:06.856Z</time>
      </trkpt>
      <trkpt lat="40.195472" lon="-3.691962">
        <ele>638.4699941079039</ele>
        <time>2021-05-07T18:03:07.694Z</time>
      </trkpt>
      <trkpt lat="40.195555" lon="-3.69196">
        <ele>638.6607326456297</ele>
        <time>2021-05-07T18:03:08.534Z</time>
      </trkpt>
      <trkpt lat="40.19564" lon="-3.691957">
        <ele>638.8562409961222</ele>
        <time>2021-05-07T18:03:09.376Z</time>
      </trkpt>
      <trkpt lat="40.195723" lon="-3.69196">
        <ele>639.0564202116273</ele>
        <time>2021-05-07T18:03:10.219Z</time>
      </trkpt>
      <trkpt lat="40.195802" lon="-3.691975">
        <ele>639.2610562053524</ele>
        <time>2021-05-07T18:03:11.064Z</time>
      </trkpt>
      <trkpt lat="40.195887" lon="-3.691983">
        <ele>639.4668616217255</ele>
        <time>2021-05-07T18:03:11.911Z</time>
      </trkpt>
      <trkpt lat="40.195928" lon="-3.69198">
        <ele>639.660638249684</ele>
        <time>2021-05-07T18:03:12.758Z</time>
      </trkpt>
      <trkpt lat="40.196012" lon="-3.691978">
        <ele>639.8622466693132</ele>
        <time>2021-05-07T18:03:13.607Z</time>
      </trkpt>
      <trkpt lat="40.196052" lon="-3.691985">
        <ele>640.0528773024663</ele>
        <time>2021-05-07T18:03:14.457Z</time>
      </trkpt>
      <trkpt lat="40.196135" lon="-3.691982">
        <ele>640.245456838343</ele>
        <time>2021-05-07T18:03:15.309Z</time>
      </trkpt>
      <trkpt lat="40.19622" lon="-3.691973">
        <ele>640.4300917175167</ele>
        <time>2021-05-07T18:03:16.162Z</time>
      </trkpt>
      <trkpt lat="40.196312" lon="-3.691965">
        <ele>640.6012066340461</ele>
        <time>2021-05-07T18:03:17.017Z</time>
      </trkpt>
      <trkpt lat="40.1964" lon="-3.691965">
        <ele>640.7496831183796</ele>
        <time>2021-05-07T18:03:17.874Z</time>
      </trkpt>
      <trkpt lat="40.196488" lon="-3.691963">
        <ele>640.8854302117986</ele>
        <time>2021-05-07T18:03:18.733Z</time>
      </trkpt>
      <trkpt lat="40.19658" lon="-3.691958">
        <ele>641.0067734241301</ele>
        <time>2021-05-07T18:03:19.594Z</time>
      </trkpt>
      <trkpt lat="40.196675" lon="-3.69196">
        <ele>641.1144548879051</ele>
        <time>2021-05-07T18:03:20.456Z</time>
      </trkpt>
      <trkpt lat="40.196763" lon="-3.691963">
        <ele>641.2057505375035</ele>
        <time>2021-05-07T18:03:21.320Z</time>
      </trkpt>
      <trkpt lat="40.196853" lon="-3.691965">
        <ele>641.2787966037608</ele>
        <time>2021-05-07T18:03:22.186Z</time>
      </trkpt>
      <trkpt lat="40.196945" lon="-3.691977">
        <ele>641.3345345523448</ele>
        <time>2021-05-07T18:03:23.054Z</time>
      </trkpt>
      <trkpt lat="40.197032" lon="-3.691983">
        <ele>641.3680416441116</ele>
        <time>2021-05-07T18:03:23.924Z</time>
      </trkpt>
      <trkpt lat="40.197118" lon="-3.691982">
        <ele>641.3775564805896</ele>
        <time>2021-05-07T18:03:24.795Z</time>
      </trkpt>
      <trkpt lat="40.197202" lon="-3.691975">
        <ele>641.3560957788328</ele>
        <time>2021-05-07T18:03:25.668Z</time>
      </trkpt>
      <trkpt lat="40.19729" lon="-3.691972">
        <ele>641.3102376452615</ele>
        <time>2021-05-07T18:03:26.543Z</time>
      </trkpt>
      <trkpt lat="40.197385" lon="-3.69197">
        <ele>641.2379204137433</ele>
        <time>2021-05-07T18:03:27.420Z</time>
      </trkpt>
      <trkpt lat="40.197483" lon="-3.69197">
        <ele>641.1384845214964</ele>
        <time>2021-05-07T18:03:28.299Z</time>
      </trkpt>
      <trkpt lat="40.197588" lon="-3.691972">
        <ele>641.0104934612452</ele>
        <time>2021-05-07T18:03:29.180Z</time>
      </trkpt>
      <trkpt lat="40.19769" lon="-3.691978">
        <ele>640.8539946280771</ele>
        <time>2021-05-07T18:03:30.063Z</time>
      </trkpt>
      <trkpt lat="40.197795" lon="-3.69197">
        <ele>640.6636063019535</ele>
        <time>2021-05-07T18:03:30.948Z</time>
      </trkpt>
      <trkpt lat="40.197893" lon="-3.691967">
        <ele>640.4464813218964</ele>
        <time>2021-05-07T18:03:31.835Z</time>
      </trkpt>
      <trkpt lat="40.197995" lon="-3.69197">
        <ele>640.195698905591</ele>
        <time>2021-05-07T18:03:32.724Z</time>
      </trkpt>
      <trkpt lat="40.198097" lon="-3.691977">
        <ele>639.9047024524341</ele>
        <time>2021-05-07T18:03:33.615Z</time>
      </trkpt>
      <trkpt lat="40.198177" lon="-3.691943">
        <ele>639.5715207717824</ele>
        <time>2021-05-07T18:03:34.508Z</time>
      </trkpt>
      <trkpt lat="40.198218" lon="-3.69186">
        <ele>639.1969976314655</ele>
        <time>2021-05-07T18:03:35.402Z</time>
      </trkpt>
      <trkpt lat="40.198278" lon="-3.691788">
        <ele>638.7994307716685</ele>
        <time>2021-05-07T18:03:36.298Z</time>
      </trkpt>
      <trkpt lat="40.198362" lon="-3.69173">
        <ele>638.3677085028563</ele>
        <time>2021-05-07T18:03:37.196Z</time>
      </trkpt>
      <trkpt lat="40.19845" lon="-3.69168">
        <ele>637.9045247654192</ele>
        <time>2021-05-07T18:03:38.096Z</time>
      </trkpt>
      <trkpt lat="40.198553" lon="-3.691663">
        <ele>637.4127989472568</ele>
        <time>2021-05-07T18:03:38.998Z</time>
      </trkpt>
      <trkpt lat="40.198653" lon="-3.691697">
        <ele>636.8988486451436</ele>
        <time>2021-05-07T18:03:39.902Z</time>
      </trkpt>
      <trkpt lat="40.198748" lon="-3.691763">
        <ele>636.3615582338466</ele>
        <time>2021-05-07T18:03:40.808Z</time>
      </trkpt>
      <trkpt lat="40.19886" lon="-3.691798">
        <ele>635.7889248956924</ele>
        <time>2021-05-07T18:03:41.716Z</time>
      </trkpt>
      <trkpt lat="40.198982" lon="-3.691797">
        <ele>635.1689752017984</ele>
        <time>2021-05-07T18:03:42.627Z</time>
      </trkpt>
      <trkpt lat="40.199113" lon="-3.691792">
        <ele>634.5249628954404</ele>
        <time>2021-05-07T18:03:43.540Z</time>
      </trkpt>
      <trkpt lat="40.199255" lon="-3.691792">
        <ele>633.8601693657503</ele>
        <time>2021-05-07T18:03:44.456Z</time>
      </trkpt>
      <trkpt lat="40.199328" lon="-3.691792">
        <ele>633.2020093823672</ele>
        <time>2021-05-07T18:03:45.373Z</time>
      </trkpt>
      <trkpt lat="40.199485" lon="-3.691788">
        <ele>632.5110224280191</ele>
        <time>2021-05-07T18:03:46.294Z</time>
      </trkpt>
      <trkpt lat="40.199568" lon="-3.691795">
        <ele>631.8380481021262</ele>
        <time>2021-05-07T18:03:47.216Z</time>
      </trkpt>
      <trkpt lat="40.199743" lon="-3.691788">
        <ele>631.1206850240624</ele>
        <time>2021-05-07T18:03:48.142Z</time>
      </trkpt>
      <trkpt lat="40.199925" lon="-3.691782">
        <ele>630.416195815792</ele>
        <time>2021-05-07T18:03:49.071Z</time>
      </trkpt>
      <trkpt lat="40.200112" lon="-3.691783">
        <ele>629.7263124209837</ele>
        <time>2021-05-07T18:03:50.004Z</time>
      </trkpt>
      <trkpt lat="40.200303" lon="-3.691788">
        <ele>629.0575902107033</ele>
        <time>2021-05-07T18:03:50.941Z</time>
      </trkpt>
      <trkpt lat="40.200503" lon="-3.691787">
        <ele>628.4282920821963</ele>
        <time>2021-05-07T18:03:51.882Z</time>
      </trkpt>
      <trkpt lat="40.2007" lon="-3.691792">
        <ele>627.8765144659806</ele>
        <time>2021-05-07T18:03:52.827Z</time>
      </trkpt>
      <trkpt lat="40.200905" lon="-3.69179">
        <ele>627.3615314895004</ele>
        <time>2021-05-07T18:03:53.776Z</time>
      </trkpt>
      <trkpt lat="40.201115" lon="-3.691788">
        <ele>626.8882691525348</ele>
        <time>2021-05-07T18:03:54.729Z</time>
      </trkpt>
      <trkpt lat="40.201322" lon="-3.691788">
        <ele>626.4634345197363</ele>
        <time>2021-05-07T18:03:55.686Z</time>
      </trkpt>
      <trkpt lat="40.201525" lon="-3.691793">
        <ele>626.0869025230297</ele>
        <time>2021-05-07T18:03:56.647Z</time>
      </trkpt>
      <trkpt lat="40.201722" lon="-3.691795">
        <ele>625.7573415443597</ele>
        <time>2021-05-07T18:03:57.612Z</time>
      </trkpt>
      <trkpt lat="40.201902" lon="-3.691793">
        <ele>625.4796418874034</ele>
        <time>2021-05-07T18:03:58.581Z</time>
      </trkpt>
      <trkpt lat="40.202063" lon="-3.691728">
        <ele>625.2505791241495</ele>
        <time>2021-05-07T18:03:59.553Z</time>
      </trkpt>
      <trkpt lat="40.202215" lon="-3.69164">
        <ele>625.0797475445977</ele>
        <time>2021-05-07T18:04:00.529Z</time>
      </trkpt>
      <trkpt lat="40.20237" lon="-3.691675">
        <ele>624.9645969307436</ele>
        <time>2021-05-07T18:04:01.508Z</time>
      </trkpt>
      <trkpt lat="40.202508" lon="-3.691773">
        <ele>624.8802907190142</ele>
        <time>2021-05-07T18:04:02.490Z</time>
      </trkpt>
      <trkpt lat="40.202652" lon="-3.691818">
        <ele>624.8491319217358</ele>
        <time>2021-05-07T18:04:03.475Z</time>
      </trkpt>
      <trkpt lat="40.202732" lon="-3.691818">
        <ele>624.8789636800987</ele>
        <time>2021-05-07T18:04:04.461Z</time>
      </trkpt>
      <trkpt lat="40.20281" lon="-3.691818">
        <ele>624.955088470414</ele>
        <time>2021-05-07T18:04:05.449Z</time>
      </trkpt>
      <trkpt lat="40.20297" lon="-3.69182">
        <ele>625.0689240661371</ele>
        <time>2021-05-07T18:04:06.440Z</time>
      </trkpt>
      <trkpt lat="40.20305" lon="-3.69182">
        <ele>625.2628742087447</ele>
        <time>2021-05-07T18:04:07.433Z</time>
      </trkpt>
      <trkpt lat="40.203208" lon="-3.691822">
        <ele>625.5220100339291</ele>
        <time>2021-05-07T18:04:08.429Z</time>
      </trkpt>
      <trkpt lat="40.203288" lon="-3.691822">
        <ele>625.7796754678525</ele>
        <time>2021-05-07T18:04:09.427Z</time>
      </trkpt>
      <trkpt lat="40.203443" lon="-3.691822">
        <ele>626.0844606618928</ele>
        <time>2021-05-07T18:04:10.428Z</time>
      </trkpt>
      <trkpt lat="40.203595" lon="-3.691823">
        <ele>626.4011958044956</ele>
        <time>2021-05-07T18:04:11.432Z</time>
      </trkpt>
      <trkpt lat="40.203738" lon="-3.691827">
        <ele>626.7207331140276</ele>
        <time>2021-05-07T18:04:12.439Z</time>
      </trkpt>
      <trkpt lat="40.203875" lon="-3.691827">
        <ele>627.0108069295804</ele>
        <time>2021-05-07T18:04:13.448Z</time>
      </trkpt>
      <trkpt lat="40.203942" lon="-3.691827">
        <ele>627.2759458429166</ele>
        <time>2021-05-07T18:04:14.459Z</time>
      </trkpt>
      <trkpt lat="40.204077" lon="-3.691825">
        <ele>627.5345351724311</ele>
        <time>2021-05-07T18:04:15.472Z</time>
      </trkpt>
      <trkpt lat="40.204142" lon="-3.691823">
        <ele>627.7727493051088</ele>
        <time>2021-05-07T18:04:16.487Z</time>
      </trkpt>
      <trkpt lat="40.20427" lon="-3.69182">
        <ele>627.9968394147156</ele>
        <time>2021-05-07T18:04:17.504Z</time>
      </trkpt>
      <trkpt lat="40.204397" lon="-3.691818">
        <ele>628.1997825727578</ele>
        <time>2021-05-07T18:04:18.524Z</time>
      </trkpt>
      <trkpt lat="40.204525" lon="-3.691817">
        <ele>628.3799064587622</ele>
        <time>2021-05-07T18:04:19.546Z</time>
      </trkpt>
      <trkpt lat="40.204655" lon="-3.691813">
        <ele>628.5278869053095</ele>
        <time>2021-05-07T18:04:20.571Z</time>
      </trkpt>
      <trkpt lat="40.20479" lon="-3.691808">
        <ele>628.6391943705603</ele>
        <time>2021-05-07T18:04:21.599Z</time>
      </trkpt>
      <trkpt lat="40.204927" lon="-3.691812">
        <ele>628.7292618392152</ele>
        <time>2021-05-07T18:04:22.629Z</time>
      </trkpt>
      <trkpt lat="40.205072" lon="-3.691812">
        <ele>628.7960985997267</ele>
        <time>2021-05-07T18:04:23.662Z</time>
      </trkpt>
      <trkpt lat="40.20522" lon="-3.691812">
        <ele>628.842559096383</ele>
        <time>2021-05-07T18:04:24.698Z</time>
      </trkpt>
      <trkpt lat="40.205373" lon="-3.691813">
        <ele>628.8709920954352</ele>
        <time>2021-05-07T18:04:25.737Z</time>
      </trkpt>
      <trkpt lat="40.205527" lon="-3.691813">
        <ele>628.8932579341779</ele>
        <time>2021-05-07T18:04:26.779Z</time>
      </trkpt>
      <trkpt lat="40.20568" lon="-3.691812">
        <ele>628.9050293601263</ele>
        <time>2021-05-07T18:04:27.824Z</time>
      </trkpt>
      <trkpt lat="40.205828" lon="-3.691755">
        <ele>628.9033958177282</ele>
        <time>2021-05-07T18:04:28.872Z</time>
      </trkpt>
      <trkpt lat="40.205973" lon="-3.691708">
        <ele>628.8962465732882</ele>
        <time>2021-05-07T18:04:29.923Z</time>
      </trkpt>
      <trkpt lat="40.206043" lon="-3.691722">
        <ele>628.8904637823912</ele>
        <time>2021-05-07T18:04:30.976Z</time>
      </trkpt>
      <trkpt lat="40.206173" lon="-3.691793">
        <ele>628.8889222741391</ele>
        <time>2021-05-07T18:04:32.032Z</time>
      </trkpt>
      <trkpt lat="40.206238" lon="-3.691823">
        <ele>628.8876444368724</ele>
        <time>2021-05-07T18:04:33.089Z</time>
      </trkpt>
      <trkpt lat="40.206378" lon="-3.691828">
        <ele>628.8896669430128</ele>
        <time>2021-05-07T18:04:34.149Z</time>
      </trkpt>
      <trkpt lat="40.206523" lon="-3.691825">
        <ele>628.911461561654</ele>
        <time>2021-05-07T18:04:35.212Z</time>
      </trkpt>
      <trkpt lat="40.206672" lon="-3.69182">
        <ele>628.945110530989</ele>
        <time>2021-05-07T18:04:36.278Z</time>
      </trkpt>
      <trkpt lat="40.206825" lon="-3.691817">
        <ele>628.9944335608398</ele>
        <time>2021-05-07T18:04:37.347Z</time>
      </trkpt>
      <trkpt lat="40.20698" lon="-3.691818">
        <ele>629.0624123703312</ele>
        <time>2021-05-07T18:04:38.419Z</time>
      </trkpt>
      <trkpt lat="40.207135" lon="-3.691818">
        <ele>629.1498673554643</ele>
        <time>2021-05-07T18:04:39.494Z</time>
      </trkpt>
      <trkpt lat="40.207292" lon="-3.691818">
        <ele>629.2321041524247</ele>
        <time>2021-05-07T18:04:40.572Z</time>
      </trkpt>
      <trkpt lat="40.207448" lon="-3.691818">
        <ele>629.3327386193359</ele>
        <time>2021-05-07T18:04:41.653Z</time>
      </trkpt>
      <trkpt lat="40.207605" lon="-3.69182">
        <ele>629.4605409373397</ele>
        <time>2021-05-07T18:04:42.737Z</time>
      </trkpt>
      <trkpt lat="40.207762" lon="-3.691815">
        <ele>629.6170442336617</ele>
        <time>2021-05-07T18:04:43.825Z</time>
      </trkpt>
      <trkpt lat="40.20792" lon="-3.691795">
        <ele>629.8029766339044</ele>
        <time>2021-05-07T18:04:44.916Z</time>
      </trkpt>
      <trkpt lat="40.208073" lon="-3.691758">
        <ele>630.0884835027018</ele>
        <time>2021-05-07T18:04:46.010Z</time>
      </trkpt>
      <trkpt lat="40.208217" lon="-3.691708">
        <ele>630.4115780404206</ele>
        <time>2021-05-07T18:04:47.107Z</time>
      </trkpt>
      <trkpt lat="40.20836" lon="-3.691663">
        <ele>630.7618915834247</ele>
        <time>2021-05-07T18:04:48.207Z</time>
      </trkpt>
      <trkpt lat="40.208498" lon="-3.691615">
        <ele>631.1350291233965</ele>
        <time>2021-05-07T18:04:49.310Z</time>
      </trkpt>
      <trkpt lat="40.208622" lon="-3.691552">
        <ele>631.5243833402319</ele>
        <time>2021-05-07T18:04:50.415Z</time>
      </trkpt>
      <trkpt lat="40.208735" lon="-3.691472">
        <ele>631.9275022701315</ele>
        <time>2021-05-07T18:04:51.523Z</time>
      </trkpt>
      <trkpt lat="40.208832" lon="-3.691378">
        <ele>632.3390103242227</ele>
        <time>2021-05-07T18:04:52.633Z</time>
      </trkpt>
      <trkpt lat="40.208917" lon="-3.691283">
        <ele>632.7568984979835</ele>
        <time>2021-05-07T18:04:53.745Z</time>
      </trkpt>
      <trkpt lat="40.208957" lon="-3.691233">
        <ele>633.1660644846811</ele>
        <time>2021-05-07T18:04:54.859Z</time>
      </trkpt>
      <trkpt lat="40.209037" lon="-3.69114">
        <ele>633.5942784711809</ele>
        <time>2021-05-07T18:04:55.975Z</time>
      </trkpt>
      <trkpt lat="40.209068" lon="-3.691092">
        <ele>634.0067301841846</ele>
        <time>2021-05-07T18:04:57.092Z</time>
      </trkpt>
      <trkpt lat="40.209095" lon="-3.690983">
        <ele>634.413837237566</ele>
        <time>2021-05-07T18:04:58.210Z</time>
      </trkpt>
      <trkpt lat="40.20909" lon="-3.690858">
        <ele>634.8014918841427</ele>
        <time>2021-05-07T18:04:59.330Z</time>
      </trkpt>
      <trkpt lat="40.209102" lon="-3.690718">
        <ele>635.190165717989</ele>
        <time>2021-05-07T18:05:00.453Z</time>
      </trkpt>
      <trkpt lat="40.209143" lon="-3.690595">
        <ele>635.5791956296968</ele>
        <time>2021-05-07T18:05:01.578Z</time>
      </trkpt>
      <trkpt lat="40.209223" lon="-3.690503">
        <ele>635.9817032178175</ele>
        <time>2021-05-07T18:05:02.705Z</time>
      </trkpt>
      <trkpt lat="40.20932" lon="-3.690462">
        <ele>636.3889308601227</ele>
        <time>2021-05-07T18:05:03.834Z</time>
      </trkpt>
      <trkpt lat="40.209368" lon="-3.690458">
        <ele>636.7668554443173</ele>
        <time>2021-05-07T18:05:04.964Z</time>
      </trkpt>
      <trkpt lat="40.209457" lon="-3.690475">
        <ele>637.1431053751612</ele>
        <time>2021-05-07T18:05:06.096Z</time>
      </trkpt>
      <trkpt lat="40.209545" lon="-3.690487">
        <ele>637.5002205636001</ele>
        <time>2021-05-07T18:05:07.229Z</time>
      </trkpt>
      <trkpt lat="40.20959" lon="-3.69047">
        <ele>637.8184533285682</ele>
        <time>2021-05-07T18:05:08.363Z</time>
      </trkpt>
      <trkpt lat="40.209667" lon="-3.6904">
        <ele>638.1170391773308</ele>
        <time>2021-05-07T18:05:09.499Z</time>
      </trkpt>
      <trkpt lat="40.209728" lon="-3.690308">
        <ele>638.3810713447135</ele>
        <time>2021-05-07T18:05:10.637Z</time>
      </trkpt>
      <trkpt lat="40.2098" lon="-3.690222">
        <ele>638.6202310836713</ele>
        <time>2021-05-07T18:05:11.777Z</time>
      </trkpt>
      <trkpt lat="40.209872" lon="-3.690133">
        <ele>638.8240225106847</ele>
        <time>2021-05-07T18:05:12.919Z</time>
      </trkpt>
      <trkpt lat="40.209938" lon="-3.690042">
        <ele>638.9918190458932</ele>
        <time>2021-05-07T18:05:14.063Z</time>
      </trkpt>
      <trkpt lat="40.210002" lon="-3.689952">
        <ele>639.125483522598</ele>
        <time>2021-05-07T18:05:15.209Z</time>
      </trkpt>
      <trkpt lat="40.210073" lon="-3.689857">
        <ele>639.2255070071312</ele>
        <time>2021-05-07T18:05:16.357Z</time>
      </trkpt>
      <trkpt lat="40.210107" lon="-3.689805">
        <ele>639.2851043828543</ele>
        <time>2021-05-07T18:05:17.506Z</time>
      </trkpt>
      <trkpt lat="40.210183" lon="-3.689697">
        <ele>639.3120427976949</ele>
        <time>2021-05-07T18:05:18.657Z</time>
      </trkpt>
      <trkpt lat="40.210215" lon="-3.689637">
        <ele>639.2960052825827</ele>
        <time>2021-05-07T18:05:19.809Z</time>
      </trkpt>
      <trkpt lat="40.21029" lon="-3.689513">
        <ele>639.2466991217043</ele>
        <time>2021-05-07T18:05:20.964Z</time>
      </trkpt>
      <trkpt lat="40.210377" lon="-3.689377">
        <ele>639.1643452138524</ele>
        <time>2021-05-07T18:05:22.121Z</time>
      </trkpt>
      <trkpt lat="40.210442" lon="-3.689237">
        <ele>639.0399284419321</ele>
        <time>2021-05-07T18:05:23.281Z</time>
      </trkpt>
      <trkpt lat="40.210507" lon="-3.68909">
        <ele>638.866896669482</ele>
        <time>2021-05-07T18:05:24.443Z</time>
      </trkpt>
      <trkpt lat="40.210568" lon="-3.688938">
        <ele>638.6565027615677</ele>
        <time>2021-05-07T18:05:25.608Z</time>
      </trkpt>
      <trkpt lat="40.21062" lon="-3.688785">
        <ele>638.4130732687275</ele>
        <time>2021-05-07T18:05:26.776Z</time>
      </trkpt>
      <trkpt lat="40.210665" lon="-3.68863">
        <ele>638.1388158107952</ele>
        <time>2021-05-07T18:05:27.946Z</time>
      </trkpt>
      <trkpt lat="40.210705" lon="-3.688468">
        <ele>637.8225049282368</ele>
        <time>2021-05-07T18:05:29.119Z</time>
      </trkpt>
      <trkpt lat="40.21074" lon="-3.688297">
        <ele>637.4575026109153</ele>
        <time>2021-05-07T18:05:30.294Z</time>
      </trkpt>
      <trkpt lat="40.210775" lon="-3.688117">
        <ele>637.0822339689139</ele>
        <time>2021-05-07T18:05:31.472Z</time>
      </trkpt>
      <trkpt lat="40.210803" lon="-3.687932">
        <ele>636.6982368723135</ele>
        <time>2021-05-07T18:05:32.653Z</time>
      </trkpt>
      <trkpt lat="40.210817" lon="-3.687838">
        <ele>636.3163064290432</ele>
        <time>2021-05-07T18:05:33.836Z</time>
      </trkpt>
      <trkpt lat="40.210827" lon="-3.687745">
        <ele>635.925488995195</ele>
        <time>2021-05-07T18:05:35.020Z</time>
      </trkpt>
      <trkpt lat="40.21084" lon="-3.687555">
        <ele>635.513974019285</ele>
        <time>2021-05-07T18:05:36.207Z</time>
      </trkpt>
      <trkpt lat="40.210845" lon="-3.687365">
        <ele>635.1006889998766</ele>
        <time>2021-05-07T18:05:37.397Z</time>
      </trkpt>
      <trkpt lat="40.210848" lon="-3.687172">
        <ele>634.2774024564771</ele>
        <time>2021-05-07T18:05:38.590Z</time>
      </trkpt>
      <trkpt lat="40.210853" lon="-3.68698">
        <ele>633.8324707154277</ele>
        <time>2021-05-07T18:05:39.786Z</time>
      </trkpt>
      <trkpt lat="40.210855" lon="-3.686807">
        <ele>633.4235970108457</ele>
        <time>2021-05-07T18:05:40.984Z</time>
      </trkpt>
      <trkpt lat="40.210837" lon="-3.686683">
        <ele>633.0660237468887</ele>
        <time>2021-05-07T18:05:42.184Z</time>
      </trkpt>
      <trkpt lat="40.210743" lon="-3.686615">
        <ele>632.7145920509367</ele>
        <time>2021-05-07T18:05:43.387Z</time>
      </trkpt>
      <trkpt lat="40.210647" lon="-3.686535">
        <ele>632.3746868413483</ele>
        <time>2021-05-07T18:05:44.592Z</time>
      </trkpt>
      <trkpt lat="40.210595" lon="-3.6864">
        <ele>632.0491116811429</ele>
        <time>2021-05-07T18:05:45.799Z</time>
      </trkpt>
      <trkpt lat="40.210618" lon="-3.686247">
        <ele>631.7390458767613</ele>
        <time>2021-05-07T18:05:47.009Z</time>
      </trkpt>
      <trkpt lat="40.210653" lon="-3.686178">
        <ele>631.4384252435616</ele>
        <time>2021-05-07T18:05:48.220Z</time>
      </trkpt>
      <trkpt lat="40.210737" lon="-3.686052">
        <ele>631.1480788558462</ele>
        <time>2021-05-07T18:05:49.433Z</time>
      </trkpt>
      <trkpt lat="40.21077" lon="-3.685982">
        <ele>630.8552990861068</ele>
        <time>2021-05-07T18:05:50.648Z</time>
      </trkpt>
      <trkpt lat="40.210802" lon="-3.68582">
        <ele>630.5570642636219</ele>
        <time>2021-05-07T18:05:51.865Z</time>
      </trkpt>
      <trkpt lat="40.210817" lon="-3.685647">
        <ele>630.2605450062335</ele>
        <time>2021-05-07T18:05:53.085Z</time>
      </trkpt>
      <trkpt lat="40.21083" lon="-3.685473">
        <ele>629.9838543134063</ele>
        <time>2021-05-07T18:05:54.308Z</time>
      </trkpt>
      <trkpt lat="40.210848" lon="-3.685297">
        <ele>629.7048536922148</ele>
        <time>2021-05-07T18:05:55.533Z</time>
      </trkpt>
      <trkpt lat="40.210863" lon="-3.685117">
        <ele>629.4000408892634</ele>
        <time>2021-05-07T18:05:56.761Z</time>
      </trkpt>
      <trkpt lat="40.210872" lon="-3.68503">
        <ele>629.0832881087653</ele>
        <time>2021-05-07T18:05:57.990Z</time>
      </trkpt>
      <trkpt lat="40.210877" lon="-3.684948">
        <ele>628.7646503504593</ele>
        <time>2021-05-07T18:05:59.221Z</time>
      </trkpt>
      <trkpt lat="40.210865" lon="-3.684792">
        <ele>628.42898948006</ele>
        <time>2021-05-07T18:06:00.454Z</time>
      </trkpt>
      <trkpt lat="40.210832" lon="-3.684633">
        <ele>628.0936868579149</ele>
        <time>2021-05-07T18:06:01.690Z</time>
      </trkpt>
      <trkpt lat="40.210822" lon="-3.684553">
        <ele>627.7755197735421</ele>
        <time>2021-05-07T18:06:02.927Z</time>
      </trkpt>
      <trkpt lat="40.210825" lon="-3.684403">
        <ele>627.4454722347101</ele>
        <time>2021-05-07T18:06:04.166Z</time>
      </trkpt>
      <trkpt lat="40.210845" lon="-3.684247">
        <ele>627.1117308388864</ele>
        <time>2021-05-07T18:06:05.408Z</time>
      </trkpt>
      <trkpt lat="40.210877" lon="-3.68408">
        <ele>626.7818027085559</ele>
        <time>2021-05-07T18:06:06.652Z</time>
      </trkpt>
      <trkpt lat="40.210893" lon="-3.683993">
        <ele>626.4904154882172</ele>
        <time>2021-05-07T18:06:07.898Z</time>
      </trkpt>
      <trkpt lat="40.210927" lon="-3.68381">
        <ele>626.1933789672989</ele>
        <time>2021-05-07T18:06:09.146Z</time>
      </trkpt>
      <trkpt lat="40.210935" lon="-3.683615">
        <ele>625.9235830984935</ele>
        <time>2021-05-07T18:06:10.397Z</time>
      </trkpt>
      <trkpt lat="40.210947" lon="-3.683515">
        <ele>625.700873526763</ele>
        <time>2021-05-07T18:06:11.650Z</time>
      </trkpt>
      <trkpt lat="40.210968" lon="-3.683317">
        <ele>625.5211373319012</ele>
        <time>2021-05-07T18:06:12.906Z</time>
      </trkpt>
      <trkpt lat="40.210982" lon="-3.683117">
        <ele>625.3694300552185</ele>
        <time>2021-05-07T18:06:14.165Z</time>
      </trkpt>
      <trkpt lat="40.210993" lon="-3.682913">
        <ele>625.2511071607357</ele>
        <time>2021-05-07T18:06:15.427Z</time>
      </trkpt>
      <trkpt lat="40.211" lon="-3.682812">
        <ele>625.1619550381492</ele>
        <time>2021-05-07T18:06:16.691Z</time>
      </trkpt>
      <trkpt lat="40.210998" lon="-3.682623">
        <ele>625.0917763518246</ele>
        <time>2021-05-07T18:06:17.958Z</time>
      </trkpt>
      <trkpt lat="40.21097" lon="-3.682443">
        <ele>625.0290766981291</ele>
        <time>2021-05-07T18:06:19.227Z</time>
      </trkpt>
      <trkpt lat="40.210907" lon="-3.682288">
        <ele>625.0018161194371</ele>
        <time>2021-05-07T18:06:20.499Z</time>
      </trkpt>
      <trkpt lat="40.210822" lon="-3.682177">
        <ele>625.0188009014076</ele>
        <time>2021-05-07T18:06:21.774Z</time>
      </trkpt>
      <trkpt lat="40.210727" lon="-3.682112">
        <ele>625.0650226137486</ele>
        <time>2021-05-07T18:06:23.051Z</time>
      </trkpt>
      <trkpt lat="40.210675" lon="-3.682097">
        <ele>625.1189238950119</ele>
        <time>2021-05-07T18:06:24.329Z</time>
      </trkpt>
      <trkpt lat="40.21059" lon="-3.682075">
        <ele>625.1948859557228</ele>
        <time>2021-05-07T18:06:25.609Z</time>
      </trkpt>
      <trkpt lat="40.210553" lon="-3.68206">
        <ele>625.2669462165984</ele>
        <time>2021-05-07T18:06:26.889Z</time>
      </trkpt>
      <trkpt lat="40.210485" lon="-3.68204">
        <ele>625.3534926894172</ele>
        <time>2021-05-07T18:06:28.171Z</time>
      </trkpt>
      <trkpt lat="40.21043" lon="-3.682025">
        <ele>625.4327048384324</ele>
        <time>2021-05-07T18:06:29.454Z</time>
      </trkpt>
      <trkpt lat="40.210388" lon="-3.68201">
        <ele>625.5015967306626</ele>
        <time>2021-05-07T18:06:30.738Z</time>
      </trkpt>
      <trkpt lat="40.210345" lon="-3.681993">
        <ele>625.5666837863141</ele>
        <time>2021-05-07T18:06:32.023Z</time>
      </trkpt>
      <trkpt lat="40.210303" lon="-3.681982">
        <ele>625.6281263797025</ele>
        <time>2021-05-07T18:06:33.308Z</time>
      </trkpt>
      <trkpt lat="40.210273" lon="-3.681977">
        <ele>625.6817736269602</ele>
        <time>2021-05-07T18:06:34.594Z</time>
      </trkpt>
      <trkpt lat="40.210258" lon="-3.681963">
        <ele>625.7236754915028</ele>
        <time>2021-05-07T18:06:35.880Z</time>
      </trkpt>
      <trkpt lat="40.21026" lon="-3.68196">
        <ele>625.7519322186316</ele>
        <time>2021-05-07T18:06:37.166Z</time>
      </trkpt>
      <trkpt lat="40.210263" lon="-3.681963">
        <ele>625.7662786470444</ele>
        <time>2021-05-07T18:06:38.453Z</time>
      </trkpt>
      <trkpt lat="40.210335" lon="-3.681975">
        <ele>625.760746719895</ele>
        <time>2021-05-07T18:06:39.741Z</time>
      </trkpt>
      <trkpt lat="40.210367" lon="-3.681987">
        <ele>625.745325268655</ele>
        <time>2021-05-07T18:06:41.030Z</time>
      </trkpt>
      <trkpt lat="40.210393" lon="-3.682">
        <ele>625.714349275227</ele>
        <time>2021-05-07T18:06:42.319Z</time>
      </trkpt>
      <trkpt lat="40.210408" lon="-3.681987">
        <ele>625.6654402008032</ele>
        <time>2021-05-07T18:06:43.609Z</time>
      </trkpt>
      <trkpt lat="40.210413" lon="-3.68195">
        <ele>625.599042155101</ele>
        <time>2021-05-07T18:06:44.899Z</time>
      </trkpt>
      <trkpt lat="40.210425" lon="-3.681887">
        <ele>625.5159236624866</ele>
        <time>2021-05-07T18:06:46.190Z</time>
      </trkpt>
      <trkpt lat="40.21044" lon="-3.681815">
        <ele>625.4151471708918</ele>
        <time>2021-05-07T18:06:47.482Z</time>
      </trkpt>
      <trkpt lat="40.21045" lon="-3.681777">
        <ele>625.3036759752937</ele>
        <time>2021-05-07T18:06:48.775Z</time>
      </trkpt>
      <trkpt lat="40.21046" lon="-3.68174">
        <ele>625.1799035258682</ele>
        <time>2021-05-07T18:06:50.069Z</time>
      </trkpt>
      <trkpt lat="40.210478" lon="-3.681653">
        <ele>625.0375807734453</ele>
        <time>2021-05-07T18:06:51.364Z</time>
      </trkpt>
      <trkpt lat="40.2105" lon="-3.681558">
        <ele>624.8868546444369</ele>
        <time>2021-05-07T18:06:52.660Z</time>
      </trkpt>
      <trkpt lat="40.210513" lon="-3.681515">
        <ele>624.7428367386385</ele>
        <time>2021-05-07T18:06:53.957Z</time>
      </trkpt>
      <trkpt lat="40.210523" lon="-3.68148">
        <ele>624.6001379975686</ele>
        <time>2021-05-07T18:06:55.255Z</time>
      </trkpt>
      <trkpt lat="40.210545" lon="-3.681445">
        <ele>624.4559893109592</ele>
        <time>2021-05-07T18:06:56.553Z</time>
      </trkpt>
      <trkpt lat="40.210593" lon="-3.681467">
        <ele>624.3173173457641</ele>
        <time>2021-05-07T18:06:57.852Z</time>
      </trkpt>
      <trkpt lat="40.210683" lon="-3.681503">
        <ele>624.1760440899286</ele>
        <time>2021-05-07T18:06:59.153Z</time>
      </trkpt>
      <trkpt lat="40.210782" lon="-3.681542">
        <ele>624.0428594696989</ele>
        <time>2021-05-07T18:07:00.456Z</time>
      </trkpt>
      <trkpt lat="40.210867" lon="-3.68158">
        <ele>623.9264327774367</ele>
        <time>2021-05-07T18:07:01.761Z</time>
      </trkpt>
      <trkpt lat="40.210902" lon="-3.681595">
        <ele>623.8362299945865</ele>
        <time>2021-05-07T18:07:03.067Z</time>
      </trkpt>
      <trkpt lat="40.210932" lon="-3.681605">
        <ele>623.7635992456485</ele>
        <time>2021-05-07T18:07:04.373Z</time>
      </trkpt>
      <trkpt lat="40.21096" lon="-3.681588">
        <ele>623.7057878431161</ele>
        <time>2021-05-07T18:07:05.680Z</time>
      </trkpt>
      <trkpt lat="40.210962" lon="-3.681537">
        <ele>623.669559467706</ele>
        <time>2021-05-07T18:07:06.988Z</time>
      </trkpt>
      <trkpt lat="40.210927" lon="-3.681513">
        <ele>623.667168305408</ele>
        <time>2021-05-07T18:07:08.297Z</time>
      </trkpt>
      <trkpt lat="40.21089" lon="-3.681468">
        <ele>623.6812058162868</ele>
        <time>2021-05-07T18:07:09.607Z</time>
      </trkpt>
      <trkpt lat="40.210838" lon="-3.68144">
        <ele>623.7199721470627</ele>
        <time>2021-05-07T18:07:10.918Z</time>
      </trkpt>
      <trkpt lat="40.210773" lon="-3.681445">
        <ele>623.7837161711805</ele>
        <time>2021-05-07T18:07:12.230Z</time>
      </trkpt>
      <trkpt lat="40.210742" lon="-3.681448">
        <ele>623.8518662762674</ele>
        <time>2021-05-07T18:07:13.543Z</time>
      </trkpt>
      <trkpt lat="40.21068" lon="-3.681457">
        <ele>623.942117575084</ele>
        <time>2021-05-07T18:07:14.857Z</time>
      </trkpt>
      <trkpt lat="40.210623" lon="-3.681462">
        <ele>624.0401253303628</ele>
        <time>2021-05-07T18:07:16.172Z</time>
      </trkpt>
      <trkpt lat="40.210597" lon="-3.68146">
        <ele>624.1353153775876</ele>
        <time>2021-05-07T18:07:17.488Z</time>
      </trkpt>
      <trkpt lat="40.210573" lon="-3.681452">
        <ele>624.2336343786999</ele>
        <time>2021-05-07T18:07:18.804Z</time>
      </trkpt>
      <trkpt lat="40.210538" lon="-3.68143">
        <ele>624.3351383612921</ele>
        <time>2021-05-07T18:07:20.121Z</time>
      </trkpt>
      <trkpt lat="40.210503" lon="-3.681415">
        <ele>624.4371712487826</ele>
        <time>2021-05-07T18:07:21.439Z</time>
      </trkpt>
      <trkpt lat="40.21049" lon="-3.681408">
        <ele>624.5310924317962</ele>
        <time>2021-05-07T18:07:22.757Z</time>
      </trkpt>
      <trkpt lat="40.210457" lon="-3.681392">
        <ele>624.6242723216986</ele>
        <time>2021-05-07T18:07:24.076Z</time>
      </trkpt>
      <trkpt lat="40.21042" lon="-3.681363">
        <ele>624.7024218893091</ele>
        <time>2021-05-07T18:07:25.396Z</time>
      </trkpt>
      <trkpt lat="40.210375" lon="-3.681337">
        <ele>624.7711837407096</ele>
        <time>2021-05-07T18:07:26.716Z</time>
      </trkpt>
      <trkpt lat="40.210322" lon="-3.681313">
        <ele>624.8297477339169</ele>
        <time>2021-05-07T18:07:28.038Z</time>
      </trkpt>
      <trkpt lat="40.21027" lon="-3.681278">
        <ele>624.8740155235159</ele>
        <time>2021-05-07T18:07:29.361Z</time>
      </trkpt>
      <trkpt lat="40.210217" lon="-3.681225">
        <ele>624.9045802607716</ele>
        <time>2021-05-07T18:07:30.685Z</time>
      </trkpt>
      <trkpt lat="40.210155" lon="-3.681177">
        <ele>624.9263360235472</ele>
        <time>2021-05-07T18:07:32.011Z</time>
      </trkpt>
      <trkpt lat="40.21009" lon="-3.681133">
        <ele>624.9324361957106</ele>
        <time>2021-05-07T18:07:33.338Z</time>
      </trkpt>
      <trkpt lat="40.210058" lon="-3.68112">
        <ele>624.9187222355993</ele>
        <time>2021-05-07T18:07:34.666Z</time>
      </trkpt>
      <trkpt lat="40.209977" lon="-3.681128">
        <ele>624.8956308840783</ele>
        <time>2021-05-07T18:07:35.995Z</time>
      </trkpt>
      <trkpt lat="40.209935" lon="-3.681132">
        <ele>624.8482324832038</ele>
        <time>2021-05-07T18:07:37.325Z</time>
      </trkpt>
      <trkpt lat="40.209883" lon="-3.681098">
        <ele>624.7811069756066</ele>
        <time>2021-05-07T18:07:38.656Z</time>
      </trkpt>
      <trkpt lat="40.209863" lon="-3.681015">
        <ele>624.6878309998898</ele>
        <time>2021-05-07T18:07:39.989Z</time>
      </trkpt>
      <trkpt lat="40.209875" lon="-3.68091">
        <ele>624.5713379959783</ele>
        <time>2021-05-07T18:07:41.323Z</time>
      </trkpt>
      <trkpt lat="40.209895" lon="-3.680793">
        <ele>624.4373315043797</ele>
        <time>2021-05-07T18:07:42.659Z</time>
      </trkpt>
      <trkpt lat="40.209907" lon="-3.680732">
        <ele>624.293669836363</ele>
        <time>2021-05-07T18:07:43.996Z</time>
      </trkpt>
      <trkpt lat="40.209937" lon="-3.680607">
        <ele>624.1192384479216</ele>
        <time>2021-05-07T18:07:45.335Z</time>
      </trkpt>
      <trkpt lat="40.209955" lon="-3.680542">
        <ele>623.9494600082037</ele>
        <time>2021-05-07T18:07:46.675Z</time>
      </trkpt>
      <trkpt lat="40.209992" lon="-3.680412">
        <ele>623.7603452034832</ele>
        <time>2021-05-07T18:07:48.017Z</time>
      </trkpt>
      <trkpt lat="40.210008" lon="-3.680347">
        <ele>623.5832777178789</ele>
        <time>2021-05-07T18:07:49.360Z</time>
      </trkpt>
      <trkpt lat="40.21002" lon="-3.68028">
        <ele>623.4069635179526</ele>
        <time>2021-05-07T18:07:50.704Z</time>
      </trkpt>
      <trkpt lat="40.210047" lon="-3.680148">
        <ele>623.2140340534256</ele>
        <time>2021-05-07T18:07:52.050Z</time>
      </trkpt>
      <trkpt lat="40.210077" lon="-3.680027">
        <ele>623.0206924886913</ele>
        <time>2021-05-07T18:07:53.398Z</time>
      </trkpt>
      <trkpt lat="40.210088" lon="-3.679963">
        <ele>622.858797747286</ele>
        <time>2021-05-07T18:07:54.747Z</time>
      </trkpt>
      <trkpt lat="40.210105" lon="-3.679912">
        <ele>622.7149925295425</ele>
        <time>2021-05-07T18:07:56.097Z</time>
      </trkpt>
      <trkpt lat="40.210063" lon="-3.679842">
        <ele>622.5796072661717</ele>
        <time>2021-05-07T18:07:57.449Z</time>
      </trkpt>
      <trkpt lat="40.209972" lon="-3.67978">
        <ele>622.4816632002785</ele>
        <time>2021-05-07T18:07:58.803Z</time>
      </trkpt>
      <trkpt lat="40.20987" lon="-3.679722">
        <ele>622.4299442739098</ele>
        <time>2021-05-07T18:08:00.159Z</time>
      </trkpt>
      <trkpt lat="40.209757" lon="-3.679673">
        <ele>622.3978506673857</ele>
        <time>2021-05-07T18:08:01.517Z</time>
      </trkpt>
      <trkpt lat="40.209698" lon="-3.679653">
        <ele>622.366515010694</ele>
        <time>2021-05-07T18:08:02.877Z</time>
      </trkpt>
      <trkpt lat="40.209577" lon="-3.679613">
        <ele>622.3580041547965</ele>
        <time>2021-05-07T18:08:04.239Z</time>
      </trkpt>
      <trkpt lat="40.209453" lon="-3.679578">
        <ele>622.3490058270254</ele>
        <time>2021-05-07T18:08:05.604Z</time>
      </trkpt>
      <trkpt lat="40.209338" lon="-3.679525">
        <ele>622.3283601426845</ele>
        <time>2021-05-07T18:08:06.971Z</time>
      </trkpt>
      <trkpt lat="40.209223" lon="-3.679473">
        <ele>622.3067855256713</ele>
        <time>2021-05-07T18:08:08.340Z</time>
      </trkpt>
      <trkpt lat="40.209163" lon="-3.679457">
        <ele>622.2971748391195</ele>
        <time>2021-05-07T18:08:09.711Z</time>
      </trkpt>
      <trkpt lat="40.209047" lon="-3.67942">
        <ele>622.2852693320913</ele>
        <time>2021-05-07T18:08:11.084Z</time>
      </trkpt>
      <trkpt lat="40.208928" lon="-3.679387">
        <ele>622.2745447765333</ele>
        <time>2021-05-07T18:08:12.459Z</time>
      </trkpt>
      <trkpt lat="40.208813" lon="-3.679355">
        <ele>622.2645875980222</ele>
        <time>2021-05-07T18:08:13.837Z</time>
      </trkpt>
      <trkpt lat="40.208705" lon="-3.67932">
        <ele>622.243980583627</ele>
        <time>2021-05-07T18:08:15.217Z</time>
      </trkpt>
      <trkpt lat="40.208605" lon="-3.679285">
        <ele>622.2129217495228</ele>
        <time>2021-05-07T18:08:16.599Z</time>
      </trkpt>
      <trkpt lat="40.208563" lon="-3.67927">
        <ele>622.1839732540781</ele>
        <time>2021-05-07T18:08:17.982Z</time>
      </trkpt>
      <trkpt lat="40.208533" lon="-3.679257">
        <ele>622.1476329607641</ele>
        <time>2021-05-07T18:08:19.366Z</time>
      </trkpt>
      <trkpt lat="40.2085" lon="-3.67922">
        <ele>622.1021185492289</ele>
        <time>2021-05-07T18:08:20.750Z</time>
      </trkpt>
      <trkpt lat="40.208482" lon="-3.67915">
        <ele>622.0501897607023</ele>
        <time>2021-05-07T18:08:22.136Z</time>
      </trkpt>
      <trkpt lat="40.208487" lon="-3.679052">
        <ele>621.9902743492083</ele>
        <time>2021-05-07T18:08:23.523Z</time>
      </trkpt>
      <trkpt lat="40.208498" lon="-3.678997">
        <ele>621.905832181251</ele>
        <time>2021-05-07T18:08:24.911Z</time>
      </trkpt>
      <trkpt lat="40.208528" lon="-3.678878">
        <ele>621.8126369503382</ele>
        <time>2021-05-07T18:08:26.301Z</time>
      </trkpt>
      <trkpt lat="40.208538" lon="-3.678753">
        <ele>621.6899251678129</ele>
        <time>2021-05-07T18:08:27.693Z</time>
      </trkpt>
      <trkpt lat="40.20854" lon="-3.678625">
        <ele>621.5323370336196</ele>
        <time>2021-05-07T18:08:29.087Z</time>
      </trkpt>
      <trkpt lat="40.20854" lon="-3.678555">
        <ele>621.3427790192613</ele>
        <time>2021-05-07T18:08:30.482Z</time>
      </trkpt>
      <trkpt lat="40.208535" lon="-3.67841">
        <ele>621.0954533464956</ele>
        <time>2021-05-07T18:08:31.879Z</time>
      </trkpt>
      <trkpt lat="40.208522" lon="-3.678255">
        <ele>620.8098423494871</ele>
        <time>2021-05-07T18:08:33.278Z</time>
      </trkpt>
      <trkpt lat="40.208507" lon="-3.678095">
        <ele>620.4981907565361</ele>
        <time>2021-05-07T18:08:34.680Z</time>
      </trkpt>
      <trkpt lat="40.20849" lon="-3.677932">
        <ele>620.1678032877496</ele>
        <time>2021-05-07T18:08:36.084Z</time>
      </trkpt>
      <trkpt lat="40.208488" lon="-3.677847">
        <ele>619.841925576337</ele>
        <time>2021-05-07T18:08:37.490Z</time>
      </trkpt>
      <trkpt lat="40.208477" lon="-3.677672">
        <ele>619.4770711956141</ele>
        <time>2021-05-07T18:08:38.898Z</time>
      </trkpt>
      <trkpt lat="40.208473" lon="-3.677578">
        <ele>619.088297040504</ele>
        <time>2021-05-07T18:08:40.308Z</time>
      </trkpt>
      <trkpt lat="40.208458" lon="-3.677393">
        <ele>618.6437805610249</ele>
        <time>2021-05-07T18:08:41.721Z</time>
      </trkpt>
      <trkpt lat="40.208443" lon="-3.677203">
        <ele>618.1945768084308</ele>
        <time>2021-05-07T18:08:43.137Z</time>
      </trkpt>
      <trkpt lat="40.208428" lon="-3.677018">
        <ele>617.8072049277499</ele>
        <time>2021-05-07T18:08:44.556Z</time>
      </trkpt>
      <trkpt lat="40.208402" lon="-3.676938">
        <ele>617.4483892036922</ele>
        <time>2021-05-07T18:08:45.976Z</time>
      </trkpt>
      <trkpt lat="40.208305" lon="-3.676828">
        <ele>617.1171100886385</ele>
        <time>2021-05-07T18:08:47.398Z</time>
      </trkpt>
      <trkpt lat="40.208247" lon="-3.676802">
        <ele>616.8030547485344</ele>
        <time>2021-05-07T18:08:48.822Z</time>
      </trkpt>
      <trkpt lat="40.208122" lon="-3.676763">
        <ele>616.5061178589305</ele>
        <time>2021-05-07T18:08:50.248Z</time>
      </trkpt>
      <trkpt lat="40.208057" lon="-3.676745">
        <ele>616.1986699396439</ele>
        <time>2021-05-07T18:08:51.676Z</time>
      </trkpt>
      <trkpt lat="40.207927" lon="-3.676712">
        <ele>615.8737543958609</ele>
        <time>2021-05-07T18:08:53.106Z</time>
      </trkpt>
      <trkpt lat="40.207792" lon="-3.676672">
        <ele>615.5523591466051</ele>
        <time>2021-05-07T18:08:54.539Z</time>
      </trkpt>
      <trkpt lat="40.207723" lon="-3.676652">
        <ele>615.2374344795176</ele>
        <time>2021-05-07T18:08:55.973Z</time>
      </trkpt>
      <trkpt lat="40.20759" lon="-3.676595">
        <ele>614.9209654585366</ele>
        <time>2021-05-07T18:08:57.410Z</time>
      </trkpt>
      <trkpt lat="40.207475" lon="-3.67648">
        <ele>614.6103869280014</ele>
        <time>2021-05-07T18:08:58.850Z</time>
      </trkpt>
      <trkpt lat="40.207397" lon="-3.676313">
        <ele>614.2496004196028</ele>
        <time>2021-05-07T18:09:00.293Z</time>
      </trkpt>
      <trkpt lat="40.207377" lon="-3.676222">
        <ele>613.9150315983009</ele>
        <time>2021-05-07T18:09:01.738Z</time>
      </trkpt>
      <trkpt lat="40.207357" lon="-3.676022">
        <ele>613.5677442391268</ele>
        <time>2021-05-07T18:09:03.186Z</time>
      </trkpt>
      <trkpt lat="40.207358" lon="-3.675813">
        <ele>613.2371903006964</ele>
        <time>2021-05-07T18:09:04.637Z</time>
      </trkpt>
      <trkpt lat="40.207353" lon="-3.675713">
        <ele>612.8967353445643</ele>
        <time>2021-05-07T18:09:06.089Z</time>
      </trkpt>
      <trkpt lat="40.20735" lon="-3.675615">
        <ele>612.5490299622218</ele>
        <time>2021-05-07T18:09:07.543Z</time>
      </trkpt>
      <trkpt lat="40.207342" lon="-3.675418">
        <ele>612.190589784107</ele>
        <time>2021-05-07T18:09:09.000Z</time>
      </trkpt>
      <trkpt lat="40.207338" lon="-3.67532">
        <ele>611.8253118255045</ele>
        <time>2021-05-07T18:09:10.458Z</time>
      </trkpt>
      <trkpt lat="40.20733" lon="-3.675125">
        <ele>611.4199793672013</ele>
        <time>2021-05-07T18:09:11.919Z</time>
      </trkpt>
      <trkpt lat="40.207323" lon="-3.67493">
        <ele>610.9636024330299</ele>
        <time>2021-05-07T18:09:13.383Z</time>
      </trkpt>
      <trkpt lat="40.20732" lon="-3.674833">
        <ele>610.5535449298183</ele>
        <time>2021-05-07T18:09:14.849Z</time>
      </trkpt>
      <trkpt lat="40.207315" lon="-3.67464">
        <ele>610.1143612610693</ele>
        <time>2021-05-07T18:09:16.318Z</time>
      </trkpt>
      <trkpt lat="40.20731" lon="-3.67445">
        <ele>609.6782022139132</ele>
        <time>2021-05-07T18:09:17.790Z</time>
      </trkpt>
      <trkpt lat="40.207302" lon="-3.674258">
        <ele>609.2309536271104</ele>
        <time>2021-05-07T18:09:19.265Z</time>
      </trkpt>
      <trkpt lat="40.207295" lon="-3.674068">
        <ele>608.8142615657091</ele>
        <time>2021-05-07T18:09:20.743Z</time>
      </trkpt>
      <trkpt lat="40.207288" lon="-3.673978">
        <ele>608.4458513510277</ele>
        <time>2021-05-07T18:09:22.222Z</time>
      </trkpt>
      <trkpt lat="40.207242" lon="-3.673818">
        <ele>608.0794387240289</ele>
        <time>2021-05-07T18:09:23.704Z</time>
      </trkpt>
      <trkpt lat="40.207125" lon="-3.673755">
        <ele>607.7398263591691</ele>
        <time>2021-05-07T18:09:25.188Z</time>
      </trkpt>
      <trkpt lat="40.207063" lon="-3.673762">
        <ele>607.4231035060313</ele>
        <time>2021-05-07T18:09:26.673Z</time>
      </trkpt>
      <trkpt lat="40.206937" lon="-3.673787">
        <ele>607.121057617117</ele>
        <time>2021-05-07T18:09:28.161Z</time>
      </trkpt>
      <trkpt lat="40.206878" lon="-3.673792">
        <ele>606.8270437335591</ele>
        <time>2021-05-07T18:09:29.650Z</time>
      </trkpt>
      <trkpt lat="40.206828" lon="-3.673795">
        <ele>606.5421982281512</ele>
        <time>2021-05-07T18:09:31.140Z</time>
      </trkpt>
      <trkpt lat="40.206748" lon="-3.673795">
        <ele>606.2647482863326</ele>
        <time>2021-05-07T18:09:32.632Z</time>
      </trkpt>
      <trkpt lat="40.206668" lon="-3.67375">
        <ele>605.9869527460025</ele>
        <time>2021-05-07T18:09:34.125Z</time>
      </trkpt>
      <trkpt lat="40.206633" lon="-3.673707">
        <ele>605.7139948604497</ele>
        <time>2021-05-07T18:09:35.619Z</time>
      </trkpt>
      <trkpt lat="40.206577" lon="-3.67359">
        <ele>605.4334722996483</ele>
        <time>2021-05-07T18:09:37.116Z</time>
      </trkpt>
      <trkpt lat="40.20655" lon="-3.673522">
        <ele>605.160575406405</ele>
        <time>2021-05-07T18:09:38.614Z</time>
      </trkpt>
      <trkpt lat="40.206477" lon="-3.673387">
        <ele>604.8511810489854</ele>
        <time>2021-05-07T18:09:40.114Z</time>
      </trkpt>
      <trkpt lat="40.206392" lon="-3.67326">
        <ele>604.591638465527</ele>
        <time>2021-05-07T18:09:41.617Z</time>
      </trkpt>
      <trkpt lat="40.20631" lon="-3.673132">
        <ele>604.3455895658617</ele>
        <time>2021-05-07T18:09:43.122Z</time>
      </trkpt>
      <trkpt lat="40.206228" lon="-3.672998">
        <ele>604.0856740327035</ele>
        <time>2021-05-07T18:09:44.630Z</time>
      </trkpt>
      <trkpt lat="40.206187" lon="-3.672932">
        <ele>603.8205838527606</ele>
        <time>2021-05-07T18:09:46.139Z</time>
      </trkpt>
      <trkpt lat="40.206108" lon="-3.672798">
        <ele>603.5358714037142</ele>
        <time>2021-05-07T18:09:47.651Z</time>
      </trkpt>
      <trkpt lat="40.206068" lon="-3.672733">
        <ele>603.245741152657</ele>
        <time>2021-05-07T18:09:49.164Z</time>
      </trkpt>
      <trkpt lat="40.205992" lon="-3.672602">
        <ele>602.9253589883097</ele>
        <time>2021-05-07T18:09:50.680Z</time>
      </trkpt>
      <trkpt lat="40.20592" lon="-3.672467">
        <ele>602.6042352452951</ele>
        <time>2021-05-07T18:09:52.198Z</time>
      </trkpt>
      <trkpt lat="40.205885" lon="-3.672397">
        <ele>602.3171957896802</ele>
        <time>2021-05-07T18:09:53.717Z</time>
      </trkpt>
      <trkpt lat="40.205845" lon="-3.672328">
        <ele>602.0372413497203</ele>
        <time>2021-05-07T18:09:55.238Z</time>
      </trkpt>
      <trkpt lat="40.20576" lon="-3.672195">
        <ele>601.7783954624133</ele>
        <time>2021-05-07T18:09:56.761Z</time>
      </trkpt>
      <trkpt lat="40.205678" lon="-3.672055">
        <ele>601.5350451351734</ele>
        <time>2021-05-07T18:09:58.287Z</time>
      </trkpt>
      <trkpt lat="40.20564" lon="-3.671985">
        <ele>601.3107032285975</ele>
        <time>2021-05-07T18:09:59.814Z</time>
      </trkpt>
      <trkpt lat="40.205548" lon="-3.671873">
        <ele>601.0971235286188</ele>
        <time>2021-05-07T18:10:01.344Z</time>
      </trkpt>
      <trkpt lat="40.205433" lon="-3.671863">
        <ele>600.9148143162372</ele>
        <time>2021-05-07T18:10:02.876Z</time>
      </trkpt>
      <trkpt lat="40.20533" lon="-3.671913">
        <ele>600.7634353218195</ele>
        <time>2021-05-07T18:10:04.410Z</time>
      </trkpt>
      <trkpt lat="40.20525" lon="-3.67198">
        <ele>600.6256548611918</ele>
        <time>2021-05-07T18:10:05.946Z</time>
      </trkpt>
      <trkpt lat="40.205202" lon="-3.671972">
        <ele>600.4800056717763</ele>
        <time>2021-05-07T18:10:07.483Z</time>
      </trkpt>
      <trkpt lat="40.205235" lon="-3.671927">
        <ele>600.3278458962852</ele>
        <time>2021-05-07T18:10:09.021Z</time>
      </trkpt>
      <trkpt lat="40.20531" lon="-3.671915">
        <ele>600.1906710259452</ele>
        <time>2021-05-07T18:10:10.561Z</time>
      </trkpt>
      <trkpt lat="40.205357" lon="-3.671905">
        <ele>600.0728622276431</ele>
        <time>2021-05-07T18:10:12.102Z</time>
      </trkpt>
      <trkpt lat="40.205427" lon="-3.671843">
        <ele>599.9592115967803</ele>
        <time>2021-05-07T18:10:13.644Z</time>
      </trkpt>
      <trkpt lat="40.205442" lon="-3.671795">
        <ele>599.8782725869232</ele>
        <time>2021-05-07T18:10:15.187Z</time>
      </trkpt>
      <trkpt lat="40.20543" lon="-3.67166">
        <ele>599.8138004010533</ele>
        <time>2021-05-07T18:10:16.732Z</time>
      </trkpt>
      <trkpt lat="40.205372" lon="-3.671542">
        <ele>599.7774148886713</ele>
        <time>2021-05-07T18:10:18.279Z</time>
      </trkpt>
      <trkpt lat="40.205288" lon="-3.671427">
        <ele>599.766540709511</ele>
        <time>2021-05-07T18:10:19.829Z</time>
      </trkpt>
      <trkpt lat="40.205203" lon="-3.671315">
        <ele>599.7788244538833</ele>
        <time>2021-05-07T18:10:21.381Z</time>
      </trkpt>
      <trkpt lat="40.205112" lon="-3.671203">
        <ele>599.8042277384916</ele>
        <time>2021-05-07T18:10:22.936Z</time>
      </trkpt>
      <trkpt lat="40.205" lon="-3.671118">
        <ele>599.857715627797</ele>
        <time>2021-05-07T18:10:24.493Z</time>
      </trkpt>
      <trkpt lat="40.204888" lon="-3.67105">
        <ele>599.9404872934301</ele>
        <time>2021-05-07T18:10:26.053Z</time>
      </trkpt>
      <trkpt lat="40.204778" lon="-3.670982">
        <ele>600.0577604644378</ele>
        <time>2021-05-07T18:10:27.615Z</time>
      </trkpt>
      <trkpt lat="40.20467" lon="-3.670915">
        <ele>600.1939912021446</ele>
        <time>2021-05-07T18:10:29.180Z</time>
      </trkpt>
      <trkpt lat="40.204562" lon="-3.670852">
        <ele>600.3523586095059</ele>
        <time>2021-05-07T18:10:30.747Z</time>
      </trkpt>
      <trkpt lat="40.204457" lon="-3.670785">
        <ele>600.5551865357024</ele>
        <time>2021-05-07T18:10:32.316Z</time>
      </trkpt>
      <trkpt lat="40.20435" lon="-3.67074">
        <ele>600.7939600641563</ele>
        <time>2021-05-07T18:10:33.888Z</time>
      </trkpt>
      <trkpt lat="40.204293" lon="-3.670742">
        <ele>601.0662652975637</ele>
        <time>2021-05-07T18:10:35.461Z</time>
      </trkpt>
      <trkpt lat="40.204185" lon="-3.670772">
        <ele>601.3816693714948</ele>
        <time>2021-05-07T18:10:37.036Z</time>
      </trkpt>
      <trkpt lat="40.204078" lon="-3.67081">
        <ele>601.7268029021052</ele>
        <time>2021-05-07T18:10:38.613Z</time>
      </trkpt>
      <trkpt lat="40.204027" lon="-3.670833">
        <ele>602.0867303431615</ele>
        <time>2021-05-07T18:10:40.191Z</time>
      </trkpt>
      <trkpt lat="40.203923" lon="-3.670875">
        <ele>602.483149401726</ele>
        <time>2021-05-07T18:10:41.771Z</time>
      </trkpt>
      <trkpt lat="40.20382" lon="-3.670917">
        <ele>602.9035965143307</ele>
        <time>2021-05-07T18:10:43.354Z</time>
      </trkpt>
      <trkpt lat="40.203717" lon="-3.67096">
        <ele>603.3512455398798</ele>
        <time>2021-05-07T18:10:44.939Z</time>
      </trkpt>
      <trkpt lat="40.203612" lon="-3.670998">
        <ele>603.8175360812197</ele>
        <time>2021-05-07T18:10:46.526Z</time>
      </trkpt>
      <trkpt lat="40.203507" lon="-3.671032">
        <ele>604.2925552599247</ele>
        <time>2021-05-07T18:10:48.115Z</time>
      </trkpt>
      <trkpt lat="40.203457" lon="-3.67105">
        <ele>605.1894297666117</ele>
        <time>2021-05-07T18:10:49.705Z</time>
      </trkpt>
      <trkpt lat="40.203405" lon="-3.67107">
        <ele>605.6474715364939</ele>
        <time>2021-05-07T18:10:51.296Z</time>
      </trkpt>
      <trkpt lat="40.203305" lon="-3.671112">
        <ele>606.1195539692624</ele>
        <time>2021-05-07T18:10:52.889Z</time>
      </trkpt>
      <trkpt lat="40.203203" lon="-3.671147">
        <ele>606.5807051229169</ele>
        <time>2021-05-07T18:10:54.484Z</time>
      </trkpt>
      <trkpt lat="40.203105" lon="-3.671177">
        <ele>607.0249321345925</ele>
        <time>2021-05-07T18:10:56.081Z</time>
      </trkpt>
      <trkpt lat="40.203007" lon="-3.671205">
        <ele>607.4502693657425</ele>
        <time>2021-05-07T18:10:57.680Z</time>
      </trkpt>
      <trkpt lat="40.202908" lon="-3.671232">
        <ele>607.8353227814274</ele>
        <time>2021-05-07T18:10:59.282Z</time>
      </trkpt>
      <trkpt lat="40.202807" lon="-3.671265">
        <ele>608.1721342355547</ele>
        <time>2021-05-07T18:11:00.886Z</time>
      </trkpt>
      <trkpt lat="40.20271" lon="-3.6713">
        <ele>608.4830553397915</ele>
        <time>2021-05-07T18:11:02.492Z</time>
      </trkpt>
      <trkpt lat="40.202612" lon="-3.67133">
        <ele>608.7759326395408</ele>
        <time>2021-05-07T18:11:04.100Z</time>
      </trkpt>
      <trkpt lat="40.202563" lon="-3.671348">
        <ele>609.0400398210595</ele>
        <time>2021-05-07T18:11:05.709Z</time>
      </trkpt>
      <trkpt lat="40.202468" lon="-3.671382">
        <ele>609.2820055317766</ele>
        <time>2021-05-07T18:11:07.320Z</time>
      </trkpt>
      <trkpt lat="40.202418" lon="-3.671398">
        <ele>609.486429007666</ele>
        <time>2021-05-07T18:11:08.932Z</time>
      </trkpt>
      <trkpt lat="40.20237" lon="-3.67142">
        <ele>609.6589016596868</ele>
        <time>2021-05-07T18:11:10.545Z</time>
      </trkpt>
      <trkpt lat="40.20227" lon="-3.671458">
        <ele>609.8096991898012</ele>
        <time>2021-05-07T18:11:12.160Z</time>
      </trkpt>
      <trkpt lat="40.202218" lon="-3.671475">
        <ele>609.92277611541</ele>
        <time>2021-05-07T18:11:13.776Z</time>
      </trkpt>
      <trkpt lat="40.202168" lon="-3.671493">
        <ele>610.0055150410426</ele>
        <time>2021-05-07T18:11:15.393Z</time>
      </trkpt>
      <trkpt lat="40.20207" lon="-3.67153">
        <ele>610.0568507541757</ele>
        <time>2021-05-07T18:11:17.012Z</time>
      </trkpt>
      <trkpt lat="40.201972" lon="-3.671562">
        <ele>610.0704289371538</ele>
        <time>2021-05-07T18:11:18.633Z</time>
      </trkpt>
      <trkpt lat="40.201923" lon="-3.671578">
        <ele>610.0605342894337</ele>
        <time>2021-05-07T18:11:20.255Z</time>
      </trkpt>
      <trkpt lat="40.201825" lon="-3.671612">
        <ele>610.024250438335</ele>
        <time>2021-05-07T18:11:21.879Z</time>
      </trkpt>
      <trkpt lat="40.201732" lon="-3.67165">
        <ele>609.9658173444602</ele>
        <time>2021-05-07T18:11:23.505Z</time>
      </trkpt>
      <trkpt lat="40.201635" lon="-3.67169">
        <ele>609.8879376668579</ele>
        <time>2021-05-07T18:11:25.133Z</time>
      </trkpt>
      <trkpt lat="40.201588" lon="-3.671708">
        <ele>609.7966115911647</ele>
        <time>2021-05-07T18:11:26.762Z</time>
      </trkpt>
      <trkpt lat="40.201493" lon="-3.671738">
        <ele>609.6895379681891</ele>
        <time>2021-05-07T18:11:28.393Z</time>
      </trkpt>
      <trkpt lat="40.201398" lon="-3.671773">
        <ele>609.5703987315637</ele>
        <time>2021-05-07T18:11:30.026Z</time>
      </trkpt>
      <trkpt lat="40.20135" lon="-3.67179">
        <ele>609.4452354428267</ele>
        <time>2021-05-07T18:11:31.660Z</time>
      </trkpt>
      <trkpt lat="40.201257" lon="-3.671825">
        <ele>609.3077133077265</ele>
        <time>2021-05-07T18:11:33.296Z</time>
      </trkpt>
      <trkpt lat="40.201165" lon="-3.67186">
        <ele>609.157716751417</ele>
        <time>2021-05-07T18:11:34.934Z</time>
      </trkpt>
      <trkpt lat="40.201118" lon="-3.671877">
        <ele>609.0199632964182</ele>
        <time>2021-05-07T18:11:36.573Z</time>
      </trkpt>
      <trkpt lat="40.201072" lon="-3.671892">
        <ele>608.8849014300581</ele>
        <time>2021-05-07T18:11:38.213Z</time>
      </trkpt>
      <trkpt lat="40.200978" lon="-3.671918">
        <ele>608.7485613855836</ele>
        <time>2021-05-07T18:11:39.854Z</time>
      </trkpt>
      <trkpt lat="40.200887" lon="-3.671945">
        <ele>608.6199079140057</ele>
        <time>2021-05-07T18:11:41.497Z</time>
      </trkpt>
      <trkpt lat="40.200795" lon="-3.671972">
        <ele>608.5004219310802</ele>
        <time>2021-05-07T18:11:43.142Z</time>
      </trkpt>
      <trkpt lat="40.200703" lon="-3.672">
        <ele>608.3921728909193</ele>
        <time>2021-05-07T18:11:44.789Z</time>
      </trkpt>
      <trkpt lat="40.20061" lon="-3.672033">
        <ele>608.2968474355264</ele>
        <time>2021-05-07T18:11:46.438Z</time>
      </trkpt>
      <trkpt lat="40.200518" lon="-3.672072">
        <ele>608.2159837999207</ele>
        <time>2021-05-07T18:11:48.089Z</time>
      </trkpt>
      <trkpt lat="40.200475" lon="-3.672095">
        <ele>608.155663462845</ele>
        <time>2021-05-07T18:11:49.741Z</time>
      </trkpt>
      <trkpt lat="40.200393" lon="-3.672152">
        <ele>608.1194236604795</ele>
        <time>2021-05-07T18:11:51.395Z</time>
      </trkpt>
      <trkpt lat="40.200305" lon="-3.672187">
        <ele>608.1018545254676</ele>
        <time>2021-05-07T18:11:53.051Z</time>
      </trkpt>
      <trkpt lat="40.200212" lon="-3.672207">
        <ele>608.0972227547026</ele>
        <time>2021-05-07T18:11:54.709Z</time>
      </trkpt>
      <trkpt lat="40.200162" lon="-3.672215">
        <ele>608.1011105431678</ele>
        <time>2021-05-07T18:11:56.368Z</time>
      </trkpt>
      <trkpt lat="40.200058" lon="-3.672243">
        <ele>608.1213809875926</ele>
        <time>2021-05-07T18:11:58.029Z</time>
      </trkpt>
      <trkpt lat="40.199957" lon="-3.672288">
        <ele>608.1519687142631</ele>
        <time>2021-05-07T18:11:59.692Z</time>
      </trkpt>
      <trkpt lat="40.199857" lon="-3.672338">
        <ele>608.1902009385321</ele>
        <time>2021-05-07T18:12:01.357Z</time>
      </trkpt>
      <trkpt lat="40.199762" lon="-3.67239">
        <ele>608.2335069872877</ele>
        <time>2021-05-07T18:12:03.024Z</time>
      </trkpt>
      <trkpt lat="40.19967" lon="-3.672443">
        <ele>608.2798373736576</ele>
        <time>2021-05-07T18:12:04.693Z</time>
      </trkpt>
      <trkpt lat="40.199577" lon="-3.672498">
        <ele>608.3217334813403</ele>
        <time>2021-05-07T18:12:06.364Z</time>
      </trkpt>
      <trkpt lat="40.19948" lon="-3.672548">
        <ele>608.3545125226722</ele>
        <time>2021-05-07T18:12:08.037Z</time>
      </trkpt>
      <trkpt lat="40.199432" lon="-3.67257">
        <ele>608.38632433873</ele>
        <time>2021-05-07T18:12:09.711Z</time>
      </trkpt>
      <trkpt lat="40.199383" lon="-3.672592">
        <ele>608.4140377224398</ele>
        <time>2021-05-07T18:12:11.386Z</time>
      </trkpt>
      <trkpt lat="40.199285" lon="-3.672628">
        <ele>608.4337910504765</ele>
        <time>2021-05-07T18:12:13.063Z</time>
      </trkpt>
      <trkpt lat="40.199183" lon="-3.672668">
        <ele>608.4468522958546</ele>
        <time>2021-05-07T18:12:14.742Z</time>
      </trkpt>
      <trkpt lat="40.199085" lon="-3.672705">
        <ele>608.450705897561</ele>
        <time>2021-05-07T18:12:16.423Z</time>
      </trkpt>
      <trkpt lat="40.198987" lon="-3.672733">
        <ele>608.4425245956068</ele>
        <time>2021-05-07T18:12:18.106Z</time>
      </trkpt>
      <trkpt lat="40.198892" lon="-3.67277">
        <ele>608.4242370596792</ele>
        <time>2021-05-07T18:12:19.791Z</time>
      </trkpt>
      <trkpt lat="40.198845" lon="-3.672788">
        <ele>608.4003055501728</ele>
        <time>2021-05-07T18:12:21.477Z</time>
      </trkpt>
      <trkpt lat="40.198798" lon="-3.672802">
        <ele>608.365369343182</ele>
        <time>2021-05-07T18:12:23.164Z</time>
      </trkpt>
      <trkpt lat="40.198712" lon="-3.672827">
        <ele>608.3352695702882</ele>
        <time>2021-05-07T18:12:24.853Z</time>
      </trkpt>
      <trkpt lat="40.198632" lon="-3.672843">
        <ele>608.2953249880729</ele>
        <time>2021-05-07T18:12:26.544Z</time>
      </trkpt>
      <trkpt lat="40.198553" lon="-3.67285">
        <ele>608.2367065579961</ele>
        <time>2021-05-07T18:12:28.236Z</time>
      </trkpt>
      <trkpt lat="40.198493" lon="-3.672792">
        <ele>608.1604861680761</ele>
        <time>2021-05-07T18:12:29.930Z</time>
      </trkpt>
      <trkpt lat="40.198458" lon="-3.672683">
        <ele>608.06373126345</ele>
        <time>2021-05-07T18:12:31.626Z</time>
      </trkpt>
      <trkpt lat="40.198447" lon="-3.672623">
        <ele>607.9414600539383</ele>
        <time>2021-05-07T18:12:33.322Z</time>
      </trkpt>
      <trkpt lat="40.198435" lon="-3.672562">
        <ele>607.8047141691966</ele>
        <time>2021-05-07T18:12:35.019Z</time>
      </trkpt>
      <trkpt lat="40.198413" lon="-3.672438">
        <ele>607.6469587716516</ele>
        <time>2021-05-07T18:12:36.718Z</time>
      </trkpt>
      <trkpt lat="40.198393" lon="-3.672312">
        <ele>607.4768383162093</ele>
        <time>2021-05-07T18:12:38.419Z</time>
      </trkpt>
      <trkpt lat="40.198368" lon="-3.672185">
        <ele>607.3040584970738</ele>
        <time>2021-05-07T18:12:40.122Z</time>
      </trkpt>
      <trkpt lat="40.198355" lon="-3.672122">
        <ele>607.1299306556912</ele>
        <time>2021-05-07T18:12:41.826Z</time>
      </trkpt>
      <trkpt lat="40.198343" lon="-3.672057">
        <ele>606.9500732801253</ele>
        <time>2021-05-07T18:12:43.531Z</time>
      </trkpt>
      <trkpt lat="40.198317" lon="-3.671928">
        <ele>606.765876115888</ele>
        <time>2021-05-07T18:12:45.238Z</time>
      </trkpt>
      <trkpt lat="40.198295" lon="-3.671802">
        <ele>606.5769485136849</ele>
        <time>2021-05-07T18:12:46.947Z</time>
      </trkpt>
      <trkpt lat="40.198277" lon="-3.671675">
        <ele>606.3857149535431</ele>
        <time>2021-05-07T18:12:48.658Z</time>
      </trkpt>
      <trkpt lat="40.198258" lon="-3.671547">
        <ele>606.1998913495167</ele>
        <time>2021-05-07T18:12:50.371Z</time>
      </trkpt>
      <trkpt lat="40.198232" lon="-3.671423">
        <ele>605.9858721003243</ele>
        <time>2021-05-07T18:12:52.086Z</time>
      </trkpt>
      <trkpt lat="40.198215" lon="-3.671295">
        <ele>605.7864491995167</ele>
        <time>2021-05-07T18:12:53.803Z</time>
      </trkpt>
      <trkpt lat="40.198193" lon="-3.67117">
        <ele>605.6081265223547</ele>
        <time>2021-05-07T18:12:55.522Z</time>
      </trkpt>
      <trkpt lat="40.198195" lon="-3.671038">
        <ele>605.4527154777918</ele>
        <time>2021-05-07T18:12:57.243Z</time>
      </trkpt>
      <trkpt lat="40.198233" lon="-3.670913">
        <ele>605.3717490361852</ele>
        <time>2021-05-07T18:12:58.966Z</time>
      </trkpt>
      <trkpt lat="40.198308" lon="-3.670827">
        <ele>605.3289989577553</ele>
        <time>2021-05-07T18:13:00.691Z</time>
      </trkpt>
      <trkpt lat="40.198413" lon="-3.670777">
        <ele>605.3204920579401</ele>
        <time>2021-05-07T18:13:02.419Z</time>
      </trkpt>
      <trkpt lat="40.198525" lon="-3.670735">
        <ele>605.3418238192764</ele>
        <time>2021-05-07T18:13:04.149Z</time>
      </trkpt>
      <trkpt lat="40.198583" lon="-3.670713">
        <ele>605.387697398613</ele>
        <time>2021-05-07T18:13:05.880Z</time>
      </trkpt>
      <trkpt lat="40.198702" lon="-3.670672">
        <ele>605.4608818099875</ele>
        <time>2021-05-07T18:13:07.614Z</time>
      </trkpt>
      <trkpt lat="40.198765" lon="-3.670647">
        <ele>605.5517887244123</ele>
        <time>2021-05-07T18:13:09.349Z</time>
      </trkpt>
      <trkpt lat="40.19889" lon="-3.670605">
        <ele>605.685004624477</ele>
        <time>2021-05-07T18:13:11.087Z</time>
      </trkpt>
      <trkpt lat="40.199015" lon="-3.670563">
        <ele>605.8325128486013</ele>
        <time>2021-05-07T18:13:12.827Z</time>
      </trkpt>
      <trkpt lat="40.199078" lon="-3.670543">
        <ele>605.9676229411011</ele>
        <time>2021-05-07T18:13:14.568Z</time>
      </trkpt>
      <trkpt lat="40.199145" lon="-3.670522">
        <ele>606.1010113055064</ele>
        <time>2021-05-07T18:13:16.311Z</time>
      </trkpt>
      <trkpt lat="40.199275" lon="-3.670478">
        <ele>606.2411066308865</ele>
        <time>2021-05-07T18:13:18.056Z</time>
      </trkpt>
      <trkpt lat="40.199403" lon="-3.670428">
        <ele>606.3602222379182</ele>
        <time>2021-05-07T18:13:19.804Z</time>
      </trkpt>
      <trkpt lat="40.199532" lon="-3.670387">
        <ele>606.4460721584542</ele>
        <time>2021-05-07T18:13:21.555Z</time>
      </trkpt>
      <trkpt lat="40.199662" lon="-3.670353">
        <ele>606.4938863294777</ele>
        <time>2021-05-07T18:13:23.308Z</time>
      </trkpt>
      <trkpt lat="40.19979" lon="-3.670312">
        <ele>606.4925784220565</ele>
        <time>2021-05-07T18:13:25.064Z</time>
      </trkpt>
      <trkpt lat="40.199892" lon="-3.670213">
        <ele>606.4525935432588</ele>
        <time>2021-05-07T18:13:26.823Z</time>
      </trkpt>
      <trkpt lat="40.199908" lon="-3.670138">
        <ele>606.3551318303009</ele>
        <time>2021-05-07T18:13:28.583Z</time>
      </trkpt>
      <trkpt lat="40.199893" lon="-3.669977">
        <ele>606.1973604357922</ele>
        <time>2021-05-07T18:13:30.345Z</time>
      </trkpt>
      <trkpt lat="40.199852" lon="-3.669817">
        <ele>605.9956481316864</ele>
        <time>2021-05-07T18:13:32.110Z</time>
      </trkpt>
      <trkpt lat="40.199833" lon="-3.669738">
        <ele>605.7402918270558</ele>
        <time>2021-05-07T18:13:33.876Z</time>
      </trkpt>
      <trkpt lat="40.1998" lon="-3.669578">
        <ele>605.4285656021765</ele>
        <time>2021-05-07T18:13:35.645Z</time>
      </trkpt>
      <trkpt lat="40.199765" lon="-3.669425">
        <ele>605.0596037863914</ele>
        <time>2021-05-07T18:13:37.416Z</time>
      </trkpt>
      <trkpt lat="40.199737" lon="-3.669267">
        <ele>604.6001722843159</ele>
        <time>2021-05-07T18:13:39.190Z</time>
      </trkpt>
      <trkpt lat="40.199703" lon="-3.669107">
        <ele>604.0763392703257</ele>
        <time>2021-05-07T18:13:40.966Z</time>
      </trkpt>
      <trkpt lat="40.199668" lon="-3.66894">
        <ele>603.5038212169907</ele>
        <time>2021-05-07T18:13:42.745Z</time>
      </trkpt>
      <trkpt lat="40.199647" lon="-3.668857">
        <ele>602.9103441768156</ele>
        <time>2021-05-07T18:13:44.525Z</time>
      </trkpt>
      <trkpt lat="40.199623" lon="-3.668772">
        <ele>602.2798413099092</ele>
        <time>2021-05-07T18:13:46.307Z</time>
      </trkpt>
      <trkpt lat="40.199567" lon="-3.668603">
        <ele>601.5678407901022</ele>
        <time>2021-05-07T18:13:48.091Z</time>
      </trkpt>
      <trkpt lat="40.199482" lon="-3.668447">
        <ele>600.8185166534687</ele>
        <time>2021-05-07T18:13:49.878Z</time>
      </trkpt>
      <trkpt lat="40.19935" lon="-3.668368">
        <ele>600.0570369346449</ele>
        <time>2021-05-07T18:13:51.668Z</time>
      </trkpt>
      <trkpt lat="40.199213" lon="-3.66832">
        <ele>599.3064643143899</ele>
        <time>2021-05-07T18:13:53.461Z</time>
      </trkpt>
      <trkpt lat="40.199157" lon="-3.668265">
        <ele>598.5976395677542</ele>
        <time>2021-05-07T18:13:55.255Z</time>
      </trkpt>
      <trkpt lat="40.199065" lon="-3.668127">
        <ele>597.8822232192979</ele>
        <time>2021-05-07T18:13:57.052Z</time>
      </trkpt>
      <trkpt lat="40.198955" lon="-3.668027">
        <ele>597.2233675698644</ele>
        <time>2021-05-07T18:13:58.852Z</time>
      </trkpt>
      <trkpt lat="40.198897" lon="-3.667985">
        <ele>596.6244618141774</ele>
        <time>2021-05-07T18:14:00.653Z</time>
      </trkpt>
      <trkpt lat="40.198837" lon="-3.667942">
        <ele>596.0677840357794</ele>
        <time>2021-05-07T18:14:02.456Z</time>
      </trkpt>
      <trkpt lat="40.19871" lon="-3.667857">
        <ele>595.5572942749917</ele>
        <time>2021-05-07T18:14:04.261Z</time>
      </trkpt>
      <trkpt lat="40.198648" lon="-3.66781">
        <ele>595.1177060890616</ele>
        <time>2021-05-07T18:14:06.068Z</time>
      </trkpt>
      <trkpt lat="40.198525" lon="-3.667717">
        <ele>594.7153153871617</ele>
        <time>2021-05-07T18:14:07.878Z</time>
      </trkpt>
      <trkpt lat="40.198407" lon="-3.667627">
        <ele>594.3831521413579</ele>
        <time>2021-05-07T18:14:09.691Z</time>
      </trkpt>
      <trkpt lat="40.198292" lon="-3.667543">
        <ele>594.1165640311342</ele>
        <time>2021-05-07T18:14:11.506Z</time>
      </trkpt>
      <trkpt lat="40.198175" lon="-3.66747">
        <ele>593.9135706778588</ele>
        <time>2021-05-07T18:14:13.324Z</time>
      </trkpt>
      <trkpt lat="40.19806" lon="-3.667397">
        <ele>593.7721620370203</ele>
        <time>2021-05-07T18:14:15.144Z</time>
      </trkpt>
      <trkpt lat="40.198003" lon="-3.667365">
        <ele>593.696819027651</ele>
        <time>2021-05-07T18:14:16.966Z</time>
      </trkpt>
      <trkpt lat="40.197947" lon="-3.667337">
        <ele>593.6803679099988</ele>
        <time>2021-05-07T18:14:18.789Z</time>
      </trkpt>
      <trkpt lat="40.197832" lon="-3.667285">
        <ele>593.7388610396295</ele>
        <time>2021-05-07T18:14:20.614Z</time>
      </trkpt>
      <trkpt lat="40.197718" lon="-3.667247">
        <ele>593.8486876001277</ele>
        <time>2021-05-07T18:14:22.442Z</time>
      </trkpt>
      <trkpt lat="40.197605" lon="-3.667225">
        <ele>594.0046344237164</ele>
        <time>2021-05-07T18:14:24.272Z</time>
      </trkpt>
      <trkpt lat="40.197497" lon="-3.667205">
        <ele>594.1898605816756</ele>
        <time>2021-05-07T18:14:26.104Z</time>
      </trkpt>
      <trkpt lat="40.197382" lon="-3.667192">
        <ele>594.4075393866009</ele>
        <time>2021-05-07T18:14:27.938Z</time>
      </trkpt>
      <trkpt lat="40.197263" lon="-3.667192">
        <ele>594.6530113374465</ele>
        <time>2021-05-07T18:14:29.775Z</time>
      </trkpt>
      <trkpt lat="40.197143" lon="-3.667187">
        <ele>594.9146737938859</ele>
        <time>2021-05-07T18:14:31.614Z</time>
      </trkpt>
      <trkpt lat="40.197018" lon="-3.667178">
        <ele>595.1929480030132</ele>
        <time>2021-05-07T18:14:33.456Z</time>
      </trkpt>
      <trkpt lat="40.196957" lon="-3.667175">
        <ele>595.4626598527198</ele>
        <time>2021-05-07T18:14:35.299Z</time>
      </trkpt>
      <trkpt lat="40.196895" lon="-3.66717">
        <ele>595.72679612169</ele>
        <time>2021-05-07T18:14:37.143Z</time>
      </trkpt>
      <trkpt lat="40.196773" lon="-3.667168">
        <ele>595.9893130161221</ele>
        <time>2021-05-07T18:14:38.989Z</time>
      </trkpt>
      <trkpt lat="40.196645" lon="-3.667158">
        <ele>596.2242471336381</ele>
        <time>2021-05-07T18:14:40.838Z</time>
      </trkpt>
      <trkpt lat="40.196522" lon="-3.667128">
        <ele>596.426184637291</ele>
        <time>2021-05-07T18:14:42.690Z</time>
      </trkpt>
      <trkpt lat="40.19641" lon="-3.66708">
        <ele>596.5886994901232</ele>
        <time>2021-05-07T18:14:44.544Z</time>
      </trkpt>
      <trkpt lat="40.196297" lon="-3.667052">
        <ele>596.718955519133</ele>
        <time>2021-05-07T18:14:46.400Z</time>
      </trkpt>
      <trkpt lat="40.19624" lon="-3.667055">
        <ele>596.8130922802477</ele>
        <time>2021-05-07T18:14:48.257Z</time>
      </trkpt>
      <trkpt lat="40.196183" lon="-3.667058">
        <ele>596.8616070040216</ele>
        <time>2021-05-07T18:14:50.115Z</time>
      </trkpt>
      <trkpt lat="40.196083" lon="-3.66702">
        <ele>596.8505692218912</ele>
        <time>2021-05-07T18:14:51.976Z</time>
      </trkpt>
      <trkpt lat="40.19604" lon="-3.666978">
        <ele>596.7582757344626</ele>
        <time>2021-05-07T18:14:53.838Z</time>
      </trkpt>
      <trkpt lat="40.195975" lon="-3.666847">
        <ele>596.5712114093085</ele>
        <time>2021-05-07T18:14:55.702Z</time>
      </trkpt>
      <trkpt lat="40.195945" lon="-3.666775">
        <ele>596.3729052673416</ele>
        <time>2021-05-07T18:14:57.567Z</time>
      </trkpt>
      <trkpt lat="40.195908" lon="-3.666712">
        <ele>596.1220238525339</ele>
        <time>2021-05-07T18:14:59.433Z</time>
      </trkpt>
      <trkpt lat="40.195803" lon="-3.666617">
        <ele>595.8149588430078</ele>
        <time>2021-05-07T18:15:01.302Z</time>
      </trkpt>
      <trkpt lat="40.195677" lon="-3.666527">
        <ele>595.450257827079</ele>
        <time>2021-05-07T18:15:03.174Z</time>
      </trkpt>
      <trkpt lat="40.195607" lon="-3.666475">
        <ele>595.0383265472369</ele>
        <time>2021-05-07T18:15:05.048Z</time>
      </trkpt>
      <trkpt lat="40.195457" lon="-3.666365">
        <ele>594.5624439863933</ele>
        <time>2021-05-07T18:15:06.925Z</time>
      </trkpt>
      <trkpt lat="40.195305" lon="-3.666243">
        <ele>593.9982217312096</ele>
        <time>2021-05-07T18:15:08.806Z</time>
      </trkpt>
      <trkpt lat="40.195148" lon="-3.666125">
        <ele>593.4081425854752</ele>
        <time>2021-05-07T18:15:10.690Z</time>
      </trkpt>
      <trkpt lat="40.194997" lon="-3.66603">
        <ele>592.7968222093244</ele>
        <time>2021-05-07T18:15:12.577Z</time>
      </trkpt>
      <trkpt lat="40.194848" lon="-3.666018">
        <ele>592.1765454673985</ele>
        <time>2021-05-07T18:15:14.467Z</time>
      </trkpt>
      <trkpt lat="40.194707" lon="-3.666008">
        <ele>591.5361522231137</ele>
        <time>2021-05-07T18:15:16.360Z</time>
      </trkpt>
      <trkpt lat="40.194615" lon="-3.665898">
        <ele>590.8857583515125</ele>
        <time>2021-05-07T18:15:18.256Z</time>
      </trkpt>
      <trkpt lat="40.194572" lon="-3.665738">
        <ele>590.2207786290548</ele>
        <time>2021-05-07T18:15:20.154Z</time>
      </trkpt>
      <trkpt lat="40.194548" lon="-3.665667">
        <ele>589.5607567738894</ele>
        <time>2021-05-07T18:15:22.054Z</time>
      </trkpt>
      <trkpt lat="40.19446" lon="-3.665575">
        <ele>588.8721066350528</ele>
        <time>2021-05-07T18:15:23.956Z</time>
      </trkpt>
      <trkpt lat="40.194408" lon="-3.66554">
        <ele>588.20088566047</ele>
        <time>2021-05-07T18:15:25.859Z</time>
      </trkpt>
      <trkpt lat="40.194305" lon="-3.665467">
        <ele>587.51039432213</ele>
        <time>2021-05-07T18:15:27.764Z</time>
      </trkpt>
      <trkpt lat="40.194253" lon="-3.665428">
        <ele>586.8457748400613</ele>
        <time>2021-05-07T18:15:29.671Z</time>
      </trkpt>
      <trkpt lat="40.194202" lon="-3.665392">
        <ele>586.1949413330162</ele>
        <time>2021-05-07T18:15:31.579Z</time>
      </trkpt>
      <trkpt lat="40.194103" lon="-3.665323">
        <ele>585.5354231554687</ele>
        <time>2021-05-07T18:15:33.489Z</time>
      </trkpt>
      <trkpt lat="40.194013" lon="-3.665248">
        <ele>584.8997895903194</ele>
        <time>2021-05-07T18:15:35.401Z</time>
      </trkpt>
      <trkpt lat="40.193963" lon="-3.665213">
        <ele>584.3118217172728</ele>
        <time>2021-05-07T18:15:37.314Z</time>
      </trkpt>
      <trkpt lat="40.19387" lon="-3.665127">
        <ele>583.7256715204239</ele>
        <time>2021-05-07T18:15:39.230Z</time>
      </trkpt>
      <trkpt lat="40.193763" lon="-3.665042">
        <ele>583.2041483977512</ele>
        <time>2021-05-07T18:15:41.148Z</time>
      </trkpt>
      <trkpt lat="40.193652" lon="-3.664965">
        <ele>582.7316554649167</ele>
        <time>2021-05-07T18:15:43.069Z</time>
      </trkpt>
      <trkpt lat="40.193597" lon="-3.664932">
        <ele>582.2941601405313</ele>
        <time>2021-05-07T18:15:44.991Z</time>
      </trkpt>
      <trkpt lat="40.193483" lon="-3.664885">
        <ele>581.8885079794954</ele>
        <time>2021-05-07T18:15:46.915Z</time>
      </trkpt>
      <trkpt lat="40.193365" lon="-3.664862">
        <ele>581.5166615704702</ele>
        <time>2021-05-07T18:15:48.842Z</time>
      </trkpt>
      <trkpt lat="40.193237" lon="-3.664857">
        <ele>581.1722238579143</ele>
        <time>2021-05-07T18:15:50.771Z</time>
      </trkpt>
      <trkpt lat="40.193098" lon="-3.664882">
        <ele>580.8525424132099</ele>
        <time>2021-05-07T18:15:52.703Z</time>
      </trkpt>
      <trkpt lat="40.192965" lon="-3.664913">
        <ele>580.5724524454097</ele>
        <time>2021-05-07T18:15:54.638Z</time>
      </trkpt>
      <trkpt lat="40.192833" lon="-3.66494">
        <ele>580.3391208056863</ele>
        <time>2021-05-07T18:15:56.575Z</time>
      </trkpt>
      <trkpt lat="40.192768" lon="-3.66495">
        <ele>580.1541226540124</ele>
        <time>2021-05-07T18:15:58.514Z</time>
      </trkpt>
      <trkpt lat="40.192642" lon="-3.664968">
        <ele>579.999629356978</ele>
        <time>2021-05-07T18:16:00.455Z</time>
      </trkpt>
      <trkpt lat="40.192522" lon="-3.66498">
        <ele>579.8841108059759</ele>
        <time>2021-05-07T18:16:02.398Z</time>
      </trkpt>
      <trkpt lat="40.192398" lon="-3.664995">
        <ele>579.8063838028129</ele>
        <time>2021-05-07T18:16:04.344Z</time>
      </trkpt>
      <trkpt lat="40.192277" lon="-3.665012">
        <ele>579.7710689657765</ele>
        <time>2021-05-07T18:16:06.292Z</time>
      </trkpt>
      <trkpt lat="40.192218" lon="-3.66502">
        <ele>579.7870576954717</ele>
        <time>2021-05-07T18:16:08.242Z</time>
      </trkpt>
      <trkpt lat="40.192112" lon="-3.665033">
        <ele>579.8409411609586</ele>
        <time>2021-05-07T18:16:10.194Z</time>
      </trkpt>
      <trkpt lat="40.192023" lon="-3.665037">
        <ele>579.9398094074627</ele>
        <time>2021-05-07T18:16:12.148Z</time>
      </trkpt>
      <trkpt lat="40.191962" lon="-3.665032">
        <ele>580.0640213763886</ele>
        <time>2021-05-07T18:16:14.103Z</time>
      </trkpt>
      <trkpt lat="40.191902" lon="-3.664983">
        <ele>580.2217672382378</ele>
        <time>2021-05-07T18:16:16.059Z</time>
      </trkpt>
      <trkpt lat="40.191842" lon="-3.664943">
        <ele>580.4027577436689</ele>
        <time>2021-05-07T18:16:18.016Z</time>
      </trkpt>
      <trkpt lat="40.191758" lon="-3.664967">
        <ele>580.6013718242417</ele>
        <time>2021-05-07T18:16:19.975Z</time>
      </trkpt>
      <trkpt lat="40.191678" lon="-3.665042">
        <ele>580.8106678212881</ele>
        <time>2021-05-07T18:16:21.936Z</time>
      </trkpt>
      <trkpt lat="40.191595" lon="-3.665122">
        <ele>581.036236411443</ele>
        <time>2021-05-07T18:16:23.899Z</time>
      </trkpt>
      <trkpt lat="40.191548" lon="-3.665153">
        <ele>581.2749968683104</ele>
        <time>2021-05-07T18:16:25.863Z</time>
      </trkpt>
      <trkpt lat="40.19145" lon="-3.665197">
        <ele>581.5349929214175</ele>
        <time>2021-05-07T18:16:27.829Z</time>
      </trkpt>
      <trkpt lat="40.191398" lon="-3.665213">
        <ele>581.8001476622546</ele>
        <time>2021-05-07T18:16:29.796Z</time>
      </trkpt>
      <trkpt lat="40.191295" lon="-3.665238">
        <ele>582.0833734033347</ele>
        <time>2021-05-07T18:16:31.766Z</time>
      </trkpt>
      <trkpt lat="40.191193" lon="-3.665263">
        <ele>582.3584238856051</ele>
        <time>2021-05-07T18:16:33.738Z</time>
      </trkpt>
      <trkpt lat="40.191097" lon="-3.665305">
        <ele>582.6342443919473</ele>
        <time>2021-05-07T18:16:35.712Z</time>
      </trkpt>
      <trkpt lat="40.191007" lon="-3.665368">
        <ele>582.9110874777191</ele>
        <time>2021-05-07T18:16:37.688Z</time>
      </trkpt>
      <trkpt lat="40.190963" lon="-3.665407">
        <ele>583.184645658029</ele>
        <time>2021-05-07T18:16:39.665Z</time>
      </trkpt>
      <trkpt lat="40.190873" lon="-3.66548">
        <ele>583.4602765382308</ele>
        <time>2021-05-07T18:16:41.644Z</time>
      </trkpt>
      <trkpt lat="40.190828" lon="-3.665515">
        <ele>583.73020831236</ele>
        <time>2021-05-07T18:16:43.624Z</time>
      </trkpt>
      <trkpt lat="40.190742" lon="-3.665588">
        <ele>583.9994816137453</ele>
        <time>2021-05-07T18:16:45.606Z</time>
      </trkpt>
      <trkpt lat="40.190657" lon="-3.665665">
        <ele>584.2638931536226</ele>
        <time>2021-05-07T18:16:47.590Z</time>
      </trkpt>
      <trkpt lat="40.19057" lon="-3.665737">
        <ele>584.522428571076</ele>
        <time>2021-05-07T18:16:49.576Z</time>
      </trkpt>
      <trkpt lat="40.190487" lon="-3.665805">
        <ele>585.0097136077479</ele>
        <time>2021-05-07T18:16:51.564Z</time>
      </trkpt>
      <trkpt lat="40.190402" lon="-3.665867">
        <ele>585.2588053093302</ele>
        <time>2021-05-07T18:16:53.554Z</time>
      </trkpt>
      <trkpt lat="40.190318" lon="-3.66592">
        <ele>585.5090900981368</ele>
        <time>2021-05-07T18:16:55.546Z</time>
      </trkpt>
      <trkpt lat="40.190273" lon="-3.665935">
        <ele>585.728098539488</ele>
        <time>2021-05-07T18:16:57.539Z</time>
      </trkpt>
      <trkpt lat="40.190192" lon="-3.665932">
        <ele>585.9461699994445</ele>
        <time>2021-05-07T18:16:59.533Z</time>
      </trkpt>
      <trkpt lat="40.190142" lon="-3.665902">
        <ele>586.1322428433938</ele>
        <time>2021-05-07T18:17:01.528Z</time>
      </trkpt>
      <trkpt lat="40.190123" lon="-3.665893">
        <ele>586.2845873576894</ele>
        <time>2021-05-07T18:17:03.524Z</time>
      </trkpt>
      <trkpt lat="40.190088" lon="-3.665907">
        <ele>586.4222777410457</ele>
        <time>2021-05-07T18:17:05.521Z</time>
      </trkpt>
      <trkpt lat="40.19006" lon="-3.665923">
        <ele>586.534393491125</ele>
        <time>2021-05-07T18:17:07.518Z</time>
      </trkpt>
      <trkpt lat="40.190047" lon="-3.665955">
        <ele>586.6169016172609</ele>
        <time>2021-05-07T18:17:09.516Z</time>
      </trkpt>
      <trkpt lat="40.190032" lon="-3.666022">
        <ele>586.6770585615518</ele>
        <time>2021-05-07T18:17:11.515Z</time>
      </trkpt>
      <trkpt lat="40.190003" lon="-3.66611">
        <ele>586.6964875016417</ele>
        <time>2021-05-07T18:17:13.515Z</time>
      </trkpt>
      <trkpt lat="40.189988" lon="-3.666158">
        <ele>586.6980301540369</ele>
        <time>2021-05-07T18:17:15.516Z</time>
      </trkpt>
      <trkpt lat="40.189975" lon="-3.666205">
        <ele>586.678382267251</ele>
        <time>2021-05-07T18:17:17.518Z</time>
      </trkpt>
      <trkpt lat="40.18995" lon="-3.666302">
        <ele>586.6304869661769</ele>
        <time>2021-05-07T18:17:19.521Z</time>
      </trkpt>
      <trkpt lat="40.189928" lon="-3.666393">
        <ele>586.5659362127301</ele>
        <time>2021-05-07T18:17:21.526Z</time>
      </trkpt>
      <trkpt lat="40.189908" lon="-3.666482">
        <ele>586.4860789463974</ele>
        <time>2021-05-07T18:17:23.532Z</time>
      </trkpt>
      <trkpt lat="40.189895" lon="-3.666568">
        <ele>586.3911614800104</ele>
        <time>2021-05-07T18:17:25.540Z</time>
      </trkpt>
      <trkpt lat="40.189877" lon="-3.666643">
        <ele>586.3066672352446</ele>
        <time>2021-05-07T18:17:27.549Z</time>
      </trkpt>
      <trkpt lat="40.189875" lon="-3.666667">
        <ele>586.2127407705852</ele>
        <time>2021-05-07T18:17:29.558Z</time>
      </trkpt>
      <trkpt lat="40.189872" lon="-3.66668">
        <ele>586.1103763400728</ele>
        <time>2021-05-07T18:17:31.567Z</time>
      </trkpt>
      <trkpt lat="40.18987" lon="-3.666682">
        <ele>586.0007944224792</ele>
        <time>2021-05-07T18:17:33.577Z</time>
      </trkpt>
      <trkpt lat="40.189833" lon="-3.666735">
        <ele>585.8923299950534</ele>
        <time>2021-05-07T18:17:35.588Z</time>
      </trkpt>
      <trkpt lat="40.18982" lon="-3.666792">
        <ele>585.7784596071549</ele>
        <time>2021-05-07T18:17:37.600Z</time>
      </trkpt>
      <trkpt lat="40.189803" lon="-3.666872">
        <ele>585.6620002048155</ele>
        <time>2021-05-07T18:17:39.613Z</time>
      </trkpt>
      <trkpt lat="40.189778" lon="-3.666958">
        <ele>585.534039100504</ele>
        <time>2021-05-07T18:17:41.627Z</time>
      </trkpt>
      <trkpt lat="40.189768" lon="-3.667003">
        <ele>585.407457618492</ele>
        <time>2021-05-07T18:17:43.642Z</time>
      </trkpt>
      <trkpt lat="40.189743" lon="-3.66709">
        <ele>585.2797679258613</ele>
        <time>2021-05-07T18:17:45.658Z</time>
      </trkpt>
      <trkpt lat="40.189727" lon="-3.667128">
        <ele>585.1572048268956</ele>
        <time>2021-05-07T18:17:47.675Z</time>
      </trkpt>
      <trkpt lat="40.189692" lon="-3.667198">
        <ele>585.0373767958226</ele>
        <time>2021-05-07T18:17:49.693Z</time>
      </trkpt>
      <trkpt lat="40.189645" lon="-3.667258">
        <ele>584.9243034348923</ele>
        <time>2021-05-07T18:17:51.713Z</time>
      </trkpt>
      <trkpt lat="40.189583" lon="-3.667313">
        <ele>584.814756297453</ele>
        <time>2021-05-07T18:17:53.734Z</time>
      </trkpt>
      <trkpt lat="40.18952" lon="-3.667365">
        <ele>584.7094627142937</ele>
        <time>2021-05-07T18:17:55.757Z</time>
      </trkpt>
      <trkpt lat="40.189457" lon="-3.667415">
        <ele>584.6144992682141</ele>
        <time>2021-05-07T18:17:57.781Z</time>
      </trkpt>
      <trkpt lat="40.189388" lon="-3.667473">
        <ele>584.5305518329121</ele>
        <time>2021-05-07T18:17:59.807Z</time>
      </trkpt>
      <trkpt lat="40.189325" lon="-3.667523">
        <ele>584.4614629073676</ele>
        <time>2021-05-07T18:18:01.834Z</time>
      </trkpt>
      <trkpt lat="40.189262" lon="-3.667572">
        <ele>584.4080597837219</ele>
        <time>2021-05-07T18:18:03.863Z</time>
      </trkpt>
      <trkpt lat="40.189193" lon="-3.667623">
        <ele>584.3713625842137</ele>
        <time>2021-05-07T18:18:05.893Z</time>
      </trkpt>
      <trkpt lat="40.189117" lon="-3.667677">
        <ele>584.352752182827</ele>
        <time>2021-05-07T18:18:07.925Z</time>
      </trkpt>
      <trkpt lat="40.189055" lon="-3.667733">
        <ele>584.3551555606357</ele>
        <time>2021-05-07T18:18:09.958Z</time>
      </trkpt>
      <trkpt lat="40.18899" lon="-3.667785">
        <ele>584.3788422126838</ele>
        <time>2021-05-07T18:18:11.993Z</time>
      </trkpt>
      <trkpt lat="40.188932" lon="-3.667833">
        <ele>584.4252821556145</ele>
        <time>2021-05-07T18:18:14.029Z</time>
      </trkpt>
      <trkpt lat="40.188915" lon="-3.667853">
        <ele>584.499009610133</ele>
        <time>2021-05-07T18:18:16.066Z</time>
      </trkpt>
      <trkpt lat="40.188887" lon="-3.667878">
        <ele>584.5937575146656</ele>
        <time>2021-05-07T18:18:18.104Z</time>
      </trkpt>
      <trkpt lat="40.188875" lon="-3.66789">
        <ele>584.7121650667945</ele>
        <time>2021-05-07T18:18:20.142Z</time>
      </trkpt>
      <trkpt lat="40.188837" lon="-3.66792">
        <ele>584.8478513785835</ele>
        <time>2021-05-07T18:18:22.181Z</time>
      </trkpt>
      <trkpt lat="40.188783" lon="-3.667972">
        <ele>584.9996239471707</ele>
        <time>2021-05-07T18:18:24.221Z</time>
      </trkpt>
      <trkpt lat="40.188728" lon="-3.668028">
        <ele>585.2102193934174</ele>
        <time>2021-05-07T18:18:26.262Z</time>
      </trkpt>
      <trkpt lat="40.188678" lon="-3.668087">
        <ele>585.4312030781283</ele>
        <time>2021-05-07T18:18:28.305Z</time>
      </trkpt>
      <trkpt lat="40.188635" lon="-3.668157">
        <ele>585.6557004522169</ele>
        <time>2021-05-07T18:18:30.349Z</time>
      </trkpt>
      <trkpt lat="40.188588" lon="-3.668225">
        <ele>585.8884411460174</ele>
        <time>2021-05-07T18:18:32.395Z</time>
      </trkpt>
      <trkpt lat="40.188528" lon="-3.668293">
        <ele>586.1313774632966</ele>
        <time>2021-05-07T18:18:34.442Z</time>
      </trkpt>
      <trkpt lat="40.188458" lon="-3.668368">
        <ele>586.3772663973969</ele>
        <time>2021-05-07T18:18:36.491Z</time>
      </trkpt>
      <trkpt lat="40.188382" lon="-3.668443">
        <ele>586.6191455038788</ele>
        <time>2021-05-07T18:18:38.542Z</time>
      </trkpt>
      <trkpt lat="40.188298" lon="-3.66852">
        <ele>586.8539680110887</ele>
        <time>2021-05-07T18:18:40.595Z</time>
      </trkpt>
      <trkpt lat="40.188213" lon="-3.668595">
        <ele>587.0440012815436</ele>
        <time>2021-05-07T18:18:42.650Z</time>
      </trkpt>
      <trkpt lat="40.188132" lon="-3.668672">
        <ele>587.2078044382245</ele>
        <time>2021-05-07T18:18:44.707Z</time>
      </trkpt>
      <trkpt lat="40.18806" lon="-3.668767">
        <ele>587.3353992898526</ele>
        <time>2021-05-07T18:18:46.766Z</time>
      </trkpt>
      <trkpt lat="40.188003" lon="-3.668877">
        <ele>587.4236681845907</ele>
        <time>2021-05-07T18:18:48.827Z</time>
      </trkpt>
      <trkpt lat="40.187978" lon="-3.668938">
        <ele>587.4935663716897</ele>
        <time>2021-05-07T18:18:50.889Z</time>
      </trkpt>
      <trkpt lat="40.187957" lon="-3.669">
        <ele>587.5418575592164</ele>
        <time>2021-05-07T18:18:52.952Z</time>
      </trkpt>
      <trkpt lat="40.187915" lon="-3.669127">
        <ele>587.5521352300848</ele>
        <time>2021-05-07T18:18:55.017Z</time>
      </trkpt>
      <trkpt lat="40.187897" lon="-3.669192">
        <ele>587.5665606887358</ele>
        <time>2021-05-07T18:18:57.083Z</time>
      </trkpt>
      <trkpt lat="40.187877" lon="-3.669258">
        <ele>587.5733539141295</ele>
        <time>2021-05-07T18:18:59.150Z</time>
      </trkpt>
      <trkpt lat="40.187838" lon="-3.669387">
        <ele>587.5606510022981</ele>
        <time>2021-05-07T18:19:01.220Z</time>
      </trkpt>
      <trkpt lat="40.1878" lon="-3.669513">
        <ele>587.5714268473648</ele>
        <time>2021-05-07T18:19:03.292Z</time>
      </trkpt>
      <trkpt lat="40.18776" lon="-3.66964">
        <ele>587.6105555851873</ele>
        <time>2021-05-07T18:19:05.366Z</time>
      </trkpt>
      <trkpt lat="40.187743" lon="-3.669703">
        <ele>587.6495853358912</ele>
        <time>2021-05-07T18:19:07.441Z</time>
      </trkpt>
      <trkpt lat="40.18771" lon="-3.669828">
        <ele>587.7024985799137</ele>
        <time>2021-05-07T18:19:09.518Z</time>
      </trkpt>
      <trkpt lat="40.187692" lon="-3.66989">
        <ele>587.7627568249516</ele>
        <time>2021-05-07T18:19:11.596Z</time>
      </trkpt>
      <trkpt lat="40.187655" lon="-3.670015">
        <ele>587.842241583179</ele>
        <time>2021-05-07T18:19:13.676Z</time>
      </trkpt>
      <trkpt lat="40.187617" lon="-3.670137">
        <ele>587.9374520607945</ele>
        <time>2021-05-07T18:19:15.758Z</time>
      </trkpt>
      <trkpt lat="40.187578" lon="-3.670258">
        <ele>588.0497131739066</ele>
        <time>2021-05-07T18:19:17.842Z</time>
      </trkpt>
      <trkpt lat="40.187542" lon="-3.670377">
        <ele>588.1788534818393</ele>
        <time>2021-05-07T18:19:19.928Z</time>
      </trkpt>
      <trkpt lat="40.187505" lon="-3.670495">
        <ele>588.3267039042587</ele>
        <time>2021-05-07T18:19:22.016Z</time>
      </trkpt>
      <trkpt lat="40.187473" lon="-3.670613">
        <ele>588.491873355106</ele>
        <time>2021-05-07T18:19:24.106Z</time>
      </trkpt>
      <trkpt lat="40.187437" lon="-3.67073">
        <ele>588.6804948432894</ele>
        <time>2021-05-07T18:19:26.198Z</time>
      </trkpt>
      <trkpt lat="40.187403" lon="-3.670845">
        <ele>588.8951468566129</ele>
        <time>2021-05-07T18:19:28.292Z</time>
      </trkpt>
      <trkpt lat="40.187367" lon="-3.670968">
        <ele>589.1289037345589</ele>
        <time>2021-05-07T18:19:30.388Z</time>
      </trkpt>
      <trkpt lat="40.18733" lon="-3.671088">
        <ele>589.3746623011358</ele>
        <time>2021-05-07T18:19:32.486Z</time>
      </trkpt>
      <trkpt lat="40.187295" lon="-3.671208">
        <ele>589.6312634564965</ele>
        <time>2021-05-07T18:19:34.586Z</time>
      </trkpt>
      <trkpt lat="40.187277" lon="-3.67133">
        <ele>589.8997405086068</ele>
        <time>2021-05-07T18:19:36.687Z</time>
      </trkpt>
      <trkpt lat="40.187282" lon="-3.67139">
        <ele>590.1732536201223</ele>
        <time>2021-05-07T18:19:38.789Z</time>
      </trkpt>
      <trkpt lat="40.18729" lon="-3.671512">
        <ele>590.4621878958923</ele>
        <time>2021-05-07T18:19:40.893Z</time>
      </trkpt>
      <trkpt lat="40.187262" lon="-3.671623">
        <ele>590.7652334752675</ele>
        <time>2021-05-07T18:19:42.999Z</time>
      </trkpt>
      <trkpt lat="40.187207" lon="-3.671713">
        <ele>591.0784030742395</ele>
        <time>2021-05-07T18:19:45.107Z</time>
      </trkpt>
      <trkpt lat="40.187152" lon="-3.671805">
        <ele>591.397228072101</ele>
        <time>2021-05-07T18:19:47.217Z</time>
      </trkpt>
      <trkpt lat="40.187117" lon="-3.671853">
        <ele>591.7130660090829</ele>
        <time>2021-05-07T18:19:49.328Z</time>
      </trkpt>
      <trkpt lat="40.187067" lon="-3.671933">
        <ele>592.0492990819121</ele>
        <time>2021-05-07T18:19:51.440Z</time>
      </trkpt>
      <trkpt lat="40.187063" lon="-3.672008">
        <ele>592.3865733087582</ele>
        <time>2021-05-07T18:19:53.553Z</time>
      </trkpt>
      <trkpt lat="40.187068" lon="-3.67208">
        <ele>592.7172453539064</ele>
        <time>2021-05-07T18:19:55.667Z</time>
      </trkpt>
      <trkpt lat="40.187063" lon="-3.672157">
        <ele>593.040065914065</ele>
        <time>2021-05-07T18:19:57.783Z</time>
      </trkpt>
      <trkpt lat="40.187062" lon="-3.672227">
        <ele>593.3475644396822</ele>
        <time>2021-05-07T18:19:59.900Z</time>
      </trkpt>
      <trkpt lat="40.187015" lon="-3.672325">
        <ele>593.648187003361</ele>
        <time>2021-05-07T18:20:02.018Z</time>
      </trkpt>
      <trkpt lat="40.186998" lon="-3.672363">
        <ele>593.90650025199</ele>
        <time>2021-05-07T18:20:04.137Z</time>
      </trkpt>
      <trkpt lat="40.186963" lon="-3.67243">
        <ele>594.1553516867748</ele>
        <time>2021-05-07T18:20:06.257Z</time>
      </trkpt>
      <trkpt lat="40.186998" lon="-3.672568">
        <ele>594.4173362205166</ele>
        <time>2021-05-07T18:20:08.380Z</time>
      </trkpt>
      <trkpt lat="40.18696" lon="-3.672632">
        <ele>594.6177121893254</ele>
        <time>2021-05-07T18:20:10.504Z</time>
      </trkpt>
      <trkpt lat="40.18691" lon="-3.672618">
        <ele>594.7586914417404</ele>
        <time>2021-05-07T18:20:12.629Z</time>
      </trkpt>
      <trkpt lat="40.186885" lon="-3.672577">
        <ele>594.8659152001501</ele>
        <time>2021-05-07T18:20:14.755Z</time>
      </trkpt>
      <trkpt lat="40.186865" lon="-3.672547">
        <ele>594.9562095761053</ele>
        <time>2021-05-07T18:20:16.881Z</time>
      </trkpt>
      <trkpt lat="40.186848" lon="-3.67254">
        <ele>595.0369932696797</ele>
        <time>2021-05-07T18:20:19.008Z</time>
      </trkpt>
      <trkpt lat="40.186812" lon="-3.672513">
        <ele>595.0908237182678</ele>
        <time>2021-05-07T18:20:21.135Z</time>
      </trkpt>
      <trkpt lat="40.186768" lon="-3.672488">
        <ele>595.1312457882273</ele>
        <time>2021-05-07T18:20:23.263Z</time>
      </trkpt>
      <trkpt lat="40.186745" lon="-3.672483">
        <ele>595.1716278848996</ele>
        <time>2021-05-07T18:20:25.392Z</time>
      </trkpt>
      <trkpt lat="40.1867" lon="-3.672465">
        <ele>595.1980993476179</ele>
        <time>2021-05-07T18:20:27.522Z</time>
      </trkpt>
      <trkpt lat="40.18665" lon="-3.67244">
        <ele>595.2181357321185</ele>
        <time>2021-05-07T18:20:29.653Z</time>
      </trkpt>
      <trkpt lat="40.186607" lon="-3.67242">
        <ele>595.2414137045625</ele>
        <time>2021-05-07T18:20:31.785Z</time>
      </trkpt>
      <trkpt lat="40.186587" lon="-3.672417">
        <ele>595.2776723091097</ele>
        <time>2021-05-07T18:20:33.917Z</time>
      </trkpt>
      <trkpt lat="40.186587" lon="-3.672418">
        <ele>595.3240320363202</ele>
        <time>2021-05-07T18:20:36.049Z</time>
      </trkpt>
      <trkpt lat="40.186468" lon="-3.672375">
        <ele>595.4097762021081</ele>
        <time>2021-05-07T18:20:38.184Z</time>
      </trkpt>
      <trkpt lat="40.186448" lon="-3.672368">
        <ele>595.4834333241496</ele>
        <time>2021-05-07T18:20:40.319Z</time>
      </trkpt>
      <trkpt lat="40.186398" lon="-3.672362">
        <ele>595.5806927121453</ele>
        <time>2021-05-07T18:20:42.455Z</time>
      </trkpt>
      <trkpt lat="40.186367" lon="-3.672342">
        <ele>595.6851249163999</ele>
        <time>2021-05-07T18:20:44.592Z</time>
      </trkpt>
      <trkpt lat="40.186313" lon="-3.672333">
        <ele>595.8128836286169</ele>
        <time>2021-05-07T18:20:46.730Z</time>
      </trkpt>
      <trkpt lat="40.186288" lon="-3.672327">
        <ele>595.9459061937761</ele>
        <time>2021-05-07T18:20:48.868Z</time>
      </trkpt>
      <trkpt lat="40.186265" lon="-3.672317">
        <ele>596.0921639048714</ele>
        <time>2021-05-07T18:20:51.007Z</time>
      </trkpt>
      <trkpt lat="40.18622" lon="-3.672295">
        <ele>596.258934292977</ele>
        <time>2021-05-07T18:20:53.147Z</time>
      </trkpt>
      <trkpt lat="40.186168" lon="-3.672282">
        <ele>596.4440488782064</ele>
        <time>2021-05-07T18:20:55.288Z</time>
      </trkpt>
      <trkpt lat="40.186145" lon="-3.672273">
        <ele>596.6395950743829</ele>
        <time>2021-05-07T18:20:57.429Z</time>
      </trkpt>
      <trkpt lat="40.186097" lon="-3.672252">
        <ele>596.8569312092345</ele>
        <time>2021-05-07T18:20:59.571Z</time>
      </trkpt>
      <trkpt lat="40.18607" lon="-3.67224">
        <ele>597.0854805473699</ele>
        <time>2021-05-07T18:21:01.714Z</time>
      </trkpt>
      <trkpt lat="40.186017" lon="-3.672212">
        <ele>597.3345241928366</ele>
        <time>2021-05-07T18:21:03.858Z</time>
      </trkpt>
      <trkpt lat="40.18599" lon="-3.672198">
        <ele>597.5915863228695</ele>
        <time>2021-05-07T18:21:06.003Z</time>
      </trkpt>
      <trkpt lat="40.185937" lon="-3.672173">
        <ele>597.8758349557149</ele>
        <time>2021-05-07T18:21:08.149Z</time>
      </trkpt>
      <trkpt lat="40.18591" lon="-3.672158">
        <ele>598.1672380907037</ele>
        <time>2021-05-07T18:21:10.295Z</time>
      </trkpt>
      <trkpt lat="40.185862" lon="-3.672132">
        <ele>598.4801966546281</ele>
        <time>2021-05-07T18:21:12.442Z</time>
      </trkpt>
      <trkpt lat="40.18584" lon="-3.67212">
        <ele>598.7810634622726</ele>
        <time>2021-05-07T18:21:14.590Z</time>
      </trkpt>
      <trkpt lat="40.185798" lon="-3.672093">
        <ele>599.0987620028704</ele>
        <time>2021-05-07T18:21:16.739Z</time>
      </trkpt>
      <trkpt lat="40.185773" lon="-3.672083">
        <ele>599.4024279542575</ele>
        <time>2021-05-07T18:21:18.888Z</time>
      </trkpt>
      <trkpt lat="40.185748" lon="-3.672072">
        <ele>599.703028636218</ele>
        <time>2021-05-07T18:21:21.038Z</time>
      </trkpt>
      <trkpt lat="40.185698" lon="-3.672045">
        <ele>600.0146283749975</ele>
        <time>2021-05-07T18:21:23.189Z</time>
      </trkpt>
      <trkpt lat="40.185653" lon="-3.672018">
        <ele>600.31437809273</ele>
        <time>2021-05-07T18:21:25.341Z</time>
      </trkpt>
      <trkpt lat="40.185603" lon="-3.671988">
        <ele>600.6052555557594</ele>
        <time>2021-05-07T18:21:27.494Z</time>
      </trkpt>
      <trkpt lat="40.185578" lon="-3.671973">
        <ele>600.8642269389906</ele>
        <time>2021-05-07T18:21:29.648Z</time>
      </trkpt>
      <trkpt lat="40.185555" lon="-3.671958">
        <ele>601.1051150745136</ele>
        <time>2021-05-07T18:21:31.802Z</time>
      </trkpt>
      <trkpt lat="40.185507" lon="-3.67194">
        <ele>601.3406664533825</ele>
        <time>2021-05-07T18:21:33.957Z</time>
      </trkpt>
      <trkpt lat="40.18547" lon="-3.671938">
        <ele>601.5457246122426</ele>
        <time>2021-05-07T18:21:36.113Z</time>
      </trkpt>
      <trkpt lat="40.185443" lon="-3.67198">
        <ele>601.7133519024032</ele>
        <time>2021-05-07T18:21:38.270Z</time>
      </trkpt>
      <trkpt lat="40.185412" lon="-3.67204">
        <ele>601.8642516454074</ele>
        <time>2021-05-07T18:21:40.428Z</time>
      </trkpt>
      <trkpt lat="40.185377" lon="-3.672093">
        <ele>601.9996892081833</ele>
        <time>2021-05-07T18:21:42.587Z</time>
      </trkpt>
      <trkpt lat="40.185357" lon="-3.672115">
        <ele>602.1124002685485</ele>
        <time>2021-05-07T18:21:44.746Z</time>
      </trkpt>
      <trkpt lat="40.185323" lon="-3.67217">
        <ele>602.20838210173</ele>
        <time>2021-05-07T18:21:46.906Z</time>
      </trkpt>
      <trkpt lat="40.185305" lon="-3.672233">
        <ele>602.2730408562761</ele>
        <time>2021-05-07T18:21:49.068Z</time>
      </trkpt>
      <trkpt lat="40.185295" lon="-3.672298">
        <ele>602.3172166801287</ele>
        <time>2021-05-07T18:21:51.231Z</time>
      </trkpt>
      <trkpt lat="40.185283" lon="-3.672365">
        <ele>602.3521112338716</ele>
        <time>2021-05-07T18:21:53.395Z</time>
      </trkpt>
      <trkpt lat="40.185268" lon="-3.672432">
        <ele>602.3826744911361</ele>
        <time>2021-05-07T18:21:55.560Z</time>
      </trkpt>
      <trkpt lat="40.185263" lon="-3.672465">
        <ele>602.4121413575917</ele>
        <time>2021-05-07T18:21:57.725Z</time>
      </trkpt>
      <trkpt lat="40.185247" lon="-3.672532">
        <ele>602.4414103641191</ele>
        <time>2021-05-07T18:21:59.891Z</time>
      </trkpt>
      <trkpt lat="40.185237" lon="-3.672602">
        <ele>602.4698500037582</ele>
        <time>2021-05-07T18:22:02.058Z</time>
      </trkpt>
      <trkpt lat="40.185242" lon="-3.672672">
        <ele>602.4951670427188</ele>
        <time>2021-05-07T18:22:04.226Z</time>
      </trkpt>
      <trkpt lat="40.185245" lon="-3.672708">
        <ele>602.5464744385752</ele>
        <time>2021-05-07T18:22:06.395Z</time>
      </trkpt>
      <trkpt lat="40.185247" lon="-3.67278">
        <ele>602.6126764740864</ele>
        <time>2021-05-07T18:22:08.565Z</time>
      </trkpt>
      <trkpt lat="40.185232" lon="-3.67285">
        <ele>602.7114724112516</ele>
        <time>2021-05-07T18:22:10.736Z</time>
      </trkpt>
      <trkpt lat="40.185205" lon="-3.672912">
        <ele>602.8417077040276</ele>
        <time>2021-05-07T18:22:12.908Z</time>
      </trkpt>
      <trkpt lat="40.185162" lon="-3.672957">
        <ele>603.0089486516445</ele>
        <time>2021-05-07T18:22:15.081Z</time>
      </trkpt>
      <trkpt lat="40.185113" lon="-3.672992">
        <ele>603.204452317872</ele>
        <time>2021-05-07T18:22:17.256Z</time>
      </trkpt>
      <trkpt lat="40.185063" lon="-3.673017">
        <ele>603.4238320735695</ele>
        <time>2021-05-07T18:22:19.432Z</time>
      </trkpt>
      <trkpt lat="40.185017" lon="-3.673038">
        <ele>603.6613714599094</ele>
        <time>2021-05-07T18:22:21.609Z</time>
      </trkpt>
      <trkpt lat="40.184967" lon="-3.673052">
        <ele>603.9226905187057</ele>
        <time>2021-05-07T18:22:23.787Z</time>
      </trkpt>
      <trkpt lat="40.184912" lon="-3.673052">
        <ele>604.2081176471511</ele>
        <time>2021-05-07T18:22:25.966Z</time>
      </trkpt>
      <trkpt lat="40.18486" lon="-3.673065">
        <ele>604.5057748118811</ele>
        <time>2021-05-07T18:22:28.146Z</time>
      </trkpt>
      <trkpt lat="40.184825" lon="-3.673113">
        <ele>604.7999930606892</ele>
        <time>2021-05-07T18:22:30.327Z</time>
      </trkpt>
      <trkpt lat="40.184822" lon="-3.673183">
        <ele>605.0799871000213</ele>
        <time>2021-05-07T18:22:32.509Z</time>
      </trkpt>
      <trkpt lat="40.184823" lon="-3.673247">
        <ele>605.3719355542196</ele>
        <time>2021-05-07T18:22:34.692Z</time>
      </trkpt>
      <trkpt lat="40.18482" lon="-3.673307">
        <ele>605.681810136101</ele>
        <time>2021-05-07T18:22:36.876Z</time>
      </trkpt>
      <trkpt lat="40.184808" lon="-3.673332">
        <ele>606.0177891388978</ele>
        <time>2021-05-07T18:22:39.060Z</time>
      </trkpt>
      <trkpt lat="40.184785" lon="-3.673347">
        <ele>606.3771783110674</ele>
        <time>2021-05-07T18:22:41.245Z</time>
      </trkpt>
      <trkpt lat="40.184735" lon="-3.67334">
        <ele>606.7733057964449</ele>
        <time>2021-05-07T18:22:43.431Z</time>
      </trkpt>
      <trkpt lat="40.184677" lon="-3.67331">
        <ele>607.1894247661191</ele>
        <time>2021-05-07T18:22:45.618Z</time>
      </trkpt>
      <trkpt lat="40.184628" lon="-3.673287">
        <ele>607.605784652164</ele>
        <time>2021-05-07T18:22:47.806Z</time>
      </trkpt>
      <trkpt lat="40.184582" lon="-3.673265">
        <ele>608.0217110409524</ele>
        <time>2021-05-07T18:22:49.995Z</time>
      </trkpt>
      <trkpt lat="40.18456" lon="-3.673253">
        <ele>608.4240989513848</ele>
        <time>2021-05-07T18:22:52.184Z</time>
      </trkpt>
      <trkpt lat="40.184522" lon="-3.673237">
        <ele>608.8421279911471</ele>
        <time>2021-05-07T18:22:54.374Z</time>
      </trkpt>
      <trkpt lat="40.184503" lon="-3.673228">
        <ele>609.250536460805</ele>
        <time>2021-05-07T18:22:56.565Z</time>
      </trkpt>
      <trkpt lat="40.184475" lon="-3.673227">
        <ele>609.6669971389683</ele>
        <time>2021-05-07T18:22:58.756Z</time>
      </trkpt>
      <trkpt lat="40.184452" lon="-3.67321">
        <ele>610.0854530958965</ele>
        <time>2021-05-07T18:23:00.948Z</time>
      </trkpt>
      <trkpt lat="40.184438" lon="-3.673178">
        <ele>610.5029432857926</ele>
        <time>2021-05-07T18:23:03.140Z</time>
      </trkpt>
      <trkpt lat="40.184427" lon="-3.673127">
        <ele>610.9238838731602</ele>
        <time>2021-05-07T18:23:05.333Z</time>
      </trkpt>
      <trkpt lat="40.184432" lon="-3.673057">
        <ele>611.3397853465242</ele>
        <time>2021-05-07T18:23:07.527Z</time>
      </trkpt>
      <trkpt lat="40.18445" lon="-3.672985">
        <ele>611.7502950392233</ele>
        <time>2021-05-07T18:23:09.722Z</time>
      </trkpt>
      <trkpt lat="40.184467" lon="-3.672907">
        <ele>612.1652422697482</ele>
        <time>2021-05-07T18:23:11.919Z</time>
      </trkpt>
      <trkpt lat="40.184478" lon="-3.672867">
        <ele>612.5812927102129</ele>
        <time>2021-05-07T18:23:14.116Z</time>
      </trkpt>
      <trkpt lat="40.184498" lon="-3.672787">
        <ele>613.0011561133131</ele>
        <time>2021-05-07T18:23:16.315Z</time>
      </trkpt>
      <trkpt lat="40.184507" lon="-3.672743">
        <ele>613.4247355840389</ele>
        <time>2021-05-07T18:23:18.514Z</time>
      </trkpt>
      <trkpt lat="40.184508" lon="-3.672643">
        <ele>613.8615732927653</ele>
        <time>2021-05-07T18:23:20.715Z</time>
      </trkpt>
      <trkpt lat="40.18448" lon="-3.672553">
        <ele>614.3105032067324</ele>
        <time>2021-05-07T18:23:22.917Z</time>
      </trkpt>
      <trkpt lat="40.184427" lon="-3.672492">
        <ele>614.7652979481666</ele>
        <time>2021-05-07T18:23:25.121Z</time>
      </trkpt>
      <trkpt lat="40.184355" lon="-3.672453">
        <ele>615.2177160928059</ele>
        <time>2021-05-07T18:23:27.326Z</time>
      </trkpt>
      <trkpt lat="40.184275" lon="-3.672418">
        <ele>615.6569135248932</ele>
        <time>2021-05-07T18:23:29.533Z</time>
      </trkpt>
      <trkpt lat="40.1842" lon="-3.672385">
        <ele>616.0680791835427</ele>
        <time>2021-05-07T18:23:31.741Z</time>
      </trkpt>
      <trkpt lat="40.184127" lon="-3.672355">
        <ele>616.4477686234051</ele>
        <time>2021-05-07T18:23:33.951Z</time>
      </trkpt>
      <trkpt lat="40.184052" lon="-3.67232">
        <ele>616.7650132379629</ele>
        <time>2021-05-07T18:23:36.163Z</time>
      </trkpt>
      <trkpt lat="40.183972" lon="-3.672288">
        <ele>617.0447470015708</ele>
        <time>2021-05-07T18:23:38.376Z</time>
      </trkpt>
      <trkpt lat="40.183895" lon="-3.67225">
        <ele>617.2804856683717</ele>
        <time>2021-05-07T18:23:40.591Z</time>
      </trkpt>
      <trkpt lat="40.183812" lon="-3.672212">
        <ele>617.4743041345495</ele>
        <time>2021-05-07T18:23:42.808Z</time>
      </trkpt>
      <trkpt lat="40.18377" lon="-3.672193">
        <ele>617.5988549533191</ele>
        <time>2021-05-07T18:23:45.026Z</time>
      </trkpt>
      <trkpt lat="40.18373" lon="-3.672172">
        <ele>617.6550172481191</ele>
        <time>2021-05-07T18:23:47.244Z</time>
      </trkpt>
      <trkpt lat="40.183642" lon="-3.672138">
        <ele>617.6507424080093</ele>
        <time>2021-05-07T18:23:49.464Z</time>
      </trkpt>
      <trkpt lat="40.183553" lon="-3.6721">
        <ele>617.60343386297</ele>
        <time>2021-05-07T18:23:51.686Z</time>
      </trkpt>
      <trkpt lat="40.18346" lon="-3.672062">
        <ele>617.5243556128312</ele>
        <time>2021-05-07T18:23:53.910Z</time>
      </trkpt>
      <trkpt lat="40.183418" lon="-3.672038">
        <ele>617.4218145018081</ele>
        <time>2021-05-07T18:23:56.135Z</time>
      </trkpt>
      <trkpt lat="40.183327" lon="-3.671997">
        <ele>617.274244278778</ele>
        <time>2021-05-07T18:23:58.362Z</time>
      </trkpt>
      <trkpt lat="40.183238" lon="-3.671958">
        <ele>617.0983107864296</ele>
        <time>2021-05-07T18:24:00.591Z</time>
      </trkpt>
      <trkpt lat="40.183193" lon="-3.671935">
        <ele>616.9081737399936</ele>
        <time>2021-05-07T18:24:02.821Z</time>
      </trkpt>
      <trkpt lat="40.1831" lon="-3.671892">
        <ele>616.6850255774657</ele>
        <time>2021-05-07T18:24:05.053Z</time>
      </trkpt>
      <trkpt lat="40.183008" lon="-3.671852">
        <ele>616.4443901590053</ele>
        <time>2021-05-07T18:24:07.287Z</time>
      </trkpt>
      <trkpt lat="40.182907" lon="-3.671813">
        <ele>616.1980175447009</ele>
        <time>2021-05-07T18:24:09.523Z</time>
      </trkpt>
      <trkpt lat="40.182803" lon="-3.67177">
        <ele>615.9497141052444</ele>
        <time>2021-05-07T18:24:11.761Z</time>
      </trkpt>
      <trkpt lat="40.182697" lon="-3.671728">
        <ele>615.6957039167198</ele>
        <time>2021-05-07T18:24:14.001Z</time>
      </trkpt>
      <trkpt lat="40.182588" lon="-3.671683">
        <ele>615.4387780293285</ele>
        <time>2021-05-07T18:24:16.243Z</time>
      </trkpt>
      <trkpt lat="40.182475" lon="-3.671638">
        <ele>615.1819332559106</ele>
        <time>2021-05-07T18:24:18.488Z</time>
      </trkpt>
      <trkpt lat="40.182362" lon="-3.671597">
        <ele>614.9282784874199</ele>
        <time>2021-05-07T18:24:20.735Z</time>
      </trkpt>
      <trkpt lat="40.182247" lon="-3.671555">
        <ele>614.6794644598067</ele>
        <time>2021-05-07T18:24:22.985Z</time>
      </trkpt>
      <trkpt lat="40.182125" lon="-3.671512">
        <ele>614.4369545591097</ele>
        <time>2021-05-07T18:24:25.237Z</time>
      </trkpt>
      <trkpt lat="40.182065" lon="-3.671492">
        <ele>614.2124476856421</ele>
        <time>2021-05-07T18:24:27.490Z</time>
      </trkpt>
      <trkpt lat="40.181947" lon="-3.671445">
        <ele>613.995579571576</ele>
        <time>2021-05-07T18:24:29.746Z</time>
      </trkpt>
      <trkpt lat="40.181887" lon="-3.671422">
        <ele>613.7898656975933</ele>
        <time>2021-05-07T18:24:32.003Z</time>
      </trkpt>
      <trkpt lat="40.181775" lon="-3.671378">
        <ele>613.5922477621718</ele>
        <time>2021-05-07T18:24:34.262Z</time>
      </trkpt>
      <trkpt lat="40.181718" lon="-3.671353">
        <ele>613.4006627753826</ele>
        <time>2021-05-07T18:24:36.523Z</time>
      </trkpt>
      <trkpt lat="40.18161" lon="-3.671315">
        <ele>613.2126731159004</ele>
        <time>2021-05-07T18:24:38.786Z</time>
      </trkpt>
      <trkpt lat="40.181555" lon="-3.671297">
        <ele>613.0416016413286</ele>
        <time>2021-05-07T18:24:41.050Z</time>
      </trkpt>
      <trkpt lat="40.181457" lon="-3.671255">
        <ele>612.873428185006</ele>
        <time>2021-05-07T18:24:43.316Z</time>
      </trkpt>
      <trkpt lat="40.181362" lon="-3.6712">
        <ele>612.7130271983985</ele>
        <time>2021-05-07T18:24:45.584Z</time>
      </trkpt>
      <trkpt lat="40.181267" lon="-3.67115">
        <ele>612.5613314941472</ele>
        <time>2021-05-07T18:24:47.854Z</time>
      </trkpt>
      <trkpt lat="40.181162" lon="-3.671135">
        <ele>612.4172136225341</ele>
        <time>2021-05-07T18:24:50.126Z</time>
      </trkpt>
      <trkpt lat="40.181055" lon="-3.671177">
        <ele>612.2959515475563</ele>
        <time>2021-05-07T18:24:52.400Z</time>
      </trkpt>
      <trkpt lat="40.181002" lon="-3.671187">
        <ele>612.1792031013052</ele>
        <time>2021-05-07T18:24:54.676Z</time>
      </trkpt>
      <trkpt lat="40.180947" lon="-3.671195">
        <ele>612.0651340466438</ele>
        <time>2021-05-07T18:24:56.953Z</time>
      </trkpt>
      <trkpt lat="40.18084" lon="-3.671245">
        <ele>611.9517890398694</ele>
        <time>2021-05-07T18:24:59.232Z</time>
      </trkpt>
      <trkpt lat="40.180737" lon="-3.671313">
        <ele>611.8371568060129</ele>
        <time>2021-05-07T18:25:01.513Z</time>
      </trkpt>
      <trkpt lat="40.180637" lon="-3.671385">
        <ele>611.7192377468527</ele>
        <time>2021-05-07T18:25:03.797Z</time>
      </trkpt>
      <trkpt lat="40.180537" lon="-3.671455">
        <ele>611.5961139631149</ele>
        <time>2021-05-07T18:25:06.083Z</time>
      </trkpt>
      <trkpt lat="40.180433" lon="-3.671548">
        <ele>611.4640063991526</ele>
        <time>2021-05-07T18:25:08.371Z</time>
      </trkpt>
      <trkpt lat="40.18033" lon="-3.67163">
        <ele>611.3108238265202</ele>
        <time>2021-05-07T18:25:10.662Z</time>
      </trkpt>
      <trkpt lat="40.180228" lon="-3.671697">
        <ele>611.1497896293906</ele>
        <time>2021-05-07T18:25:12.955Z</time>
      </trkpt>
      <trkpt lat="40.180125" lon="-3.671765">
        <ele>610.9799598285972</ele>
        <time>2021-05-07T18:25:15.250Z</time>
      </trkpt>
      <trkpt lat="40.180023" lon="-3.671827">
        <ele>610.8012100447507</ele>
        <time>2021-05-07T18:25:17.548Z</time>
      </trkpt>
      <trkpt lat="40.179925" lon="-3.671893">
        <ele>610.6182936180073</ele>
        <time>2021-05-07T18:25:19.848Z</time>
      </trkpt>
      <trkpt lat="40.179827" lon="-3.67196">
        <ele>610.4304710106762</ele>
        <time>2021-05-07T18:25:22.150Z</time>
      </trkpt>
      <trkpt lat="40.179732" lon="-3.672027">
        <ele>610.2324557306462</ele>
        <time>2021-05-07T18:25:24.454Z</time>
      </trkpt>
      <trkpt lat="40.179642" lon="-3.67206">
        <ele>610.01980479541</ele>
        <time>2021-05-07T18:25:26.760Z</time>
      </trkpt>
      <trkpt lat="40.17956" lon="-3.672028">
        <ele>609.7857952765089</ele>
        <time>2021-05-07T18:25:29.068Z</time>
      </trkpt>
      <trkpt lat="40.179477" lon="-3.671987">
        <ele>609.541746978827</ele>
        <time>2021-05-07T18:25:31.377Z</time>
      </trkpt>
      <trkpt lat="40.179392" lon="-3.671948">
        <ele>609.2932891791527</ele>
        <time>2021-05-07T18:25:33.688Z</time>
      </trkpt>
      <trkpt lat="40.179303" lon="-3.671915">
        <ele>609.0425738073724</ele>
        <time>2021-05-07T18:25:36.001Z</time>
      </trkpt>
      <trkpt lat="40.179257" lon="-3.671898">
        <ele>608.803272543321</ele>
        <time>2021-05-07T18:25:38.315Z</time>
      </trkpt>
      <trkpt lat="40.179213" lon="-3.671883">
        <ele>608.5647294982068</ele>
        <time>2021-05-07T18:25:40.630Z</time>
      </trkpt>
      <trkpt lat="40.179137" lon="-3.671848">
        <ele>608.3181625862178</ele>
        <time>2021-05-07T18:25:42.947Z</time>
      </trkpt>
      <trkpt lat="40.179098" lon="-3.671832">
        <ele>608.0876635474722</ele>
        <time>2021-05-07T18:25:45.264Z</time>
      </trkpt>
      <trkpt lat="40.179037" lon="-3.671803">
        <ele>607.8560919267086</ele>
        <time>2021-05-07T18:25:47.583Z</time>
      </trkpt>
      <trkpt lat="40.179007" lon="-3.671778">
        <ele>607.6403400102206</ele>
        <time>2021-05-07T18:25:49.902Z</time>
      </trkpt>
      <trkpt lat="40.178963" lon="-3.671727">
        <ele>607.4268785303325</ele>
        <time>2021-05-07T18:25:52.223Z</time>
      </trkpt>
      <trkpt lat="40.17892" lon="-3.671683">
        <ele>607.2266252406637</ele>
        <time>2021-05-07T18:25:54.545Z</time>
      </trkpt>
      <trkpt lat="40.178865" lon="-3.671648">
        <ele>607.0384596740977</ele>
        <time>2021-05-07T18:25:56.868Z</time>
      </trkpt>
      <trkpt lat="40.178833" lon="-3.671638">
        <ele>606.8738730343134</ele>
        <time>2021-05-07T18:25:59.192Z</time>
      </trkpt>
      <trkpt lat="40.17882" lon="-3.67163">
        <ele>606.7279184240767</ele>
        <time>2021-05-07T18:26:01.516Z</time>
      </trkpt>
      <trkpt lat="40.178788" lon="-3.67162">
        <ele>606.5913298217936</ele>
        <time>2021-05-07T18:26:03.841Z</time>
      </trkpt>
      <trkpt lat="40.178772" lon="-3.671618">
        <ele>606.4759763011916</ele>
        <time>2021-05-07T18:26:06.166Z</time>
      </trkpt>
      <trkpt lat="40.178733" lon="-3.671618">
        <ele>606.375948375701</ele>
        <time>2021-05-07T18:26:08.492Z</time>
      </trkpt>
      <trkpt lat="40.178692" lon="-3.671623">
        <ele>606.2889744360098</ele>
        <time>2021-05-07T18:26:10.818Z</time>
      </trkpt>
      <trkpt lat="40.178643" lon="-3.671615">
        <ele>606.2115323503895</ele>
        <time>2021-05-07T18:26:13.145Z</time>
      </trkpt>
      <trkpt lat="40.178583" lon="-3.67162">
        <ele>606.1469837057941</ele>
        <time>2021-05-07T18:26:15.474Z</time>
      </trkpt>
      <trkpt lat="40.178522" lon="-3.671612">
        <ele>606.0901448249523</ele>
        <time>2021-05-07T18:26:17.804Z</time>
      </trkpt>
      <trkpt lat="40.17846" lon="-3.671592">
        <ele>606.0406647051459</ele>
        <time>2021-05-07T18:26:20.135Z</time>
      </trkpt>
      <trkpt lat="40.178403" lon="-3.671567">
        <ele>605.9990648017324</ele>
        <time>2021-05-07T18:26:22.467Z</time>
      </trkpt>
      <trkpt lat="40.178327" lon="-3.671558">
        <ele>605.9676241094164</ele>
        <time>2021-05-07T18:26:24.801Z</time>
      </trkpt>
      <trkpt lat="40.178233" lon="-3.67157">
        <ele>605.9453334286183</ele>
        <time>2021-05-07T18:26:27.137Z</time>
      </trkpt>
      <trkpt lat="40.17819" lon="-3.671553">
        <ele>605.9228764292026</ele>
        <time>2021-05-07T18:26:29.474Z</time>
      </trkpt>
      <trkpt lat="40.178117" lon="-3.67152">
        <ele>605.9023494971372</ele>
        <time>2021-05-07T18:26:31.812Z</time>
      </trkpt>
      <trkpt lat="40.178052" lon="-3.671495">
        <ele>605.887058953103</ele>
        <time>2021-05-07T18:26:34.152Z</time>
      </trkpt>
      <trkpt lat="40.17802" lon="-3.671507">
        <ele>605.8798602529257</ele>
        <time>2021-05-07T18:26:36.492Z</time>
      </trkpt>
      <trkpt lat="40.177933" lon="-3.671502">
        <ele>605.8699547816614</ele>
        <time>2021-05-07T18:26:38.834Z</time>
      </trkpt>
      <trkpt lat="40.177845" lon="-3.671503">
        <ele>605.8604209938327</ele>
        <time>2021-05-07T18:26:41.178Z</time>
      </trkpt>
      <trkpt lat="40.177808" lon="-3.67149">
        <ele>605.8470456842442</ele>
        <time>2021-05-07T18:26:43.523Z</time>
      </trkpt>
      <trkpt lat="40.177775" lon="-3.671475">
        <ele>605.8315059927568</ele>
        <time>2021-05-07T18:26:45.868Z</time>
      </trkpt>
      <trkpt lat="40.1777" lon="-3.671462">
        <ele>605.8138307039005</ele>
        <time>2021-05-07T18:26:48.215Z</time>
      </trkpt>
      <trkpt lat="40.17764" lon="-3.67145">
        <ele>605.7931970881482</ele>
        <time>2021-05-07T18:26:50.563Z</time>
      </trkpt>
      <trkpt lat="40.17761" lon="-3.671423">
        <ele>605.7668223968644</ele>
        <time>2021-05-07T18:26:52.912Z</time>
      </trkpt>
      <trkpt lat="40.177622" lon="-3.671362">
        <ele>605.7328072233406</ele>
        <time>2021-05-07T18:26:55.262Z</time>
      </trkpt>
      <trkpt lat="40.177638" lon="-3.671278">
        <ele>605.7037526075715</ele>
        <time>2021-05-07T18:26:57.613Z</time>
      </trkpt>
      <trkpt lat="40.177645" lon="-3.671187">
        <ele>605.6747710413213</ele>
        <time>2021-05-07T18:26:59.965Z</time>
      </trkpt>
      <trkpt lat="40.177658" lon="-3.671083">
        <ele>605.6407894948869</ele>
        <time>2021-05-07T18:27:02.319Z</time>
      </trkpt>
      <trkpt lat="40.177677" lon="-3.670983">
        <ele>605.6022043922719</ele>
        <time>2021-05-07T18:27:04.675Z</time>
      </trkpt>
      <trkpt lat="40.177702" lon="-3.670863">
        <ele>605.559648485736</ele>
        <time>2021-05-07T18:27:07.032Z</time>
      </trkpt>
      <trkpt lat="40.17774" lon="-3.670757">
        <ele>605.512989172232</ele>
        <time>2021-05-07T18:27:09.391Z</time>
      </trkpt>
      <trkpt lat="40.177768" lon="-3.670667">
        <ele>605.4673192367715</ele>
        <time>2021-05-07T18:27:11.752Z</time>
      </trkpt>
      <trkpt lat="40.177805" lon="-3.670573">
        <ele>605.4196022000341</ele>
        <time>2021-05-07T18:27:14.114Z</time>
      </trkpt>
      <trkpt lat="40.177842" lon="-3.670483">
        <ele>605.372714110691</ele>
        <time>2021-05-07T18:27:16.478Z</time>
      </trkpt>
      <trkpt lat="40.177868" lon="-3.670398">
        <ele>605.3289099915054</ele>
        <time>2021-05-07T18:27:18.843Z</time>
      </trkpt>
      <trkpt lat="40.1779" lon="-3.670308">
        <ele>605.2849712453924</ele>
        <time>2021-05-07T18:27:21.210Z</time>
      </trkpt>
      <trkpt lat="40.177917" lon="-3.670263">
        <ele>605.2447971930965</ele>
        <time>2021-05-07T18:27:23.578Z</time>
      </trkpt>
      <trkpt lat="40.17796" lon="-3.670177">
        <ele>605.2044695037782</ele>
        <time>2021-05-07T18:27:25.947Z</time>
      </trkpt>
      <trkpt lat="40.178028" lon="-3.670095">
        <ele>605.1736903133597</ele>
        <time>2021-05-07T18:27:28.318Z</time>
      </trkpt>
      <trkpt lat="40.17807" lon="-3.670062">
        <ele>605.1204158344185</ele>
        <time>2021-05-07T18:27:30.690Z</time>
      </trkpt>
      <trkpt lat="40.178163" lon="-3.670017">
        <ele>605.0578978239715</ele>
        <time>2021-05-07T18:27:33.064Z</time>
      </trkpt>
      <trkpt lat="40.178253" lon="-3.670013">
        <ele>604.9855365746888</ele>
        <time>2021-05-07T18:27:35.440Z</time>
      </trkpt>
      <trkpt lat="40.178328" lon="-3.670032">
        <ele>604.9115836657721</ele>
        <time>2021-05-07T18:27:37.817Z</time>
      </trkpt>
      <trkpt lat="40.178392" lon="-3.670052">
        <ele>604.8442062636012</ele>
        <time>2021-05-07T18:27:40.196Z</time>
      </trkpt>
      <trkpt lat="40.178422" lon="-3.670058">
        <ele>604.7896222938182</ele>
        <time>2021-05-07T18:27:42.575Z</time>
      </trkpt>
      <trkpt lat="40.178455" lon="-3.670093">
        <ele>604.735667733499</ele>
        <time>2021-05-07T18:27:44.955Z</time>
      </trkpt>
      <trkpt lat="40.178448" lon="-3.67012">
        <ele>604.700719638459</ele>
        <time>2021-05-07T18:27:47.336Z</time>
      </trkpt>
      <trkpt lat="40.178403" lon="-3.670138">
        <ele>604.681631265974</ele>
        <time>2021-05-07T18:27:49.717Z</time>
      </trkpt>
      <trkpt lat="40.178368" lon="-3.670135">
        <ele>604.670636840491</ele>
        <time>2021-05-07T18:27:52.099Z</time>
      </trkpt>
      <trkpt lat="40.178367" lon="-3.670123">
        <ele>604.6587102295691</ele>
        <time>2021-05-07T18:27:54.481Z</time>
      </trkpt>
      <trkpt lat="40.178365" lon="-3.670112">
        <ele>604.6473445181083</ele>
        <time>2021-05-07T18:27:56.864Z</time>
      </trkpt>
      <trkpt lat="40.19384" lon="-3.6564500000000004">
        <ele>580.85</ele>
      </trkpt>
      <trkpt lat="40.19398" lon="-3.6561500000000002">
        <ele>580.9000000000001</ele>
      </trkpt>
      <trkpt lat="40.194480000000006" lon="-3.65552">
        <ele>581.67</ele>
      </trkpt>
      <trkpt lat="40.19489000046006" lon="-3.6551850020440155">
        <ele>582.1800000000001</ele>
      </trkpt>
      <trkpt lat="40.1953" lon="-3.65485">
        <ele>582.8100000000001</ele>
      </trkpt>
      <trkpt lat="40.19549000000001" lon="-3.65478">
        <ele>583.37</ele>
      </trkpt>
      <trkpt lat="40.19624" lon="-3.6546900000000004">
        <ele>585.13</ele>
      </trkpt>
      <trkpt lat="40.196250000000006" lon="-3.6546900000000004">
        <ele>585.13</ele>
      </trkpt>
      <trkpt lat="40.19639" lon="-3.65471">
        <ele>585.48</ele>
      </trkpt>
      <trkpt lat="40.1968" lon="-3.65513">
        <ele>587.36</ele>
      </trkpt>
      <trkpt lat="40.19711" lon="-3.65539">
        <ele>587.9000000000001</ele>
      </trkpt>
      <trkpt lat="40.19765" lon="-3.6562500000000004">
        <ele>590.0000000000001</ele>
      </trkpt>
      <trkpt lat="40.19792" lon="-3.6563900000000005">
        <ele>591.01</ele>
      </trkpt>
      <trkpt lat="40.19825" lon="-3.65661">
        <ele>592.2400000000001</ele>
      </trkpt>
      <trkpt lat="40.198350000000005" lon="-3.65674">
        <ele>593.31</ele>
      </trkpt>
      <trkpt lat="40.19840000000001" lon="-3.65755">
        <ele>595.5500000000001</ele>
      </trkpt>
      <trkpt lat="40.198600000000006" lon="-3.6580100000000004">
        <ele>596.7300000000001</ele>
      </trkpt>
      <trkpt lat="40.19887000000001" lon="-3.6582600000000003">
        <ele>597.2900000000001</ele>
      </trkpt>
      <trkpt lat="40.199180000000005" lon="-3.65824">
        <ele>598.1800000000001</ele>
      </trkpt>
      <trkpt lat="40.199540000000006" lon="-3.6580800000000004">
        <ele>599.95</ele>
      </trkpt>
      <trkpt lat="40.20015" lon="-3.65811">
        <ele>603.21</ele>
      </trkpt>
      <trkpt lat="40.200950000000006" lon="-3.6578000000000004">
        <ele>605.84</ele>
      </trkpt>
      <trkpt lat="40.200950000000006" lon="-3.6578100000000004">
        <ele>605.84</ele>
      </trkpt>
      <trkpt lat="40.20114" lon="-3.6574800000000005">
        <ele>607.0500000000001</ele>
      </trkpt>
      <trkpt lat="40.201420000000006" lon="-3.6570700000000005">
        <ele>608.24</ele>
      </trkpt>
      <trkpt lat="40.201950000000004" lon="-3.6567900000000004">
        <ele>610.3400000000001</ele>
      </trkpt>
      <trkpt lat="40.202510000000004" lon="-3.65608">
        <ele>613.82</ele>
      </trkpt>
      <trkpt lat="40.20310500084344" lon="-3.6556650035708596">
        <ele>616.6600000000001</ele>
      </trkpt>
      <trkpt lat="40.203700000000005" lon="-3.65525">
        <ele>621.47</ele>
      </trkpt>
      <trkpt lat="40.2042" lon="-3.65518">
        <ele>623.78</ele>
      </trkpt>
      <trkpt lat="40.204510000000006" lon="-3.6550000000000002">
        <ele>625.71</ele>
      </trkpt>
      <trkpt lat="40.205220000000004" lon="-3.6545">
        <ele>630.62</ele>
      </trkpt>
      <trkpt lat="40.20535" lon="-3.6542600000000003">
        <ele>631.75</ele>
      </trkpt>
      <trkpt lat="40.20568" lon="-3.6539">
        <ele>635.63</ele>
      </trkpt>
      <trkpt lat="40.20618" lon="-3.65363">
        <ele>637.5600000000001</ele>
      </trkpt>
      <trkpt lat="40.20664" lon="-3.6535800000000003">
        <ele>639.87</ele>
      </trkpt>
      <trkpt lat="40.206990000000005" lon="-3.65328">
        <ele>639.96</ele>
      </trkpt>
      <trkpt lat="40.207300000000004" lon="-3.65309">
        <ele>639.73</ele>
      </trkpt>
      <trkpt lat="40.20787" lon="-3.6523000000000003">
        <ele>641.51</ele>
      </trkpt>
      <trkpt lat="40.20816500140572" lon="-3.651745002264141">
        <ele>640.38</ele>
      </trkpt>
      <trkpt lat="40.20846" lon="-3.65119">
        <ele>638.6200000000001</ele>
      </trkpt>
      <trkpt lat="40.20909666825737" lon="-3.65075667482468">
        <ele>639.26</ele>
      </trkpt>
      <trkpt lat="40.209733334898964" lon="-3.6503233415085385">
        <ele>642.47</ele>
      </trkpt>
      <trkpt lat="40.210370000000005" lon="-3.64989">
        <ele>647.29</ele>
      </trkpt>
      <trkpt lat="40.21078" lon="-3.64949">
        <ele>650.23</ele>
      </trkpt>
      <trkpt lat="40.21097" lon="-3.6491900000000004">
        <ele>653.61</ele>
      </trkpt>
      <trkpt lat="40.21112" lon="-3.64936">
        <ele>655.6800000000001</ele>
      </trkpt>
      <trkpt lat="40.21123" lon="-3.6494100000000005">
        <ele>656.08</ele>
      </trkpt>
      <trkpt lat="40.21146" lon="-3.6496800000000005">
        <ele>656.94</ele>
      </trkpt>
      <trkpt lat="40.21172000000001" lon="-3.6499500000000005">
        <ele>657.2900000000001</ele>
      </trkpt>
      <trkpt lat="40.21182" lon="-3.6500900000000005">
        <ele>657.2600000000001</ele>
      </trkpt>
      <trkpt lat="40.21182" lon="-3.6506300000000005">
        <ele>659.03</ele>
      </trkpt>
      <trkpt lat="40.211870000000005" lon="-3.6511000000000005">
        <ele>663.3100000000001</ele>
      </trkpt>
      <trkpt lat="40.21186" lon="-3.6512300000000004">
        <ele>664.19</ele>
      </trkpt>
      <trkpt lat="40.21177" lon="-3.65139">
        <ele>664.95</ele>
      </trkpt>
      <trkpt lat="40.211650000000006" lon="-3.6514800000000003">
        <ele>665.1700000000001</ele>
      </trkpt>
      <trkpt lat="40.2113" lon="-3.6516200000000003">
        <ele>665.6</ele>
      </trkpt>
      <trkpt lat="40.21119" lon="-3.6517100000000005">
        <ele>665.72</ele>
      </trkpt>
      <trkpt lat="40.211130000000004" lon="-3.6519500000000003">
        <ele>666.47</ele>
      </trkpt>
      <trkpt lat="40.211200000000005" lon="-3.65207">
        <ele>667.73</ele>
      </trkpt>
      <trkpt lat="40.21155" lon="-3.6524600000000005">
        <ele>670.94</ele>
      </trkpt>
      <trkpt lat="40.211650000000006" lon="-3.6525600000000003">
        <ele>671.0400000000001</ele>
      </trkpt>
      <trkpt lat="40.21184" lon="-3.6527100000000003">
        <ele>670.94</ele>
      </trkpt>
      <trkpt lat="40.211980000000004" lon="-3.6529400000000005">
        <ele>670.91</ele>
      </trkpt>
      <trkpt lat="40.21204" lon="-3.65323">
        <ele>671.3</ele>
      </trkpt>
    </trkseg>
  </trk>
</gpx>
